<?xml version="1.0" encoding="UTF-8" standalone="no" ?>
<gpx xmlns="http://www.topografix.com/GPX/1/1" xmlns:xsi="http://www.w3.org/2001/XMLSchema-instance" xsi:schemaLocation="http://www.topografix.com/GPX/1/1 http://www.topografix.com/GPX/1/1/gpx.xsd" version="1.1" creator="VisuGPX - https://www.visugpx.com">
  <metadata>
    <name>Pont du Chatel - Kerlouan</name>
  </metadata>
  <trk>
    <name><![CDATA[Pont du Chatel - Kerlouan]]></name>
    <extensions>
      <line xmlns="http://www.topografix.com/GPX/gpx_style/0/2">
        <color>0000FF</color>
        <width>4</width>
      </line>
    </extensions>
    <trkseg>
      <trkpt lat="48.53258" lon="-4.36608">
        <ele>49</ele>
        <time>2022-08-07T06:25:03.000Z</time>
      </trkpt>
      <trkpt lat="48.5326" lon="-4.36609">
        <ele>49</ele>
        <time>2022-08-07T06:25:04.000Z</time>
      </trkpt>
      <trkpt lat="48.53262" lon="-4.36608">
        <ele>49</ele>
        <time>2022-08-07T06:25:05.000Z</time>
      </trkpt>
      <trkpt lat="48.53263" lon="-4.36607">
        <ele>49.200000762939</ele>
        <time>2022-08-07T06:25:06.000Z</time>
      </trkpt>
      <trkpt lat="48.53269" lon="-4.36606">
        <ele>49.400001525879</ele>
        <time>2022-08-07T06:26:56.000Z</time>
      </trkpt>
      <trkpt lat="48.5327" lon="-4.36608">
        <ele>49.599998474121</ele>
        <time>2022-08-07T06:26:57.000Z</time>
      </trkpt>
      <trkpt lat="48.53271" lon="-4.36609">
        <ele>49.599998474121</ele>
        <time>2022-08-07T06:26:58.000Z</time>
      </trkpt>
      <trkpt lat="48.53271" lon="-4.3661">
        <ele>49.599998474121</ele>
        <time>2022-08-07T06:26:59.000Z</time>
      </trkpt>
      <trkpt lat="48.53273" lon="-4.36613">
        <ele>50</ele>
        <time>2022-08-07T06:27:02.000Z</time>
      </trkpt>
      <trkpt lat="48.53272" lon="-4.36614">
        <ele>50.200000762939</ele>
        <time>2022-08-07T06:27:03.000Z</time>
      </trkpt>
      <trkpt lat="48.53272" lon="-4.36615">
        <ele>50.200000762939</ele>
        <time>2022-08-07T06:27:04.000Z</time>
      </trkpt>
      <trkpt lat="48.53271" lon="-4.36616">
        <ele>50.400001525879</ele>
        <time>2022-08-07T06:27:05.000Z</time>
      </trkpt>
      <trkpt lat="48.53271" lon="-4.36618">
        <ele>50.400001525879</ele>
        <time>2022-08-07T06:27:06.000Z</time>
      </trkpt>
      <trkpt lat="48.5327" lon="-4.36621">
        <ele>50.400001525879</ele>
        <time>2022-08-07T06:27:07.000Z</time>
      </trkpt>
      <trkpt lat="48.5327" lon="-4.36623">
        <ele>50.400001525879</ele>
        <time>2022-08-07T06:27:08.000Z</time>
      </trkpt>
      <trkpt lat="48.5327" lon="-4.36624">
        <ele>50.400001525879</ele>
        <time>2022-08-07T06:27:09.000Z</time>
      </trkpt>
      <trkpt lat="48.5327" lon="-4.36626">
        <ele>50.599998474121</ele>
        <time>2022-08-07T06:27:10.000Z</time>
      </trkpt>
      <trkpt lat="48.53269" lon="-4.36628">
        <ele>50.599998474121</ele>
        <time>2022-08-07T06:27:11.000Z</time>
      </trkpt>
      <trkpt lat="48.53269" lon="-4.3663">
        <ele>50.599998474121</ele>
        <time>2022-08-07T06:27:12.000Z</time>
      </trkpt>
      <trkpt lat="48.53268" lon="-4.36632">
        <ele>50.599998474121</ele>
        <time>2022-08-07T06:27:13.000Z</time>
      </trkpt>
      <trkpt lat="48.53268" lon="-4.36634">
        <ele>50.799999237061</ele>
        <time>2022-08-07T06:27:14.000Z</time>
      </trkpt>
      <trkpt lat="48.53267" lon="-4.36636">
        <ele>50.799999237061</ele>
        <time>2022-08-07T06:27:15.000Z</time>
      </trkpt>
      <trkpt lat="48.53267" lon="-4.36638">
        <ele>51</ele>
        <time>2022-08-07T06:27:16.000Z</time>
      </trkpt>
      <trkpt lat="48.53266" lon="-4.36639">
        <ele>51</ele>
        <time>2022-08-07T06:27:17.000Z</time>
      </trkpt>
      <trkpt lat="48.53265" lon="-4.3664">
        <ele>51</ele>
        <time>2022-08-07T06:27:18.000Z</time>
      </trkpt>
      <trkpt lat="48.53264" lon="-4.3664">
        <ele>51.200000762939</ele>
        <time>2022-08-07T06:27:19.000Z</time>
      </trkpt>
      <trkpt lat="48.53263" lon="-4.36641">
        <ele>51.200000762939</ele>
        <time>2022-08-07T06:27:20.000Z</time>
      </trkpt>
      <trkpt lat="48.53261" lon="-4.36641">
        <ele>51.200000762939</ele>
        <time>2022-08-07T06:27:21.000Z</time>
      </trkpt>
      <trkpt lat="48.53259" lon="-4.36642">
        <ele>51.200000762939</ele>
        <time>2022-08-07T06:27:22.000Z</time>
      </trkpt>
      <trkpt lat="48.53257" lon="-4.36643">
        <ele>51.200000762939</ele>
        <time>2022-08-07T06:27:23.000Z</time>
      </trkpt>
      <trkpt lat="48.53254" lon="-4.36643">
        <ele>51.200000762939</ele>
        <time>2022-08-07T06:27:24.000Z</time>
      </trkpt>
      <trkpt lat="48.53252" lon="-4.36642">
        <ele>51.200000762939</ele>
        <time>2022-08-07T06:27:25.000Z</time>
      </trkpt>
      <trkpt lat="48.53249" lon="-4.36641">
        <ele>51.400001525879</ele>
        <time>2022-08-07T06:27:26.000Z</time>
      </trkpt>
      <trkpt lat="48.53245" lon="-4.3664">
        <ele>51.400001525879</ele>
        <time>2022-08-07T06:27:27.000Z</time>
      </trkpt>
      <trkpt lat="48.53242" lon="-4.36638">
        <ele>51.400001525879</ele>
        <time>2022-08-07T06:27:28.000Z</time>
      </trkpt>
      <trkpt lat="48.53238" lon="-4.36636">
        <ele>51.400001525879</ele>
        <time>2022-08-07T06:27:29.000Z</time>
      </trkpt>
      <trkpt lat="48.53236" lon="-4.36634">
        <ele>51.200000762939</ele>
        <time>2022-08-07T06:27:30.000Z</time>
      </trkpt>
      <trkpt lat="48.53232" lon="-4.36632">
        <ele>51.200000762939</ele>
        <time>2022-08-07T06:27:31.000Z</time>
      </trkpt>
      <trkpt lat="48.53228" lon="-4.36629">
        <ele>51.200000762939</ele>
        <time>2022-08-07T06:27:32.000Z</time>
      </trkpt>
      <trkpt lat="48.53225" lon="-4.36627">
        <ele>51.200000762939</ele>
        <time>2022-08-07T06:27:33.000Z</time>
      </trkpt>
      <trkpt lat="48.53222" lon="-4.36625">
        <ele>51.200000762939</ele>
        <time>2022-08-07T06:27:34.000Z</time>
      </trkpt>
      <trkpt lat="48.53221" lon="-4.3662">
        <ele>51.200000762939</ele>
        <time>2022-08-07T06:27:35.000Z</time>
      </trkpt>
      <trkpt lat="48.53222" lon="-4.36615">
        <ele>51.200000762939</ele>
        <time>2022-08-07T06:27:36.000Z</time>
      </trkpt>
      <trkpt lat="48.53225" lon="-4.36612">
        <ele>51</ele>
        <time>2022-08-07T06:27:37.000Z</time>
      </trkpt>
      <trkpt lat="48.53228" lon="-4.36609">
        <ele>51</ele>
        <time>2022-08-07T06:27:38.000Z</time>
      </trkpt>
      <trkpt lat="48.53232" lon="-4.36606">
        <ele>51</ele>
        <time>2022-08-07T06:27:39.000Z</time>
      </trkpt>
      <trkpt lat="48.53235" lon="-4.36601">
        <ele>51</ele>
        <time>2022-08-07T06:27:40.000Z</time>
      </trkpt>
      <trkpt lat="48.53239" lon="-4.36597">
        <ele>50.799999237061</ele>
        <time>2022-08-07T06:27:41.000Z</time>
      </trkpt>
      <trkpt lat="48.53242" lon="-4.36593">
        <ele>50.799999237061</ele>
        <time>2022-08-07T06:27:42.000Z</time>
      </trkpt>
      <trkpt lat="48.53246" lon="-4.36589">
        <ele>50.400001525879</ele>
        <time>2022-08-07T06:27:43.000Z</time>
      </trkpt>
      <trkpt lat="48.5325" lon="-4.36584">
        <ele>50.400001525879</ele>
        <time>2022-08-07T06:27:44.000Z</time>
      </trkpt>
      <trkpt lat="48.53254" lon="-4.36579">
        <ele>50.200000762939</ele>
        <time>2022-08-07T06:27:45.000Z</time>
      </trkpt>
      <trkpt lat="48.53257" lon="-4.36576">
        <ele>50</ele>
        <time>2022-08-07T06:27:46.000Z</time>
      </trkpt>
      <trkpt lat="48.53262" lon="-4.3657">
        <ele>50</ele>
        <time>2022-08-07T06:27:47.000Z</time>
      </trkpt>
      <trkpt lat="48.53264" lon="-4.36565">
        <ele>50</ele>
        <time>2022-08-07T06:27:48.000Z</time>
      </trkpt>
      <trkpt lat="48.53266" lon="-4.36559">
        <ele>49.799999237061</ele>
        <time>2022-08-07T06:27:49.000Z</time>
      </trkpt>
      <trkpt lat="48.53266" lon="-4.36554">
        <ele>49.599998474121</ele>
        <time>2022-08-07T06:27:50.000Z</time>
      </trkpt>
      <trkpt lat="48.53266" lon="-4.36549">
        <ele>49.599998474121</ele>
        <time>2022-08-07T06:27:51.000Z</time>
      </trkpt>
      <trkpt lat="48.53265" lon="-4.36543">
        <ele>49.200000762939</ele>
        <time>2022-08-07T06:27:52.000Z</time>
      </trkpt>
      <trkpt lat="48.53263" lon="-4.3654">
        <ele>48.799999237061</ele>
        <time>2022-08-07T06:27:53.000Z</time>
      </trkpt>
      <trkpt lat="48.53261" lon="-4.36539">
        <ele>48.400001525879</ele>
        <time>2022-08-07T06:27:54.000Z</time>
      </trkpt>
      <trkpt lat="48.53258" lon="-4.3654">
        <ele>48</ele>
        <time>2022-08-07T06:27:55.000Z</time>
      </trkpt>
      <trkpt lat="48.53257" lon="-4.36541">
        <ele>47.599998474121</ele>
        <time>2022-08-07T06:27:56.000Z</time>
      </trkpt>
      <trkpt lat="48.53255" lon="-4.36543">
        <ele>47.200000762939</ele>
        <time>2022-08-07T06:27:57.000Z</time>
      </trkpt>
      <trkpt lat="48.53253" lon="-4.36545">
        <ele>47.200000762939</ele>
        <time>2022-08-07T06:27:58.000Z</time>
      </trkpt>
      <trkpt lat="48.53251" lon="-4.36548">
        <ele>46.799999237061</ele>
        <time>2022-08-07T06:27:59.000Z</time>
      </trkpt>
      <trkpt lat="48.53249" lon="-4.36552">
        <ele>46.799999237061</ele>
        <time>2022-08-07T06:28:00.000Z</time>
      </trkpt>
      <trkpt lat="48.53246" lon="-4.36554">
        <ele>46.599998474121</ele>
        <time>2022-08-07T06:28:01.000Z</time>
      </trkpt>
      <trkpt lat="48.53245" lon="-4.36557">
        <ele>46.599998474121</ele>
        <time>2022-08-07T06:28:02.000Z</time>
      </trkpt>
      <trkpt lat="48.53242" lon="-4.36559">
        <ele>46.599998474121</ele>
        <time>2022-08-07T06:28:03.000Z</time>
      </trkpt>
      <trkpt lat="48.53239" lon="-4.36563">
        <ele>46.400001525879</ele>
        <time>2022-08-07T06:28:04.000Z</time>
      </trkpt>
      <trkpt lat="48.53237" lon="-4.36565">
        <ele>46.400001525879</ele>
        <time>2022-08-07T06:28:05.000Z</time>
      </trkpt>
      <trkpt lat="48.53235" lon="-4.36568">
        <ele>46.400001525879</ele>
        <time>2022-08-07T06:28:06.000Z</time>
      </trkpt>
      <trkpt lat="48.53233" lon="-4.3657">
        <ele>46.400001525879</ele>
        <time>2022-08-07T06:28:07.000Z</time>
      </trkpt>
      <trkpt lat="48.53231" lon="-4.36572">
        <ele>46.400001525879</ele>
        <time>2022-08-07T06:28:08.000Z</time>
      </trkpt>
      <trkpt lat="48.53228" lon="-4.36575">
        <ele>46.400001525879</ele>
        <time>2022-08-07T06:28:09.000Z</time>
      </trkpt>
      <trkpt lat="48.53227" lon="-4.36577">
        <ele>46.400001525879</ele>
        <time>2022-08-07T06:28:10.000Z</time>
      </trkpt>
      <trkpt lat="48.53224" lon="-4.36579">
        <ele>46.400001525879</ele>
        <time>2022-08-07T06:28:11.000Z</time>
      </trkpt>
      <trkpt lat="48.53222" lon="-4.36581">
        <ele>46.200000762939</ele>
        <time>2022-08-07T06:28:12.000Z</time>
      </trkpt>
      <trkpt lat="48.5322" lon="-4.36583">
        <ele>46.200000762939</ele>
        <time>2022-08-07T06:28:13.000Z</time>
      </trkpt>
      <trkpt lat="48.53218" lon="-4.36585">
        <ele>46.200000762939</ele>
        <time>2022-08-07T06:28:14.000Z</time>
      </trkpt>
      <trkpt lat="48.53217" lon="-4.36587">
        <ele>46.200000762939</ele>
        <time>2022-08-07T06:28:15.000Z</time>
      </trkpt>
      <trkpt lat="48.53215" lon="-4.36589">
        <ele>46.200000762939</ele>
        <time>2022-08-07T06:28:16.000Z</time>
      </trkpt>
      <trkpt lat="48.53214" lon="-4.3659">
        <ele>46.200000762939</ele>
        <time>2022-08-07T06:28:19.000Z</time>
      </trkpt>
      <trkpt lat="48.53213" lon="-4.36591">
        <ele>46.200000762939</ele>
        <time>2022-08-07T06:28:20.000Z</time>
      </trkpt>
      <trkpt lat="48.53213" lon="-4.36592">
        <ele>46.200000762939</ele>
        <time>2022-08-07T06:28:21.000Z</time>
      </trkpt>
      <trkpt lat="48.53212" lon="-4.36593">
        <ele>46.200000762939</ele>
        <time>2022-08-07T06:28:22.000Z</time>
      </trkpt>
      <trkpt lat="48.53213" lon="-4.36593">
        <ele>46</ele>
        <time>2022-08-07T06:37:37.000Z</time>
      </trkpt>
      <trkpt lat="48.53214" lon="-4.36593">
        <ele>46.200000762939</ele>
        <time>2022-08-07T06:37:54.000Z</time>
      </trkpt>
      <trkpt lat="48.53216" lon="-4.36591">
        <ele>46.200000762939</ele>
        <time>2022-08-07T06:37:55.000Z</time>
      </trkpt>
      <trkpt lat="48.53218" lon="-4.36589">
        <ele>46.200000762939</ele>
        <time>2022-08-07T06:37:56.000Z</time>
      </trkpt>
      <trkpt lat="48.5322" lon="-4.36587">
        <ele>46.200000762939</ele>
        <time>2022-08-07T06:37:57.000Z</time>
      </trkpt>
      <trkpt lat="48.53223" lon="-4.36584">
        <ele>46.200000762939</ele>
        <time>2022-08-07T06:37:58.000Z</time>
      </trkpt>
      <trkpt lat="48.53225" lon="-4.36581">
        <ele>46</ele>
        <time>2022-08-07T06:37:59.000Z</time>
      </trkpt>
      <trkpt lat="48.53228" lon="-4.36578">
        <ele>46</ele>
        <time>2022-08-07T06:38:00.000Z</time>
      </trkpt>
      <trkpt lat="48.5323" lon="-4.36575">
        <ele>46</ele>
        <time>2022-08-07T06:38:01.000Z</time>
      </trkpt>
      <trkpt lat="48.53232" lon="-4.36572">
        <ele>46.200000762939</ele>
        <time>2022-08-07T06:38:02.000Z</time>
      </trkpt>
      <trkpt lat="48.53235" lon="-4.36569">
        <ele>46.200000762939</ele>
        <time>2022-08-07T06:38:03.000Z</time>
      </trkpt>
      <trkpt lat="48.53237" lon="-4.36566">
        <ele>46.200000762939</ele>
        <time>2022-08-07T06:38:04.000Z</time>
      </trkpt>
      <trkpt lat="48.53239" lon="-4.36564">
        <ele>46.200000762939</ele>
        <time>2022-08-07T06:38:05.000Z</time>
      </trkpt>
      <trkpt lat="48.53241" lon="-4.36561">
        <ele>46.400001525879</ele>
        <time>2022-08-07T06:38:06.000Z</time>
      </trkpt>
      <trkpt lat="48.53243" lon="-4.36559">
        <ele>46.400001525879</ele>
        <time>2022-08-07T06:38:07.000Z</time>
      </trkpt>
      <trkpt lat="48.53245" lon="-4.36556">
        <ele>46.400001525879</ele>
        <time>2022-08-07T06:38:08.000Z</time>
      </trkpt>
      <trkpt lat="48.53247" lon="-4.36554">
        <ele>46.400001525879</ele>
        <time>2022-08-07T06:38:09.000Z</time>
      </trkpt>
      <trkpt lat="48.53249" lon="-4.36551">
        <ele>46.400001525879</ele>
        <time>2022-08-07T06:38:10.000Z</time>
      </trkpt>
      <trkpt lat="48.53251" lon="-4.36549">
        <ele>46.400001525879</ele>
        <time>2022-08-07T06:38:11.000Z</time>
      </trkpt>
      <trkpt lat="48.53253" lon="-4.36547">
        <ele>46.400001525879</ele>
        <time>2022-08-07T06:38:12.000Z</time>
      </trkpt>
      <trkpt lat="48.53255" lon="-4.36545">
        <ele>46.400001525879</ele>
        <time>2022-08-07T06:38:13.000Z</time>
      </trkpt>
      <trkpt lat="48.53257" lon="-4.36542">
        <ele>46.400001525879</ele>
        <time>2022-08-07T06:38:14.000Z</time>
      </trkpt>
      <trkpt lat="48.53258" lon="-4.36541">
        <ele>46.400001525879</ele>
        <time>2022-08-07T06:38:15.000Z</time>
      </trkpt>
      <trkpt lat="48.53261" lon="-4.3654">
        <ele>46.400001525879</ele>
        <time>2022-08-07T06:38:16.000Z</time>
      </trkpt>
      <trkpt lat="48.53264" lon="-4.36541">
        <ele>46.400001525879</ele>
        <time>2022-08-07T06:38:17.000Z</time>
      </trkpt>
      <trkpt lat="48.53266" lon="-4.36543">
        <ele>46.400001525879</ele>
        <time>2022-08-07T06:38:18.000Z</time>
      </trkpt>
      <trkpt lat="48.53269" lon="-4.36544">
        <ele>46.400001525879</ele>
        <time>2022-08-07T06:38:19.000Z</time>
      </trkpt>
      <trkpt lat="48.53271" lon="-4.36543">
        <ele>46.599998474121</ele>
        <time>2022-08-07T06:38:20.000Z</time>
      </trkpt>
      <trkpt lat="48.53274" lon="-4.36542">
        <ele>46.599998474121</ele>
        <time>2022-08-07T06:38:21.000Z</time>
      </trkpt>
      <trkpt lat="48.53276" lon="-4.3654">
        <ele>46.599998474121</ele>
        <time>2022-08-07T06:38:22.000Z</time>
      </trkpt>
      <trkpt lat="48.53278" lon="-4.36539">
        <ele>46.599998474121</ele>
        <time>2022-08-07T06:38:23.000Z</time>
      </trkpt>
      <trkpt lat="48.53281" lon="-4.36538">
        <ele>46.599998474121</ele>
        <time>2022-08-07T06:38:24.000Z</time>
      </trkpt>
      <trkpt lat="48.53283" lon="-4.36536">
        <ele>46.400001525879</ele>
        <time>2022-08-07T06:38:25.000Z</time>
      </trkpt>
      <trkpt lat="48.53285" lon="-4.36534">
        <ele>46.400001525879</ele>
        <time>2022-08-07T06:38:26.000Z</time>
      </trkpt>
      <trkpt lat="48.53287" lon="-4.36533">
        <ele>46.400001525879</ele>
        <time>2022-08-07T06:38:27.000Z</time>
      </trkpt>
      <trkpt lat="48.53289" lon="-4.36531">
        <ele>46.400001525879</ele>
        <time>2022-08-07T06:38:28.000Z</time>
      </trkpt>
      <trkpt lat="48.53292" lon="-4.36529">
        <ele>46.400001525879</ele>
        <time>2022-08-07T06:38:29.000Z</time>
      </trkpt>
      <trkpt lat="48.53294" lon="-4.36527">
        <ele>46.400001525879</ele>
        <time>2022-08-07T06:38:30.000Z</time>
      </trkpt>
      <trkpt lat="48.53296" lon="-4.36526">
        <ele>46.599998474121</ele>
        <time>2022-08-07T06:38:31.000Z</time>
      </trkpt>
      <trkpt lat="48.53298" lon="-4.36523">
        <ele>46.599998474121</ele>
        <time>2022-08-07T06:38:32.000Z</time>
      </trkpt>
      <trkpt lat="48.53301" lon="-4.36521">
        <ele>46.599998474121</ele>
        <time>2022-08-07T06:38:33.000Z</time>
      </trkpt>
      <trkpt lat="48.53303" lon="-4.36519">
        <ele>46.599998474121</ele>
        <time>2022-08-07T06:38:34.000Z</time>
      </trkpt>
      <trkpt lat="48.53305" lon="-4.36517">
        <ele>46.599998474121</ele>
        <time>2022-08-07T06:38:35.000Z</time>
      </trkpt>
      <trkpt lat="48.53307" lon="-4.36515">
        <ele>46.599998474121</ele>
        <time>2022-08-07T06:38:36.000Z</time>
      </trkpt>
      <trkpt lat="48.53309" lon="-4.36513">
        <ele>46.599998474121</ele>
        <time>2022-08-07T06:38:37.000Z</time>
      </trkpt>
      <trkpt lat="48.53311" lon="-4.36512">
        <ele>46.599998474121</ele>
        <time>2022-08-07T06:38:38.000Z</time>
      </trkpt>
      <trkpt lat="48.53312" lon="-4.3651">
        <ele>46.599998474121</ele>
        <time>2022-08-07T06:38:39.000Z</time>
      </trkpt>
      <trkpt lat="48.53314" lon="-4.36509">
        <ele>46.599998474121</ele>
        <time>2022-08-07T06:38:40.000Z</time>
      </trkpt>
      <trkpt lat="48.53316" lon="-4.36508">
        <ele>46.599998474121</ele>
        <time>2022-08-07T06:38:41.000Z</time>
      </trkpt>
      <trkpt lat="48.53318" lon="-4.36507">
        <ele>46.599998474121</ele>
        <time>2022-08-07T06:38:42.000Z</time>
      </trkpt>
      <trkpt lat="48.53319" lon="-4.36506">
        <ele>46.599998474121</ele>
        <time>2022-08-07T06:38:43.000Z</time>
      </trkpt>
      <trkpt lat="48.53322" lon="-4.36505">
        <ele>46.599998474121</ele>
        <time>2022-08-07T06:38:44.000Z</time>
      </trkpt>
      <trkpt lat="48.53324" lon="-4.36504">
        <ele>46.599998474121</ele>
        <time>2022-08-07T06:38:45.000Z</time>
      </trkpt>
      <trkpt lat="48.53325" lon="-4.36502">
        <ele>46.599998474121</ele>
        <time>2022-08-07T06:38:46.000Z</time>
      </trkpt>
      <trkpt lat="48.53327" lon="-4.36501">
        <ele>46.599998474121</ele>
        <time>2022-08-07T06:38:47.000Z</time>
      </trkpt>
      <trkpt lat="48.53329" lon="-4.36501">
        <ele>46.599998474121</ele>
        <time>2022-08-07T06:38:48.000Z</time>
      </trkpt>
      <trkpt lat="48.53331" lon="-4.365">
        <ele>46.599998474121</ele>
        <time>2022-08-07T06:38:49.000Z</time>
      </trkpt>
      <trkpt lat="48.53332" lon="-4.365">
        <ele>46.599998474121</ele>
        <time>2022-08-07T06:38:50.000Z</time>
      </trkpt>
      <trkpt lat="48.53334" lon="-4.36501">
        <ele>46.599998474121</ele>
        <time>2022-08-07T06:38:51.000Z</time>
      </trkpt>
      <trkpt lat="48.53336" lon="-4.36502">
        <ele>46.599998474121</ele>
        <time>2022-08-07T06:38:52.000Z</time>
      </trkpt>
      <trkpt lat="48.53338" lon="-4.36502">
        <ele>46.599998474121</ele>
        <time>2022-08-07T06:38:53.000Z</time>
      </trkpt>
      <trkpt lat="48.53339" lon="-4.36502">
        <ele>46.599998474121</ele>
        <time>2022-08-07T06:38:54.000Z</time>
      </trkpt>
      <trkpt lat="48.5334" lon="-4.36501">
        <ele>46.599998474121</ele>
        <time>2022-08-07T06:38:55.000Z</time>
      </trkpt>
      <trkpt lat="48.53342" lon="-4.365">
        <ele>46.400001525879</ele>
        <time>2022-08-07T06:38:56.000Z</time>
      </trkpt>
      <trkpt lat="48.53345" lon="-4.36498">
        <ele>46.400001525879</ele>
        <time>2022-08-07T06:38:57.000Z</time>
      </trkpt>
      <trkpt lat="48.53348" lon="-4.36498">
        <ele>46.200000762939</ele>
        <time>2022-08-07T06:38:58.000Z</time>
      </trkpt>
      <trkpt lat="48.53352" lon="-4.36498">
        <ele>46.200000762939</ele>
        <time>2022-08-07T06:38:59.000Z</time>
      </trkpt>
      <trkpt lat="48.53356" lon="-4.36499">
        <ele>46</ele>
        <time>2022-08-07T06:39:00.000Z</time>
      </trkpt>
      <trkpt lat="48.53361" lon="-4.36501">
        <ele>45.599998474121</ele>
        <time>2022-08-07T06:39:01.000Z</time>
      </trkpt>
      <trkpt lat="48.53367" lon="-4.36502">
        <ele>45.200000762939</ele>
        <time>2022-08-07T06:39:02.000Z</time>
      </trkpt>
      <trkpt lat="48.53373" lon="-4.36502">
        <ele>44.599998474121</ele>
        <time>2022-08-07T06:39:03.000Z</time>
      </trkpt>
      <trkpt lat="48.5338" lon="-4.365">
        <ele>43.799999237061</ele>
        <time>2022-08-07T06:39:04.000Z</time>
      </trkpt>
      <trkpt lat="48.53387" lon="-4.36498">
        <ele>42.599998474121</ele>
        <time>2022-08-07T06:39:05.000Z</time>
      </trkpt>
      <trkpt lat="48.53393" lon="-4.36496">
        <ele>41.799999237061</ele>
        <time>2022-08-07T06:39:06.000Z</time>
      </trkpt>
      <trkpt lat="48.53401" lon="-4.36496">
        <ele>40.599998474121</ele>
        <time>2022-08-07T06:39:07.000Z</time>
      </trkpt>
      <trkpt lat="48.53405" lon="-4.36496">
        <ele>39.599998474121</ele>
        <time>2022-08-07T06:39:08.000Z</time>
      </trkpt>
      <trkpt lat="48.53411" lon="-4.36499">
        <ele>37.799999237061</ele>
        <time>2022-08-07T06:39:09.000Z</time>
      </trkpt>
      <trkpt lat="48.53417" lon="-4.36503">
        <ele>37.400001525879</ele>
        <time>2022-08-07T06:39:10.000Z</time>
      </trkpt>
      <trkpt lat="48.53424" lon="-4.36508">
        <ele>36.799999237061</ele>
        <time>2022-08-07T06:39:11.000Z</time>
      </trkpt>
      <trkpt lat="48.53427" lon="-4.36511">
        <ele>36.599998474121</ele>
        <time>2022-08-07T06:39:12.000Z</time>
      </trkpt>
      <trkpt lat="48.53431" lon="-4.36515">
        <ele>36.400001525879</ele>
        <time>2022-08-07T06:39:13.000Z</time>
      </trkpt>
      <trkpt lat="48.53436" lon="-4.3652">
        <ele>36.200000762939</ele>
        <time>2022-08-07T06:39:14.000Z</time>
      </trkpt>
      <trkpt lat="48.53439" lon="-4.36524">
        <ele>36.200000762939</ele>
        <time>2022-08-07T06:39:15.000Z</time>
      </trkpt>
      <trkpt lat="48.53442" lon="-4.36527">
        <ele>36.599998474121</ele>
        <time>2022-08-07T06:39:16.000Z</time>
      </trkpt>
      <trkpt lat="48.53445" lon="-4.3653">
        <ele>36.599998474121</ele>
        <time>2022-08-07T06:39:17.000Z</time>
      </trkpt>
      <trkpt lat="48.53447" lon="-4.36532">
        <ele>36.799999237061</ele>
        <time>2022-08-07T06:39:18.000Z</time>
      </trkpt>
      <trkpt lat="48.5345" lon="-4.36535">
        <ele>37</ele>
        <time>2022-08-07T06:39:19.000Z</time>
      </trkpt>
      <trkpt lat="48.53452" lon="-4.36539">
        <ele>37.599998474121</ele>
        <time>2022-08-07T06:39:20.000Z</time>
      </trkpt>
      <trkpt lat="48.53454" lon="-4.36541">
        <ele>37.799999237061</ele>
        <time>2022-08-07T06:39:21.000Z</time>
      </trkpt>
      <trkpt lat="48.53456" lon="-4.36543">
        <ele>38.200000762939</ele>
        <time>2022-08-07T06:39:22.000Z</time>
      </trkpt>
      <trkpt lat="48.53459" lon="-4.36543">
        <ele>38.599998474121</ele>
        <time>2022-08-07T06:39:23.000Z</time>
      </trkpt>
      <trkpt lat="48.53463" lon="-4.36548">
        <ele>38.799999237061</ele>
        <time>2022-08-07T06:39:24.000Z</time>
      </trkpt>
      <trkpt lat="48.53468" lon="-4.36549">
        <ele>38.799999237061</ele>
        <time>2022-08-07T06:39:25.000Z</time>
      </trkpt>
      <trkpt lat="48.53472" lon="-4.36551">
        <ele>39</ele>
        <time>2022-08-07T06:39:26.000Z</time>
      </trkpt>
      <trkpt lat="48.53477" lon="-4.36553">
        <ele>39</ele>
        <time>2022-08-07T06:39:27.000Z</time>
      </trkpt>
      <trkpt lat="48.53481" lon="-4.36556">
        <ele>39.200000762939</ele>
        <time>2022-08-07T06:39:28.000Z</time>
      </trkpt>
      <trkpt lat="48.53486" lon="-4.36558">
        <ele>39.400001525879</ele>
        <time>2022-08-07T06:39:29.000Z</time>
      </trkpt>
      <trkpt lat="48.53492" lon="-4.36562">
        <ele>39.200000762939</ele>
        <time>2022-08-07T06:39:30.000Z</time>
      </trkpt>
      <trkpt lat="48.53496" lon="-4.36564">
        <ele>39.200000762939</ele>
        <time>2022-08-07T06:39:31.000Z</time>
      </trkpt>
      <trkpt lat="48.53501" lon="-4.36569">
        <ele>39.200000762939</ele>
        <time>2022-08-07T06:39:32.000Z</time>
      </trkpt>
      <trkpt lat="48.53504" lon="-4.36571">
        <ele>39.200000762939</ele>
        <time>2022-08-07T06:39:33.000Z</time>
      </trkpt>
      <trkpt lat="48.53508" lon="-4.36573">
        <ele>39.200000762939</ele>
        <time>2022-08-07T06:39:34.000Z</time>
      </trkpt>
      <trkpt lat="48.53512" lon="-4.36576">
        <ele>39.200000762939</ele>
        <time>2022-08-07T06:39:35.000Z</time>
      </trkpt>
      <trkpt lat="48.53515" lon="-4.36582">
        <ele>39.200000762939</ele>
        <time>2022-08-07T06:39:36.000Z</time>
      </trkpt>
      <trkpt lat="48.53518" lon="-4.36589">
        <ele>39.200000762939</ele>
        <time>2022-08-07T06:39:37.000Z</time>
      </trkpt>
      <trkpt lat="48.53522" lon="-4.36593">
        <ele>39.200000762939</ele>
        <time>2022-08-07T06:39:38.000Z</time>
      </trkpt>
      <trkpt lat="48.53525" lon="-4.36599">
        <ele>39.200000762939</ele>
        <time>2022-08-07T06:39:39.000Z</time>
      </trkpt>
      <trkpt lat="48.53529" lon="-4.36603">
        <ele>39.200000762939</ele>
        <time>2022-08-07T06:39:40.000Z</time>
      </trkpt>
      <trkpt lat="48.53533" lon="-4.36606">
        <ele>39.200000762939</ele>
        <time>2022-08-07T06:39:41.000Z</time>
      </trkpt>
      <trkpt lat="48.53537" lon="-4.36607">
        <ele>39</ele>
        <time>2022-08-07T06:39:42.000Z</time>
      </trkpt>
      <trkpt lat="48.53541" lon="-4.36607">
        <ele>39</ele>
        <time>2022-08-07T06:39:43.000Z</time>
      </trkpt>
      <trkpt lat="48.53545" lon="-4.36607">
        <ele>39.200000762939</ele>
        <time>2022-08-07T06:39:44.000Z</time>
      </trkpt>
      <trkpt lat="48.53548" lon="-4.36609">
        <ele>38.799999237061</ele>
        <time>2022-08-07T06:39:45.000Z</time>
      </trkpt>
      <trkpt lat="48.53552" lon="-4.36611">
        <ele>38.799999237061</ele>
        <time>2022-08-07T06:39:46.000Z</time>
      </trkpt>
      <trkpt lat="48.53555" lon="-4.36613">
        <ele>38.599998474121</ele>
        <time>2022-08-07T06:39:47.000Z</time>
      </trkpt>
      <trkpt lat="48.53558" lon="-4.36617">
        <ele>38.400001525879</ele>
        <time>2022-08-07T06:39:48.000Z</time>
      </trkpt>
      <trkpt lat="48.53566" lon="-4.36621">
        <ele>38.200000762939</ele>
        <time>2022-08-07T06:39:49.000Z</time>
      </trkpt>
      <trkpt lat="48.53574" lon="-4.36625">
        <ele>38</ele>
        <time>2022-08-07T06:39:50.000Z</time>
      </trkpt>
      <trkpt lat="48.53578" lon="-4.3663">
        <ele>37.400001525879</ele>
        <time>2022-08-07T06:39:51.000Z</time>
      </trkpt>
      <trkpt lat="48.53581" lon="-4.36637">
        <ele>37</ele>
        <time>2022-08-07T06:39:52.000Z</time>
      </trkpt>
      <trkpt lat="48.53585" lon="-4.36645">
        <ele>36.599998474121</ele>
        <time>2022-08-07T06:39:53.000Z</time>
      </trkpt>
      <trkpt lat="48.53588" lon="-4.36653">
        <ele>36.200000762939</ele>
        <time>2022-08-07T06:39:54.000Z</time>
      </trkpt>
      <trkpt lat="48.53591" lon="-4.36658">
        <ele>36</ele>
        <time>2022-08-07T06:39:55.000Z</time>
      </trkpt>
      <trkpt lat="48.53596" lon="-4.36664">
        <ele>35.599998474121</ele>
        <time>2022-08-07T06:39:56.000Z</time>
      </trkpt>
      <trkpt lat="48.53599" lon="-4.36671">
        <ele>35.400001525879</ele>
        <time>2022-08-07T06:39:57.000Z</time>
      </trkpt>
      <trkpt lat="48.53602" lon="-4.36678">
        <ele>35.200000762939</ele>
        <time>2022-08-07T06:39:58.000Z</time>
      </trkpt>
      <trkpt lat="48.53606" lon="-4.36684">
        <ele>35.200000762939</ele>
        <time>2022-08-07T06:39:59.000Z</time>
      </trkpt>
      <trkpt lat="48.53611" lon="-4.36691">
        <ele>35</ele>
        <time>2022-08-07T06:40:00.000Z</time>
      </trkpt>
      <trkpt lat="48.53615" lon="-4.36696">
        <ele>35</ele>
        <time>2022-08-07T06:40:01.000Z</time>
      </trkpt>
      <trkpt lat="48.53619" lon="-4.36701">
        <ele>34.799999237061</ele>
        <time>2022-08-07T06:40:02.000Z</time>
      </trkpt>
      <trkpt lat="48.53622" lon="-4.36707">
        <ele>34.799999237061</ele>
        <time>2022-08-07T06:40:03.000Z</time>
      </trkpt>
      <trkpt lat="48.53625" lon="-4.3671">
        <ele>34.799999237061</ele>
        <time>2022-08-07T06:40:04.000Z</time>
      </trkpt>
      <trkpt lat="48.53629" lon="-4.36716">
        <ele>34.799999237061</ele>
        <time>2022-08-07T06:40:05.000Z</time>
      </trkpt>
      <trkpt lat="48.53633" lon="-4.36722">
        <ele>34.799999237061</ele>
        <time>2022-08-07T06:40:06.000Z</time>
      </trkpt>
      <trkpt lat="48.53636" lon="-4.36725">
        <ele>35</ele>
        <time>2022-08-07T06:40:07.000Z</time>
      </trkpt>
      <trkpt lat="48.5364" lon="-4.36727">
        <ele>35</ele>
        <time>2022-08-07T06:40:08.000Z</time>
      </trkpt>
      <trkpt lat="48.53642" lon="-4.36728">
        <ele>35.400001525879</ele>
        <time>2022-08-07T06:40:09.000Z</time>
      </trkpt>
      <trkpt lat="48.53646" lon="-4.3673">
        <ele>35.799999237061</ele>
        <time>2022-08-07T06:40:10.000Z</time>
      </trkpt>
      <trkpt lat="48.5365" lon="-4.36735">
        <ele>35.799999237061</ele>
        <time>2022-08-07T06:40:11.000Z</time>
      </trkpt>
      <trkpt lat="48.53654" lon="-4.3674">
        <ele>36</ele>
        <time>2022-08-07T06:40:12.000Z</time>
      </trkpt>
      <trkpt lat="48.53659" lon="-4.36742">
        <ele>36</ele>
        <time>2022-08-07T06:40:13.000Z</time>
      </trkpt>
      <trkpt lat="48.53663" lon="-4.36742">
        <ele>36.200000762939</ele>
        <time>2022-08-07T06:40:14.000Z</time>
      </trkpt>
      <trkpt lat="48.53668" lon="-4.36742">
        <ele>36.200000762939</ele>
        <time>2022-08-07T06:40:15.000Z</time>
      </trkpt>
      <trkpt lat="48.53673" lon="-4.36741">
        <ele>36.200000762939</ele>
        <time>2022-08-07T06:40:16.000Z</time>
      </trkpt>
      <trkpt lat="48.53681" lon="-4.36742">
        <ele>36.200000762939</ele>
        <time>2022-08-07T06:40:17.000Z</time>
      </trkpt>
      <trkpt lat="48.53687" lon="-4.36744">
        <ele>36.200000762939</ele>
        <time>2022-08-07T06:40:18.000Z</time>
      </trkpt>
      <trkpt lat="48.53692" lon="-4.36746">
        <ele>36.200000762939</ele>
        <time>2022-08-07T06:40:19.000Z</time>
      </trkpt>
      <trkpt lat="48.53698" lon="-4.36748">
        <ele>36.200000762939</ele>
        <time>2022-08-07T06:40:20.000Z</time>
      </trkpt>
      <trkpt lat="48.53702" lon="-4.3675">
        <ele>36.200000762939</ele>
        <time>2022-08-07T06:40:21.000Z</time>
      </trkpt>
      <trkpt lat="48.53708" lon="-4.36752">
        <ele>36.200000762939</ele>
        <time>2022-08-07T06:40:22.000Z</time>
      </trkpt>
      <trkpt lat="48.53712" lon="-4.36754">
        <ele>36.200000762939</ele>
        <time>2022-08-07T06:40:23.000Z</time>
      </trkpt>
      <trkpt lat="48.53716" lon="-4.36757">
        <ele>36</ele>
        <time>2022-08-07T06:40:24.000Z</time>
      </trkpt>
      <trkpt lat="48.5372" lon="-4.3676">
        <ele>36</ele>
        <time>2022-08-07T06:40:25.000Z</time>
      </trkpt>
      <trkpt lat="48.53726" lon="-4.36767">
        <ele>36</ele>
        <time>2022-08-07T06:40:26.000Z</time>
      </trkpt>
      <trkpt lat="48.53731" lon="-4.36774">
        <ele>36</ele>
        <time>2022-08-07T06:40:27.000Z</time>
      </trkpt>
      <trkpt lat="48.53735" lon="-4.36777">
        <ele>36</ele>
        <time>2022-08-07T06:40:28.000Z</time>
      </trkpt>
      <trkpt lat="48.53738" lon="-4.3678">
        <ele>36</ele>
        <time>2022-08-07T06:40:29.000Z</time>
      </trkpt>
      <trkpt lat="48.53741" lon="-4.36785">
        <ele>36.200000762939</ele>
        <time>2022-08-07T06:40:30.000Z</time>
      </trkpt>
      <trkpt lat="48.53743" lon="-4.36791">
        <ele>36.400001525879</ele>
        <time>2022-08-07T06:40:31.000Z</time>
      </trkpt>
      <trkpt lat="48.53746" lon="-4.36796">
        <ele>36.200000762939</ele>
        <time>2022-08-07T06:40:32.000Z</time>
      </trkpt>
      <trkpt lat="48.5375" lon="-4.36802">
        <ele>36.599998474121</ele>
        <time>2022-08-07T06:40:33.000Z</time>
      </trkpt>
      <trkpt lat="48.53755" lon="-4.36809">
        <ele>36.599998474121</ele>
        <time>2022-08-07T06:40:34.000Z</time>
      </trkpt>
      <trkpt lat="48.53758" lon="-4.36815">
        <ele>36.799999237061</ele>
        <time>2022-08-07T06:40:35.000Z</time>
      </trkpt>
      <trkpt lat="48.5376" lon="-4.36818">
        <ele>36.799999237061</ele>
        <time>2022-08-07T06:40:36.000Z</time>
      </trkpt>
      <trkpt lat="48.53763" lon="-4.36823">
        <ele>36.799999237061</ele>
        <time>2022-08-07T06:40:37.000Z</time>
      </trkpt>
      <trkpt lat="48.53765" lon="-4.36826">
        <ele>36.400001525879</ele>
        <time>2022-08-07T06:40:38.000Z</time>
      </trkpt>
      <trkpt lat="48.53768" lon="-4.36829">
        <ele>36.599998474121</ele>
        <time>2022-08-07T06:40:39.000Z</time>
      </trkpt>
      <trkpt lat="48.5377" lon="-4.36831">
        <ele>36.599998474121</ele>
        <time>2022-08-07T06:40:40.000Z</time>
      </trkpt>
      <trkpt lat="48.53774" lon="-4.36832">
        <ele>36.799999237061</ele>
        <time>2022-08-07T06:40:41.000Z</time>
      </trkpt>
      <trkpt lat="48.53779" lon="-4.36829">
        <ele>36.599998474121</ele>
        <time>2022-08-07T06:40:42.000Z</time>
      </trkpt>
      <trkpt lat="48.53782" lon="-4.36825">
        <ele>36.599998474121</ele>
        <time>2022-08-07T06:40:43.000Z</time>
      </trkpt>
      <trkpt lat="48.53785" lon="-4.3682">
        <ele>36.599998474121</ele>
        <time>2022-08-07T06:40:44.000Z</time>
      </trkpt>
      <trkpt lat="48.53789" lon="-4.36814">
        <ele>36.599998474121</ele>
        <time>2022-08-07T06:40:45.000Z</time>
      </trkpt>
      <trkpt lat="48.53794" lon="-4.36807">
        <ele>36.400001525879</ele>
        <time>2022-08-07T06:40:46.000Z</time>
      </trkpt>
      <trkpt lat="48.538" lon="-4.368">
        <ele>36.400001525879</ele>
        <time>2022-08-07T06:40:47.000Z</time>
      </trkpt>
      <trkpt lat="48.53806" lon="-4.36796">
        <ele>36.400001525879</ele>
        <time>2022-08-07T06:40:48.000Z</time>
      </trkpt>
      <trkpt lat="48.53811" lon="-4.3679">
        <ele>36.400001525879</ele>
        <time>2022-08-07T06:40:49.000Z</time>
      </trkpt>
      <trkpt lat="48.53817" lon="-4.36783">
        <ele>36.200000762939</ele>
        <time>2022-08-07T06:40:50.000Z</time>
      </trkpt>
      <trkpt lat="48.53822" lon="-4.36778">
        <ele>36.200000762939</ele>
        <time>2022-08-07T06:40:51.000Z</time>
      </trkpt>
      <trkpt lat="48.53828" lon="-4.36774">
        <ele>36</ele>
        <time>2022-08-07T06:40:52.000Z</time>
      </trkpt>
      <trkpt lat="48.53833" lon="-4.3677">
        <ele>35.799999237061</ele>
        <time>2022-08-07T06:40:53.000Z</time>
      </trkpt>
      <trkpt lat="48.53839" lon="-4.36766">
        <ele>35.599998474121</ele>
        <time>2022-08-07T06:40:54.000Z</time>
      </trkpt>
      <trkpt lat="48.53844" lon="-4.36761">
        <ele>35.599998474121</ele>
        <time>2022-08-07T06:40:55.000Z</time>
      </trkpt>
      <trkpt lat="48.5385" lon="-4.36757">
        <ele>35.400001525879</ele>
        <time>2022-08-07T06:40:56.000Z</time>
      </trkpt>
      <trkpt lat="48.53855" lon="-4.36753">
        <ele>35.400001525879</ele>
        <time>2022-08-07T06:40:57.000Z</time>
      </trkpt>
      <trkpt lat="48.5386" lon="-4.36748">
        <ele>35.200000762939</ele>
        <time>2022-08-07T06:40:58.000Z</time>
      </trkpt>
      <trkpt lat="48.53865" lon="-4.36743">
        <ele>35.200000762939</ele>
        <time>2022-08-07T06:40:59.000Z</time>
      </trkpt>
      <trkpt lat="48.53869" lon="-4.36738">
        <ele>35.200000762939</ele>
        <time>2022-08-07T06:41:00.000Z</time>
      </trkpt>
      <trkpt lat="48.53874" lon="-4.36734">
        <ele>35.200000762939</ele>
        <time>2022-08-07T06:41:01.000Z</time>
      </trkpt>
      <trkpt lat="48.53879" lon="-4.36729">
        <ele>35.200000762939</ele>
        <time>2022-08-07T06:41:02.000Z</time>
      </trkpt>
      <trkpt lat="48.53883" lon="-4.36726">
        <ele>35.200000762939</ele>
        <time>2022-08-07T06:41:03.000Z</time>
      </trkpt>
      <trkpt lat="48.53887" lon="-4.36723">
        <ele>35.200000762939</ele>
        <time>2022-08-07T06:41:04.000Z</time>
      </trkpt>
      <trkpt lat="48.53891" lon="-4.3672">
        <ele>35.599998474121</ele>
        <time>2022-08-07T06:41:05.000Z</time>
      </trkpt>
      <trkpt lat="48.53895" lon="-4.36719">
        <ele>35.599998474121</ele>
        <time>2022-08-07T06:41:06.000Z</time>
      </trkpt>
      <trkpt lat="48.53898" lon="-4.36718">
        <ele>36</ele>
        <time>2022-08-07T06:41:07.000Z</time>
      </trkpt>
      <trkpt lat="48.53902" lon="-4.36719">
        <ele>36.200000762939</ele>
        <time>2022-08-07T06:41:08.000Z</time>
      </trkpt>
      <trkpt lat="48.53904" lon="-4.36719">
        <ele>36.400001525879</ele>
        <time>2022-08-07T06:41:09.000Z</time>
      </trkpt>
      <trkpt lat="48.53907" lon="-4.36719">
        <ele>36.799999237061</ele>
        <time>2022-08-07T06:41:10.000Z</time>
      </trkpt>
      <trkpt lat="48.53908" lon="-4.36719">
        <ele>37.200000762939</ele>
        <time>2022-08-07T06:41:11.000Z</time>
      </trkpt>
      <trkpt lat="48.5391" lon="-4.36719">
        <ele>37.599998474121</ele>
        <time>2022-08-07T06:41:12.000Z</time>
      </trkpt>
      <trkpt lat="48.53912" lon="-4.36719">
        <ele>37.599998474121</ele>
        <time>2022-08-07T06:41:13.000Z</time>
      </trkpt>
      <trkpt lat="48.53915" lon="-4.36718">
        <ele>37.799999237061</ele>
        <time>2022-08-07T06:41:14.000Z</time>
      </trkpt>
      <trkpt lat="48.53917" lon="-4.36716">
        <ele>37.799999237061</ele>
        <time>2022-08-07T06:41:15.000Z</time>
      </trkpt>
      <trkpt lat="48.5392" lon="-4.36714">
        <ele>38</ele>
        <time>2022-08-07T06:41:16.000Z</time>
      </trkpt>
      <trkpt lat="48.53922" lon="-4.36711">
        <ele>38</ele>
        <time>2022-08-07T06:41:17.000Z</time>
      </trkpt>
      <trkpt lat="48.53925" lon="-4.36708">
        <ele>38.200000762939</ele>
        <time>2022-08-07T06:41:18.000Z</time>
      </trkpt>
      <trkpt lat="48.53927" lon="-4.36704">
        <ele>38.400001525879</ele>
        <time>2022-08-07T06:41:19.000Z</time>
      </trkpt>
      <trkpt lat="48.53929" lon="-4.36699">
        <ele>38.400001525879</ele>
        <time>2022-08-07T06:41:20.000Z</time>
      </trkpt>
      <trkpt lat="48.53931" lon="-4.36695">
        <ele>38.599998474121</ele>
        <time>2022-08-07T06:41:21.000Z</time>
      </trkpt>
      <trkpt lat="48.53933" lon="-4.36691">
        <ele>38.599998474121</ele>
        <time>2022-08-07T06:41:22.000Z</time>
      </trkpt>
      <trkpt lat="48.53935" lon="-4.36687">
        <ele>38.599998474121</ele>
        <time>2022-08-07T06:41:23.000Z</time>
      </trkpt>
      <trkpt lat="48.53938" lon="-4.36683">
        <ele>38.599998474121</ele>
        <time>2022-08-07T06:41:24.000Z</time>
      </trkpt>
      <trkpt lat="48.5394" lon="-4.36678">
        <ele>38.599998474121</ele>
        <time>2022-08-07T06:41:25.000Z</time>
      </trkpt>
      <trkpt lat="48.53942" lon="-4.36674">
        <ele>38.799999237061</ele>
        <time>2022-08-07T06:41:26.000Z</time>
      </trkpt>
      <trkpt lat="48.53945" lon="-4.3667">
        <ele>38.799999237061</ele>
        <time>2022-08-07T06:41:27.000Z</time>
      </trkpt>
      <trkpt lat="48.53947" lon="-4.36665">
        <ele>38.799999237061</ele>
        <time>2022-08-07T06:41:28.000Z</time>
      </trkpt>
      <trkpt lat="48.53949" lon="-4.3666">
        <ele>39</ele>
        <time>2022-08-07T06:41:29.000Z</time>
      </trkpt>
      <trkpt lat="48.53951" lon="-4.36655">
        <ele>39</ele>
        <time>2022-08-07T06:41:30.000Z</time>
      </trkpt>
      <trkpt lat="48.53953" lon="-4.36651">
        <ele>39</ele>
        <time>2022-08-07T06:41:31.000Z</time>
      </trkpt>
      <trkpt lat="48.53955" lon="-4.36646">
        <ele>39.200000762939</ele>
        <time>2022-08-07T06:41:32.000Z</time>
      </trkpt>
      <trkpt lat="48.53957" lon="-4.36641">
        <ele>39.200000762939</ele>
        <time>2022-08-07T06:41:33.000Z</time>
      </trkpt>
      <trkpt lat="48.53959" lon="-4.36637">
        <ele>39.200000762939</ele>
        <time>2022-08-07T06:41:34.000Z</time>
      </trkpt>
      <trkpt lat="48.53961" lon="-4.36632">
        <ele>39.200000762939</ele>
        <time>2022-08-07T06:41:35.000Z</time>
      </trkpt>
      <trkpt lat="48.53963" lon="-4.36627">
        <ele>39.400001525879</ele>
        <time>2022-08-07T06:41:36.000Z</time>
      </trkpt>
      <trkpt lat="48.53965" lon="-4.36623">
        <ele>39.400001525879</ele>
        <time>2022-08-07T06:41:37.000Z</time>
      </trkpt>
      <trkpt lat="48.53968" lon="-4.36618">
        <ele>39.599998474121</ele>
        <time>2022-08-07T06:41:38.000Z</time>
      </trkpt>
      <trkpt lat="48.53971" lon="-4.36615">
        <ele>39.799999237061</ele>
        <time>2022-08-07T06:41:39.000Z</time>
      </trkpt>
      <trkpt lat="48.53975" lon="-4.36615">
        <ele>39.799999237061</ele>
        <time>2022-08-07T06:41:40.000Z</time>
      </trkpt>
      <trkpt lat="48.53979" lon="-4.36617">
        <ele>40</ele>
        <time>2022-08-07T06:41:41.000Z</time>
      </trkpt>
      <trkpt lat="48.53982" lon="-4.3662">
        <ele>40</ele>
        <time>2022-08-07T06:41:42.000Z</time>
      </trkpt>
      <trkpt lat="48.53986" lon="-4.36624">
        <ele>40</ele>
        <time>2022-08-07T06:41:43.000Z</time>
      </trkpt>
      <trkpt lat="48.53989" lon="-4.36628">
        <ele>40.200000762939</ele>
        <time>2022-08-07T06:41:44.000Z</time>
      </trkpt>
      <trkpt lat="48.53992" lon="-4.36631">
        <ele>40.200000762939</ele>
        <time>2022-08-07T06:41:45.000Z</time>
      </trkpt>
      <trkpt lat="48.53994" lon="-4.36634">
        <ele>40.400001525879</ele>
        <time>2022-08-07T06:41:46.000Z</time>
      </trkpt>
      <trkpt lat="48.53997" lon="-4.36638">
        <ele>40.599998474121</ele>
        <time>2022-08-07T06:41:47.000Z</time>
      </trkpt>
      <trkpt lat="48.53999" lon="-4.36641">
        <ele>40.599998474121</ele>
        <time>2022-08-07T06:41:48.000Z</time>
      </trkpt>
      <trkpt lat="48.54002" lon="-4.36645">
        <ele>40.799999237061</ele>
        <time>2022-08-07T06:41:49.000Z</time>
      </trkpt>
      <trkpt lat="48.54004" lon="-4.36648">
        <ele>41</ele>
        <time>2022-08-07T06:41:50.000Z</time>
      </trkpt>
      <trkpt lat="48.54006" lon="-4.36651">
        <ele>41.200000762939</ele>
        <time>2022-08-07T06:41:51.000Z</time>
      </trkpt>
      <trkpt lat="48.54009" lon="-4.36654">
        <ele>41.400001525879</ele>
        <time>2022-08-07T06:41:52.000Z</time>
      </trkpt>
      <trkpt lat="48.54011" lon="-4.36656">
        <ele>41.599998474121</ele>
        <time>2022-08-07T06:41:53.000Z</time>
      </trkpt>
      <trkpt lat="48.54014" lon="-4.36658">
        <ele>41.799999237061</ele>
        <time>2022-08-07T06:41:54.000Z</time>
      </trkpt>
      <trkpt lat="48.54016" lon="-4.3666">
        <ele>42</ele>
        <time>2022-08-07T06:41:55.000Z</time>
      </trkpt>
      <trkpt lat="48.54019" lon="-4.36663">
        <ele>42.400001525879</ele>
        <time>2022-08-07T06:41:56.000Z</time>
      </trkpt>
      <trkpt lat="48.5402" lon="-4.36664">
        <ele>42.400001525879</ele>
        <time>2022-08-07T06:41:57.000Z</time>
      </trkpt>
      <trkpt lat="48.54022" lon="-4.36667">
        <ele>42.799999237061</ele>
        <time>2022-08-07T06:41:58.000Z</time>
      </trkpt>
      <trkpt lat="48.54025" lon="-4.3667">
        <ele>43</ele>
        <time>2022-08-07T06:41:59.000Z</time>
      </trkpt>
      <trkpt lat="48.54028" lon="-4.36673">
        <ele>43.200000762939</ele>
        <time>2022-08-07T06:42:00.000Z</time>
      </trkpt>
      <trkpt lat="48.5403" lon="-4.36676">
        <ele>43.400001525879</ele>
        <time>2022-08-07T06:42:01.000Z</time>
      </trkpt>
      <trkpt lat="48.54033" lon="-4.36678">
        <ele>43.599998474121</ele>
        <time>2022-08-07T06:42:02.000Z</time>
      </trkpt>
      <trkpt lat="48.54036" lon="-4.3668">
        <ele>43.799999237061</ele>
        <time>2022-08-07T06:42:03.000Z</time>
      </trkpt>
      <trkpt lat="48.54039" lon="-4.36681">
        <ele>44</ele>
        <time>2022-08-07T06:42:04.000Z</time>
      </trkpt>
      <trkpt lat="48.54042" lon="-4.36683">
        <ele>44.400001525879</ele>
        <time>2022-08-07T06:42:05.000Z</time>
      </trkpt>
      <trkpt lat="48.54046" lon="-4.36685">
        <ele>44.400001525879</ele>
        <time>2022-08-07T06:42:06.000Z</time>
      </trkpt>
      <trkpt lat="48.54049" lon="-4.36687">
        <ele>44.599998474121</ele>
        <time>2022-08-07T06:42:07.000Z</time>
      </trkpt>
      <trkpt lat="48.54052" lon="-4.36688">
        <ele>44.599998474121</ele>
        <time>2022-08-07T06:42:08.000Z</time>
      </trkpt>
      <trkpt lat="48.54055" lon="-4.3669">
        <ele>44.799999237061</ele>
        <time>2022-08-07T06:42:09.000Z</time>
      </trkpt>
      <trkpt lat="48.54059" lon="-4.36692">
        <ele>45</ele>
        <time>2022-08-07T06:42:10.000Z</time>
      </trkpt>
      <trkpt lat="48.54063" lon="-4.36694">
        <ele>45</ele>
        <time>2022-08-07T06:42:11.000Z</time>
      </trkpt>
      <trkpt lat="48.54066" lon="-4.36696">
        <ele>45.200000762939</ele>
        <time>2022-08-07T06:42:12.000Z</time>
      </trkpt>
      <trkpt lat="48.5407" lon="-4.36697">
        <ele>45.200000762939</ele>
        <time>2022-08-07T06:42:13.000Z</time>
      </trkpt>
      <trkpt lat="48.54073" lon="-4.36699">
        <ele>45.200000762939</ele>
        <time>2022-08-07T06:42:14.000Z</time>
      </trkpt>
      <trkpt lat="48.54076" lon="-4.36701">
        <ele>45.400001525879</ele>
        <time>2022-08-07T06:42:15.000Z</time>
      </trkpt>
      <trkpt lat="48.5408" lon="-4.36702">
        <ele>45.400001525879</ele>
        <time>2022-08-07T06:42:16.000Z</time>
      </trkpt>
      <trkpt lat="48.54083" lon="-4.36703">
        <ele>45.400001525879</ele>
        <time>2022-08-07T06:42:17.000Z</time>
      </trkpt>
      <trkpt lat="48.54087" lon="-4.36704">
        <ele>45.599998474121</ele>
        <time>2022-08-07T06:42:18.000Z</time>
      </trkpt>
      <trkpt lat="48.54091" lon="-4.36705">
        <ele>45.599998474121</ele>
        <time>2022-08-07T06:42:19.000Z</time>
      </trkpt>
      <trkpt lat="48.54094" lon="-4.36706">
        <ele>45.599998474121</ele>
        <time>2022-08-07T06:42:20.000Z</time>
      </trkpt>
      <trkpt lat="48.54098" lon="-4.36707">
        <ele>45.799999237061</ele>
        <time>2022-08-07T06:42:21.000Z</time>
      </trkpt>
      <trkpt lat="48.54101" lon="-4.36708">
        <ele>45.799999237061</ele>
        <time>2022-08-07T06:42:22.000Z</time>
      </trkpt>
      <trkpt lat="48.54105" lon="-4.36708">
        <ele>46</ele>
        <time>2022-08-07T06:42:23.000Z</time>
      </trkpt>
      <trkpt lat="48.54108" lon="-4.36708">
        <ele>46</ele>
        <time>2022-08-07T06:42:24.000Z</time>
      </trkpt>
      <trkpt lat="48.54113" lon="-4.36708">
        <ele>46.200000762939</ele>
        <time>2022-08-07T06:42:25.000Z</time>
      </trkpt>
      <trkpt lat="48.54117" lon="-4.36708">
        <ele>46.200000762939</ele>
        <time>2022-08-07T06:42:26.000Z</time>
      </trkpt>
      <trkpt lat="48.5412" lon="-4.36708">
        <ele>46.200000762939</ele>
        <time>2022-08-07T06:42:27.000Z</time>
      </trkpt>
      <trkpt lat="48.54124" lon="-4.36708">
        <ele>46.400001525879</ele>
        <time>2022-08-07T06:42:28.000Z</time>
      </trkpt>
      <trkpt lat="48.54128" lon="-4.36708">
        <ele>46.400001525879</ele>
        <time>2022-08-07T06:42:29.000Z</time>
      </trkpt>
      <trkpt lat="48.54132" lon="-4.36708">
        <ele>46.599998474121</ele>
        <time>2022-08-07T06:42:30.000Z</time>
      </trkpt>
      <trkpt lat="48.54135" lon="-4.36708">
        <ele>46.599998474121</ele>
        <time>2022-08-07T06:42:31.000Z</time>
      </trkpt>
      <trkpt lat="48.54139" lon="-4.36708">
        <ele>46.799999237061</ele>
        <time>2022-08-07T06:42:32.000Z</time>
      </trkpt>
      <trkpt lat="48.54143" lon="-4.36708">
        <ele>46.799999237061</ele>
        <time>2022-08-07T06:42:33.000Z</time>
      </trkpt>
      <trkpt lat="48.54147" lon="-4.36707">
        <ele>47</ele>
        <time>2022-08-07T06:42:34.000Z</time>
      </trkpt>
      <trkpt lat="48.54151" lon="-4.36707">
        <ele>47</ele>
        <time>2022-08-07T06:42:35.000Z</time>
      </trkpt>
      <trkpt lat="48.54155" lon="-4.36706">
        <ele>47</ele>
        <time>2022-08-07T06:42:36.000Z</time>
      </trkpt>
      <trkpt lat="48.54158" lon="-4.36706">
        <ele>47</ele>
        <time>2022-08-07T06:42:37.000Z</time>
      </trkpt>
      <trkpt lat="48.54161" lon="-4.36706">
        <ele>47</ele>
        <time>2022-08-07T06:42:38.000Z</time>
      </trkpt>
      <trkpt lat="48.54165" lon="-4.36705">
        <ele>47.200000762939</ele>
        <time>2022-08-07T06:42:39.000Z</time>
      </trkpt>
      <trkpt lat="48.54169" lon="-4.36704">
        <ele>47.200000762939</ele>
        <time>2022-08-07T06:42:40.000Z</time>
      </trkpt>
      <trkpt lat="48.54173" lon="-4.36703">
        <ele>47.200000762939</ele>
        <time>2022-08-07T06:42:41.000Z</time>
      </trkpt>
      <trkpt lat="48.54176" lon="-4.36701">
        <ele>47.400001525879</ele>
        <time>2022-08-07T06:42:42.000Z</time>
      </trkpt>
      <trkpt lat="48.5418" lon="-4.367">
        <ele>47.400001525879</ele>
        <time>2022-08-07T06:42:43.000Z</time>
      </trkpt>
      <trkpt lat="48.54183" lon="-4.36698">
        <ele>47.599998474121</ele>
        <time>2022-08-07T06:42:44.000Z</time>
      </trkpt>
      <trkpt lat="48.54187" lon="-4.36696">
        <ele>47.599998474121</ele>
        <time>2022-08-07T06:42:45.000Z</time>
      </trkpt>
      <trkpt lat="48.54191" lon="-4.36695">
        <ele>47.599998474121</ele>
        <time>2022-08-07T06:42:46.000Z</time>
      </trkpt>
      <trkpt lat="48.54195" lon="-4.36694">
        <ele>47.799999237061</ele>
        <time>2022-08-07T06:42:47.000Z</time>
      </trkpt>
      <trkpt lat="48.54199" lon="-4.36696">
        <ele>47.799999237061</ele>
        <time>2022-08-07T06:42:48.000Z</time>
      </trkpt>
      <trkpt lat="48.54202" lon="-4.36699">
        <ele>47.799999237061</ele>
        <time>2022-08-07T06:42:49.000Z</time>
      </trkpt>
      <trkpt lat="48.54204" lon="-4.36705">
        <ele>48</ele>
        <time>2022-08-07T06:42:50.000Z</time>
      </trkpt>
      <trkpt lat="48.54206" lon="-4.36711">
        <ele>48</ele>
        <time>2022-08-07T06:42:51.000Z</time>
      </trkpt>
      <trkpt lat="48.54207" lon="-4.36717">
        <ele>48</ele>
        <time>2022-08-07T06:42:52.000Z</time>
      </trkpt>
      <trkpt lat="48.54208" lon="-4.36722">
        <ele>48</ele>
        <time>2022-08-07T06:42:53.000Z</time>
      </trkpt>
      <trkpt lat="48.54209" lon="-4.36728">
        <ele>48</ele>
        <time>2022-08-07T06:42:54.000Z</time>
      </trkpt>
      <trkpt lat="48.5421" lon="-4.36734">
        <ele>48</ele>
        <time>2022-08-07T06:42:55.000Z</time>
      </trkpt>
      <trkpt lat="48.54211" lon="-4.3674">
        <ele>48</ele>
        <time>2022-08-07T06:42:56.000Z</time>
      </trkpt>
      <trkpt lat="48.54212" lon="-4.36746">
        <ele>48</ele>
        <time>2022-08-07T06:42:57.000Z</time>
      </trkpt>
      <trkpt lat="48.54213" lon="-4.36752">
        <ele>48</ele>
        <time>2022-08-07T06:42:58.000Z</time>
      </trkpt>
      <trkpt lat="48.54215" lon="-4.36758">
        <ele>48</ele>
        <time>2022-08-07T06:42:59.000Z</time>
      </trkpt>
      <trkpt lat="48.54216" lon="-4.36764">
        <ele>48</ele>
        <time>2022-08-07T06:43:00.000Z</time>
      </trkpt>
      <trkpt lat="48.54217" lon="-4.3677">
        <ele>48</ele>
        <time>2022-08-07T06:43:01.000Z</time>
      </trkpt>
      <trkpt lat="48.54219" lon="-4.36776">
        <ele>47.799999237061</ele>
        <time>2022-08-07T06:43:02.000Z</time>
      </trkpt>
      <trkpt lat="48.5422" lon="-4.36782">
        <ele>47.799999237061</ele>
        <time>2022-08-07T06:43:03.000Z</time>
      </trkpt>
      <trkpt lat="48.54222" lon="-4.36787">
        <ele>47.799999237061</ele>
        <time>2022-08-07T06:43:04.000Z</time>
      </trkpt>
      <trkpt lat="48.54225" lon="-4.36793">
        <ele>47.799999237061</ele>
        <time>2022-08-07T06:43:05.000Z</time>
      </trkpt>
      <trkpt lat="48.54228" lon="-4.36799">
        <ele>47.599998474121</ele>
        <time>2022-08-07T06:43:06.000Z</time>
      </trkpt>
      <trkpt lat="48.5423" lon="-4.36804">
        <ele>47.599998474121</ele>
        <time>2022-08-07T06:43:07.000Z</time>
      </trkpt>
      <trkpt lat="48.54233" lon="-4.3681">
        <ele>47.599998474121</ele>
        <time>2022-08-07T06:43:08.000Z</time>
      </trkpt>
      <trkpt lat="48.54236" lon="-4.36816">
        <ele>47.599998474121</ele>
        <time>2022-08-07T06:43:09.000Z</time>
      </trkpt>
      <trkpt lat="48.5424" lon="-4.36823">
        <ele>47.400001525879</ele>
        <time>2022-08-07T06:43:10.000Z</time>
      </trkpt>
      <trkpt lat="48.54243" lon="-4.36829">
        <ele>47.400001525879</ele>
        <time>2022-08-07T06:43:11.000Z</time>
      </trkpt>
      <trkpt lat="48.54246" lon="-4.36836">
        <ele>47.200000762939</ele>
        <time>2022-08-07T06:43:12.000Z</time>
      </trkpt>
      <trkpt lat="48.54249" lon="-4.36843">
        <ele>47</ele>
        <time>2022-08-07T06:43:13.000Z</time>
      </trkpt>
      <trkpt lat="48.54252" lon="-4.36849">
        <ele>46.799999237061</ele>
        <time>2022-08-07T06:43:14.000Z</time>
      </trkpt>
      <trkpt lat="48.54255" lon="-4.36855">
        <ele>46.799999237061</ele>
        <time>2022-08-07T06:43:15.000Z</time>
      </trkpt>
      <trkpt lat="48.54258" lon="-4.36861">
        <ele>46.400001525879</ele>
        <time>2022-08-07T06:43:16.000Z</time>
      </trkpt>
      <trkpt lat="48.54261" lon="-4.36866">
        <ele>46.200000762939</ele>
        <time>2022-08-07T06:43:17.000Z</time>
      </trkpt>
      <trkpt lat="48.54264" lon="-4.36872">
        <ele>46</ele>
        <time>2022-08-07T06:43:18.000Z</time>
      </trkpt>
      <trkpt lat="48.54266" lon="-4.36877">
        <ele>45.599998474121</ele>
        <time>2022-08-07T06:43:19.000Z</time>
      </trkpt>
      <trkpt lat="48.54269" lon="-4.36883">
        <ele>45.400001525879</ele>
        <time>2022-08-07T06:43:20.000Z</time>
      </trkpt>
      <trkpt lat="48.54272" lon="-4.36888">
        <ele>45.200000762939</ele>
        <time>2022-08-07T06:43:21.000Z</time>
      </trkpt>
      <trkpt lat="48.54274" lon="-4.36892">
        <ele>45</ele>
        <time>2022-08-07T06:43:22.000Z</time>
      </trkpt>
      <trkpt lat="48.54277" lon="-4.36894">
        <ele>44.400001525879</ele>
        <time>2022-08-07T06:43:23.000Z</time>
      </trkpt>
      <trkpt lat="48.5428" lon="-4.36894">
        <ele>44.400001525879</ele>
        <time>2022-08-07T06:43:24.000Z</time>
      </trkpt>
      <trkpt lat="48.54281" lon="-4.3689">
        <ele>44</ele>
        <time>2022-08-07T06:43:25.000Z</time>
      </trkpt>
      <trkpt lat="48.54283" lon="-4.36885">
        <ele>44</ele>
        <time>2022-08-07T06:43:26.000Z</time>
      </trkpt>
      <trkpt lat="48.54284" lon="-4.36878">
        <ele>44</ele>
        <time>2022-08-07T06:43:27.000Z</time>
      </trkpt>
      <trkpt lat="48.54285" lon="-4.36872">
        <ele>44</ele>
        <time>2022-08-07T06:43:28.000Z</time>
      </trkpt>
      <trkpt lat="48.54286" lon="-4.36866">
        <ele>44</ele>
        <time>2022-08-07T06:43:29.000Z</time>
      </trkpt>
      <trkpt lat="48.54288" lon="-4.36859">
        <ele>43.799999237061</ele>
        <time>2022-08-07T06:43:30.000Z</time>
      </trkpt>
      <trkpt lat="48.5429" lon="-4.36853">
        <ele>43.799999237061</ele>
        <time>2022-08-07T06:43:31.000Z</time>
      </trkpt>
      <trkpt lat="48.54292" lon="-4.36846">
        <ele>43.799999237061</ele>
        <time>2022-08-07T06:43:32.000Z</time>
      </trkpt>
      <trkpt lat="48.54293" lon="-4.36839">
        <ele>43.599998474121</ele>
        <time>2022-08-07T06:43:33.000Z</time>
      </trkpt>
      <trkpt lat="48.54294" lon="-4.36833">
        <ele>43.400001525879</ele>
        <time>2022-08-07T06:43:34.000Z</time>
      </trkpt>
      <trkpt lat="48.54296" lon="-4.36827">
        <ele>43.200000762939</ele>
        <time>2022-08-07T06:43:35.000Z</time>
      </trkpt>
      <trkpt lat="48.54297" lon="-4.3682">
        <ele>43</ele>
        <time>2022-08-07T06:43:36.000Z</time>
      </trkpt>
      <trkpt lat="48.54299" lon="-4.36814">
        <ele>43</ele>
        <time>2022-08-07T06:43:37.000Z</time>
      </trkpt>
      <trkpt lat="48.54301" lon="-4.36808">
        <ele>42.799999237061</ele>
        <time>2022-08-07T06:43:38.000Z</time>
      </trkpt>
      <trkpt lat="48.54304" lon="-4.36802">
        <ele>42.799999237061</ele>
        <time>2022-08-07T06:43:39.000Z</time>
      </trkpt>
      <trkpt lat="48.54307" lon="-4.36795">
        <ele>42.799999237061</ele>
        <time>2022-08-07T06:43:40.000Z</time>
      </trkpt>
      <trkpt lat="48.5431" lon="-4.36789">
        <ele>42.599998474121</ele>
        <time>2022-08-07T06:43:41.000Z</time>
      </trkpt>
      <trkpt lat="48.54313" lon="-4.36783">
        <ele>42.599998474121</ele>
        <time>2022-08-07T06:43:42.000Z</time>
      </trkpt>
      <trkpt lat="48.54316" lon="-4.36778">
        <ele>42.599998474121</ele>
        <time>2022-08-07T06:43:43.000Z</time>
      </trkpt>
      <trkpt lat="48.54319" lon="-4.36772">
        <ele>42.599998474121</ele>
        <time>2022-08-07T06:43:44.000Z</time>
      </trkpt>
      <trkpt lat="48.54321" lon="-4.36766">
        <ele>42.599998474121</ele>
        <time>2022-08-07T06:43:45.000Z</time>
      </trkpt>
      <trkpt lat="48.54324" lon="-4.36759">
        <ele>42.400001525879</ele>
        <time>2022-08-07T06:43:46.000Z</time>
      </trkpt>
      <trkpt lat="48.54327" lon="-4.36753">
        <ele>42</ele>
        <time>2022-08-07T06:43:47.000Z</time>
      </trkpt>
      <trkpt lat="48.54332" lon="-4.36746">
        <ele>42</ele>
        <time>2022-08-07T06:43:48.000Z</time>
      </trkpt>
      <trkpt lat="48.54337" lon="-4.3674">
        <ele>41.799999237061</ele>
        <time>2022-08-07T06:43:49.000Z</time>
      </trkpt>
      <trkpt lat="48.54342" lon="-4.36734">
        <ele>41.599998474121</ele>
        <time>2022-08-07T06:43:50.000Z</time>
      </trkpt>
      <trkpt lat="48.54348" lon="-4.36727">
        <ele>41.400001525879</ele>
        <time>2022-08-07T06:43:51.000Z</time>
      </trkpt>
      <trkpt lat="48.54353" lon="-4.36722">
        <ele>41.200000762939</ele>
        <time>2022-08-07T06:43:52.000Z</time>
      </trkpt>
      <trkpt lat="48.54359" lon="-4.36716">
        <ele>41.200000762939</ele>
        <time>2022-08-07T06:43:53.000Z</time>
      </trkpt>
      <trkpt lat="48.54364" lon="-4.3671">
        <ele>41</ele>
        <time>2022-08-07T06:43:54.000Z</time>
      </trkpt>
      <trkpt lat="48.54367" lon="-4.36705">
        <ele>40.799999237061</ele>
        <time>2022-08-07T06:43:55.000Z</time>
      </trkpt>
      <trkpt lat="48.5437" lon="-4.367">
        <ele>40.599998474121</ele>
        <time>2022-08-07T06:43:56.000Z</time>
      </trkpt>
      <trkpt lat="48.54375" lon="-4.36692">
        <ele>40.599998474121</ele>
        <time>2022-08-07T06:43:57.000Z</time>
      </trkpt>
      <trkpt lat="48.54382" lon="-4.36685">
        <ele>40.400001525879</ele>
        <time>2022-08-07T06:43:58.000Z</time>
      </trkpt>
      <trkpt lat="48.54388" lon="-4.36677">
        <ele>40.400001525879</ele>
        <time>2022-08-07T06:43:59.000Z</time>
      </trkpt>
      <trkpt lat="48.54395" lon="-4.3667">
        <ele>40.200000762939</ele>
        <time>2022-08-07T06:44:00.000Z</time>
      </trkpt>
      <trkpt lat="48.54401" lon="-4.36663">
        <ele>40</ele>
        <time>2022-08-07T06:44:01.000Z</time>
      </trkpt>
      <trkpt lat="48.54407" lon="-4.36657">
        <ele>40</ele>
        <time>2022-08-07T06:44:02.000Z</time>
      </trkpt>
      <trkpt lat="48.54412" lon="-4.36651">
        <ele>39.599998474121</ele>
        <time>2022-08-07T06:44:03.000Z</time>
      </trkpt>
      <trkpt lat="48.54418" lon="-4.36644">
        <ele>39.400001525879</ele>
        <time>2022-08-07T06:44:04.000Z</time>
      </trkpt>
      <trkpt lat="48.54422" lon="-4.36639">
        <ele>39.200000762939</ele>
        <time>2022-08-07T06:44:05.000Z</time>
      </trkpt>
      <trkpt lat="48.54427" lon="-4.36633">
        <ele>39.200000762939</ele>
        <time>2022-08-07T06:44:06.000Z</time>
      </trkpt>
      <trkpt lat="48.54431" lon="-4.36626">
        <ele>38.799999237061</ele>
        <time>2022-08-07T06:44:07.000Z</time>
      </trkpt>
      <trkpt lat="48.54435" lon="-4.36619">
        <ele>38.799999237061</ele>
        <time>2022-08-07T06:44:08.000Z</time>
      </trkpt>
      <trkpt lat="48.5444" lon="-4.36614">
        <ele>38.599998474121</ele>
        <time>2022-08-07T06:44:09.000Z</time>
      </trkpt>
      <trkpt lat="48.54446" lon="-4.36609">
        <ele>38.400001525879</ele>
        <time>2022-08-07T06:44:10.000Z</time>
      </trkpt>
      <trkpt lat="48.54451" lon="-4.36604">
        <ele>38.200000762939</ele>
        <time>2022-08-07T06:44:11.000Z</time>
      </trkpt>
      <trkpt lat="48.54455" lon="-4.36599">
        <ele>38</ele>
        <time>2022-08-07T06:44:12.000Z</time>
      </trkpt>
      <trkpt lat="48.5446" lon="-4.36595">
        <ele>37.799999237061</ele>
        <time>2022-08-07T06:44:13.000Z</time>
      </trkpt>
      <trkpt lat="48.54465" lon="-4.36591">
        <ele>37.599998474121</ele>
        <time>2022-08-07T06:44:14.000Z</time>
      </trkpt>
      <trkpt lat="48.54469" lon="-4.36587">
        <ele>37.599998474121</ele>
        <time>2022-08-07T06:44:15.000Z</time>
      </trkpt>
      <trkpt lat="48.54474" lon="-4.36583">
        <ele>37.400001525879</ele>
        <time>2022-08-07T06:44:16.000Z</time>
      </trkpt>
      <trkpt lat="48.54478" lon="-4.36579">
        <ele>37.200000762939</ele>
        <time>2022-08-07T06:44:17.000Z</time>
      </trkpt>
      <trkpt lat="48.54482" lon="-4.36576">
        <ele>37.200000762939</ele>
        <time>2022-08-07T06:44:18.000Z</time>
      </trkpt>
      <trkpt lat="48.54486" lon="-4.36572">
        <ele>37</ele>
        <time>2022-08-07T06:44:19.000Z</time>
      </trkpt>
      <trkpt lat="48.54491" lon="-4.36568">
        <ele>36.799999237061</ele>
        <time>2022-08-07T06:44:20.000Z</time>
      </trkpt>
      <trkpt lat="48.54496" lon="-4.36565">
        <ele>36.599998474121</ele>
        <time>2022-08-07T06:44:21.000Z</time>
      </trkpt>
      <trkpt lat="48.545" lon="-4.36562">
        <ele>36.400001525879</ele>
        <time>2022-08-07T06:44:22.000Z</time>
      </trkpt>
      <trkpt lat="48.54506" lon="-4.36558">
        <ele>36</ele>
        <time>2022-08-07T06:44:23.000Z</time>
      </trkpt>
      <trkpt lat="48.54511" lon="-4.36554">
        <ele>36</ele>
        <time>2022-08-07T06:44:24.000Z</time>
      </trkpt>
      <trkpt lat="48.54516" lon="-4.36549">
        <ele>35.799999237061</ele>
        <time>2022-08-07T06:44:25.000Z</time>
      </trkpt>
      <trkpt lat="48.54524" lon="-4.36545">
        <ele>35.599998474121</ele>
        <time>2022-08-07T06:44:26.000Z</time>
      </trkpt>
      <trkpt lat="48.54529" lon="-4.36542">
        <ele>35.400001525879</ele>
        <time>2022-08-07T06:44:27.000Z</time>
      </trkpt>
      <trkpt lat="48.54535" lon="-4.36539">
        <ele>35.400001525879</ele>
        <time>2022-08-07T06:44:28.000Z</time>
      </trkpt>
      <trkpt lat="48.54541" lon="-4.36535">
        <ele>35.200000762939</ele>
        <time>2022-08-07T06:44:29.000Z</time>
      </trkpt>
      <trkpt lat="48.54548" lon="-4.36529">
        <ele>35</ele>
        <time>2022-08-07T06:44:30.000Z</time>
      </trkpt>
      <trkpt lat="48.54555" lon="-4.36525">
        <ele>34.799999237061</ele>
        <time>2022-08-07T06:44:31.000Z</time>
      </trkpt>
      <trkpt lat="48.54562" lon="-4.36521">
        <ele>34.799999237061</ele>
        <time>2022-08-07T06:44:32.000Z</time>
      </trkpt>
      <trkpt lat="48.54568" lon="-4.36516">
        <ele>34.599998474121</ele>
        <time>2022-08-07T06:44:33.000Z</time>
      </trkpt>
      <trkpt lat="48.54575" lon="-4.36512">
        <ele>34.599998474121</ele>
        <time>2022-08-07T06:44:34.000Z</time>
      </trkpt>
      <trkpt lat="48.54582" lon="-4.36508">
        <ele>34.599998474121</ele>
        <time>2022-08-07T06:44:35.000Z</time>
      </trkpt>
      <trkpt lat="48.54588" lon="-4.36505">
        <ele>34</ele>
        <time>2022-08-07T06:44:36.000Z</time>
      </trkpt>
      <trkpt lat="48.54594" lon="-4.36501">
        <ele>33.799999237061</ele>
        <time>2022-08-07T06:44:37.000Z</time>
      </trkpt>
      <trkpt lat="48.54599" lon="-4.36497">
        <ele>33.400001525879</ele>
        <time>2022-08-07T06:44:38.000Z</time>
      </trkpt>
      <trkpt lat="48.54604" lon="-4.36494">
        <ele>33.200000762939</ele>
        <time>2022-08-07T06:44:39.000Z</time>
      </trkpt>
      <trkpt lat="48.54609" lon="-4.36491">
        <ele>32.599998474121</ele>
        <time>2022-08-07T06:44:40.000Z</time>
      </trkpt>
      <trkpt lat="48.54613" lon="-4.36488">
        <ele>32.400001525879</ele>
        <time>2022-08-07T06:44:41.000Z</time>
      </trkpt>
      <trkpt lat="48.54619" lon="-4.36484">
        <ele>32.400001525879</ele>
        <time>2022-08-07T06:44:42.000Z</time>
      </trkpt>
      <trkpt lat="48.54626" lon="-4.36479">
        <ele>32.200000762939</ele>
        <time>2022-08-07T06:44:43.000Z</time>
      </trkpt>
      <trkpt lat="48.54632" lon="-4.36476">
        <ele>32.200000762939</ele>
        <time>2022-08-07T06:44:44.000Z</time>
      </trkpt>
      <trkpt lat="48.54638" lon="-4.36472">
        <ele>32</ele>
        <time>2022-08-07T06:44:45.000Z</time>
      </trkpt>
      <trkpt lat="48.54642" lon="-4.36469">
        <ele>32</ele>
        <time>2022-08-07T06:44:46.000Z</time>
      </trkpt>
      <trkpt lat="48.54647" lon="-4.36466">
        <ele>32</ele>
        <time>2022-08-07T06:44:47.000Z</time>
      </trkpt>
      <trkpt lat="48.54651" lon="-4.36463">
        <ele>31.799999237061</ele>
        <time>2022-08-07T06:44:48.000Z</time>
      </trkpt>
      <trkpt lat="48.54656" lon="-4.36459">
        <ele>31.799999237061</ele>
        <time>2022-08-07T06:44:49.000Z</time>
      </trkpt>
      <trkpt lat="48.54662" lon="-4.36455">
        <ele>31.799999237061</ele>
        <time>2022-08-07T06:44:50.000Z</time>
      </trkpt>
      <trkpt lat="48.54667" lon="-4.36452">
        <ele>31.799999237061</ele>
        <time>2022-08-07T06:44:51.000Z</time>
      </trkpt>
      <trkpt lat="48.54672" lon="-4.36447">
        <ele>31.60000038147</ele>
        <time>2022-08-07T06:44:52.000Z</time>
      </trkpt>
      <trkpt lat="48.54677" lon="-4.36443">
        <ele>31.60000038147</ele>
        <time>2022-08-07T06:44:53.000Z</time>
      </trkpt>
      <trkpt lat="48.54682" lon="-4.3644">
        <ele>31.60000038147</ele>
        <time>2022-08-07T06:44:54.000Z</time>
      </trkpt>
      <trkpt lat="48.54686" lon="-4.36437">
        <ele>31.60000038147</ele>
        <time>2022-08-07T06:44:55.000Z</time>
      </trkpt>
      <trkpt lat="48.5469" lon="-4.36433">
        <ele>31.60000038147</ele>
        <time>2022-08-07T06:44:56.000Z</time>
      </trkpt>
      <trkpt lat="48.54694" lon="-4.3643">
        <ele>31.60000038147</ele>
        <time>2022-08-07T06:44:57.000Z</time>
      </trkpt>
      <trkpt lat="48.54698" lon="-4.36427">
        <ele>31.60000038147</ele>
        <time>2022-08-07T06:44:58.000Z</time>
      </trkpt>
      <trkpt lat="48.54701" lon="-4.36423">
        <ele>31.60000038147</ele>
        <time>2022-08-07T06:44:59.000Z</time>
      </trkpt>
      <trkpt lat="48.54704" lon="-4.3642">
        <ele>31.60000038147</ele>
        <time>2022-08-07T06:45:00.000Z</time>
      </trkpt>
      <trkpt lat="48.54708" lon="-4.36417">
        <ele>31.60000038147</ele>
        <time>2022-08-07T06:45:01.000Z</time>
      </trkpt>
      <trkpt lat="48.54714" lon="-4.36413">
        <ele>31.799999237061</ele>
        <time>2022-08-07T06:45:02.000Z</time>
      </trkpt>
      <trkpt lat="48.54719" lon="-4.3641">
        <ele>31.799999237061</ele>
        <time>2022-08-07T06:45:03.000Z</time>
      </trkpt>
      <trkpt lat="48.54724" lon="-4.36407">
        <ele>31.799999237061</ele>
        <time>2022-08-07T06:45:04.000Z</time>
      </trkpt>
      <trkpt lat="48.54728" lon="-4.36404">
        <ele>32</ele>
        <time>2022-08-07T06:45:06.000Z</time>
      </trkpt>
      <trkpt lat="48.5473" lon="-4.36402">
        <ele>32</ele>
        <time>2022-08-07T06:45:07.000Z</time>
      </trkpt>
      <trkpt lat="48.54735" lon="-4.364">
        <ele>32</ele>
        <time>2022-08-07T06:45:08.000Z</time>
      </trkpt>
      <trkpt lat="48.5474" lon="-4.36396">
        <ele>32</ele>
        <time>2022-08-07T06:45:09.000Z</time>
      </trkpt>
      <trkpt lat="48.54747" lon="-4.36392">
        <ele>32</ele>
        <time>2022-08-07T06:45:10.000Z</time>
      </trkpt>
      <trkpt lat="48.54753" lon="-4.36389">
        <ele>32</ele>
        <time>2022-08-07T06:45:11.000Z</time>
      </trkpt>
      <trkpt lat="48.54759" lon="-4.36386">
        <ele>32</ele>
        <time>2022-08-07T06:45:12.000Z</time>
      </trkpt>
      <trkpt lat="48.54764" lon="-4.36383">
        <ele>32.200000762939</ele>
        <time>2022-08-07T06:45:13.000Z</time>
      </trkpt>
      <trkpt lat="48.54769" lon="-4.36379">
        <ele>32.200000762939</ele>
        <time>2022-08-07T06:45:14.000Z</time>
      </trkpt>
      <trkpt lat="48.54776" lon="-4.36375">
        <ele>32.200000762939</ele>
        <time>2022-08-07T06:45:15.000Z</time>
      </trkpt>
      <trkpt lat="48.54782" lon="-4.36369">
        <ele>32.200000762939</ele>
        <time>2022-08-07T06:45:16.000Z</time>
      </trkpt>
      <trkpt lat="48.54788" lon="-4.36364">
        <ele>32.200000762939</ele>
        <time>2022-08-07T06:45:17.000Z</time>
      </trkpt>
      <trkpt lat="48.54794" lon="-4.3636">
        <ele>32.200000762939</ele>
        <time>2022-08-07T06:45:18.000Z</time>
      </trkpt>
      <trkpt lat="48.54798" lon="-4.36357">
        <ele>32.200000762939</ele>
        <time>2022-08-07T06:45:19.000Z</time>
      </trkpt>
      <trkpt lat="48.54802" lon="-4.36355">
        <ele>32.200000762939</ele>
        <time>2022-08-07T06:45:20.000Z</time>
      </trkpt>
      <trkpt lat="48.54808" lon="-4.36351">
        <ele>32.200000762939</ele>
        <time>2022-08-07T06:45:21.000Z</time>
      </trkpt>
      <trkpt lat="48.54813" lon="-4.36346">
        <ele>32.400001525879</ele>
        <time>2022-08-07T06:45:22.000Z</time>
      </trkpt>
      <trkpt lat="48.54816" lon="-4.36344">
        <ele>32.400001525879</ele>
        <time>2022-08-07T06:45:23.000Z</time>
      </trkpt>
      <trkpt lat="48.54819" lon="-4.36344">
        <ele>32.400001525879</ele>
        <time>2022-08-07T06:45:24.000Z</time>
      </trkpt>
      <trkpt lat="48.54823" lon="-4.36341">
        <ele>32.400001525879</ele>
        <time>2022-08-07T06:45:25.000Z</time>
      </trkpt>
      <trkpt lat="48.54827" lon="-4.36339">
        <ele>32.400001525879</ele>
        <time>2022-08-07T06:45:26.000Z</time>
      </trkpt>
      <trkpt lat="48.54831" lon="-4.36337">
        <ele>32.599998474121</ele>
        <time>2022-08-07T06:45:27.000Z</time>
      </trkpt>
      <trkpt lat="48.54836" lon="-4.36333">
        <ele>32.599998474121</ele>
        <time>2022-08-07T06:45:28.000Z</time>
      </trkpt>
      <trkpt lat="48.54839" lon="-4.3633">
        <ele>32.599998474121</ele>
        <time>2022-08-07T06:45:29.000Z</time>
      </trkpt>
      <trkpt lat="48.54843" lon="-4.36327">
        <ele>32.599998474121</ele>
        <time>2022-08-07T06:45:30.000Z</time>
      </trkpt>
      <trkpt lat="48.54847" lon="-4.36324">
        <ele>32.599998474121</ele>
        <time>2022-08-07T06:45:31.000Z</time>
      </trkpt>
      <trkpt lat="48.54852" lon="-4.36319">
        <ele>32.599998474121</ele>
        <time>2022-08-07T06:45:32.000Z</time>
      </trkpt>
      <trkpt lat="48.54857" lon="-4.36313">
        <ele>32.599998474121</ele>
        <time>2022-08-07T06:45:33.000Z</time>
      </trkpt>
      <trkpt lat="48.5486" lon="-4.36307">
        <ele>32.799999237061</ele>
        <time>2022-08-07T06:45:34.000Z</time>
      </trkpt>
      <trkpt lat="48.54865" lon="-4.36298">
        <ele>32.799999237061</ele>
        <time>2022-08-07T06:45:35.000Z</time>
      </trkpt>
      <trkpt lat="48.54868" lon="-4.36291">
        <ele>33</ele>
        <time>2022-08-07T06:45:36.000Z</time>
      </trkpt>
      <trkpt lat="48.54872" lon="-4.36285">
        <ele>33</ele>
        <time>2022-08-07T06:45:37.000Z</time>
      </trkpt>
      <trkpt lat="48.54877" lon="-4.36281">
        <ele>33.200000762939</ele>
        <time>2022-08-07T06:45:38.000Z</time>
      </trkpt>
      <trkpt lat="48.54882" lon="-4.36276">
        <ele>33.400001525879</ele>
        <time>2022-08-07T06:45:39.000Z</time>
      </trkpt>
      <trkpt lat="48.54886" lon="-4.36273">
        <ele>33.599998474121</ele>
        <time>2022-08-07T06:45:40.000Z</time>
      </trkpt>
      <trkpt lat="48.5489" lon="-4.3627">
        <ele>34</ele>
        <time>2022-08-07T06:45:41.000Z</time>
      </trkpt>
      <trkpt lat="48.54894" lon="-4.36267">
        <ele>34.400001525879</ele>
        <time>2022-08-07T06:45:42.000Z</time>
      </trkpt>
      <trkpt lat="48.54898" lon="-4.36264">
        <ele>34.599998474121</ele>
        <time>2022-08-07T06:45:43.000Z</time>
      </trkpt>
      <trkpt lat="48.549" lon="-4.36262">
        <ele>35</ele>
        <time>2022-08-07T06:45:44.000Z</time>
      </trkpt>
      <trkpt lat="48.54904" lon="-4.36258">
        <ele>35</ele>
        <time>2022-08-07T06:45:45.000Z</time>
      </trkpt>
      <trkpt lat="48.54907" lon="-4.36255">
        <ele>35.400001525879</ele>
        <time>2022-08-07T06:45:46.000Z</time>
      </trkpt>
      <trkpt lat="48.5491" lon="-4.3625">
        <ele>35.400001525879</ele>
        <time>2022-08-07T06:45:47.000Z</time>
      </trkpt>
      <trkpt lat="48.54912" lon="-4.36246">
        <ele>35.400001525879</ele>
        <time>2022-08-07T06:45:48.000Z</time>
      </trkpt>
      <trkpt lat="48.54914" lon="-4.36243">
        <ele>35.400001525879</ele>
        <time>2022-08-07T06:45:49.000Z</time>
      </trkpt>
      <trkpt lat="48.54916" lon="-4.36239">
        <ele>35.400001525879</ele>
        <time>2022-08-07T06:45:50.000Z</time>
      </trkpt>
      <trkpt lat="48.54919" lon="-4.36233">
        <ele>35.400001525879</ele>
        <time>2022-08-07T06:45:51.000Z</time>
      </trkpt>
      <trkpt lat="48.54923" lon="-4.36224">
        <ele>35.200000762939</ele>
        <time>2022-08-07T06:45:52.000Z</time>
      </trkpt>
      <trkpt lat="48.54928" lon="-4.36217">
        <ele>35.200000762939</ele>
        <time>2022-08-07T06:45:53.000Z</time>
      </trkpt>
      <trkpt lat="48.54931" lon="-4.36211">
        <ele>35.200000762939</ele>
        <time>2022-08-07T06:45:54.000Z</time>
      </trkpt>
      <trkpt lat="48.54934" lon="-4.36203">
        <ele>35</ele>
        <time>2022-08-07T06:45:55.000Z</time>
      </trkpt>
      <trkpt lat="48.54939" lon="-4.36195">
        <ele>34.799999237061</ele>
        <time>2022-08-07T06:45:56.000Z</time>
      </trkpt>
      <trkpt lat="48.54943" lon="-4.36187">
        <ele>34.599998474121</ele>
        <time>2022-08-07T06:45:57.000Z</time>
      </trkpt>
      <trkpt lat="48.54945" lon="-4.36178">
        <ele>34.599998474121</ele>
        <time>2022-08-07T06:45:58.000Z</time>
      </trkpt>
      <trkpt lat="48.54946" lon="-4.3617">
        <ele>34.200000762939</ele>
        <time>2022-08-07T06:45:59.000Z</time>
      </trkpt>
      <trkpt lat="48.54949" lon="-4.36161">
        <ele>34.200000762939</ele>
        <time>2022-08-07T06:46:00.000Z</time>
      </trkpt>
      <trkpt lat="48.54951" lon="-4.36152">
        <ele>34.200000762939</ele>
        <time>2022-08-07T06:46:01.000Z</time>
      </trkpt>
      <trkpt lat="48.54951" lon="-4.36142">
        <ele>34</ele>
        <time>2022-08-07T06:46:02.000Z</time>
      </trkpt>
      <trkpt lat="48.54952" lon="-4.36131">
        <ele>34</ele>
        <time>2022-08-07T06:46:03.000Z</time>
      </trkpt>
      <trkpt lat="48.54953" lon="-4.36123">
        <ele>33.799999237061</ele>
        <time>2022-08-07T06:46:04.000Z</time>
      </trkpt>
      <trkpt lat="48.54952" lon="-4.36115">
        <ele>33.799999237061</ele>
        <time>2022-08-07T06:46:05.000Z</time>
      </trkpt>
      <trkpt lat="48.54952" lon="-4.36107">
        <ele>33.799999237061</ele>
        <time>2022-08-07T06:46:06.000Z</time>
      </trkpt>
      <trkpt lat="48.54952" lon="-4.36102">
        <ele>33.799999237061</ele>
        <time>2022-08-07T06:46:07.000Z</time>
      </trkpt>
      <trkpt lat="48.54952" lon="-4.36097">
        <ele>33.799999237061</ele>
        <time>2022-08-07T06:46:08.000Z</time>
      </trkpt>
      <trkpt lat="48.54954" lon="-4.36089">
        <ele>33.599998474121</ele>
        <time>2022-08-07T06:46:09.000Z</time>
      </trkpt>
      <trkpt lat="48.54953" lon="-4.36082">
        <ele>33.599998474121</ele>
        <time>2022-08-07T06:46:10.000Z</time>
      </trkpt>
      <trkpt lat="48.54953" lon="-4.36075">
        <ele>33.599998474121</ele>
        <time>2022-08-07T06:46:11.000Z</time>
      </trkpt>
      <trkpt lat="48.54953" lon="-4.3607">
        <ele>33.599998474121</ele>
        <time>2022-08-07T06:46:12.000Z</time>
      </trkpt>
      <trkpt lat="48.54952" lon="-4.36065">
        <ele>33.799999237061</ele>
        <time>2022-08-07T06:46:13.000Z</time>
      </trkpt>
      <trkpt lat="48.54952" lon="-4.3606">
        <ele>33.799999237061</ele>
        <time>2022-08-07T06:46:14.000Z</time>
      </trkpt>
      <trkpt lat="48.54954" lon="-4.36054">
        <ele>33.799999237061</ele>
        <time>2022-08-07T06:46:15.000Z</time>
      </trkpt>
      <trkpt lat="48.54955" lon="-4.36048">
        <ele>33.799999237061</ele>
        <time>2022-08-07T06:46:16.000Z</time>
      </trkpt>
      <trkpt lat="48.54955" lon="-4.36044">
        <ele>34</ele>
        <time>2022-08-07T06:46:17.000Z</time>
      </trkpt>
      <trkpt lat="48.54955" lon="-4.3604">
        <ele>34</ele>
        <time>2022-08-07T06:46:18.000Z</time>
      </trkpt>
      <trkpt lat="48.54955" lon="-4.36036">
        <ele>34.200000762939</ele>
        <time>2022-08-07T06:46:19.000Z</time>
      </trkpt>
      <trkpt lat="48.54955" lon="-4.36034">
        <ele>34.200000762939</ele>
        <time>2022-08-07T06:46:20.000Z</time>
      </trkpt>
      <trkpt lat="48.54956" lon="-4.36032">
        <ele>34.200000762939</ele>
        <time>2022-08-07T06:46:21.000Z</time>
      </trkpt>
      <trkpt lat="48.54956" lon="-4.3603">
        <ele>34.400001525879</ele>
        <time>2022-08-07T06:46:22.000Z</time>
      </trkpt>
      <trkpt lat="48.54956" lon="-4.36027">
        <ele>34.400001525879</ele>
        <time>2022-08-07T06:46:23.000Z</time>
      </trkpt>
      <trkpt lat="48.54957" lon="-4.36026">
        <ele>34.400001525879</ele>
        <time>2022-08-07T06:46:24.000Z</time>
      </trkpt>
      <trkpt lat="48.54958" lon="-4.36025">
        <ele>34.400001525879</ele>
        <time>2022-08-07T06:46:25.000Z</time>
      </trkpt>
      <trkpt lat="48.5496" lon="-4.36025">
        <ele>34.400001525879</ele>
        <time>2022-08-07T06:46:26.000Z</time>
      </trkpt>
      <trkpt lat="48.54961" lon="-4.36027">
        <ele>34.400001525879</ele>
        <time>2022-08-07T06:46:27.000Z</time>
      </trkpt>
      <trkpt lat="48.54963" lon="-4.3603">
        <ele>34.400001525879</ele>
        <time>2022-08-07T06:46:28.000Z</time>
      </trkpt>
      <trkpt lat="48.54966" lon="-4.36033">
        <ele>34.400001525879</ele>
        <time>2022-08-07T06:46:29.000Z</time>
      </trkpt>
      <trkpt lat="48.54967" lon="-4.36035">
        <ele>34.400001525879</ele>
        <time>2022-08-07T06:46:30.000Z</time>
      </trkpt>
      <trkpt lat="48.5497" lon="-4.36037">
        <ele>34.400001525879</ele>
        <time>2022-08-07T06:46:31.000Z</time>
      </trkpt>
      <trkpt lat="48.54973" lon="-4.36039">
        <ele>34.400001525879</ele>
        <time>2022-08-07T06:46:32.000Z</time>
      </trkpt>
      <trkpt lat="48.54976" lon="-4.3604">
        <ele>34.400001525879</ele>
        <time>2022-08-07T06:46:33.000Z</time>
      </trkpt>
      <trkpt lat="48.54979" lon="-4.36041">
        <ele>34.400001525879</ele>
        <time>2022-08-07T06:46:34.000Z</time>
      </trkpt>
      <trkpt lat="48.54982" lon="-4.36041">
        <ele>34.400001525879</ele>
        <time>2022-08-07T06:46:35.000Z</time>
      </trkpt>
      <trkpt lat="48.54984" lon="-4.36041">
        <ele>34.400001525879</ele>
        <time>2022-08-07T06:46:36.000Z</time>
      </trkpt>
      <trkpt lat="48.54986" lon="-4.36041">
        <ele>34.400001525879</ele>
        <time>2022-08-07T06:46:37.000Z</time>
      </trkpt>
      <trkpt lat="48.54989" lon="-4.3604">
        <ele>34.400001525879</ele>
        <time>2022-08-07T06:46:38.000Z</time>
      </trkpt>
      <trkpt lat="48.54993" lon="-4.36038">
        <ele>34.400001525879</ele>
        <time>2022-08-07T06:46:39.000Z</time>
      </trkpt>
      <trkpt lat="48.54997" lon="-4.36035">
        <ele>34.400001525879</ele>
        <time>2022-08-07T06:46:40.000Z</time>
      </trkpt>
      <trkpt lat="48.55" lon="-4.36032">
        <ele>34.400001525879</ele>
        <time>2022-08-07T06:46:41.000Z</time>
      </trkpt>
      <trkpt lat="48.55004" lon="-4.36029">
        <ele>34.400001525879</ele>
        <time>2022-08-07T06:46:42.000Z</time>
      </trkpt>
      <trkpt lat="48.55007" lon="-4.36025">
        <ele>34.400001525879</ele>
        <time>2022-08-07T06:46:43.000Z</time>
      </trkpt>
      <trkpt lat="48.55011" lon="-4.36021">
        <ele>34.599998474121</ele>
        <time>2022-08-07T06:46:44.000Z</time>
      </trkpt>
      <trkpt lat="48.55014" lon="-4.36017">
        <ele>34.799999237061</ele>
        <time>2022-08-07T06:46:45.000Z</time>
      </trkpt>
      <trkpt lat="48.55017" lon="-4.36013">
        <ele>35.200000762939</ele>
        <time>2022-08-07T06:46:46.000Z</time>
      </trkpt>
      <trkpt lat="48.5502" lon="-4.36009">
        <ele>35.200000762939</ele>
        <time>2022-08-07T06:46:47.000Z</time>
      </trkpt>
      <trkpt lat="48.55022" lon="-4.36006">
        <ele>35.599998474121</ele>
        <time>2022-08-07T06:46:48.000Z</time>
      </trkpt>
      <trkpt lat="48.55025" lon="-4.36002">
        <ele>35.599998474121</ele>
        <time>2022-08-07T06:46:49.000Z</time>
      </trkpt>
      <trkpt lat="48.55027" lon="-4.36">
        <ele>36.200000762939</ele>
        <time>2022-08-07T06:46:50.000Z</time>
      </trkpt>
      <trkpt lat="48.55029" lon="-4.35998">
        <ele>36.400001525879</ele>
        <time>2022-08-07T06:46:51.000Z</time>
      </trkpt>
      <trkpt lat="48.55032" lon="-4.35997">
        <ele>36.799999237061</ele>
        <time>2022-08-07T06:46:52.000Z</time>
      </trkpt>
      <trkpt lat="48.55033" lon="-4.35996">
        <ele>37</ele>
        <time>2022-08-07T06:46:53.000Z</time>
      </trkpt>
      <trkpt lat="48.55037" lon="-4.35994">
        <ele>37.599998474121</ele>
        <time>2022-08-07T06:46:54.000Z</time>
      </trkpt>
      <trkpt lat="48.55042" lon="-4.35991">
        <ele>37.799999237061</ele>
        <time>2022-08-07T06:46:55.000Z</time>
      </trkpt>
      <trkpt lat="48.55044" lon="-4.3599">
        <ele>38.599998474121</ele>
        <time>2022-08-07T06:46:56.000Z</time>
      </trkpt>
      <trkpt lat="48.55046" lon="-4.35989">
        <ele>39.400001525879</ele>
        <time>2022-08-07T06:46:57.000Z</time>
      </trkpt>
      <trkpt lat="48.55048" lon="-4.35988">
        <ele>39.599998474121</ele>
        <time>2022-08-07T06:46:58.000Z</time>
      </trkpt>
      <trkpt lat="48.55052" lon="-4.35987">
        <ele>39.799999237061</ele>
        <time>2022-08-07T06:46:59.000Z</time>
      </trkpt>
      <trkpt lat="48.55055" lon="-4.35986">
        <ele>40</ele>
        <time>2022-08-07T06:47:00.000Z</time>
      </trkpt>
      <trkpt lat="48.55057" lon="-4.35985">
        <ele>40.400001525879</ele>
        <time>2022-08-07T06:47:01.000Z</time>
      </trkpt>
      <trkpt lat="48.55061" lon="-4.35984">
        <ele>40.599998474121</ele>
        <time>2022-08-07T06:47:02.000Z</time>
      </trkpt>
      <trkpt lat="48.55063" lon="-4.35983">
        <ele>41</ele>
        <time>2022-08-07T06:47:03.000Z</time>
      </trkpt>
      <trkpt lat="48.55068" lon="-4.35982">
        <ele>41</ele>
        <time>2022-08-07T06:47:04.000Z</time>
      </trkpt>
      <trkpt lat="48.55071" lon="-4.35981">
        <ele>41.200000762939</ele>
        <time>2022-08-07T06:47:05.000Z</time>
      </trkpt>
      <trkpt lat="48.55076" lon="-4.35981">
        <ele>41.200000762939</ele>
        <time>2022-08-07T06:47:06.000Z</time>
      </trkpt>
      <trkpt lat="48.5508" lon="-4.35979">
        <ele>41.400001525879</ele>
        <time>2022-08-07T06:47:07.000Z</time>
      </trkpt>
      <trkpt lat="48.55083" lon="-4.35977">
        <ele>41.599998474121</ele>
        <time>2022-08-07T06:47:08.000Z</time>
      </trkpt>
      <trkpt lat="48.55085" lon="-4.35977">
        <ele>41.799999237061</ele>
        <time>2022-08-07T06:47:09.000Z</time>
      </trkpt>
      <trkpt lat="48.55088" lon="-4.35977">
        <ele>42</ele>
        <time>2022-08-07T06:47:10.000Z</time>
      </trkpt>
      <trkpt lat="48.55089" lon="-4.35976">
        <ele>42.200000762939</ele>
        <time>2022-08-07T06:47:11.000Z</time>
      </trkpt>
      <trkpt lat="48.55091" lon="-4.35977">
        <ele>42.599998474121</ele>
        <time>2022-08-07T06:47:13.000Z</time>
      </trkpt>
      <trkpt lat="48.55096" lon="-4.35977">
        <ele>42.799999237061</ele>
        <time>2022-08-07T06:47:14.000Z</time>
      </trkpt>
      <trkpt lat="48.55099" lon="-4.35977">
        <ele>43</ele>
        <time>2022-08-07T06:47:15.000Z</time>
      </trkpt>
      <trkpt lat="48.55105" lon="-4.35976">
        <ele>43</ele>
        <time>2022-08-07T06:47:16.000Z</time>
      </trkpt>
      <trkpt lat="48.55112" lon="-4.35974">
        <ele>43.200000762939</ele>
        <time>2022-08-07T06:47:17.000Z</time>
      </trkpt>
      <trkpt lat="48.55117" lon="-4.35972">
        <ele>43.400001525879</ele>
        <time>2022-08-07T06:47:18.000Z</time>
      </trkpt>
      <trkpt lat="48.55121" lon="-4.3597">
        <ele>43.599998474121</ele>
        <time>2022-08-07T06:47:19.000Z</time>
      </trkpt>
      <trkpt lat="48.55126" lon="-4.3597">
        <ele>43.599998474121</ele>
        <time>2022-08-07T06:47:20.000Z</time>
      </trkpt>
      <trkpt lat="48.55129" lon="-4.35968">
        <ele>43.799999237061</ele>
        <time>2022-08-07T06:47:21.000Z</time>
      </trkpt>
      <trkpt lat="48.55132" lon="-4.35967">
        <ele>43.799999237061</ele>
        <time>2022-08-07T06:47:22.000Z</time>
      </trkpt>
      <trkpt lat="48.55134" lon="-4.35966">
        <ele>44</ele>
        <time>2022-08-07T06:47:23.000Z</time>
      </trkpt>
      <trkpt lat="48.55136" lon="-4.35966">
        <ele>44</ele>
        <time>2022-08-07T06:47:24.000Z</time>
      </trkpt>
      <trkpt lat="48.55138" lon="-4.35966">
        <ele>44</ele>
        <time>2022-08-07T06:47:25.000Z</time>
      </trkpt>
      <trkpt lat="48.55141" lon="-4.35965">
        <ele>44.200000762939</ele>
        <time>2022-08-07T06:47:26.000Z</time>
      </trkpt>
      <trkpt lat="48.55144" lon="-4.35964">
        <ele>44.599998474121</ele>
        <time>2022-08-07T06:47:27.000Z</time>
      </trkpt>
      <trkpt lat="48.55146" lon="-4.35964">
        <ele>44.799999237061</ele>
        <time>2022-08-07T06:47:28.000Z</time>
      </trkpt>
      <trkpt lat="48.55154" lon="-4.35964">
        <ele>45</ele>
        <time>2022-08-07T06:47:29.000Z</time>
      </trkpt>
      <trkpt lat="48.55158" lon="-4.35962">
        <ele>45.200000762939</ele>
        <time>2022-08-07T06:47:30.000Z</time>
      </trkpt>
      <trkpt lat="48.55161" lon="-4.35959">
        <ele>45.200000762939</ele>
        <time>2022-08-07T06:47:31.000Z</time>
      </trkpt>
      <trkpt lat="48.55165" lon="-4.35955">
        <ele>45.400001525879</ele>
        <time>2022-08-07T06:47:32.000Z</time>
      </trkpt>
      <trkpt lat="48.55168" lon="-4.35951">
        <ele>45.599998474121</ele>
        <time>2022-08-07T06:47:33.000Z</time>
      </trkpt>
      <trkpt lat="48.55172" lon="-4.35947">
        <ele>45.799999237061</ele>
        <time>2022-08-07T06:47:34.000Z</time>
      </trkpt>
      <trkpt lat="48.55174" lon="-4.35945">
        <ele>46</ele>
        <time>2022-08-07T06:47:35.000Z</time>
      </trkpt>
      <trkpt lat="48.55176" lon="-4.35944">
        <ele>46.200000762939</ele>
        <time>2022-08-07T06:47:36.000Z</time>
      </trkpt>
      <trkpt lat="48.55178" lon="-4.35943">
        <ele>46.400001525879</ele>
        <time>2022-08-07T06:47:37.000Z</time>
      </trkpt>
      <trkpt lat="48.55181" lon="-4.35942">
        <ele>46.599998474121</ele>
        <time>2022-08-07T06:47:38.000Z</time>
      </trkpt>
      <trkpt lat="48.55184" lon="-4.35939">
        <ele>47.200000762939</ele>
        <time>2022-08-07T06:47:39.000Z</time>
      </trkpt>
      <trkpt lat="48.55185" lon="-4.35938">
        <ele>47.400001525879</ele>
        <time>2022-08-07T06:47:40.000Z</time>
      </trkpt>
      <trkpt lat="48.55187" lon="-4.35936">
        <ele>47.799999237061</ele>
        <time>2022-08-07T06:47:41.000Z</time>
      </trkpt>
      <trkpt lat="48.55189" lon="-4.35935">
        <ele>48</ele>
        <time>2022-08-07T06:47:42.000Z</time>
      </trkpt>
      <trkpt lat="48.55193" lon="-4.35933">
        <ele>48.200000762939</ele>
        <time>2022-08-07T06:47:43.000Z</time>
      </trkpt>
      <trkpt lat="48.55197" lon="-4.3593">
        <ele>48.200000762939</ele>
        <time>2022-08-07T06:47:44.000Z</time>
      </trkpt>
      <trkpt lat="48.55201" lon="-4.35928">
        <ele>48.400001525879</ele>
        <time>2022-08-07T06:47:45.000Z</time>
      </trkpt>
      <trkpt lat="48.55206" lon="-4.35925">
        <ele>48.400001525879</ele>
        <time>2022-08-07T06:47:46.000Z</time>
      </trkpt>
      <trkpt lat="48.5521" lon="-4.35923">
        <ele>48.400001525879</ele>
        <time>2022-08-07T06:47:47.000Z</time>
      </trkpt>
      <trkpt lat="48.55214" lon="-4.35921">
        <ele>48.400001525879</ele>
        <time>2022-08-07T06:47:48.000Z</time>
      </trkpt>
      <trkpt lat="48.55217" lon="-4.3592">
        <ele>48.400001525879</ele>
        <time>2022-08-07T06:47:49.000Z</time>
      </trkpt>
      <trkpt lat="48.55221" lon="-4.35918">
        <ele>48.400001525879</ele>
        <time>2022-08-07T06:47:50.000Z</time>
      </trkpt>
      <trkpt lat="48.55226" lon="-4.35916">
        <ele>48.400001525879</ele>
        <time>2022-08-07T06:47:51.000Z</time>
      </trkpt>
      <trkpt lat="48.5523" lon="-4.35914">
        <ele>48.400001525879</ele>
        <time>2022-08-07T06:47:52.000Z</time>
      </trkpt>
      <trkpt lat="48.55235" lon="-4.35912">
        <ele>48.400001525879</ele>
        <time>2022-08-07T06:47:53.000Z</time>
      </trkpt>
      <trkpt lat="48.55239" lon="-4.3591">
        <ele>48.400001525879</ele>
        <time>2022-08-07T06:47:54.000Z</time>
      </trkpt>
      <trkpt lat="48.55243" lon="-4.35909">
        <ele>48.400001525879</ele>
        <time>2022-08-07T06:47:55.000Z</time>
      </trkpt>
      <trkpt lat="48.55247" lon="-4.35908">
        <ele>48.200000762939</ele>
        <time>2022-08-07T06:47:56.000Z</time>
      </trkpt>
      <trkpt lat="48.55251" lon="-4.35906">
        <ele>48.200000762939</ele>
        <time>2022-08-07T06:47:57.000Z</time>
      </trkpt>
      <trkpt lat="48.55255" lon="-4.35904">
        <ele>48.200000762939</ele>
        <time>2022-08-07T06:47:58.000Z</time>
      </trkpt>
      <trkpt lat="48.55259" lon="-4.35901">
        <ele>48.200000762939</ele>
        <time>2022-08-07T06:47:59.000Z</time>
      </trkpt>
      <trkpt lat="48.55264" lon="-4.35899">
        <ele>48.200000762939</ele>
        <time>2022-08-07T06:48:00.000Z</time>
      </trkpt>
      <trkpt lat="48.55268" lon="-4.35897">
        <ele>48.200000762939</ele>
        <time>2022-08-07T06:48:01.000Z</time>
      </trkpt>
      <trkpt lat="48.55272" lon="-4.35895">
        <ele>48.200000762939</ele>
        <time>2022-08-07T06:48:02.000Z</time>
      </trkpt>
      <trkpt lat="48.55277" lon="-4.35893">
        <ele>48.200000762939</ele>
        <time>2022-08-07T06:48:03.000Z</time>
      </trkpt>
      <trkpt lat="48.55281" lon="-4.35892">
        <ele>48.200000762939</ele>
        <time>2022-08-07T06:48:04.000Z</time>
      </trkpt>
      <trkpt lat="48.55286" lon="-4.35891">
        <ele>48.200000762939</ele>
        <time>2022-08-07T06:48:05.000Z</time>
      </trkpt>
      <trkpt lat="48.5529" lon="-4.35889">
        <ele>48.200000762939</ele>
        <time>2022-08-07T06:48:06.000Z</time>
      </trkpt>
      <trkpt lat="48.55295" lon="-4.35888">
        <ele>48.200000762939</ele>
        <time>2022-08-07T06:48:07.000Z</time>
      </trkpt>
      <trkpt lat="48.55299" lon="-4.35886">
        <ele>48.200000762939</ele>
        <time>2022-08-07T06:48:08.000Z</time>
      </trkpt>
      <trkpt lat="48.55303" lon="-4.35884">
        <ele>48.200000762939</ele>
        <time>2022-08-07T06:48:09.000Z</time>
      </trkpt>
      <trkpt lat="48.55307" lon="-4.35883">
        <ele>48.200000762939</ele>
        <time>2022-08-07T06:48:10.000Z</time>
      </trkpt>
      <trkpt lat="48.55311" lon="-4.35881">
        <ele>48.200000762939</ele>
        <time>2022-08-07T06:48:11.000Z</time>
      </trkpt>
      <trkpt lat="48.55316" lon="-4.35879">
        <ele>48.200000762939</ele>
        <time>2022-08-07T06:48:12.000Z</time>
      </trkpt>
      <trkpt lat="48.55319" lon="-4.35877">
        <ele>48.200000762939</ele>
        <time>2022-08-07T06:48:13.000Z</time>
      </trkpt>
      <trkpt lat="48.55323" lon="-4.35876">
        <ele>48.400001525879</ele>
        <time>2022-08-07T06:48:14.000Z</time>
      </trkpt>
      <trkpt lat="48.55328" lon="-4.35875">
        <ele>48.400001525879</ele>
        <time>2022-08-07T06:48:15.000Z</time>
      </trkpt>
      <trkpt lat="48.55332" lon="-4.35874">
        <ele>48.400001525879</ele>
        <time>2022-08-07T06:48:16.000Z</time>
      </trkpt>
      <trkpt lat="48.55336" lon="-4.35875">
        <ele>48.400001525879</ele>
        <time>2022-08-07T06:48:17.000Z</time>
      </trkpt>
      <trkpt lat="48.5534" lon="-4.35876">
        <ele>48.599998474121</ele>
        <time>2022-08-07T06:48:18.000Z</time>
      </trkpt>
      <trkpt lat="48.55344" lon="-4.35877">
        <ele>48.599998474121</ele>
        <time>2022-08-07T06:48:19.000Z</time>
      </trkpt>
      <trkpt lat="48.55349" lon="-4.35879">
        <ele>48.599998474121</ele>
        <time>2022-08-07T06:48:20.000Z</time>
      </trkpt>
      <trkpt lat="48.55353" lon="-4.35882">
        <ele>49</ele>
        <time>2022-08-07T06:48:21.000Z</time>
      </trkpt>
      <trkpt lat="48.55357" lon="-4.35884">
        <ele>49</ele>
        <time>2022-08-07T06:48:22.000Z</time>
      </trkpt>
      <trkpt lat="48.5536" lon="-4.35887">
        <ele>49.200000762939</ele>
        <time>2022-08-07T06:48:23.000Z</time>
      </trkpt>
      <trkpt lat="48.55364" lon="-4.3589">
        <ele>49.200000762939</ele>
        <time>2022-08-07T06:48:24.000Z</time>
      </trkpt>
      <trkpt lat="48.55368" lon="-4.35893">
        <ele>49.200000762939</ele>
        <time>2022-08-07T06:48:25.000Z</time>
      </trkpt>
      <trkpt lat="48.55372" lon="-4.35896">
        <ele>49.200000762939</ele>
        <time>2022-08-07T06:48:26.000Z</time>
      </trkpt>
      <trkpt lat="48.55376" lon="-4.35899">
        <ele>49.400001525879</ele>
        <time>2022-08-07T06:48:27.000Z</time>
      </trkpt>
      <trkpt lat="48.5538" lon="-4.35902">
        <ele>49.400001525879</ele>
        <time>2022-08-07T06:48:28.000Z</time>
      </trkpt>
      <trkpt lat="48.55383" lon="-4.35905">
        <ele>49.400001525879</ele>
        <time>2022-08-07T06:48:29.000Z</time>
      </trkpt>
      <trkpt lat="48.55388" lon="-4.35908">
        <ele>49.400001525879</ele>
        <time>2022-08-07T06:48:30.000Z</time>
      </trkpt>
      <trkpt lat="48.55391" lon="-4.35911">
        <ele>49.400001525879</ele>
        <time>2022-08-07T06:48:31.000Z</time>
      </trkpt>
      <trkpt lat="48.55394" lon="-4.35913">
        <ele>49.599998474121</ele>
        <time>2022-08-07T06:48:32.000Z</time>
      </trkpt>
      <trkpt lat="48.55398" lon="-4.35916">
        <ele>49.599998474121</ele>
        <time>2022-08-07T06:48:33.000Z</time>
      </trkpt>
      <trkpt lat="48.55401" lon="-4.35918">
        <ele>49.599998474121</ele>
        <time>2022-08-07T06:48:34.000Z</time>
      </trkpt>
      <trkpt lat="48.55404" lon="-4.35921">
        <ele>49.599998474121</ele>
        <time>2022-08-07T06:48:35.000Z</time>
      </trkpt>
      <trkpt lat="48.55407" lon="-4.35923">
        <ele>49.599998474121</ele>
        <time>2022-08-07T06:48:36.000Z</time>
      </trkpt>
      <trkpt lat="48.5541" lon="-4.35925">
        <ele>49.799999237061</ele>
        <time>2022-08-07T06:48:37.000Z</time>
      </trkpt>
      <trkpt lat="48.55413" lon="-4.35927">
        <ele>50</ele>
        <time>2022-08-07T06:48:38.000Z</time>
      </trkpt>
      <trkpt lat="48.55416" lon="-4.35929">
        <ele>50</ele>
        <time>2022-08-07T06:48:39.000Z</time>
      </trkpt>
      <trkpt lat="48.5542" lon="-4.35931">
        <ele>50</ele>
        <time>2022-08-07T06:48:40.000Z</time>
      </trkpt>
      <trkpt lat="48.55423" lon="-4.35933">
        <ele>50.200000762939</ele>
        <time>2022-08-07T06:48:41.000Z</time>
      </trkpt>
      <trkpt lat="48.55426" lon="-4.35936">
        <ele>50.400001525879</ele>
        <time>2022-08-07T06:48:42.000Z</time>
      </trkpt>
      <trkpt lat="48.55429" lon="-4.35938">
        <ele>50.400001525879</ele>
        <time>2022-08-07T06:48:43.000Z</time>
      </trkpt>
      <trkpt lat="48.55433" lon="-4.35941">
        <ele>50.599998474121</ele>
        <time>2022-08-07T06:48:44.000Z</time>
      </trkpt>
      <trkpt lat="48.55436" lon="-4.35943">
        <ele>50.599998474121</ele>
        <time>2022-08-07T06:48:45.000Z</time>
      </trkpt>
      <trkpt lat="48.55439" lon="-4.35945">
        <ele>50.799999237061</ele>
        <time>2022-08-07T06:48:46.000Z</time>
      </trkpt>
      <trkpt lat="48.55443" lon="-4.35948">
        <ele>51</ele>
        <time>2022-08-07T06:48:47.000Z</time>
      </trkpt>
      <trkpt lat="48.55446" lon="-4.3595">
        <ele>51</ele>
        <time>2022-08-07T06:48:48.000Z</time>
      </trkpt>
      <trkpt lat="48.5545" lon="-4.35952">
        <ele>51.200000762939</ele>
        <time>2022-08-07T06:48:49.000Z</time>
      </trkpt>
      <trkpt lat="48.55453" lon="-4.35954">
        <ele>51.400001525879</ele>
        <time>2022-08-07T06:48:50.000Z</time>
      </trkpt>
      <trkpt lat="48.55457" lon="-4.35956">
        <ele>51.799999237061</ele>
        <time>2022-08-07T06:48:51.000Z</time>
      </trkpt>
      <trkpt lat="48.5546" lon="-4.35957">
        <ele>51.799999237061</ele>
        <time>2022-08-07T06:48:52.000Z</time>
      </trkpt>
      <trkpt lat="48.55464" lon="-4.35959">
        <ele>52</ele>
        <time>2022-08-07T06:48:53.000Z</time>
      </trkpt>
      <trkpt lat="48.55468" lon="-4.35959">
        <ele>52.200000762939</ele>
        <time>2022-08-07T06:48:54.000Z</time>
      </trkpt>
      <trkpt lat="48.55471" lon="-4.3596">
        <ele>52.200000762939</ele>
        <time>2022-08-07T06:48:55.000Z</time>
      </trkpt>
      <trkpt lat="48.55475" lon="-4.3596">
        <ele>52.599998474121</ele>
        <time>2022-08-07T06:48:56.000Z</time>
      </trkpt>
      <trkpt lat="48.55479" lon="-4.35959">
        <ele>52.599998474121</ele>
        <time>2022-08-07T06:48:57.000Z</time>
      </trkpt>
      <trkpt lat="48.55483" lon="-4.35959">
        <ele>52.799999237061</ele>
        <time>2022-08-07T06:48:58.000Z</time>
      </trkpt>
      <trkpt lat="48.55486" lon="-4.35958">
        <ele>52.799999237061</ele>
        <time>2022-08-07T06:48:59.000Z</time>
      </trkpt>
      <trkpt lat="48.5549" lon="-4.35957">
        <ele>53.200000762939</ele>
        <time>2022-08-07T06:49:00.000Z</time>
      </trkpt>
      <trkpt lat="48.55494" lon="-4.35956">
        <ele>53.200000762939</ele>
        <time>2022-08-07T06:49:01.000Z</time>
      </trkpt>
      <trkpt lat="48.55497" lon="-4.35955">
        <ele>53.599998474121</ele>
        <time>2022-08-07T06:49:02.000Z</time>
      </trkpt>
      <trkpt lat="48.55501" lon="-4.35953">
        <ele>53.799999237061</ele>
        <time>2022-08-07T06:49:03.000Z</time>
      </trkpt>
      <trkpt lat="48.55504" lon="-4.35953">
        <ele>54</ele>
        <time>2022-08-07T06:49:04.000Z</time>
      </trkpt>
      <trkpt lat="48.55508" lon="-4.35952">
        <ele>54.200000762939</ele>
        <time>2022-08-07T06:49:05.000Z</time>
      </trkpt>
      <trkpt lat="48.55511" lon="-4.35951">
        <ele>54.400001525879</ele>
        <time>2022-08-07T06:49:06.000Z</time>
      </trkpt>
      <trkpt lat="48.55514" lon="-4.3595">
        <ele>54.599998474121</ele>
        <time>2022-08-07T06:49:07.000Z</time>
      </trkpt>
      <trkpt lat="48.55519" lon="-4.35949">
        <ele>54.799999237061</ele>
        <time>2022-08-07T06:49:08.000Z</time>
      </trkpt>
      <trkpt lat="48.55522" lon="-4.35948">
        <ele>55</ele>
        <time>2022-08-07T06:49:09.000Z</time>
      </trkpt>
      <trkpt lat="48.55526" lon="-4.35948">
        <ele>55.200000762939</ele>
        <time>2022-08-07T06:49:10.000Z</time>
      </trkpt>
      <trkpt lat="48.55529" lon="-4.35946">
        <ele>55.400001525879</ele>
        <time>2022-08-07T06:49:11.000Z</time>
      </trkpt>
      <trkpt lat="48.55533" lon="-4.35945">
        <ele>55.400001525879</ele>
        <time>2022-08-07T06:49:12.000Z</time>
      </trkpt>
      <trkpt lat="48.55536" lon="-4.35943">
        <ele>55.599998474121</ele>
        <time>2022-08-07T06:49:13.000Z</time>
      </trkpt>
      <trkpt lat="48.5554" lon="-4.35942">
        <ele>55.599998474121</ele>
        <time>2022-08-07T06:49:14.000Z</time>
      </trkpt>
      <trkpt lat="48.55543" lon="-4.3594">
        <ele>55.799999237061</ele>
        <time>2022-08-07T06:49:15.000Z</time>
      </trkpt>
      <trkpt lat="48.55547" lon="-4.35939">
        <ele>55.799999237061</ele>
        <time>2022-08-07T06:49:16.000Z</time>
      </trkpt>
      <trkpt lat="48.55551" lon="-4.35937">
        <ele>56</ele>
        <time>2022-08-07T06:49:17.000Z</time>
      </trkpt>
      <trkpt lat="48.55554" lon="-4.35936">
        <ele>56</ele>
        <time>2022-08-07T06:49:18.000Z</time>
      </trkpt>
      <trkpt lat="48.55558" lon="-4.35934">
        <ele>56.200000762939</ele>
        <time>2022-08-07T06:49:19.000Z</time>
      </trkpt>
      <trkpt lat="48.55562" lon="-4.35932">
        <ele>56.200000762939</ele>
        <time>2022-08-07T06:49:20.000Z</time>
      </trkpt>
      <trkpt lat="48.55565" lon="-4.35931">
        <ele>56.200000762939</ele>
        <time>2022-08-07T06:49:21.000Z</time>
      </trkpt>
      <trkpt lat="48.55568" lon="-4.35929">
        <ele>56.400001525879</ele>
        <time>2022-08-07T06:49:22.000Z</time>
      </trkpt>
      <trkpt lat="48.55572" lon="-4.35927">
        <ele>56.400001525879</ele>
        <time>2022-08-07T06:49:23.000Z</time>
      </trkpt>
      <trkpt lat="48.55575" lon="-4.35925">
        <ele>56.400001525879</ele>
        <time>2022-08-07T06:49:24.000Z</time>
      </trkpt>
      <trkpt lat="48.55579" lon="-4.35923">
        <ele>56.400001525879</ele>
        <time>2022-08-07T06:49:25.000Z</time>
      </trkpt>
      <trkpt lat="48.55582" lon="-4.35922">
        <ele>56.400001525879</ele>
        <time>2022-08-07T06:49:26.000Z</time>
      </trkpt>
      <trkpt lat="48.55585" lon="-4.3592">
        <ele>56.400001525879</ele>
        <time>2022-08-07T06:49:27.000Z</time>
      </trkpt>
      <trkpt lat="48.55588" lon="-4.35919">
        <ele>56.599998474121</ele>
        <time>2022-08-07T06:49:28.000Z</time>
      </trkpt>
      <trkpt lat="48.55591" lon="-4.35918">
        <ele>56.599998474121</ele>
        <time>2022-08-07T06:49:29.000Z</time>
      </trkpt>
      <trkpt lat="48.55594" lon="-4.35918">
        <ele>56.599998474121</ele>
        <time>2022-08-07T06:49:30.000Z</time>
      </trkpt>
      <trkpt lat="48.55596" lon="-4.35918">
        <ele>56.599998474121</ele>
        <time>2022-08-07T06:49:31.000Z</time>
      </trkpt>
      <trkpt lat="48.55598" lon="-4.3592">
        <ele>56.599998474121</ele>
        <time>2022-08-07T06:49:32.000Z</time>
      </trkpt>
      <trkpt lat="48.556" lon="-4.35922">
        <ele>56.599998474121</ele>
        <time>2022-08-07T06:49:33.000Z</time>
      </trkpt>
      <trkpt lat="48.55601" lon="-4.35926">
        <ele>56.599998474121</ele>
        <time>2022-08-07T06:49:34.000Z</time>
      </trkpt>
      <trkpt lat="48.55602" lon="-4.35931">
        <ele>56.799999237061</ele>
        <time>2022-08-07T06:49:35.000Z</time>
      </trkpt>
      <trkpt lat="48.55601" lon="-4.35936">
        <ele>56.799999237061</ele>
        <time>2022-08-07T06:49:36.000Z</time>
      </trkpt>
      <trkpt lat="48.55599" lon="-4.35942">
        <ele>56.799999237061</ele>
        <time>2022-08-07T06:49:37.000Z</time>
      </trkpt>
      <trkpt lat="48.55597" lon="-4.35947">
        <ele>56.799999237061</ele>
        <time>2022-08-07T06:49:38.000Z</time>
      </trkpt>
      <trkpt lat="48.55595" lon="-4.35952">
        <ele>56.799999237061</ele>
        <time>2022-08-07T06:49:39.000Z</time>
      </trkpt>
      <trkpt lat="48.55593" lon="-4.35957">
        <ele>56.599998474121</ele>
        <time>2022-08-07T06:49:40.000Z</time>
      </trkpt>
      <trkpt lat="48.55591" lon="-4.35963">
        <ele>56.599998474121</ele>
        <time>2022-08-07T06:49:41.000Z</time>
      </trkpt>
      <trkpt lat="48.55589" lon="-4.35968">
        <ele>56.599998474121</ele>
        <time>2022-08-07T06:49:42.000Z</time>
      </trkpt>
      <trkpt lat="48.55587" lon="-4.35974">
        <ele>56.599998474121</ele>
        <time>2022-08-07T06:49:43.000Z</time>
      </trkpt>
      <trkpt lat="48.55584" lon="-4.35979">
        <ele>56.599998474121</ele>
        <time>2022-08-07T06:49:44.000Z</time>
      </trkpt>
      <trkpt lat="48.55582" lon="-4.35985">
        <ele>56.599998474121</ele>
        <time>2022-08-07T06:49:45.000Z</time>
      </trkpt>
      <trkpt lat="48.5558" lon="-4.3599">
        <ele>56.599998474121</ele>
        <time>2022-08-07T06:49:46.000Z</time>
      </trkpt>
      <trkpt lat="48.55577" lon="-4.35996">
        <ele>56.400001525879</ele>
        <time>2022-08-07T06:49:47.000Z</time>
      </trkpt>
      <trkpt lat="48.55575" lon="-4.36">
        <ele>56.400001525879</ele>
        <time>2022-08-07T06:49:48.000Z</time>
      </trkpt>
      <trkpt lat="48.55573" lon="-4.36007">
        <ele>56.400001525879</ele>
        <time>2022-08-07T06:49:49.000Z</time>
      </trkpt>
      <trkpt lat="48.5557" lon="-4.36013">
        <ele>56.400001525879</ele>
        <time>2022-08-07T06:49:50.000Z</time>
      </trkpt>
      <trkpt lat="48.55568" lon="-4.36019">
        <ele>56.200000762939</ele>
        <time>2022-08-07T06:49:51.000Z</time>
      </trkpt>
      <trkpt lat="48.55566" lon="-4.36025">
        <ele>56.200000762939</ele>
        <time>2022-08-07T06:49:52.000Z</time>
      </trkpt>
      <trkpt lat="48.55564" lon="-4.36029">
        <ele>56.200000762939</ele>
        <time>2022-08-07T06:49:53.000Z</time>
      </trkpt>
      <trkpt lat="48.55561" lon="-4.36036">
        <ele>56.200000762939</ele>
        <time>2022-08-07T06:49:54.000Z</time>
      </trkpt>
      <trkpt lat="48.55558" lon="-4.36042">
        <ele>56.200000762939</ele>
        <time>2022-08-07T06:49:55.000Z</time>
      </trkpt>
      <trkpt lat="48.55556" lon="-4.36048">
        <ele>56.200000762939</ele>
        <time>2022-08-07T06:49:56.000Z</time>
      </trkpt>
      <trkpt lat="48.55553" lon="-4.36054">
        <ele>56.200000762939</ele>
        <time>2022-08-07T06:49:57.000Z</time>
      </trkpt>
      <trkpt lat="48.55551" lon="-4.36059">
        <ele>56</ele>
        <time>2022-08-07T06:49:58.000Z</time>
      </trkpt>
      <trkpt lat="48.55549" lon="-4.36064">
        <ele>56</ele>
        <time>2022-08-07T06:49:59.000Z</time>
      </trkpt>
      <trkpt lat="48.55546" lon="-4.36069">
        <ele>56</ele>
        <time>2022-08-07T06:50:00.000Z</time>
      </trkpt>
      <trkpt lat="48.55544" lon="-4.36075">
        <ele>56</ele>
        <time>2022-08-07T06:50:01.000Z</time>
      </trkpt>
      <trkpt lat="48.55542" lon="-4.3608">
        <ele>56</ele>
        <time>2022-08-07T06:50:02.000Z</time>
      </trkpt>
      <trkpt lat="48.5554" lon="-4.36084">
        <ele>56</ele>
        <time>2022-08-07T06:50:03.000Z</time>
      </trkpt>
      <trkpt lat="48.55538" lon="-4.36089">
        <ele>55.799999237061</ele>
        <time>2022-08-07T06:50:04.000Z</time>
      </trkpt>
      <trkpt lat="48.55537" lon="-4.36094">
        <ele>55.799999237061</ele>
        <time>2022-08-07T06:50:05.000Z</time>
      </trkpt>
      <trkpt lat="48.55537" lon="-4.361">
        <ele>55.799999237061</ele>
        <time>2022-08-07T06:50:06.000Z</time>
      </trkpt>
      <trkpt lat="48.55537" lon="-4.36105">
        <ele>55.799999237061</ele>
        <time>2022-08-07T06:50:07.000Z</time>
      </trkpt>
      <trkpt lat="48.55539" lon="-4.36109">
        <ele>55.599998474121</ele>
        <time>2022-08-07T06:50:08.000Z</time>
      </trkpt>
      <trkpt lat="48.5554" lon="-4.36113">
        <ele>55.599998474121</ele>
        <time>2022-08-07T06:50:09.000Z</time>
      </trkpt>
      <trkpt lat="48.55542" lon="-4.36118">
        <ele>55.599998474121</ele>
        <time>2022-08-07T06:50:10.000Z</time>
      </trkpt>
      <trkpt lat="48.55543" lon="-4.36122">
        <ele>55.599998474121</ele>
        <time>2022-08-07T06:50:11.000Z</time>
      </trkpt>
      <trkpt lat="48.55545" lon="-4.36126">
        <ele>55.599998474121</ele>
        <time>2022-08-07T06:50:12.000Z</time>
      </trkpt>
      <trkpt lat="48.55547" lon="-4.36131">
        <ele>55.599998474121</ele>
        <time>2022-08-07T06:50:13.000Z</time>
      </trkpt>
      <trkpt lat="48.55549" lon="-4.36136">
        <ele>55.599998474121</ele>
        <time>2022-08-07T06:50:14.000Z</time>
      </trkpt>
      <trkpt lat="48.55551" lon="-4.36141">
        <ele>55.599998474121</ele>
        <time>2022-08-07T06:50:15.000Z</time>
      </trkpt>
      <trkpt lat="48.55553" lon="-4.36147">
        <ele>55.400001525879</ele>
        <time>2022-08-07T06:50:16.000Z</time>
      </trkpt>
      <trkpt lat="48.55556" lon="-4.36152">
        <ele>55.400001525879</ele>
        <time>2022-08-07T06:50:17.000Z</time>
      </trkpt>
      <trkpt lat="48.55558" lon="-4.36157">
        <ele>55.400001525879</ele>
        <time>2022-08-07T06:50:18.000Z</time>
      </trkpt>
      <trkpt lat="48.5556" lon="-4.36163">
        <ele>55.400001525879</ele>
        <time>2022-08-07T06:50:19.000Z</time>
      </trkpt>
      <trkpt lat="48.55563" lon="-4.36169">
        <ele>55.200000762939</ele>
        <time>2022-08-07T06:50:20.000Z</time>
      </trkpt>
      <trkpt lat="48.55566" lon="-4.36176">
        <ele>55</ele>
        <time>2022-08-07T06:50:21.000Z</time>
      </trkpt>
      <trkpt lat="48.55569" lon="-4.36182">
        <ele>54.799999237061</ele>
        <time>2022-08-07T06:50:22.000Z</time>
      </trkpt>
      <trkpt lat="48.55573" lon="-4.36186">
        <ele>54.599998474121</ele>
        <time>2022-08-07T06:50:23.000Z</time>
      </trkpt>
      <trkpt lat="48.55578" lon="-4.36188">
        <ele>54.200000762939</ele>
        <time>2022-08-07T06:50:24.000Z</time>
      </trkpt>
      <trkpt lat="48.55583" lon="-4.36186">
        <ele>54.200000762939</ele>
        <time>2022-08-07T06:50:25.000Z</time>
      </trkpt>
      <trkpt lat="48.55587" lon="-4.36182">
        <ele>53.799999237061</ele>
        <time>2022-08-07T06:50:26.000Z</time>
      </trkpt>
      <trkpt lat="48.55591" lon="-4.36177">
        <ele>53.599998474121</ele>
        <time>2022-08-07T06:50:27.000Z</time>
      </trkpt>
      <trkpt lat="48.55595" lon="-4.36172">
        <ele>53.200000762939</ele>
        <time>2022-08-07T06:50:28.000Z</time>
      </trkpt>
      <trkpt lat="48.55599" lon="-4.36168">
        <ele>53</ele>
        <time>2022-08-07T06:50:29.000Z</time>
      </trkpt>
      <trkpt lat="48.55603" lon="-4.36164">
        <ele>53</ele>
        <time>2022-08-07T06:50:30.000Z</time>
      </trkpt>
      <trkpt lat="48.55606" lon="-4.3616">
        <ele>53</ele>
        <time>2022-08-07T06:50:31.000Z</time>
      </trkpt>
      <trkpt lat="48.5561" lon="-4.36157">
        <ele>53</ele>
        <time>2022-08-07T06:50:32.000Z</time>
      </trkpt>
      <trkpt lat="48.55613" lon="-4.36154">
        <ele>52.799999237061</ele>
        <time>2022-08-07T06:50:33.000Z</time>
      </trkpt>
      <trkpt lat="48.55617" lon="-4.3615">
        <ele>52.799999237061</ele>
        <time>2022-08-07T06:50:34.000Z</time>
      </trkpt>
      <trkpt lat="48.55622" lon="-4.36146">
        <ele>52.799999237061</ele>
        <time>2022-08-07T06:50:35.000Z</time>
      </trkpt>
      <trkpt lat="48.55626" lon="-4.36143">
        <ele>52.799999237061</ele>
        <time>2022-08-07T06:50:36.000Z</time>
      </trkpt>
      <trkpt lat="48.5563" lon="-4.3614">
        <ele>52.799999237061</ele>
        <time>2022-08-07T06:50:37.000Z</time>
      </trkpt>
      <trkpt lat="48.55634" lon="-4.36137">
        <ele>52.799999237061</ele>
        <time>2022-08-07T06:50:38.000Z</time>
      </trkpt>
      <trkpt lat="48.55638" lon="-4.36133">
        <ele>52.799999237061</ele>
        <time>2022-08-07T06:50:39.000Z</time>
      </trkpt>
      <trkpt lat="48.55642" lon="-4.36128">
        <ele>52.799999237061</ele>
        <time>2022-08-07T06:50:40.000Z</time>
      </trkpt>
      <trkpt lat="48.55646" lon="-4.36124">
        <ele>52.799999237061</ele>
        <time>2022-08-07T06:50:41.000Z</time>
      </trkpt>
      <trkpt lat="48.5565" lon="-4.36119">
        <ele>52.799999237061</ele>
        <time>2022-08-07T06:50:42.000Z</time>
      </trkpt>
      <trkpt lat="48.55654" lon="-4.36115">
        <ele>52.799999237061</ele>
        <time>2022-08-07T06:50:43.000Z</time>
      </trkpt>
      <trkpt lat="48.55657" lon="-4.36111">
        <ele>52.599998474121</ele>
        <time>2022-08-07T06:50:44.000Z</time>
      </trkpt>
      <trkpt lat="48.55661" lon="-4.36106">
        <ele>52.599998474121</ele>
        <time>2022-08-07T06:50:45.000Z</time>
      </trkpt>
      <trkpt lat="48.55665" lon="-4.36102">
        <ele>52.599998474121</ele>
        <time>2022-08-07T06:50:46.000Z</time>
      </trkpt>
      <trkpt lat="48.55669" lon="-4.36097">
        <ele>52.599998474121</ele>
        <time>2022-08-07T06:50:47.000Z</time>
      </trkpt>
      <trkpt lat="48.55672" lon="-4.36092">
        <ele>52.799999237061</ele>
        <time>2022-08-07T06:50:48.000Z</time>
      </trkpt>
      <trkpt lat="48.55676" lon="-4.36087">
        <ele>52.799999237061</ele>
        <time>2022-08-07T06:50:49.000Z</time>
      </trkpt>
      <trkpt lat="48.5568" lon="-4.36082">
        <ele>52.799999237061</ele>
        <time>2022-08-07T06:50:50.000Z</time>
      </trkpt>
      <trkpt lat="48.55683" lon="-4.36078">
        <ele>52.799999237061</ele>
        <time>2022-08-07T06:50:51.000Z</time>
      </trkpt>
      <trkpt lat="48.55686" lon="-4.36074">
        <ele>53</ele>
        <time>2022-08-07T06:50:52.000Z</time>
      </trkpt>
      <trkpt lat="48.55689" lon="-4.36069">
        <ele>53</ele>
        <time>2022-08-07T06:50:53.000Z</time>
      </trkpt>
      <trkpt lat="48.55692" lon="-4.36065">
        <ele>53</ele>
        <time>2022-08-07T06:50:54.000Z</time>
      </trkpt>
      <trkpt lat="48.55694" lon="-4.36061">
        <ele>53.200000762939</ele>
        <time>2022-08-07T06:50:55.000Z</time>
      </trkpt>
      <trkpt lat="48.55698" lon="-4.36057">
        <ele>53.200000762939</ele>
        <time>2022-08-07T06:50:56.000Z</time>
      </trkpt>
      <trkpt lat="48.55701" lon="-4.36053">
        <ele>53.400001525879</ele>
        <time>2022-08-07T06:50:57.000Z</time>
      </trkpt>
      <trkpt lat="48.55704" lon="-4.36048">
        <ele>53.400001525879</ele>
        <time>2022-08-07T06:50:58.000Z</time>
      </trkpt>
      <trkpt lat="48.55708" lon="-4.36044">
        <ele>53.599998474121</ele>
        <time>2022-08-07T06:50:59.000Z</time>
      </trkpt>
      <trkpt lat="48.55711" lon="-4.36038">
        <ele>53.599998474121</ele>
        <time>2022-08-07T06:51:00.000Z</time>
      </trkpt>
      <trkpt lat="48.55713" lon="-4.36032">
        <ele>53.799999237061</ele>
        <time>2022-08-07T06:51:01.000Z</time>
      </trkpt>
      <trkpt lat="48.55715" lon="-4.36026">
        <ele>53.799999237061</ele>
        <time>2022-08-07T06:51:02.000Z</time>
      </trkpt>
      <trkpt lat="48.55717" lon="-4.3602">
        <ele>53.799999237061</ele>
        <time>2022-08-07T06:51:03.000Z</time>
      </trkpt>
      <trkpt lat="48.55719" lon="-4.36015">
        <ele>54</ele>
        <time>2022-08-07T06:51:04.000Z</time>
      </trkpt>
      <trkpt lat="48.55722" lon="-4.36009">
        <ele>54</ele>
        <time>2022-08-07T06:51:05.000Z</time>
      </trkpt>
      <trkpt lat="48.55724" lon="-4.36004">
        <ele>54.200000762939</ele>
        <time>2022-08-07T06:51:06.000Z</time>
      </trkpt>
      <trkpt lat="48.55727" lon="-4.36">
        <ele>54.400001525879</ele>
        <time>2022-08-07T06:51:07.000Z</time>
      </trkpt>
      <trkpt lat="48.5573" lon="-4.35995">
        <ele>54.599998474121</ele>
        <time>2022-08-07T06:51:08.000Z</time>
      </trkpt>
      <trkpt lat="48.55733" lon="-4.3599">
        <ele>54.599998474121</ele>
        <time>2022-08-07T06:51:09.000Z</time>
      </trkpt>
      <trkpt lat="48.55735" lon="-4.35986">
        <ele>54.799999237061</ele>
        <time>2022-08-07T06:51:10.000Z</time>
      </trkpt>
      <trkpt lat="48.55738" lon="-4.35981">
        <ele>55</ele>
        <time>2022-08-07T06:51:11.000Z</time>
      </trkpt>
      <trkpt lat="48.5574" lon="-4.35976">
        <ele>55.200000762939</ele>
        <time>2022-08-07T06:51:12.000Z</time>
      </trkpt>
      <trkpt lat="48.55743" lon="-4.35972">
        <ele>55.400001525879</ele>
        <time>2022-08-07T06:51:13.000Z</time>
      </trkpt>
      <trkpt lat="48.55745" lon="-4.35968">
        <ele>55.400001525879</ele>
        <time>2022-08-07T06:51:14.000Z</time>
      </trkpt>
      <trkpt lat="48.55747" lon="-4.35963">
        <ele>55.799999237061</ele>
        <time>2022-08-07T06:51:15.000Z</time>
      </trkpt>
      <trkpt lat="48.5575" lon="-4.35958">
        <ele>56</ele>
        <time>2022-08-07T06:51:16.000Z</time>
      </trkpt>
      <trkpt lat="48.55752" lon="-4.35953">
        <ele>56.200000762939</ele>
        <time>2022-08-07T06:51:17.000Z</time>
      </trkpt>
      <trkpt lat="48.55754" lon="-4.35949">
        <ele>56.400001525879</ele>
        <time>2022-08-07T06:51:18.000Z</time>
      </trkpt>
      <trkpt lat="48.55757" lon="-4.35944">
        <ele>56.599998474121</ele>
        <time>2022-08-07T06:51:19.000Z</time>
      </trkpt>
      <trkpt lat="48.55759" lon="-4.3594">
        <ele>56.599998474121</ele>
        <time>2022-08-07T06:51:20.000Z</time>
      </trkpt>
      <trkpt lat="48.55761" lon="-4.35935">
        <ele>56.799999237061</ele>
        <time>2022-08-07T06:51:21.000Z</time>
      </trkpt>
      <trkpt lat="48.55763" lon="-4.35931">
        <ele>57</ele>
        <time>2022-08-07T06:51:22.000Z</time>
      </trkpt>
      <trkpt lat="48.55766" lon="-4.35928">
        <ele>57</ele>
        <time>2022-08-07T06:51:23.000Z</time>
      </trkpt>
      <trkpt lat="48.55768" lon="-4.35924">
        <ele>57.200000762939</ele>
        <time>2022-08-07T06:51:24.000Z</time>
      </trkpt>
      <trkpt lat="48.5577" lon="-4.35921">
        <ele>57.400001525879</ele>
        <time>2022-08-07T06:51:25.000Z</time>
      </trkpt>
      <trkpt lat="48.55772" lon="-4.35917">
        <ele>57.799999237061</ele>
        <time>2022-08-07T06:51:26.000Z</time>
      </trkpt>
      <trkpt lat="48.55774" lon="-4.35913">
        <ele>57.799999237061</ele>
        <time>2022-08-07T06:51:27.000Z</time>
      </trkpt>
      <trkpt lat="48.55777" lon="-4.3591">
        <ele>58.200000762939</ele>
        <time>2022-08-07T06:51:28.000Z</time>
      </trkpt>
      <trkpt lat="48.5578" lon="-4.35908">
        <ele>58.400001525879</ele>
        <time>2022-08-07T06:51:29.000Z</time>
      </trkpt>
      <trkpt lat="48.55783" lon="-4.35908">
        <ele>58.599998474121</ele>
        <time>2022-08-07T06:51:30.000Z</time>
      </trkpt>
      <trkpt lat="48.55786" lon="-4.35908">
        <ele>58.799999237061</ele>
        <time>2022-08-07T06:51:31.000Z</time>
      </trkpt>
      <trkpt lat="48.55789" lon="-4.35909">
        <ele>59</ele>
        <time>2022-08-07T06:51:32.000Z</time>
      </trkpt>
      <trkpt lat="48.55792" lon="-4.35911">
        <ele>59</ele>
        <time>2022-08-07T06:51:33.000Z</time>
      </trkpt>
      <trkpt lat="48.55794" lon="-4.35913">
        <ele>59</ele>
        <time>2022-08-07T06:51:34.000Z</time>
      </trkpt>
      <trkpt lat="48.55797" lon="-4.35915">
        <ele>59.400001525879</ele>
        <time>2022-08-07T06:51:35.000Z</time>
      </trkpt>
      <trkpt lat="48.55799" lon="-4.35916">
        <ele>59.400001525879</ele>
        <time>2022-08-07T06:51:36.000Z</time>
      </trkpt>
      <trkpt lat="48.55802" lon="-4.35916">
        <ele>59.799999237061</ele>
        <time>2022-08-07T06:51:37.000Z</time>
      </trkpt>
      <trkpt lat="48.55804" lon="-4.35915">
        <ele>59.799999237061</ele>
        <time>2022-08-07T06:51:38.000Z</time>
      </trkpt>
      <trkpt lat="48.55806" lon="-4.35913">
        <ele>60</ele>
        <time>2022-08-07T06:51:39.000Z</time>
      </trkpt>
      <trkpt lat="48.55808" lon="-4.35909">
        <ele>60.400001525879</ele>
        <time>2022-08-07T06:51:40.000Z</time>
      </trkpt>
      <trkpt lat="48.5581" lon="-4.35905">
        <ele>60.400001525879</ele>
        <time>2022-08-07T06:51:41.000Z</time>
      </trkpt>
      <trkpt lat="48.55812" lon="-4.35901">
        <ele>60.599998474121</ele>
        <time>2022-08-07T06:51:42.000Z</time>
      </trkpt>
      <trkpt lat="48.55814" lon="-4.35897">
        <ele>60.799999237061</ele>
        <time>2022-08-07T06:51:43.000Z</time>
      </trkpt>
      <trkpt lat="48.55815" lon="-4.35893">
        <ele>61</ele>
        <time>2022-08-07T06:51:44.000Z</time>
      </trkpt>
      <trkpt lat="48.55817" lon="-4.35889">
        <ele>61</ele>
        <time>2022-08-07T06:51:45.000Z</time>
      </trkpt>
      <trkpt lat="48.55819" lon="-4.35885">
        <ele>61</ele>
        <time>2022-08-07T06:51:46.000Z</time>
      </trkpt>
      <trkpt lat="48.55821" lon="-4.35881">
        <ele>61.200000762939</ele>
        <time>2022-08-07T06:51:47.000Z</time>
      </trkpt>
      <trkpt lat="48.55823" lon="-4.35878">
        <ele>61.200000762939</ele>
        <time>2022-08-07T06:51:48.000Z</time>
      </trkpt>
      <trkpt lat="48.55825" lon="-4.35873">
        <ele>61.200000762939</ele>
        <time>2022-08-07T06:51:49.000Z</time>
      </trkpt>
      <trkpt lat="48.55827" lon="-4.35869">
        <ele>61.400001525879</ele>
        <time>2022-08-07T06:51:50.000Z</time>
      </trkpt>
      <trkpt lat="48.55829" lon="-4.35865">
        <ele>61.400001525879</ele>
        <time>2022-08-07T06:51:51.000Z</time>
      </trkpt>
      <trkpt lat="48.55831" lon="-4.35861">
        <ele>61.599998474121</ele>
        <time>2022-08-07T06:51:52.000Z</time>
      </trkpt>
      <trkpt lat="48.55833" lon="-4.35856">
        <ele>61.599998474121</ele>
        <time>2022-08-07T06:51:53.000Z</time>
      </trkpt>
      <trkpt lat="48.55835" lon="-4.35852">
        <ele>61.799999237061</ele>
        <time>2022-08-07T06:51:54.000Z</time>
      </trkpt>
      <trkpt lat="48.55837" lon="-4.35848">
        <ele>62</ele>
        <time>2022-08-07T06:51:55.000Z</time>
      </trkpt>
      <trkpt lat="48.55839" lon="-4.35843">
        <ele>62</ele>
        <time>2022-08-07T06:51:56.000Z</time>
      </trkpt>
      <trkpt lat="48.55841" lon="-4.35839">
        <ele>62.200000762939</ele>
        <time>2022-08-07T06:51:57.000Z</time>
      </trkpt>
      <trkpt lat="48.55843" lon="-4.35835">
        <ele>62.200000762939</ele>
        <time>2022-08-07T06:51:58.000Z</time>
      </trkpt>
      <trkpt lat="48.55845" lon="-4.3583">
        <ele>62.200000762939</ele>
        <time>2022-08-07T06:51:59.000Z</time>
      </trkpt>
      <trkpt lat="48.55847" lon="-4.35826">
        <ele>62.200000762939</ele>
        <time>2022-08-07T06:52:00.000Z</time>
      </trkpt>
      <trkpt lat="48.55849" lon="-4.35821">
        <ele>62.400001525879</ele>
        <time>2022-08-07T06:52:01.000Z</time>
      </trkpt>
      <trkpt lat="48.55851" lon="-4.35817">
        <ele>62.400001525879</ele>
        <time>2022-08-07T06:52:02.000Z</time>
      </trkpt>
      <trkpt lat="48.55853" lon="-4.35812">
        <ele>62.599998474121</ele>
        <time>2022-08-07T06:52:03.000Z</time>
      </trkpt>
      <trkpt lat="48.55855" lon="-4.35808">
        <ele>63</ele>
        <time>2022-08-07T06:52:04.000Z</time>
      </trkpt>
      <trkpt lat="48.55856" lon="-4.35804">
        <ele>63</ele>
        <time>2022-08-07T06:52:05.000Z</time>
      </trkpt>
      <trkpt lat="48.55858" lon="-4.35799">
        <ele>62.799999237061</ele>
        <time>2022-08-07T06:52:06.000Z</time>
      </trkpt>
      <trkpt lat="48.55859" lon="-4.35794">
        <ele>63.200000762939</ele>
        <time>2022-08-07T06:52:07.000Z</time>
      </trkpt>
      <trkpt lat="48.55861" lon="-4.35789">
        <ele>63.200000762939</ele>
        <time>2022-08-07T06:52:08.000Z</time>
      </trkpt>
      <trkpt lat="48.55863" lon="-4.35785">
        <ele>63.400001525879</ele>
        <time>2022-08-07T06:52:09.000Z</time>
      </trkpt>
      <trkpt lat="48.55866" lon="-4.35782">
        <ele>63.400001525879</ele>
        <time>2022-08-07T06:52:10.000Z</time>
      </trkpt>
      <trkpt lat="48.55868" lon="-4.35778">
        <ele>63.400001525879</ele>
        <time>2022-08-07T06:52:11.000Z</time>
      </trkpt>
      <trkpt lat="48.55871" lon="-4.35775">
        <ele>63.599998474121</ele>
        <time>2022-08-07T06:52:12.000Z</time>
      </trkpt>
      <trkpt lat="48.55874" lon="-4.35773">
        <ele>63.599998474121</ele>
        <time>2022-08-07T06:52:13.000Z</time>
      </trkpt>
      <trkpt lat="48.55878" lon="-4.35771">
        <ele>63.799999237061</ele>
        <time>2022-08-07T06:52:14.000Z</time>
      </trkpt>
      <trkpt lat="48.55881" lon="-4.35769">
        <ele>63.799999237061</ele>
        <time>2022-08-07T06:52:15.000Z</time>
      </trkpt>
      <trkpt lat="48.55885" lon="-4.35768">
        <ele>64</ele>
        <time>2022-08-07T06:52:16.000Z</time>
      </trkpt>
      <trkpt lat="48.55888" lon="-4.35768">
        <ele>64.199996948242</ele>
        <time>2022-08-07T06:52:17.000Z</time>
      </trkpt>
      <trkpt lat="48.55892" lon="-4.35768">
        <ele>64.199996948242</ele>
        <time>2022-08-07T06:52:18.000Z</time>
      </trkpt>
      <trkpt lat="48.55895" lon="-4.35769">
        <ele>64.400001525879</ele>
        <time>2022-08-07T06:52:19.000Z</time>
      </trkpt>
      <trkpt lat="48.55898" lon="-4.35771">
        <ele>64.400001525879</ele>
        <time>2022-08-07T06:52:20.000Z</time>
      </trkpt>
      <trkpt lat="48.55901" lon="-4.35772">
        <ele>64.599998474121</ele>
        <time>2022-08-07T06:52:21.000Z</time>
      </trkpt>
      <trkpt lat="48.55905" lon="-4.35775">
        <ele>64.599998474121</ele>
        <time>2022-08-07T06:52:22.000Z</time>
      </trkpt>
      <trkpt lat="48.55908" lon="-4.35777">
        <ele>64.599998474121</ele>
        <time>2022-08-07T06:52:23.000Z</time>
      </trkpt>
      <trkpt lat="48.55911" lon="-4.3578">
        <ele>64.800003051758</ele>
        <time>2022-08-07T06:52:24.000Z</time>
      </trkpt>
      <trkpt lat="48.55915" lon="-4.35782">
        <ele>64.800003051758</ele>
        <time>2022-08-07T06:52:25.000Z</time>
      </trkpt>
      <trkpt lat="48.55918" lon="-4.35785">
        <ele>64.800003051758</ele>
        <time>2022-08-07T06:52:26.000Z</time>
      </trkpt>
      <trkpt lat="48.55921" lon="-4.35787">
        <ele>64.800003051758</ele>
        <time>2022-08-07T06:52:27.000Z</time>
      </trkpt>
      <trkpt lat="48.55925" lon="-4.3579">
        <ele>64.800003051758</ele>
        <time>2022-08-07T06:52:28.000Z</time>
      </trkpt>
      <trkpt lat="48.55928" lon="-4.35793">
        <ele>64.800003051758</ele>
        <time>2022-08-07T06:52:29.000Z</time>
      </trkpt>
      <trkpt lat="48.55932" lon="-4.35796">
        <ele>64.800003051758</ele>
        <time>2022-08-07T06:52:30.000Z</time>
      </trkpt>
      <trkpt lat="48.55935" lon="-4.35798">
        <ele>64.800003051758</ele>
        <time>2022-08-07T06:52:31.000Z</time>
      </trkpt>
      <trkpt lat="48.55938" lon="-4.35801">
        <ele>64.800003051758</ele>
        <time>2022-08-07T06:52:32.000Z</time>
      </trkpt>
      <trkpt lat="48.55942" lon="-4.35803">
        <ele>64.800003051758</ele>
        <time>2022-08-07T06:52:33.000Z</time>
      </trkpt>
      <trkpt lat="48.55945" lon="-4.35805">
        <ele>64.800003051758</ele>
        <time>2022-08-07T06:52:34.000Z</time>
      </trkpt>
      <trkpt lat="48.55948" lon="-4.35808">
        <ele>64.800003051758</ele>
        <time>2022-08-07T06:52:35.000Z</time>
      </trkpt>
      <trkpt lat="48.55952" lon="-4.3581">
        <ele>64.800003051758</ele>
        <time>2022-08-07T06:52:36.000Z</time>
      </trkpt>
      <trkpt lat="48.55956" lon="-4.35812">
        <ele>64.800003051758</ele>
        <time>2022-08-07T06:52:37.000Z</time>
      </trkpt>
      <trkpt lat="48.55959" lon="-4.35814">
        <ele>64.800003051758</ele>
        <time>2022-08-07T06:52:38.000Z</time>
      </trkpt>
      <trkpt lat="48.55963" lon="-4.35816">
        <ele>64.800003051758</ele>
        <time>2022-08-07T06:52:39.000Z</time>
      </trkpt>
      <trkpt lat="48.55966" lon="-4.35818">
        <ele>64.800003051758</ele>
        <time>2022-08-07T06:52:40.000Z</time>
      </trkpt>
      <trkpt lat="48.5597" lon="-4.3582">
        <ele>64.800003051758</ele>
        <time>2022-08-07T06:52:41.000Z</time>
      </trkpt>
      <trkpt lat="48.55974" lon="-4.35822">
        <ele>64.800003051758</ele>
        <time>2022-08-07T06:52:42.000Z</time>
      </trkpt>
      <trkpt lat="48.55977" lon="-4.35824">
        <ele>65</ele>
        <time>2022-08-07T06:52:43.000Z</time>
      </trkpt>
      <trkpt lat="48.55981" lon="-4.35826">
        <ele>65</ele>
        <time>2022-08-07T06:52:44.000Z</time>
      </trkpt>
      <trkpt lat="48.55984" lon="-4.35828">
        <ele>65</ele>
        <time>2022-08-07T06:52:45.000Z</time>
      </trkpt>
      <trkpt lat="48.55988" lon="-4.3583">
        <ele>65.199996948242</ele>
        <time>2022-08-07T06:52:46.000Z</time>
      </trkpt>
      <trkpt lat="48.55992" lon="-4.35832">
        <ele>65.199996948242</ele>
        <time>2022-08-07T06:52:47.000Z</time>
      </trkpt>
      <trkpt lat="48.55996" lon="-4.35833">
        <ele>65.199996948242</ele>
        <time>2022-08-07T06:52:48.000Z</time>
      </trkpt>
      <trkpt lat="48.56" lon="-4.35833">
        <ele>65.199996948242</ele>
        <time>2022-08-07T06:52:49.000Z</time>
      </trkpt>
      <trkpt lat="48.56004" lon="-4.35832">
        <ele>65.400001525879</ele>
        <time>2022-08-07T06:52:50.000Z</time>
      </trkpt>
      <trkpt lat="48.56008" lon="-4.35831">
        <ele>65.400001525879</ele>
        <time>2022-08-07T06:52:51.000Z</time>
      </trkpt>
      <trkpt lat="48.56012" lon="-4.3583">
        <ele>65.599998474121</ele>
        <time>2022-08-07T06:52:52.000Z</time>
      </trkpt>
      <trkpt lat="48.56016" lon="-4.35829">
        <ele>65.599998474121</ele>
        <time>2022-08-07T06:52:53.000Z</time>
      </trkpt>
      <trkpt lat="48.5602" lon="-4.35828">
        <ele>65.599998474121</ele>
        <time>2022-08-07T06:52:54.000Z</time>
      </trkpt>
      <trkpt lat="48.56024" lon="-4.35827">
        <ele>65.599998474121</ele>
        <time>2022-08-07T06:52:55.000Z</time>
      </trkpt>
      <trkpt lat="48.56028" lon="-4.35826">
        <ele>65.599998474121</ele>
        <time>2022-08-07T06:52:56.000Z</time>
      </trkpt>
      <trkpt lat="48.56032" lon="-4.35825">
        <ele>65.800003051758</ele>
        <time>2022-08-07T06:52:57.000Z</time>
      </trkpt>
      <trkpt lat="48.56036" lon="-4.35825">
        <ele>65.800003051758</ele>
        <time>2022-08-07T06:52:58.000Z</time>
      </trkpt>
      <trkpt lat="48.5604" lon="-4.35824">
        <ele>66</ele>
        <time>2022-08-07T06:52:59.000Z</time>
      </trkpt>
      <trkpt lat="48.56044" lon="-4.35824">
        <ele>66</ele>
        <time>2022-08-07T06:53:00.000Z</time>
      </trkpt>
      <trkpt lat="48.56049" lon="-4.35823">
        <ele>66</ele>
        <time>2022-08-07T06:53:01.000Z</time>
      </trkpt>
      <trkpt lat="48.56053" lon="-4.35823">
        <ele>66.199996948242</ele>
        <time>2022-08-07T06:53:02.000Z</time>
      </trkpt>
      <trkpt lat="48.56057" lon="-4.35823">
        <ele>66.199996948242</ele>
        <time>2022-08-07T06:53:03.000Z</time>
      </trkpt>
      <trkpt lat="48.56062" lon="-4.35822">
        <ele>66.199996948242</ele>
        <time>2022-08-07T06:53:04.000Z</time>
      </trkpt>
      <trkpt lat="48.56066" lon="-4.35822">
        <ele>66.400001525879</ele>
        <time>2022-08-07T06:53:05.000Z</time>
      </trkpt>
      <trkpt lat="48.5607" lon="-4.35822">
        <ele>66.400001525879</ele>
        <time>2022-08-07T06:53:06.000Z</time>
      </trkpt>
      <trkpt lat="48.56075" lon="-4.35822">
        <ele>66.400001525879</ele>
        <time>2022-08-07T06:53:07.000Z</time>
      </trkpt>
      <trkpt lat="48.56079" lon="-4.35822">
        <ele>66.400001525879</ele>
        <time>2022-08-07T06:53:08.000Z</time>
      </trkpt>
      <trkpt lat="48.56083" lon="-4.35823">
        <ele>66.400001525879</ele>
        <time>2022-08-07T06:53:09.000Z</time>
      </trkpt>
      <trkpt lat="48.56088" lon="-4.35823">
        <ele>66.599998474121</ele>
        <time>2022-08-07T06:53:10.000Z</time>
      </trkpt>
      <trkpt lat="48.56092" lon="-4.35823">
        <ele>66.599998474121</ele>
        <time>2022-08-07T06:53:11.000Z</time>
      </trkpt>
      <trkpt lat="48.56096" lon="-4.35822">
        <ele>66.599998474121</ele>
        <time>2022-08-07T06:53:12.000Z</time>
      </trkpt>
      <trkpt lat="48.56101" lon="-4.35822">
        <ele>66.599998474121</ele>
        <time>2022-08-07T06:53:13.000Z</time>
      </trkpt>
      <trkpt lat="48.56105" lon="-4.35822">
        <ele>66.599998474121</ele>
        <time>2022-08-07T06:53:14.000Z</time>
      </trkpt>
      <trkpt lat="48.56109" lon="-4.35822">
        <ele>66.599998474121</ele>
        <time>2022-08-07T06:53:15.000Z</time>
      </trkpt>
      <trkpt lat="48.56114" lon="-4.35823">
        <ele>66.599998474121</ele>
        <time>2022-08-07T06:53:16.000Z</time>
      </trkpt>
      <trkpt lat="48.56118" lon="-4.35823">
        <ele>66.800003051758</ele>
        <time>2022-08-07T06:53:17.000Z</time>
      </trkpt>
      <trkpt lat="48.56122" lon="-4.35824">
        <ele>66.800003051758</ele>
        <time>2022-08-07T06:53:18.000Z</time>
      </trkpt>
      <trkpt lat="48.56126" lon="-4.35824">
        <ele>66.800003051758</ele>
        <time>2022-08-07T06:53:19.000Z</time>
      </trkpt>
      <trkpt lat="48.56131" lon="-4.35824">
        <ele>67</ele>
        <time>2022-08-07T06:53:20.000Z</time>
      </trkpt>
      <trkpt lat="48.56135" lon="-4.35824">
        <ele>67</ele>
        <time>2022-08-07T06:53:21.000Z</time>
      </trkpt>
      <trkpt lat="48.56139" lon="-4.35823">
        <ele>67</ele>
        <time>2022-08-07T06:53:22.000Z</time>
      </trkpt>
      <trkpt lat="48.56143" lon="-4.35823">
        <ele>67</ele>
        <time>2022-08-07T06:53:23.000Z</time>
      </trkpt>
      <trkpt lat="48.56147" lon="-4.35823">
        <ele>67.199996948242</ele>
        <time>2022-08-07T06:53:24.000Z</time>
      </trkpt>
      <trkpt lat="48.56151" lon="-4.35823">
        <ele>67.199996948242</ele>
        <time>2022-08-07T06:53:25.000Z</time>
      </trkpt>
      <trkpt lat="48.56156" lon="-4.35823">
        <ele>67.199996948242</ele>
        <time>2022-08-07T06:53:26.000Z</time>
      </trkpt>
      <trkpt lat="48.5616" lon="-4.35824">
        <ele>67.400001525879</ele>
        <time>2022-08-07T06:53:27.000Z</time>
      </trkpt>
      <trkpt lat="48.56165" lon="-4.35824">
        <ele>67.400001525879</ele>
        <time>2022-08-07T06:53:28.000Z</time>
      </trkpt>
      <trkpt lat="48.56169" lon="-4.35824">
        <ele>67.400001525879</ele>
        <time>2022-08-07T06:53:29.000Z</time>
      </trkpt>
      <trkpt lat="48.56173" lon="-4.35824">
        <ele>67.400001525879</ele>
        <time>2022-08-07T06:53:30.000Z</time>
      </trkpt>
      <trkpt lat="48.56178" lon="-4.35824">
        <ele>67.400001525879</ele>
        <time>2022-08-07T06:53:31.000Z</time>
      </trkpt>
      <trkpt lat="48.56182" lon="-4.35824">
        <ele>67.599998474121</ele>
        <time>2022-08-07T06:53:32.000Z</time>
      </trkpt>
      <trkpt lat="48.56186" lon="-4.35824">
        <ele>67.599998474121</ele>
        <time>2022-08-07T06:53:33.000Z</time>
      </trkpt>
      <trkpt lat="48.5619" lon="-4.35824">
        <ele>67.599998474121</ele>
        <time>2022-08-07T06:53:34.000Z</time>
      </trkpt>
      <trkpt lat="48.56195" lon="-4.35825">
        <ele>67.599998474121</ele>
        <time>2022-08-07T06:53:35.000Z</time>
      </trkpt>
      <trkpt lat="48.56199" lon="-4.35825">
        <ele>67.800003051758</ele>
        <time>2022-08-07T06:53:36.000Z</time>
      </trkpt>
      <trkpt lat="48.56203" lon="-4.35825">
        <ele>67.800003051758</ele>
        <time>2022-08-07T06:53:37.000Z</time>
      </trkpt>
      <trkpt lat="48.56208" lon="-4.35825">
        <ele>68</ele>
        <time>2022-08-07T06:53:38.000Z</time>
      </trkpt>
      <trkpt lat="48.56212" lon="-4.35824">
        <ele>68</ele>
        <time>2022-08-07T06:53:39.000Z</time>
      </trkpt>
      <trkpt lat="48.56216" lon="-4.35824">
        <ele>68</ele>
        <time>2022-08-07T06:53:40.000Z</time>
      </trkpt>
      <trkpt lat="48.56221" lon="-4.35824">
        <ele>68.199996948242</ele>
        <time>2022-08-07T06:53:41.000Z</time>
      </trkpt>
      <trkpt lat="48.56225" lon="-4.35824">
        <ele>68.199996948242</ele>
        <time>2022-08-07T06:53:42.000Z</time>
      </trkpt>
      <trkpt lat="48.5623" lon="-4.35824">
        <ele>68.199996948242</ele>
        <time>2022-08-07T06:53:43.000Z</time>
      </trkpt>
      <trkpt lat="48.56234" lon="-4.35824">
        <ele>68.199996948242</ele>
        <time>2022-08-07T06:53:44.000Z</time>
      </trkpt>
      <trkpt lat="48.56239" lon="-4.35824">
        <ele>68.199996948242</ele>
        <time>2022-08-07T06:53:45.000Z</time>
      </trkpt>
      <trkpt lat="48.56243" lon="-4.35824">
        <ele>68.199996948242</ele>
        <time>2022-08-07T06:53:46.000Z</time>
      </trkpt>
      <trkpt lat="48.56248" lon="-4.35824">
        <ele>68.199996948242</ele>
        <time>2022-08-07T06:53:47.000Z</time>
      </trkpt>
      <trkpt lat="48.56252" lon="-4.35824">
        <ele>68.400001525879</ele>
        <time>2022-08-07T06:53:48.000Z</time>
      </trkpt>
      <trkpt lat="48.56256" lon="-4.35824">
        <ele>68.400001525879</ele>
        <time>2022-08-07T06:53:49.000Z</time>
      </trkpt>
      <trkpt lat="48.56261" lon="-4.35824">
        <ele>68.599998474121</ele>
        <time>2022-08-07T06:53:50.000Z</time>
      </trkpt>
      <trkpt lat="48.56266" lon="-4.35824">
        <ele>68.599998474121</ele>
        <time>2022-08-07T06:53:51.000Z</time>
      </trkpt>
      <trkpt lat="48.5627" lon="-4.35824">
        <ele>68.800003051758</ele>
        <time>2022-08-07T06:53:52.000Z</time>
      </trkpt>
      <trkpt lat="48.56274" lon="-4.35824">
        <ele>68.800003051758</ele>
        <time>2022-08-07T06:53:53.000Z</time>
      </trkpt>
      <trkpt lat="48.56279" lon="-4.35823">
        <ele>68.800003051758</ele>
        <time>2022-08-07T06:53:54.000Z</time>
      </trkpt>
      <trkpt lat="48.56283" lon="-4.35822">
        <ele>68.800003051758</ele>
        <time>2022-08-07T06:53:55.000Z</time>
      </trkpt>
      <trkpt lat="48.56288" lon="-4.35821">
        <ele>68.800003051758</ele>
        <time>2022-08-07T06:53:56.000Z</time>
      </trkpt>
      <trkpt lat="48.56292" lon="-4.3582">
        <ele>68.800003051758</ele>
        <time>2022-08-07T06:53:57.000Z</time>
      </trkpt>
      <trkpt lat="48.56296" lon="-4.35819">
        <ele>69</ele>
        <time>2022-08-07T06:53:58.000Z</time>
      </trkpt>
      <trkpt lat="48.56301" lon="-4.35818">
        <ele>69</ele>
        <time>2022-08-07T06:53:59.000Z</time>
      </trkpt>
      <trkpt lat="48.56305" lon="-4.35816">
        <ele>69</ele>
        <time>2022-08-07T06:54:00.000Z</time>
      </trkpt>
      <trkpt lat="48.5631" lon="-4.35814">
        <ele>69</ele>
        <time>2022-08-07T06:54:01.000Z</time>
      </trkpt>
      <trkpt lat="48.56314" lon="-4.35812">
        <ele>69</ele>
        <time>2022-08-07T06:54:02.000Z</time>
      </trkpt>
      <trkpt lat="48.56319" lon="-4.3581">
        <ele>69</ele>
        <time>2022-08-07T06:54:03.000Z</time>
      </trkpt>
      <trkpt lat="48.56324" lon="-4.35808">
        <ele>69</ele>
        <time>2022-08-07T06:54:04.000Z</time>
      </trkpt>
      <trkpt lat="48.56328" lon="-4.35806">
        <ele>69</ele>
        <time>2022-08-07T06:54:05.000Z</time>
      </trkpt>
      <trkpt lat="48.56333" lon="-4.35804">
        <ele>69</ele>
        <time>2022-08-07T06:54:06.000Z</time>
      </trkpt>
      <trkpt lat="48.56337" lon="-4.35802">
        <ele>69</ele>
        <time>2022-08-07T06:54:07.000Z</time>
      </trkpt>
      <trkpt lat="48.56342" lon="-4.358">
        <ele>69</ele>
        <time>2022-08-07T06:54:08.000Z</time>
      </trkpt>
      <trkpt lat="48.56346" lon="-4.35797">
        <ele>69</ele>
        <time>2022-08-07T06:54:09.000Z</time>
      </trkpt>
      <trkpt lat="48.56351" lon="-4.35795">
        <ele>69</ele>
        <time>2022-08-07T06:54:10.000Z</time>
      </trkpt>
      <trkpt lat="48.56355" lon="-4.35793">
        <ele>69</ele>
        <time>2022-08-07T06:54:11.000Z</time>
      </trkpt>
      <trkpt lat="48.56359" lon="-4.3579">
        <ele>68.800003051758</ele>
        <time>2022-08-07T06:54:12.000Z</time>
      </trkpt>
      <trkpt lat="48.56364" lon="-4.35788">
        <ele>68.800003051758</ele>
        <time>2022-08-07T06:54:13.000Z</time>
      </trkpt>
      <trkpt lat="48.56368" lon="-4.35786">
        <ele>68.800003051758</ele>
        <time>2022-08-07T06:54:14.000Z</time>
      </trkpt>
      <trkpt lat="48.56373" lon="-4.35784">
        <ele>68.800003051758</ele>
        <time>2022-08-07T06:54:15.000Z</time>
      </trkpt>
      <trkpt lat="48.56377" lon="-4.35782">
        <ele>68.599998474121</ele>
        <time>2022-08-07T06:54:16.000Z</time>
      </trkpt>
      <trkpt lat="48.56382" lon="-4.3578">
        <ele>68.599998474121</ele>
        <time>2022-08-07T06:54:17.000Z</time>
      </trkpt>
      <trkpt lat="48.56386" lon="-4.35778">
        <ele>68.599998474121</ele>
        <time>2022-08-07T06:54:18.000Z</time>
      </trkpt>
      <trkpt lat="48.56391" lon="-4.35775">
        <ele>68.599998474121</ele>
        <time>2022-08-07T06:54:19.000Z</time>
      </trkpt>
      <trkpt lat="48.56395" lon="-4.35773">
        <ele>68.599998474121</ele>
        <time>2022-08-07T06:54:20.000Z</time>
      </trkpt>
      <trkpt lat="48.564" lon="-4.35771">
        <ele>68.400001525879</ele>
        <time>2022-08-07T06:54:21.000Z</time>
      </trkpt>
      <trkpt lat="48.56405" lon="-4.35769">
        <ele>68.400001525879</ele>
        <time>2022-08-07T06:54:22.000Z</time>
      </trkpt>
      <trkpt lat="48.56409" lon="-4.35766">
        <ele>68.400001525879</ele>
        <time>2022-08-07T06:54:23.000Z</time>
      </trkpt>
      <trkpt lat="48.56414" lon="-4.35764">
        <ele>68.400001525879</ele>
        <time>2022-08-07T06:54:24.000Z</time>
      </trkpt>
      <trkpt lat="48.56418" lon="-4.35761">
        <ele>68.400001525879</ele>
        <time>2022-08-07T06:54:25.000Z</time>
      </trkpt>
      <trkpt lat="48.56422" lon="-4.35758">
        <ele>68.199996948242</ele>
        <time>2022-08-07T06:54:26.000Z</time>
      </trkpt>
      <trkpt lat="48.56427" lon="-4.35755">
        <ele>68.199996948242</ele>
        <time>2022-08-07T06:54:27.000Z</time>
      </trkpt>
      <trkpt lat="48.56432" lon="-4.35753">
        <ele>68.199996948242</ele>
        <time>2022-08-07T06:54:28.000Z</time>
      </trkpt>
      <trkpt lat="48.56436" lon="-4.35749">
        <ele>68.199996948242</ele>
        <time>2022-08-07T06:54:29.000Z</time>
      </trkpt>
      <trkpt lat="48.56441" lon="-4.35746">
        <ele>68</ele>
        <time>2022-08-07T06:54:30.000Z</time>
      </trkpt>
      <trkpt lat="48.56445" lon="-4.35743">
        <ele>68</ele>
        <time>2022-08-07T06:54:31.000Z</time>
      </trkpt>
      <trkpt lat="48.5645" lon="-4.3574">
        <ele>68</ele>
        <time>2022-08-07T06:54:32.000Z</time>
      </trkpt>
      <trkpt lat="48.56454" lon="-4.35737">
        <ele>68</ele>
        <time>2022-08-07T06:54:33.000Z</time>
      </trkpt>
      <trkpt lat="48.56458" lon="-4.35734">
        <ele>67.800003051758</ele>
        <time>2022-08-07T06:54:34.000Z</time>
      </trkpt>
      <trkpt lat="48.56462" lon="-4.3573">
        <ele>67.800003051758</ele>
        <time>2022-08-07T06:54:35.000Z</time>
      </trkpt>
      <trkpt lat="48.56467" lon="-4.35727">
        <ele>67.800003051758</ele>
        <time>2022-08-07T06:54:36.000Z</time>
      </trkpt>
      <trkpt lat="48.56471" lon="-4.35723">
        <ele>67.800003051758</ele>
        <time>2022-08-07T06:54:37.000Z</time>
      </trkpt>
      <trkpt lat="48.56475" lon="-4.3572">
        <ele>67.800003051758</ele>
        <time>2022-08-07T06:54:38.000Z</time>
      </trkpt>
      <trkpt lat="48.5648" lon="-4.35716">
        <ele>67.800003051758</ele>
        <time>2022-08-07T06:54:39.000Z</time>
      </trkpt>
      <trkpt lat="48.56484" lon="-4.35713">
        <ele>67.800003051758</ele>
        <time>2022-08-07T06:54:40.000Z</time>
      </trkpt>
      <trkpt lat="48.56488" lon="-4.3571">
        <ele>67.599998474121</ele>
        <time>2022-08-07T06:54:41.000Z</time>
      </trkpt>
      <trkpt lat="48.56492" lon="-4.35706">
        <ele>67.599998474121</ele>
        <time>2022-08-07T06:54:42.000Z</time>
      </trkpt>
      <trkpt lat="48.56497" lon="-4.35703">
        <ele>67.599998474121</ele>
        <time>2022-08-07T06:54:43.000Z</time>
      </trkpt>
      <trkpt lat="48.56501" lon="-4.35699">
        <ele>67.599998474121</ele>
        <time>2022-08-07T06:54:44.000Z</time>
      </trkpt>
      <trkpt lat="48.56505" lon="-4.35696">
        <ele>67.599998474121</ele>
        <time>2022-08-07T06:54:45.000Z</time>
      </trkpt>
      <trkpt lat="48.56509" lon="-4.35693">
        <ele>67.599998474121</ele>
        <time>2022-08-07T06:54:46.000Z</time>
      </trkpt>
      <trkpt lat="48.56513" lon="-4.35689">
        <ele>67.599998474121</ele>
        <time>2022-08-07T06:54:47.000Z</time>
      </trkpt>
      <trkpt lat="48.56517" lon="-4.35686">
        <ele>67.599998474121</ele>
        <time>2022-08-07T06:54:48.000Z</time>
      </trkpt>
      <trkpt lat="48.56522" lon="-4.35683">
        <ele>67.599998474121</ele>
        <time>2022-08-07T06:54:49.000Z</time>
      </trkpt>
      <trkpt lat="48.56525" lon="-4.3568">
        <ele>67.800003051758</ele>
        <time>2022-08-07T06:54:50.000Z</time>
      </trkpt>
      <trkpt lat="48.56529" lon="-4.35677">
        <ele>67.800003051758</ele>
        <time>2022-08-07T06:54:51.000Z</time>
      </trkpt>
      <trkpt lat="48.56534" lon="-4.35674">
        <ele>67.800003051758</ele>
        <time>2022-08-07T06:54:52.000Z</time>
      </trkpt>
      <trkpt lat="48.56538" lon="-4.35671">
        <ele>67.800003051758</ele>
        <time>2022-08-07T06:54:53.000Z</time>
      </trkpt>
      <trkpt lat="48.56541" lon="-4.35667">
        <ele>68</ele>
        <time>2022-08-07T06:54:54.000Z</time>
      </trkpt>
      <trkpt lat="48.56545" lon="-4.35664">
        <ele>68</ele>
        <time>2022-08-07T06:54:55.000Z</time>
      </trkpt>
      <trkpt lat="48.56549" lon="-4.35661">
        <ele>68</ele>
        <time>2022-08-07T06:54:56.000Z</time>
      </trkpt>
      <trkpt lat="48.56552" lon="-4.35658">
        <ele>68</ele>
        <time>2022-08-07T06:54:57.000Z</time>
      </trkpt>
      <trkpt lat="48.56556" lon="-4.35655">
        <ele>68</ele>
        <time>2022-08-07T06:54:58.000Z</time>
      </trkpt>
      <trkpt lat="48.5656" lon="-4.35652">
        <ele>68</ele>
        <time>2022-08-07T06:54:59.000Z</time>
      </trkpt>
      <trkpt lat="48.56564" lon="-4.35649">
        <ele>68.199996948242</ele>
        <time>2022-08-07T06:55:00.000Z</time>
      </trkpt>
      <trkpt lat="48.56568" lon="-4.35646">
        <ele>68.199996948242</ele>
        <time>2022-08-07T06:55:01.000Z</time>
      </trkpt>
      <trkpt lat="48.56571" lon="-4.35643">
        <ele>68.199996948242</ele>
        <time>2022-08-07T06:55:02.000Z</time>
      </trkpt>
      <trkpt lat="48.56575" lon="-4.3564">
        <ele>68.199996948242</ele>
        <time>2022-08-07T06:55:03.000Z</time>
      </trkpt>
      <trkpt lat="48.56579" lon="-4.35636">
        <ele>68.400001525879</ele>
        <time>2022-08-07T06:55:04.000Z</time>
      </trkpt>
      <trkpt lat="48.56583" lon="-4.35633">
        <ele>68.400001525879</ele>
        <time>2022-08-07T06:55:05.000Z</time>
      </trkpt>
      <trkpt lat="48.56586" lon="-4.3563">
        <ele>68.400001525879</ele>
        <time>2022-08-07T06:55:06.000Z</time>
      </trkpt>
      <trkpt lat="48.5659" lon="-4.35626">
        <ele>68.400001525879</ele>
        <time>2022-08-07T06:55:07.000Z</time>
      </trkpt>
      <trkpt lat="48.56593" lon="-4.35623">
        <ele>68.400001525879</ele>
        <time>2022-08-07T06:55:08.000Z</time>
      </trkpt>
      <trkpt lat="48.56597" lon="-4.35619">
        <ele>68.599998474121</ele>
        <time>2022-08-07T06:55:09.000Z</time>
      </trkpt>
      <trkpt lat="48.566" lon="-4.35616">
        <ele>68.599998474121</ele>
        <time>2022-08-07T06:55:10.000Z</time>
      </trkpt>
      <trkpt lat="48.56604" lon="-4.35613">
        <ele>68.800003051758</ele>
        <time>2022-08-07T06:55:11.000Z</time>
      </trkpt>
      <trkpt lat="48.56607" lon="-4.3561">
        <ele>69</ele>
        <time>2022-08-07T06:55:12.000Z</time>
      </trkpt>
      <trkpt lat="48.56611" lon="-4.35606">
        <ele>69</ele>
        <time>2022-08-07T06:55:13.000Z</time>
      </trkpt>
      <trkpt lat="48.56614" lon="-4.35603">
        <ele>69.199996948242</ele>
        <time>2022-08-07T06:55:14.000Z</time>
      </trkpt>
      <trkpt lat="48.56618" lon="-4.356">
        <ele>69.199996948242</ele>
        <time>2022-08-07T06:55:15.000Z</time>
      </trkpt>
      <trkpt lat="48.56622" lon="-4.35598">
        <ele>69.400001525879</ele>
        <time>2022-08-07T06:55:16.000Z</time>
      </trkpt>
      <trkpt lat="48.56625" lon="-4.35595">
        <ele>69.400001525879</ele>
        <time>2022-08-07T06:55:17.000Z</time>
      </trkpt>
      <trkpt lat="48.56629" lon="-4.35592">
        <ele>69.400001525879</ele>
        <time>2022-08-07T06:55:18.000Z</time>
      </trkpt>
      <trkpt lat="48.56632" lon="-4.35589">
        <ele>69.599998474121</ele>
        <time>2022-08-07T06:55:19.000Z</time>
      </trkpt>
      <trkpt lat="48.56636" lon="-4.35586">
        <ele>69.800003051758</ele>
        <time>2022-08-07T06:55:20.000Z</time>
      </trkpt>
      <trkpt lat="48.5664" lon="-4.35583">
        <ele>69.800003051758</ele>
        <time>2022-08-07T06:55:21.000Z</time>
      </trkpt>
      <trkpt lat="48.56644" lon="-4.3558">
        <ele>70</ele>
        <time>2022-08-07T06:55:22.000Z</time>
      </trkpt>
      <trkpt lat="48.56647" lon="-4.35577">
        <ele>70.199996948242</ele>
        <time>2022-08-07T06:55:23.000Z</time>
      </trkpt>
      <trkpt lat="48.56651" lon="-4.35574">
        <ele>70.199996948242</ele>
        <time>2022-08-07T06:55:24.000Z</time>
      </trkpt>
      <trkpt lat="48.56654" lon="-4.35571">
        <ele>70.199996948242</ele>
        <time>2022-08-07T06:55:25.000Z</time>
      </trkpt>
      <trkpt lat="48.56658" lon="-4.35568">
        <ele>70.199996948242</ele>
        <time>2022-08-07T06:55:26.000Z</time>
      </trkpt>
      <trkpt lat="48.56661" lon="-4.35565">
        <ele>70.400001525879</ele>
        <time>2022-08-07T06:55:27.000Z</time>
      </trkpt>
      <trkpt lat="48.56665" lon="-4.35562">
        <ele>70.400001525879</ele>
        <time>2022-08-07T06:55:28.000Z</time>
      </trkpt>
      <trkpt lat="48.56668" lon="-4.35559">
        <ele>70.400001525879</ele>
        <time>2022-08-07T06:55:29.000Z</time>
      </trkpt>
      <trkpt lat="48.56671" lon="-4.35557">
        <ele>70.400001525879</ele>
        <time>2022-08-07T06:55:30.000Z</time>
      </trkpt>
      <trkpt lat="48.56675" lon="-4.35554">
        <ele>70.599998474121</ele>
        <time>2022-08-07T06:55:31.000Z</time>
      </trkpt>
      <trkpt lat="48.56678" lon="-4.35551">
        <ele>70.599998474121</ele>
        <time>2022-08-07T06:55:32.000Z</time>
      </trkpt>
      <trkpt lat="48.56681" lon="-4.35548">
        <ele>70.599998474121</ele>
        <time>2022-08-07T06:55:33.000Z</time>
      </trkpt>
      <trkpt lat="48.56685" lon="-4.35545">
        <ele>70.599998474121</ele>
        <time>2022-08-07T06:55:34.000Z</time>
      </trkpt>
      <trkpt lat="48.56688" lon="-4.35543">
        <ele>70.599998474121</ele>
        <time>2022-08-07T06:55:35.000Z</time>
      </trkpt>
      <trkpt lat="48.56691" lon="-4.3554">
        <ele>70.599998474121</ele>
        <time>2022-08-07T06:55:36.000Z</time>
      </trkpt>
      <trkpt lat="48.56694" lon="-4.35538">
        <ele>70.599998474121</ele>
        <time>2022-08-07T06:55:37.000Z</time>
      </trkpt>
      <trkpt lat="48.56696" lon="-4.35535">
        <ele>70.599998474121</ele>
        <time>2022-08-07T06:55:38.000Z</time>
      </trkpt>
      <trkpt lat="48.56698" lon="-4.35533">
        <ele>70.599998474121</ele>
        <time>2022-08-07T06:55:39.000Z</time>
      </trkpt>
      <trkpt lat="48.567" lon="-4.35532">
        <ele>70.400001525879</ele>
        <time>2022-08-07T06:55:40.000Z</time>
      </trkpt>
      <trkpt lat="48.56701" lon="-4.35531">
        <ele>70.400001525879</ele>
        <time>2022-08-07T06:55:41.000Z</time>
      </trkpt>
      <trkpt lat="48.56702" lon="-4.3553">
        <ele>70.400001525879</ele>
        <time>2022-08-07T06:55:42.000Z</time>
      </trkpt>
      <trkpt lat="48.56703" lon="-4.3553">
        <ele>70.199996948242</ele>
        <time>2022-08-07T06:55:43.000Z</time>
      </trkpt>
      <trkpt lat="48.56704" lon="-4.35531">
        <ele>70</ele>
        <time>2022-08-07T06:55:45.000Z</time>
      </trkpt>
      <trkpt lat="48.56704" lon="-4.35533">
        <ele>69.800003051758</ele>
        <time>2022-08-07T06:55:46.000Z</time>
      </trkpt>
      <trkpt lat="48.56705" lon="-4.35535">
        <ele>69.800003051758</ele>
        <time>2022-08-07T06:55:47.000Z</time>
      </trkpt>
      <trkpt lat="48.56707" lon="-4.35536">
        <ele>69.599998474121</ele>
        <time>2022-08-07T06:55:48.000Z</time>
      </trkpt>
      <trkpt lat="48.56708" lon="-4.35537">
        <ele>69.599998474121</ele>
        <time>2022-08-07T06:55:49.000Z</time>
      </trkpt>
      <trkpt lat="48.56709" lon="-4.35537">
        <ele>69.599998474121</ele>
        <time>2022-08-07T06:55:50.000Z</time>
      </trkpt>
      <trkpt lat="48.56711" lon="-4.35539">
        <ele>69.599998474121</ele>
        <time>2022-08-07T06:55:51.000Z</time>
      </trkpt>
      <trkpt lat="48.56714" lon="-4.35541">
        <ele>69.599998474121</ele>
        <time>2022-08-07T06:55:52.000Z</time>
      </trkpt>
      <trkpt lat="48.56716" lon="-4.35545">
        <ele>69.599998474121</ele>
        <time>2022-08-07T06:55:53.000Z</time>
      </trkpt>
      <trkpt lat="48.56717" lon="-4.35548">
        <ele>69.599998474121</ele>
        <time>2022-08-07T06:55:54.000Z</time>
      </trkpt>
      <trkpt lat="48.5672" lon="-4.35553">
        <ele>69.599998474121</ele>
        <time>2022-08-07T06:55:55.000Z</time>
      </trkpt>
      <trkpt lat="48.56722" lon="-4.35558">
        <ele>69.599998474121</ele>
        <time>2022-08-07T06:55:56.000Z</time>
      </trkpt>
      <trkpt lat="48.56725" lon="-4.35562">
        <ele>69.599998474121</ele>
        <time>2022-08-07T06:55:57.000Z</time>
      </trkpt>
      <trkpt lat="48.56727" lon="-4.35567">
        <ele>69.599998474121</ele>
        <time>2022-08-07T06:55:58.000Z</time>
      </trkpt>
      <trkpt lat="48.5673" lon="-4.35573">
        <ele>69.800003051758</ele>
        <time>2022-08-07T06:55:59.000Z</time>
      </trkpt>
      <trkpt lat="48.56733" lon="-4.35578">
        <ele>69.800003051758</ele>
        <time>2022-08-07T06:56:00.000Z</time>
      </trkpt>
      <trkpt lat="48.56735" lon="-4.35584">
        <ele>70</ele>
        <time>2022-08-07T06:56:01.000Z</time>
      </trkpt>
      <trkpt lat="48.56738" lon="-4.35589">
        <ele>70</ele>
        <time>2022-08-07T06:56:02.000Z</time>
      </trkpt>
      <trkpt lat="48.5674" lon="-4.35595">
        <ele>70</ele>
        <time>2022-08-07T06:56:03.000Z</time>
      </trkpt>
      <trkpt lat="48.56743" lon="-4.356">
        <ele>70</ele>
        <time>2022-08-07T06:56:04.000Z</time>
      </trkpt>
      <trkpt lat="48.56746" lon="-4.35606">
        <ele>70.199996948242</ele>
        <time>2022-08-07T06:56:05.000Z</time>
      </trkpt>
      <trkpt lat="48.56749" lon="-4.35612">
        <ele>70.199996948242</ele>
        <time>2022-08-07T06:56:06.000Z</time>
      </trkpt>
      <trkpt lat="48.56751" lon="-4.35617">
        <ele>70.199996948242</ele>
        <time>2022-08-07T06:56:07.000Z</time>
      </trkpt>
      <trkpt lat="48.56754" lon="-4.35623">
        <ele>70.199996948242</ele>
        <time>2022-08-07T06:56:08.000Z</time>
      </trkpt>
      <trkpt lat="48.56757" lon="-4.35629">
        <ele>70</ele>
        <time>2022-08-07T06:56:09.000Z</time>
      </trkpt>
      <trkpt lat="48.56759" lon="-4.35634">
        <ele>70</ele>
        <time>2022-08-07T06:56:10.000Z</time>
      </trkpt>
      <trkpt lat="48.56762" lon="-4.3564">
        <ele>70</ele>
        <time>2022-08-07T06:56:11.000Z</time>
      </trkpt>
      <trkpt lat="48.56765" lon="-4.35646">
        <ele>70</ele>
        <time>2022-08-07T06:56:12.000Z</time>
      </trkpt>
      <trkpt lat="48.56766" lon="-4.3565">
        <ele>70.199996948242</ele>
        <time>2022-08-07T06:56:13.000Z</time>
      </trkpt>
      <trkpt lat="48.56769" lon="-4.35656">
        <ele>70</ele>
        <time>2022-08-07T06:56:14.000Z</time>
      </trkpt>
      <trkpt lat="48.56772" lon="-4.35662">
        <ele>69.800003051758</ele>
        <time>2022-08-07T06:56:15.000Z</time>
      </trkpt>
      <trkpt lat="48.56775" lon="-4.35667">
        <ele>69.800003051758</ele>
        <time>2022-08-07T06:56:16.000Z</time>
      </trkpt>
      <trkpt lat="48.56778" lon="-4.35673">
        <ele>69.800003051758</ele>
        <time>2022-08-07T06:56:17.000Z</time>
      </trkpt>
      <trkpt lat="48.5678" lon="-4.35678">
        <ele>69.800003051758</ele>
        <time>2022-08-07T06:56:18.000Z</time>
      </trkpt>
      <trkpt lat="48.56783" lon="-4.35684">
        <ele>69.800003051758</ele>
        <time>2022-08-07T06:56:19.000Z</time>
      </trkpt>
      <trkpt lat="48.56785" lon="-4.35689">
        <ele>70</ele>
        <time>2022-08-07T06:56:20.000Z</time>
      </trkpt>
      <trkpt lat="48.56788" lon="-4.35694">
        <ele>70</ele>
        <time>2022-08-07T06:56:21.000Z</time>
      </trkpt>
      <trkpt lat="48.56791" lon="-4.357">
        <ele>70</ele>
        <time>2022-08-07T06:56:22.000Z</time>
      </trkpt>
      <trkpt lat="48.56793" lon="-4.35705">
        <ele>70</ele>
        <time>2022-08-07T06:56:23.000Z</time>
      </trkpt>
      <trkpt lat="48.56796" lon="-4.35711">
        <ele>70</ele>
        <time>2022-08-07T06:56:24.000Z</time>
      </trkpt>
      <trkpt lat="48.56799" lon="-4.35716">
        <ele>69.800003051758</ele>
        <time>2022-08-07T06:56:25.000Z</time>
      </trkpt>
      <trkpt lat="48.56802" lon="-4.35721">
        <ele>69.800003051758</ele>
        <time>2022-08-07T06:56:26.000Z</time>
      </trkpt>
      <trkpt lat="48.56804" lon="-4.35727">
        <ele>70</ele>
        <time>2022-08-07T06:56:27.000Z</time>
      </trkpt>
      <trkpt lat="48.56807" lon="-4.35732">
        <ele>70</ele>
        <time>2022-08-07T06:56:28.000Z</time>
      </trkpt>
      <trkpt lat="48.5681" lon="-4.35737">
        <ele>70</ele>
        <time>2022-08-07T06:56:29.000Z</time>
      </trkpt>
      <trkpt lat="48.56813" lon="-4.3574">
        <ele>70</ele>
        <time>2022-08-07T06:56:30.000Z</time>
      </trkpt>
      <trkpt lat="48.56817" lon="-4.35741">
        <ele>70</ele>
        <time>2022-08-07T06:56:31.000Z</time>
      </trkpt>
      <trkpt lat="48.56821" lon="-4.35742">
        <ele>70</ele>
        <time>2022-08-07T06:56:32.000Z</time>
      </trkpt>
      <trkpt lat="48.56824" lon="-4.3574">
        <ele>69.800003051758</ele>
        <time>2022-08-07T06:56:33.000Z</time>
      </trkpt>
      <trkpt lat="48.56828" lon="-4.35737">
        <ele>69.800003051758</ele>
        <time>2022-08-07T06:56:34.000Z</time>
      </trkpt>
      <trkpt lat="48.56831" lon="-4.35734">
        <ele>69.800003051758</ele>
        <time>2022-08-07T06:56:35.000Z</time>
      </trkpt>
      <trkpt lat="48.56836" lon="-4.3573">
        <ele>70</ele>
        <time>2022-08-07T06:56:36.000Z</time>
      </trkpt>
      <trkpt lat="48.5684" lon="-4.35726">
        <ele>69.800003051758</ele>
        <time>2022-08-07T06:56:37.000Z</time>
      </trkpt>
      <trkpt lat="48.56844" lon="-4.35721">
        <ele>69.599998474121</ele>
        <time>2022-08-07T06:56:38.000Z</time>
      </trkpt>
      <trkpt lat="48.56847" lon="-4.35715">
        <ele>69.599998474121</ele>
        <time>2022-08-07T06:56:39.000Z</time>
      </trkpt>
      <trkpt lat="48.5685" lon="-4.35709">
        <ele>69.599998474121</ele>
        <time>2022-08-07T06:56:40.000Z</time>
      </trkpt>
      <trkpt lat="48.56852" lon="-4.35702">
        <ele>69.599998474121</ele>
        <time>2022-08-07T06:56:41.000Z</time>
      </trkpt>
      <trkpt lat="48.56854" lon="-4.35695">
        <ele>69.599998474121</ele>
        <time>2022-08-07T06:56:42.000Z</time>
      </trkpt>
      <trkpt lat="48.56855" lon="-4.35688">
        <ele>69.599998474121</ele>
        <time>2022-08-07T06:56:43.000Z</time>
      </trkpt>
      <trkpt lat="48.56856" lon="-4.35681">
        <ele>69.400001525879</ele>
        <time>2022-08-07T06:56:44.000Z</time>
      </trkpt>
      <trkpt lat="48.56857" lon="-4.35674">
        <ele>69.400001525879</ele>
        <time>2022-08-07T06:56:45.000Z</time>
      </trkpt>
      <trkpt lat="48.56858" lon="-4.35666">
        <ele>69.400001525879</ele>
        <time>2022-08-07T06:56:46.000Z</time>
      </trkpt>
      <trkpt lat="48.5686" lon="-4.35659">
        <ele>69.400001525879</ele>
        <time>2022-08-07T06:56:47.000Z</time>
      </trkpt>
      <trkpt lat="48.56861" lon="-4.35651">
        <ele>69.400001525879</ele>
        <time>2022-08-07T06:56:48.000Z</time>
      </trkpt>
      <trkpt lat="48.56862" lon="-4.35644">
        <ele>69.199996948242</ele>
        <time>2022-08-07T06:56:49.000Z</time>
      </trkpt>
      <trkpt lat="48.56862" lon="-4.35636">
        <ele>69.199996948242</ele>
        <time>2022-08-07T06:56:50.000Z</time>
      </trkpt>
      <trkpt lat="48.56862" lon="-4.35629">
        <ele>69.199996948242</ele>
        <time>2022-08-07T06:56:51.000Z</time>
      </trkpt>
      <trkpt lat="48.56862" lon="-4.35621">
        <ele>69</ele>
        <time>2022-08-07T06:56:52.000Z</time>
      </trkpt>
      <trkpt lat="48.56862" lon="-4.35614">
        <ele>69</ele>
        <time>2022-08-07T06:56:53.000Z</time>
      </trkpt>
      <trkpt lat="48.56861" lon="-4.35606">
        <ele>69</ele>
        <time>2022-08-07T06:56:54.000Z</time>
      </trkpt>
      <trkpt lat="48.56861" lon="-4.35599">
        <ele>69</ele>
        <time>2022-08-07T06:56:55.000Z</time>
      </trkpt>
      <trkpt lat="48.56861" lon="-4.35591">
        <ele>69</ele>
        <time>2022-08-07T06:56:56.000Z</time>
      </trkpt>
      <trkpt lat="48.56862" lon="-4.35584">
        <ele>68.800003051758</ele>
        <time>2022-08-07T06:56:57.000Z</time>
      </trkpt>
      <trkpt lat="48.56863" lon="-4.35576">
        <ele>68.800003051758</ele>
        <time>2022-08-07T06:56:58.000Z</time>
      </trkpt>
      <trkpt lat="48.56863" lon="-4.35569">
        <ele>68.800003051758</ele>
        <time>2022-08-07T06:56:59.000Z</time>
      </trkpt>
      <trkpt lat="48.56864" lon="-4.35562">
        <ele>68.800003051758</ele>
        <time>2022-08-07T06:57:00.000Z</time>
      </trkpt>
      <trkpt lat="48.56864" lon="-4.35554">
        <ele>68.800003051758</ele>
        <time>2022-08-07T06:57:01.000Z</time>
      </trkpt>
      <trkpt lat="48.56865" lon="-4.35547">
        <ele>68.800003051758</ele>
        <time>2022-08-07T06:57:02.000Z</time>
      </trkpt>
      <trkpt lat="48.56865" lon="-4.35539">
        <ele>68.800003051758</ele>
        <time>2022-08-07T06:57:03.000Z</time>
      </trkpt>
      <trkpt lat="48.56866" lon="-4.35532">
        <ele>68.800003051758</ele>
        <time>2022-08-07T06:57:04.000Z</time>
      </trkpt>
      <trkpt lat="48.56866" lon="-4.35524">
        <ele>68.800003051758</ele>
        <time>2022-08-07T06:57:05.000Z</time>
      </trkpt>
      <trkpt lat="48.56867" lon="-4.35517">
        <ele>68.800003051758</ele>
        <time>2022-08-07T06:57:06.000Z</time>
      </trkpt>
      <trkpt lat="48.56867" lon="-4.3551">
        <ele>68.599998474121</ele>
        <time>2022-08-07T06:57:07.000Z</time>
      </trkpt>
      <trkpt lat="48.56867" lon="-4.35502">
        <ele>68.599998474121</ele>
        <time>2022-08-07T06:57:08.000Z</time>
      </trkpt>
      <trkpt lat="48.56868" lon="-4.35495">
        <ele>68.599998474121</ele>
        <time>2022-08-07T06:57:09.000Z</time>
      </trkpt>
      <trkpt lat="48.56868" lon="-4.35487">
        <ele>68.599998474121</ele>
        <time>2022-08-07T06:57:10.000Z</time>
      </trkpt>
      <trkpt lat="48.56869" lon="-4.3548">
        <ele>68.599998474121</ele>
        <time>2022-08-07T06:57:11.000Z</time>
      </trkpt>
      <trkpt lat="48.56869" lon="-4.35472">
        <ele>68.599998474121</ele>
        <time>2022-08-07T06:57:12.000Z</time>
      </trkpt>
      <trkpt lat="48.56869" lon="-4.35466">
        <ele>68.599998474121</ele>
        <time>2022-08-07T06:57:13.000Z</time>
      </trkpt>
      <trkpt lat="48.5687" lon="-4.35457">
        <ele>68.400001525879</ele>
        <time>2022-08-07T06:57:14.000Z</time>
      </trkpt>
      <trkpt lat="48.56871" lon="-4.35449">
        <ele>68.400001525879</ele>
        <time>2022-08-07T06:57:15.000Z</time>
      </trkpt>
      <trkpt lat="48.56871" lon="-4.35442">
        <ele>68.400001525879</ele>
        <time>2022-08-07T06:57:16.000Z</time>
      </trkpt>
      <trkpt lat="48.56872" lon="-4.35435">
        <ele>68.400001525879</ele>
        <time>2022-08-07T06:57:17.000Z</time>
      </trkpt>
      <trkpt lat="48.56873" lon="-4.35427">
        <ele>68.400001525879</ele>
        <time>2022-08-07T06:57:18.000Z</time>
      </trkpt>
      <trkpt lat="48.56874" lon="-4.3542">
        <ele>68.400001525879</ele>
        <time>2022-08-07T06:57:19.000Z</time>
      </trkpt>
      <trkpt lat="48.56875" lon="-4.35413">
        <ele>68.400001525879</ele>
        <time>2022-08-07T06:57:20.000Z</time>
      </trkpt>
      <trkpt lat="48.56876" lon="-4.35405">
        <ele>68.400001525879</ele>
        <time>2022-08-07T06:57:21.000Z</time>
      </trkpt>
      <trkpt lat="48.56876" lon="-4.35398">
        <ele>68.400001525879</ele>
        <time>2022-08-07T06:57:22.000Z</time>
      </trkpt>
      <trkpt lat="48.56876" lon="-4.3539">
        <ele>68.199996948242</ele>
        <time>2022-08-07T06:57:23.000Z</time>
      </trkpt>
      <trkpt lat="48.56876" lon="-4.35383">
        <ele>68.199996948242</ele>
        <time>2022-08-07T06:57:24.000Z</time>
      </trkpt>
      <trkpt lat="48.56875" lon="-4.35376">
        <ele>68.199996948242</ele>
        <time>2022-08-07T06:57:25.000Z</time>
      </trkpt>
      <trkpt lat="48.56875" lon="-4.35368">
        <ele>68.400001525879</ele>
        <time>2022-08-07T06:57:26.000Z</time>
      </trkpt>
      <trkpt lat="48.56875" lon="-4.35361">
        <ele>68.400001525879</ele>
        <time>2022-08-07T06:57:27.000Z</time>
      </trkpt>
      <trkpt lat="48.56874" lon="-4.35354">
        <ele>68.400001525879</ele>
        <time>2022-08-07T06:57:28.000Z</time>
      </trkpt>
      <trkpt lat="48.56874" lon="-4.35347">
        <ele>68.400001525879</ele>
        <time>2022-08-07T06:57:29.000Z</time>
      </trkpt>
      <trkpt lat="48.56874" lon="-4.35339">
        <ele>68.400001525879</ele>
        <time>2022-08-07T06:57:30.000Z</time>
      </trkpt>
      <trkpt lat="48.56874" lon="-4.35332">
        <ele>68.400001525879</ele>
        <time>2022-08-07T06:57:31.000Z</time>
      </trkpt>
      <trkpt lat="48.56874" lon="-4.35325">
        <ele>68.400001525879</ele>
        <time>2022-08-07T06:57:32.000Z</time>
      </trkpt>
      <trkpt lat="48.56874" lon="-4.35318">
        <ele>68.400001525879</ele>
        <time>2022-08-07T06:57:33.000Z</time>
      </trkpt>
      <trkpt lat="48.56874" lon="-4.35311">
        <ele>68.599998474121</ele>
        <time>2022-08-07T06:57:34.000Z</time>
      </trkpt>
      <trkpt lat="48.56875" lon="-4.35303">
        <ele>68.599998474121</ele>
        <time>2022-08-07T06:57:35.000Z</time>
      </trkpt>
      <trkpt lat="48.56875" lon="-4.35296">
        <ele>68.599998474121</ele>
        <time>2022-08-07T06:57:36.000Z</time>
      </trkpt>
      <trkpt lat="48.56875" lon="-4.35289">
        <ele>68.599998474121</ele>
        <time>2022-08-07T06:57:37.000Z</time>
      </trkpt>
      <trkpt lat="48.56875" lon="-4.35282">
        <ele>68.599998474121</ele>
        <time>2022-08-07T06:57:38.000Z</time>
      </trkpt>
      <trkpt lat="48.56875" lon="-4.35275">
        <ele>68.599998474121</ele>
        <time>2022-08-07T06:57:39.000Z</time>
      </trkpt>
      <trkpt lat="48.56875" lon="-4.35267">
        <ele>68.599998474121</ele>
        <time>2022-08-07T06:57:40.000Z</time>
      </trkpt>
      <trkpt lat="48.56875" lon="-4.3526">
        <ele>68.599998474121</ele>
        <time>2022-08-07T06:57:41.000Z</time>
      </trkpt>
      <trkpt lat="48.56875" lon="-4.35253">
        <ele>68.599998474121</ele>
        <time>2022-08-07T06:57:42.000Z</time>
      </trkpt>
      <trkpt lat="48.56875" lon="-4.35246">
        <ele>68.599998474121</ele>
        <time>2022-08-07T06:57:43.000Z</time>
      </trkpt>
      <trkpt lat="48.56875" lon="-4.35239">
        <ele>68.599998474121</ele>
        <time>2022-08-07T06:57:44.000Z</time>
      </trkpt>
      <trkpt lat="48.56875" lon="-4.35232">
        <ele>68.599998474121</ele>
        <time>2022-08-07T06:57:45.000Z</time>
      </trkpt>
      <trkpt lat="48.56875" lon="-4.35224">
        <ele>68.599998474121</ele>
        <time>2022-08-07T06:57:46.000Z</time>
      </trkpt>
      <trkpt lat="48.56875" lon="-4.35217">
        <ele>68.599998474121</ele>
        <time>2022-08-07T06:57:47.000Z</time>
      </trkpt>
      <trkpt lat="48.56875" lon="-4.3521">
        <ele>68.599998474121</ele>
        <time>2022-08-07T06:57:48.000Z</time>
      </trkpt>
      <trkpt lat="48.56875" lon="-4.35203">
        <ele>68.599998474121</ele>
        <time>2022-08-07T06:57:49.000Z</time>
      </trkpt>
      <trkpt lat="48.56875" lon="-4.35196">
        <ele>68.599998474121</ele>
        <time>2022-08-07T06:57:50.000Z</time>
      </trkpt>
      <trkpt lat="48.56875" lon="-4.35189">
        <ele>68.599998474121</ele>
        <time>2022-08-07T06:57:51.000Z</time>
      </trkpt>
      <trkpt lat="48.56874" lon="-4.35182">
        <ele>68.599998474121</ele>
        <time>2022-08-07T06:57:52.000Z</time>
      </trkpt>
      <trkpt lat="48.56874" lon="-4.35175">
        <ele>68.800003051758</ele>
        <time>2022-08-07T06:57:53.000Z</time>
      </trkpt>
      <trkpt lat="48.56873" lon="-4.35169">
        <ele>68.800003051758</ele>
        <time>2022-08-07T06:57:54.000Z</time>
      </trkpt>
      <trkpt lat="48.56872" lon="-4.35162">
        <ele>69</ele>
        <time>2022-08-07T06:57:55.000Z</time>
      </trkpt>
      <trkpt lat="48.56872" lon="-4.35155">
        <ele>69</ele>
        <time>2022-08-07T06:57:56.000Z</time>
      </trkpt>
      <trkpt lat="48.56871" lon="-4.35148">
        <ele>69.199996948242</ele>
        <time>2022-08-07T06:57:57.000Z</time>
      </trkpt>
      <trkpt lat="48.5687" lon="-4.35141">
        <ele>69.199996948242</ele>
        <time>2022-08-07T06:57:58.000Z</time>
      </trkpt>
      <trkpt lat="48.5687" lon="-4.35134">
        <ele>69.199996948242</ele>
        <time>2022-08-07T06:57:59.000Z</time>
      </trkpt>
      <trkpt lat="48.56869" lon="-4.35127">
        <ele>69.199996948242</ele>
        <time>2022-08-07T06:58:00.000Z</time>
      </trkpt>
      <trkpt lat="48.56868" lon="-4.35121">
        <ele>69.199996948242</ele>
        <time>2022-08-07T06:58:01.000Z</time>
      </trkpt>
      <trkpt lat="48.56867" lon="-4.35114">
        <ele>69.199996948242</ele>
        <time>2022-08-07T06:58:02.000Z</time>
      </trkpt>
      <trkpt lat="48.56867" lon="-4.35107">
        <ele>69.199996948242</ele>
        <time>2022-08-07T06:58:03.000Z</time>
      </trkpt>
      <trkpt lat="48.56866" lon="-4.35101">
        <ele>69.199996948242</ele>
        <time>2022-08-07T06:58:04.000Z</time>
      </trkpt>
      <trkpt lat="48.56865" lon="-4.35093">
        <ele>69.199996948242</ele>
        <time>2022-08-07T06:58:05.000Z</time>
      </trkpt>
      <trkpt lat="48.56865" lon="-4.35086">
        <ele>69.199996948242</ele>
        <time>2022-08-07T06:58:06.000Z</time>
      </trkpt>
      <trkpt lat="48.56864" lon="-4.35079">
        <ele>69.199996948242</ele>
        <time>2022-08-07T06:58:07.000Z</time>
      </trkpt>
      <trkpt lat="48.56864" lon="-4.35072">
        <ele>69</ele>
        <time>2022-08-07T06:58:08.000Z</time>
      </trkpt>
      <trkpt lat="48.56864" lon="-4.35065">
        <ele>68.800003051758</ele>
        <time>2022-08-07T06:58:09.000Z</time>
      </trkpt>
      <trkpt lat="48.56864" lon="-4.35058">
        <ele>68.800003051758</ele>
        <time>2022-08-07T06:58:10.000Z</time>
      </trkpt>
      <trkpt lat="48.56864" lon="-4.3505">
        <ele>68.800003051758</ele>
        <time>2022-08-07T06:58:11.000Z</time>
      </trkpt>
      <trkpt lat="48.56864" lon="-4.35043">
        <ele>68.800003051758</ele>
        <time>2022-08-07T06:58:12.000Z</time>
      </trkpt>
      <trkpt lat="48.56865" lon="-4.35037">
        <ele>68.800003051758</ele>
        <time>2022-08-07T06:58:13.000Z</time>
      </trkpt>
      <trkpt lat="48.56865" lon="-4.35029">
        <ele>68.800003051758</ele>
        <time>2022-08-07T06:58:14.000Z</time>
      </trkpt>
      <trkpt lat="48.56866" lon="-4.35022">
        <ele>68.800003051758</ele>
        <time>2022-08-07T06:58:15.000Z</time>
      </trkpt>
      <trkpt lat="48.56867" lon="-4.35015">
        <ele>68.800003051758</ele>
        <time>2022-08-07T06:58:16.000Z</time>
      </trkpt>
      <trkpt lat="48.56868" lon="-4.35008">
        <ele>68.800003051758</ele>
        <time>2022-08-07T06:58:17.000Z</time>
      </trkpt>
      <trkpt lat="48.5687" lon="-4.35001">
        <ele>68.800003051758</ele>
        <time>2022-08-07T06:58:18.000Z</time>
      </trkpt>
      <trkpt lat="48.56871" lon="-4.34994">
        <ele>68.800003051758</ele>
        <time>2022-08-07T06:58:19.000Z</time>
      </trkpt>
      <trkpt lat="48.56872" lon="-4.34987">
        <ele>68.800003051758</ele>
        <time>2022-08-07T06:58:20.000Z</time>
      </trkpt>
      <trkpt lat="48.56874" lon="-4.34981">
        <ele>68.800003051758</ele>
        <time>2022-08-07T06:58:21.000Z</time>
      </trkpt>
      <trkpt lat="48.56875" lon="-4.34974">
        <ele>68.800003051758</ele>
        <time>2022-08-07T06:58:22.000Z</time>
      </trkpt>
      <trkpt lat="48.56877" lon="-4.34967">
        <ele>68.800003051758</ele>
        <time>2022-08-07T06:58:23.000Z</time>
      </trkpt>
      <trkpt lat="48.56878" lon="-4.3496">
        <ele>68.800003051758</ele>
        <time>2022-08-07T06:58:24.000Z</time>
      </trkpt>
      <trkpt lat="48.56879" lon="-4.34953">
        <ele>68.800003051758</ele>
        <time>2022-08-07T06:58:25.000Z</time>
      </trkpt>
      <trkpt lat="48.5688" lon="-4.34947">
        <ele>68.800003051758</ele>
        <time>2022-08-07T06:58:26.000Z</time>
      </trkpt>
      <trkpt lat="48.56881" lon="-4.34941">
        <ele>68.800003051758</ele>
        <time>2022-08-07T06:58:27.000Z</time>
      </trkpt>
      <trkpt lat="48.56882" lon="-4.34933">
        <ele>68.800003051758</ele>
        <time>2022-08-07T06:58:28.000Z</time>
      </trkpt>
      <trkpt lat="48.56883" lon="-4.34927">
        <ele>68.800003051758</ele>
        <time>2022-08-07T06:58:29.000Z</time>
      </trkpt>
      <trkpt lat="48.56884" lon="-4.3492">
        <ele>68.800003051758</ele>
        <time>2022-08-07T06:58:30.000Z</time>
      </trkpt>
      <trkpt lat="48.56885" lon="-4.34913">
        <ele>68.800003051758</ele>
        <time>2022-08-07T06:58:31.000Z</time>
      </trkpt>
      <trkpt lat="48.56887" lon="-4.34906">
        <ele>68.800003051758</ele>
        <time>2022-08-07T06:58:32.000Z</time>
      </trkpt>
      <trkpt lat="48.56888" lon="-4.34899">
        <ele>68.800003051758</ele>
        <time>2022-08-07T06:58:33.000Z</time>
      </trkpt>
      <trkpt lat="48.56889" lon="-4.34892">
        <ele>68.800003051758</ele>
        <time>2022-08-07T06:58:34.000Z</time>
      </trkpt>
      <trkpt lat="48.5689" lon="-4.34886">
        <ele>68.800003051758</ele>
        <time>2022-08-07T06:58:35.000Z</time>
      </trkpt>
      <trkpt lat="48.56892" lon="-4.34879">
        <ele>68.800003051758</ele>
        <time>2022-08-07T06:58:36.000Z</time>
      </trkpt>
      <trkpt lat="48.56893" lon="-4.34872">
        <ele>68.800003051758</ele>
        <time>2022-08-07T06:58:37.000Z</time>
      </trkpt>
      <trkpt lat="48.56894" lon="-4.34866">
        <ele>68.800003051758</ele>
        <time>2022-08-07T06:58:38.000Z</time>
      </trkpt>
      <trkpt lat="48.56895" lon="-4.34859">
        <ele>68.800003051758</ele>
        <time>2022-08-07T06:58:39.000Z</time>
      </trkpt>
      <trkpt lat="48.56896" lon="-4.34852">
        <ele>68.800003051758</ele>
        <time>2022-08-07T06:58:40.000Z</time>
      </trkpt>
      <trkpt lat="48.56897" lon="-4.34846">
        <ele>68.800003051758</ele>
        <time>2022-08-07T06:58:41.000Z</time>
      </trkpt>
      <trkpt lat="48.56898" lon="-4.3484">
        <ele>68.800003051758</ele>
        <time>2022-08-07T06:58:42.000Z</time>
      </trkpt>
      <trkpt lat="48.56899" lon="-4.34833">
        <ele>68.800003051758</ele>
        <time>2022-08-07T06:58:43.000Z</time>
      </trkpt>
      <trkpt lat="48.569" lon="-4.34826">
        <ele>68.800003051758</ele>
        <time>2022-08-07T06:58:44.000Z</time>
      </trkpt>
      <trkpt lat="48.56901" lon="-4.3482">
        <ele>68.800003051758</ele>
        <time>2022-08-07T06:58:45.000Z</time>
      </trkpt>
      <trkpt lat="48.56903" lon="-4.34814">
        <ele>69</ele>
        <time>2022-08-07T06:58:46.000Z</time>
      </trkpt>
      <trkpt lat="48.56904" lon="-4.34808">
        <ele>69</ele>
        <time>2022-08-07T06:58:47.000Z</time>
      </trkpt>
      <trkpt lat="48.56905" lon="-4.34801">
        <ele>69</ele>
        <time>2022-08-07T06:58:48.000Z</time>
      </trkpt>
      <trkpt lat="48.56906" lon="-4.34795">
        <ele>69</ele>
        <time>2022-08-07T06:58:49.000Z</time>
      </trkpt>
      <trkpt lat="48.56907" lon="-4.34788">
        <ele>69</ele>
        <time>2022-08-07T06:58:50.000Z</time>
      </trkpt>
      <trkpt lat="48.56908" lon="-4.34782">
        <ele>69</ele>
        <time>2022-08-07T06:58:51.000Z</time>
      </trkpt>
      <trkpt lat="48.56909" lon="-4.34776">
        <ele>69</ele>
        <time>2022-08-07T06:58:52.000Z</time>
      </trkpt>
      <trkpt lat="48.56911" lon="-4.34769">
        <ele>69</ele>
        <time>2022-08-07T06:58:53.000Z</time>
      </trkpt>
      <trkpt lat="48.56912" lon="-4.34763">
        <ele>69</ele>
        <time>2022-08-07T06:58:54.000Z</time>
      </trkpt>
      <trkpt lat="48.56913" lon="-4.34757">
        <ele>69</ele>
        <time>2022-08-07T06:58:55.000Z</time>
      </trkpt>
      <trkpt lat="48.56914" lon="-4.3475">
        <ele>69</ele>
        <time>2022-08-07T06:58:56.000Z</time>
      </trkpt>
      <trkpt lat="48.56914" lon="-4.34744">
        <ele>69</ele>
        <time>2022-08-07T06:58:57.000Z</time>
      </trkpt>
      <trkpt lat="48.56913" lon="-4.3474">
        <ele>69</ele>
        <time>2022-08-07T06:58:58.000Z</time>
      </trkpt>
      <trkpt lat="48.56912" lon="-4.34736">
        <ele>68.800003051758</ele>
        <time>2022-08-07T06:58:59.000Z</time>
      </trkpt>
      <trkpt lat="48.5691" lon="-4.34734">
        <ele>68.800003051758</ele>
        <time>2022-08-07T06:59:00.000Z</time>
      </trkpt>
      <trkpt lat="48.56908" lon="-4.34734">
        <ele>68.599998474121</ele>
        <time>2022-08-07T06:59:01.000Z</time>
      </trkpt>
      <trkpt lat="48.56906" lon="-4.34736">
        <ele>68.599998474121</ele>
        <time>2022-08-07T06:59:02.000Z</time>
      </trkpt>
      <trkpt lat="48.56904" lon="-4.34738">
        <ele>68.599998474121</ele>
        <time>2022-08-07T06:59:03.000Z</time>
      </trkpt>
      <trkpt lat="48.56901" lon="-4.3474">
        <ele>68.599998474121</ele>
        <time>2022-08-07T06:59:04.000Z</time>
      </trkpt>
      <trkpt lat="48.56899" lon="-4.3474">
        <ele>68.599998474121</ele>
        <time>2022-08-07T06:59:05.000Z</time>
      </trkpt>
      <trkpt lat="48.56896" lon="-4.34741">
        <ele>68.599998474121</ele>
        <time>2022-08-07T06:59:06.000Z</time>
      </trkpt>
      <trkpt lat="48.56893" lon="-4.34743">
        <ele>68.599998474121</ele>
        <time>2022-08-07T06:59:07.000Z</time>
      </trkpt>
      <trkpt lat="48.5689" lon="-4.34746">
        <ele>68.599998474121</ele>
        <time>2022-08-07T06:59:08.000Z</time>
      </trkpt>
      <trkpt lat="48.56886" lon="-4.34748">
        <ele>68.599998474121</ele>
        <time>2022-08-07T06:59:09.000Z</time>
      </trkpt>
      <trkpt lat="48.56882" lon="-4.3475">
        <ele>68.599998474121</ele>
        <time>2022-08-07T06:59:10.000Z</time>
      </trkpt>
      <trkpt lat="48.56878" lon="-4.34753">
        <ele>68.599998474121</ele>
        <time>2022-08-07T06:59:11.000Z</time>
      </trkpt>
      <trkpt lat="48.56874" lon="-4.34755">
        <ele>68.599998474121</ele>
        <time>2022-08-07T06:59:12.000Z</time>
      </trkpt>
      <trkpt lat="48.5687" lon="-4.34758">
        <ele>68.800003051758</ele>
        <time>2022-08-07T06:59:13.000Z</time>
      </trkpt>
      <trkpt lat="48.56866" lon="-4.3476">
        <ele>68.800003051758</ele>
        <time>2022-08-07T06:59:14.000Z</time>
      </trkpt>
      <trkpt lat="48.56862" lon="-4.34763">
        <ele>68.800003051758</ele>
        <time>2022-08-07T06:59:15.000Z</time>
      </trkpt>
      <trkpt lat="48.56857" lon="-4.34765">
        <ele>69</ele>
        <time>2022-08-07T06:59:16.000Z</time>
      </trkpt>
      <trkpt lat="48.56853" lon="-4.34768">
        <ele>69</ele>
        <time>2022-08-07T06:59:17.000Z</time>
      </trkpt>
      <trkpt lat="48.56848" lon="-4.34771">
        <ele>69.199996948242</ele>
        <time>2022-08-07T06:59:18.000Z</time>
      </trkpt>
      <trkpt lat="48.56844" lon="-4.34774">
        <ele>69.400001525879</ele>
        <time>2022-08-07T06:59:19.000Z</time>
      </trkpt>
      <trkpt lat="48.56839" lon="-4.34777">
        <ele>69.400001525879</ele>
        <time>2022-08-07T06:59:20.000Z</time>
      </trkpt>
      <trkpt lat="48.56835" lon="-4.3478">
        <ele>69.599998474121</ele>
        <time>2022-08-07T06:59:21.000Z</time>
      </trkpt>
      <trkpt lat="48.5683" lon="-4.34783">
        <ele>69.599998474121</ele>
        <time>2022-08-07T06:59:22.000Z</time>
      </trkpt>
      <trkpt lat="48.56826" lon="-4.34787">
        <ele>69.599998474121</ele>
        <time>2022-08-07T06:59:23.000Z</time>
      </trkpt>
      <trkpt lat="48.56821" lon="-4.3479">
        <ele>69.599998474121</ele>
        <time>2022-08-07T06:59:24.000Z</time>
      </trkpt>
      <trkpt lat="48.56817" lon="-4.34793">
        <ele>69.599998474121</ele>
        <time>2022-08-07T06:59:25.000Z</time>
      </trkpt>
      <trkpt lat="48.56812" lon="-4.34797">
        <ele>69.599998474121</ele>
        <time>2022-08-07T06:59:26.000Z</time>
      </trkpt>
      <trkpt lat="48.56808" lon="-4.348">
        <ele>69.599998474121</ele>
        <time>2022-08-07T06:59:27.000Z</time>
      </trkpt>
      <trkpt lat="48.56804" lon="-4.34804">
        <ele>69.599998474121</ele>
        <time>2022-08-07T06:59:28.000Z</time>
      </trkpt>
      <trkpt lat="48.568" lon="-4.34808">
        <ele>69.599998474121</ele>
        <time>2022-08-07T06:59:29.000Z</time>
      </trkpt>
      <trkpt lat="48.56796" lon="-4.34811">
        <ele>69.800003051758</ele>
        <time>2022-08-07T06:59:30.000Z</time>
      </trkpt>
      <trkpt lat="48.56792" lon="-4.34816">
        <ele>69.800003051758</ele>
        <time>2022-08-07T06:59:31.000Z</time>
      </trkpt>
      <trkpt lat="48.56787" lon="-4.3482">
        <ele>69.800003051758</ele>
        <time>2022-08-07T06:59:32.000Z</time>
      </trkpt>
      <trkpt lat="48.56783" lon="-4.34824">
        <ele>69.800003051758</ele>
        <time>2022-08-07T06:59:33.000Z</time>
      </trkpt>
      <trkpt lat="48.56779" lon="-4.34828">
        <ele>69.800003051758</ele>
        <time>2022-08-07T06:59:34.000Z</time>
      </trkpt>
      <trkpt lat="48.56776" lon="-4.34833">
        <ele>69.800003051758</ele>
        <time>2022-08-07T06:59:35.000Z</time>
      </trkpt>
      <trkpt lat="48.56772" lon="-4.34838">
        <ele>69.800003051758</ele>
        <time>2022-08-07T06:59:36.000Z</time>
      </trkpt>
      <trkpt lat="48.56768" lon="-4.34842">
        <ele>69.800003051758</ele>
        <time>2022-08-07T06:59:37.000Z</time>
      </trkpt>
      <trkpt lat="48.56765" lon="-4.34847">
        <ele>69.800003051758</ele>
        <time>2022-08-07T06:59:38.000Z</time>
      </trkpt>
      <trkpt lat="48.56761" lon="-4.34853">
        <ele>69.800003051758</ele>
        <time>2022-08-07T06:59:39.000Z</time>
      </trkpt>
      <trkpt lat="48.56758" lon="-4.34858">
        <ele>69.800003051758</ele>
        <time>2022-08-07T06:59:40.000Z</time>
      </trkpt>
      <trkpt lat="48.56755" lon="-4.34862">
        <ele>69.800003051758</ele>
        <time>2022-08-07T06:59:41.000Z</time>
      </trkpt>
      <trkpt lat="48.5675" lon="-4.34868">
        <ele>69.599998474121</ele>
        <time>2022-08-07T06:59:42.000Z</time>
      </trkpt>
      <trkpt lat="48.56746" lon="-4.34873">
        <ele>69.599998474121</ele>
        <time>2022-08-07T06:59:43.000Z</time>
      </trkpt>
      <trkpt lat="48.56742" lon="-4.34877">
        <ele>69.599998474121</ele>
        <time>2022-08-07T06:59:44.000Z</time>
      </trkpt>
      <trkpt lat="48.56738" lon="-4.34882">
        <ele>69.599998474121</ele>
        <time>2022-08-07T06:59:45.000Z</time>
      </trkpt>
      <trkpt lat="48.56734" lon="-4.34886">
        <ele>69.599998474121</ele>
        <time>2022-08-07T06:59:46.000Z</time>
      </trkpt>
      <trkpt lat="48.56729" lon="-4.34891">
        <ele>69.599998474121</ele>
        <time>2022-08-07T06:59:47.000Z</time>
      </trkpt>
      <trkpt lat="48.56724" lon="-4.34895">
        <ele>69.400001525879</ele>
        <time>2022-08-07T06:59:48.000Z</time>
      </trkpt>
      <trkpt lat="48.56719" lon="-4.34898">
        <ele>69.400001525879</ele>
        <time>2022-08-07T06:59:49.000Z</time>
      </trkpt>
      <trkpt lat="48.56714" lon="-4.34901">
        <ele>69.400001525879</ele>
        <time>2022-08-07T06:59:50.000Z</time>
      </trkpt>
      <trkpt lat="48.5671" lon="-4.34904">
        <ele>69.400001525879</ele>
        <time>2022-08-07T06:59:51.000Z</time>
      </trkpt>
      <trkpt lat="48.56705" lon="-4.34907">
        <ele>69.400001525879</ele>
        <time>2022-08-07T06:59:52.000Z</time>
      </trkpt>
      <trkpt lat="48.567" lon="-4.3491">
        <ele>69.400001525879</ele>
        <time>2022-08-07T06:59:53.000Z</time>
      </trkpt>
      <trkpt lat="48.56695" lon="-4.34912">
        <ele>69.400001525879</ele>
        <time>2022-08-07T06:59:54.000Z</time>
      </trkpt>
      <trkpt lat="48.5669" lon="-4.34915">
        <ele>69.400001525879</ele>
        <time>2022-08-07T06:59:55.000Z</time>
      </trkpt>
      <trkpt lat="48.56685" lon="-4.34918">
        <ele>69.199996948242</ele>
        <time>2022-08-07T06:59:56.000Z</time>
      </trkpt>
      <trkpt lat="48.5668" lon="-4.3492">
        <ele>69.199996948242</ele>
        <time>2022-08-07T06:59:57.000Z</time>
      </trkpt>
      <trkpt lat="48.56675" lon="-4.34923">
        <ele>69.199996948242</ele>
        <time>2022-08-07T06:59:58.000Z</time>
      </trkpt>
      <trkpt lat="48.5667" lon="-4.34925">
        <ele>69</ele>
        <time>2022-08-07T06:59:59.000Z</time>
      </trkpt>
      <trkpt lat="48.56665" lon="-4.34928">
        <ele>69</ele>
        <time>2022-08-07T07:00:00.000Z</time>
      </trkpt>
      <trkpt lat="48.56661" lon="-4.34931">
        <ele>69</ele>
        <time>2022-08-07T07:00:01.000Z</time>
      </trkpt>
      <trkpt lat="48.56656" lon="-4.34933">
        <ele>69</ele>
        <time>2022-08-07T07:00:02.000Z</time>
      </trkpt>
      <trkpt lat="48.56651" lon="-4.34936">
        <ele>68.800003051758</ele>
        <time>2022-08-07T07:00:03.000Z</time>
      </trkpt>
      <trkpt lat="48.56646" lon="-4.34939">
        <ele>68.800003051758</ele>
        <time>2022-08-07T07:00:04.000Z</time>
      </trkpt>
      <trkpt lat="48.5664" lon="-4.34941">
        <ele>68.599998474121</ele>
        <time>2022-08-07T07:00:05.000Z</time>
      </trkpt>
      <trkpt lat="48.56635" lon="-4.34944">
        <ele>68.599998474121</ele>
        <time>2022-08-07T07:00:06.000Z</time>
      </trkpt>
      <trkpt lat="48.5663" lon="-4.34947">
        <ele>68.599998474121</ele>
        <time>2022-08-07T07:00:07.000Z</time>
      </trkpt>
      <trkpt lat="48.56625" lon="-4.3495">
        <ele>68.400001525879</ele>
        <time>2022-08-07T07:00:08.000Z</time>
      </trkpt>
      <trkpt lat="48.5662" lon="-4.34953">
        <ele>68.400001525879</ele>
        <time>2022-08-07T07:00:09.000Z</time>
      </trkpt>
      <trkpt lat="48.56615" lon="-4.34955">
        <ele>68.400001525879</ele>
        <time>2022-08-07T07:00:10.000Z</time>
      </trkpt>
      <trkpt lat="48.5661" lon="-4.34958">
        <ele>68.400001525879</ele>
        <time>2022-08-07T07:00:11.000Z</time>
      </trkpt>
      <trkpt lat="48.56605" lon="-4.34961">
        <ele>68.199996948242</ele>
        <time>2022-08-07T07:00:12.000Z</time>
      </trkpt>
      <trkpt lat="48.566" lon="-4.34964">
        <ele>68.199996948242</ele>
        <time>2022-08-07T07:00:13.000Z</time>
      </trkpt>
      <trkpt lat="48.56595" lon="-4.34966">
        <ele>68.199996948242</ele>
        <time>2022-08-07T07:00:14.000Z</time>
      </trkpt>
      <trkpt lat="48.56591" lon="-4.34969">
        <ele>68</ele>
        <time>2022-08-07T07:00:15.000Z</time>
      </trkpt>
      <trkpt lat="48.56587" lon="-4.3497">
        <ele>68</ele>
        <time>2022-08-07T07:00:16.000Z</time>
      </trkpt>
      <trkpt lat="48.56585" lon="-4.34971">
        <ele>67.800003051758</ele>
        <time>2022-08-07T07:00:17.000Z</time>
      </trkpt>
      <trkpt lat="48.56583" lon="-4.34971">
        <ele>67.599998474121</ele>
        <time>2022-08-07T07:00:18.000Z</time>
      </trkpt>
      <trkpt lat="48.56582" lon="-4.3497">
        <ele>67.400001525879</ele>
        <time>2022-08-07T07:00:19.000Z</time>
      </trkpt>
      <trkpt lat="48.56581" lon="-4.34967">
        <ele>67.400001525879</ele>
        <time>2022-08-07T07:00:20.000Z</time>
      </trkpt>
      <trkpt lat="48.56581" lon="-4.34964">
        <ele>67.199996948242</ele>
        <time>2022-08-07T07:00:21.000Z</time>
      </trkpt>
      <trkpt lat="48.5658" lon="-4.34959">
        <ele>67.199996948242</ele>
        <time>2022-08-07T07:00:22.000Z</time>
      </trkpt>
      <trkpt lat="48.56578" lon="-4.34954">
        <ele>67</ele>
        <time>2022-08-07T07:00:23.000Z</time>
      </trkpt>
      <trkpt lat="48.56576" lon="-4.34949">
        <ele>67</ele>
        <time>2022-08-07T07:00:24.000Z</time>
      </trkpt>
      <trkpt lat="48.56574" lon="-4.34942">
        <ele>66.800003051758</ele>
        <time>2022-08-07T07:00:25.000Z</time>
      </trkpt>
      <trkpt lat="48.56572" lon="-4.34936">
        <ele>66.800003051758</ele>
        <time>2022-08-07T07:00:26.000Z</time>
      </trkpt>
      <trkpt lat="48.5657" lon="-4.34929">
        <ele>66.800003051758</ele>
        <time>2022-08-07T07:00:27.000Z</time>
      </trkpt>
      <trkpt lat="48.56567" lon="-4.34923">
        <ele>66.800003051758</ele>
        <time>2022-08-07T07:00:28.000Z</time>
      </trkpt>
      <trkpt lat="48.56566" lon="-4.34916">
        <ele>66.800003051758</ele>
        <time>2022-08-07T07:00:29.000Z</time>
      </trkpt>
      <trkpt lat="48.56564" lon="-4.3491">
        <ele>66.400001525879</ele>
        <time>2022-08-07T07:00:30.000Z</time>
      </trkpt>
      <trkpt lat="48.56563" lon="-4.34904">
        <ele>66.400001525879</ele>
        <time>2022-08-07T07:00:31.000Z</time>
      </trkpt>
      <trkpt lat="48.56562" lon="-4.34897">
        <ele>66.400001525879</ele>
        <time>2022-08-07T07:00:32.000Z</time>
      </trkpt>
      <trkpt lat="48.56562" lon="-4.34891">
        <ele>66.400001525879</ele>
        <time>2022-08-07T07:00:33.000Z</time>
      </trkpt>
      <trkpt lat="48.56561" lon="-4.34884">
        <ele>66.400001525879</ele>
        <time>2022-08-07T07:00:34.000Z</time>
      </trkpt>
      <trkpt lat="48.5656" lon="-4.34877">
        <ele>66.400001525879</ele>
        <time>2022-08-07T07:00:35.000Z</time>
      </trkpt>
      <trkpt lat="48.5656" lon="-4.34871">
        <ele>66.400001525879</ele>
        <time>2022-08-07T07:00:36.000Z</time>
      </trkpt>
      <trkpt lat="48.56559" lon="-4.34865">
        <ele>66.400001525879</ele>
        <time>2022-08-07T07:00:37.000Z</time>
      </trkpt>
      <trkpt lat="48.56558" lon="-4.34859">
        <ele>66.400001525879</ele>
        <time>2022-08-07T07:00:38.000Z</time>
      </trkpt>
      <trkpt lat="48.56557" lon="-4.34854">
        <ele>66.400001525879</ele>
        <time>2022-08-07T07:00:39.000Z</time>
      </trkpt>
      <trkpt lat="48.56556" lon="-4.34849">
        <ele>66.400001525879</ele>
        <time>2022-08-07T07:00:40.000Z</time>
      </trkpt>
      <trkpt lat="48.56555" lon="-4.34844">
        <ele>66.400001525879</ele>
        <time>2022-08-07T07:00:41.000Z</time>
      </trkpt>
      <trkpt lat="48.56555" lon="-4.34839">
        <ele>66.599998474121</ele>
        <time>2022-08-07T07:00:42.000Z</time>
      </trkpt>
      <trkpt lat="48.56556" lon="-4.34834">
        <ele>66.599998474121</ele>
        <time>2022-08-07T07:00:43.000Z</time>
      </trkpt>
      <trkpt lat="48.56558" lon="-4.3483">
        <ele>66.599998474121</ele>
        <time>2022-08-07T07:00:44.000Z</time>
      </trkpt>
      <trkpt lat="48.5656" lon="-4.34828">
        <ele>66.599998474121</ele>
        <time>2022-08-07T07:00:45.000Z</time>
      </trkpt>
      <trkpt lat="48.56561" lon="-4.34827">
        <ele>66.599998474121</ele>
        <time>2022-08-07T07:00:46.000Z</time>
      </trkpt>
      <trkpt lat="48.56563" lon="-4.34827">
        <ele>66.599998474121</ele>
        <time>2022-08-07T07:00:47.000Z</time>
      </trkpt>
      <trkpt lat="48.56565" lon="-4.34826">
        <ele>66.599998474121</ele>
        <time>2022-08-07T07:00:48.000Z</time>
      </trkpt>
      <trkpt lat="48.56568" lon="-4.34823">
        <ele>66.599998474121</ele>
        <time>2022-08-07T07:00:49.000Z</time>
      </trkpt>
      <trkpt lat="48.5657" lon="-4.3482">
        <ele>66.800003051758</ele>
        <time>2022-08-07T07:00:50.000Z</time>
      </trkpt>
      <trkpt lat="48.56572" lon="-4.34816">
        <ele>66.800003051758</ele>
        <time>2022-08-07T07:00:51.000Z</time>
      </trkpt>
      <trkpt lat="48.56573" lon="-4.3481">
        <ele>67</ele>
        <time>2022-08-07T07:00:52.000Z</time>
      </trkpt>
      <trkpt lat="48.56575" lon="-4.34805">
        <ele>67</ele>
        <time>2022-08-07T07:00:53.000Z</time>
      </trkpt>
      <trkpt lat="48.56576" lon="-4.34799">
        <ele>67.199996948242</ele>
        <time>2022-08-07T07:00:54.000Z</time>
      </trkpt>
      <trkpt lat="48.56577" lon="-4.34793">
        <ele>67.199996948242</ele>
        <time>2022-08-07T07:00:55.000Z</time>
      </trkpt>
      <trkpt lat="48.56577" lon="-4.34787">
        <ele>67.199996948242</ele>
        <time>2022-08-07T07:00:56.000Z</time>
      </trkpt>
      <trkpt lat="48.56578" lon="-4.34781">
        <ele>67.400001525879</ele>
        <time>2022-08-07T07:00:57.000Z</time>
      </trkpt>
      <trkpt lat="48.56579" lon="-4.34775">
        <ele>67.400001525879</ele>
        <time>2022-08-07T07:00:58.000Z</time>
      </trkpt>
      <trkpt lat="48.5658" lon="-4.3477">
        <ele>67.599998474121</ele>
        <time>2022-08-07T07:00:59.000Z</time>
      </trkpt>
      <trkpt lat="48.5658" lon="-4.34764">
        <ele>67.599998474121</ele>
        <time>2022-08-07T07:01:00.000Z</time>
      </trkpt>
      <trkpt lat="48.5658" lon="-4.34759">
        <ele>67.599998474121</ele>
        <time>2022-08-07T07:01:01.000Z</time>
      </trkpt>
      <trkpt lat="48.5658" lon="-4.34755">
        <ele>67.599998474121</ele>
        <time>2022-08-07T07:01:02.000Z</time>
      </trkpt>
      <trkpt lat="48.56581" lon="-4.34749">
        <ele>67.599998474121</ele>
        <time>2022-08-07T07:01:03.000Z</time>
      </trkpt>
      <trkpt lat="48.56582" lon="-4.34744">
        <ele>67.599998474121</ele>
        <time>2022-08-07T07:01:04.000Z</time>
      </trkpt>
      <trkpt lat="48.56582" lon="-4.3474">
        <ele>67.599998474121</ele>
        <time>2022-08-07T07:01:05.000Z</time>
      </trkpt>
      <trkpt lat="48.56584" lon="-4.34735">
        <ele>67.800003051758</ele>
        <time>2022-08-07T07:01:06.000Z</time>
      </trkpt>
      <trkpt lat="48.56585" lon="-4.3473">
        <ele>67.800003051758</ele>
        <time>2022-08-07T07:01:07.000Z</time>
      </trkpt>
      <trkpt lat="48.56586" lon="-4.34725">
        <ele>67.800003051758</ele>
        <time>2022-08-07T07:01:08.000Z</time>
      </trkpt>
      <trkpt lat="48.56588" lon="-4.34722">
        <ele>67.800003051758</ele>
        <time>2022-08-07T07:01:09.000Z</time>
      </trkpt>
      <trkpt lat="48.56589" lon="-4.34718">
        <ele>68</ele>
        <time>2022-08-07T07:01:10.000Z</time>
      </trkpt>
      <trkpt lat="48.56589" lon="-4.34714">
        <ele>68.199996948242</ele>
        <time>2022-08-07T07:01:11.000Z</time>
      </trkpt>
      <trkpt lat="48.56591" lon="-4.34707">
        <ele>68.199996948242</ele>
        <time>2022-08-07T07:01:12.000Z</time>
      </trkpt>
      <trkpt lat="48.56593" lon="-4.34699">
        <ele>68.400001525879</ele>
        <time>2022-08-07T07:01:13.000Z</time>
      </trkpt>
      <trkpt lat="48.56594" lon="-4.34693">
        <ele>68.400001525879</ele>
        <time>2022-08-07T07:01:14.000Z</time>
      </trkpt>
      <trkpt lat="48.56594" lon="-4.34687">
        <ele>68.400001525879</ele>
        <time>2022-08-07T07:01:15.000Z</time>
      </trkpt>
      <trkpt lat="48.56594" lon="-4.34681">
        <ele>68.400001525879</ele>
        <time>2022-08-07T07:01:16.000Z</time>
      </trkpt>
      <trkpt lat="48.56594" lon="-4.34675">
        <ele>68.599998474121</ele>
        <time>2022-08-07T07:01:17.000Z</time>
      </trkpt>
      <trkpt lat="48.56594" lon="-4.34667">
        <ele>68.599998474121</ele>
        <time>2022-08-07T07:01:18.000Z</time>
      </trkpt>
      <trkpt lat="48.56595" lon="-4.34661">
        <ele>68.599998474121</ele>
        <time>2022-08-07T07:01:19.000Z</time>
      </trkpt>
      <trkpt lat="48.56595" lon="-4.34655">
        <ele>68.599998474121</ele>
        <time>2022-08-07T07:01:20.000Z</time>
      </trkpt>
      <trkpt lat="48.56595" lon="-4.34648">
        <ele>68.599998474121</ele>
        <time>2022-08-07T07:01:21.000Z</time>
      </trkpt>
      <trkpt lat="48.56595" lon="-4.34641">
        <ele>68.599998474121</ele>
        <time>2022-08-07T07:01:22.000Z</time>
      </trkpt>
      <trkpt lat="48.56594" lon="-4.34634">
        <ele>68.599998474121</ele>
        <time>2022-08-07T07:01:23.000Z</time>
      </trkpt>
      <trkpt lat="48.56594" lon="-4.34627">
        <ele>68.599998474121</ele>
        <time>2022-08-07T07:01:24.000Z</time>
      </trkpt>
      <trkpt lat="48.56594" lon="-4.3462">
        <ele>68.599998474121</ele>
        <time>2022-08-07T07:01:25.000Z</time>
      </trkpt>
      <trkpt lat="48.56594" lon="-4.34612">
        <ele>68.599998474121</ele>
        <time>2022-08-07T07:01:26.000Z</time>
      </trkpt>
      <trkpt lat="48.56594" lon="-4.34605">
        <ele>68.400001525879</ele>
        <time>2022-08-07T07:01:27.000Z</time>
      </trkpt>
      <trkpt lat="48.56594" lon="-4.34597">
        <ele>68.400001525879</ele>
        <time>2022-08-07T07:01:28.000Z</time>
      </trkpt>
      <trkpt lat="48.56594" lon="-4.3459">
        <ele>68.400001525879</ele>
        <time>2022-08-07T07:01:29.000Z</time>
      </trkpt>
      <trkpt lat="48.56595" lon="-4.34583">
        <ele>68.400001525879</ele>
        <time>2022-08-07T07:01:30.000Z</time>
      </trkpt>
      <trkpt lat="48.56595" lon="-4.34576">
        <ele>68.400001525879</ele>
        <time>2022-08-07T07:01:31.000Z</time>
      </trkpt>
      <trkpt lat="48.56596" lon="-4.3457">
        <ele>68.400001525879</ele>
        <time>2022-08-07T07:01:32.000Z</time>
      </trkpt>
      <trkpt lat="48.56597" lon="-4.34563">
        <ele>68.400001525879</ele>
        <time>2022-08-07T07:01:33.000Z</time>
      </trkpt>
      <trkpt lat="48.56598" lon="-4.34556">
        <ele>68.400001525879</ele>
        <time>2022-08-07T07:01:34.000Z</time>
      </trkpt>
      <trkpt lat="48.56598" lon="-4.34549">
        <ele>68.599998474121</ele>
        <time>2022-08-07T07:01:35.000Z</time>
      </trkpt>
      <trkpt lat="48.56599" lon="-4.34543">
        <ele>68.599998474121</ele>
        <time>2022-08-07T07:01:36.000Z</time>
      </trkpt>
      <trkpt lat="48.566" lon="-4.34537">
        <ele>68.800003051758</ele>
        <time>2022-08-07T07:01:37.000Z</time>
      </trkpt>
      <trkpt lat="48.566" lon="-4.34531">
        <ele>68.800003051758</ele>
        <time>2022-08-07T07:01:38.000Z</time>
      </trkpt>
      <trkpt lat="48.56601" lon="-4.34525">
        <ele>69</ele>
        <time>2022-08-07T07:01:39.000Z</time>
      </trkpt>
      <trkpt lat="48.56601" lon="-4.3452">
        <ele>69</ele>
        <time>2022-08-07T07:01:40.000Z</time>
      </trkpt>
      <trkpt lat="48.56601" lon="-4.34514">
        <ele>69</ele>
        <time>2022-08-07T07:01:41.000Z</time>
      </trkpt>
      <trkpt lat="48.56602" lon="-4.34507">
        <ele>69.199996948242</ele>
        <time>2022-08-07T07:01:42.000Z</time>
      </trkpt>
      <trkpt lat="48.56602" lon="-4.34501">
        <ele>69.199996948242</ele>
        <time>2022-08-07T07:01:43.000Z</time>
      </trkpt>
      <trkpt lat="48.56602" lon="-4.34495">
        <ele>69</ele>
        <time>2022-08-07T07:01:44.000Z</time>
      </trkpt>
      <trkpt lat="48.56602" lon="-4.34488">
        <ele>69</ele>
        <time>2022-08-07T07:01:45.000Z</time>
      </trkpt>
      <trkpt lat="48.56602" lon="-4.34482">
        <ele>69</ele>
        <time>2022-08-07T07:01:46.000Z</time>
      </trkpt>
      <trkpt lat="48.56602" lon="-4.34476">
        <ele>69</ele>
        <time>2022-08-07T07:01:47.000Z</time>
      </trkpt>
      <trkpt lat="48.56602" lon="-4.3447">
        <ele>69</ele>
        <time>2022-08-07T07:01:48.000Z</time>
      </trkpt>
      <trkpt lat="48.56601" lon="-4.34464">
        <ele>69</ele>
        <time>2022-08-07T07:01:49.000Z</time>
      </trkpt>
      <trkpt lat="48.56601" lon="-4.3446">
        <ele>69</ele>
        <time>2022-08-07T07:01:50.000Z</time>
      </trkpt>
      <trkpt lat="48.56599" lon="-4.34454">
        <ele>69</ele>
        <time>2022-08-07T07:01:51.000Z</time>
      </trkpt>
      <trkpt lat="48.56597" lon="-4.34447">
        <ele>69</ele>
        <time>2022-08-07T07:01:52.000Z</time>
      </trkpt>
      <trkpt lat="48.56596" lon="-4.34441">
        <ele>69.199996948242</ele>
        <time>2022-08-07T07:01:53.000Z</time>
      </trkpt>
      <trkpt lat="48.56594" lon="-4.34435">
        <ele>69.199996948242</ele>
        <time>2022-08-07T07:01:54.000Z</time>
      </trkpt>
      <trkpt lat="48.56592" lon="-4.34429">
        <ele>69.199996948242</ele>
        <time>2022-08-07T07:01:55.000Z</time>
      </trkpt>
      <trkpt lat="48.56591" lon="-4.34423">
        <ele>69.199996948242</ele>
        <time>2022-08-07T07:01:56.000Z</time>
      </trkpt>
      <trkpt lat="48.56589" lon="-4.34417">
        <ele>69.199996948242</ele>
        <time>2022-08-07T07:01:57.000Z</time>
      </trkpt>
      <trkpt lat="48.56588" lon="-4.34412">
        <ele>69.199996948242</ele>
        <time>2022-08-07T07:01:58.000Z</time>
      </trkpt>
      <trkpt lat="48.56587" lon="-4.34406">
        <ele>69.199996948242</ele>
        <time>2022-08-07T07:01:59.000Z</time>
      </trkpt>
      <trkpt lat="48.56586" lon="-4.344">
        <ele>69.199996948242</ele>
        <time>2022-08-07T07:02:00.000Z</time>
      </trkpt>
      <trkpt lat="48.56586" lon="-4.34394">
        <ele>69.199996948242</ele>
        <time>2022-08-07T07:02:01.000Z</time>
      </trkpt>
      <trkpt lat="48.56585" lon="-4.34388">
        <ele>69.199996948242</ele>
        <time>2022-08-07T07:02:02.000Z</time>
      </trkpt>
      <trkpt lat="48.56585" lon="-4.34383">
        <ele>69.199996948242</ele>
        <time>2022-08-07T07:02:03.000Z</time>
      </trkpt>
      <trkpt lat="48.56584" lon="-4.34377">
        <ele>69.199996948242</ele>
        <time>2022-08-07T07:02:04.000Z</time>
      </trkpt>
      <trkpt lat="48.56584" lon="-4.34371">
        <ele>69.199996948242</ele>
        <time>2022-08-07T07:02:05.000Z</time>
      </trkpt>
      <trkpt lat="48.56584" lon="-4.34365">
        <ele>69.199996948242</ele>
        <time>2022-08-07T07:02:06.000Z</time>
      </trkpt>
      <trkpt lat="48.56584" lon="-4.34359">
        <ele>69.199996948242</ele>
        <time>2022-08-07T07:02:07.000Z</time>
      </trkpt>
      <trkpt lat="48.56585" lon="-4.34353">
        <ele>69.199996948242</ele>
        <time>2022-08-07T07:02:08.000Z</time>
      </trkpt>
      <trkpt lat="48.56586" lon="-4.34348">
        <ele>69.199996948242</ele>
        <time>2022-08-07T07:02:09.000Z</time>
      </trkpt>
      <trkpt lat="48.56587" lon="-4.34343">
        <ele>69.199996948242</ele>
        <time>2022-08-07T07:02:10.000Z</time>
      </trkpt>
      <trkpt lat="48.5659" lon="-4.34339">
        <ele>69.199996948242</ele>
        <time>2022-08-07T07:02:11.000Z</time>
      </trkpt>
      <trkpt lat="48.56594" lon="-4.34338">
        <ele>69.199996948242</ele>
        <time>2022-08-07T07:02:12.000Z</time>
      </trkpt>
      <trkpt lat="48.56598" lon="-4.34338">
        <ele>69.199996948242</ele>
        <time>2022-08-07T07:02:13.000Z</time>
      </trkpt>
      <trkpt lat="48.56602" lon="-4.34339">
        <ele>69.199996948242</ele>
        <time>2022-08-07T07:02:14.000Z</time>
      </trkpt>
      <trkpt lat="48.56605" lon="-4.3434">
        <ele>69.400001525879</ele>
        <time>2022-08-07T07:02:15.000Z</time>
      </trkpt>
      <trkpt lat="48.56609" lon="-4.3434">
        <ele>69.400001525879</ele>
        <time>2022-08-07T07:02:16.000Z</time>
      </trkpt>
      <trkpt lat="48.56613" lon="-4.3434">
        <ele>69.599998474121</ele>
        <time>2022-08-07T07:02:17.000Z</time>
      </trkpt>
      <trkpt lat="48.56616" lon="-4.34338">
        <ele>69.599998474121</ele>
        <time>2022-08-07T07:02:18.000Z</time>
      </trkpt>
      <trkpt lat="48.56619" lon="-4.34337">
        <ele>69.599998474121</ele>
        <time>2022-08-07T07:02:19.000Z</time>
      </trkpt>
      <trkpt lat="48.56622" lon="-4.34334">
        <ele>69.800003051758</ele>
        <time>2022-08-07T07:02:20.000Z</time>
      </trkpt>
      <trkpt lat="48.56625" lon="-4.34332">
        <ele>69.800003051758</ele>
        <time>2022-08-07T07:02:21.000Z</time>
      </trkpt>
      <trkpt lat="48.56626" lon="-4.34328">
        <ele>69.800003051758</ele>
        <time>2022-08-07T07:02:22.000Z</time>
      </trkpt>
      <trkpt lat="48.56628" lon="-4.34324">
        <ele>69.800003051758</ele>
        <time>2022-08-07T07:02:23.000Z</time>
      </trkpt>
      <trkpt lat="48.56628" lon="-4.34319">
        <ele>69.800003051758</ele>
        <time>2022-08-07T07:02:24.000Z</time>
      </trkpt>
      <trkpt lat="48.56629" lon="-4.34314">
        <ele>69.800003051758</ele>
        <time>2022-08-07T07:02:25.000Z</time>
      </trkpt>
      <trkpt lat="48.5663" lon="-4.34309">
        <ele>70</ele>
        <time>2022-08-07T07:02:26.000Z</time>
      </trkpt>
      <trkpt lat="48.56631" lon="-4.34305">
        <ele>70</ele>
        <time>2022-08-07T07:02:27.000Z</time>
      </trkpt>
      <trkpt lat="48.56631" lon="-4.343">
        <ele>70</ele>
        <time>2022-08-07T07:02:28.000Z</time>
      </trkpt>
      <trkpt lat="48.56632" lon="-4.34296">
        <ele>70</ele>
        <time>2022-08-07T07:02:29.000Z</time>
      </trkpt>
      <trkpt lat="48.56632" lon="-4.34291">
        <ele>69.800003051758</ele>
        <time>2022-08-07T07:02:30.000Z</time>
      </trkpt>
      <trkpt lat="48.56632" lon="-4.34286">
        <ele>69.800003051758</ele>
        <time>2022-08-07T07:02:31.000Z</time>
      </trkpt>
      <trkpt lat="48.56633" lon="-4.34281">
        <ele>69.800003051758</ele>
        <time>2022-08-07T07:02:32.000Z</time>
      </trkpt>
      <trkpt lat="48.56634" lon="-4.34274">
        <ele>69.800003051758</ele>
        <time>2022-08-07T07:02:33.000Z</time>
      </trkpt>
      <trkpt lat="48.56634" lon="-4.34267">
        <ele>69.800003051758</ele>
        <time>2022-08-07T07:02:34.000Z</time>
      </trkpt>
      <trkpt lat="48.56635" lon="-4.3426">
        <ele>69.599998474121</ele>
        <time>2022-08-07T07:02:35.000Z</time>
      </trkpt>
      <trkpt lat="48.56635" lon="-4.34254">
        <ele>69.599998474121</ele>
        <time>2022-08-07T07:02:36.000Z</time>
      </trkpt>
      <trkpt lat="48.56635" lon="-4.3425">
        <ele>69.599998474121</ele>
        <time>2022-08-07T07:02:37.000Z</time>
      </trkpt>
      <trkpt lat="48.56636" lon="-4.34244">
        <ele>69.599998474121</ele>
        <time>2022-08-07T07:02:38.000Z</time>
      </trkpt>
      <trkpt lat="48.56636" lon="-4.34236">
        <ele>69.599998474121</ele>
        <time>2022-08-07T07:02:39.000Z</time>
      </trkpt>
      <trkpt lat="48.56637" lon="-4.34229">
        <ele>69.599998474121</ele>
        <time>2022-08-07T07:02:40.000Z</time>
      </trkpt>
      <trkpt lat="48.56638" lon="-4.34223">
        <ele>69.599998474121</ele>
        <time>2022-08-07T07:02:41.000Z</time>
      </trkpt>
      <trkpt lat="48.5664" lon="-4.34217">
        <ele>69.800003051758</ele>
        <time>2022-08-07T07:02:42.000Z</time>
      </trkpt>
      <trkpt lat="48.56641" lon="-4.34212">
        <ele>69.800003051758</ele>
        <time>2022-08-07T07:02:43.000Z</time>
      </trkpt>
      <trkpt lat="48.56643" lon="-4.34206">
        <ele>69.800003051758</ele>
        <time>2022-08-07T07:02:44.000Z</time>
      </trkpt>
      <trkpt lat="48.56645" lon="-4.34201">
        <ele>69.800003051758</ele>
        <time>2022-08-07T07:02:45.000Z</time>
      </trkpt>
      <trkpt lat="48.56648" lon="-4.34198">
        <ele>70</ele>
        <time>2022-08-07T07:02:46.000Z</time>
      </trkpt>
      <trkpt lat="48.56651" lon="-4.34196">
        <ele>70</ele>
        <time>2022-08-07T07:02:47.000Z</time>
      </trkpt>
      <trkpt lat="48.56655" lon="-4.34197">
        <ele>70</ele>
        <time>2022-08-07T07:02:48.000Z</time>
      </trkpt>
      <trkpt lat="48.56658" lon="-4.34199">
        <ele>70</ele>
        <time>2022-08-07T07:02:49.000Z</time>
      </trkpt>
      <trkpt lat="48.56661" lon="-4.34201">
        <ele>70</ele>
        <time>2022-08-07T07:02:50.000Z</time>
      </trkpt>
      <trkpt lat="48.56663" lon="-4.34202">
        <ele>70</ele>
        <time>2022-08-07T07:02:51.000Z</time>
      </trkpt>
      <trkpt lat="48.56665" lon="-4.34203">
        <ele>70</ele>
        <time>2022-08-07T07:02:52.000Z</time>
      </trkpt>
      <trkpt lat="48.56667" lon="-4.34201">
        <ele>70</ele>
        <time>2022-08-07T07:02:53.000Z</time>
      </trkpt>
      <trkpt lat="48.56669" lon="-4.34197">
        <ele>70</ele>
        <time>2022-08-07T07:02:54.000Z</time>
      </trkpt>
      <trkpt lat="48.56671" lon="-4.34192">
        <ele>70</ele>
        <time>2022-08-07T07:02:55.000Z</time>
      </trkpt>
      <trkpt lat="48.56673" lon="-4.34187">
        <ele>70</ele>
        <time>2022-08-07T07:02:56.000Z</time>
      </trkpt>
      <trkpt lat="48.56676" lon="-4.34182">
        <ele>70</ele>
        <time>2022-08-07T07:02:57.000Z</time>
      </trkpt>
      <trkpt lat="48.56678" lon="-4.34177">
        <ele>70</ele>
        <time>2022-08-07T07:02:58.000Z</time>
      </trkpt>
      <trkpt lat="48.56681" lon="-4.34171">
        <ele>70</ele>
        <time>2022-08-07T07:02:59.000Z</time>
      </trkpt>
      <trkpt lat="48.56683" lon="-4.34165">
        <ele>70</ele>
        <time>2022-08-07T07:03:00.000Z</time>
      </trkpt>
      <trkpt lat="48.56684" lon="-4.34158">
        <ele>70</ele>
        <time>2022-08-07T07:03:01.000Z</time>
      </trkpt>
      <trkpt lat="48.56686" lon="-4.34151">
        <ele>70</ele>
        <time>2022-08-07T07:03:02.000Z</time>
      </trkpt>
      <trkpt lat="48.56687" lon="-4.34144">
        <ele>70</ele>
        <time>2022-08-07T07:03:03.000Z</time>
      </trkpt>
      <trkpt lat="48.56689" lon="-4.34138">
        <ele>70</ele>
        <time>2022-08-07T07:03:04.000Z</time>
      </trkpt>
      <trkpt lat="48.5669" lon="-4.34133">
        <ele>70</ele>
        <time>2022-08-07T07:03:05.000Z</time>
      </trkpt>
      <trkpt lat="48.56693" lon="-4.34128">
        <ele>70</ele>
        <time>2022-08-07T07:03:06.000Z</time>
      </trkpt>
      <trkpt lat="48.56695" lon="-4.34123">
        <ele>70</ele>
        <time>2022-08-07T07:03:07.000Z</time>
      </trkpt>
      <trkpt lat="48.56697" lon="-4.34117">
        <ele>70</ele>
        <time>2022-08-07T07:03:08.000Z</time>
      </trkpt>
      <trkpt lat="48.56699" lon="-4.34111">
        <ele>70</ele>
        <time>2022-08-07T07:03:09.000Z</time>
      </trkpt>
      <trkpt lat="48.56701" lon="-4.34106">
        <ele>70</ele>
        <time>2022-08-07T07:03:10.000Z</time>
      </trkpt>
      <trkpt lat="48.56704" lon="-4.34101">
        <ele>70</ele>
        <time>2022-08-07T07:03:11.000Z</time>
      </trkpt>
      <trkpt lat="48.56706" lon="-4.34095">
        <ele>70</ele>
        <time>2022-08-07T07:03:12.000Z</time>
      </trkpt>
      <trkpt lat="48.56709" lon="-4.34089">
        <ele>70</ele>
        <time>2022-08-07T07:03:13.000Z</time>
      </trkpt>
      <trkpt lat="48.56711" lon="-4.34084">
        <ele>70</ele>
        <time>2022-08-07T07:03:14.000Z</time>
      </trkpt>
      <trkpt lat="48.56713" lon="-4.34079">
        <ele>70</ele>
        <time>2022-08-07T07:03:15.000Z</time>
      </trkpt>
      <trkpt lat="48.56716" lon="-4.34072">
        <ele>69.800003051758</ele>
        <time>2022-08-07T07:03:16.000Z</time>
      </trkpt>
      <trkpt lat="48.56718" lon="-4.34066">
        <ele>69.800003051758</ele>
        <time>2022-08-07T07:03:17.000Z</time>
      </trkpt>
      <trkpt lat="48.5672" lon="-4.34061">
        <ele>69.800003051758</ele>
        <time>2022-08-07T07:03:18.000Z</time>
      </trkpt>
      <trkpt lat="48.56722" lon="-4.34057">
        <ele>69.800003051758</ele>
        <time>2022-08-07T07:03:19.000Z</time>
      </trkpt>
      <trkpt lat="48.56724" lon="-4.34051">
        <ele>69.800003051758</ele>
        <time>2022-08-07T07:03:20.000Z</time>
      </trkpt>
      <trkpt lat="48.56726" lon="-4.34045">
        <ele>69.800003051758</ele>
        <time>2022-08-07T07:03:21.000Z</time>
      </trkpt>
      <trkpt lat="48.56728" lon="-4.34039">
        <ele>69.800003051758</ele>
        <time>2022-08-07T07:03:22.000Z</time>
      </trkpt>
      <trkpt lat="48.5673" lon="-4.34034">
        <ele>69.599998474121</ele>
        <time>2022-08-07T07:03:23.000Z</time>
      </trkpt>
      <trkpt lat="48.56733" lon="-4.34029">
        <ele>69.599998474121</ele>
        <time>2022-08-07T07:03:24.000Z</time>
      </trkpt>
      <trkpt lat="48.56735" lon="-4.34024">
        <ele>69.599998474121</ele>
        <time>2022-08-07T07:03:25.000Z</time>
      </trkpt>
      <trkpt lat="48.56735" lon="-4.3402">
        <ele>69.599998474121</ele>
        <time>2022-08-07T07:03:26.000Z</time>
      </trkpt>
      <trkpt lat="48.56737" lon="-4.34015">
        <ele>69.599998474121</ele>
        <time>2022-08-07T07:03:27.000Z</time>
      </trkpt>
      <trkpt lat="48.56739" lon="-4.34011">
        <ele>69.599998474121</ele>
        <time>2022-08-07T07:03:28.000Z</time>
      </trkpt>
      <trkpt lat="48.56741" lon="-4.34006">
        <ele>69.599998474121</ele>
        <time>2022-08-07T07:03:29.000Z</time>
      </trkpt>
      <trkpt lat="48.56744" lon="-4.34001">
        <ele>69.599998474121</ele>
        <time>2022-08-07T07:03:30.000Z</time>
      </trkpt>
      <trkpt lat="48.56747" lon="-4.33996">
        <ele>69.599998474121</ele>
        <time>2022-08-07T07:03:31.000Z</time>
      </trkpt>
      <trkpt lat="48.56749" lon="-4.33992">
        <ele>69.800003051758</ele>
        <time>2022-08-07T07:03:32.000Z</time>
      </trkpt>
      <trkpt lat="48.56752" lon="-4.33986">
        <ele>69.800003051758</ele>
        <time>2022-08-07T07:03:33.000Z</time>
      </trkpt>
      <trkpt lat="48.56753" lon="-4.33981">
        <ele>69.800003051758</ele>
        <time>2022-08-07T07:03:34.000Z</time>
      </trkpt>
      <trkpt lat="48.56755" lon="-4.33974">
        <ele>69.800003051758</ele>
        <time>2022-08-07T07:03:35.000Z</time>
      </trkpt>
      <trkpt lat="48.56757" lon="-4.33966">
        <ele>69.800003051758</ele>
        <time>2022-08-07T07:03:36.000Z</time>
      </trkpt>
      <trkpt lat="48.56758" lon="-4.3396">
        <ele>69.599998474121</ele>
        <time>2022-08-07T07:03:37.000Z</time>
      </trkpt>
      <trkpt lat="48.5676" lon="-4.33953">
        <ele>69.599998474121</ele>
        <time>2022-08-07T07:03:38.000Z</time>
      </trkpt>
      <trkpt lat="48.56761" lon="-4.33946">
        <ele>69.599998474121</ele>
        <time>2022-08-07T07:03:39.000Z</time>
      </trkpt>
      <trkpt lat="48.56762" lon="-4.33939">
        <ele>69.599998474121</ele>
        <time>2022-08-07T07:03:40.000Z</time>
      </trkpt>
      <trkpt lat="48.56763" lon="-4.33932">
        <ele>69.400001525879</ele>
        <time>2022-08-07T07:03:41.000Z</time>
      </trkpt>
      <trkpt lat="48.56764" lon="-4.33925">
        <ele>69.400001525879</ele>
        <time>2022-08-07T07:03:42.000Z</time>
      </trkpt>
      <trkpt lat="48.56765" lon="-4.33918">
        <ele>69.199996948242</ele>
        <time>2022-08-07T07:03:43.000Z</time>
      </trkpt>
      <trkpt lat="48.56766" lon="-4.33911">
        <ele>69.199996948242</ele>
        <time>2022-08-07T07:03:44.000Z</time>
      </trkpt>
      <trkpt lat="48.56767" lon="-4.33905">
        <ele>69.199996948242</ele>
        <time>2022-08-07T07:03:45.000Z</time>
      </trkpt>
      <trkpt lat="48.56767" lon="-4.33898">
        <ele>69</ele>
        <time>2022-08-07T07:03:46.000Z</time>
      </trkpt>
      <trkpt lat="48.56768" lon="-4.33892">
        <ele>69</ele>
        <time>2022-08-07T07:03:47.000Z</time>
      </trkpt>
      <trkpt lat="48.56769" lon="-4.33887">
        <ele>68.800003051758</ele>
        <time>2022-08-07T07:03:48.000Z</time>
      </trkpt>
      <trkpt lat="48.5677" lon="-4.33882">
        <ele>68.800003051758</ele>
        <time>2022-08-07T07:03:49.000Z</time>
      </trkpt>
      <trkpt lat="48.5677" lon="-4.33879">
        <ele>68.599998474121</ele>
        <time>2022-08-07T07:03:50.000Z</time>
      </trkpt>
      <trkpt lat="48.5677" lon="-4.33877">
        <ele>68.400001525879</ele>
        <time>2022-08-07T07:03:51.000Z</time>
      </trkpt>
      <trkpt lat="48.5677" lon="-4.33875">
        <ele>68.400001525879</ele>
        <time>2022-08-07T07:03:52.000Z</time>
      </trkpt>
      <trkpt lat="48.56769" lon="-4.33874">
        <ele>68</ele>
        <time>2022-08-07T07:03:53.000Z</time>
      </trkpt>
      <trkpt lat="48.56769" lon="-4.33871">
        <ele>68</ele>
        <time>2022-08-07T07:03:54.000Z</time>
      </trkpt>
      <trkpt lat="48.56769" lon="-4.33868">
        <ele>67.800003051758</ele>
        <time>2022-08-07T07:03:55.000Z</time>
      </trkpt>
      <trkpt lat="48.56769" lon="-4.33865">
        <ele>67.800003051758</ele>
        <time>2022-08-07T07:03:56.000Z</time>
      </trkpt>
      <trkpt lat="48.5677" lon="-4.3386">
        <ele>67.599998474121</ele>
        <time>2022-08-07T07:03:57.000Z</time>
      </trkpt>
      <trkpt lat="48.5677" lon="-4.33856">
        <ele>67.599998474121</ele>
        <time>2022-08-07T07:03:58.000Z</time>
      </trkpt>
      <trkpt lat="48.56771" lon="-4.33853">
        <ele>67.599998474121</ele>
        <time>2022-08-07T07:03:59.000Z</time>
      </trkpt>
      <trkpt lat="48.56773" lon="-4.3385">
        <ele>67.400001525879</ele>
        <time>2022-08-07T07:04:00.000Z</time>
      </trkpt>
      <trkpt lat="48.56774" lon="-4.33849">
        <ele>67.400001525879</ele>
        <time>2022-08-07T07:04:01.000Z</time>
      </trkpt>
      <trkpt lat="48.56774" lon="-4.33846">
        <ele>67.400001525879</ele>
        <time>2022-08-07T07:04:02.000Z</time>
      </trkpt>
      <trkpt lat="48.56774" lon="-4.33843">
        <ele>67.400001525879</ele>
        <time>2022-08-07T07:04:03.000Z</time>
      </trkpt>
      <trkpt lat="48.56774" lon="-4.3384">
        <ele>67.400001525879</ele>
        <time>2022-08-07T07:04:04.000Z</time>
      </trkpt>
      <trkpt lat="48.56775" lon="-4.33837">
        <ele>67.400001525879</ele>
        <time>2022-08-07T07:04:05.000Z</time>
      </trkpt>
      <trkpt lat="48.56776" lon="-4.33833">
        <ele>67.599998474121</ele>
        <time>2022-08-07T07:04:06.000Z</time>
      </trkpt>
      <trkpt lat="48.56777" lon="-4.3383">
        <ele>67.599998474121</ele>
        <time>2022-08-07T07:04:07.000Z</time>
      </trkpt>
      <trkpt lat="48.56778" lon="-4.33825">
        <ele>67.599998474121</ele>
        <time>2022-08-07T07:04:08.000Z</time>
      </trkpt>
      <trkpt lat="48.5678" lon="-4.3382">
        <ele>67.599998474121</ele>
        <time>2022-08-07T07:04:09.000Z</time>
      </trkpt>
      <trkpt lat="48.56782" lon="-4.33816">
        <ele>67.599998474121</ele>
        <time>2022-08-07T07:04:10.000Z</time>
      </trkpt>
      <trkpt lat="48.56784" lon="-4.33812">
        <ele>67.599998474121</ele>
        <time>2022-08-07T07:04:11.000Z</time>
      </trkpt>
      <trkpt lat="48.56786" lon="-4.33806">
        <ele>67.800003051758</ele>
        <time>2022-08-07T07:04:12.000Z</time>
      </trkpt>
      <trkpt lat="48.56788" lon="-4.33801">
        <ele>67.800003051758</ele>
        <time>2022-08-07T07:04:13.000Z</time>
      </trkpt>
      <trkpt lat="48.56791" lon="-4.33796">
        <ele>67.800003051758</ele>
        <time>2022-08-07T07:04:14.000Z</time>
      </trkpt>
      <trkpt lat="48.56793" lon="-4.33791">
        <ele>67.800003051758</ele>
        <time>2022-08-07T07:04:15.000Z</time>
      </trkpt>
      <trkpt lat="48.56795" lon="-4.33785">
        <ele>67.800003051758</ele>
        <time>2022-08-07T07:04:16.000Z</time>
      </trkpt>
      <trkpt lat="48.56797" lon="-4.3378">
        <ele>67.800003051758</ele>
        <time>2022-08-07T07:04:17.000Z</time>
      </trkpt>
      <trkpt lat="48.56798" lon="-4.33775">
        <ele>68</ele>
        <time>2022-08-07T07:04:18.000Z</time>
      </trkpt>
      <trkpt lat="48.56801" lon="-4.33771">
        <ele>68</ele>
        <time>2022-08-07T07:04:19.000Z</time>
      </trkpt>
      <trkpt lat="48.56804" lon="-4.33768">
        <ele>68</ele>
        <time>2022-08-07T07:04:20.000Z</time>
      </trkpt>
      <trkpt lat="48.56807" lon="-4.33765">
        <ele>68</ele>
        <time>2022-08-07T07:04:21.000Z</time>
      </trkpt>
      <trkpt lat="48.56809" lon="-4.33762">
        <ele>68</ele>
        <time>2022-08-07T07:04:22.000Z</time>
      </trkpt>
      <trkpt lat="48.5681" lon="-4.33757">
        <ele>68</ele>
        <time>2022-08-07T07:04:23.000Z</time>
      </trkpt>
      <trkpt lat="48.5681" lon="-4.33751">
        <ele>68.199996948242</ele>
        <time>2022-08-07T07:04:24.000Z</time>
      </trkpt>
      <trkpt lat="48.5681" lon="-4.33745">
        <ele>68.199996948242</ele>
        <time>2022-08-07T07:04:25.000Z</time>
      </trkpt>
      <trkpt lat="48.56809" lon="-4.33739">
        <ele>68.199996948242</ele>
        <time>2022-08-07T07:04:26.000Z</time>
      </trkpt>
      <trkpt lat="48.56809" lon="-4.33733">
        <ele>68.199996948242</ele>
        <time>2022-08-07T07:04:27.000Z</time>
      </trkpt>
      <trkpt lat="48.56807" lon="-4.33728">
        <ele>68.199996948242</ele>
        <time>2022-08-07T07:04:28.000Z</time>
      </trkpt>
      <trkpt lat="48.56806" lon="-4.33722">
        <ele>68.199996948242</ele>
        <time>2022-08-07T07:04:29.000Z</time>
      </trkpt>
      <trkpt lat="48.56805" lon="-4.33716">
        <ele>68.199996948242</ele>
        <time>2022-08-07T07:04:30.000Z</time>
      </trkpt>
      <trkpt lat="48.56804" lon="-4.3371">
        <ele>68.199996948242</ele>
        <time>2022-08-07T07:04:31.000Z</time>
      </trkpt>
      <trkpt lat="48.56803" lon="-4.33704">
        <ele>68.199996948242</ele>
        <time>2022-08-07T07:04:32.000Z</time>
      </trkpt>
      <trkpt lat="48.56803" lon="-4.33697">
        <ele>68.400001525879</ele>
        <time>2022-08-07T07:04:33.000Z</time>
      </trkpt>
      <trkpt lat="48.56802" lon="-4.33692">
        <ele>68.400001525879</ele>
        <time>2022-08-07T07:04:34.000Z</time>
      </trkpt>
      <trkpt lat="48.56801" lon="-4.33686">
        <ele>68.400001525879</ele>
        <time>2022-08-07T07:04:35.000Z</time>
      </trkpt>
      <trkpt lat="48.56801" lon="-4.33679">
        <ele>68.599998474121</ele>
        <time>2022-08-07T07:04:36.000Z</time>
      </trkpt>
      <trkpt lat="48.568" lon="-4.33673">
        <ele>68.599998474121</ele>
        <time>2022-08-07T07:04:37.000Z</time>
      </trkpt>
      <trkpt lat="48.56799" lon="-4.33668">
        <ele>68.599998474121</ele>
        <time>2022-08-07T07:04:38.000Z</time>
      </trkpt>
      <trkpt lat="48.56798" lon="-4.33661">
        <ele>68.599998474121</ele>
        <time>2022-08-07T07:04:39.000Z</time>
      </trkpt>
      <trkpt lat="48.56797" lon="-4.33655">
        <ele>68.800003051758</ele>
        <time>2022-08-07T07:04:40.000Z</time>
      </trkpt>
      <trkpt lat="48.56796" lon="-4.33649">
        <ele>69</ele>
        <time>2022-08-07T07:04:41.000Z</time>
      </trkpt>
      <trkpt lat="48.56795" lon="-4.33644">
        <ele>69</ele>
        <time>2022-08-07T07:04:42.000Z</time>
      </trkpt>
      <trkpt lat="48.56794" lon="-4.33639">
        <ele>69</ele>
        <time>2022-08-07T07:04:43.000Z</time>
      </trkpt>
      <trkpt lat="48.56794" lon="-4.33633">
        <ele>69.199996948242</ele>
        <time>2022-08-07T07:04:44.000Z</time>
      </trkpt>
      <trkpt lat="48.56793" lon="-4.33627">
        <ele>69.199996948242</ele>
        <time>2022-08-07T07:04:45.000Z</time>
      </trkpt>
      <trkpt lat="48.56793" lon="-4.33621">
        <ele>69.400001525879</ele>
        <time>2022-08-07T07:04:46.000Z</time>
      </trkpt>
      <trkpt lat="48.56792" lon="-4.33615">
        <ele>69.599998474121</ele>
        <time>2022-08-07T07:04:47.000Z</time>
      </trkpt>
      <trkpt lat="48.56791" lon="-4.3361">
        <ele>69.599998474121</ele>
        <time>2022-08-07T07:04:48.000Z</time>
      </trkpt>
      <trkpt lat="48.56791" lon="-4.33604">
        <ele>69.599998474121</ele>
        <time>2022-08-07T07:04:49.000Z</time>
      </trkpt>
      <trkpt lat="48.5679" lon="-4.33598">
        <ele>69.800003051758</ele>
        <time>2022-08-07T07:04:50.000Z</time>
      </trkpt>
      <trkpt lat="48.56789" lon="-4.33592">
        <ele>69.800003051758</ele>
        <time>2022-08-07T07:04:51.000Z</time>
      </trkpt>
      <trkpt lat="48.56789" lon="-4.33587">
        <ele>69.800003051758</ele>
        <time>2022-08-07T07:04:52.000Z</time>
      </trkpt>
      <trkpt lat="48.56788" lon="-4.33582">
        <ele>69.800003051758</ele>
        <time>2022-08-07T07:04:53.000Z</time>
      </trkpt>
      <trkpt lat="48.56787" lon="-4.33577">
        <ele>70</ele>
        <time>2022-08-07T07:04:54.000Z</time>
      </trkpt>
      <trkpt lat="48.56786" lon="-4.33573">
        <ele>70.199996948242</ele>
        <time>2022-08-07T07:04:55.000Z</time>
      </trkpt>
      <trkpt lat="48.56785" lon="-4.33569">
        <ele>70.199996948242</ele>
        <time>2022-08-07T07:04:56.000Z</time>
      </trkpt>
      <trkpt lat="48.56784" lon="-4.33565">
        <ele>70.199996948242</ele>
        <time>2022-08-07T07:04:57.000Z</time>
      </trkpt>
      <trkpt lat="48.56783" lon="-4.3356">
        <ele>70.199996948242</ele>
        <time>2022-08-07T07:04:58.000Z</time>
      </trkpt>
      <trkpt lat="48.56782" lon="-4.33556">
        <ele>70.199996948242</ele>
        <time>2022-08-07T07:04:59.000Z</time>
      </trkpt>
      <trkpt lat="48.56784" lon="-4.33552">
        <ele>70.199996948242</ele>
        <time>2022-08-07T07:05:00.000Z</time>
      </trkpt>
      <trkpt lat="48.56786" lon="-4.33548">
        <ele>70.199996948242</ele>
        <time>2022-08-07T07:05:01.000Z</time>
      </trkpt>
      <trkpt lat="48.56788" lon="-4.33545">
        <ele>70.199996948242</ele>
        <time>2022-08-07T07:05:02.000Z</time>
      </trkpt>
      <trkpt lat="48.5679" lon="-4.33543">
        <ele>70.199996948242</ele>
        <time>2022-08-07T07:05:03.000Z</time>
      </trkpt>
      <trkpt lat="48.56793" lon="-4.3354">
        <ele>70.199996948242</ele>
        <time>2022-08-07T07:05:04.000Z</time>
      </trkpt>
      <trkpt lat="48.56795" lon="-4.33537">
        <ele>70.199996948242</ele>
        <time>2022-08-07T07:05:05.000Z</time>
      </trkpt>
      <trkpt lat="48.56797" lon="-4.33533">
        <ele>70.199996948242</ele>
        <time>2022-08-07T07:05:06.000Z</time>
      </trkpt>
      <trkpt lat="48.568" lon="-4.3353">
        <ele>70.199996948242</ele>
        <time>2022-08-07T07:05:07.000Z</time>
      </trkpt>
      <trkpt lat="48.56802" lon="-4.33527">
        <ele>70.400001525879</ele>
        <time>2022-08-07T07:05:08.000Z</time>
      </trkpt>
      <trkpt lat="48.56805" lon="-4.33523">
        <ele>70.400001525879</ele>
        <time>2022-08-07T07:05:09.000Z</time>
      </trkpt>
      <trkpt lat="48.56808" lon="-4.33519">
        <ele>70.400001525879</ele>
        <time>2022-08-07T07:05:10.000Z</time>
      </trkpt>
      <trkpt lat="48.56811" lon="-4.33515">
        <ele>70.400001525879</ele>
        <time>2022-08-07T07:05:11.000Z</time>
      </trkpt>
      <trkpt lat="48.56814" lon="-4.33511">
        <ele>70.599998474121</ele>
        <time>2022-08-07T07:05:12.000Z</time>
      </trkpt>
      <trkpt lat="48.56817" lon="-4.33507">
        <ele>70.599998474121</ele>
        <time>2022-08-07T07:05:13.000Z</time>
      </trkpt>
      <trkpt lat="48.5682" lon="-4.33503">
        <ele>70.599998474121</ele>
        <time>2022-08-07T07:05:14.000Z</time>
      </trkpt>
      <trkpt lat="48.56824" lon="-4.33498">
        <ele>70.800003051758</ele>
        <time>2022-08-07T07:05:15.000Z</time>
      </trkpt>
      <trkpt lat="48.56827" lon="-4.33494">
        <ele>70.800003051758</ele>
        <time>2022-08-07T07:05:16.000Z</time>
      </trkpt>
      <trkpt lat="48.5683" lon="-4.3349">
        <ele>70.800003051758</ele>
        <time>2022-08-07T07:05:17.000Z</time>
      </trkpt>
      <trkpt lat="48.56833" lon="-4.33486">
        <ele>70.800003051758</ele>
        <time>2022-08-07T07:05:18.000Z</time>
      </trkpt>
      <trkpt lat="48.56836" lon="-4.33482">
        <ele>70.800003051758</ele>
        <time>2022-08-07T07:05:19.000Z</time>
      </trkpt>
      <trkpt lat="48.5684" lon="-4.33478">
        <ele>70.800003051758</ele>
        <time>2022-08-07T07:05:20.000Z</time>
      </trkpt>
      <trkpt lat="48.56842" lon="-4.33474">
        <ele>70.800003051758</ele>
        <time>2022-08-07T07:05:21.000Z</time>
      </trkpt>
      <trkpt lat="48.56846" lon="-4.33468">
        <ele>70.800003051758</ele>
        <time>2022-08-07T07:05:22.000Z</time>
      </trkpt>
      <trkpt lat="48.56848" lon="-4.33462">
        <ele>70.800003051758</ele>
        <time>2022-08-07T07:05:23.000Z</time>
      </trkpt>
      <trkpt lat="48.56851" lon="-4.33456">
        <ele>70.800003051758</ele>
        <time>2022-08-07T07:05:24.000Z</time>
      </trkpt>
      <trkpt lat="48.56853" lon="-4.3345">
        <ele>71</ele>
        <time>2022-08-07T07:05:25.000Z</time>
      </trkpt>
      <trkpt lat="48.56855" lon="-4.33445">
        <ele>71</ele>
        <time>2022-08-07T07:05:26.000Z</time>
      </trkpt>
      <trkpt lat="48.56857" lon="-4.33439">
        <ele>71</ele>
        <time>2022-08-07T07:05:27.000Z</time>
      </trkpt>
      <trkpt lat="48.56858" lon="-4.33434">
        <ele>70.800003051758</ele>
        <time>2022-08-07T07:05:28.000Z</time>
      </trkpt>
      <trkpt lat="48.56858" lon="-4.33428">
        <ele>70.800003051758</ele>
        <time>2022-08-07T07:05:29.000Z</time>
      </trkpt>
      <trkpt lat="48.56858" lon="-4.33422">
        <ele>70.800003051758</ele>
        <time>2022-08-07T07:05:30.000Z</time>
      </trkpt>
      <trkpt lat="48.56857" lon="-4.33415">
        <ele>70.800003051758</ele>
        <time>2022-08-07T07:05:31.000Z</time>
      </trkpt>
      <trkpt lat="48.56857" lon="-4.33409">
        <ele>70.800003051758</ele>
        <time>2022-08-07T07:05:32.000Z</time>
      </trkpt>
      <trkpt lat="48.56856" lon="-4.33404">
        <ele>70.800003051758</ele>
        <time>2022-08-07T07:05:33.000Z</time>
      </trkpt>
      <trkpt lat="48.56855" lon="-4.33398">
        <ele>70.800003051758</ele>
        <time>2022-08-07T07:05:34.000Z</time>
      </trkpt>
      <trkpt lat="48.56855" lon="-4.33392">
        <ele>70.800003051758</ele>
        <time>2022-08-07T07:05:35.000Z</time>
      </trkpt>
      <trkpt lat="48.56855" lon="-4.33385">
        <ele>70.800003051758</ele>
        <time>2022-08-07T07:05:36.000Z</time>
      </trkpt>
      <trkpt lat="48.56856" lon="-4.33378">
        <ele>70.800003051758</ele>
        <time>2022-08-07T07:05:37.000Z</time>
      </trkpt>
      <trkpt lat="48.56856" lon="-4.33372">
        <ele>70.800003051758</ele>
        <time>2022-08-07T07:05:38.000Z</time>
      </trkpt>
      <trkpt lat="48.56857" lon="-4.33365">
        <ele>70.800003051758</ele>
        <time>2022-08-07T07:05:39.000Z</time>
      </trkpt>
      <trkpt lat="48.56857" lon="-4.33359">
        <ele>70.800003051758</ele>
        <time>2022-08-07T07:05:40.000Z</time>
      </trkpt>
      <trkpt lat="48.56857" lon="-4.33352">
        <ele>70.800003051758</ele>
        <time>2022-08-07T07:05:41.000Z</time>
      </trkpt>
      <trkpt lat="48.56857" lon="-4.33345">
        <ele>70.800003051758</ele>
        <time>2022-08-07T07:05:42.000Z</time>
      </trkpt>
      <trkpt lat="48.56857" lon="-4.33339">
        <ele>71</ele>
        <time>2022-08-07T07:05:43.000Z</time>
      </trkpt>
      <trkpt lat="48.56857" lon="-4.33333">
        <ele>71</ele>
        <time>2022-08-07T07:05:44.000Z</time>
      </trkpt>
      <trkpt lat="48.56857" lon="-4.33325">
        <ele>71</ele>
        <time>2022-08-07T07:05:45.000Z</time>
      </trkpt>
      <trkpt lat="48.56856" lon="-4.33319">
        <ele>71.199996948242</ele>
        <time>2022-08-07T07:05:46.000Z</time>
      </trkpt>
      <trkpt lat="48.56856" lon="-4.33312">
        <ele>71</ele>
        <time>2022-08-07T07:05:47.000Z</time>
      </trkpt>
      <trkpt lat="48.56856" lon="-4.33305">
        <ele>71.199996948242</ele>
        <time>2022-08-07T07:05:48.000Z</time>
      </trkpt>
      <trkpt lat="48.56856" lon="-4.33298">
        <ele>71.199996948242</ele>
        <time>2022-08-07T07:05:49.000Z</time>
      </trkpt>
      <trkpt lat="48.56856" lon="-4.33291">
        <ele>71.199996948242</ele>
        <time>2022-08-07T07:05:50.000Z</time>
      </trkpt>
      <trkpt lat="48.56856" lon="-4.33284">
        <ele>71.199996948242</ele>
        <time>2022-08-07T07:05:51.000Z</time>
      </trkpt>
      <trkpt lat="48.56856" lon="-4.33277">
        <ele>71</ele>
        <time>2022-08-07T07:05:52.000Z</time>
      </trkpt>
      <trkpt lat="48.56856" lon="-4.3327">
        <ele>71</ele>
        <time>2022-08-07T07:05:53.000Z</time>
      </trkpt>
      <trkpt lat="48.56857" lon="-4.33263">
        <ele>71</ele>
        <time>2022-08-07T07:05:54.000Z</time>
      </trkpt>
      <trkpt lat="48.56858" lon="-4.33257">
        <ele>71</ele>
        <time>2022-08-07T07:05:55.000Z</time>
      </trkpt>
      <trkpt lat="48.56858" lon="-4.33251">
        <ele>71</ele>
        <time>2022-08-07T07:05:56.000Z</time>
      </trkpt>
      <trkpt lat="48.56859" lon="-4.33246">
        <ele>71</ele>
        <time>2022-08-07T07:05:57.000Z</time>
      </trkpt>
      <trkpt lat="48.56859" lon="-4.33242">
        <ele>71</ele>
        <time>2022-08-07T07:05:58.000Z</time>
      </trkpt>
      <trkpt lat="48.56859" lon="-4.3324">
        <ele>71</ele>
        <time>2022-08-07T07:05:59.000Z</time>
      </trkpt>
      <trkpt lat="48.56858" lon="-4.33239">
        <ele>71</ele>
        <time>2022-08-07T07:06:00.000Z</time>
      </trkpt>
      <trkpt lat="48.56858" lon="-4.33238">
        <ele>71</ele>
        <time>2022-08-07T07:06:01.000Z</time>
      </trkpt>
      <trkpt lat="48.56858" lon="-4.33235">
        <ele>71</ele>
        <time>2022-08-07T07:06:02.000Z</time>
      </trkpt>
      <trkpt lat="48.56858" lon="-4.33232">
        <ele>71</ele>
        <time>2022-08-07T07:06:03.000Z</time>
      </trkpt>
      <trkpt lat="48.56859" lon="-4.33228">
        <ele>71</ele>
        <time>2022-08-07T07:06:04.000Z</time>
      </trkpt>
      <trkpt lat="48.56859" lon="-4.33223">
        <ele>71</ele>
        <time>2022-08-07T07:06:05.000Z</time>
      </trkpt>
      <trkpt lat="48.5686" lon="-4.33219">
        <ele>71</ele>
        <time>2022-08-07T07:06:06.000Z</time>
      </trkpt>
      <trkpt lat="48.56861" lon="-4.33213">
        <ele>71</ele>
        <time>2022-08-07T07:06:07.000Z</time>
      </trkpt>
      <trkpt lat="48.56861" lon="-4.33208">
        <ele>71</ele>
        <time>2022-08-07T07:06:08.000Z</time>
      </trkpt>
      <trkpt lat="48.56859" lon="-4.33204">
        <ele>71</ele>
        <time>2022-08-07T07:06:09.000Z</time>
      </trkpt>
      <trkpt lat="48.56857" lon="-4.33201">
        <ele>71</ele>
        <time>2022-08-07T07:06:10.000Z</time>
      </trkpt>
      <trkpt lat="48.56853" lon="-4.332">
        <ele>71</ele>
        <time>2022-08-07T07:06:11.000Z</time>
      </trkpt>
      <trkpt lat="48.56849" lon="-4.332">
        <ele>71</ele>
        <time>2022-08-07T07:06:12.000Z</time>
      </trkpt>
      <trkpt lat="48.56845" lon="-4.332">
        <ele>71</ele>
        <time>2022-08-07T07:06:13.000Z</time>
      </trkpt>
      <trkpt lat="48.56841" lon="-4.33201">
        <ele>71.199996948242</ele>
        <time>2022-08-07T07:06:14.000Z</time>
      </trkpt>
      <trkpt lat="48.56837" lon="-4.33201">
        <ele>71.199996948242</ele>
        <time>2022-08-07T07:06:15.000Z</time>
      </trkpt>
      <trkpt lat="48.56833" lon="-4.33202">
        <ele>71.400001525879</ele>
        <time>2022-08-07T07:06:16.000Z</time>
      </trkpt>
      <trkpt lat="48.56829" lon="-4.33202">
        <ele>71.400001525879</ele>
        <time>2022-08-07T07:06:17.000Z</time>
      </trkpt>
      <trkpt lat="48.56825" lon="-4.33203">
        <ele>71.400001525879</ele>
        <time>2022-08-07T07:06:18.000Z</time>
      </trkpt>
      <trkpt lat="48.56821" lon="-4.33205">
        <ele>71.400001525879</ele>
        <time>2022-08-07T07:06:19.000Z</time>
      </trkpt>
      <trkpt lat="48.56817" lon="-4.33207">
        <ele>71.400001525879</ele>
        <time>2022-08-07T07:06:20.000Z</time>
      </trkpt>
      <trkpt lat="48.56814" lon="-4.3321">
        <ele>71.599998474121</ele>
        <time>2022-08-07T07:06:21.000Z</time>
      </trkpt>
      <trkpt lat="48.5681" lon="-4.33212">
        <ele>71.599998474121</ele>
        <time>2022-08-07T07:06:22.000Z</time>
      </trkpt>
      <trkpt lat="48.56807" lon="-4.33213">
        <ele>71.599998474121</ele>
        <time>2022-08-07T07:06:23.000Z</time>
      </trkpt>
      <trkpt lat="48.56804" lon="-4.33213">
        <ele>71.800003051758</ele>
        <time>2022-08-07T07:06:24.000Z</time>
      </trkpt>
      <trkpt lat="48.56801" lon="-4.33211">
        <ele>71.800003051758</ele>
        <time>2022-08-07T07:06:25.000Z</time>
      </trkpt>
      <trkpt lat="48.56798" lon="-4.33207">
        <ele>71.800003051758</ele>
        <time>2022-08-07T07:06:26.000Z</time>
      </trkpt>
      <trkpt lat="48.56797" lon="-4.33202">
        <ele>71.800003051758</ele>
        <time>2022-08-07T07:06:27.000Z</time>
      </trkpt>
      <trkpt lat="48.56796" lon="-4.33196">
        <ele>72</ele>
        <time>2022-08-07T07:06:28.000Z</time>
      </trkpt>
      <trkpt lat="48.56795" lon="-4.3319">
        <ele>72</ele>
        <time>2022-08-07T07:06:29.000Z</time>
      </trkpt>
      <trkpt lat="48.56795" lon="-4.33184">
        <ele>72.199996948242</ele>
        <time>2022-08-07T07:06:30.000Z</time>
      </trkpt>
      <trkpt lat="48.56794" lon="-4.33179">
        <ele>72.199996948242</ele>
        <time>2022-08-07T07:06:31.000Z</time>
      </trkpt>
      <trkpt lat="48.56792" lon="-4.33173">
        <ele>72.199996948242</ele>
        <time>2022-08-07T07:06:32.000Z</time>
      </trkpt>
      <trkpt lat="48.56791" lon="-4.33167">
        <ele>72.199996948242</ele>
        <time>2022-08-07T07:06:33.000Z</time>
      </trkpt>
      <trkpt lat="48.5679" lon="-4.33161">
        <ele>72.199996948242</ele>
        <time>2022-08-07T07:06:34.000Z</time>
      </trkpt>
      <trkpt lat="48.56789" lon="-4.33155">
        <ele>72.199996948242</ele>
        <time>2022-08-07T07:06:35.000Z</time>
      </trkpt>
      <trkpt lat="48.56788" lon="-4.3315">
        <ele>72.199996948242</ele>
        <time>2022-08-07T07:06:36.000Z</time>
      </trkpt>
      <trkpt lat="48.56787" lon="-4.33144">
        <ele>72.199996948242</ele>
        <time>2022-08-07T07:06:37.000Z</time>
      </trkpt>
      <trkpt lat="48.56787" lon="-4.33139">
        <ele>72.400001525879</ele>
        <time>2022-08-07T07:06:38.000Z</time>
      </trkpt>
      <trkpt lat="48.56788" lon="-4.33134">
        <ele>72.400001525879</ele>
        <time>2022-08-07T07:06:39.000Z</time>
      </trkpt>
      <trkpt lat="48.56789" lon="-4.33129">
        <ele>72.400001525879</ele>
        <time>2022-08-07T07:06:40.000Z</time>
      </trkpt>
      <trkpt lat="48.56789" lon="-4.33123">
        <ele>72.599998474121</ele>
        <time>2022-08-07T07:06:41.000Z</time>
      </trkpt>
      <trkpt lat="48.56789" lon="-4.33118">
        <ele>72.599998474121</ele>
        <time>2022-08-07T07:06:42.000Z</time>
      </trkpt>
      <trkpt lat="48.56789" lon="-4.33112">
        <ele>72.800003051758</ele>
        <time>2022-08-07T07:06:43.000Z</time>
      </trkpt>
      <trkpt lat="48.56788" lon="-4.33106">
        <ele>72.800003051758</ele>
        <time>2022-08-07T07:06:44.000Z</time>
      </trkpt>
      <trkpt lat="48.56788" lon="-4.33101">
        <ele>72.800003051758</ele>
        <time>2022-08-07T07:06:45.000Z</time>
      </trkpt>
      <trkpt lat="48.56787" lon="-4.33095">
        <ele>72.800003051758</ele>
        <time>2022-08-07T07:06:46.000Z</time>
      </trkpt>
      <trkpt lat="48.56786" lon="-4.3309">
        <ele>72.800003051758</ele>
        <time>2022-08-07T07:06:47.000Z</time>
      </trkpt>
      <trkpt lat="48.56785" lon="-4.33084">
        <ele>72.800003051758</ele>
        <time>2022-08-07T07:06:48.000Z</time>
      </trkpt>
      <trkpt lat="48.56785" lon="-4.33078">
        <ele>72.800003051758</ele>
        <time>2022-08-07T07:06:49.000Z</time>
      </trkpt>
      <trkpt lat="48.56784" lon="-4.33073">
        <ele>73</ele>
        <time>2022-08-07T07:06:50.000Z</time>
      </trkpt>
      <trkpt lat="48.56783" lon="-4.33068">
        <ele>73</ele>
        <time>2022-08-07T07:06:51.000Z</time>
      </trkpt>
      <trkpt lat="48.56783" lon="-4.33063">
        <ele>73</ele>
        <time>2022-08-07T07:06:52.000Z</time>
      </trkpt>
      <trkpt lat="48.56782" lon="-4.33058">
        <ele>73</ele>
        <time>2022-08-07T07:06:53.000Z</time>
      </trkpt>
      <trkpt lat="48.56781" lon="-4.33054">
        <ele>73.199996948242</ele>
        <time>2022-08-07T07:06:54.000Z</time>
      </trkpt>
      <trkpt lat="48.56781" lon="-4.33051">
        <ele>73.199996948242</ele>
        <time>2022-08-07T07:06:55.000Z</time>
      </trkpt>
      <trkpt lat="48.56781" lon="-4.33049">
        <ele>73.199996948242</ele>
        <time>2022-08-07T07:06:56.000Z</time>
      </trkpt>
      <trkpt lat="48.56781" lon="-4.33048">
        <ele>73.199996948242</ele>
        <time>2022-08-07T07:06:57.000Z</time>
      </trkpt>
      <trkpt lat="48.56781" lon="-4.33047">
        <ele>73.199996948242</ele>
        <time>2022-08-07T07:06:58.000Z</time>
      </trkpt>
      <trkpt lat="48.56782" lon="-4.33046">
        <ele>73.199996948242</ele>
        <time>2022-08-07T07:06:59.000Z</time>
      </trkpt>
      <trkpt lat="48.56781" lon="-4.33045">
        <ele>73.199996948242</ele>
        <time>2022-08-07T07:07:00.000Z</time>
      </trkpt>
      <trkpt lat="48.56781" lon="-4.33043">
        <ele>73.199996948242</ele>
        <time>2022-08-07T07:07:01.000Z</time>
      </trkpt>
      <trkpt lat="48.56781" lon="-4.33041">
        <ele>73.199996948242</ele>
        <time>2022-08-07T07:07:02.000Z</time>
      </trkpt>
      <trkpt lat="48.5678" lon="-4.33039">
        <ele>73.199996948242</ele>
        <time>2022-08-07T07:07:03.000Z</time>
      </trkpt>
      <trkpt lat="48.56779" lon="-4.33037">
        <ele>73.199996948242</ele>
        <time>2022-08-07T07:07:04.000Z</time>
      </trkpt>
      <trkpt lat="48.56779" lon="-4.33034">
        <ele>73.199996948242</ele>
        <time>2022-08-07T07:07:05.000Z</time>
      </trkpt>
      <trkpt lat="48.56779" lon="-4.3303">
        <ele>73.199996948242</ele>
        <time>2022-08-07T07:07:06.000Z</time>
      </trkpt>
      <trkpt lat="48.56779" lon="-4.33026">
        <ele>73.199996948242</ele>
        <time>2022-08-07T07:07:07.000Z</time>
      </trkpt>
      <trkpt lat="48.56778" lon="-4.3302">
        <ele>73.199996948242</ele>
        <time>2022-08-07T07:07:08.000Z</time>
      </trkpt>
      <trkpt lat="48.56777" lon="-4.33015">
        <ele>73.199996948242</ele>
        <time>2022-08-07T07:07:09.000Z</time>
      </trkpt>
      <trkpt lat="48.56777" lon="-4.33009">
        <ele>73.199996948242</ele>
        <time>2022-08-07T07:07:10.000Z</time>
      </trkpt>
      <trkpt lat="48.56776" lon="-4.33003">
        <ele>73.400001525879</ele>
        <time>2022-08-07T07:07:11.000Z</time>
      </trkpt>
      <trkpt lat="48.56776" lon="-4.32997">
        <ele>73.599998474121</ele>
        <time>2022-08-07T07:07:12.000Z</time>
      </trkpt>
      <trkpt lat="48.56776" lon="-4.3299">
        <ele>73.599998474121</ele>
        <time>2022-08-07T07:07:13.000Z</time>
      </trkpt>
      <trkpt lat="48.56776" lon="-4.32984">
        <ele>73.800003051758</ele>
        <time>2022-08-07T07:07:14.000Z</time>
      </trkpt>
      <trkpt lat="48.56775" lon="-4.32978">
        <ele>73.800003051758</ele>
        <time>2022-08-07T07:07:15.000Z</time>
      </trkpt>
      <trkpt lat="48.56775" lon="-4.32974">
        <ele>73.800003051758</ele>
        <time>2022-08-07T07:07:16.000Z</time>
      </trkpt>
      <trkpt lat="48.56774" lon="-4.32966">
        <ele>73.800003051758</ele>
        <time>2022-08-07T07:07:17.000Z</time>
      </trkpt>
      <trkpt lat="48.56774" lon="-4.3296">
        <ele>74</ele>
        <time>2022-08-07T07:07:18.000Z</time>
      </trkpt>
      <trkpt lat="48.56773" lon="-4.32954">
        <ele>74</ele>
        <time>2022-08-07T07:07:19.000Z</time>
      </trkpt>
      <trkpt lat="48.56773" lon="-4.32947">
        <ele>74</ele>
        <time>2022-08-07T07:07:20.000Z</time>
      </trkpt>
      <trkpt lat="48.56773" lon="-4.32941">
        <ele>74</ele>
        <time>2022-08-07T07:07:21.000Z</time>
      </trkpt>
      <trkpt lat="48.56773" lon="-4.32935">
        <ele>74</ele>
        <time>2022-08-07T07:07:22.000Z</time>
      </trkpt>
      <trkpt lat="48.56773" lon="-4.32929">
        <ele>74.199996948242</ele>
        <time>2022-08-07T07:07:23.000Z</time>
      </trkpt>
      <trkpt lat="48.56773" lon="-4.32922">
        <ele>74.199996948242</ele>
        <time>2022-08-07T07:07:24.000Z</time>
      </trkpt>
      <trkpt lat="48.56773" lon="-4.32916">
        <ele>74.400001525879</ele>
        <time>2022-08-07T07:07:25.000Z</time>
      </trkpt>
      <trkpt lat="48.56772" lon="-4.32911">
        <ele>74.400001525879</ele>
        <time>2022-08-07T07:07:26.000Z</time>
      </trkpt>
      <trkpt lat="48.56769" lon="-4.32907">
        <ele>74.599998474121</ele>
        <time>2022-08-07T07:07:27.000Z</time>
      </trkpt>
      <trkpt lat="48.56766" lon="-4.32904">
        <ele>74.800003051758</ele>
        <time>2022-08-07T07:07:28.000Z</time>
      </trkpt>
      <trkpt lat="48.56763" lon="-4.32901">
        <ele>74.800003051758</ele>
        <time>2022-08-07T07:07:29.000Z</time>
      </trkpt>
      <trkpt lat="48.5676" lon="-4.32897">
        <ele>75</ele>
        <time>2022-08-07T07:07:30.000Z</time>
      </trkpt>
      <trkpt lat="48.56757" lon="-4.32894">
        <ele>75</ele>
        <time>2022-08-07T07:07:31.000Z</time>
      </trkpt>
      <trkpt lat="48.56754" lon="-4.32891">
        <ele>75</ele>
        <time>2022-08-07T07:07:32.000Z</time>
      </trkpt>
      <trkpt lat="48.56751" lon="-4.32887">
        <ele>75.199996948242</ele>
        <time>2022-08-07T07:07:33.000Z</time>
      </trkpt>
      <trkpt lat="48.56748" lon="-4.32884">
        <ele>75.400001525879</ele>
        <time>2022-08-07T07:07:34.000Z</time>
      </trkpt>
      <trkpt lat="48.56746" lon="-4.32882">
        <ele>75.599998474121</ele>
        <time>2022-08-07T07:07:35.000Z</time>
      </trkpt>
      <trkpt lat="48.56742" lon="-4.3288">
        <ele>75.599998474121</ele>
        <time>2022-08-07T07:07:36.000Z</time>
      </trkpt>
      <trkpt lat="48.56739" lon="-4.32877">
        <ele>75.599998474121</ele>
        <time>2022-08-07T07:07:37.000Z</time>
      </trkpt>
      <trkpt lat="48.56736" lon="-4.32876">
        <ele>75.599998474121</ele>
        <time>2022-08-07T07:07:38.000Z</time>
      </trkpt>
      <trkpt lat="48.56733" lon="-4.32874">
        <ele>75.599998474121</ele>
        <time>2022-08-07T07:07:39.000Z</time>
      </trkpt>
      <trkpt lat="48.56729" lon="-4.32873">
        <ele>75.599998474121</ele>
        <time>2022-08-07T07:07:40.000Z</time>
      </trkpt>
      <trkpt lat="48.56726" lon="-4.32873">
        <ele>75.599998474121</ele>
        <time>2022-08-07T07:07:41.000Z</time>
      </trkpt>
      <trkpt lat="48.56722" lon="-4.32872">
        <ele>75.599998474121</ele>
        <time>2022-08-07T07:07:42.000Z</time>
      </trkpt>
      <trkpt lat="48.5672" lon="-4.32872">
        <ele>75.400001525879</ele>
        <time>2022-08-07T07:07:43.000Z</time>
      </trkpt>
      <trkpt lat="48.56718" lon="-4.32871">
        <ele>75.400001525879</ele>
        <time>2022-08-07T07:07:44.000Z</time>
      </trkpt>
      <trkpt lat="48.56717" lon="-4.32871">
        <ele>75.400001525879</ele>
        <time>2022-08-07T07:07:45.000Z</time>
      </trkpt>
      <trkpt lat="48.56717" lon="-4.3287">
        <ele>75.199996948242</ele>
        <time>2022-08-07T07:07:46.000Z</time>
      </trkpt>
      <trkpt lat="48.56716" lon="-4.3287">
        <ele>75.199996948242</ele>
        <time>2022-08-07T07:07:49.000Z</time>
      </trkpt>
      <trkpt lat="48.56715" lon="-4.3287">
        <ele>75</ele>
        <time>2022-08-07T07:07:50.000Z</time>
      </trkpt>
      <trkpt lat="48.56713" lon="-4.3287">
        <ele>75</ele>
        <time>2022-08-07T07:07:51.000Z</time>
      </trkpt>
      <trkpt lat="48.56712" lon="-4.3287">
        <ele>74.800003051758</ele>
        <time>2022-08-07T07:07:52.000Z</time>
      </trkpt>
      <trkpt lat="48.56711" lon="-4.3287">
        <ele>74.800003051758</ele>
        <time>2022-08-07T07:07:53.000Z</time>
      </trkpt>
      <trkpt lat="48.56709" lon="-4.3287">
        <ele>74.599998474121</ele>
        <time>2022-08-07T07:07:54.000Z</time>
      </trkpt>
      <trkpt lat="48.56707" lon="-4.3287">
        <ele>74.599998474121</ele>
        <time>2022-08-07T07:07:55.000Z</time>
      </trkpt>
      <trkpt lat="48.56704" lon="-4.32869">
        <ele>74.599998474121</ele>
        <time>2022-08-07T07:07:56.000Z</time>
      </trkpt>
      <trkpt lat="48.56702" lon="-4.32868">
        <ele>74.599998474121</ele>
        <time>2022-08-07T07:07:57.000Z</time>
      </trkpt>
      <trkpt lat="48.56699" lon="-4.32865">
        <ele>74.599998474121</ele>
        <time>2022-08-07T07:07:58.000Z</time>
      </trkpt>
      <trkpt lat="48.56697" lon="-4.32863">
        <ele>74.599998474121</ele>
        <time>2022-08-07T07:07:59.000Z</time>
      </trkpt>
      <trkpt lat="48.56695" lon="-4.3286">
        <ele>74.599998474121</ele>
        <time>2022-08-07T07:08:00.000Z</time>
      </trkpt>
      <trkpt lat="48.56694" lon="-4.32857">
        <ele>74.599998474121</ele>
        <time>2022-08-07T07:08:01.000Z</time>
      </trkpt>
      <trkpt lat="48.56693" lon="-4.32853">
        <ele>74.599998474121</ele>
        <time>2022-08-07T07:08:02.000Z</time>
      </trkpt>
      <trkpt lat="48.56692" lon="-4.32849">
        <ele>74.599998474121</ele>
        <time>2022-08-07T07:08:03.000Z</time>
      </trkpt>
      <trkpt lat="48.56692" lon="-4.32844">
        <ele>74.599998474121</ele>
        <time>2022-08-07T07:08:04.000Z</time>
      </trkpt>
      <trkpt lat="48.56692" lon="-4.32839">
        <ele>74.400001525879</ele>
        <time>2022-08-07T07:08:05.000Z</time>
      </trkpt>
      <trkpt lat="48.56692" lon="-4.32835">
        <ele>74.400001525879</ele>
        <time>2022-08-07T07:08:06.000Z</time>
      </trkpt>
      <trkpt lat="48.56691" lon="-4.32831">
        <ele>74.400001525879</ele>
        <time>2022-08-07T07:08:07.000Z</time>
      </trkpt>
      <trkpt lat="48.56691" lon="-4.32825">
        <ele>74.400001525879</ele>
        <time>2022-08-07T07:08:08.000Z</time>
      </trkpt>
      <trkpt lat="48.56691" lon="-4.3282">
        <ele>74.400001525879</ele>
        <time>2022-08-07T07:08:09.000Z</time>
      </trkpt>
      <trkpt lat="48.56691" lon="-4.32815">
        <ele>74.400001525879</ele>
        <time>2022-08-07T07:08:10.000Z</time>
      </trkpt>
      <trkpt lat="48.56691" lon="-4.32808">
        <ele>74.400001525879</ele>
        <time>2022-08-07T07:08:11.000Z</time>
      </trkpt>
      <trkpt lat="48.56692" lon="-4.32802">
        <ele>74.400001525879</ele>
        <time>2022-08-07T07:08:12.000Z</time>
      </trkpt>
      <trkpt lat="48.56692" lon="-4.32796">
        <ele>74.400001525879</ele>
        <time>2022-08-07T07:08:13.000Z</time>
      </trkpt>
      <trkpt lat="48.56693" lon="-4.32789">
        <ele>74.199996948242</ele>
        <time>2022-08-07T07:08:14.000Z</time>
      </trkpt>
      <trkpt lat="48.56694" lon="-4.32783">
        <ele>74.199996948242</ele>
        <time>2022-08-07T07:08:15.000Z</time>
      </trkpt>
      <trkpt lat="48.56694" lon="-4.32777">
        <ele>74.199996948242</ele>
        <time>2022-08-07T07:08:16.000Z</time>
      </trkpt>
      <trkpt lat="48.56695" lon="-4.32769">
        <ele>74.199996948242</ele>
        <time>2022-08-07T07:08:17.000Z</time>
      </trkpt>
      <trkpt lat="48.56696" lon="-4.32762">
        <ele>74.199996948242</ele>
        <time>2022-08-07T07:08:18.000Z</time>
      </trkpt>
      <trkpt lat="48.56697" lon="-4.32755">
        <ele>74</ele>
        <time>2022-08-07T07:08:19.000Z</time>
      </trkpt>
      <trkpt lat="48.56697" lon="-4.32748">
        <ele>74</ele>
        <time>2022-08-07T07:08:20.000Z</time>
      </trkpt>
      <trkpt lat="48.56698" lon="-4.32741">
        <ele>74</ele>
        <time>2022-08-07T07:08:21.000Z</time>
      </trkpt>
      <trkpt lat="48.56698" lon="-4.32733">
        <ele>74</ele>
        <time>2022-08-07T07:08:22.000Z</time>
      </trkpt>
      <trkpt lat="48.56699" lon="-4.32726">
        <ele>74</ele>
        <time>2022-08-07T07:08:23.000Z</time>
      </trkpt>
      <trkpt lat="48.56699" lon="-4.32718">
        <ele>74</ele>
        <time>2022-08-07T07:08:24.000Z</time>
      </trkpt>
      <trkpt lat="48.567" lon="-4.3271">
        <ele>74</ele>
        <time>2022-08-07T07:08:25.000Z</time>
      </trkpt>
      <trkpt lat="48.56701" lon="-4.32703">
        <ele>74</ele>
        <time>2022-08-07T07:08:26.000Z</time>
      </trkpt>
      <trkpt lat="48.56702" lon="-4.32695">
        <ele>74</ele>
        <time>2022-08-07T07:08:27.000Z</time>
      </trkpt>
      <trkpt lat="48.56702" lon="-4.32687">
        <ele>73.800003051758</ele>
        <time>2022-08-07T07:08:28.000Z</time>
      </trkpt>
      <trkpt lat="48.56703" lon="-4.32679">
        <ele>73.800003051758</ele>
        <time>2022-08-07T07:08:29.000Z</time>
      </trkpt>
      <trkpt lat="48.56704" lon="-4.32671">
        <ele>73.800003051758</ele>
        <time>2022-08-07T07:08:30.000Z</time>
      </trkpt>
      <trkpt lat="48.56705" lon="-4.32663">
        <ele>73.800003051758</ele>
        <time>2022-08-07T07:08:31.000Z</time>
      </trkpt>
      <trkpt lat="48.56706" lon="-4.32655">
        <ele>73.599998474121</ele>
        <time>2022-08-07T07:08:32.000Z</time>
      </trkpt>
      <trkpt lat="48.56707" lon="-4.32647">
        <ele>73.599998474121</ele>
        <time>2022-08-07T07:08:33.000Z</time>
      </trkpt>
      <trkpt lat="48.56707" lon="-4.32639">
        <ele>73.400001525879</ele>
        <time>2022-08-07T07:08:34.000Z</time>
      </trkpt>
      <trkpt lat="48.56708" lon="-4.32631">
        <ele>73.400001525879</ele>
        <time>2022-08-07T07:08:35.000Z</time>
      </trkpt>
      <trkpt lat="48.56709" lon="-4.32623">
        <ele>73.199996948242</ele>
        <time>2022-08-07T07:08:36.000Z</time>
      </trkpt>
      <trkpt lat="48.56709" lon="-4.32615">
        <ele>73.199996948242</ele>
        <time>2022-08-07T07:08:37.000Z</time>
      </trkpt>
      <trkpt lat="48.5671" lon="-4.32607">
        <ele>73</ele>
        <time>2022-08-07T07:08:38.000Z</time>
      </trkpt>
      <trkpt lat="48.56711" lon="-4.32599">
        <ele>72.800003051758</ele>
        <time>2022-08-07T07:08:39.000Z</time>
      </trkpt>
      <trkpt lat="48.56711" lon="-4.32591">
        <ele>72.800003051758</ele>
        <time>2022-08-07T07:08:40.000Z</time>
      </trkpt>
      <trkpt lat="48.56712" lon="-4.32583">
        <ele>72.599998474121</ele>
        <time>2022-08-07T07:08:41.000Z</time>
      </trkpt>
      <trkpt lat="48.56713" lon="-4.32576">
        <ele>72.599998474121</ele>
        <time>2022-08-07T07:08:42.000Z</time>
      </trkpt>
      <trkpt lat="48.56713" lon="-4.3257">
        <ele>72.599998474121</ele>
        <time>2022-08-07T07:08:43.000Z</time>
      </trkpt>
      <trkpt lat="48.56714" lon="-4.32564">
        <ele>72.599998474121</ele>
        <time>2022-08-07T07:08:44.000Z</time>
      </trkpt>
      <trkpt lat="48.56714" lon="-4.32559">
        <ele>72.400001525879</ele>
        <time>2022-08-07T07:08:45.000Z</time>
      </trkpt>
      <trkpt lat="48.56714" lon="-4.32554">
        <ele>72.400001525879</ele>
        <time>2022-08-07T07:08:46.000Z</time>
      </trkpt>
      <trkpt lat="48.56715" lon="-4.3255">
        <ele>72.199996948242</ele>
        <time>2022-08-07T07:08:47.000Z</time>
      </trkpt>
      <trkpt lat="48.56715" lon="-4.32547">
        <ele>72</ele>
        <time>2022-08-07T07:08:48.000Z</time>
      </trkpt>
      <trkpt lat="48.56715" lon="-4.32545">
        <ele>72</ele>
        <time>2022-08-07T07:08:49.000Z</time>
      </trkpt>
      <trkpt lat="48.56715" lon="-4.32543">
        <ele>72</ele>
        <time>2022-08-07T07:08:50.000Z</time>
      </trkpt>
      <trkpt lat="48.56715" lon="-4.32539">
        <ele>71.800003051758</ele>
        <time>2022-08-07T07:08:51.000Z</time>
      </trkpt>
      <trkpt lat="48.56716" lon="-4.32536">
        <ele>71.599998474121</ele>
        <time>2022-08-07T07:08:52.000Z</time>
      </trkpt>
      <trkpt lat="48.56716" lon="-4.32532">
        <ele>71.400001525879</ele>
        <time>2022-08-07T07:08:53.000Z</time>
      </trkpt>
      <trkpt lat="48.56717" lon="-4.32527">
        <ele>71.199996948242</ele>
        <time>2022-08-07T07:08:54.000Z</time>
      </trkpt>
      <trkpt lat="48.56718" lon="-4.32522">
        <ele>71.199996948242</ele>
        <time>2022-08-07T07:08:55.000Z</time>
      </trkpt>
      <trkpt lat="48.56719" lon="-4.32516">
        <ele>71.199996948242</ele>
        <time>2022-08-07T07:08:56.000Z</time>
      </trkpt>
      <trkpt lat="48.56719" lon="-4.32509">
        <ele>71.199996948242</ele>
        <time>2022-08-07T07:08:57.000Z</time>
      </trkpt>
      <trkpt lat="48.5672" lon="-4.32502">
        <ele>71.199996948242</ele>
        <time>2022-08-07T07:08:58.000Z</time>
      </trkpt>
      <trkpt lat="48.56721" lon="-4.32494">
        <ele>71.199996948242</ele>
        <time>2022-08-07T07:08:59.000Z</time>
      </trkpt>
      <trkpt lat="48.56721" lon="-4.32487">
        <ele>71.199996948242</ele>
        <time>2022-08-07T07:09:00.000Z</time>
      </trkpt>
      <trkpt lat="48.56722" lon="-4.3248">
        <ele>71.199996948242</ele>
        <time>2022-08-07T07:09:01.000Z</time>
      </trkpt>
      <trkpt lat="48.56723" lon="-4.32473">
        <ele>71.199996948242</ele>
        <time>2022-08-07T07:09:02.000Z</time>
      </trkpt>
      <trkpt lat="48.56724" lon="-4.32465">
        <ele>71.199996948242</ele>
        <time>2022-08-07T07:09:03.000Z</time>
      </trkpt>
      <trkpt lat="48.56724" lon="-4.32458">
        <ele>71.199996948242</ele>
        <time>2022-08-07T07:09:04.000Z</time>
      </trkpt>
      <trkpt lat="48.56725" lon="-4.3245">
        <ele>71.199996948242</ele>
        <time>2022-08-07T07:09:05.000Z</time>
      </trkpt>
      <trkpt lat="48.56725" lon="-4.32442">
        <ele>71.199996948242</ele>
        <time>2022-08-07T07:09:06.000Z</time>
      </trkpt>
      <trkpt lat="48.56726" lon="-4.32434">
        <ele>71.199996948242</ele>
        <time>2022-08-07T07:09:07.000Z</time>
      </trkpt>
      <trkpt lat="48.56727" lon="-4.32425">
        <ele>71.199996948242</ele>
        <time>2022-08-07T07:09:08.000Z</time>
      </trkpt>
      <trkpt lat="48.56728" lon="-4.32417">
        <ele>71</ele>
        <time>2022-08-07T07:09:09.000Z</time>
      </trkpt>
      <trkpt lat="48.56728" lon="-4.32409">
        <ele>70.800003051758</ele>
        <time>2022-08-07T07:09:10.000Z</time>
      </trkpt>
      <trkpt lat="48.56729" lon="-4.32401">
        <ele>70.800003051758</ele>
        <time>2022-08-07T07:09:11.000Z</time>
      </trkpt>
      <trkpt lat="48.5673" lon="-4.32392">
        <ele>70.800003051758</ele>
        <time>2022-08-07T07:09:12.000Z</time>
      </trkpt>
      <trkpt lat="48.5673" lon="-4.32384">
        <ele>70.800003051758</ele>
        <time>2022-08-07T07:09:13.000Z</time>
      </trkpt>
      <trkpt lat="48.56731" lon="-4.32376">
        <ele>70.599998474121</ele>
        <time>2022-08-07T07:09:14.000Z</time>
      </trkpt>
      <trkpt lat="48.56732" lon="-4.32368">
        <ele>70.599998474121</ele>
        <time>2022-08-07T07:09:15.000Z</time>
      </trkpt>
      <trkpt lat="48.56732" lon="-4.32359">
        <ele>70.599998474121</ele>
        <time>2022-08-07T07:09:16.000Z</time>
      </trkpt>
      <trkpt lat="48.56733" lon="-4.32351">
        <ele>70.400001525879</ele>
        <time>2022-08-07T07:09:17.000Z</time>
      </trkpt>
      <trkpt lat="48.56734" lon="-4.32343">
        <ele>70.400001525879</ele>
        <time>2022-08-07T07:09:18.000Z</time>
      </trkpt>
      <trkpt lat="48.56735" lon="-4.32335">
        <ele>70.400001525879</ele>
        <time>2022-08-07T07:09:19.000Z</time>
      </trkpt>
      <trkpt lat="48.56736" lon="-4.32327">
        <ele>70.400001525879</ele>
        <time>2022-08-07T07:09:20.000Z</time>
      </trkpt>
      <trkpt lat="48.56737" lon="-4.32318">
        <ele>70.199996948242</ele>
        <time>2022-08-07T07:09:21.000Z</time>
      </trkpt>
      <trkpt lat="48.56738" lon="-4.3231">
        <ele>70.199996948242</ele>
        <time>2022-08-07T07:09:22.000Z</time>
      </trkpt>
      <trkpt lat="48.56739" lon="-4.32302">
        <ele>70</ele>
        <time>2022-08-07T07:09:23.000Z</time>
      </trkpt>
      <trkpt lat="48.56741" lon="-4.32295">
        <ele>70</ele>
        <time>2022-08-07T07:09:24.000Z</time>
      </trkpt>
      <trkpt lat="48.56743" lon="-4.32289">
        <ele>69.800003051758</ele>
        <time>2022-08-07T07:09:25.000Z</time>
      </trkpt>
      <trkpt lat="48.56746" lon="-4.32284">
        <ele>69.599998474121</ele>
        <time>2022-08-07T07:09:26.000Z</time>
      </trkpt>
      <trkpt lat="48.56749" lon="-4.32281">
        <ele>69.599998474121</ele>
        <time>2022-08-07T07:09:27.000Z</time>
      </trkpt>
      <trkpt lat="48.56753" lon="-4.32279">
        <ele>69.599998474121</ele>
        <time>2022-08-07T07:09:28.000Z</time>
      </trkpt>
      <trkpt lat="48.56756" lon="-4.32275">
        <ele>69.400001525879</ele>
        <time>2022-08-07T07:09:29.000Z</time>
      </trkpt>
      <trkpt lat="48.56759" lon="-4.3227">
        <ele>69.199996948242</ele>
        <time>2022-08-07T07:09:30.000Z</time>
      </trkpt>
      <trkpt lat="48.56761" lon="-4.32265">
        <ele>69.199996948242</ele>
        <time>2022-08-07T07:09:31.000Z</time>
      </trkpt>
      <trkpt lat="48.56764" lon="-4.32258">
        <ele>69.199996948242</ele>
        <time>2022-08-07T07:09:32.000Z</time>
      </trkpt>
      <trkpt lat="48.56767" lon="-4.32252">
        <ele>69</ele>
        <time>2022-08-07T07:09:33.000Z</time>
      </trkpt>
      <trkpt lat="48.56769" lon="-4.32246">
        <ele>69</ele>
        <time>2022-08-07T07:09:34.000Z</time>
      </trkpt>
      <trkpt lat="48.56771" lon="-4.32239">
        <ele>69</ele>
        <time>2022-08-07T07:09:35.000Z</time>
      </trkpt>
      <trkpt lat="48.56773" lon="-4.32232">
        <ele>68.800003051758</ele>
        <time>2022-08-07T07:09:36.000Z</time>
      </trkpt>
      <trkpt lat="48.56774" lon="-4.32226">
        <ele>68.800003051758</ele>
        <time>2022-08-07T07:09:37.000Z</time>
      </trkpt>
      <trkpt lat="48.56776" lon="-4.32219">
        <ele>68.800003051758</ele>
        <time>2022-08-07T07:09:38.000Z</time>
      </trkpt>
      <trkpt lat="48.56778" lon="-4.32213">
        <ele>68.599998474121</ele>
        <time>2022-08-07T07:09:39.000Z</time>
      </trkpt>
      <trkpt lat="48.5678" lon="-4.32206">
        <ele>68.599998474121</ele>
        <time>2022-08-07T07:09:40.000Z</time>
      </trkpt>
      <trkpt lat="48.56782" lon="-4.32198">
        <ele>68.599998474121</ele>
        <time>2022-08-07T07:09:41.000Z</time>
      </trkpt>
      <trkpt lat="48.56784" lon="-4.32191">
        <ele>68.400001525879</ele>
        <time>2022-08-07T07:09:42.000Z</time>
      </trkpt>
      <trkpt lat="48.56786" lon="-4.32184">
        <ele>68.400001525879</ele>
        <time>2022-08-07T07:09:43.000Z</time>
      </trkpt>
      <trkpt lat="48.56787" lon="-4.32177">
        <ele>68.199996948242</ele>
        <time>2022-08-07T07:09:44.000Z</time>
      </trkpt>
      <trkpt lat="48.56789" lon="-4.3217">
        <ele>68.199996948242</ele>
        <time>2022-08-07T07:09:45.000Z</time>
      </trkpt>
      <trkpt lat="48.56792" lon="-4.32163">
        <ele>68</ele>
        <time>2022-08-07T07:09:46.000Z</time>
      </trkpt>
      <trkpt lat="48.56794" lon="-4.32155">
        <ele>68</ele>
        <time>2022-08-07T07:09:47.000Z</time>
      </trkpt>
      <trkpt lat="48.56797" lon="-4.32147">
        <ele>67.800003051758</ele>
        <time>2022-08-07T07:09:48.000Z</time>
      </trkpt>
      <trkpt lat="48.56799" lon="-4.3214">
        <ele>67.800003051758</ele>
        <time>2022-08-07T07:09:49.000Z</time>
      </trkpt>
      <trkpt lat="48.56802" lon="-4.32133">
        <ele>67.800003051758</ele>
        <time>2022-08-07T07:09:50.000Z</time>
      </trkpt>
      <trkpt lat="48.56805" lon="-4.32126">
        <ele>67.599998474121</ele>
        <time>2022-08-07T07:09:51.000Z</time>
      </trkpt>
      <trkpt lat="48.56808" lon="-4.32119">
        <ele>67.599998474121</ele>
        <time>2022-08-07T07:09:52.000Z</time>
      </trkpt>
      <trkpt lat="48.56811" lon="-4.32113">
        <ele>67.599998474121</ele>
        <time>2022-08-07T07:09:53.000Z</time>
      </trkpt>
      <trkpt lat="48.56813" lon="-4.32106">
        <ele>67.599998474121</ele>
        <time>2022-08-07T07:09:54.000Z</time>
      </trkpt>
      <trkpt lat="48.56816" lon="-4.32099">
        <ele>67.599998474121</ele>
        <time>2022-08-07T07:09:55.000Z</time>
      </trkpt>
      <trkpt lat="48.56818" lon="-4.32093">
        <ele>67.599998474121</ele>
        <time>2022-08-07T07:09:56.000Z</time>
      </trkpt>
      <trkpt lat="48.5682" lon="-4.32086">
        <ele>67.400001525879</ele>
        <time>2022-08-07T07:09:57.000Z</time>
      </trkpt>
      <trkpt lat="48.56823" lon="-4.3208">
        <ele>67.400001525879</ele>
        <time>2022-08-07T07:09:58.000Z</time>
      </trkpt>
      <trkpt lat="48.56825" lon="-4.32074">
        <ele>67.400001525879</ele>
        <time>2022-08-07T07:09:59.000Z</time>
      </trkpt>
      <trkpt lat="48.56826" lon="-4.32068">
        <ele>67.400001525879</ele>
        <time>2022-08-07T07:10:00.000Z</time>
      </trkpt>
      <trkpt lat="48.56826" lon="-4.32063">
        <ele>67.400001525879</ele>
        <time>2022-08-07T07:10:01.000Z</time>
      </trkpt>
      <trkpt lat="48.56824" lon="-4.32058">
        <ele>67.199996948242</ele>
        <time>2022-08-07T07:10:02.000Z</time>
      </trkpt>
      <trkpt lat="48.56821" lon="-4.32055">
        <ele>67.199996948242</ele>
        <time>2022-08-07T07:10:03.000Z</time>
      </trkpt>
      <trkpt lat="48.56817" lon="-4.32052">
        <ele>67.199996948242</ele>
        <time>2022-08-07T07:10:04.000Z</time>
      </trkpt>
      <trkpt lat="48.56812" lon="-4.32049">
        <ele>67</ele>
        <time>2022-08-07T07:10:05.000Z</time>
      </trkpt>
      <trkpt lat="48.56808" lon="-4.32045">
        <ele>66.800003051758</ele>
        <time>2022-08-07T07:10:06.000Z</time>
      </trkpt>
      <trkpt lat="48.56803" lon="-4.32041">
        <ele>66.800003051758</ele>
        <time>2022-08-07T07:10:07.000Z</time>
      </trkpt>
      <trkpt lat="48.568" lon="-4.32037">
        <ele>66.599998474121</ele>
        <time>2022-08-07T07:10:08.000Z</time>
      </trkpt>
      <trkpt lat="48.56797" lon="-4.32032">
        <ele>66.599998474121</ele>
        <time>2022-08-07T07:10:09.000Z</time>
      </trkpt>
      <trkpt lat="48.56796" lon="-4.32026">
        <ele>66.599998474121</ele>
        <time>2022-08-07T07:10:10.000Z</time>
      </trkpt>
      <trkpt lat="48.56796" lon="-4.32021">
        <ele>66.599998474121</ele>
        <time>2022-08-07T07:10:11.000Z</time>
      </trkpt>
      <trkpt lat="48.56797" lon="-4.32016">
        <ele>66.599998474121</ele>
        <time>2022-08-07T07:10:12.000Z</time>
      </trkpt>
      <trkpt lat="48.56798" lon="-4.32013">
        <ele>66.599998474121</ele>
        <time>2022-08-07T07:10:13.000Z</time>
      </trkpt>
      <trkpt lat="48.56799" lon="-4.3201">
        <ele>66.599998474121</ele>
        <time>2022-08-07T07:10:14.000Z</time>
      </trkpt>
      <trkpt lat="48.56801" lon="-4.32009">
        <ele>66.599998474121</ele>
        <time>2022-08-07T07:10:15.000Z</time>
      </trkpt>
      <trkpt lat="48.56802" lon="-4.32007">
        <ele>66.599998474121</ele>
        <time>2022-08-07T07:10:16.000Z</time>
      </trkpt>
      <trkpt lat="48.56804" lon="-4.32004">
        <ele>66.400001525879</ele>
        <time>2022-08-07T07:10:17.000Z</time>
      </trkpt>
      <trkpt lat="48.56807" lon="-4.31999">
        <ele>66.400001525879</ele>
        <time>2022-08-07T07:10:18.000Z</time>
      </trkpt>
      <trkpt lat="48.5681" lon="-4.31994">
        <ele>66.400001525879</ele>
        <time>2022-08-07T07:10:19.000Z</time>
      </trkpt>
      <trkpt lat="48.56814" lon="-4.31989">
        <ele>66.400001525879</ele>
        <time>2022-08-07T07:10:20.000Z</time>
      </trkpt>
      <trkpt lat="48.56818" lon="-4.31984">
        <ele>66.199996948242</ele>
        <time>2022-08-07T07:10:21.000Z</time>
      </trkpt>
      <trkpt lat="48.56822" lon="-4.31979">
        <ele>66.199996948242</ele>
        <time>2022-08-07T07:10:22.000Z</time>
      </trkpt>
      <trkpt lat="48.56826" lon="-4.31974">
        <ele>66.199996948242</ele>
        <time>2022-08-07T07:10:23.000Z</time>
      </trkpt>
      <trkpt lat="48.56829" lon="-4.31969">
        <ele>66.199996948242</ele>
        <time>2022-08-07T07:10:24.000Z</time>
      </trkpt>
      <trkpt lat="48.56833" lon="-4.31965">
        <ele>66.199996948242</ele>
        <time>2022-08-07T07:10:25.000Z</time>
      </trkpt>
      <trkpt lat="48.56836" lon="-4.3196">
        <ele>66.199996948242</ele>
        <time>2022-08-07T07:10:26.000Z</time>
      </trkpt>
      <trkpt lat="48.56839" lon="-4.31956">
        <ele>66.199996948242</ele>
        <time>2022-08-07T07:10:27.000Z</time>
      </trkpt>
      <trkpt lat="48.56843" lon="-4.31952">
        <ele>66.199996948242</ele>
        <time>2022-08-07T07:10:28.000Z</time>
      </trkpt>
      <trkpt lat="48.56846" lon="-4.31949">
        <ele>66.199996948242</ele>
        <time>2022-08-07T07:10:29.000Z</time>
      </trkpt>
      <trkpt lat="48.5685" lon="-4.31947">
        <ele>66.199996948242</ele>
        <time>2022-08-07T07:10:30.000Z</time>
      </trkpt>
      <trkpt lat="48.56853" lon="-4.31948">
        <ele>66.199996948242</ele>
        <time>2022-08-07T07:10:31.000Z</time>
      </trkpt>
      <trkpt lat="48.56857" lon="-4.31952">
        <ele>66</ele>
        <time>2022-08-07T07:10:32.000Z</time>
      </trkpt>
      <trkpt lat="48.5686" lon="-4.31956">
        <ele>66</ele>
        <time>2022-08-07T07:10:33.000Z</time>
      </trkpt>
      <trkpt lat="48.56863" lon="-4.3196">
        <ele>66</ele>
        <time>2022-08-07T07:10:34.000Z</time>
      </trkpt>
      <trkpt lat="48.56867" lon="-4.31962">
        <ele>66</ele>
        <time>2022-08-07T07:10:35.000Z</time>
      </trkpt>
      <trkpt lat="48.5687" lon="-4.31963">
        <ele>66</ele>
        <time>2022-08-07T07:10:36.000Z</time>
      </trkpt>
      <trkpt lat="48.56874" lon="-4.31961">
        <ele>66</ele>
        <time>2022-08-07T07:10:37.000Z</time>
      </trkpt>
      <trkpt lat="48.56878" lon="-4.31958">
        <ele>66</ele>
        <time>2022-08-07T07:10:38.000Z</time>
      </trkpt>
      <trkpt lat="48.56882" lon="-4.31955">
        <ele>65.800003051758</ele>
        <time>2022-08-07T07:10:39.000Z</time>
      </trkpt>
      <trkpt lat="48.56885" lon="-4.31952">
        <ele>65.800003051758</ele>
        <time>2022-08-07T07:10:40.000Z</time>
      </trkpt>
      <trkpt lat="48.56889" lon="-4.31948">
        <ele>65.800003051758</ele>
        <time>2022-08-07T07:10:41.000Z</time>
      </trkpt>
      <trkpt lat="48.56893" lon="-4.31944">
        <ele>65.800003051758</ele>
        <time>2022-08-07T07:10:42.000Z</time>
      </trkpt>
      <trkpt lat="48.56896" lon="-4.3194">
        <ele>65.800003051758</ele>
        <time>2022-08-07T07:10:43.000Z</time>
      </trkpt>
      <trkpt lat="48.56899" lon="-4.31935">
        <ele>65.800003051758</ele>
        <time>2022-08-07T07:10:44.000Z</time>
      </trkpt>
      <trkpt lat="48.56902" lon="-4.31929">
        <ele>65.800003051758</ele>
        <time>2022-08-07T07:10:45.000Z</time>
      </trkpt>
      <trkpt lat="48.56904" lon="-4.31924">
        <ele>65.800003051758</ele>
        <time>2022-08-07T07:10:46.000Z</time>
      </trkpt>
      <trkpt lat="48.56906" lon="-4.31919">
        <ele>65.599998474121</ele>
        <time>2022-08-07T07:10:47.000Z</time>
      </trkpt>
      <trkpt lat="48.56908" lon="-4.31915">
        <ele>65.599998474121</ele>
        <time>2022-08-07T07:10:48.000Z</time>
      </trkpt>
      <trkpt lat="48.56909" lon="-4.31912">
        <ele>65.599998474121</ele>
        <time>2022-08-07T07:10:49.000Z</time>
      </trkpt>
      <trkpt lat="48.5691" lon="-4.3191">
        <ele>65.400001525879</ele>
        <time>2022-08-07T07:10:50.000Z</time>
      </trkpt>
      <trkpt lat="48.56912" lon="-4.31909">
        <ele>65.400001525879</ele>
        <time>2022-08-07T07:10:51.000Z</time>
      </trkpt>
      <trkpt lat="48.56915" lon="-4.31908">
        <ele>65.199996948242</ele>
        <time>2022-08-07T07:10:52.000Z</time>
      </trkpt>
      <trkpt lat="48.56918" lon="-4.31907">
        <ele>65.199996948242</ele>
        <time>2022-08-07T07:10:53.000Z</time>
      </trkpt>
      <trkpt lat="48.56922" lon="-4.31905">
        <ele>65</ele>
        <time>2022-08-07T07:10:54.000Z</time>
      </trkpt>
      <trkpt lat="48.56926" lon="-4.31903">
        <ele>65</ele>
        <time>2022-08-07T07:10:55.000Z</time>
      </trkpt>
      <trkpt lat="48.5693" lon="-4.31901">
        <ele>64.800003051758</ele>
        <time>2022-08-07T07:10:56.000Z</time>
      </trkpt>
      <trkpt lat="48.56934" lon="-4.31899">
        <ele>64.800003051758</ele>
        <time>2022-08-07T07:10:57.000Z</time>
      </trkpt>
      <trkpt lat="48.56938" lon="-4.31897">
        <ele>64.800003051758</ele>
        <time>2022-08-07T07:10:58.000Z</time>
      </trkpt>
      <trkpt lat="48.56942" lon="-4.31895">
        <ele>64.599998474121</ele>
        <time>2022-08-07T07:10:59.000Z</time>
      </trkpt>
      <trkpt lat="48.56946" lon="-4.31891">
        <ele>64.599998474121</ele>
        <time>2022-08-07T07:11:00.000Z</time>
      </trkpt>
      <trkpt lat="48.56949" lon="-4.31888">
        <ele>64.599998474121</ele>
        <time>2022-08-07T07:11:01.000Z</time>
      </trkpt>
      <trkpt lat="48.56953" lon="-4.31884">
        <ele>64.599998474121</ele>
        <time>2022-08-07T07:11:02.000Z</time>
      </trkpt>
      <trkpt lat="48.56955" lon="-4.3188">
        <ele>64.400001525879</ele>
        <time>2022-08-07T07:11:03.000Z</time>
      </trkpt>
      <trkpt lat="48.56957" lon="-4.31875">
        <ele>64.400001525879</ele>
        <time>2022-08-07T07:11:04.000Z</time>
      </trkpt>
      <trkpt lat="48.5696" lon="-4.31869">
        <ele>64.400001525879</ele>
        <time>2022-08-07T07:11:05.000Z</time>
      </trkpt>
      <trkpt lat="48.56962" lon="-4.31864">
        <ele>64.199996948242</ele>
        <time>2022-08-07T07:11:06.000Z</time>
      </trkpt>
      <trkpt lat="48.56965" lon="-4.31859">
        <ele>64</ele>
        <time>2022-08-07T07:11:07.000Z</time>
      </trkpt>
      <trkpt lat="48.56968" lon="-4.31855">
        <ele>64</ele>
        <time>2022-08-07T07:11:08.000Z</time>
      </trkpt>
      <trkpt lat="48.56971" lon="-4.31852">
        <ele>64</ele>
        <time>2022-08-07T07:11:09.000Z</time>
      </trkpt>
      <trkpt lat="48.56974" lon="-4.31849">
        <ele>63.799999237061</ele>
        <time>2022-08-07T07:11:10.000Z</time>
      </trkpt>
      <trkpt lat="48.56977" lon="-4.31846">
        <ele>63.799999237061</ele>
        <time>2022-08-07T07:11:11.000Z</time>
      </trkpt>
      <trkpt lat="48.56978" lon="-4.31842">
        <ele>63.799999237061</ele>
        <time>2022-08-07T07:11:12.000Z</time>
      </trkpt>
      <trkpt lat="48.56977" lon="-4.31837">
        <ele>63.599998474121</ele>
        <time>2022-08-07T07:11:13.000Z</time>
      </trkpt>
      <trkpt lat="48.56976" lon="-4.31832">
        <ele>63.599998474121</ele>
        <time>2022-08-07T07:11:14.000Z</time>
      </trkpt>
      <trkpt lat="48.56974" lon="-4.31827">
        <ele>63.599998474121</ele>
        <time>2022-08-07T07:11:15.000Z</time>
      </trkpt>
      <trkpt lat="48.56973" lon="-4.31821">
        <ele>63.599998474121</ele>
        <time>2022-08-07T07:11:16.000Z</time>
      </trkpt>
      <trkpt lat="48.56971" lon="-4.31815">
        <ele>63.599998474121</ele>
        <time>2022-08-07T07:11:17.000Z</time>
      </trkpt>
      <trkpt lat="48.56969" lon="-4.31808">
        <ele>63.599998474121</ele>
        <time>2022-08-07T07:11:18.000Z</time>
      </trkpt>
      <trkpt lat="48.56967" lon="-4.31803">
        <ele>63.599998474121</ele>
        <time>2022-08-07T07:11:19.000Z</time>
      </trkpt>
      <trkpt lat="48.56964" lon="-4.31797">
        <ele>63.599998474121</ele>
        <time>2022-08-07T07:11:20.000Z</time>
      </trkpt>
      <trkpt lat="48.56962" lon="-4.31791">
        <ele>63.599998474121</ele>
        <time>2022-08-07T07:11:21.000Z</time>
      </trkpt>
      <trkpt lat="48.5696" lon="-4.31788">
        <ele>63.599998474121</ele>
        <time>2022-08-07T07:11:22.000Z</time>
      </trkpt>
      <trkpt lat="48.56957" lon="-4.31782">
        <ele>63.599998474121</ele>
        <time>2022-08-07T07:11:23.000Z</time>
      </trkpt>
      <trkpt lat="48.56954" lon="-4.31778">
        <ele>63.599998474121</ele>
        <time>2022-08-07T07:11:24.000Z</time>
      </trkpt>
      <trkpt lat="48.56952" lon="-4.31772">
        <ele>63.799999237061</ele>
        <time>2022-08-07T07:11:25.000Z</time>
      </trkpt>
      <trkpt lat="48.5695" lon="-4.31767">
        <ele>63.799999237061</ele>
        <time>2022-08-07T07:11:26.000Z</time>
      </trkpt>
      <trkpt lat="48.5695" lon="-4.31761">
        <ele>63.799999237061</ele>
        <time>2022-08-07T07:11:27.000Z</time>
      </trkpt>
      <trkpt lat="48.56951" lon="-4.31754">
        <ele>63.799999237061</ele>
        <time>2022-08-07T07:11:28.000Z</time>
      </trkpt>
      <trkpt lat="48.56951" lon="-4.31748">
        <ele>64</ele>
        <time>2022-08-07T07:11:29.000Z</time>
      </trkpt>
      <trkpt lat="48.5695" lon="-4.31742">
        <ele>64.199996948242</ele>
        <time>2022-08-07T07:11:30.000Z</time>
      </trkpt>
      <trkpt lat="48.56949" lon="-4.31736">
        <ele>64.199996948242</ele>
        <time>2022-08-07T07:11:31.000Z</time>
      </trkpt>
      <trkpt lat="48.5695" lon="-4.3173">
        <ele>64.400001525879</ele>
        <time>2022-08-07T07:11:32.000Z</time>
      </trkpt>
      <trkpt lat="48.56952" lon="-4.31724">
        <ele>64.400001525879</ele>
        <time>2022-08-07T07:11:33.000Z</time>
      </trkpt>
      <trkpt lat="48.56954" lon="-4.31718">
        <ele>64.400001525879</ele>
        <time>2022-08-07T07:11:34.000Z</time>
      </trkpt>
      <trkpt lat="48.56956" lon="-4.31712">
        <ele>64.599998474121</ele>
        <time>2022-08-07T07:11:35.000Z</time>
      </trkpt>
      <trkpt lat="48.56957" lon="-4.31706">
        <ele>64.599998474121</ele>
        <time>2022-08-07T07:11:36.000Z</time>
      </trkpt>
      <trkpt lat="48.56957" lon="-4.31699">
        <ele>64.599998474121</ele>
        <time>2022-08-07T07:11:37.000Z</time>
      </trkpt>
      <trkpt lat="48.56957" lon="-4.31692">
        <ele>64.599998474121</ele>
        <time>2022-08-07T07:11:38.000Z</time>
      </trkpt>
      <trkpt lat="48.56957" lon="-4.31685">
        <ele>64.800003051758</ele>
        <time>2022-08-07T07:11:39.000Z</time>
      </trkpt>
      <trkpt lat="48.56957" lon="-4.31678">
        <ele>64.800003051758</ele>
        <time>2022-08-07T07:11:40.000Z</time>
      </trkpt>
      <trkpt lat="48.56957" lon="-4.31671">
        <ele>65</ele>
        <time>2022-08-07T07:11:41.000Z</time>
      </trkpt>
      <trkpt lat="48.56956" lon="-4.31663">
        <ele>65</ele>
        <time>2022-08-07T07:11:42.000Z</time>
      </trkpt>
      <trkpt lat="48.56955" lon="-4.31656">
        <ele>65</ele>
        <time>2022-08-07T07:11:43.000Z</time>
      </trkpt>
      <trkpt lat="48.56954" lon="-4.31649">
        <ele>65</ele>
        <time>2022-08-07T07:11:44.000Z</time>
      </trkpt>
      <trkpt lat="48.56953" lon="-4.31642">
        <ele>65</ele>
        <time>2022-08-07T07:11:45.000Z</time>
      </trkpt>
      <trkpt lat="48.56952" lon="-4.31634">
        <ele>65.199996948242</ele>
        <time>2022-08-07T07:11:46.000Z</time>
      </trkpt>
      <trkpt lat="48.56951" lon="-4.31628">
        <ele>65.199996948242</ele>
        <time>2022-08-07T07:11:47.000Z</time>
      </trkpt>
      <trkpt lat="48.5695" lon="-4.31621">
        <ele>65.199996948242</ele>
        <time>2022-08-07T07:11:48.000Z</time>
      </trkpt>
      <trkpt lat="48.56949" lon="-4.31614">
        <ele>65.400001525879</ele>
        <time>2022-08-07T07:11:49.000Z</time>
      </trkpt>
      <trkpt lat="48.56948" lon="-4.31607">
        <ele>65.400001525879</ele>
        <time>2022-08-07T07:11:50.000Z</time>
      </trkpt>
      <trkpt lat="48.56946" lon="-4.316">
        <ele>65.400001525879</ele>
        <time>2022-08-07T07:11:51.000Z</time>
      </trkpt>
      <trkpt lat="48.56945" lon="-4.31593">
        <ele>65.400001525879</ele>
        <time>2022-08-07T07:11:52.000Z</time>
      </trkpt>
      <trkpt lat="48.56944" lon="-4.31585">
        <ele>65.599998474121</ele>
        <time>2022-08-07T07:11:53.000Z</time>
      </trkpt>
      <trkpt lat="48.56944" lon="-4.31578">
        <ele>65.800003051758</ele>
        <time>2022-08-07T07:11:54.000Z</time>
      </trkpt>
      <trkpt lat="48.56943" lon="-4.31571">
        <ele>66</ele>
        <time>2022-08-07T07:11:55.000Z</time>
      </trkpt>
      <trkpt lat="48.56944" lon="-4.31563">
        <ele>66.199996948242</ele>
        <time>2022-08-07T07:11:56.000Z</time>
      </trkpt>
      <trkpt lat="48.56944" lon="-4.31556">
        <ele>66.400001525879</ele>
        <time>2022-08-07T07:11:57.000Z</time>
      </trkpt>
      <trkpt lat="48.56945" lon="-4.31549">
        <ele>66.400001525879</ele>
        <time>2022-08-07T07:11:58.000Z</time>
      </trkpt>
      <trkpt lat="48.56947" lon="-4.31542">
        <ele>66.599998474121</ele>
        <time>2022-08-07T07:11:59.000Z</time>
      </trkpt>
      <trkpt lat="48.56948" lon="-4.31536">
        <ele>66.800003051758</ele>
        <time>2022-08-07T07:12:00.000Z</time>
      </trkpt>
      <trkpt lat="48.56949" lon="-4.31529">
        <ele>67</ele>
        <time>2022-08-07T07:12:01.000Z</time>
      </trkpt>
      <trkpt lat="48.56951" lon="-4.31522">
        <ele>67.199996948242</ele>
        <time>2022-08-07T07:12:02.000Z</time>
      </trkpt>
      <trkpt lat="48.56952" lon="-4.31516">
        <ele>67.199996948242</ele>
        <time>2022-08-07T07:12:03.000Z</time>
      </trkpt>
      <trkpt lat="48.56953" lon="-4.31509">
        <ele>67.400001525879</ele>
        <time>2022-08-07T07:12:04.000Z</time>
      </trkpt>
      <trkpt lat="48.56955" lon="-4.31502">
        <ele>67.400001525879</ele>
        <time>2022-08-07T07:12:05.000Z</time>
      </trkpt>
      <trkpt lat="48.56956" lon="-4.31495">
        <ele>67.400001525879</ele>
        <time>2022-08-07T07:12:06.000Z</time>
      </trkpt>
      <trkpt lat="48.56958" lon="-4.31489">
        <ele>67.599998474121</ele>
        <time>2022-08-07T07:12:07.000Z</time>
      </trkpt>
      <trkpt lat="48.56959" lon="-4.31482">
        <ele>67.599998474121</ele>
        <time>2022-08-07T07:12:08.000Z</time>
      </trkpt>
      <trkpt lat="48.5696" lon="-4.31476">
        <ele>67.599998474121</ele>
        <time>2022-08-07T07:12:09.000Z</time>
      </trkpt>
      <trkpt lat="48.56961" lon="-4.31469">
        <ele>67.800003051758</ele>
        <time>2022-08-07T07:12:10.000Z</time>
      </trkpt>
      <trkpt lat="48.56962" lon="-4.31463">
        <ele>67.800003051758</ele>
        <time>2022-08-07T07:12:11.000Z</time>
      </trkpt>
      <trkpt lat="48.56963" lon="-4.31456">
        <ele>67.800003051758</ele>
        <time>2022-08-07T07:12:12.000Z</time>
      </trkpt>
      <trkpt lat="48.56962" lon="-4.3145">
        <ele>68</ele>
        <time>2022-08-07T07:12:13.000Z</time>
      </trkpt>
      <trkpt lat="48.56961" lon="-4.31444">
        <ele>68</ele>
        <time>2022-08-07T07:12:14.000Z</time>
      </trkpt>
      <trkpt lat="48.5696" lon="-4.31437">
        <ele>68.199996948242</ele>
        <time>2022-08-07T07:12:15.000Z</time>
      </trkpt>
      <trkpt lat="48.5696" lon="-4.3143">
        <ele>68.199996948242</ele>
        <time>2022-08-07T07:12:16.000Z</time>
      </trkpt>
      <trkpt lat="48.56959" lon="-4.31424">
        <ele>68.199996948242</ele>
        <time>2022-08-07T07:12:17.000Z</time>
      </trkpt>
      <trkpt lat="48.5696" lon="-4.31417">
        <ele>68.400001525879</ele>
        <time>2022-08-07T07:12:18.000Z</time>
      </trkpt>
      <trkpt lat="48.56961" lon="-4.3141">
        <ele>68.599998474121</ele>
        <time>2022-08-07T07:12:19.000Z</time>
      </trkpt>
      <trkpt lat="48.56962" lon="-4.31403">
        <ele>68.599998474121</ele>
        <time>2022-08-07T07:12:20.000Z</time>
      </trkpt>
      <trkpt lat="48.56963" lon="-4.31397">
        <ele>68.800003051758</ele>
        <time>2022-08-07T07:12:21.000Z</time>
      </trkpt>
      <trkpt lat="48.56965" lon="-4.3139">
        <ele>69</ele>
        <time>2022-08-07T07:12:22.000Z</time>
      </trkpt>
      <trkpt lat="48.56967" lon="-4.31384">
        <ele>69</ele>
        <time>2022-08-07T07:12:23.000Z</time>
      </trkpt>
      <trkpt lat="48.56969" lon="-4.31377">
        <ele>69</ele>
        <time>2022-08-07T07:12:24.000Z</time>
      </trkpt>
      <trkpt lat="48.5697" lon="-4.31371">
        <ele>69.199996948242</ele>
        <time>2022-08-07T07:12:25.000Z</time>
      </trkpt>
      <trkpt lat="48.56971" lon="-4.31364">
        <ele>69.199996948242</ele>
        <time>2022-08-07T07:12:26.000Z</time>
      </trkpt>
      <trkpt lat="48.56971" lon="-4.31358">
        <ele>69.199996948242</ele>
        <time>2022-08-07T07:12:27.000Z</time>
      </trkpt>
      <trkpt lat="48.56972" lon="-4.31351">
        <ele>69.400001525879</ele>
        <time>2022-08-07T07:12:28.000Z</time>
      </trkpt>
      <trkpt lat="48.56971" lon="-4.31344">
        <ele>69.400001525879</ele>
        <time>2022-08-07T07:12:29.000Z</time>
      </trkpt>
      <trkpt lat="48.56971" lon="-4.31337">
        <ele>69.599998474121</ele>
        <time>2022-08-07T07:12:30.000Z</time>
      </trkpt>
      <trkpt lat="48.56971" lon="-4.31331">
        <ele>69.599998474121</ele>
        <time>2022-08-07T07:12:31.000Z</time>
      </trkpt>
      <trkpt lat="48.5697" lon="-4.31323">
        <ele>69.800003051758</ele>
        <time>2022-08-07T07:12:32.000Z</time>
      </trkpt>
      <trkpt lat="48.5697" lon="-4.31315">
        <ele>69.800003051758</ele>
        <time>2022-08-07T07:12:33.000Z</time>
      </trkpt>
      <trkpt lat="48.56969" lon="-4.31308">
        <ele>69.800003051758</ele>
        <time>2022-08-07T07:12:34.000Z</time>
      </trkpt>
      <trkpt lat="48.56969" lon="-4.31301">
        <ele>69.800003051758</ele>
        <time>2022-08-07T07:12:35.000Z</time>
      </trkpt>
      <trkpt lat="48.56969" lon="-4.31294">
        <ele>69.800003051758</ele>
        <time>2022-08-07T07:12:36.000Z</time>
      </trkpt>
      <trkpt lat="48.56968" lon="-4.31286">
        <ele>70</ele>
        <time>2022-08-07T07:12:37.000Z</time>
      </trkpt>
      <trkpt lat="48.56968" lon="-4.31279">
        <ele>70</ele>
        <time>2022-08-07T07:12:38.000Z</time>
      </trkpt>
      <trkpt lat="48.56968" lon="-4.31272">
        <ele>70.199996948242</ele>
        <time>2022-08-07T07:12:39.000Z</time>
      </trkpt>
      <trkpt lat="48.56968" lon="-4.31265">
        <ele>70.199996948242</ele>
        <time>2022-08-07T07:12:40.000Z</time>
      </trkpt>
      <trkpt lat="48.56967" lon="-4.31258">
        <ele>70.400001525879</ele>
        <time>2022-08-07T07:12:41.000Z</time>
      </trkpt>
      <trkpt lat="48.56967" lon="-4.3125">
        <ele>70.400001525879</ele>
        <time>2022-08-07T07:12:42.000Z</time>
      </trkpt>
      <trkpt lat="48.56967" lon="-4.31243">
        <ele>70.400001525879</ele>
        <time>2022-08-07T07:12:43.000Z</time>
      </trkpt>
      <trkpt lat="48.56967" lon="-4.31235">
        <ele>70.400001525879</ele>
        <time>2022-08-07T07:12:44.000Z</time>
      </trkpt>
      <trkpt lat="48.56967" lon="-4.31228">
        <ele>70.400001525879</ele>
        <time>2022-08-07T07:12:45.000Z</time>
      </trkpt>
      <trkpt lat="48.56966" lon="-4.3122">
        <ele>70.400001525879</ele>
        <time>2022-08-07T07:12:46.000Z</time>
      </trkpt>
      <trkpt lat="48.56966" lon="-4.31213">
        <ele>70.599998474121</ele>
        <time>2022-08-07T07:12:47.000Z</time>
      </trkpt>
      <trkpt lat="48.56966" lon="-4.31206">
        <ele>70.599998474121</ele>
        <time>2022-08-07T07:12:48.000Z</time>
      </trkpt>
      <trkpt lat="48.56967" lon="-4.31198">
        <ele>70.599998474121</ele>
        <time>2022-08-07T07:12:49.000Z</time>
      </trkpt>
      <trkpt lat="48.56967" lon="-4.3119">
        <ele>70.599998474121</ele>
        <time>2022-08-07T07:12:50.000Z</time>
      </trkpt>
      <trkpt lat="48.56967" lon="-4.31183">
        <ele>70.599998474121</ele>
        <time>2022-08-07T07:12:51.000Z</time>
      </trkpt>
      <trkpt lat="48.56968" lon="-4.31175">
        <ele>70.800003051758</ele>
        <time>2022-08-07T07:12:52.000Z</time>
      </trkpt>
      <trkpt lat="48.56968" lon="-4.31168">
        <ele>70.800003051758</ele>
        <time>2022-08-07T07:12:53.000Z</time>
      </trkpt>
      <trkpt lat="48.56969" lon="-4.3116">
        <ele>70.800003051758</ele>
        <time>2022-08-07T07:12:54.000Z</time>
      </trkpt>
      <trkpt lat="48.5697" lon="-4.31153">
        <ele>70.800003051758</ele>
        <time>2022-08-07T07:12:55.000Z</time>
      </trkpt>
      <trkpt lat="48.5697" lon="-4.31145">
        <ele>70.800003051758</ele>
        <time>2022-08-07T07:12:56.000Z</time>
      </trkpt>
      <trkpt lat="48.56971" lon="-4.31138">
        <ele>70.800003051758</ele>
        <time>2022-08-07T07:12:57.000Z</time>
      </trkpt>
      <trkpt lat="48.56972" lon="-4.3113">
        <ele>70.800003051758</ele>
        <time>2022-08-07T07:12:58.000Z</time>
      </trkpt>
      <trkpt lat="48.56973" lon="-4.31122">
        <ele>70.800003051758</ele>
        <time>2022-08-07T07:12:59.000Z</time>
      </trkpt>
      <trkpt lat="48.56975" lon="-4.31115">
        <ele>70.800003051758</ele>
        <time>2022-08-07T07:13:00.000Z</time>
      </trkpt>
      <trkpt lat="48.56976" lon="-4.31108">
        <ele>70.800003051758</ele>
        <time>2022-08-07T07:13:01.000Z</time>
      </trkpt>
      <trkpt lat="48.56977" lon="-4.311">
        <ele>71</ele>
        <time>2022-08-07T07:13:02.000Z</time>
      </trkpt>
      <trkpt lat="48.56978" lon="-4.31093">
        <ele>71</ele>
        <time>2022-08-07T07:13:03.000Z</time>
      </trkpt>
      <trkpt lat="48.56978" lon="-4.31085">
        <ele>71</ele>
        <time>2022-08-07T07:13:04.000Z</time>
      </trkpt>
      <trkpt lat="48.56979" lon="-4.31078">
        <ele>71</ele>
        <time>2022-08-07T07:13:05.000Z</time>
      </trkpt>
      <trkpt lat="48.56979" lon="-4.3107">
        <ele>71</ele>
        <time>2022-08-07T07:13:06.000Z</time>
      </trkpt>
      <trkpt lat="48.56979" lon="-4.31063">
        <ele>71</ele>
        <time>2022-08-07T07:13:07.000Z</time>
      </trkpt>
      <trkpt lat="48.56979" lon="-4.31055">
        <ele>71</ele>
        <time>2022-08-07T07:13:08.000Z</time>
      </trkpt>
      <trkpt lat="48.5698" lon="-4.31047">
        <ele>71</ele>
        <time>2022-08-07T07:13:09.000Z</time>
      </trkpt>
      <trkpt lat="48.5698" lon="-4.3104">
        <ele>71.199996948242</ele>
        <time>2022-08-07T07:13:10.000Z</time>
      </trkpt>
      <trkpt lat="48.5698" lon="-4.31032">
        <ele>71.199996948242</ele>
        <time>2022-08-07T07:13:11.000Z</time>
      </trkpt>
      <trkpt lat="48.56981" lon="-4.31024">
        <ele>71.199996948242</ele>
        <time>2022-08-07T07:13:12.000Z</time>
      </trkpt>
      <trkpt lat="48.56981" lon="-4.31016">
        <ele>71.199996948242</ele>
        <time>2022-08-07T07:13:13.000Z</time>
      </trkpt>
      <trkpt lat="48.56981" lon="-4.31008">
        <ele>71.199996948242</ele>
        <time>2022-08-07T07:13:14.000Z</time>
      </trkpt>
      <trkpt lat="48.56982" lon="-4.31">
        <ele>71.199996948242</ele>
        <time>2022-08-07T07:13:15.000Z</time>
      </trkpt>
      <trkpt lat="48.56982" lon="-4.30992">
        <ele>71.199996948242</ele>
        <time>2022-08-07T07:13:16.000Z</time>
      </trkpt>
      <trkpt lat="48.56982" lon="-4.30984">
        <ele>71.199996948242</ele>
        <time>2022-08-07T07:13:17.000Z</time>
      </trkpt>
      <trkpt lat="48.56982" lon="-4.30976">
        <ele>71.199996948242</ele>
        <time>2022-08-07T07:13:18.000Z</time>
      </trkpt>
      <trkpt lat="48.56983" lon="-4.30968">
        <ele>71.199996948242</ele>
        <time>2022-08-07T07:13:19.000Z</time>
      </trkpt>
      <trkpt lat="48.56983" lon="-4.3096">
        <ele>71</ele>
        <time>2022-08-07T07:13:20.000Z</time>
      </trkpt>
      <trkpt lat="48.56983" lon="-4.30952">
        <ele>71</ele>
        <time>2022-08-07T07:13:21.000Z</time>
      </trkpt>
      <trkpt lat="48.56983" lon="-4.30944">
        <ele>71.199996948242</ele>
        <time>2022-08-07T07:13:22.000Z</time>
      </trkpt>
      <trkpt lat="48.56983" lon="-4.30936">
        <ele>71.199996948242</ele>
        <time>2022-08-07T07:13:23.000Z</time>
      </trkpt>
      <trkpt lat="48.56983" lon="-4.30928">
        <ele>71</ele>
        <time>2022-08-07T07:13:24.000Z</time>
      </trkpt>
      <trkpt lat="48.56983" lon="-4.3092">
        <ele>71</ele>
        <time>2022-08-07T07:13:25.000Z</time>
      </trkpt>
      <trkpt lat="48.56983" lon="-4.30912">
        <ele>71</ele>
        <time>2022-08-07T07:13:26.000Z</time>
      </trkpt>
      <trkpt lat="48.56983" lon="-4.30904">
        <ele>71</ele>
        <time>2022-08-07T07:13:27.000Z</time>
      </trkpt>
      <trkpt lat="48.56982" lon="-4.30896">
        <ele>71</ele>
        <time>2022-08-07T07:13:28.000Z</time>
      </trkpt>
      <trkpt lat="48.56982" lon="-4.30888">
        <ele>71</ele>
        <time>2022-08-07T07:13:29.000Z</time>
      </trkpt>
      <trkpt lat="48.56981" lon="-4.3088">
        <ele>71</ele>
        <time>2022-08-07T07:13:30.000Z</time>
      </trkpt>
      <trkpt lat="48.5698" lon="-4.30872">
        <ele>71</ele>
        <time>2022-08-07T07:13:31.000Z</time>
      </trkpt>
      <trkpt lat="48.56979" lon="-4.30864">
        <ele>71</ele>
        <time>2022-08-07T07:13:32.000Z</time>
      </trkpt>
      <trkpt lat="48.56978" lon="-4.30856">
        <ele>71</ele>
        <time>2022-08-07T07:13:33.000Z</time>
      </trkpt>
      <trkpt lat="48.56977" lon="-4.30848">
        <ele>71</ele>
        <time>2022-08-07T07:13:34.000Z</time>
      </trkpt>
      <trkpt lat="48.56976" lon="-4.30839">
        <ele>70.800003051758</ele>
        <time>2022-08-07T07:13:35.000Z</time>
      </trkpt>
      <trkpt lat="48.56975" lon="-4.30831">
        <ele>70.800003051758</ele>
        <time>2022-08-07T07:13:36.000Z</time>
      </trkpt>
      <trkpt lat="48.56974" lon="-4.30822">
        <ele>70.800003051758</ele>
        <time>2022-08-07T07:13:37.000Z</time>
      </trkpt>
      <trkpt lat="48.56973" lon="-4.30814">
        <ele>70.599998474121</ele>
        <time>2022-08-07T07:13:38.000Z</time>
      </trkpt>
      <trkpt lat="48.56972" lon="-4.30806">
        <ele>70.599998474121</ele>
        <time>2022-08-07T07:13:39.000Z</time>
      </trkpt>
      <trkpt lat="48.56972" lon="-4.30798">
        <ele>70.400001525879</ele>
        <time>2022-08-07T07:13:40.000Z</time>
      </trkpt>
      <trkpt lat="48.56972" lon="-4.3079">
        <ele>70.400001525879</ele>
        <time>2022-08-07T07:13:41.000Z</time>
      </trkpt>
      <trkpt lat="48.56972" lon="-4.30782">
        <ele>70.199996948242</ele>
        <time>2022-08-07T07:13:42.000Z</time>
      </trkpt>
      <trkpt lat="48.56973" lon="-4.30774">
        <ele>70.199996948242</ele>
        <time>2022-08-07T07:13:43.000Z</time>
      </trkpt>
      <trkpt lat="48.56975" lon="-4.30767">
        <ele>70</ele>
        <time>2022-08-07T07:13:44.000Z</time>
      </trkpt>
      <trkpt lat="48.56977" lon="-4.30762">
        <ele>70</ele>
        <time>2022-08-07T07:13:45.000Z</time>
      </trkpt>
      <trkpt lat="48.5698" lon="-4.30754">
        <ele>70</ele>
        <time>2022-08-07T07:13:46.000Z</time>
      </trkpt>
      <trkpt lat="48.56983" lon="-4.30747">
        <ele>70</ele>
        <time>2022-08-07T07:13:47.000Z</time>
      </trkpt>
      <trkpt lat="48.56986" lon="-4.30741">
        <ele>70</ele>
        <time>2022-08-07T07:13:48.000Z</time>
      </trkpt>
      <trkpt lat="48.56989" lon="-4.30735">
        <ele>69.800003051758</ele>
        <time>2022-08-07T07:13:49.000Z</time>
      </trkpt>
      <trkpt lat="48.56992" lon="-4.30728">
        <ele>69.800003051758</ele>
        <time>2022-08-07T07:13:50.000Z</time>
      </trkpt>
      <trkpt lat="48.56995" lon="-4.30722">
        <ele>69.800003051758</ele>
        <time>2022-08-07T07:13:51.000Z</time>
      </trkpt>
      <trkpt lat="48.56997" lon="-4.30715">
        <ele>69.800003051758</ele>
        <time>2022-08-07T07:13:52.000Z</time>
      </trkpt>
      <trkpt lat="48.56998" lon="-4.30709">
        <ele>69.800003051758</ele>
        <time>2022-08-07T07:13:53.000Z</time>
      </trkpt>
      <trkpt lat="48.56996" lon="-4.30703">
        <ele>69.800003051758</ele>
        <time>2022-08-07T07:13:54.000Z</time>
      </trkpt>
      <trkpt lat="48.56993" lon="-4.30698">
        <ele>69.599998474121</ele>
        <time>2022-08-07T07:13:55.000Z</time>
      </trkpt>
      <trkpt lat="48.56989" lon="-4.30694">
        <ele>69.599998474121</ele>
        <time>2022-08-07T07:13:56.000Z</time>
      </trkpt>
      <trkpt lat="48.56985" lon="-4.3069">
        <ele>69.599998474121</ele>
        <time>2022-08-07T07:13:57.000Z</time>
      </trkpt>
      <trkpt lat="48.5698" lon="-4.30686">
        <ele>69.599998474121</ele>
        <time>2022-08-07T07:13:58.000Z</time>
      </trkpt>
      <trkpt lat="48.56977" lon="-4.3068">
        <ele>69.400001525879</ele>
        <time>2022-08-07T07:13:59.000Z</time>
      </trkpt>
      <trkpt lat="48.56973" lon="-4.30675">
        <ele>69.400001525879</ele>
        <time>2022-08-07T07:14:00.000Z</time>
      </trkpt>
      <trkpt lat="48.56971" lon="-4.30668">
        <ele>69.400001525879</ele>
        <time>2022-08-07T07:14:01.000Z</time>
      </trkpt>
      <trkpt lat="48.56969" lon="-4.30661">
        <ele>69.400001525879</ele>
        <time>2022-08-07T07:14:02.000Z</time>
      </trkpt>
      <trkpt lat="48.56968" lon="-4.30653">
        <ele>69.400001525879</ele>
        <time>2022-08-07T07:14:03.000Z</time>
      </trkpt>
      <trkpt lat="48.56968" lon="-4.30645">
        <ele>69.400001525879</ele>
        <time>2022-08-07T07:14:04.000Z</time>
      </trkpt>
      <trkpt lat="48.56967" lon="-4.30637">
        <ele>69.400001525879</ele>
        <time>2022-08-07T07:14:05.000Z</time>
      </trkpt>
      <trkpt lat="48.56967" lon="-4.30629">
        <ele>69.199996948242</ele>
        <time>2022-08-07T07:14:06.000Z</time>
      </trkpt>
      <trkpt lat="48.56967" lon="-4.30622">
        <ele>69.199996948242</ele>
        <time>2022-08-07T07:14:07.000Z</time>
      </trkpt>
      <trkpt lat="48.56966" lon="-4.30614">
        <ele>69.199996948242</ele>
        <time>2022-08-07T07:14:08.000Z</time>
      </trkpt>
      <trkpt lat="48.56965" lon="-4.30606">
        <ele>69</ele>
        <time>2022-08-07T07:14:09.000Z</time>
      </trkpt>
      <trkpt lat="48.56964" lon="-4.30599">
        <ele>69</ele>
        <time>2022-08-07T07:14:10.000Z</time>
      </trkpt>
      <trkpt lat="48.56962" lon="-4.30591">
        <ele>69</ele>
        <time>2022-08-07T07:14:11.000Z</time>
      </trkpt>
      <trkpt lat="48.5696" lon="-4.30585">
        <ele>69</ele>
        <time>2022-08-07T07:14:12.000Z</time>
      </trkpt>
      <trkpt lat="48.56956" lon="-4.30579">
        <ele>69</ele>
        <time>2022-08-07T07:14:13.000Z</time>
      </trkpt>
      <trkpt lat="48.56952" lon="-4.30575">
        <ele>68.800003051758</ele>
        <time>2022-08-07T07:14:14.000Z</time>
      </trkpt>
      <trkpt lat="48.56947" lon="-4.30571">
        <ele>68.800003051758</ele>
        <time>2022-08-07T07:14:15.000Z</time>
      </trkpt>
      <trkpt lat="48.56942" lon="-4.30567">
        <ele>68.800003051758</ele>
        <time>2022-08-07T07:14:16.000Z</time>
      </trkpt>
      <trkpt lat="48.56938" lon="-4.30564">
        <ele>68.800003051758</ele>
        <time>2022-08-07T07:14:17.000Z</time>
      </trkpt>
      <trkpt lat="48.56933" lon="-4.30559">
        <ele>68.599998474121</ele>
        <time>2022-08-07T07:14:18.000Z</time>
      </trkpt>
      <trkpt lat="48.56929" lon="-4.30554">
        <ele>68.599998474121</ele>
        <time>2022-08-07T07:14:19.000Z</time>
      </trkpt>
      <trkpt lat="48.56926" lon="-4.30548">
        <ele>68.599998474121</ele>
        <time>2022-08-07T07:14:20.000Z</time>
      </trkpt>
      <trkpt lat="48.56924" lon="-4.3054">
        <ele>68.599998474121</ele>
        <time>2022-08-07T07:14:21.000Z</time>
      </trkpt>
      <trkpt lat="48.56924" lon="-4.30532">
        <ele>68.400001525879</ele>
        <time>2022-08-07T07:14:22.000Z</time>
      </trkpt>
      <trkpt lat="48.56925" lon="-4.30524">
        <ele>68.400001525879</ele>
        <time>2022-08-07T07:14:23.000Z</time>
      </trkpt>
      <trkpt lat="48.56926" lon="-4.30517">
        <ele>68.400001525879</ele>
        <time>2022-08-07T07:14:24.000Z</time>
      </trkpt>
      <trkpt lat="48.56928" lon="-4.30509">
        <ele>68.400001525879</ele>
        <time>2022-08-07T07:14:25.000Z</time>
      </trkpt>
      <trkpt lat="48.5693" lon="-4.30502">
        <ele>68.400001525879</ele>
        <time>2022-08-07T07:14:26.000Z</time>
      </trkpt>
      <trkpt lat="48.56932" lon="-4.30495">
        <ele>68.400001525879</ele>
        <time>2022-08-07T07:14:27.000Z</time>
      </trkpt>
      <trkpt lat="48.56934" lon="-4.30488">
        <ele>68.400001525879</ele>
        <time>2022-08-07T07:14:28.000Z</time>
      </trkpt>
      <trkpt lat="48.56935" lon="-4.30481">
        <ele>68.400001525879</ele>
        <time>2022-08-07T07:14:29.000Z</time>
      </trkpt>
      <trkpt lat="48.56937" lon="-4.30474">
        <ele>68.400001525879</ele>
        <time>2022-08-07T07:14:30.000Z</time>
      </trkpt>
      <trkpt lat="48.56939" lon="-4.30467">
        <ele>68.400001525879</ele>
        <time>2022-08-07T07:14:31.000Z</time>
      </trkpt>
      <trkpt lat="48.5694" lon="-4.3046">
        <ele>68.400001525879</ele>
        <time>2022-08-07T07:14:32.000Z</time>
      </trkpt>
      <trkpt lat="48.56942" lon="-4.30452">
        <ele>68.400001525879</ele>
        <time>2022-08-07T07:14:33.000Z</time>
      </trkpt>
      <trkpt lat="48.56943" lon="-4.30445">
        <ele>68.199996948242</ele>
        <time>2022-08-07T07:14:34.000Z</time>
      </trkpt>
      <trkpt lat="48.56944" lon="-4.30438">
        <ele>68.400001525879</ele>
        <time>2022-08-07T07:14:35.000Z</time>
      </trkpt>
      <trkpt lat="48.56945" lon="-4.3043">
        <ele>68.199996948242</ele>
        <time>2022-08-07T07:14:36.000Z</time>
      </trkpt>
      <trkpt lat="48.56947" lon="-4.30423">
        <ele>68.199996948242</ele>
        <time>2022-08-07T07:14:37.000Z</time>
      </trkpt>
      <trkpt lat="48.56948" lon="-4.30416">
        <ele>68.199996948242</ele>
        <time>2022-08-07T07:14:38.000Z</time>
      </trkpt>
      <trkpt lat="48.56949" lon="-4.30409">
        <ele>68.199996948242</ele>
        <time>2022-08-07T07:14:39.000Z</time>
      </trkpt>
      <trkpt lat="48.5695" lon="-4.30401">
        <ele>68.199996948242</ele>
        <time>2022-08-07T07:14:40.000Z</time>
      </trkpt>
      <trkpt lat="48.56951" lon="-4.30394">
        <ele>68.199996948242</ele>
        <time>2022-08-07T07:14:41.000Z</time>
      </trkpt>
      <trkpt lat="48.56953" lon="-4.30387">
        <ele>68</ele>
        <time>2022-08-07T07:14:42.000Z</time>
      </trkpt>
      <trkpt lat="48.56954" lon="-4.30379">
        <ele>68</ele>
        <time>2022-08-07T07:14:43.000Z</time>
      </trkpt>
      <trkpt lat="48.56955" lon="-4.30372">
        <ele>68</ele>
        <time>2022-08-07T07:14:44.000Z</time>
      </trkpt>
      <trkpt lat="48.56956" lon="-4.30364">
        <ele>68</ele>
        <time>2022-08-07T07:14:45.000Z</time>
      </trkpt>
      <trkpt lat="48.56956" lon="-4.30356">
        <ele>68</ele>
        <time>2022-08-07T07:14:46.000Z</time>
      </trkpt>
      <trkpt lat="48.56956" lon="-4.30348">
        <ele>67.800003051758</ele>
        <time>2022-08-07T07:14:47.000Z</time>
      </trkpt>
      <trkpt lat="48.56956" lon="-4.30341">
        <ele>67.800003051758</ele>
        <time>2022-08-07T07:14:48.000Z</time>
      </trkpt>
      <trkpt lat="48.56955" lon="-4.30333">
        <ele>67.800003051758</ele>
        <time>2022-08-07T07:14:49.000Z</time>
      </trkpt>
      <trkpt lat="48.56955" lon="-4.30325">
        <ele>67.800003051758</ele>
        <time>2022-08-07T07:14:50.000Z</time>
      </trkpt>
      <trkpt lat="48.56956" lon="-4.30317">
        <ele>67.800003051758</ele>
        <time>2022-08-07T07:14:51.000Z</time>
      </trkpt>
      <trkpt lat="48.56955" lon="-4.30309">
        <ele>67.800003051758</ele>
        <time>2022-08-07T07:14:52.000Z</time>
      </trkpt>
      <trkpt lat="48.56955" lon="-4.30301">
        <ele>67.599998474121</ele>
        <time>2022-08-07T07:14:53.000Z</time>
      </trkpt>
      <trkpt lat="48.56956" lon="-4.30294">
        <ele>67.599998474121</ele>
        <time>2022-08-07T07:14:54.000Z</time>
      </trkpt>
      <trkpt lat="48.56955" lon="-4.30286">
        <ele>67.599998474121</ele>
        <time>2022-08-07T07:14:55.000Z</time>
      </trkpt>
      <trkpt lat="48.56955" lon="-4.30278">
        <ele>67.599998474121</ele>
        <time>2022-08-07T07:14:56.000Z</time>
      </trkpt>
      <trkpt lat="48.56954" lon="-4.3027">
        <ele>67.599998474121</ele>
        <time>2022-08-07T07:14:57.000Z</time>
      </trkpt>
      <trkpt lat="48.56953" lon="-4.30263">
        <ele>67.599998474121</ele>
        <time>2022-08-07T07:14:58.000Z</time>
      </trkpt>
      <trkpt lat="48.56952" lon="-4.30255">
        <ele>67.400001525879</ele>
        <time>2022-08-07T07:14:59.000Z</time>
      </trkpt>
      <trkpt lat="48.56949" lon="-4.30249">
        <ele>67.400001525879</ele>
        <time>2022-08-07T07:15:00.000Z</time>
      </trkpt>
      <trkpt lat="48.56946" lon="-4.30243">
        <ele>67.199996948242</ele>
        <time>2022-08-07T07:15:01.000Z</time>
      </trkpt>
      <trkpt lat="48.56943" lon="-4.30237">
        <ele>67.199996948242</ele>
        <time>2022-08-07T07:15:02.000Z</time>
      </trkpt>
      <trkpt lat="48.5694" lon="-4.30232">
        <ele>67.199996948242</ele>
        <time>2022-08-07T07:15:03.000Z</time>
      </trkpt>
      <trkpt lat="48.56937" lon="-4.30226">
        <ele>67.199996948242</ele>
        <time>2022-08-07T07:15:04.000Z</time>
      </trkpt>
      <trkpt lat="48.56934" lon="-4.3022">
        <ele>67</ele>
        <time>2022-08-07T07:15:05.000Z</time>
      </trkpt>
      <trkpt lat="48.56931" lon="-4.30213">
        <ele>67</ele>
        <time>2022-08-07T07:15:06.000Z</time>
      </trkpt>
      <trkpt lat="48.56929" lon="-4.30206">
        <ele>66.800003051758</ele>
        <time>2022-08-07T07:15:07.000Z</time>
      </trkpt>
      <trkpt lat="48.56927" lon="-4.30198">
        <ele>66.800003051758</ele>
        <time>2022-08-07T07:15:08.000Z</time>
      </trkpt>
      <trkpt lat="48.56926" lon="-4.30191">
        <ele>66.800003051758</ele>
        <time>2022-08-07T07:15:09.000Z</time>
      </trkpt>
      <trkpt lat="48.56924" lon="-4.30183">
        <ele>66.800003051758</ele>
        <time>2022-08-07T07:15:10.000Z</time>
      </trkpt>
      <trkpt lat="48.56922" lon="-4.30175">
        <ele>66.800003051758</ele>
        <time>2022-08-07T07:15:11.000Z</time>
      </trkpt>
      <trkpt lat="48.56921" lon="-4.30168">
        <ele>66.800003051758</ele>
        <time>2022-08-07T07:15:12.000Z</time>
      </trkpt>
      <trkpt lat="48.5692" lon="-4.3016">
        <ele>66.800003051758</ele>
        <time>2022-08-07T07:15:13.000Z</time>
      </trkpt>
      <trkpt lat="48.56919" lon="-4.30152">
        <ele>66.800003051758</ele>
        <time>2022-08-07T07:15:14.000Z</time>
      </trkpt>
      <trkpt lat="48.56918" lon="-4.30144">
        <ele>66.599998474121</ele>
        <time>2022-08-07T07:15:15.000Z</time>
      </trkpt>
      <trkpt lat="48.56918" lon="-4.30136">
        <ele>66.599998474121</ele>
        <time>2022-08-07T07:15:16.000Z</time>
      </trkpt>
      <trkpt lat="48.56917" lon="-4.3013">
        <ele>66.599998474121</ele>
        <time>2022-08-07T07:15:17.000Z</time>
      </trkpt>
      <trkpt lat="48.56917" lon="-4.3012">
        <ele>66.599998474121</ele>
        <time>2022-08-07T07:15:18.000Z</time>
      </trkpt>
      <trkpt lat="48.56917" lon="-4.30112">
        <ele>66.599998474121</ele>
        <time>2022-08-07T07:15:19.000Z</time>
      </trkpt>
      <trkpt lat="48.56917" lon="-4.30105">
        <ele>66.800003051758</ele>
        <time>2022-08-07T07:15:20.000Z</time>
      </trkpt>
      <trkpt lat="48.56916" lon="-4.30097">
        <ele>66.800003051758</ele>
        <time>2022-08-07T07:15:21.000Z</time>
      </trkpt>
      <trkpt lat="48.56916" lon="-4.30089">
        <ele>66.800003051758</ele>
        <time>2022-08-07T07:15:22.000Z</time>
      </trkpt>
      <trkpt lat="48.56916" lon="-4.30081">
        <ele>66.800003051758</ele>
        <time>2022-08-07T07:15:23.000Z</time>
      </trkpt>
      <trkpt lat="48.56916" lon="-4.30073">
        <ele>66.800003051758</ele>
        <time>2022-08-07T07:15:24.000Z</time>
      </trkpt>
      <trkpt lat="48.56916" lon="-4.30065">
        <ele>66.800003051758</ele>
        <time>2022-08-07T07:15:25.000Z</time>
      </trkpt>
      <trkpt lat="48.56916" lon="-4.30057">
        <ele>66.800003051758</ele>
        <time>2022-08-07T07:15:26.000Z</time>
      </trkpt>
      <trkpt lat="48.56915" lon="-4.30049">
        <ele>66.800003051758</ele>
        <time>2022-08-07T07:15:27.000Z</time>
      </trkpt>
      <trkpt lat="48.56915" lon="-4.30041">
        <ele>66.599998474121</ele>
        <time>2022-08-07T07:15:28.000Z</time>
      </trkpt>
      <trkpt lat="48.56915" lon="-4.30033">
        <ele>66.599998474121</ele>
        <time>2022-08-07T07:15:29.000Z</time>
      </trkpt>
      <trkpt lat="48.56914" lon="-4.30025">
        <ele>66.599998474121</ele>
        <time>2022-08-07T07:15:30.000Z</time>
      </trkpt>
      <trkpt lat="48.56914" lon="-4.30017">
        <ele>66.400001525879</ele>
        <time>2022-08-07T07:15:31.000Z</time>
      </trkpt>
      <trkpt lat="48.56914" lon="-4.30009">
        <ele>66.400001525879</ele>
        <time>2022-08-07T07:15:32.000Z</time>
      </trkpt>
      <trkpt lat="48.56914" lon="-4.30001">
        <ele>66.199996948242</ele>
        <time>2022-08-07T07:15:33.000Z</time>
      </trkpt>
      <trkpt lat="48.56913" lon="-4.29993">
        <ele>66</ele>
        <time>2022-08-07T07:15:34.000Z</time>
      </trkpt>
      <trkpt lat="48.56913" lon="-4.29985">
        <ele>66</ele>
        <time>2022-08-07T07:15:35.000Z</time>
      </trkpt>
      <trkpt lat="48.56912" lon="-4.29978">
        <ele>65.800003051758</ele>
        <time>2022-08-07T07:15:36.000Z</time>
      </trkpt>
      <trkpt lat="48.56911" lon="-4.2997">
        <ele>65.800003051758</ele>
        <time>2022-08-07T07:15:37.000Z</time>
      </trkpt>
      <trkpt lat="48.56909" lon="-4.29962">
        <ele>65.800003051758</ele>
        <time>2022-08-07T07:15:38.000Z</time>
      </trkpt>
      <trkpt lat="48.56907" lon="-4.29955">
        <ele>65.800003051758</ele>
        <time>2022-08-07T07:15:39.000Z</time>
      </trkpt>
      <trkpt lat="48.56905" lon="-4.29947">
        <ele>65.800003051758</ele>
        <time>2022-08-07T07:15:40.000Z</time>
      </trkpt>
      <trkpt lat="48.56904" lon="-4.29939">
        <ele>65.599998474121</ele>
        <time>2022-08-07T07:15:41.000Z</time>
      </trkpt>
      <trkpt lat="48.56903" lon="-4.29931">
        <ele>65.599998474121</ele>
        <time>2022-08-07T07:15:42.000Z</time>
      </trkpt>
      <trkpt lat="48.56903" lon="-4.29923">
        <ele>65.599998474121</ele>
        <time>2022-08-07T07:15:43.000Z</time>
      </trkpt>
      <trkpt lat="48.56903" lon="-4.29915">
        <ele>65.599998474121</ele>
        <time>2022-08-07T07:15:44.000Z</time>
      </trkpt>
      <trkpt lat="48.56902" lon="-4.29908">
        <ele>65.599998474121</ele>
        <time>2022-08-07T07:15:45.000Z</time>
      </trkpt>
      <trkpt lat="48.56902" lon="-4.299">
        <ele>65.800003051758</ele>
        <time>2022-08-07T07:15:46.000Z</time>
      </trkpt>
      <trkpt lat="48.56902" lon="-4.29893">
        <ele>65.800003051758</ele>
        <time>2022-08-07T07:15:47.000Z</time>
      </trkpt>
      <trkpt lat="48.56901" lon="-4.29885">
        <ele>65.800003051758</ele>
        <time>2022-08-07T07:15:48.000Z</time>
      </trkpt>
      <trkpt lat="48.56901" lon="-4.29878">
        <ele>66</ele>
        <time>2022-08-07T07:15:49.000Z</time>
      </trkpt>
      <trkpt lat="48.569" lon="-4.2987">
        <ele>66</ele>
        <time>2022-08-07T07:15:50.000Z</time>
      </trkpt>
      <trkpt lat="48.569" lon="-4.29863">
        <ele>66</ele>
        <time>2022-08-07T07:15:51.000Z</time>
      </trkpt>
      <trkpt lat="48.56899" lon="-4.29856">
        <ele>66</ele>
        <time>2022-08-07T07:15:52.000Z</time>
      </trkpt>
      <trkpt lat="48.56899" lon="-4.29848">
        <ele>66.199996948242</ele>
        <time>2022-08-07T07:15:53.000Z</time>
      </trkpt>
      <trkpt lat="48.56899" lon="-4.29841">
        <ele>66.199996948242</ele>
        <time>2022-08-07T07:15:54.000Z</time>
      </trkpt>
      <trkpt lat="48.569" lon="-4.29834">
        <ele>66.199996948242</ele>
        <time>2022-08-07T07:15:55.000Z</time>
      </trkpt>
      <trkpt lat="48.56902" lon="-4.29827">
        <ele>66.199996948242</ele>
        <time>2022-08-07T07:15:56.000Z</time>
      </trkpt>
      <trkpt lat="48.56904" lon="-4.29821">
        <ele>66.400001525879</ele>
        <time>2022-08-07T07:15:57.000Z</time>
      </trkpt>
      <trkpt lat="48.56906" lon="-4.29814">
        <ele>66.400001525879</ele>
        <time>2022-08-07T07:15:58.000Z</time>
      </trkpt>
      <trkpt lat="48.56908" lon="-4.29809">
        <ele>66.400001525879</ele>
        <time>2022-08-07T07:15:59.000Z</time>
      </trkpt>
      <trkpt lat="48.5691" lon="-4.29802">
        <ele>66.800003051758</ele>
        <time>2022-08-07T07:16:00.000Z</time>
      </trkpt>
      <trkpt lat="48.56912" lon="-4.29795">
        <ele>67</ele>
        <time>2022-08-07T07:16:01.000Z</time>
      </trkpt>
      <trkpt lat="48.56914" lon="-4.29789">
        <ele>67.199996948242</ele>
        <time>2022-08-07T07:16:02.000Z</time>
      </trkpt>
      <trkpt lat="48.56915" lon="-4.29782">
        <ele>67.400001525879</ele>
        <time>2022-08-07T07:16:03.000Z</time>
      </trkpt>
      <trkpt lat="48.56916" lon="-4.29775">
        <ele>67.400001525879</ele>
        <time>2022-08-07T07:16:04.000Z</time>
      </trkpt>
      <trkpt lat="48.56917" lon="-4.29768">
        <ele>67.599998474121</ele>
        <time>2022-08-07T07:16:05.000Z</time>
      </trkpt>
      <trkpt lat="48.56918" lon="-4.29762">
        <ele>67.800003051758</ele>
        <time>2022-08-07T07:16:06.000Z</time>
      </trkpt>
      <trkpt lat="48.56919" lon="-4.29755">
        <ele>67.800003051758</ele>
        <time>2022-08-07T07:16:07.000Z</time>
      </trkpt>
      <trkpt lat="48.56919" lon="-4.29747">
        <ele>67.800003051758</ele>
        <time>2022-08-07T07:16:08.000Z</time>
      </trkpt>
      <trkpt lat="48.5692" lon="-4.2974">
        <ele>68</ele>
        <time>2022-08-07T07:16:09.000Z</time>
      </trkpt>
      <trkpt lat="48.56921" lon="-4.29733">
        <ele>68</ele>
        <time>2022-08-07T07:16:10.000Z</time>
      </trkpt>
      <trkpt lat="48.56921" lon="-4.29726">
        <ele>68</ele>
        <time>2022-08-07T07:16:11.000Z</time>
      </trkpt>
      <trkpt lat="48.56921" lon="-4.29719">
        <ele>68</ele>
        <time>2022-08-07T07:16:12.000Z</time>
      </trkpt>
      <trkpt lat="48.56922" lon="-4.29712">
        <ele>68</ele>
        <time>2022-08-07T07:16:13.000Z</time>
      </trkpt>
      <trkpt lat="48.56922" lon="-4.29705">
        <ele>68</ele>
        <time>2022-08-07T07:16:14.000Z</time>
      </trkpt>
      <trkpt lat="48.56923" lon="-4.29697">
        <ele>68</ele>
        <time>2022-08-07T07:16:15.000Z</time>
      </trkpt>
      <trkpt lat="48.56925" lon="-4.2969">
        <ele>67.800003051758</ele>
        <time>2022-08-07T07:16:16.000Z</time>
      </trkpt>
      <trkpt lat="48.56926" lon="-4.29683">
        <ele>67.800003051758</ele>
        <time>2022-08-07T07:16:17.000Z</time>
      </trkpt>
      <trkpt lat="48.56927" lon="-4.29676">
        <ele>67.800003051758</ele>
        <time>2022-08-07T07:16:18.000Z</time>
      </trkpt>
      <trkpt lat="48.56928" lon="-4.2967">
        <ele>67.800003051758</ele>
        <time>2022-08-07T07:16:19.000Z</time>
      </trkpt>
      <trkpt lat="48.56929" lon="-4.29663">
        <ele>67.800003051758</ele>
        <time>2022-08-07T07:16:20.000Z</time>
      </trkpt>
      <trkpt lat="48.5693" lon="-4.29656">
        <ele>67.800003051758</ele>
        <time>2022-08-07T07:16:21.000Z</time>
      </trkpt>
      <trkpt lat="48.5693" lon="-4.29648">
        <ele>67.599998474121</ele>
        <time>2022-08-07T07:16:22.000Z</time>
      </trkpt>
      <trkpt lat="48.5693" lon="-4.29641">
        <ele>67.599998474121</ele>
        <time>2022-08-07T07:16:23.000Z</time>
      </trkpt>
      <trkpt lat="48.5693" lon="-4.29633">
        <ele>67.400001525879</ele>
        <time>2022-08-07T07:16:24.000Z</time>
      </trkpt>
      <trkpt lat="48.56929" lon="-4.29626">
        <ele>67.400001525879</ele>
        <time>2022-08-07T07:16:25.000Z</time>
      </trkpt>
      <trkpt lat="48.56929" lon="-4.2962">
        <ele>67.199996948242</ele>
        <time>2022-08-07T07:16:26.000Z</time>
      </trkpt>
      <trkpt lat="48.56928" lon="-4.2961">
        <ele>67</ele>
        <time>2022-08-07T07:16:27.000Z</time>
      </trkpt>
      <trkpt lat="48.56928" lon="-4.29603">
        <ele>67</ele>
        <time>2022-08-07T07:16:28.000Z</time>
      </trkpt>
      <trkpt lat="48.56927" lon="-4.29596">
        <ele>66.800003051758</ele>
        <time>2022-08-07T07:16:29.000Z</time>
      </trkpt>
      <trkpt lat="48.56926" lon="-4.29589">
        <ele>66.800003051758</ele>
        <time>2022-08-07T07:16:30.000Z</time>
      </trkpt>
      <trkpt lat="48.56925" lon="-4.29582">
        <ele>66.800003051758</ele>
        <time>2022-08-07T07:16:31.000Z</time>
      </trkpt>
      <trkpt lat="48.56924" lon="-4.29574">
        <ele>66.800003051758</ele>
        <time>2022-08-07T07:16:32.000Z</time>
      </trkpt>
      <trkpt lat="48.56924" lon="-4.29567">
        <ele>66.599998474121</ele>
        <time>2022-08-07T07:16:33.000Z</time>
      </trkpt>
      <trkpt lat="48.56923" lon="-4.29559">
        <ele>66.599998474121</ele>
        <time>2022-08-07T07:16:34.000Z</time>
      </trkpt>
      <trkpt lat="48.56923" lon="-4.29552">
        <ele>66.199996948242</ele>
        <time>2022-08-07T07:16:35.000Z</time>
      </trkpt>
      <trkpt lat="48.56923" lon="-4.29546">
        <ele>66</ele>
        <time>2022-08-07T07:16:36.000Z</time>
      </trkpt>
      <trkpt lat="48.56924" lon="-4.29537">
        <ele>66</ele>
        <time>2022-08-07T07:16:37.000Z</time>
      </trkpt>
      <trkpt lat="48.56925" lon="-4.29529">
        <ele>65.800003051758</ele>
        <time>2022-08-07T07:16:38.000Z</time>
      </trkpt>
      <trkpt lat="48.56926" lon="-4.29521">
        <ele>65.599998474121</ele>
        <time>2022-08-07T07:16:39.000Z</time>
      </trkpt>
      <trkpt lat="48.56927" lon="-4.29513">
        <ele>65.400001525879</ele>
        <time>2022-08-07T07:16:40.000Z</time>
      </trkpt>
      <trkpt lat="48.56928" lon="-4.29505">
        <ele>65.400001525879</ele>
        <time>2022-08-07T07:16:41.000Z</time>
      </trkpt>
      <trkpt lat="48.56929" lon="-4.29499">
        <ele>65.199996948242</ele>
        <time>2022-08-07T07:16:42.000Z</time>
      </trkpt>
      <trkpt lat="48.56931" lon="-4.2949">
        <ele>65.199996948242</ele>
        <time>2022-08-07T07:16:43.000Z</time>
      </trkpt>
      <trkpt lat="48.56933" lon="-4.29483">
        <ele>65.199996948242</ele>
        <time>2022-08-07T07:16:44.000Z</time>
      </trkpt>
      <trkpt lat="48.56934" lon="-4.29477">
        <ele>65</ele>
        <time>2022-08-07T07:16:45.000Z</time>
      </trkpt>
      <trkpt lat="48.56936" lon="-4.29468">
        <ele>65</ele>
        <time>2022-08-07T07:16:46.000Z</time>
      </trkpt>
      <trkpt lat="48.56937" lon="-4.2946">
        <ele>64.800003051758</ele>
        <time>2022-08-07T07:16:47.000Z</time>
      </trkpt>
      <trkpt lat="48.56939" lon="-4.29452">
        <ele>64.800003051758</ele>
        <time>2022-08-07T07:16:48.000Z</time>
      </trkpt>
      <trkpt lat="48.56941" lon="-4.29445">
        <ele>64.599998474121</ele>
        <time>2022-08-07T07:16:49.000Z</time>
      </trkpt>
      <trkpt lat="48.56943" lon="-4.29438">
        <ele>64.199996948242</ele>
        <time>2022-08-07T07:16:50.000Z</time>
      </trkpt>
      <trkpt lat="48.56945" lon="-4.29429">
        <ele>63.799999237061</ele>
        <time>2022-08-07T07:16:51.000Z</time>
      </trkpt>
      <trkpt lat="48.56948" lon="-4.29421">
        <ele>63.599998474121</ele>
        <time>2022-08-07T07:16:52.000Z</time>
      </trkpt>
      <trkpt lat="48.56951" lon="-4.29413">
        <ele>63.400001525879</ele>
        <time>2022-08-07T07:16:53.000Z</time>
      </trkpt>
      <trkpt lat="48.56955" lon="-4.29406">
        <ele>63.200000762939</ele>
        <time>2022-08-07T07:16:54.000Z</time>
      </trkpt>
      <trkpt lat="48.56959" lon="-4.294">
        <ele>63</ele>
        <time>2022-08-07T07:16:55.000Z</time>
      </trkpt>
      <trkpt lat="48.56964" lon="-4.29393">
        <ele>62.799999237061</ele>
        <time>2022-08-07T07:16:56.000Z</time>
      </trkpt>
      <trkpt lat="48.56968" lon="-4.29386">
        <ele>62.799999237061</ele>
        <time>2022-08-07T07:16:57.000Z</time>
      </trkpt>
      <trkpt lat="48.56973" lon="-4.2938">
        <ele>62.599998474121</ele>
        <time>2022-08-07T07:16:58.000Z</time>
      </trkpt>
      <trkpt lat="48.56976" lon="-4.29374">
        <ele>62.599998474121</ele>
        <time>2022-08-07T07:16:59.000Z</time>
      </trkpt>
      <trkpt lat="48.56981" lon="-4.29365">
        <ele>62.200000762939</ele>
        <time>2022-08-07T07:17:00.000Z</time>
      </trkpt>
      <trkpt lat="48.56985" lon="-4.29359">
        <ele>62</ele>
        <time>2022-08-07T07:17:01.000Z</time>
      </trkpt>
      <trkpt lat="48.56989" lon="-4.29352">
        <ele>61.599998474121</ele>
        <time>2022-08-07T07:17:02.000Z</time>
      </trkpt>
      <trkpt lat="48.56993" lon="-4.29347">
        <ele>61.599998474121</ele>
        <time>2022-08-07T07:17:03.000Z</time>
      </trkpt>
      <trkpt lat="48.56997" lon="-4.2934">
        <ele>61.200000762939</ele>
        <time>2022-08-07T07:17:04.000Z</time>
      </trkpt>
      <trkpt lat="48.57002" lon="-4.29332">
        <ele>60.599998474121</ele>
        <time>2022-08-07T07:17:05.000Z</time>
      </trkpt>
      <trkpt lat="48.57005" lon="-4.29325">
        <ele>60.400001525879</ele>
        <time>2022-08-07T07:17:06.000Z</time>
      </trkpt>
      <trkpt lat="48.57009" lon="-4.29319">
        <ele>60.200000762939</ele>
        <time>2022-08-07T07:17:07.000Z</time>
      </trkpt>
      <trkpt lat="48.57012" lon="-4.29313">
        <ele>60</ele>
        <time>2022-08-07T07:17:08.000Z</time>
      </trkpt>
      <trkpt lat="48.57015" lon="-4.29306">
        <ele>59.799999237061</ele>
        <time>2022-08-07T07:17:09.000Z</time>
      </trkpt>
      <trkpt lat="48.57016" lon="-4.293">
        <ele>59.799999237061</ele>
        <time>2022-08-07T07:17:10.000Z</time>
      </trkpt>
      <trkpt lat="48.57017" lon="-4.29293">
        <ele>59.599998474121</ele>
        <time>2022-08-07T07:17:11.000Z</time>
      </trkpt>
      <trkpt lat="48.57016" lon="-4.29289">
        <ele>59.599998474121</ele>
        <time>2022-08-07T07:17:12.000Z</time>
      </trkpt>
      <trkpt lat="48.57014" lon="-4.29283">
        <ele>59.400001525879</ele>
        <time>2022-08-07T07:17:13.000Z</time>
      </trkpt>
      <trkpt lat="48.57011" lon="-4.29276">
        <ele>59</ele>
        <time>2022-08-07T07:17:14.000Z</time>
      </trkpt>
      <trkpt lat="48.57009" lon="-4.29272">
        <ele>59</ele>
        <time>2022-08-07T07:17:15.000Z</time>
      </trkpt>
      <trkpt lat="48.57007" lon="-4.29269">
        <ele>58.799999237061</ele>
        <time>2022-08-07T07:17:16.000Z</time>
      </trkpt>
      <trkpt lat="48.57006" lon="-4.29267">
        <ele>58.599998474121</ele>
        <time>2022-08-07T07:17:17.000Z</time>
      </trkpt>
      <trkpt lat="48.57006" lon="-4.29265">
        <ele>58.400001525879</ele>
        <time>2022-08-07T07:17:18.000Z</time>
      </trkpt>
      <trkpt lat="48.57007" lon="-4.29262">
        <ele>58.400001525879</ele>
        <time>2022-08-07T07:17:19.000Z</time>
      </trkpt>
      <trkpt lat="48.57008" lon="-4.29259">
        <ele>58.200000762939</ele>
        <time>2022-08-07T07:17:20.000Z</time>
      </trkpt>
      <trkpt lat="48.5701" lon="-4.29256">
        <ele>58.200000762939</ele>
        <time>2022-08-07T07:17:21.000Z</time>
      </trkpt>
      <trkpt lat="48.57013" lon="-4.29252">
        <ele>58</ele>
        <time>2022-08-07T07:17:22.000Z</time>
      </trkpt>
      <trkpt lat="48.57016" lon="-4.29247">
        <ele>58</ele>
        <time>2022-08-07T07:17:23.000Z</time>
      </trkpt>
      <trkpt lat="48.57019" lon="-4.29241">
        <ele>58</ele>
        <time>2022-08-07T07:17:24.000Z</time>
      </trkpt>
      <trkpt lat="48.57023" lon="-4.29236">
        <ele>58</ele>
        <time>2022-08-07T07:17:25.000Z</time>
      </trkpt>
      <trkpt lat="48.57025" lon="-4.2923">
        <ele>58</ele>
        <time>2022-08-07T07:17:26.000Z</time>
      </trkpt>
      <trkpt lat="48.57028" lon="-4.29225">
        <ele>57.799999237061</ele>
        <time>2022-08-07T07:17:27.000Z</time>
      </trkpt>
      <trkpt lat="48.57031" lon="-4.2922">
        <ele>57.799999237061</ele>
        <time>2022-08-07T07:17:28.000Z</time>
      </trkpt>
      <trkpt lat="48.57034" lon="-4.29215">
        <ele>57.599998474121</ele>
        <time>2022-08-07T07:17:29.000Z</time>
      </trkpt>
      <trkpt lat="48.57037" lon="-4.2921">
        <ele>57.599998474121</ele>
        <time>2022-08-07T07:17:30.000Z</time>
      </trkpt>
      <trkpt lat="48.5704" lon="-4.29206">
        <ele>57.400001525879</ele>
        <time>2022-08-07T07:17:31.000Z</time>
      </trkpt>
      <trkpt lat="48.57042" lon="-4.29201">
        <ele>57.400001525879</ele>
        <time>2022-08-07T07:17:32.000Z</time>
      </trkpt>
      <trkpt lat="48.57045" lon="-4.29195">
        <ele>57.400001525879</ele>
        <time>2022-08-07T07:17:33.000Z</time>
      </trkpt>
      <trkpt lat="48.57047" lon="-4.2919">
        <ele>57.200000762939</ele>
        <time>2022-08-07T07:17:34.000Z</time>
      </trkpt>
      <trkpt lat="48.57049" lon="-4.29184">
        <ele>57.200000762939</ele>
        <time>2022-08-07T07:17:35.000Z</time>
      </trkpt>
      <trkpt lat="48.5705" lon="-4.29178">
        <ele>57</ele>
        <time>2022-08-07T07:17:36.000Z</time>
      </trkpt>
      <trkpt lat="48.57052" lon="-4.2917">
        <ele>57</ele>
        <time>2022-08-07T07:17:37.000Z</time>
      </trkpt>
      <trkpt lat="48.57052" lon="-4.29163">
        <ele>57</ele>
        <time>2022-08-07T07:17:38.000Z</time>
      </trkpt>
      <trkpt lat="48.57053" lon="-4.29155">
        <ele>57</ele>
        <time>2022-08-07T07:17:39.000Z</time>
      </trkpt>
      <trkpt lat="48.57053" lon="-4.29146">
        <ele>56.799999237061</ele>
        <time>2022-08-07T07:17:40.000Z</time>
      </trkpt>
      <trkpt lat="48.57053" lon="-4.29139">
        <ele>56.799999237061</ele>
        <time>2022-08-07T07:17:41.000Z</time>
      </trkpt>
      <trkpt lat="48.57054" lon="-4.29131">
        <ele>56.799999237061</ele>
        <time>2022-08-07T07:17:42.000Z</time>
      </trkpt>
      <trkpt lat="48.57054" lon="-4.29123">
        <ele>57</ele>
        <time>2022-08-07T07:17:43.000Z</time>
      </trkpt>
      <trkpt lat="48.57054" lon="-4.29116">
        <ele>57</ele>
        <time>2022-08-07T07:17:44.000Z</time>
      </trkpt>
      <trkpt lat="48.57054" lon="-4.29109">
        <ele>56.799999237061</ele>
        <time>2022-08-07T07:17:45.000Z</time>
      </trkpt>
      <trkpt lat="48.57054" lon="-4.29102">
        <ele>56.799999237061</ele>
        <time>2022-08-07T07:17:46.000Z</time>
      </trkpt>
      <trkpt lat="48.57054" lon="-4.29096">
        <ele>56.799999237061</ele>
        <time>2022-08-07T07:17:47.000Z</time>
      </trkpt>
      <trkpt lat="48.57054" lon="-4.2909">
        <ele>56.799999237061</ele>
        <time>2022-08-07T07:17:48.000Z</time>
      </trkpt>
      <trkpt lat="48.57054" lon="-4.29084">
        <ele>57</ele>
        <time>2022-08-07T07:17:49.000Z</time>
      </trkpt>
      <trkpt lat="48.57053" lon="-4.29079">
        <ele>57</ele>
        <time>2022-08-07T07:17:50.000Z</time>
      </trkpt>
      <trkpt lat="48.57052" lon="-4.29073">
        <ele>57</ele>
        <time>2022-08-07T07:17:51.000Z</time>
      </trkpt>
      <trkpt lat="48.57052" lon="-4.29067">
        <ele>57.200000762939</ele>
        <time>2022-08-07T07:17:52.000Z</time>
      </trkpt>
      <trkpt lat="48.57051" lon="-4.2906">
        <ele>57.200000762939</ele>
        <time>2022-08-07T07:17:53.000Z</time>
      </trkpt>
      <trkpt lat="48.5705" lon="-4.29053">
        <ele>57.200000762939</ele>
        <time>2022-08-07T07:17:54.000Z</time>
      </trkpt>
      <trkpt lat="48.5705" lon="-4.29046">
        <ele>57.200000762939</ele>
        <time>2022-08-07T07:17:55.000Z</time>
      </trkpt>
      <trkpt lat="48.57049" lon="-4.2904">
        <ele>57.200000762939</ele>
        <time>2022-08-07T07:17:56.000Z</time>
      </trkpt>
      <trkpt lat="48.57049" lon="-4.29034">
        <ele>57.200000762939</ele>
        <time>2022-08-07T07:17:57.000Z</time>
      </trkpt>
      <trkpt lat="48.57049" lon="-4.29029">
        <ele>57.200000762939</ele>
        <time>2022-08-07T07:17:58.000Z</time>
      </trkpt>
      <trkpt lat="48.5705" lon="-4.29022">
        <ele>57.200000762939</ele>
        <time>2022-08-07T07:17:59.000Z</time>
      </trkpt>
      <trkpt lat="48.57051" lon="-4.29016">
        <ele>57.400001525879</ele>
        <time>2022-08-07T07:18:00.000Z</time>
      </trkpt>
      <trkpt lat="48.57051" lon="-4.29009">
        <ele>57.599998474121</ele>
        <time>2022-08-07T07:18:01.000Z</time>
      </trkpt>
      <trkpt lat="48.57051" lon="-4.29003">
        <ele>57.599998474121</ele>
        <time>2022-08-07T07:18:02.000Z</time>
      </trkpt>
      <trkpt lat="48.57052" lon="-4.28997">
        <ele>57.799999237061</ele>
        <time>2022-08-07T07:18:03.000Z</time>
      </trkpt>
      <trkpt lat="48.57053" lon="-4.28991">
        <ele>57.799999237061</ele>
        <time>2022-08-07T07:18:04.000Z</time>
      </trkpt>
      <trkpt lat="48.57053" lon="-4.28985">
        <ele>58</ele>
        <time>2022-08-07T07:18:05.000Z</time>
      </trkpt>
      <trkpt lat="48.57054" lon="-4.28979">
        <ele>58</ele>
        <time>2022-08-07T07:18:06.000Z</time>
      </trkpt>
      <trkpt lat="48.57055" lon="-4.28973">
        <ele>58.200000762939</ele>
        <time>2022-08-07T07:18:07.000Z</time>
      </trkpt>
      <trkpt lat="48.57056" lon="-4.28966">
        <ele>58.400001525879</ele>
        <time>2022-08-07T07:18:08.000Z</time>
      </trkpt>
      <trkpt lat="48.57057" lon="-4.28959">
        <ele>58.599998474121</ele>
        <time>2022-08-07T07:18:09.000Z</time>
      </trkpt>
      <trkpt lat="48.57058" lon="-4.28953">
        <ele>58.599998474121</ele>
        <time>2022-08-07T07:18:10.000Z</time>
      </trkpt>
      <trkpt lat="48.57057" lon="-4.28946">
        <ele>58.799999237061</ele>
        <time>2022-08-07T07:18:11.000Z</time>
      </trkpt>
      <trkpt lat="48.57056" lon="-4.28941">
        <ele>59</ele>
        <time>2022-08-07T07:18:12.000Z</time>
      </trkpt>
      <trkpt lat="48.57054" lon="-4.28937">
        <ele>59.200000762939</ele>
        <time>2022-08-07T07:18:13.000Z</time>
      </trkpt>
      <trkpt lat="48.57053" lon="-4.28932">
        <ele>59.599998474121</ele>
        <time>2022-08-07T07:18:14.000Z</time>
      </trkpt>
      <trkpt lat="48.57052" lon="-4.28927">
        <ele>60</ele>
        <time>2022-08-07T07:18:15.000Z</time>
      </trkpt>
      <trkpt lat="48.57051" lon="-4.28922">
        <ele>60.200000762939</ele>
        <time>2022-08-07T07:18:16.000Z</time>
      </trkpt>
      <trkpt lat="48.57049" lon="-4.28917">
        <ele>60.400001525879</ele>
        <time>2022-08-07T07:18:17.000Z</time>
      </trkpt>
      <trkpt lat="48.57047" lon="-4.28912">
        <ele>61</ele>
        <time>2022-08-07T07:18:18.000Z</time>
      </trkpt>
      <trkpt lat="48.57047" lon="-4.28906">
        <ele>61.200000762939</ele>
        <time>2022-08-07T07:18:19.000Z</time>
      </trkpt>
      <trkpt lat="48.57047" lon="-4.28899">
        <ele>61.599998474121</ele>
        <time>2022-08-07T07:18:20.000Z</time>
      </trkpt>
      <trkpt lat="48.57049" lon="-4.28893">
        <ele>61.799999237061</ele>
        <time>2022-08-07T07:18:21.000Z</time>
      </trkpt>
      <trkpt lat="48.5705" lon="-4.28889">
        <ele>61.799999237061</ele>
        <time>2022-08-07T07:18:22.000Z</time>
      </trkpt>
      <trkpt lat="48.57051" lon="-4.28885">
        <ele>62</ele>
        <time>2022-08-07T07:18:23.000Z</time>
      </trkpt>
      <trkpt lat="48.57051" lon="-4.2888">
        <ele>62.200000762939</ele>
        <time>2022-08-07T07:18:24.000Z</time>
      </trkpt>
      <trkpt lat="48.57049" lon="-4.28875">
        <ele>62.400001525879</ele>
        <time>2022-08-07T07:18:25.000Z</time>
      </trkpt>
      <trkpt lat="48.57047" lon="-4.28869">
        <ele>62.599998474121</ele>
        <time>2022-08-07T07:18:26.000Z</time>
      </trkpt>
      <trkpt lat="48.57045" lon="-4.28863">
        <ele>62.599998474121</ele>
        <time>2022-08-07T07:18:27.000Z</time>
      </trkpt>
      <trkpt lat="48.57044" lon="-4.28858">
        <ele>62.599998474121</ele>
        <time>2022-08-07T07:18:28.000Z</time>
      </trkpt>
      <trkpt lat="48.57042" lon="-4.28854">
        <ele>62.799999237061</ele>
        <time>2022-08-07T07:18:29.000Z</time>
      </trkpt>
      <trkpt lat="48.57038" lon="-4.2885">
        <ele>63</ele>
        <time>2022-08-07T07:18:30.000Z</time>
      </trkpt>
      <trkpt lat="48.57035" lon="-4.28847">
        <ele>63</ele>
        <time>2022-08-07T07:18:31.000Z</time>
      </trkpt>
      <trkpt lat="48.57032" lon="-4.28839">
        <ele>63.200000762939</ele>
        <time>2022-08-07T07:18:32.000Z</time>
      </trkpt>
      <trkpt lat="48.57031" lon="-4.28833">
        <ele>63.200000762939</ele>
        <time>2022-08-07T07:18:33.000Z</time>
      </trkpt>
      <trkpt lat="48.57029" lon="-4.28828">
        <ele>63</ele>
        <time>2022-08-07T07:18:34.000Z</time>
      </trkpt>
      <trkpt lat="48.5703" lon="-4.28822">
        <ele>62.799999237061</ele>
        <time>2022-08-07T07:18:35.000Z</time>
      </trkpt>
      <trkpt lat="48.57031" lon="-4.28814">
        <ele>62.799999237061</ele>
        <time>2022-08-07T07:18:36.000Z</time>
      </trkpt>
      <trkpt lat="48.57031" lon="-4.28804">
        <ele>62.799999237061</ele>
        <time>2022-08-07T07:18:37.000Z</time>
      </trkpt>
      <trkpt lat="48.57031" lon="-4.28795">
        <ele>62.599998474121</ele>
        <time>2022-08-07T07:18:38.000Z</time>
      </trkpt>
      <trkpt lat="48.5703" lon="-4.28787">
        <ele>62.599998474121</ele>
        <time>2022-08-07T07:18:39.000Z</time>
      </trkpt>
      <trkpt lat="48.57029" lon="-4.2878">
        <ele>62.599998474121</ele>
        <time>2022-08-07T07:18:40.000Z</time>
      </trkpt>
      <trkpt lat="48.57031" lon="-4.28774">
        <ele>62.599998474121</ele>
        <time>2022-08-07T07:18:41.000Z</time>
      </trkpt>
      <trkpt lat="48.57032" lon="-4.28769">
        <ele>62.200000762939</ele>
        <time>2022-08-07T07:18:42.000Z</time>
      </trkpt>
      <trkpt lat="48.57032" lon="-4.28764">
        <ele>62</ele>
        <time>2022-08-07T07:18:43.000Z</time>
      </trkpt>
      <trkpt lat="48.5703" lon="-4.28758">
        <ele>61.799999237061</ele>
        <time>2022-08-07T07:18:44.000Z</time>
      </trkpt>
      <trkpt lat="48.57029" lon="-4.28754">
        <ele>61.599998474121</ele>
        <time>2022-08-07T07:18:45.000Z</time>
      </trkpt>
      <trkpt lat="48.57027" lon="-4.2875">
        <ele>61.400001525879</ele>
        <time>2022-08-07T07:18:46.000Z</time>
      </trkpt>
      <trkpt lat="48.57026" lon="-4.28745">
        <ele>61.200000762939</ele>
        <time>2022-08-07T07:18:47.000Z</time>
      </trkpt>
      <trkpt lat="48.57027" lon="-4.28739">
        <ele>61</ele>
        <time>2022-08-07T07:18:48.000Z</time>
      </trkpt>
      <trkpt lat="48.57026" lon="-4.28731">
        <ele>60.799999237061</ele>
        <time>2022-08-07T07:18:49.000Z</time>
      </trkpt>
      <trkpt lat="48.57024" lon="-4.28725">
        <ele>60.799999237061</ele>
        <time>2022-08-07T07:18:50.000Z</time>
      </trkpt>
      <trkpt lat="48.57022" lon="-4.28717">
        <ele>60.599998474121</ele>
        <time>2022-08-07T07:18:51.000Z</time>
      </trkpt>
      <trkpt lat="48.57021" lon="-4.28707">
        <ele>60.400001525879</ele>
        <time>2022-08-07T07:18:52.000Z</time>
      </trkpt>
      <trkpt lat="48.57021" lon="-4.28696">
        <ele>60.200000762939</ele>
        <time>2022-08-07T07:18:53.000Z</time>
      </trkpt>
      <trkpt lat="48.57023" lon="-4.28686">
        <ele>60</ele>
        <time>2022-08-07T07:18:54.000Z</time>
      </trkpt>
      <trkpt lat="48.57024" lon="-4.28677">
        <ele>60</ele>
        <time>2022-08-07T07:18:55.000Z</time>
      </trkpt>
      <trkpt lat="48.57024" lon="-4.28668">
        <ele>59.599998474121</ele>
        <time>2022-08-07T07:18:56.000Z</time>
      </trkpt>
      <trkpt lat="48.57024" lon="-4.28659">
        <ele>59.400001525879</ele>
        <time>2022-08-07T07:18:57.000Z</time>
      </trkpt>
      <trkpt lat="48.57026" lon="-4.28652">
        <ele>58.400001525879</ele>
        <time>2022-08-07T07:18:58.000Z</time>
      </trkpt>
      <trkpt lat="48.57026" lon="-4.28649">
        <ele>58</ele>
        <time>2022-08-07T07:18:59.000Z</time>
      </trkpt>
      <trkpt lat="48.57026" lon="-4.28646">
        <ele>57</ele>
        <time>2022-08-07T07:19:00.000Z</time>
      </trkpt>
      <trkpt lat="48.57026" lon="-4.28643">
        <ele>56</ele>
        <time>2022-08-07T07:19:01.000Z</time>
      </trkpt>
      <trkpt lat="48.57024" lon="-4.28641">
        <ele>55.599998474121</ele>
        <time>2022-08-07T07:19:02.000Z</time>
      </trkpt>
      <trkpt lat="48.57024" lon="-4.28639">
        <ele>54.799999237061</ele>
        <time>2022-08-07T07:19:03.000Z</time>
      </trkpt>
      <trkpt lat="48.57023" lon="-4.28636">
        <ele>54.599998474121</ele>
        <time>2022-08-07T07:19:04.000Z</time>
      </trkpt>
      <trkpt lat="48.57025" lon="-4.28633">
        <ele>54.200000762939</ele>
        <time>2022-08-07T07:19:05.000Z</time>
      </trkpt>
      <trkpt lat="48.57026" lon="-4.2863">
        <ele>54</ele>
        <time>2022-08-07T07:19:06.000Z</time>
      </trkpt>
      <trkpt lat="48.57026" lon="-4.28627">
        <ele>53.799999237061</ele>
        <time>2022-08-07T07:19:07.000Z</time>
      </trkpt>
      <trkpt lat="48.57025" lon="-4.28623">
        <ele>53.599998474121</ele>
        <time>2022-08-07T07:19:08.000Z</time>
      </trkpt>
      <trkpt lat="48.57025" lon="-4.28619">
        <ele>53.400001525879</ele>
        <time>2022-08-07T07:19:09.000Z</time>
      </trkpt>
      <trkpt lat="48.57025" lon="-4.28615">
        <ele>53.400001525879</ele>
        <time>2022-08-07T07:19:10.000Z</time>
      </trkpt>
      <trkpt lat="48.57025" lon="-4.28612">
        <ele>53.200000762939</ele>
        <time>2022-08-07T07:19:11.000Z</time>
      </trkpt>
      <trkpt lat="48.57025" lon="-4.2861">
        <ele>53</ele>
        <time>2022-08-07T07:19:12.000Z</time>
      </trkpt>
      <trkpt lat="48.57024" lon="-4.28609">
        <ele>52.400001525879</ele>
        <time>2022-08-07T07:19:14.000Z</time>
      </trkpt>
      <trkpt lat="48.57023" lon="-4.28606">
        <ele>52.400001525879</ele>
        <time>2022-08-07T07:19:15.000Z</time>
      </trkpt>
      <trkpt lat="48.57024" lon="-4.28603">
        <ele>52</ele>
        <time>2022-08-07T07:19:16.000Z</time>
      </trkpt>
      <trkpt lat="48.57024" lon="-4.286">
        <ele>52</ele>
        <time>2022-08-07T07:19:17.000Z</time>
      </trkpt>
      <trkpt lat="48.57024" lon="-4.28597">
        <ele>51.599998474121</ele>
        <time>2022-08-07T07:19:18.000Z</time>
      </trkpt>
      <trkpt lat="48.57024" lon="-4.28596">
        <ele>51.599998474121</ele>
        <time>2022-08-07T07:19:19.000Z</time>
      </trkpt>
      <trkpt lat="48.57025" lon="-4.28594">
        <ele>51.400001525879</ele>
        <time>2022-08-07T07:19:20.000Z</time>
      </trkpt>
      <trkpt lat="48.57026" lon="-4.28591">
        <ele>51.200000762939</ele>
        <time>2022-08-07T07:19:21.000Z</time>
      </trkpt>
      <trkpt lat="48.57028" lon="-4.28589">
        <ele>51.200000762939</ele>
        <time>2022-08-07T07:19:22.000Z</time>
      </trkpt>
      <trkpt lat="48.5703" lon="-4.28588">
        <ele>51.200000762939</ele>
        <time>2022-08-07T07:19:23.000Z</time>
      </trkpt>
      <trkpt lat="48.57031" lon="-4.28587">
        <ele>51.200000762939</ele>
        <time>2022-08-07T07:19:24.000Z</time>
      </trkpt>
      <trkpt lat="48.57033" lon="-4.28588">
        <ele>51.200000762939</ele>
        <time>2022-08-07T07:19:25.000Z</time>
      </trkpt>
      <trkpt lat="48.57034" lon="-4.28588">
        <ele>51.200000762939</ele>
        <time>2022-08-07T07:19:26.000Z</time>
      </trkpt>
      <trkpt lat="48.57035" lon="-4.28586">
        <ele>51.200000762939</ele>
        <time>2022-08-07T07:19:27.000Z</time>
      </trkpt>
      <trkpt lat="48.57036" lon="-4.28586">
        <ele>51.200000762939</ele>
        <time>2022-08-07T07:19:28.000Z</time>
      </trkpt>
      <trkpt lat="48.57035" lon="-4.28583">
        <ele>51.400001525879</ele>
        <time>2022-08-07T07:19:29.000Z</time>
      </trkpt>
      <trkpt lat="48.57035" lon="-4.28576">
        <ele>51.400001525879</ele>
        <time>2022-08-07T07:19:30.000Z</time>
      </trkpt>
      <trkpt lat="48.57036" lon="-4.2857">
        <ele>51.400001525879</ele>
        <time>2022-08-07T07:19:31.000Z</time>
      </trkpt>
      <trkpt lat="48.57039" lon="-4.28566">
        <ele>51.599998474121</ele>
        <time>2022-08-07T07:19:32.000Z</time>
      </trkpt>
      <trkpt lat="48.57042" lon="-4.28562">
        <ele>51.599998474121</ele>
        <time>2022-08-07T07:19:33.000Z</time>
      </trkpt>
      <trkpt lat="48.57045" lon="-4.28556">
        <ele>51.599998474121</ele>
        <time>2022-08-07T07:19:34.000Z</time>
      </trkpt>
      <trkpt lat="48.57046" lon="-4.28551">
        <ele>51.599998474121</ele>
        <time>2022-08-07T07:19:35.000Z</time>
      </trkpt>
      <trkpt lat="48.57049" lon="-4.28546">
        <ele>51.599998474121</ele>
        <time>2022-08-07T07:19:36.000Z</time>
      </trkpt>
      <trkpt lat="48.57053" lon="-4.28541">
        <ele>51.599998474121</ele>
        <time>2022-08-07T07:19:37.000Z</time>
      </trkpt>
      <trkpt lat="48.57056" lon="-4.28535">
        <ele>51.400001525879</ele>
        <time>2022-08-07T07:19:38.000Z</time>
      </trkpt>
      <trkpt lat="48.5706" lon="-4.28533">
        <ele>51.400001525879</ele>
        <time>2022-08-07T07:19:39.000Z</time>
      </trkpt>
      <trkpt lat="48.57063" lon="-4.28534">
        <ele>51.200000762939</ele>
        <time>2022-08-07T07:19:40.000Z</time>
      </trkpt>
      <trkpt lat="48.57066" lon="-4.28536">
        <ele>50.599998474121</ele>
        <time>2022-08-07T07:19:41.000Z</time>
      </trkpt>
      <trkpt lat="48.57068" lon="-4.28538">
        <ele>50.599998474121</ele>
        <time>2022-08-07T07:19:42.000Z</time>
      </trkpt>
      <trkpt lat="48.57071" lon="-4.28543">
        <ele>50.400001525879</ele>
        <time>2022-08-07T07:19:43.000Z</time>
      </trkpt>
      <trkpt lat="48.57073" lon="-4.28545">
        <ele>50.200000762939</ele>
        <time>2022-08-07T07:19:44.000Z</time>
      </trkpt>
      <trkpt lat="48.57074" lon="-4.28547">
        <ele>50.200000762939</ele>
        <time>2022-08-07T07:19:45.000Z</time>
      </trkpt>
      <trkpt lat="48.57075" lon="-4.28549">
        <ele>50.200000762939</ele>
        <time>2022-08-07T07:19:46.000Z</time>
      </trkpt>
      <trkpt lat="48.57075" lon="-4.28551">
        <ele>50.200000762939</ele>
        <time>2022-08-07T07:19:47.000Z</time>
      </trkpt>
      <trkpt lat="48.57077" lon="-4.28552">
        <ele>50.200000762939</ele>
        <time>2022-08-07T07:19:48.000Z</time>
      </trkpt>
      <trkpt lat="48.57079" lon="-4.28553">
        <ele>50.599998474121</ele>
        <time>2022-08-07T07:19:49.000Z</time>
      </trkpt>
      <trkpt lat="48.57081" lon="-4.28554">
        <ele>50.599998474121</ele>
        <time>2022-08-07T07:19:50.000Z</time>
      </trkpt>
      <trkpt lat="48.57083" lon="-4.28556">
        <ele>51</ele>
        <time>2022-08-07T07:19:51.000Z</time>
      </trkpt>
      <trkpt lat="48.57085" lon="-4.28557">
        <ele>51.200000762939</ele>
        <time>2022-08-07T07:19:52.000Z</time>
      </trkpt>
      <trkpt lat="48.57086" lon="-4.2856">
        <ele>51.200000762939</ele>
        <time>2022-08-07T07:19:55.000Z</time>
      </trkpt>
      <trkpt lat="48.57087" lon="-4.28562">
        <ele>51.200000762939</ele>
        <time>2022-08-07T07:19:56.000Z</time>
      </trkpt>
      <trkpt lat="48.57088" lon="-4.28564">
        <ele>51</ele>
        <time>2022-08-07T07:19:57.000Z</time>
      </trkpt>
      <trkpt lat="48.57089" lon="-4.28564">
        <ele>50.799999237061</ele>
        <time>2022-08-07T07:19:58.000Z</time>
      </trkpt>
      <trkpt lat="48.57091" lon="-4.28565">
        <ele>50.799999237061</ele>
        <time>2022-08-07T07:19:59.000Z</time>
      </trkpt>
      <trkpt lat="48.57093" lon="-4.28566">
        <ele>50.799999237061</ele>
        <time>2022-08-07T07:20:00.000Z</time>
      </trkpt>
      <trkpt lat="48.57096" lon="-4.28566">
        <ele>50.599998474121</ele>
        <time>2022-08-07T07:20:01.000Z</time>
      </trkpt>
      <trkpt lat="48.57099" lon="-4.28565">
        <ele>50.400001525879</ele>
        <time>2022-08-07T07:20:02.000Z</time>
      </trkpt>
      <trkpt lat="48.57104" lon="-4.28561">
        <ele>50.400001525879</ele>
        <time>2022-08-07T07:20:03.000Z</time>
      </trkpt>
      <trkpt lat="48.57108" lon="-4.28555">
        <ele>50.200000762939</ele>
        <time>2022-08-07T07:20:04.000Z</time>
      </trkpt>
      <trkpt lat="48.57111" lon="-4.2855">
        <ele>49.799999237061</ele>
        <time>2022-08-07T07:20:05.000Z</time>
      </trkpt>
      <trkpt lat="48.57114" lon="-4.28546">
        <ele>49.599998474121</ele>
        <time>2022-08-07T07:20:06.000Z</time>
      </trkpt>
      <trkpt lat="48.57118" lon="-4.2854">
        <ele>48.799999237061</ele>
        <time>2022-08-07T07:20:07.000Z</time>
      </trkpt>
      <trkpt lat="48.57122" lon="-4.28536">
        <ele>48.400001525879</ele>
        <time>2022-08-07T07:20:08.000Z</time>
      </trkpt>
      <trkpt lat="48.57124" lon="-4.28532">
        <ele>47.799999237061</ele>
        <time>2022-08-07T07:20:09.000Z</time>
      </trkpt>
      <trkpt lat="48.57126" lon="-4.28531">
        <ele>47.400001525879</ele>
        <time>2022-08-07T07:20:10.000Z</time>
      </trkpt>
      <trkpt lat="48.5713" lon="-4.2853">
        <ele>45.799999237061</ele>
        <time>2022-08-07T07:20:11.000Z</time>
      </trkpt>
      <trkpt lat="48.57134" lon="-4.2853">
        <ele>44.799999237061</ele>
        <time>2022-08-07T07:20:12.000Z</time>
      </trkpt>
      <trkpt lat="48.57138" lon="-4.28532">
        <ele>44.400001525879</ele>
        <time>2022-08-07T07:20:13.000Z</time>
      </trkpt>
      <trkpt lat="48.57141" lon="-4.28533">
        <ele>43.400001525879</ele>
        <time>2022-08-07T07:20:14.000Z</time>
      </trkpt>
      <trkpt lat="48.57144" lon="-4.28534">
        <ele>42.799999237061</ele>
        <time>2022-08-07T07:20:15.000Z</time>
      </trkpt>
      <trkpt lat="48.57148" lon="-4.28536">
        <ele>41.400001525879</ele>
        <time>2022-08-07T07:20:16.000Z</time>
      </trkpt>
      <trkpt lat="48.57152" lon="-4.28539">
        <ele>40.599998474121</ele>
        <time>2022-08-07T07:20:17.000Z</time>
      </trkpt>
      <trkpt lat="48.57155" lon="-4.28541">
        <ele>39</ele>
        <time>2022-08-07T07:20:18.000Z</time>
      </trkpt>
      <trkpt lat="48.57158" lon="-4.28543">
        <ele>38.599998474121</ele>
        <time>2022-08-07T07:20:19.000Z</time>
      </trkpt>
      <trkpt lat="48.57161" lon="-4.28545">
        <ele>38.200000762939</ele>
        <time>2022-08-07T07:20:20.000Z</time>
      </trkpt>
      <trkpt lat="48.57164" lon="-4.28547">
        <ele>37.799999237061</ele>
        <time>2022-08-07T07:20:21.000Z</time>
      </trkpt>
      <trkpt lat="48.57168" lon="-4.28545">
        <ele>37.799999237061</ele>
        <time>2022-08-07T07:20:22.000Z</time>
      </trkpt>
      <trkpt lat="48.57172" lon="-4.28543">
        <ele>37.400001525879</ele>
        <time>2022-08-07T07:20:23.000Z</time>
      </trkpt>
      <trkpt lat="48.57175" lon="-4.28542">
        <ele>37.400001525879</ele>
        <time>2022-08-07T07:20:24.000Z</time>
      </trkpt>
      <trkpt lat="48.57178" lon="-4.2854">
        <ele>37.200000762939</ele>
        <time>2022-08-07T07:20:25.000Z</time>
      </trkpt>
      <trkpt lat="48.57182" lon="-4.28537">
        <ele>37</ele>
        <time>2022-08-07T07:20:26.000Z</time>
      </trkpt>
      <trkpt lat="48.57186" lon="-4.28534">
        <ele>36.799999237061</ele>
        <time>2022-08-07T07:20:27.000Z</time>
      </trkpt>
      <trkpt lat="48.57191" lon="-4.28531">
        <ele>36.599998474121</ele>
        <time>2022-08-07T07:20:28.000Z</time>
      </trkpt>
      <trkpt lat="48.57195" lon="-4.2853">
        <ele>36.400001525879</ele>
        <time>2022-08-07T07:20:29.000Z</time>
      </trkpt>
      <trkpt lat="48.57203" lon="-4.28532">
        <ele>36.200000762939</ele>
        <time>2022-08-07T07:20:30.000Z</time>
      </trkpt>
      <trkpt lat="48.57209" lon="-4.28532">
        <ele>35.599998474121</ele>
        <time>2022-08-07T07:20:31.000Z</time>
      </trkpt>
      <trkpt lat="48.57212" lon="-4.28534">
        <ele>35.400001525879</ele>
        <time>2022-08-07T07:20:32.000Z</time>
      </trkpt>
      <trkpt lat="48.57215" lon="-4.28536">
        <ele>35.200000762939</ele>
        <time>2022-08-07T07:20:33.000Z</time>
      </trkpt>
      <trkpt lat="48.57216" lon="-4.2854">
        <ele>35.200000762939</ele>
        <time>2022-08-07T07:20:34.000Z</time>
      </trkpt>
      <trkpt lat="48.57217" lon="-4.28542">
        <ele>35</ele>
        <time>2022-08-07T07:20:35.000Z</time>
      </trkpt>
      <trkpt lat="48.57219" lon="-4.28543">
        <ele>35</ele>
        <time>2022-08-07T07:20:36.000Z</time>
      </trkpt>
      <trkpt lat="48.57224" lon="-4.28545">
        <ele>35</ele>
        <time>2022-08-07T07:20:37.000Z</time>
      </trkpt>
      <trkpt lat="48.57229" lon="-4.28549">
        <ele>34.799999237061</ele>
        <time>2022-08-07T07:20:38.000Z</time>
      </trkpt>
      <trkpt lat="48.57232" lon="-4.28551">
        <ele>35</ele>
        <time>2022-08-07T07:20:39.000Z</time>
      </trkpt>
      <trkpt lat="48.57234" lon="-4.28552">
        <ele>35</ele>
        <time>2022-08-07T07:20:40.000Z</time>
      </trkpt>
      <trkpt lat="48.57237" lon="-4.28554">
        <ele>35.400001525879</ele>
        <time>2022-08-07T07:20:41.000Z</time>
      </trkpt>
      <trkpt lat="48.57241" lon="-4.28556">
        <ele>35.599998474121</ele>
        <time>2022-08-07T07:20:42.000Z</time>
      </trkpt>
      <trkpt lat="48.57243" lon="-4.28558">
        <ele>35.799999237061</ele>
        <time>2022-08-07T07:20:43.000Z</time>
      </trkpt>
      <trkpt lat="48.57245" lon="-4.28559">
        <ele>36</ele>
        <time>2022-08-07T07:20:44.000Z</time>
      </trkpt>
      <trkpt lat="48.57247" lon="-4.2856">
        <ele>36</ele>
        <time>2022-08-07T07:20:45.000Z</time>
      </trkpt>
      <trkpt lat="48.57248" lon="-4.28561">
        <ele>36.200000762939</ele>
        <time>2022-08-07T07:20:46.000Z</time>
      </trkpt>
      <trkpt lat="48.5725" lon="-4.28563">
        <ele>36.599998474121</ele>
        <time>2022-08-07T07:20:47.000Z</time>
      </trkpt>
      <trkpt lat="48.57253" lon="-4.28564">
        <ele>36.799999237061</ele>
        <time>2022-08-07T07:20:48.000Z</time>
      </trkpt>
      <trkpt lat="48.57257" lon="-4.28566">
        <ele>37</ele>
        <time>2022-08-07T07:20:49.000Z</time>
      </trkpt>
      <trkpt lat="48.57259" lon="-4.28567">
        <ele>37.200000762939</ele>
        <time>2022-08-07T07:20:50.000Z</time>
      </trkpt>
      <trkpt lat="48.57262" lon="-4.28568">
        <ele>37.599998474121</ele>
        <time>2022-08-07T07:20:51.000Z</time>
      </trkpt>
      <trkpt lat="48.57266" lon="-4.28568">
        <ele>37.799999237061</ele>
        <time>2022-08-07T07:20:52.000Z</time>
      </trkpt>
      <trkpt lat="48.57268" lon="-4.28569">
        <ele>37.799999237061</ele>
        <time>2022-08-07T07:20:53.000Z</time>
      </trkpt>
      <trkpt lat="48.5727" lon="-4.28572">
        <ele>38</ele>
        <time>2022-08-07T07:20:54.000Z</time>
      </trkpt>
      <trkpt lat="48.57271" lon="-4.28574">
        <ele>38</ele>
        <time>2022-08-07T07:20:55.000Z</time>
      </trkpt>
      <trkpt lat="48.57272" lon="-4.28576">
        <ele>38</ele>
        <time>2022-08-07T07:20:56.000Z</time>
      </trkpt>
      <trkpt lat="48.57273" lon="-4.28577">
        <ele>38</ele>
        <time>2022-08-07T07:20:57.000Z</time>
      </trkpt>
      <trkpt lat="48.57275" lon="-4.28578">
        <ele>38</ele>
        <time>2022-08-07T07:20:58.000Z</time>
      </trkpt>
      <trkpt lat="48.57278" lon="-4.28579">
        <ele>38</ele>
        <time>2022-08-07T07:20:59.000Z</time>
      </trkpt>
      <trkpt lat="48.5728" lon="-4.28579">
        <ele>38</ele>
        <time>2022-08-07T07:21:00.000Z</time>
      </trkpt>
      <trkpt lat="48.57283" lon="-4.28579">
        <ele>38</ele>
        <time>2022-08-07T07:21:01.000Z</time>
      </trkpt>
      <trkpt lat="48.57285" lon="-4.2858">
        <ele>38</ele>
        <time>2022-08-07T07:21:02.000Z</time>
      </trkpt>
      <trkpt lat="48.57286" lon="-4.28583">
        <ele>38</ele>
        <time>2022-08-07T07:21:03.000Z</time>
      </trkpt>
      <trkpt lat="48.57287" lon="-4.28585">
        <ele>38</ele>
        <time>2022-08-07T07:21:04.000Z</time>
      </trkpt>
      <trkpt lat="48.57288" lon="-4.28585">
        <ele>38</ele>
        <time>2022-08-07T07:21:06.000Z</time>
      </trkpt>
      <trkpt lat="48.5729" lon="-4.28586">
        <ele>38</ele>
        <time>2022-08-07T07:21:07.000Z</time>
      </trkpt>
      <trkpt lat="48.57292" lon="-4.28587">
        <ele>38</ele>
        <time>2022-08-07T07:21:08.000Z</time>
      </trkpt>
      <trkpt lat="48.57294" lon="-4.28587">
        <ele>38</ele>
        <time>2022-08-07T07:21:09.000Z</time>
      </trkpt>
      <trkpt lat="48.57296" lon="-4.28587">
        <ele>37.799999237061</ele>
        <time>2022-08-07T07:21:10.000Z</time>
      </trkpt>
      <trkpt lat="48.57299" lon="-4.28585">
        <ele>37.799999237061</ele>
        <time>2022-08-07T07:21:11.000Z</time>
      </trkpt>
      <trkpt lat="48.57302" lon="-4.28585">
        <ele>37.599998474121</ele>
        <time>2022-08-07T07:21:12.000Z</time>
      </trkpt>
      <trkpt lat="48.57304" lon="-4.28585">
        <ele>37.599998474121</ele>
        <time>2022-08-07T07:21:13.000Z</time>
      </trkpt>
      <trkpt lat="48.57306" lon="-4.28584">
        <ele>37.599998474121</ele>
        <time>2022-08-07T07:21:14.000Z</time>
      </trkpt>
      <trkpt lat="48.57307" lon="-4.28583">
        <ele>37.400001525879</ele>
        <time>2022-08-07T07:21:15.000Z</time>
      </trkpt>
      <trkpt lat="48.5731" lon="-4.28582">
        <ele>37.400001525879</ele>
        <time>2022-08-07T07:21:16.000Z</time>
      </trkpt>
      <trkpt lat="48.57313" lon="-4.28579">
        <ele>37.400001525879</ele>
        <time>2022-08-07T07:21:17.000Z</time>
      </trkpt>
      <trkpt lat="48.57315" lon="-4.28575">
        <ele>37.200000762939</ele>
        <time>2022-08-07T07:21:18.000Z</time>
      </trkpt>
      <trkpt lat="48.57318" lon="-4.28567">
        <ele>36.200000762939</ele>
        <time>2022-08-07T07:21:35.000Z</time>
      </trkpt>
      <trkpt lat="48.57317" lon="-4.28565">
        <ele>36.599998474121</ele>
        <time>2022-08-07T07:21:52.000Z</time>
      </trkpt>
      <trkpt lat="48.57317" lon="-4.28564">
        <ele>36.599998474121</ele>
        <time>2022-08-07T07:21:53.000Z</time>
      </trkpt>
      <trkpt lat="48.57317" lon="-4.28562">
        <ele>36.400001525879</ele>
        <time>2022-08-07T07:21:57.000Z</time>
      </trkpt>
      <trkpt lat="48.57317" lon="-4.2856">
        <ele>36.400001525879</ele>
        <time>2022-08-07T07:21:58.000Z</time>
      </trkpt>
      <trkpt lat="48.57316" lon="-4.28557">
        <ele>36.400001525879</ele>
        <time>2022-08-07T07:21:59.000Z</time>
      </trkpt>
      <trkpt lat="48.57316" lon="-4.28554">
        <ele>36.400001525879</ele>
        <time>2022-08-07T07:22:00.000Z</time>
      </trkpt>
      <trkpt lat="48.57316" lon="-4.28551">
        <ele>36.200000762939</ele>
        <time>2022-08-07T07:22:01.000Z</time>
      </trkpt>
      <trkpt lat="48.57316" lon="-4.28547">
        <ele>36.200000762939</ele>
        <time>2022-08-07T07:22:02.000Z</time>
      </trkpt>
      <trkpt lat="48.57315" lon="-4.28543">
        <ele>36</ele>
        <time>2022-08-07T07:22:03.000Z</time>
      </trkpt>
      <trkpt lat="48.57315" lon="-4.28539">
        <ele>36</ele>
        <time>2022-08-07T07:22:04.000Z</time>
      </trkpt>
      <trkpt lat="48.57315" lon="-4.28534">
        <ele>36.200000762939</ele>
        <time>2022-08-07T07:22:05.000Z</time>
      </trkpt>
      <trkpt lat="48.57314" lon="-4.2853">
        <ele>36</ele>
        <time>2022-08-07T07:22:06.000Z</time>
      </trkpt>
      <trkpt lat="48.57314" lon="-4.28525">
        <ele>36</ele>
        <time>2022-08-07T07:22:07.000Z</time>
      </trkpt>
      <trkpt lat="48.57314" lon="-4.2852">
        <ele>36</ele>
        <time>2022-08-07T07:22:08.000Z</time>
      </trkpt>
      <trkpt lat="48.57313" lon="-4.28516">
        <ele>36</ele>
        <time>2022-08-07T07:22:09.000Z</time>
      </trkpt>
      <trkpt lat="48.57313" lon="-4.2851">
        <ele>36</ele>
        <time>2022-08-07T07:22:10.000Z</time>
      </trkpt>
      <trkpt lat="48.57312" lon="-4.28505">
        <ele>35.799999237061</ele>
        <time>2022-08-07T07:22:11.000Z</time>
      </trkpt>
      <trkpt lat="48.57312" lon="-4.285">
        <ele>35.599998474121</ele>
        <time>2022-08-07T07:22:12.000Z</time>
      </trkpt>
      <trkpt lat="48.57311" lon="-4.28495">
        <ele>35.400001525879</ele>
        <time>2022-08-07T07:22:13.000Z</time>
      </trkpt>
      <trkpt lat="48.57311" lon="-4.28489">
        <ele>35.400001525879</ele>
        <time>2022-08-07T07:22:14.000Z</time>
      </trkpt>
      <trkpt lat="48.5731" lon="-4.28484">
        <ele>35.400001525879</ele>
        <time>2022-08-07T07:22:15.000Z</time>
      </trkpt>
      <trkpt lat="48.5731" lon="-4.28479">
        <ele>35.200000762939</ele>
        <time>2022-08-07T07:22:16.000Z</time>
      </trkpt>
      <trkpt lat="48.57309" lon="-4.28473">
        <ele>35.200000762939</ele>
        <time>2022-08-07T07:22:17.000Z</time>
      </trkpt>
      <trkpt lat="48.57309" lon="-4.28468">
        <ele>35.200000762939</ele>
        <time>2022-08-07T07:22:18.000Z</time>
      </trkpt>
      <trkpt lat="48.57308" lon="-4.28463">
        <ele>35.200000762939</ele>
        <time>2022-08-07T07:22:19.000Z</time>
      </trkpt>
      <trkpt lat="48.57308" lon="-4.28457">
        <ele>35.200000762939</ele>
        <time>2022-08-07T07:22:20.000Z</time>
      </trkpt>
      <trkpt lat="48.57307" lon="-4.28452">
        <ele>35.200000762939</ele>
        <time>2022-08-07T07:22:21.000Z</time>
      </trkpt>
      <trkpt lat="48.57307" lon="-4.28447">
        <ele>35.200000762939</ele>
        <time>2022-08-07T07:22:22.000Z</time>
      </trkpt>
      <trkpt lat="48.57306" lon="-4.28442">
        <ele>35</ele>
        <time>2022-08-07T07:22:23.000Z</time>
      </trkpt>
      <trkpt lat="48.57306" lon="-4.28437">
        <ele>35</ele>
        <time>2022-08-07T07:22:24.000Z</time>
      </trkpt>
      <trkpt lat="48.57305" lon="-4.28432">
        <ele>34.799999237061</ele>
        <time>2022-08-07T07:22:25.000Z</time>
      </trkpt>
      <trkpt lat="48.57305" lon="-4.28428">
        <ele>34.599998474121</ele>
        <time>2022-08-07T07:22:26.000Z</time>
      </trkpt>
      <trkpt lat="48.57305" lon="-4.28423">
        <ele>34.400001525879</ele>
        <time>2022-08-07T07:22:27.000Z</time>
      </trkpt>
      <trkpt lat="48.57304" lon="-4.28419">
        <ele>34.599998474121</ele>
        <time>2022-08-07T07:22:28.000Z</time>
      </trkpt>
      <trkpt lat="48.57303" lon="-4.28414">
        <ele>34.400001525879</ele>
        <time>2022-08-07T07:22:29.000Z</time>
      </trkpt>
      <trkpt lat="48.57303" lon="-4.28409">
        <ele>34.400001525879</ele>
        <time>2022-08-07T07:22:30.000Z</time>
      </trkpt>
      <trkpt lat="48.57302" lon="-4.28405">
        <ele>34.400001525879</ele>
        <time>2022-08-07T07:22:31.000Z</time>
      </trkpt>
      <trkpt lat="48.57302" lon="-4.284">
        <ele>34.200000762939</ele>
        <time>2022-08-07T07:22:32.000Z</time>
      </trkpt>
      <trkpt lat="48.57302" lon="-4.28396">
        <ele>34.200000762939</ele>
        <time>2022-08-07T07:22:33.000Z</time>
      </trkpt>
      <trkpt lat="48.57301" lon="-4.28391">
        <ele>34.400001525879</ele>
        <time>2022-08-07T07:22:34.000Z</time>
      </trkpt>
      <trkpt lat="48.57301" lon="-4.28387">
        <ele>34.400001525879</ele>
        <time>2022-08-07T07:22:35.000Z</time>
      </trkpt>
      <trkpt lat="48.573" lon="-4.28382">
        <ele>34.200000762939</ele>
        <time>2022-08-07T07:22:36.000Z</time>
      </trkpt>
      <trkpt lat="48.573" lon="-4.28378">
        <ele>34.200000762939</ele>
        <time>2022-08-07T07:22:37.000Z</time>
      </trkpt>
      <trkpt lat="48.573" lon="-4.28373">
        <ele>34.400001525879</ele>
        <time>2022-08-07T07:22:38.000Z</time>
      </trkpt>
      <trkpt lat="48.57299" lon="-4.28369">
        <ele>34.400001525879</ele>
        <time>2022-08-07T07:22:39.000Z</time>
      </trkpt>
      <trkpt lat="48.57299" lon="-4.28364">
        <ele>34.400001525879</ele>
        <time>2022-08-07T07:22:40.000Z</time>
      </trkpt>
      <trkpt lat="48.57298" lon="-4.2836">
        <ele>34.400001525879</ele>
        <time>2022-08-07T07:22:41.000Z</time>
      </trkpt>
      <trkpt lat="48.57298" lon="-4.28355">
        <ele>34.400001525879</ele>
        <time>2022-08-07T07:22:42.000Z</time>
      </trkpt>
      <trkpt lat="48.57297" lon="-4.28351">
        <ele>34.400001525879</ele>
        <time>2022-08-07T07:22:43.000Z</time>
      </trkpt>
      <trkpt lat="48.57297" lon="-4.28347">
        <ele>34.400001525879</ele>
        <time>2022-08-07T07:22:44.000Z</time>
      </trkpt>
      <trkpt lat="48.57297" lon="-4.28343">
        <ele>34.400001525879</ele>
        <time>2022-08-07T07:22:45.000Z</time>
      </trkpt>
      <trkpt lat="48.57297" lon="-4.28339">
        <ele>34.400001525879</ele>
        <time>2022-08-07T07:22:46.000Z</time>
      </trkpt>
      <trkpt lat="48.57299" lon="-4.28337">
        <ele>34.400001525879</ele>
        <time>2022-08-07T07:22:47.000Z</time>
      </trkpt>
      <trkpt lat="48.57301" lon="-4.28337">
        <ele>34.599998474121</ele>
        <time>2022-08-07T07:22:48.000Z</time>
      </trkpt>
      <trkpt lat="48.57303" lon="-4.28338">
        <ele>34.599998474121</ele>
        <time>2022-08-07T07:22:49.000Z</time>
      </trkpt>
      <trkpt lat="48.57305" lon="-4.28341">
        <ele>34.799999237061</ele>
        <time>2022-08-07T07:22:50.000Z</time>
      </trkpt>
      <trkpt lat="48.57307" lon="-4.28346">
        <ele>34.799999237061</ele>
        <time>2022-08-07T07:22:51.000Z</time>
      </trkpt>
      <trkpt lat="48.57308" lon="-4.28351">
        <ele>34.799999237061</ele>
        <time>2022-08-07T07:22:52.000Z</time>
      </trkpt>
      <trkpt lat="48.57309" lon="-4.28356">
        <ele>34.799999237061</ele>
        <time>2022-08-07T07:22:53.000Z</time>
      </trkpt>
      <trkpt lat="48.57311" lon="-4.2836">
        <ele>34.799999237061</ele>
        <time>2022-08-07T07:22:54.000Z</time>
      </trkpt>
      <trkpt lat="48.57313" lon="-4.28365">
        <ele>34.799999237061</ele>
        <time>2022-08-07T07:22:55.000Z</time>
      </trkpt>
      <trkpt lat="48.57315" lon="-4.2837">
        <ele>34.799999237061</ele>
        <time>2022-08-07T07:22:56.000Z</time>
      </trkpt>
      <trkpt lat="48.57316" lon="-4.28375">
        <ele>34.799999237061</ele>
        <time>2022-08-07T07:22:57.000Z</time>
      </trkpt>
      <trkpt lat="48.57318" lon="-4.28379">
        <ele>34.799999237061</ele>
        <time>2022-08-07T07:22:58.000Z</time>
      </trkpt>
      <trkpt lat="48.5732" lon="-4.28383">
        <ele>34.799999237061</ele>
        <time>2022-08-07T07:22:59.000Z</time>
      </trkpt>
      <trkpt lat="48.57323" lon="-4.28386">
        <ele>34.599998474121</ele>
        <time>2022-08-07T07:23:00.000Z</time>
      </trkpt>
      <trkpt lat="48.57325" lon="-4.2839">
        <ele>34.599998474121</ele>
        <time>2022-08-07T07:23:01.000Z</time>
      </trkpt>
      <trkpt lat="48.57328" lon="-4.28394">
        <ele>34.400001525879</ele>
        <time>2022-08-07T07:23:02.000Z</time>
      </trkpt>
      <trkpt lat="48.5733" lon="-4.28397">
        <ele>34.200000762939</ele>
        <time>2022-08-07T07:23:03.000Z</time>
      </trkpt>
      <trkpt lat="48.57333" lon="-4.284">
        <ele>34</ele>
        <time>2022-08-07T07:23:04.000Z</time>
      </trkpt>
      <trkpt lat="48.57336" lon="-4.28404">
        <ele>34</ele>
        <time>2022-08-07T07:23:05.000Z</time>
      </trkpt>
      <trkpt lat="48.57338" lon="-4.28407">
        <ele>34</ele>
        <time>2022-08-07T07:23:06.000Z</time>
      </trkpt>
      <trkpt lat="48.57341" lon="-4.2841">
        <ele>33.799999237061</ele>
        <time>2022-08-07T07:23:07.000Z</time>
      </trkpt>
      <trkpt lat="48.57343" lon="-4.28413">
        <ele>33.799999237061</ele>
        <time>2022-08-07T07:23:08.000Z</time>
      </trkpt>
      <trkpt lat="48.57347" lon="-4.28417">
        <ele>33.799999237061</ele>
        <time>2022-08-07T07:23:09.000Z</time>
      </trkpt>
      <trkpt lat="48.5735" lon="-4.28421">
        <ele>33.799999237061</ele>
        <time>2022-08-07T07:23:10.000Z</time>
      </trkpt>
      <trkpt lat="48.57354" lon="-4.28426">
        <ele>33.400001525879</ele>
        <time>2022-08-07T07:23:11.000Z</time>
      </trkpt>
      <trkpt lat="48.57358" lon="-4.28431">
        <ele>33.400001525879</ele>
        <time>2022-08-07T07:23:12.000Z</time>
      </trkpt>
      <trkpt lat="48.57362" lon="-4.28435">
        <ele>33</ele>
        <time>2022-08-07T07:23:13.000Z</time>
      </trkpt>
      <trkpt lat="48.57366" lon="-4.28439">
        <ele>32.599998474121</ele>
        <time>2022-08-07T07:23:14.000Z</time>
      </trkpt>
      <trkpt lat="48.5737" lon="-4.28441">
        <ele>32.400001525879</ele>
        <time>2022-08-07T07:23:15.000Z</time>
      </trkpt>
      <trkpt lat="48.57374" lon="-4.28442">
        <ele>32</ele>
        <time>2022-08-07T07:23:16.000Z</time>
      </trkpt>
      <trkpt lat="48.57377" lon="-4.28441">
        <ele>31.799999237061</ele>
        <time>2022-08-07T07:23:17.000Z</time>
      </trkpt>
      <trkpt lat="48.57381" lon="-4.28438">
        <ele>31.799999237061</ele>
        <time>2022-08-07T07:23:18.000Z</time>
      </trkpt>
      <trkpt lat="48.57384" lon="-4.28435">
        <ele>31.60000038147</ele>
        <time>2022-08-07T07:23:19.000Z</time>
      </trkpt>
      <trkpt lat="48.57387" lon="-4.28431">
        <ele>31.60000038147</ele>
        <time>2022-08-07T07:23:20.000Z</time>
      </trkpt>
      <trkpt lat="48.5739" lon="-4.28427">
        <ele>31.60000038147</ele>
        <time>2022-08-07T07:23:21.000Z</time>
      </trkpt>
      <trkpt lat="48.57393" lon="-4.28424">
        <ele>31.60000038147</ele>
        <time>2022-08-07T07:23:22.000Z</time>
      </trkpt>
      <trkpt lat="48.57395" lon="-4.2842">
        <ele>31.799999237061</ele>
        <time>2022-08-07T07:23:23.000Z</time>
      </trkpt>
      <trkpt lat="48.57398" lon="-4.28417">
        <ele>31.799999237061</ele>
        <time>2022-08-07T07:23:24.000Z</time>
      </trkpt>
      <trkpt lat="48.57401" lon="-4.28414">
        <ele>32</ele>
        <time>2022-08-07T07:23:25.000Z</time>
      </trkpt>
      <trkpt lat="48.57403" lon="-4.2841">
        <ele>32.200000762939</ele>
        <time>2022-08-07T07:23:26.000Z</time>
      </trkpt>
      <trkpt lat="48.57406" lon="-4.28407">
        <ele>32.599998474121</ele>
        <time>2022-08-07T07:23:27.000Z</time>
      </trkpt>
      <trkpt lat="48.57408" lon="-4.28403">
        <ele>32.799999237061</ele>
        <time>2022-08-07T07:23:28.000Z</time>
      </trkpt>
      <trkpt lat="48.57411" lon="-4.284">
        <ele>33</ele>
        <time>2022-08-07T07:23:29.000Z</time>
      </trkpt>
      <trkpt lat="48.57413" lon="-4.28398">
        <ele>33</ele>
        <time>2022-08-07T07:23:30.000Z</time>
      </trkpt>
      <trkpt lat="48.57415" lon="-4.28395">
        <ele>33.799999237061</ele>
        <time>2022-08-07T07:23:31.000Z</time>
      </trkpt>
      <trkpt lat="48.57417" lon="-4.28392">
        <ele>34</ele>
        <time>2022-08-07T07:23:32.000Z</time>
      </trkpt>
      <trkpt lat="48.57419" lon="-4.28389">
        <ele>34.400001525879</ele>
        <time>2022-08-07T07:23:33.000Z</time>
      </trkpt>
      <trkpt lat="48.57422" lon="-4.28387">
        <ele>34.799999237061</ele>
        <time>2022-08-07T07:23:34.000Z</time>
      </trkpt>
      <trkpt lat="48.57424" lon="-4.28384">
        <ele>35.200000762939</ele>
        <time>2022-08-07T07:23:35.000Z</time>
      </trkpt>
      <trkpt lat="48.57426" lon="-4.28381">
        <ele>35.599998474121</ele>
        <time>2022-08-07T07:23:36.000Z</time>
      </trkpt>
      <trkpt lat="48.57428" lon="-4.28379">
        <ele>35.799999237061</ele>
        <time>2022-08-07T07:23:37.000Z</time>
      </trkpt>
      <trkpt lat="48.57431" lon="-4.28377">
        <ele>36</ele>
        <time>2022-08-07T07:23:38.000Z</time>
      </trkpt>
      <trkpt lat="48.57434" lon="-4.28374">
        <ele>36.200000762939</ele>
        <time>2022-08-07T07:23:39.000Z</time>
      </trkpt>
      <trkpt lat="48.57436" lon="-4.28372">
        <ele>36.400001525879</ele>
        <time>2022-08-07T07:23:40.000Z</time>
      </trkpt>
      <trkpt lat="48.57439" lon="-4.28371">
        <ele>36.400001525879</ele>
        <time>2022-08-07T07:23:41.000Z</time>
      </trkpt>
      <trkpt lat="48.57442" lon="-4.28369">
        <ele>36.799999237061</ele>
        <time>2022-08-07T07:23:42.000Z</time>
      </trkpt>
      <trkpt lat="48.57444" lon="-4.28368">
        <ele>37</ele>
        <time>2022-08-07T07:23:43.000Z</time>
      </trkpt>
      <trkpt lat="48.57447" lon="-4.28367">
        <ele>37.400001525879</ele>
        <time>2022-08-07T07:23:44.000Z</time>
      </trkpt>
      <trkpt lat="48.5745" lon="-4.28366">
        <ele>37.599998474121</ele>
        <time>2022-08-07T07:23:45.000Z</time>
      </trkpt>
      <trkpt lat="48.57453" lon="-4.28365">
        <ele>37.799999237061</ele>
        <time>2022-08-07T07:23:46.000Z</time>
      </trkpt>
      <trkpt lat="48.57456" lon="-4.28364">
        <ele>38.200000762939</ele>
        <time>2022-08-07T07:23:47.000Z</time>
      </trkpt>
      <trkpt lat="48.57459" lon="-4.28363">
        <ele>38.400001525879</ele>
        <time>2022-08-07T07:23:48.000Z</time>
      </trkpt>
      <trkpt lat="48.57462" lon="-4.28362">
        <ele>38.599998474121</ele>
        <time>2022-08-07T07:23:49.000Z</time>
      </trkpt>
      <trkpt lat="48.57465" lon="-4.28362">
        <ele>38.799999237061</ele>
        <time>2022-08-07T07:23:50.000Z</time>
      </trkpt>
      <trkpt lat="48.57468" lon="-4.28361">
        <ele>39.200000762939</ele>
        <time>2022-08-07T07:23:51.000Z</time>
      </trkpt>
      <trkpt lat="48.57471" lon="-4.2836">
        <ele>39.400001525879</ele>
        <time>2022-08-07T07:23:52.000Z</time>
      </trkpt>
      <trkpt lat="48.57474" lon="-4.2836">
        <ele>39.599998474121</ele>
        <time>2022-08-07T07:23:53.000Z</time>
      </trkpt>
      <trkpt lat="48.57477" lon="-4.28359">
        <ele>39.799999237061</ele>
        <time>2022-08-07T07:23:54.000Z</time>
      </trkpt>
      <trkpt lat="48.5748" lon="-4.28358">
        <ele>40.200000762939</ele>
        <time>2022-08-07T07:23:55.000Z</time>
      </trkpt>
      <trkpt lat="48.57483" lon="-4.28358">
        <ele>40.599998474121</ele>
        <time>2022-08-07T07:23:56.000Z</time>
      </trkpt>
      <trkpt lat="48.57486" lon="-4.28358">
        <ele>40.799999237061</ele>
        <time>2022-08-07T07:23:57.000Z</time>
      </trkpt>
      <trkpt lat="48.57489" lon="-4.28358">
        <ele>41</ele>
        <time>2022-08-07T07:23:58.000Z</time>
      </trkpt>
      <trkpt lat="48.57492" lon="-4.28357">
        <ele>41.200000762939</ele>
        <time>2022-08-07T07:23:59.000Z</time>
      </trkpt>
      <trkpt lat="48.57495" lon="-4.28356">
        <ele>41.599998474121</ele>
        <time>2022-08-07T07:24:00.000Z</time>
      </trkpt>
      <trkpt lat="48.57497" lon="-4.28353">
        <ele>41.599998474121</ele>
        <time>2022-08-07T07:24:01.000Z</time>
      </trkpt>
      <trkpt lat="48.57498" lon="-4.2835">
        <ele>41.799999237061</ele>
        <time>2022-08-07T07:24:02.000Z</time>
      </trkpt>
      <trkpt lat="48.57499" lon="-4.28345">
        <ele>42</ele>
        <time>2022-08-07T07:24:03.000Z</time>
      </trkpt>
      <trkpt lat="48.57499" lon="-4.28341">
        <ele>42.200000762939</ele>
        <time>2022-08-07T07:24:04.000Z</time>
      </trkpt>
      <trkpt lat="48.57499" lon="-4.28337">
        <ele>42.599998474121</ele>
        <time>2022-08-07T07:24:05.000Z</time>
      </trkpt>
      <trkpt lat="48.57499" lon="-4.28331">
        <ele>42.799999237061</ele>
        <time>2022-08-07T07:24:06.000Z</time>
      </trkpt>
      <trkpt lat="48.57499" lon="-4.28327">
        <ele>43.400001525879</ele>
        <time>2022-08-07T07:24:07.000Z</time>
      </trkpt>
      <trkpt lat="48.57498" lon="-4.28322">
        <ele>43.799999237061</ele>
        <time>2022-08-07T07:24:08.000Z</time>
      </trkpt>
      <trkpt lat="48.57498" lon="-4.28317">
        <ele>44.200000762939</ele>
        <time>2022-08-07T07:24:09.000Z</time>
      </trkpt>
      <trkpt lat="48.57498" lon="-4.28313">
        <ele>44.400001525879</ele>
        <time>2022-08-07T07:24:10.000Z</time>
      </trkpt>
      <trkpt lat="48.57499" lon="-4.28308">
        <ele>44.799999237061</ele>
        <time>2022-08-07T07:24:11.000Z</time>
      </trkpt>
      <trkpt lat="48.57499" lon="-4.28304">
        <ele>45.200000762939</ele>
        <time>2022-08-07T07:24:12.000Z</time>
      </trkpt>
      <trkpt lat="48.57499" lon="-4.28299">
        <ele>45.599998474121</ele>
        <time>2022-08-07T07:24:13.000Z</time>
      </trkpt>
      <trkpt lat="48.57499" lon="-4.28294">
        <ele>45.799999237061</ele>
        <time>2022-08-07T07:24:14.000Z</time>
      </trkpt>
      <trkpt lat="48.57499" lon="-4.2829">
        <ele>46</ele>
        <time>2022-08-07T07:24:15.000Z</time>
      </trkpt>
      <trkpt lat="48.57499" lon="-4.28286">
        <ele>46.200000762939</ele>
        <time>2022-08-07T07:24:16.000Z</time>
      </trkpt>
      <trkpt lat="48.57499" lon="-4.28282">
        <ele>46.200000762939</ele>
        <time>2022-08-07T07:24:17.000Z</time>
      </trkpt>
      <trkpt lat="48.57499" lon="-4.28277">
        <ele>46.400001525879</ele>
        <time>2022-08-07T07:24:18.000Z</time>
      </trkpt>
      <trkpt lat="48.575" lon="-4.28274">
        <ele>46.599998474121</ele>
        <time>2022-08-07T07:24:19.000Z</time>
      </trkpt>
      <trkpt lat="48.575" lon="-4.28269">
        <ele>47.200000762939</ele>
        <time>2022-08-07T07:24:20.000Z</time>
      </trkpt>
      <trkpt lat="48.575" lon="-4.28266">
        <ele>47.400001525879</ele>
        <time>2022-08-07T07:24:21.000Z</time>
      </trkpt>
      <trkpt lat="48.575" lon="-4.28262">
        <ele>47.599998474121</ele>
        <time>2022-08-07T07:24:22.000Z</time>
      </trkpt>
      <trkpt lat="48.575" lon="-4.28258">
        <ele>47.799999237061</ele>
        <time>2022-08-07T07:24:23.000Z</time>
      </trkpt>
      <trkpt lat="48.575" lon="-4.28254">
        <ele>48</ele>
        <time>2022-08-07T07:24:24.000Z</time>
      </trkpt>
      <trkpt lat="48.575" lon="-4.2825">
        <ele>48.400001525879</ele>
        <time>2022-08-07T07:24:25.000Z</time>
      </trkpt>
      <trkpt lat="48.57501" lon="-4.28245">
        <ele>48.599998474121</ele>
        <time>2022-08-07T07:24:26.000Z</time>
      </trkpt>
      <trkpt lat="48.57501" lon="-4.28242">
        <ele>48.799999237061</ele>
        <time>2022-08-07T07:24:27.000Z</time>
      </trkpt>
      <trkpt lat="48.57501" lon="-4.28238">
        <ele>48.799999237061</ele>
        <time>2022-08-07T07:24:28.000Z</time>
      </trkpt>
      <trkpt lat="48.57501" lon="-4.28234">
        <ele>49.200000762939</ele>
        <time>2022-08-07T07:24:29.000Z</time>
      </trkpt>
      <trkpt lat="48.575" lon="-4.2823">
        <ele>49.200000762939</ele>
        <time>2022-08-07T07:24:30.000Z</time>
      </trkpt>
      <trkpt lat="48.575" lon="-4.28226">
        <ele>49.599998474121</ele>
        <time>2022-08-07T07:24:31.000Z</time>
      </trkpt>
      <trkpt lat="48.575" lon="-4.28222">
        <ele>49.599998474121</ele>
        <time>2022-08-07T07:24:32.000Z</time>
      </trkpt>
      <trkpt lat="48.575" lon="-4.28218">
        <ele>50</ele>
        <time>2022-08-07T07:24:33.000Z</time>
      </trkpt>
      <trkpt lat="48.575" lon="-4.28213">
        <ele>50.400001525879</ele>
        <time>2022-08-07T07:24:34.000Z</time>
      </trkpt>
      <trkpt lat="48.575" lon="-4.2821">
        <ele>50.400001525879</ele>
        <time>2022-08-07T07:24:35.000Z</time>
      </trkpt>
      <trkpt lat="48.575" lon="-4.28206">
        <ele>50.799999237061</ele>
        <time>2022-08-07T07:24:36.000Z</time>
      </trkpt>
      <trkpt lat="48.57501" lon="-4.28202">
        <ele>51</ele>
        <time>2022-08-07T07:24:37.000Z</time>
      </trkpt>
      <trkpt lat="48.57501" lon="-4.28198">
        <ele>51.400001525879</ele>
        <time>2022-08-07T07:24:38.000Z</time>
      </trkpt>
      <trkpt lat="48.575" lon="-4.28194">
        <ele>51.599998474121</ele>
        <time>2022-08-07T07:24:39.000Z</time>
      </trkpt>
      <trkpt lat="48.575" lon="-4.28191">
        <ele>51.799999237061</ele>
        <time>2022-08-07T07:24:40.000Z</time>
      </trkpt>
      <trkpt lat="48.57501" lon="-4.28187">
        <ele>51.799999237061</ele>
        <time>2022-08-07T07:24:41.000Z</time>
      </trkpt>
      <trkpt lat="48.57501" lon="-4.28183">
        <ele>52.200000762939</ele>
        <time>2022-08-07T07:24:42.000Z</time>
      </trkpt>
      <trkpt lat="48.57501" lon="-4.28179">
        <ele>52.400001525879</ele>
        <time>2022-08-07T07:24:43.000Z</time>
      </trkpt>
      <trkpt lat="48.57501" lon="-4.28175">
        <ele>52.599998474121</ele>
        <time>2022-08-07T07:24:44.000Z</time>
      </trkpt>
      <trkpt lat="48.57501" lon="-4.28172">
        <ele>53</ele>
        <time>2022-08-07T07:24:45.000Z</time>
      </trkpt>
      <trkpt lat="48.57501" lon="-4.28168">
        <ele>53.200000762939</ele>
        <time>2022-08-07T07:24:46.000Z</time>
      </trkpt>
      <trkpt lat="48.57501" lon="-4.28164">
        <ele>53.400001525879</ele>
        <time>2022-08-07T07:24:47.000Z</time>
      </trkpt>
      <trkpt lat="48.57501" lon="-4.28159">
        <ele>53.400001525879</ele>
        <time>2022-08-07T07:24:48.000Z</time>
      </trkpt>
      <trkpt lat="48.57501" lon="-4.28156">
        <ele>53.599998474121</ele>
        <time>2022-08-07T07:24:49.000Z</time>
      </trkpt>
      <trkpt lat="48.57501" lon="-4.28152">
        <ele>53.799999237061</ele>
        <time>2022-08-07T07:24:50.000Z</time>
      </trkpt>
      <trkpt lat="48.57501" lon="-4.28148">
        <ele>54</ele>
        <time>2022-08-07T07:24:51.000Z</time>
      </trkpt>
      <trkpt lat="48.575" lon="-4.28144">
        <ele>54.200000762939</ele>
        <time>2022-08-07T07:24:52.000Z</time>
      </trkpt>
      <trkpt lat="48.575" lon="-4.28139">
        <ele>54.400001525879</ele>
        <time>2022-08-07T07:24:53.000Z</time>
      </trkpt>
      <trkpt lat="48.575" lon="-4.28136">
        <ele>54.799999237061</ele>
        <time>2022-08-07T07:24:54.000Z</time>
      </trkpt>
      <trkpt lat="48.57499" lon="-4.28132">
        <ele>54.799999237061</ele>
        <time>2022-08-07T07:24:55.000Z</time>
      </trkpt>
      <trkpt lat="48.57499" lon="-4.28129">
        <ele>55.200000762939</ele>
        <time>2022-08-07T07:24:56.000Z</time>
      </trkpt>
      <trkpt lat="48.57499" lon="-4.28125">
        <ele>55.400001525879</ele>
        <time>2022-08-07T07:24:57.000Z</time>
      </trkpt>
      <trkpt lat="48.57499" lon="-4.2812">
        <ele>55.599998474121</ele>
        <time>2022-08-07T07:24:58.000Z</time>
      </trkpt>
      <trkpt lat="48.57499" lon="-4.28117">
        <ele>55.799999237061</ele>
        <time>2022-08-07T07:24:59.000Z</time>
      </trkpt>
      <trkpt lat="48.57498" lon="-4.28114">
        <ele>56.200000762939</ele>
        <time>2022-08-07T07:25:00.000Z</time>
      </trkpt>
      <trkpt lat="48.57498" lon="-4.2811">
        <ele>56.200000762939</ele>
        <time>2022-08-07T07:25:01.000Z</time>
      </trkpt>
      <trkpt lat="48.57498" lon="-4.28106">
        <ele>56.400001525879</ele>
        <time>2022-08-07T07:25:02.000Z</time>
      </trkpt>
      <trkpt lat="48.57498" lon="-4.28104">
        <ele>56.400001525879</ele>
        <time>2022-08-07T07:25:03.000Z</time>
      </trkpt>
      <trkpt lat="48.57497" lon="-4.28101">
        <ele>56.599998474121</ele>
        <time>2022-08-07T07:25:04.000Z</time>
      </trkpt>
      <trkpt lat="48.57497" lon="-4.28099">
        <ele>56.799999237061</ele>
        <time>2022-08-07T07:25:05.000Z</time>
      </trkpt>
      <trkpt lat="48.57497" lon="-4.28097">
        <ele>57</ele>
        <time>2022-08-07T07:25:06.000Z</time>
      </trkpt>
      <trkpt lat="48.57498" lon="-4.28095">
        <ele>57</ele>
        <time>2022-08-07T07:25:07.000Z</time>
      </trkpt>
      <trkpt lat="48.57499" lon="-4.28094">
        <ele>57.200000762939</ele>
        <time>2022-08-07T07:25:08.000Z</time>
      </trkpt>
      <trkpt lat="48.57502" lon="-4.28092">
        <ele>57.200000762939</ele>
        <time>2022-08-07T07:25:09.000Z</time>
      </trkpt>
      <trkpt lat="48.57504" lon="-4.28091">
        <ele>57.400001525879</ele>
        <time>2022-08-07T07:25:10.000Z</time>
      </trkpt>
      <trkpt lat="48.57507" lon="-4.28088">
        <ele>57.400001525879</ele>
        <time>2022-08-07T07:25:11.000Z</time>
      </trkpt>
      <trkpt lat="48.57509" lon="-4.28086">
        <ele>57.400001525879</ele>
        <time>2022-08-07T07:25:12.000Z</time>
      </trkpt>
      <trkpt lat="48.57512" lon="-4.28084">
        <ele>57.599998474121</ele>
        <time>2022-08-07T07:25:13.000Z</time>
      </trkpt>
      <trkpt lat="48.57514" lon="-4.28081">
        <ele>57.599998474121</ele>
        <time>2022-08-07T07:25:14.000Z</time>
      </trkpt>
      <trkpt lat="48.57517" lon="-4.28078">
        <ele>57.599998474121</ele>
        <time>2022-08-07T07:25:15.000Z</time>
      </trkpt>
      <trkpt lat="48.5752" lon="-4.28074">
        <ele>57.599998474121</ele>
        <time>2022-08-07T07:25:16.000Z</time>
      </trkpt>
      <trkpt lat="48.57522" lon="-4.28071">
        <ele>57.599998474121</ele>
        <time>2022-08-07T07:25:17.000Z</time>
      </trkpt>
      <trkpt lat="48.57526" lon="-4.28066">
        <ele>57.599998474121</ele>
        <time>2022-08-07T07:25:18.000Z</time>
      </trkpt>
      <trkpt lat="48.57527" lon="-4.28063">
        <ele>57.599998474121</ele>
        <time>2022-08-07T07:25:19.000Z</time>
      </trkpt>
      <trkpt lat="48.5753" lon="-4.2806">
        <ele>57.599998474121</ele>
        <time>2022-08-07T07:25:20.000Z</time>
      </trkpt>
      <trkpt lat="48.57532" lon="-4.28055">
        <ele>57.599998474121</ele>
        <time>2022-08-07T07:25:21.000Z</time>
      </trkpt>
      <trkpt lat="48.57535" lon="-4.28051">
        <ele>57.599998474121</ele>
        <time>2022-08-07T07:25:22.000Z</time>
      </trkpt>
      <trkpt lat="48.57537" lon="-4.28047">
        <ele>57.799999237061</ele>
        <time>2022-08-07T07:25:23.000Z</time>
      </trkpt>
      <trkpt lat="48.57538" lon="-4.28043">
        <ele>57.599998474121</ele>
        <time>2022-08-07T07:25:24.000Z</time>
      </trkpt>
      <trkpt lat="48.5754" lon="-4.28039">
        <ele>57.799999237061</ele>
        <time>2022-08-07T07:25:25.000Z</time>
      </trkpt>
      <trkpt lat="48.57542" lon="-4.28035">
        <ele>57.799999237061</ele>
        <time>2022-08-07T07:25:26.000Z</time>
      </trkpt>
      <trkpt lat="48.57544" lon="-4.28029">
        <ele>57.799999237061</ele>
        <time>2022-08-07T07:25:27.000Z</time>
      </trkpt>
      <trkpt lat="48.57545" lon="-4.28025">
        <ele>57.799999237061</ele>
        <time>2022-08-07T07:25:28.000Z</time>
      </trkpt>
      <trkpt lat="48.57547" lon="-4.2802">
        <ele>57.799999237061</ele>
        <time>2022-08-07T07:25:29.000Z</time>
      </trkpt>
      <trkpt lat="48.57548" lon="-4.28017">
        <ele>57.799999237061</ele>
        <time>2022-08-07T07:25:30.000Z</time>
      </trkpt>
      <trkpt lat="48.5755" lon="-4.28012">
        <ele>57.799999237061</ele>
        <time>2022-08-07T07:25:31.000Z</time>
      </trkpt>
      <trkpt lat="48.57551" lon="-4.28006">
        <ele>57.799999237061</ele>
        <time>2022-08-07T07:25:32.000Z</time>
      </trkpt>
      <trkpt lat="48.57552" lon="-4.28002">
        <ele>57.799999237061</ele>
        <time>2022-08-07T07:25:33.000Z</time>
      </trkpt>
      <trkpt lat="48.57553" lon="-4.27997">
        <ele>58</ele>
        <time>2022-08-07T07:25:34.000Z</time>
      </trkpt>
      <trkpt lat="48.57554" lon="-4.27993">
        <ele>58</ele>
        <time>2022-08-07T07:25:35.000Z</time>
      </trkpt>
      <trkpt lat="48.57556" lon="-4.27989">
        <ele>58.200000762939</ele>
        <time>2022-08-07T07:25:36.000Z</time>
      </trkpt>
      <trkpt lat="48.57557" lon="-4.27984">
        <ele>58.200000762939</ele>
        <time>2022-08-07T07:25:37.000Z</time>
      </trkpt>
      <trkpt lat="48.57558" lon="-4.27979">
        <ele>58.200000762939</ele>
        <time>2022-08-07T07:25:38.000Z</time>
      </trkpt>
      <trkpt lat="48.57559" lon="-4.27975">
        <ele>58.200000762939</ele>
        <time>2022-08-07T07:25:39.000Z</time>
      </trkpt>
      <trkpt lat="48.57561" lon="-4.27971">
        <ele>58.400001525879</ele>
        <time>2022-08-07T07:25:40.000Z</time>
      </trkpt>
      <trkpt lat="48.57562" lon="-4.27967">
        <ele>58.400001525879</ele>
        <time>2022-08-07T07:25:41.000Z</time>
      </trkpt>
      <trkpt lat="48.57564" lon="-4.27961">
        <ele>58.400001525879</ele>
        <time>2022-08-07T07:25:42.000Z</time>
      </trkpt>
      <trkpt lat="48.57566" lon="-4.27954">
        <ele>58.400001525879</ele>
        <time>2022-08-07T07:25:43.000Z</time>
      </trkpt>
      <trkpt lat="48.57568" lon="-4.27949">
        <ele>58.400001525879</ele>
        <time>2022-08-07T07:25:44.000Z</time>
      </trkpt>
      <trkpt lat="48.5757" lon="-4.27943">
        <ele>58.400001525879</ele>
        <time>2022-08-07T07:25:45.000Z</time>
      </trkpt>
      <trkpt lat="48.57571" lon="-4.27938">
        <ele>58.200000762939</ele>
        <time>2022-08-07T07:25:46.000Z</time>
      </trkpt>
      <trkpt lat="48.57573" lon="-4.27931">
        <ele>58.200000762939</ele>
        <time>2022-08-07T07:25:47.000Z</time>
      </trkpt>
      <trkpt lat="48.57574" lon="-4.27923">
        <ele>58</ele>
        <time>2022-08-07T07:25:48.000Z</time>
      </trkpt>
      <trkpt lat="48.57576" lon="-4.27916">
        <ele>57.599998474121</ele>
        <time>2022-08-07T07:25:49.000Z</time>
      </trkpt>
      <trkpt lat="48.57576" lon="-4.2791">
        <ele>57.599998474121</ele>
        <time>2022-08-07T07:25:50.000Z</time>
      </trkpt>
      <trkpt lat="48.57577" lon="-4.27905">
        <ele>57.200000762939</ele>
        <time>2022-08-07T07:25:51.000Z</time>
      </trkpt>
      <trkpt lat="48.57578" lon="-4.27898">
        <ele>57</ele>
        <time>2022-08-07T07:25:52.000Z</time>
      </trkpt>
      <trkpt lat="48.57579" lon="-4.2789">
        <ele>56.799999237061</ele>
        <time>2022-08-07T07:25:53.000Z</time>
      </trkpt>
      <trkpt lat="48.5758" lon="-4.27883">
        <ele>56.400001525879</ele>
        <time>2022-08-07T07:25:54.000Z</time>
      </trkpt>
      <trkpt lat="48.57581" lon="-4.27876">
        <ele>56.400001525879</ele>
        <time>2022-08-07T07:25:55.000Z</time>
      </trkpt>
      <trkpt lat="48.57581" lon="-4.27869">
        <ele>56</ele>
        <time>2022-08-07T07:25:56.000Z</time>
      </trkpt>
      <trkpt lat="48.57582" lon="-4.27863">
        <ele>56</ele>
        <time>2022-08-07T07:25:57.000Z</time>
      </trkpt>
      <trkpt lat="48.57582" lon="-4.27854">
        <ele>55.799999237061</ele>
        <time>2022-08-07T07:25:58.000Z</time>
      </trkpt>
      <trkpt lat="48.57582" lon="-4.27848">
        <ele>55.599998474121</ele>
        <time>2022-08-07T07:25:59.000Z</time>
      </trkpt>
      <trkpt lat="48.57583" lon="-4.27839">
        <ele>55.400001525879</ele>
        <time>2022-08-07T07:26:00.000Z</time>
      </trkpt>
      <trkpt lat="48.57585" lon="-4.27834">
        <ele>55.200000762939</ele>
        <time>2022-08-07T07:26:01.000Z</time>
      </trkpt>
      <trkpt lat="48.57587" lon="-4.27828">
        <ele>54.799999237061</ele>
        <time>2022-08-07T07:26:02.000Z</time>
      </trkpt>
      <trkpt lat="48.5759" lon="-4.2782">
        <ele>54.200000762939</ele>
        <time>2022-08-07T07:26:03.000Z</time>
      </trkpt>
      <trkpt lat="48.57592" lon="-4.27813">
        <ele>54</ele>
        <time>2022-08-07T07:26:04.000Z</time>
      </trkpt>
      <trkpt lat="48.57594" lon="-4.27805">
        <ele>53.599998474121</ele>
        <time>2022-08-07T07:26:05.000Z</time>
      </trkpt>
      <trkpt lat="48.57595" lon="-4.27797">
        <ele>53.599998474121</ele>
        <time>2022-08-07T07:26:06.000Z</time>
      </trkpt>
      <trkpt lat="48.57597" lon="-4.27791">
        <ele>53.400001525879</ele>
        <time>2022-08-07T07:26:07.000Z</time>
      </trkpt>
      <trkpt lat="48.57598" lon="-4.27784">
        <ele>53.200000762939</ele>
        <time>2022-08-07T07:26:08.000Z</time>
      </trkpt>
      <trkpt lat="48.57601" lon="-4.27775">
        <ele>53</ele>
        <time>2022-08-07T07:26:09.000Z</time>
      </trkpt>
      <trkpt lat="48.57603" lon="-4.27767">
        <ele>53</ele>
        <time>2022-08-07T07:26:10.000Z</time>
      </trkpt>
      <trkpt lat="48.57605" lon="-4.27759">
        <ele>52.799999237061</ele>
        <time>2022-08-07T07:26:11.000Z</time>
      </trkpt>
      <trkpt lat="48.57606" lon="-4.27753">
        <ele>52.599998474121</ele>
        <time>2022-08-07T07:26:12.000Z</time>
      </trkpt>
      <trkpt lat="48.57608" lon="-4.27746">
        <ele>52.400001525879</ele>
        <time>2022-08-07T07:26:13.000Z</time>
      </trkpt>
      <trkpt lat="48.57611" lon="-4.27737">
        <ele>52.200000762939</ele>
        <time>2022-08-07T07:26:14.000Z</time>
      </trkpt>
      <trkpt lat="48.57613" lon="-4.27729">
        <ele>51.799999237061</ele>
        <time>2022-08-07T07:26:15.000Z</time>
      </trkpt>
      <trkpt lat="48.57616" lon="-4.27722">
        <ele>51.400001525879</ele>
        <time>2022-08-07T07:26:16.000Z</time>
      </trkpt>
      <trkpt lat="48.57618" lon="-4.27716">
        <ele>51.400001525879</ele>
        <time>2022-08-07T07:26:17.000Z</time>
      </trkpt>
      <trkpt lat="48.5762" lon="-4.27709">
        <ele>51</ele>
        <time>2022-08-07T07:26:18.000Z</time>
      </trkpt>
      <trkpt lat="48.57622" lon="-4.27702">
        <ele>51</ele>
        <time>2022-08-07T07:26:19.000Z</time>
      </trkpt>
      <trkpt lat="48.57625" lon="-4.27694">
        <ele>50.599998474121</ele>
        <time>2022-08-07T07:26:20.000Z</time>
      </trkpt>
      <trkpt lat="48.57627" lon="-4.27687">
        <ele>50.599998474121</ele>
        <time>2022-08-07T07:26:21.000Z</time>
      </trkpt>
      <trkpt lat="48.57629" lon="-4.27681">
        <ele>50.400001525879</ele>
        <time>2022-08-07T07:26:22.000Z</time>
      </trkpt>
      <trkpt lat="48.5763" lon="-4.27676">
        <ele>50.200000762939</ele>
        <time>2022-08-07T07:26:23.000Z</time>
      </trkpt>
      <trkpt lat="48.57631" lon="-4.27671">
        <ele>50.200000762939</ele>
        <time>2022-08-07T07:26:24.000Z</time>
      </trkpt>
      <trkpt lat="48.57631" lon="-4.27665">
        <ele>50</ele>
        <time>2022-08-07T07:26:25.000Z</time>
      </trkpt>
      <trkpt lat="48.57631" lon="-4.27658">
        <ele>50</ele>
        <time>2022-08-07T07:26:26.000Z</time>
      </trkpt>
      <trkpt lat="48.5763" lon="-4.27653">
        <ele>49.799999237061</ele>
        <time>2022-08-07T07:26:27.000Z</time>
      </trkpt>
      <trkpt lat="48.5763" lon="-4.27649">
        <ele>49.799999237061</ele>
        <time>2022-08-07T07:26:28.000Z</time>
      </trkpt>
      <trkpt lat="48.5763" lon="-4.27644">
        <ele>49.799999237061</ele>
        <time>2022-08-07T07:26:29.000Z</time>
      </trkpt>
      <trkpt lat="48.57632" lon="-4.27639">
        <ele>49.599998474121</ele>
        <time>2022-08-07T07:26:30.000Z</time>
      </trkpt>
      <trkpt lat="48.57635" lon="-4.27634">
        <ele>49.599998474121</ele>
        <time>2022-08-07T07:26:31.000Z</time>
      </trkpt>
      <trkpt lat="48.57639" lon="-4.27629">
        <ele>49.400001525879</ele>
        <time>2022-08-07T07:26:32.000Z</time>
      </trkpt>
      <trkpt lat="48.57643" lon="-4.27626">
        <ele>49.400001525879</ele>
        <time>2022-08-07T07:26:33.000Z</time>
      </trkpt>
      <trkpt lat="48.57646" lon="-4.27622">
        <ele>49.400001525879</ele>
        <time>2022-08-07T07:26:34.000Z</time>
      </trkpt>
      <trkpt lat="48.5765" lon="-4.27618">
        <ele>49.400001525879</ele>
        <time>2022-08-07T07:26:35.000Z</time>
      </trkpt>
      <trkpt lat="48.57655" lon="-4.27613">
        <ele>49.200000762939</ele>
        <time>2022-08-07T07:26:36.000Z</time>
      </trkpt>
      <trkpt lat="48.57659" lon="-4.27609">
        <ele>49.200000762939</ele>
        <time>2022-08-07T07:26:37.000Z</time>
      </trkpt>
      <trkpt lat="48.57664" lon="-4.27604">
        <ele>48.799999237061</ele>
        <time>2022-08-07T07:26:38.000Z</time>
      </trkpt>
      <trkpt lat="48.57668" lon="-4.276">
        <ele>48.599998474121</ele>
        <time>2022-08-07T07:26:39.000Z</time>
      </trkpt>
      <trkpt lat="48.57672" lon="-4.27595">
        <ele>48.599998474121</ele>
        <time>2022-08-07T07:26:40.000Z</time>
      </trkpt>
      <trkpt lat="48.57677" lon="-4.2759">
        <ele>48.400001525879</ele>
        <time>2022-08-07T07:26:41.000Z</time>
      </trkpt>
      <trkpt lat="48.57682" lon="-4.27585">
        <ele>48.200000762939</ele>
        <time>2022-08-07T07:26:42.000Z</time>
      </trkpt>
      <trkpt lat="48.57686" lon="-4.2758">
        <ele>48.200000762939</ele>
        <time>2022-08-07T07:26:43.000Z</time>
      </trkpt>
      <trkpt lat="48.57691" lon="-4.27576">
        <ele>48</ele>
        <time>2022-08-07T07:26:44.000Z</time>
      </trkpt>
      <trkpt lat="48.57696" lon="-4.2757">
        <ele>47.799999237061</ele>
        <time>2022-08-07T07:26:45.000Z</time>
      </trkpt>
      <trkpt lat="48.57701" lon="-4.27565">
        <ele>47.599998474121</ele>
        <time>2022-08-07T07:26:46.000Z</time>
      </trkpt>
      <trkpt lat="48.57708" lon="-4.27558">
        <ele>47.200000762939</ele>
        <time>2022-08-07T07:26:47.000Z</time>
      </trkpt>
      <trkpt lat="48.57714" lon="-4.27552">
        <ele>47</ele>
        <time>2022-08-07T07:26:48.000Z</time>
      </trkpt>
      <trkpt lat="48.57719" lon="-4.27548">
        <ele>46.599998474121</ele>
        <time>2022-08-07T07:26:49.000Z</time>
      </trkpt>
      <trkpt lat="48.57725" lon="-4.27541">
        <ele>46.400001525879</ele>
        <time>2022-08-07T07:26:50.000Z</time>
      </trkpt>
      <trkpt lat="48.57732" lon="-4.27533">
        <ele>46</ele>
        <time>2022-08-07T07:26:51.000Z</time>
      </trkpt>
      <trkpt lat="48.57738" lon="-4.27526">
        <ele>45.799999237061</ele>
        <time>2022-08-07T07:26:52.000Z</time>
      </trkpt>
      <trkpt lat="48.57744" lon="-4.27518">
        <ele>45.599998474121</ele>
        <time>2022-08-07T07:26:53.000Z</time>
      </trkpt>
      <trkpt lat="48.57749" lon="-4.27511">
        <ele>44.599998474121</ele>
        <time>2022-08-07T07:26:54.000Z</time>
      </trkpt>
      <trkpt lat="48.57755" lon="-4.27502">
        <ele>44.200000762939</ele>
        <time>2022-08-07T07:26:55.000Z</time>
      </trkpt>
      <trkpt lat="48.57762" lon="-4.27491">
        <ele>43.799999237061</ele>
        <time>2022-08-07T07:26:56.000Z</time>
      </trkpt>
      <trkpt lat="48.57767" lon="-4.27481">
        <ele>43.400001525879</ele>
        <time>2022-08-07T07:26:57.000Z</time>
      </trkpt>
      <trkpt lat="48.57773" lon="-4.2747">
        <ele>42.799999237061</ele>
        <time>2022-08-07T07:26:58.000Z</time>
      </trkpt>
      <trkpt lat="48.57778" lon="-4.2746">
        <ele>42.400001525879</ele>
        <time>2022-08-07T07:26:59.000Z</time>
      </trkpt>
      <trkpt lat="48.57785" lon="-4.27451">
        <ele>41.599998474121</ele>
        <time>2022-08-07T07:27:00.000Z</time>
      </trkpt>
      <trkpt lat="48.57793" lon="-4.27445">
        <ele>41</ele>
        <time>2022-08-07T07:27:01.000Z</time>
      </trkpt>
      <trkpt lat="48.57801" lon="-4.2744">
        <ele>40.799999237061</ele>
        <time>2022-08-07T07:27:02.000Z</time>
      </trkpt>
      <trkpt lat="48.57808" lon="-4.27437">
        <ele>40</ele>
        <time>2022-08-07T07:27:03.000Z</time>
      </trkpt>
      <trkpt lat="48.57817" lon="-4.27433">
        <ele>39.400001525879</ele>
        <time>2022-08-07T07:27:04.000Z</time>
      </trkpt>
      <trkpt lat="48.57828" lon="-4.27429">
        <ele>38.799999237061</ele>
        <time>2022-08-07T07:27:05.000Z</time>
      </trkpt>
      <trkpt lat="48.57836" lon="-4.27424">
        <ele>38.599998474121</ele>
        <time>2022-08-07T07:27:06.000Z</time>
      </trkpt>
      <trkpt lat="48.57845" lon="-4.27419">
        <ele>38</ele>
        <time>2022-08-07T07:27:07.000Z</time>
      </trkpt>
      <trkpt lat="48.57853" lon="-4.27414">
        <ele>37.400001525879</ele>
        <time>2022-08-07T07:27:08.000Z</time>
      </trkpt>
      <trkpt lat="48.57859" lon="-4.2741">
        <ele>36.799999237061</ele>
        <time>2022-08-07T07:27:09.000Z</time>
      </trkpt>
      <trkpt lat="48.57867" lon="-4.27403">
        <ele>36.200000762939</ele>
        <time>2022-08-07T07:27:10.000Z</time>
      </trkpt>
      <trkpt lat="48.57872" lon="-4.27397">
        <ele>35.400001525879</ele>
        <time>2022-08-07T07:27:11.000Z</time>
      </trkpt>
      <trkpt lat="48.57876" lon="-4.27386">
        <ele>34.799999237061</ele>
        <time>2022-08-07T07:27:12.000Z</time>
      </trkpt>
      <trkpt lat="48.57878" lon="-4.27378">
        <ele>34.400001525879</ele>
        <time>2022-08-07T07:27:13.000Z</time>
      </trkpt>
      <trkpt lat="48.57881" lon="-4.27368">
        <ele>33.799999237061</ele>
        <time>2022-08-07T07:27:14.000Z</time>
      </trkpt>
      <trkpt lat="48.57884" lon="-4.27361">
        <ele>33.599998474121</ele>
        <time>2022-08-07T07:27:15.000Z</time>
      </trkpt>
      <trkpt lat="48.57888" lon="-4.27355">
        <ele>32.799999237061</ele>
        <time>2022-08-07T07:27:16.000Z</time>
      </trkpt>
      <trkpt lat="48.57891" lon="-4.27351">
        <ele>32.400001525879</ele>
        <time>2022-08-07T07:27:17.000Z</time>
      </trkpt>
      <trkpt lat="48.57895" lon="-4.27345">
        <ele>32</ele>
        <time>2022-08-07T07:27:18.000Z</time>
      </trkpt>
      <trkpt lat="48.57899" lon="-4.27339">
        <ele>31.799999237061</ele>
        <time>2022-08-07T07:27:19.000Z</time>
      </trkpt>
      <trkpt lat="48.57902" lon="-4.27334">
        <ele>31.60000038147</ele>
        <time>2022-08-07T07:27:20.000Z</time>
      </trkpt>
      <trkpt lat="48.57906" lon="-4.27328">
        <ele>31.200000762939</ele>
        <time>2022-08-07T07:27:21.000Z</time>
      </trkpt>
      <trkpt lat="48.57908" lon="-4.27324">
        <ele>31</ele>
        <time>2022-08-07T07:27:22.000Z</time>
      </trkpt>
      <trkpt lat="48.57911" lon="-4.27318">
        <ele>30.60000038147</ele>
        <time>2022-08-07T07:27:23.000Z</time>
      </trkpt>
      <trkpt lat="48.57913" lon="-4.27311">
        <ele>30.39999961853</ele>
        <time>2022-08-07T07:27:24.000Z</time>
      </trkpt>
      <trkpt lat="48.57915" lon="-4.27305">
        <ele>30</ele>
        <time>2022-08-07T07:27:25.000Z</time>
      </trkpt>
      <trkpt lat="48.57915" lon="-4.27299">
        <ele>29.799999237061</ele>
        <time>2022-08-07T07:27:26.000Z</time>
      </trkpt>
      <trkpt lat="48.57915" lon="-4.27295">
        <ele>29.60000038147</ele>
        <time>2022-08-07T07:27:27.000Z</time>
      </trkpt>
      <trkpt lat="48.57915" lon="-4.27288">
        <ele>29.60000038147</ele>
        <time>2022-08-07T07:27:28.000Z</time>
      </trkpt>
      <trkpt lat="48.57916" lon="-4.27282">
        <ele>29.39999961853</ele>
        <time>2022-08-07T07:27:29.000Z</time>
      </trkpt>
      <trkpt lat="48.57918" lon="-4.27277">
        <ele>29.200000762939</ele>
        <time>2022-08-07T07:27:30.000Z</time>
      </trkpt>
      <trkpt lat="48.5792" lon="-4.27273">
        <ele>29</ele>
        <time>2022-08-07T07:27:31.000Z</time>
      </trkpt>
      <trkpt lat="48.57921" lon="-4.27268">
        <ele>29</ele>
        <time>2022-08-07T07:27:32.000Z</time>
      </trkpt>
      <trkpt lat="48.57923" lon="-4.27261">
        <ele>29</ele>
        <time>2022-08-07T07:27:33.000Z</time>
      </trkpt>
      <trkpt lat="48.57923" lon="-4.27255">
        <ele>29</ele>
        <time>2022-08-07T07:27:34.000Z</time>
      </trkpt>
      <trkpt lat="48.57924" lon="-4.2725">
        <ele>29</ele>
        <time>2022-08-07T07:27:35.000Z</time>
      </trkpt>
      <trkpt lat="48.57924" lon="-4.27244">
        <ele>29</ele>
        <time>2022-08-07T07:27:36.000Z</time>
      </trkpt>
      <trkpt lat="48.57925" lon="-4.2724">
        <ele>29</ele>
        <time>2022-08-07T07:27:37.000Z</time>
      </trkpt>
      <trkpt lat="48.57926" lon="-4.27232">
        <ele>29</ele>
        <time>2022-08-07T07:27:38.000Z</time>
      </trkpt>
      <trkpt lat="48.57926" lon="-4.27226">
        <ele>29</ele>
        <time>2022-08-07T07:27:39.000Z</time>
      </trkpt>
      <trkpt lat="48.57927" lon="-4.2722">
        <ele>28.799999237061</ele>
        <time>2022-08-07T07:27:40.000Z</time>
      </trkpt>
      <trkpt lat="48.57928" lon="-4.27215">
        <ele>28.799999237061</ele>
        <time>2022-08-07T07:27:41.000Z</time>
      </trkpt>
      <trkpt lat="48.57929" lon="-4.27208">
        <ele>28.60000038147</ele>
        <time>2022-08-07T07:27:42.000Z</time>
      </trkpt>
      <trkpt lat="48.5793" lon="-4.27202">
        <ele>28.200000762939</ele>
        <time>2022-08-07T07:27:43.000Z</time>
      </trkpt>
      <trkpt lat="48.57932" lon="-4.27195">
        <ele>28.200000762939</ele>
        <time>2022-08-07T07:27:44.000Z</time>
      </trkpt>
      <trkpt lat="48.57933" lon="-4.2719">
        <ele>28</ele>
        <time>2022-08-07T07:27:45.000Z</time>
      </trkpt>
      <trkpt lat="48.57934" lon="-4.27183">
        <ele>28</ele>
        <time>2022-08-07T07:27:46.000Z</time>
      </trkpt>
      <trkpt lat="48.57937" lon="-4.27175">
        <ele>27.799999237061</ele>
        <time>2022-08-07T07:27:47.000Z</time>
      </trkpt>
      <trkpt lat="48.57938" lon="-4.27168">
        <ele>27.60000038147</ele>
        <time>2022-08-07T07:27:48.000Z</time>
      </trkpt>
      <trkpt lat="48.5794" lon="-4.27161">
        <ele>27</ele>
        <time>2022-08-07T07:27:49.000Z</time>
      </trkpt>
      <trkpt lat="48.57942" lon="-4.27154">
        <ele>26.60000038147</ele>
        <time>2022-08-07T07:27:50.000Z</time>
      </trkpt>
      <trkpt lat="48.57942" lon="-4.27149">
        <ele>26.39999961853</ele>
        <time>2022-08-07T07:27:51.000Z</time>
      </trkpt>
      <trkpt lat="48.57942" lon="-4.27143">
        <ele>25.60000038147</ele>
        <time>2022-08-07T07:27:52.000Z</time>
      </trkpt>
      <trkpt lat="48.57943" lon="-4.27138">
        <ele>25.39999961853</ele>
        <time>2022-08-07T07:27:53.000Z</time>
      </trkpt>
      <trkpt lat="48.57944" lon="-4.27134">
        <ele>25</ele>
        <time>2022-08-07T07:27:54.000Z</time>
      </trkpt>
      <trkpt lat="48.57947" lon="-4.27128">
        <ele>24.799999237061</ele>
        <time>2022-08-07T07:27:55.000Z</time>
      </trkpt>
      <trkpt lat="48.57951" lon="-4.27122">
        <ele>24.39999961853</ele>
        <time>2022-08-07T07:27:56.000Z</time>
      </trkpt>
      <trkpt lat="48.57954" lon="-4.27118">
        <ele>24.200000762939</ele>
        <time>2022-08-07T07:27:57.000Z</time>
      </trkpt>
      <trkpt lat="48.57958" lon="-4.27113">
        <ele>23.799999237061</ele>
        <time>2022-08-07T07:27:58.000Z</time>
      </trkpt>
      <trkpt lat="48.57963" lon="-4.27106">
        <ele>23.799999237061</ele>
        <time>2022-08-07T07:27:59.000Z</time>
      </trkpt>
      <trkpt lat="48.57966" lon="-4.27102">
        <ele>23.39999961853</ele>
        <time>2022-08-07T07:28:00.000Z</time>
      </trkpt>
      <trkpt lat="48.5797" lon="-4.27095">
        <ele>23.200000762939</ele>
        <time>2022-08-07T07:28:01.000Z</time>
      </trkpt>
      <trkpt lat="48.57975" lon="-4.27086">
        <ele>23</ele>
        <time>2022-08-07T07:28:02.000Z</time>
      </trkpt>
      <trkpt lat="48.57979" lon="-4.27078">
        <ele>23</ele>
        <time>2022-08-07T07:28:03.000Z</time>
      </trkpt>
      <trkpt lat="48.57982" lon="-4.27071">
        <ele>22.799999237061</ele>
        <time>2022-08-07T07:28:04.000Z</time>
      </trkpt>
      <trkpt lat="48.57986" lon="-4.27062">
        <ele>22.60000038147</ele>
        <time>2022-08-07T07:28:05.000Z</time>
      </trkpt>
      <trkpt lat="48.57992" lon="-4.27052">
        <ele>22.200000762939</ele>
        <time>2022-08-07T07:28:06.000Z</time>
      </trkpt>
      <trkpt lat="48.57997" lon="-4.27044">
        <ele>21.799999237061</ele>
        <time>2022-08-07T07:28:07.000Z</time>
      </trkpt>
      <trkpt lat="48.58001" lon="-4.27036">
        <ele>21.60000038147</ele>
        <time>2022-08-07T07:28:08.000Z</time>
      </trkpt>
      <trkpt lat="48.58005" lon="-4.2703">
        <ele>21</ele>
        <time>2022-08-07T07:28:09.000Z</time>
      </trkpt>
      <trkpt lat="48.58009" lon="-4.27024">
        <ele>20.60000038147</ele>
        <time>2022-08-07T07:28:10.000Z</time>
      </trkpt>
      <trkpt lat="48.58015" lon="-4.27019">
        <ele>20.39999961853</ele>
        <time>2022-08-07T07:28:11.000Z</time>
      </trkpt>
      <trkpt lat="48.5802" lon="-4.27016">
        <ele>20.200000762939</ele>
        <time>2022-08-07T07:28:12.000Z</time>
      </trkpt>
      <trkpt lat="48.58025" lon="-4.27015">
        <ele>20</ele>
        <time>2022-08-07T07:28:13.000Z</time>
      </trkpt>
      <trkpt lat="48.58029" lon="-4.27014">
        <ele>19.799999237061</ele>
        <time>2022-08-07T07:28:14.000Z</time>
      </trkpt>
      <trkpt lat="48.58035" lon="-4.27013">
        <ele>19.200000762939</ele>
        <time>2022-08-07T07:28:15.000Z</time>
      </trkpt>
      <trkpt lat="48.5804" lon="-4.27013">
        <ele>18.60000038147</ele>
        <time>2022-08-07T07:28:16.000Z</time>
      </trkpt>
      <trkpt lat="48.58044" lon="-4.27012">
        <ele>18.39999961853</ele>
        <time>2022-08-07T07:28:17.000Z</time>
      </trkpt>
      <trkpt lat="48.58048" lon="-4.27011">
        <ele>18</ele>
        <time>2022-08-07T07:28:18.000Z</time>
      </trkpt>
      <trkpt lat="48.58053" lon="-4.2701">
        <ele>17.799999237061</ele>
        <time>2022-08-07T07:28:19.000Z</time>
      </trkpt>
      <trkpt lat="48.58059" lon="-4.27009">
        <ele>17.60000038147</ele>
        <time>2022-08-07T07:28:20.000Z</time>
      </trkpt>
      <trkpt lat="48.58064" lon="-4.27009">
        <ele>17.39999961853</ele>
        <time>2022-08-07T07:28:21.000Z</time>
      </trkpt>
      <trkpt lat="48.58069" lon="-4.27008">
        <ele>17.39999961853</ele>
        <time>2022-08-07T07:28:22.000Z</time>
      </trkpt>
      <trkpt lat="48.58073" lon="-4.27007">
        <ele>17</ele>
        <time>2022-08-07T07:28:23.000Z</time>
      </trkpt>
      <trkpt lat="48.58079" lon="-4.27007">
        <ele>17</ele>
        <time>2022-08-07T07:28:24.000Z</time>
      </trkpt>
      <trkpt lat="48.58085" lon="-4.27006">
        <ele>16.799999237061</ele>
        <time>2022-08-07T07:28:25.000Z</time>
      </trkpt>
      <trkpt lat="48.58091" lon="-4.27005">
        <ele>16.799999237061</ele>
        <time>2022-08-07T07:28:26.000Z</time>
      </trkpt>
      <trkpt lat="48.58096" lon="-4.27005">
        <ele>16.60000038147</ele>
        <time>2022-08-07T07:28:27.000Z</time>
      </trkpt>
      <trkpt lat="48.581" lon="-4.27005">
        <ele>16.60000038147</ele>
        <time>2022-08-07T07:28:28.000Z</time>
      </trkpt>
      <trkpt lat="48.58107" lon="-4.27004">
        <ele>16.200000762939</ele>
        <time>2022-08-07T07:28:29.000Z</time>
      </trkpt>
      <trkpt lat="48.58112" lon="-4.27004">
        <ele>16.200000762939</ele>
        <time>2022-08-07T07:28:30.000Z</time>
      </trkpt>
      <trkpt lat="48.58117" lon="-4.27004">
        <ele>16.200000762939</ele>
        <time>2022-08-07T07:28:31.000Z</time>
      </trkpt>
      <trkpt lat="48.58122" lon="-4.27004">
        <ele>16.200000762939</ele>
        <time>2022-08-07T07:28:32.000Z</time>
      </trkpt>
      <trkpt lat="48.58127" lon="-4.27004">
        <ele>16.200000762939</ele>
        <time>2022-08-07T07:28:33.000Z</time>
      </trkpt>
      <trkpt lat="48.58134" lon="-4.27005">
        <ele>15.800000190735</ele>
        <time>2022-08-07T07:28:34.000Z</time>
      </trkpt>
      <trkpt lat="48.58138" lon="-4.27006">
        <ele>15.39999961853</ele>
        <time>2022-08-07T07:28:35.000Z</time>
      </trkpt>
      <trkpt lat="48.58144" lon="-4.27009">
        <ele>15</ele>
        <time>2022-08-07T07:28:36.000Z</time>
      </trkpt>
      <trkpt lat="48.58148" lon="-4.27011">
        <ele>14.800000190735</ele>
        <time>2022-08-07T07:28:37.000Z</time>
      </trkpt>
      <trkpt lat="48.58153" lon="-4.27014">
        <ele>14.39999961853</ele>
        <time>2022-08-07T07:28:38.000Z</time>
      </trkpt>
      <trkpt lat="48.58159" lon="-4.27017">
        <ele>14.39999961853</ele>
        <time>2022-08-07T07:28:39.000Z</time>
      </trkpt>
      <trkpt lat="48.58163" lon="-4.2702">
        <ele>14.39999961853</ele>
        <time>2022-08-07T07:28:40.000Z</time>
      </trkpt>
      <trkpt lat="48.58168" lon="-4.27024">
        <ele>14.199999809265</ele>
        <time>2022-08-07T07:28:41.000Z</time>
      </trkpt>
      <trkpt lat="48.58171" lon="-4.27027">
        <ele>14.199999809265</ele>
        <time>2022-08-07T07:28:42.000Z</time>
      </trkpt>
      <trkpt lat="48.58175" lon="-4.2703">
        <ele>14</ele>
        <time>2022-08-07T07:28:43.000Z</time>
      </trkpt>
      <trkpt lat="48.5818" lon="-4.27035">
        <ele>14</ele>
        <time>2022-08-07T07:28:44.000Z</time>
      </trkpt>
      <trkpt lat="48.58185" lon="-4.27038">
        <ele>13.800000190735</ele>
        <time>2022-08-07T07:28:45.000Z</time>
      </trkpt>
      <trkpt lat="48.58188" lon="-4.27041">
        <ele>13.800000190735</ele>
        <time>2022-08-07T07:28:46.000Z</time>
      </trkpt>
      <trkpt lat="48.58192" lon="-4.27045">
        <ele>13.60000038147</ele>
        <time>2022-08-07T07:28:47.000Z</time>
      </trkpt>
      <trkpt lat="48.58197" lon="-4.2705">
        <ele>13.60000038147</ele>
        <time>2022-08-07T07:28:48.000Z</time>
      </trkpt>
      <trkpt lat="48.58201" lon="-4.27054">
        <ele>13.60000038147</ele>
        <time>2022-08-07T07:28:49.000Z</time>
      </trkpt>
      <trkpt lat="48.58205" lon="-4.27058">
        <ele>13.60000038147</ele>
        <time>2022-08-07T07:28:50.000Z</time>
      </trkpt>
      <trkpt lat="48.58209" lon="-4.27061">
        <ele>13.39999961853</ele>
        <time>2022-08-07T07:28:51.000Z</time>
      </trkpt>
      <trkpt lat="48.58213" lon="-4.27065">
        <ele>13.39999961853</ele>
        <time>2022-08-07T07:28:52.000Z</time>
      </trkpt>
      <trkpt lat="48.58217" lon="-4.2707">
        <ele>13.39999961853</ele>
        <time>2022-08-07T07:28:53.000Z</time>
      </trkpt>
      <trkpt lat="48.58221" lon="-4.27074">
        <ele>13.39999961853</ele>
        <time>2022-08-07T07:28:54.000Z</time>
      </trkpt>
      <trkpt lat="48.58225" lon="-4.27078">
        <ele>13.39999961853</ele>
        <time>2022-08-07T07:28:55.000Z</time>
      </trkpt>
      <trkpt lat="48.58228" lon="-4.27081">
        <ele>13.60000038147</ele>
        <time>2022-08-07T07:28:56.000Z</time>
      </trkpt>
      <trkpt lat="48.58232" lon="-4.27086">
        <ele>13.60000038147</ele>
        <time>2022-08-07T07:28:57.000Z</time>
      </trkpt>
      <trkpt lat="48.58237" lon="-4.27091">
        <ele>13.60000038147</ele>
        <time>2022-08-07T07:28:58.000Z</time>
      </trkpt>
      <trkpt lat="48.58241" lon="-4.27095">
        <ele>13.60000038147</ele>
        <time>2022-08-07T07:28:59.000Z</time>
      </trkpt>
      <trkpt lat="48.58244" lon="-4.27098">
        <ele>13.60000038147</ele>
        <time>2022-08-07T07:29:00.000Z</time>
      </trkpt>
      <trkpt lat="48.58248" lon="-4.27102">
        <ele>13.60000038147</ele>
        <time>2022-08-07T07:29:01.000Z</time>
      </trkpt>
      <trkpt lat="48.58252" lon="-4.27108">
        <ele>13.60000038147</ele>
        <time>2022-08-07T07:29:02.000Z</time>
      </trkpt>
      <trkpt lat="48.58256" lon="-4.27113">
        <ele>13.60000038147</ele>
        <time>2022-08-07T07:29:03.000Z</time>
      </trkpt>
      <trkpt lat="48.5826" lon="-4.27118">
        <ele>13.39999961853</ele>
        <time>2022-08-07T07:29:04.000Z</time>
      </trkpt>
      <trkpt lat="48.58262" lon="-4.27122">
        <ele>13.39999961853</ele>
        <time>2022-08-07T07:29:05.000Z</time>
      </trkpt>
      <trkpt lat="48.58266" lon="-4.27128">
        <ele>13.199999809265</ele>
        <time>2022-08-07T07:29:06.000Z</time>
      </trkpt>
      <trkpt lat="48.58269" lon="-4.27133">
        <ele>13.199999809265</ele>
        <time>2022-08-07T07:29:07.000Z</time>
      </trkpt>
      <trkpt lat="48.58272" lon="-4.2714">
        <ele>13.199999809265</ele>
        <time>2022-08-07T07:29:08.000Z</time>
      </trkpt>
      <trkpt lat="48.58274" lon="-4.27146">
        <ele>13.199999809265</ele>
        <time>2022-08-07T07:29:09.000Z</time>
      </trkpt>
      <trkpt lat="48.58278" lon="-4.27152">
        <ele>13.199999809265</ele>
        <time>2022-08-07T07:29:10.000Z</time>
      </trkpt>
      <trkpt lat="48.58281" lon="-4.2716">
        <ele>13.199999809265</ele>
        <time>2022-08-07T07:29:11.000Z</time>
      </trkpt>
      <trkpt lat="48.58284" lon="-4.27166">
        <ele>13</ele>
        <time>2022-08-07T07:29:12.000Z</time>
      </trkpt>
      <trkpt lat="48.58287" lon="-4.27171">
        <ele>12.800000190735</ele>
        <time>2022-08-07T07:29:13.000Z</time>
      </trkpt>
      <trkpt lat="48.5829" lon="-4.27177">
        <ele>12.60000038147</ele>
        <time>2022-08-07T07:29:14.000Z</time>
      </trkpt>
      <trkpt lat="48.58294" lon="-4.27183">
        <ele>12.60000038147</ele>
        <time>2022-08-07T07:29:15.000Z</time>
      </trkpt>
      <trkpt lat="48.58297" lon="-4.27188">
        <ele>12.60000038147</ele>
        <time>2022-08-07T07:29:16.000Z</time>
      </trkpt>
      <trkpt lat="48.583" lon="-4.27193">
        <ele>12.60000038147</ele>
        <time>2022-08-07T07:29:17.000Z</time>
      </trkpt>
      <trkpt lat="48.58304" lon="-4.27198">
        <ele>12.800000190735</ele>
        <time>2022-08-07T07:29:18.000Z</time>
      </trkpt>
      <trkpt lat="48.58308" lon="-4.27202">
        <ele>12.800000190735</ele>
        <time>2022-08-07T07:29:19.000Z</time>
      </trkpt>
      <trkpt lat="48.58312" lon="-4.27206">
        <ele>12.800000190735</ele>
        <time>2022-08-07T07:29:20.000Z</time>
      </trkpt>
      <trkpt lat="48.58315" lon="-4.27209">
        <ele>13</ele>
        <time>2022-08-07T07:29:21.000Z</time>
      </trkpt>
      <trkpt lat="48.58319" lon="-4.27212">
        <ele>13.199999809265</ele>
        <time>2022-08-07T07:29:22.000Z</time>
      </trkpt>
      <trkpt lat="48.58324" lon="-4.27214">
        <ele>13.39999961853</ele>
        <time>2022-08-07T07:29:23.000Z</time>
      </trkpt>
      <trkpt lat="48.58328" lon="-4.27216">
        <ele>13.39999961853</ele>
        <time>2022-08-07T07:29:24.000Z</time>
      </trkpt>
      <trkpt lat="48.58332" lon="-4.27217">
        <ele>13.60000038147</ele>
        <time>2022-08-07T07:29:25.000Z</time>
      </trkpt>
      <trkpt lat="48.58336" lon="-4.27219">
        <ele>14</ele>
        <time>2022-08-07T07:29:26.000Z</time>
      </trkpt>
      <trkpt lat="48.58341" lon="-4.2722">
        <ele>14</ele>
        <time>2022-08-07T07:29:27.000Z</time>
      </trkpt>
      <trkpt lat="48.58345" lon="-4.27221">
        <ele>14.39999961853</ele>
        <time>2022-08-07T07:29:28.000Z</time>
      </trkpt>
      <trkpt lat="48.58349" lon="-4.27223">
        <ele>14.60000038147</ele>
        <time>2022-08-07T07:29:29.000Z</time>
      </trkpt>
      <trkpt lat="48.58354" lon="-4.27224">
        <ele>14.800000190735</ele>
        <time>2022-08-07T07:29:30.000Z</time>
      </trkpt>
      <trkpt lat="48.58358" lon="-4.27225">
        <ele>14.800000190735</ele>
        <time>2022-08-07T07:29:31.000Z</time>
      </trkpt>
      <trkpt lat="48.58363" lon="-4.27226">
        <ele>14.800000190735</ele>
        <time>2022-08-07T07:29:32.000Z</time>
      </trkpt>
      <trkpt lat="48.58368" lon="-4.27228">
        <ele>14.800000190735</ele>
        <time>2022-08-07T07:29:33.000Z</time>
      </trkpt>
      <trkpt lat="48.58373" lon="-4.27228">
        <ele>14.800000190735</ele>
        <time>2022-08-07T07:29:34.000Z</time>
      </trkpt>
      <trkpt lat="48.58378" lon="-4.27229">
        <ele>14.800000190735</ele>
        <time>2022-08-07T07:29:35.000Z</time>
      </trkpt>
      <trkpt lat="48.58384" lon="-4.27229">
        <ele>14.800000190735</ele>
        <time>2022-08-07T07:29:36.000Z</time>
      </trkpt>
      <trkpt lat="48.58388" lon="-4.2723">
        <ele>14.800000190735</ele>
        <time>2022-08-07T07:29:37.000Z</time>
      </trkpt>
      <trkpt lat="48.58393" lon="-4.27231">
        <ele>14.800000190735</ele>
        <time>2022-08-07T07:29:38.000Z</time>
      </trkpt>
      <trkpt lat="48.58397" lon="-4.27232">
        <ele>14.800000190735</ele>
        <time>2022-08-07T07:29:39.000Z</time>
      </trkpt>
      <trkpt lat="48.58402" lon="-4.27232">
        <ele>14.800000190735</ele>
        <time>2022-08-07T07:29:40.000Z</time>
      </trkpt>
      <trkpt lat="48.58408" lon="-4.27231">
        <ele>14.60000038147</ele>
        <time>2022-08-07T07:29:41.000Z</time>
      </trkpt>
      <trkpt lat="48.58413" lon="-4.2723">
        <ele>14.39999961853</ele>
        <time>2022-08-07T07:29:42.000Z</time>
      </trkpt>
      <trkpt lat="48.58418" lon="-4.2723">
        <ele>14.39999961853</ele>
        <time>2022-08-07T07:29:43.000Z</time>
      </trkpt>
      <trkpt lat="48.58423" lon="-4.27229">
        <ele>14.39999961853</ele>
        <time>2022-08-07T07:29:44.000Z</time>
      </trkpt>
      <trkpt lat="48.58429" lon="-4.27228">
        <ele>14.39999961853</ele>
        <time>2022-08-07T07:29:45.000Z</time>
      </trkpt>
      <trkpt lat="48.58434" lon="-4.27227">
        <ele>14.199999809265</ele>
        <time>2022-08-07T07:29:46.000Z</time>
      </trkpt>
      <trkpt lat="48.5844" lon="-4.27226">
        <ele>14.199999809265</ele>
        <time>2022-08-07T07:29:47.000Z</time>
      </trkpt>
      <trkpt lat="48.58444" lon="-4.27225">
        <ele>14.199999809265</ele>
        <time>2022-08-07T07:29:48.000Z</time>
      </trkpt>
      <trkpt lat="48.58449" lon="-4.27224">
        <ele>14.199999809265</ele>
        <time>2022-08-07T07:29:49.000Z</time>
      </trkpt>
      <trkpt lat="48.58454" lon="-4.27222">
        <ele>14.199999809265</ele>
        <time>2022-08-07T07:29:50.000Z</time>
      </trkpt>
      <trkpt lat="48.58459" lon="-4.27222">
        <ele>14.199999809265</ele>
        <time>2022-08-07T07:29:51.000Z</time>
      </trkpt>
      <trkpt lat="48.58463" lon="-4.27222">
        <ele>14.199999809265</ele>
        <time>2022-08-07T07:29:52.000Z</time>
      </trkpt>
      <trkpt lat="48.58468" lon="-4.27221">
        <ele>14.199999809265</ele>
        <time>2022-08-07T07:29:53.000Z</time>
      </trkpt>
      <trkpt lat="48.58472" lon="-4.2722">
        <ele>14.199999809265</ele>
        <time>2022-08-07T07:29:54.000Z</time>
      </trkpt>
      <trkpt lat="48.58477" lon="-4.27219">
        <ele>14.199999809265</ele>
        <time>2022-08-07T07:29:55.000Z</time>
      </trkpt>
      <trkpt lat="48.58481" lon="-4.27219">
        <ele>14.39999961853</ele>
        <time>2022-08-07T07:29:56.000Z</time>
      </trkpt>
      <trkpt lat="48.58486" lon="-4.27219">
        <ele>14.39999961853</ele>
        <time>2022-08-07T07:29:57.000Z</time>
      </trkpt>
      <trkpt lat="48.58491" lon="-4.27218">
        <ele>14.39999961853</ele>
        <time>2022-08-07T07:29:58.000Z</time>
      </trkpt>
      <trkpt lat="48.58496" lon="-4.27217">
        <ele>14.199999809265</ele>
        <time>2022-08-07T07:29:59.000Z</time>
      </trkpt>
      <trkpt lat="48.58501" lon="-4.27216">
        <ele>14.199999809265</ele>
        <time>2022-08-07T07:30:00.000Z</time>
      </trkpt>
      <trkpt lat="48.58505" lon="-4.27215">
        <ele>14</ele>
        <time>2022-08-07T07:30:01.000Z</time>
      </trkpt>
      <trkpt lat="48.58511" lon="-4.27214">
        <ele>14</ele>
        <time>2022-08-07T07:30:02.000Z</time>
      </trkpt>
      <trkpt lat="48.58516" lon="-4.27213">
        <ele>13.800000190735</ele>
        <time>2022-08-07T07:30:03.000Z</time>
      </trkpt>
      <trkpt lat="48.58522" lon="-4.27212">
        <ele>13.800000190735</ele>
        <time>2022-08-07T07:30:04.000Z</time>
      </trkpt>
      <trkpt lat="48.58527" lon="-4.27209">
        <ele>13.60000038147</ele>
        <time>2022-08-07T07:30:05.000Z</time>
      </trkpt>
      <trkpt lat="48.58532" lon="-4.27206">
        <ele>13.39999961853</ele>
        <time>2022-08-07T07:30:06.000Z</time>
      </trkpt>
      <trkpt lat="48.58536" lon="-4.27201">
        <ele>13.199999809265</ele>
        <time>2022-08-07T07:30:07.000Z</time>
      </trkpt>
      <trkpt lat="48.58539" lon="-4.27193">
        <ele>13</ele>
        <time>2022-08-07T07:30:08.000Z</time>
      </trkpt>
      <trkpt lat="48.5854" lon="-4.27185">
        <ele>12.800000190735</ele>
        <time>2022-08-07T07:30:09.000Z</time>
      </trkpt>
      <trkpt lat="48.58541" lon="-4.27177">
        <ele>12.800000190735</ele>
        <time>2022-08-07T07:30:10.000Z</time>
      </trkpt>
      <trkpt lat="48.5854" lon="-4.27169">
        <ele>12.800000190735</ele>
        <time>2022-08-07T07:30:11.000Z</time>
      </trkpt>
      <trkpt lat="48.5854" lon="-4.27161">
        <ele>12.60000038147</ele>
        <time>2022-08-07T07:30:12.000Z</time>
      </trkpt>
      <trkpt lat="48.58539" lon="-4.27153">
        <ele>12.60000038147</ele>
        <time>2022-08-07T07:30:13.000Z</time>
      </trkpt>
      <trkpt lat="48.58539" lon="-4.27143">
        <ele>12.39999961853</ele>
        <time>2022-08-07T07:30:14.000Z</time>
      </trkpt>
      <trkpt lat="48.58539" lon="-4.27135">
        <ele>12.199999809265</ele>
        <time>2022-08-07T07:30:15.000Z</time>
      </trkpt>
      <trkpt lat="48.58539" lon="-4.27128">
        <ele>12.199999809265</ele>
        <time>2022-08-07T07:30:16.000Z</time>
      </trkpt>
      <trkpt lat="48.58539" lon="-4.27122">
        <ele>12.199999809265</ele>
        <time>2022-08-07T07:30:17.000Z</time>
      </trkpt>
      <trkpt lat="48.58538" lon="-4.27116">
        <ele>12.199999809265</ele>
        <time>2022-08-07T07:30:18.000Z</time>
      </trkpt>
      <trkpt lat="48.58538" lon="-4.27109">
        <ele>12.199999809265</ele>
        <time>2022-08-07T07:30:19.000Z</time>
      </trkpt>
      <trkpt lat="48.58539" lon="-4.27103">
        <ele>12.199999809265</ele>
        <time>2022-08-07T07:30:20.000Z</time>
      </trkpt>
      <trkpt lat="48.58541" lon="-4.27097">
        <ele>12</ele>
        <time>2022-08-07T07:30:21.000Z</time>
      </trkpt>
      <trkpt lat="48.58543" lon="-4.27094">
        <ele>12</ele>
        <time>2022-08-07T07:30:22.000Z</time>
      </trkpt>
      <trkpt lat="48.58546" lon="-4.27091">
        <ele>12</ele>
        <time>2022-08-07T07:30:23.000Z</time>
      </trkpt>
      <trkpt lat="48.58549" lon="-4.27088">
        <ele>12</ele>
        <time>2022-08-07T07:30:24.000Z</time>
      </trkpt>
      <trkpt lat="48.58553" lon="-4.27086">
        <ele>12</ele>
        <time>2022-08-07T07:30:25.000Z</time>
      </trkpt>
      <trkpt lat="48.58557" lon="-4.27084">
        <ele>12</ele>
        <time>2022-08-07T07:30:26.000Z</time>
      </trkpt>
      <trkpt lat="48.58562" lon="-4.27083">
        <ele>12</ele>
        <time>2022-08-07T07:30:27.000Z</time>
      </trkpt>
      <trkpt lat="48.58568" lon="-4.27082">
        <ele>12</ele>
        <time>2022-08-07T07:30:28.000Z</time>
      </trkpt>
      <trkpt lat="48.58573" lon="-4.2708">
        <ele>12</ele>
        <time>2022-08-07T07:30:29.000Z</time>
      </trkpt>
      <trkpt lat="48.58578" lon="-4.27077">
        <ele>12</ele>
        <time>2022-08-07T07:30:30.000Z</time>
      </trkpt>
      <trkpt lat="48.58583" lon="-4.27074">
        <ele>12</ele>
        <time>2022-08-07T07:30:31.000Z</time>
      </trkpt>
      <trkpt lat="48.58588" lon="-4.27071">
        <ele>12</ele>
        <time>2022-08-07T07:30:32.000Z</time>
      </trkpt>
      <trkpt lat="48.58593" lon="-4.27066">
        <ele>11.800000190735</ele>
        <time>2022-08-07T07:30:33.000Z</time>
      </trkpt>
      <trkpt lat="48.58597" lon="-4.27059">
        <ele>11.800000190735</ele>
        <time>2022-08-07T07:30:34.000Z</time>
      </trkpt>
      <trkpt lat="48.586" lon="-4.27051">
        <ele>11.800000190735</ele>
        <time>2022-08-07T07:30:35.000Z</time>
      </trkpt>
      <trkpt lat="48.58602" lon="-4.27044">
        <ele>11.60000038147</ele>
        <time>2022-08-07T07:30:36.000Z</time>
      </trkpt>
      <trkpt lat="48.58602" lon="-4.27035">
        <ele>11.60000038147</ele>
        <time>2022-08-07T07:30:37.000Z</time>
      </trkpt>
      <trkpt lat="48.58602" lon="-4.27026">
        <ele>11.60000038147</ele>
        <time>2022-08-07T07:30:38.000Z</time>
      </trkpt>
      <trkpt lat="48.58602" lon="-4.27017">
        <ele>11.39999961853</ele>
        <time>2022-08-07T07:30:39.000Z</time>
      </trkpt>
      <trkpt lat="48.58601" lon="-4.27009">
        <ele>11.39999961853</ele>
        <time>2022-08-07T07:30:40.000Z</time>
      </trkpt>
      <trkpt lat="48.586" lon="-4.27">
        <ele>11.39999961853</ele>
        <time>2022-08-07T07:30:41.000Z</time>
      </trkpt>
      <trkpt lat="48.58599" lon="-4.26992">
        <ele>11.199999809265</ele>
        <time>2022-08-07T07:30:42.000Z</time>
      </trkpt>
      <trkpt lat="48.58598" lon="-4.26984">
        <ele>11</ele>
        <time>2022-08-07T07:30:43.000Z</time>
      </trkpt>
      <trkpt lat="48.58598" lon="-4.26976">
        <ele>11</ele>
        <time>2022-08-07T07:30:44.000Z</time>
      </trkpt>
      <trkpt lat="48.58599" lon="-4.26968">
        <ele>10.800000190735</ele>
        <time>2022-08-07T07:30:45.000Z</time>
      </trkpt>
      <trkpt lat="48.586" lon="-4.2696">
        <ele>10.800000190735</ele>
        <time>2022-08-07T07:30:46.000Z</time>
      </trkpt>
      <trkpt lat="48.58601" lon="-4.26953">
        <ele>10.800000190735</ele>
        <time>2022-08-07T07:30:47.000Z</time>
      </trkpt>
      <trkpt lat="48.58603" lon="-4.26946">
        <ele>10.800000190735</ele>
        <time>2022-08-07T07:30:48.000Z</time>
      </trkpt>
      <trkpt lat="48.58605" lon="-4.26939">
        <ele>10.800000190735</ele>
        <time>2022-08-07T07:30:49.000Z</time>
      </trkpt>
      <trkpt lat="48.58607" lon="-4.26931">
        <ele>10.800000190735</ele>
        <time>2022-08-07T07:30:50.000Z</time>
      </trkpt>
      <trkpt lat="48.58609" lon="-4.26924">
        <ele>10.800000190735</ele>
        <time>2022-08-07T07:30:51.000Z</time>
      </trkpt>
      <trkpt lat="48.58611" lon="-4.26917">
        <ele>10.800000190735</ele>
        <time>2022-08-07T07:30:52.000Z</time>
      </trkpt>
      <trkpt lat="48.58613" lon="-4.26911">
        <ele>11</ele>
        <time>2022-08-07T07:30:53.000Z</time>
      </trkpt>
      <trkpt lat="48.58616" lon="-4.26905">
        <ele>11</ele>
        <time>2022-08-07T07:30:54.000Z</time>
      </trkpt>
      <trkpt lat="48.58619" lon="-4.269">
        <ele>11.199999809265</ele>
        <time>2022-08-07T07:30:55.000Z</time>
      </trkpt>
      <trkpt lat="48.58622" lon="-4.26895">
        <ele>11.199999809265</ele>
        <time>2022-08-07T07:30:56.000Z</time>
      </trkpt>
      <trkpt lat="48.58627" lon="-4.26893">
        <ele>11.39999961853</ele>
        <time>2022-08-07T07:30:57.000Z</time>
      </trkpt>
      <trkpt lat="48.58631" lon="-4.26892">
        <ele>11.199999809265</ele>
        <time>2022-08-07T07:30:58.000Z</time>
      </trkpt>
      <trkpt lat="48.58636" lon="-4.26892">
        <ele>11.60000038147</ele>
        <time>2022-08-07T07:30:59.000Z</time>
      </trkpt>
      <trkpt lat="48.58641" lon="-4.26892">
        <ele>11.60000038147</ele>
        <time>2022-08-07T07:31:00.000Z</time>
      </trkpt>
      <trkpt lat="48.58646" lon="-4.26893">
        <ele>11.800000190735</ele>
        <time>2022-08-07T07:31:01.000Z</time>
      </trkpt>
      <trkpt lat="48.58651" lon="-4.26893">
        <ele>12.60000038147</ele>
        <time>2022-08-07T07:31:02.000Z</time>
      </trkpt>
      <trkpt lat="48.58656" lon="-4.26894">
        <ele>13</ele>
        <time>2022-08-07T07:31:03.000Z</time>
      </trkpt>
      <trkpt lat="48.58661" lon="-4.26894">
        <ele>13.199999809265</ele>
        <time>2022-08-07T07:31:04.000Z</time>
      </trkpt>
      <trkpt lat="48.58667" lon="-4.26894">
        <ele>13.60000038147</ele>
        <time>2022-08-07T07:31:05.000Z</time>
      </trkpt>
      <trkpt lat="48.58672" lon="-4.26895">
        <ele>13.60000038147</ele>
        <time>2022-08-07T07:31:06.000Z</time>
      </trkpt>
      <trkpt lat="48.58678" lon="-4.26895">
        <ele>13.60000038147</ele>
        <time>2022-08-07T07:31:07.000Z</time>
      </trkpt>
      <trkpt lat="48.58683" lon="-4.26896">
        <ele>13.800000190735</ele>
        <time>2022-08-07T07:31:08.000Z</time>
      </trkpt>
      <trkpt lat="48.58688" lon="-4.26896">
        <ele>14.199999809265</ele>
        <time>2022-08-07T07:31:09.000Z</time>
      </trkpt>
      <trkpt lat="48.58693" lon="-4.26896">
        <ele>14.199999809265</ele>
        <time>2022-08-07T07:31:10.000Z</time>
      </trkpt>
      <trkpt lat="48.58698" lon="-4.26897">
        <ele>14.39999961853</ele>
        <time>2022-08-07T07:31:11.000Z</time>
      </trkpt>
      <trkpt lat="48.58703" lon="-4.26898">
        <ele>14.39999961853</ele>
        <time>2022-08-07T07:31:12.000Z</time>
      </trkpt>
      <trkpt lat="48.58708" lon="-4.26899">
        <ele>14.800000190735</ele>
        <time>2022-08-07T07:31:13.000Z</time>
      </trkpt>
      <trkpt lat="48.58713" lon="-4.26899">
        <ele>14.800000190735</ele>
        <time>2022-08-07T07:31:14.000Z</time>
      </trkpt>
      <trkpt lat="48.58718" lon="-4.26899">
        <ele>15.199999809265</ele>
        <time>2022-08-07T07:31:15.000Z</time>
      </trkpt>
      <trkpt lat="48.58723" lon="-4.26899">
        <ele>15.199999809265</ele>
        <time>2022-08-07T07:31:16.000Z</time>
      </trkpt>
      <trkpt lat="48.58729" lon="-4.26899">
        <ele>15.60000038147</ele>
        <time>2022-08-07T07:31:17.000Z</time>
      </trkpt>
      <trkpt lat="48.58732" lon="-4.26899">
        <ele>15.800000190735</ele>
        <time>2022-08-07T07:31:18.000Z</time>
      </trkpt>
      <trkpt lat="48.58738" lon="-4.26899">
        <ele>16.39999961853</ele>
        <time>2022-08-07T07:31:19.000Z</time>
      </trkpt>
      <trkpt lat="48.58743" lon="-4.26899">
        <ele>16.799999237061</ele>
        <time>2022-08-07T07:31:20.000Z</time>
      </trkpt>
      <trkpt lat="48.58747" lon="-4.26898">
        <ele>16.799999237061</ele>
        <time>2022-08-07T07:31:21.000Z</time>
      </trkpt>
      <trkpt lat="48.58751" lon="-4.26898">
        <ele>17</ele>
        <time>2022-08-07T07:31:22.000Z</time>
      </trkpt>
      <trkpt lat="48.58756" lon="-4.26897">
        <ele>17</ele>
        <time>2022-08-07T07:31:23.000Z</time>
      </trkpt>
      <trkpt lat="48.58761" lon="-4.26897">
        <ele>17.39999961853</ele>
        <time>2022-08-07T07:31:24.000Z</time>
      </trkpt>
      <trkpt lat="48.58766" lon="-4.26896">
        <ele>17.39999961853</ele>
        <time>2022-08-07T07:31:25.000Z</time>
      </trkpt>
      <trkpt lat="48.58772" lon="-4.26895">
        <ele>17.60000038147</ele>
        <time>2022-08-07T07:31:26.000Z</time>
      </trkpt>
      <trkpt lat="48.58776" lon="-4.26895">
        <ele>17.799999237061</ele>
        <time>2022-08-07T07:31:27.000Z</time>
      </trkpt>
      <trkpt lat="48.58781" lon="-4.26895">
        <ele>18.200000762939</ele>
        <time>2022-08-07T07:31:28.000Z</time>
      </trkpt>
      <trkpt lat="48.58787" lon="-4.26895">
        <ele>18.200000762939</ele>
        <time>2022-08-07T07:31:29.000Z</time>
      </trkpt>
      <trkpt lat="48.58792" lon="-4.26894">
        <ele>18.39999961853</ele>
        <time>2022-08-07T07:31:30.000Z</time>
      </trkpt>
      <trkpt lat="48.58797" lon="-4.26894">
        <ele>18.60000038147</ele>
        <time>2022-08-07T07:31:31.000Z</time>
      </trkpt>
      <trkpt lat="48.58802" lon="-4.26893">
        <ele>18.60000038147</ele>
        <time>2022-08-07T07:31:32.000Z</time>
      </trkpt>
      <trkpt lat="48.58807" lon="-4.26893">
        <ele>19</ele>
        <time>2022-08-07T07:31:33.000Z</time>
      </trkpt>
      <trkpt lat="48.58813" lon="-4.26892">
        <ele>19</ele>
        <time>2022-08-07T07:31:34.000Z</time>
      </trkpt>
      <trkpt lat="48.58818" lon="-4.26892">
        <ele>19.39999961853</ele>
        <time>2022-08-07T07:31:35.000Z</time>
      </trkpt>
      <trkpt lat="48.58823" lon="-4.26891">
        <ele>19.39999961853</ele>
        <time>2022-08-07T07:31:36.000Z</time>
      </trkpt>
      <trkpt lat="48.58828" lon="-4.2689">
        <ele>19.60000038147</ele>
        <time>2022-08-07T07:31:37.000Z</time>
      </trkpt>
      <trkpt lat="48.58833" lon="-4.26889">
        <ele>20</ele>
        <time>2022-08-07T07:31:38.000Z</time>
      </trkpt>
      <trkpt lat="48.58839" lon="-4.26888">
        <ele>20</ele>
        <time>2022-08-07T07:31:39.000Z</time>
      </trkpt>
      <trkpt lat="48.58844" lon="-4.26887">
        <ele>20</ele>
        <time>2022-08-07T07:31:40.000Z</time>
      </trkpt>
      <trkpt lat="48.58849" lon="-4.26886">
        <ele>20.200000762939</ele>
        <time>2022-08-07T07:31:41.000Z</time>
      </trkpt>
      <trkpt lat="48.58853" lon="-4.26885">
        <ele>21</ele>
        <time>2022-08-07T07:31:42.000Z</time>
      </trkpt>
      <trkpt lat="48.58857" lon="-4.26884">
        <ele>21.200000762939</ele>
        <time>2022-08-07T07:31:43.000Z</time>
      </trkpt>
      <trkpt lat="48.58862" lon="-4.26882">
        <ele>22</ele>
        <time>2022-08-07T07:31:44.000Z</time>
      </trkpt>
      <trkpt lat="48.58867" lon="-4.26881">
        <ele>22.60000038147</ele>
        <time>2022-08-07T07:31:45.000Z</time>
      </trkpt>
      <trkpt lat="48.58871" lon="-4.2688">
        <ele>23.200000762939</ele>
        <time>2022-08-07T07:31:46.000Z</time>
      </trkpt>
      <trkpt lat="48.58875" lon="-4.26878">
        <ele>23.39999961853</ele>
        <time>2022-08-07T07:31:47.000Z</time>
      </trkpt>
      <trkpt lat="48.58879" lon="-4.26877">
        <ele>23.799999237061</ele>
        <time>2022-08-07T07:31:48.000Z</time>
      </trkpt>
      <trkpt lat="48.58884" lon="-4.26874">
        <ele>24</ele>
        <time>2022-08-07T07:31:49.000Z</time>
      </trkpt>
      <trkpt lat="48.58889" lon="-4.26873">
        <ele>24.200000762939</ele>
        <time>2022-08-07T07:31:50.000Z</time>
      </trkpt>
      <trkpt lat="48.58892" lon="-4.26872">
        <ele>24.60000038147</ele>
        <time>2022-08-07T07:31:51.000Z</time>
      </trkpt>
      <trkpt lat="48.58896" lon="-4.2687">
        <ele>24.799999237061</ele>
        <time>2022-08-07T07:31:52.000Z</time>
      </trkpt>
      <trkpt lat="48.58901" lon="-4.26869">
        <ele>25.200000762939</ele>
        <time>2022-08-07T07:31:53.000Z</time>
      </trkpt>
      <trkpt lat="48.58906" lon="-4.26868">
        <ele>25.200000762939</ele>
        <time>2022-08-07T07:31:54.000Z</time>
      </trkpt>
      <trkpt lat="48.5891" lon="-4.26867">
        <ele>25.200000762939</ele>
        <time>2022-08-07T07:31:55.000Z</time>
      </trkpt>
      <trkpt lat="48.58913" lon="-4.26866">
        <ele>25.39999961853</ele>
        <time>2022-08-07T07:31:56.000Z</time>
      </trkpt>
      <trkpt lat="48.58917" lon="-4.26866">
        <ele>26</ele>
        <time>2022-08-07T07:31:57.000Z</time>
      </trkpt>
      <trkpt lat="48.58923" lon="-4.26865">
        <ele>26.200000762939</ele>
        <time>2022-08-07T07:31:58.000Z</time>
      </trkpt>
      <trkpt lat="48.58927" lon="-4.26865">
        <ele>26.39999961853</ele>
        <time>2022-08-07T07:31:59.000Z</time>
      </trkpt>
      <trkpt lat="48.58932" lon="-4.26865">
        <ele>26.60000038147</ele>
        <time>2022-08-07T07:32:00.000Z</time>
      </trkpt>
      <trkpt lat="48.58935" lon="-4.26865">
        <ele>26.799999237061</ele>
        <time>2022-08-07T07:32:01.000Z</time>
      </trkpt>
      <trkpt lat="48.5894" lon="-4.26865">
        <ele>26.799999237061</ele>
        <time>2022-08-07T07:32:02.000Z</time>
      </trkpt>
      <trkpt lat="48.58944" lon="-4.26865">
        <ele>26.799999237061</ele>
        <time>2022-08-07T07:32:03.000Z</time>
      </trkpt>
      <trkpt lat="48.58949" lon="-4.26866">
        <ele>27.200000762939</ele>
        <time>2022-08-07T07:32:04.000Z</time>
      </trkpt>
      <trkpt lat="48.58954" lon="-4.26867">
        <ele>27.200000762939</ele>
        <time>2022-08-07T07:32:05.000Z</time>
      </trkpt>
      <trkpt lat="48.58958" lon="-4.26868">
        <ele>27.200000762939</ele>
        <time>2022-08-07T07:32:06.000Z</time>
      </trkpt>
      <trkpt lat="48.58963" lon="-4.26869">
        <ele>27.200000762939</ele>
        <time>2022-08-07T07:32:07.000Z</time>
      </trkpt>
      <trkpt lat="48.58968" lon="-4.2687">
        <ele>27.799999237061</ele>
        <time>2022-08-07T07:32:08.000Z</time>
      </trkpt>
      <trkpt lat="48.58972" lon="-4.2687">
        <ele>28</ele>
        <time>2022-08-07T07:32:09.000Z</time>
      </trkpt>
      <trkpt lat="48.58976" lon="-4.26871">
        <ele>28.39999961853</ele>
        <time>2022-08-07T07:32:10.000Z</time>
      </trkpt>
      <trkpt lat="48.5898" lon="-4.26871">
        <ele>28.60000038147</ele>
        <time>2022-08-07T07:32:11.000Z</time>
      </trkpt>
      <trkpt lat="48.58985" lon="-4.26871">
        <ele>28.799999237061</ele>
        <time>2022-08-07T07:32:12.000Z</time>
      </trkpt>
      <trkpt lat="48.58989" lon="-4.26872">
        <ele>29</ele>
        <time>2022-08-07T07:32:13.000Z</time>
      </trkpt>
      <trkpt lat="48.58993" lon="-4.26872">
        <ele>29.200000762939</ele>
        <time>2022-08-07T07:32:14.000Z</time>
      </trkpt>
      <trkpt lat="48.58997" lon="-4.26871">
        <ele>29.799999237061</ele>
        <time>2022-08-07T07:32:15.000Z</time>
      </trkpt>
      <trkpt lat="48.59001" lon="-4.26871">
        <ele>30</ele>
        <time>2022-08-07T07:32:16.000Z</time>
      </trkpt>
      <trkpt lat="48.59005" lon="-4.2687">
        <ele>30.39999961853</ele>
        <time>2022-08-07T07:32:17.000Z</time>
      </trkpt>
      <trkpt lat="48.59009" lon="-4.2687">
        <ele>31.200000762939</ele>
        <time>2022-08-07T07:32:18.000Z</time>
      </trkpt>
      <trkpt lat="48.59013" lon="-4.26869">
        <ele>31.60000038147</ele>
        <time>2022-08-07T07:32:19.000Z</time>
      </trkpt>
      <trkpt lat="48.59017" lon="-4.26868">
        <ele>32.200000762939</ele>
        <time>2022-08-07T07:32:20.000Z</time>
      </trkpt>
      <trkpt lat="48.59021" lon="-4.26867">
        <ele>32.400001525879</ele>
        <time>2022-08-07T07:32:21.000Z</time>
      </trkpt>
      <trkpt lat="48.59025" lon="-4.26866">
        <ele>33</ele>
        <time>2022-08-07T07:32:22.000Z</time>
      </trkpt>
      <trkpt lat="48.59029" lon="-4.26865">
        <ele>33</ele>
        <time>2022-08-07T07:32:23.000Z</time>
      </trkpt>
      <trkpt lat="48.59033" lon="-4.26864">
        <ele>33.799999237061</ele>
        <time>2022-08-07T07:32:24.000Z</time>
      </trkpt>
      <trkpt lat="48.59037" lon="-4.26863">
        <ele>34.200000762939</ele>
        <time>2022-08-07T07:32:25.000Z</time>
      </trkpt>
      <trkpt lat="48.59041" lon="-4.26862">
        <ele>34.400001525879</ele>
        <time>2022-08-07T07:32:26.000Z</time>
      </trkpt>
      <trkpt lat="48.59045" lon="-4.26861">
        <ele>34.799999237061</ele>
        <time>2022-08-07T07:32:27.000Z</time>
      </trkpt>
      <trkpt lat="48.59049" lon="-4.26861">
        <ele>34.799999237061</ele>
        <time>2022-08-07T07:32:28.000Z</time>
      </trkpt>
      <trkpt lat="48.59053" lon="-4.2686">
        <ele>35.599998474121</ele>
        <time>2022-08-07T07:32:29.000Z</time>
      </trkpt>
      <trkpt lat="48.59056" lon="-4.2686">
        <ele>35.799999237061</ele>
        <time>2022-08-07T07:32:30.000Z</time>
      </trkpt>
      <trkpt lat="48.5906" lon="-4.2686">
        <ele>36.200000762939</ele>
        <time>2022-08-07T07:32:31.000Z</time>
      </trkpt>
      <trkpt lat="48.59063" lon="-4.2686">
        <ele>36.400001525879</ele>
        <time>2022-08-07T07:32:32.000Z</time>
      </trkpt>
      <trkpt lat="48.59066" lon="-4.26861">
        <ele>36.799999237061</ele>
        <time>2022-08-07T07:32:33.000Z</time>
      </trkpt>
      <trkpt lat="48.59069" lon="-4.26862">
        <ele>37</ele>
        <time>2022-08-07T07:32:34.000Z</time>
      </trkpt>
      <trkpt lat="48.59072" lon="-4.26862">
        <ele>37.400001525879</ele>
        <time>2022-08-07T07:32:35.000Z</time>
      </trkpt>
      <trkpt lat="48.59074" lon="-4.26863">
        <ele>37.599998474121</ele>
        <time>2022-08-07T07:32:36.000Z</time>
      </trkpt>
      <trkpt lat="48.59077" lon="-4.26864">
        <ele>38.200000762939</ele>
        <time>2022-08-07T07:32:37.000Z</time>
      </trkpt>
      <trkpt lat="48.59079" lon="-4.26865">
        <ele>38.400001525879</ele>
        <time>2022-08-07T07:32:38.000Z</time>
      </trkpt>
      <trkpt lat="48.59081" lon="-4.26866">
        <ele>38.799999237061</ele>
        <time>2022-08-07T07:32:39.000Z</time>
      </trkpt>
      <trkpt lat="48.59083" lon="-4.26866">
        <ele>39</ele>
        <time>2022-08-07T07:32:40.000Z</time>
      </trkpt>
      <trkpt lat="48.59086" lon="-4.26867">
        <ele>39.400001525879</ele>
        <time>2022-08-07T07:32:41.000Z</time>
      </trkpt>
      <trkpt lat="48.59088" lon="-4.26868">
        <ele>39.400001525879</ele>
        <time>2022-08-07T07:32:42.000Z</time>
      </trkpt>
      <trkpt lat="48.5909" lon="-4.26868">
        <ele>39.400001525879</ele>
        <time>2022-08-07T07:32:43.000Z</time>
      </trkpt>
      <trkpt lat="48.59092" lon="-4.26868">
        <ele>39.599998474121</ele>
        <time>2022-08-07T07:32:44.000Z</time>
      </trkpt>
      <trkpt lat="48.59094" lon="-4.26868">
        <ele>39.599998474121</ele>
        <time>2022-08-07T07:32:45.000Z</time>
      </trkpt>
      <trkpt lat="48.59096" lon="-4.26868">
        <ele>39.799999237061</ele>
        <time>2022-08-07T07:32:46.000Z</time>
      </trkpt>
      <trkpt lat="48.59097" lon="-4.26868">
        <ele>40</ele>
        <time>2022-08-07T07:32:47.000Z</time>
      </trkpt>
      <trkpt lat="48.59099" lon="-4.26868">
        <ele>40.200000762939</ele>
        <time>2022-08-07T07:32:48.000Z</time>
      </trkpt>
      <trkpt lat="48.59101" lon="-4.26867">
        <ele>40.400001525879</ele>
        <time>2022-08-07T07:32:49.000Z</time>
      </trkpt>
      <trkpt lat="48.59102" lon="-4.26867">
        <ele>40.799999237061</ele>
        <time>2022-08-07T07:32:50.000Z</time>
      </trkpt>
      <trkpt lat="48.59104" lon="-4.26866">
        <ele>40.799999237061</ele>
        <time>2022-08-07T07:32:51.000Z</time>
      </trkpt>
      <trkpt lat="48.59105" lon="-4.26866">
        <ele>40.799999237061</ele>
        <time>2022-08-07T07:32:52.000Z</time>
      </trkpt>
      <trkpt lat="48.59106" lon="-4.26865">
        <ele>40.799999237061</ele>
        <time>2022-08-07T07:32:53.000Z</time>
      </trkpt>
      <trkpt lat="48.59108" lon="-4.26865">
        <ele>40.799999237061</ele>
        <time>2022-08-07T07:32:54.000Z</time>
      </trkpt>
      <trkpt lat="48.59109" lon="-4.26864">
        <ele>41</ele>
        <time>2022-08-07T07:32:55.000Z</time>
      </trkpt>
      <trkpt lat="48.5911" lon="-4.26864">
        <ele>41.400001525879</ele>
        <time>2022-08-07T07:32:56.000Z</time>
      </trkpt>
      <trkpt lat="48.59112" lon="-4.26863">
        <ele>41.400001525879</ele>
        <time>2022-08-07T07:32:57.000Z</time>
      </trkpt>
      <trkpt lat="48.59113" lon="-4.26862">
        <ele>41.400001525879</ele>
        <time>2022-08-07T07:32:58.000Z</time>
      </trkpt>
      <trkpt lat="48.59114" lon="-4.26861">
        <ele>41.400001525879</ele>
        <time>2022-08-07T07:32:59.000Z</time>
      </trkpt>
      <trkpt lat="48.59115" lon="-4.2686">
        <ele>41.599998474121</ele>
        <time>2022-08-07T07:33:00.000Z</time>
      </trkpt>
      <trkpt lat="48.59116" lon="-4.26859">
        <ele>42</ele>
        <time>2022-08-07T07:33:01.000Z</time>
      </trkpt>
      <trkpt lat="48.59117" lon="-4.26858">
        <ele>42.200000762939</ele>
        <time>2022-08-07T07:33:02.000Z</time>
      </trkpt>
      <trkpt lat="48.59118" lon="-4.26857">
        <ele>42.200000762939</ele>
        <time>2022-08-07T07:33:03.000Z</time>
      </trkpt>
      <trkpt lat="48.59118" lon="-4.26855">
        <ele>42.200000762939</ele>
        <time>2022-08-07T07:33:04.000Z</time>
      </trkpt>
      <trkpt lat="48.59119" lon="-4.26854">
        <ele>42.200000762939</ele>
        <time>2022-08-07T07:33:05.000Z</time>
      </trkpt>
      <trkpt lat="48.59119" lon="-4.26853">
        <ele>42.400001525879</ele>
        <time>2022-08-07T07:33:06.000Z</time>
      </trkpt>
      <trkpt lat="48.59121" lon="-4.26854">
        <ele>42.799999237061</ele>
        <time>2022-08-07T07:33:07.000Z</time>
      </trkpt>
      <trkpt lat="48.59122" lon="-4.26855">
        <ele>42.799999237061</ele>
        <time>2022-08-07T07:33:08.000Z</time>
      </trkpt>
      <trkpt lat="48.59122" lon="-4.26857">
        <ele>42.799999237061</ele>
        <time>2022-08-07T07:33:09.000Z</time>
      </trkpt>
      <trkpt lat="48.59122" lon="-4.26859">
        <ele>42.799999237061</ele>
        <time>2022-08-07T07:33:10.000Z</time>
      </trkpt>
      <trkpt lat="48.59122" lon="-4.2686">
        <ele>43</ele>
        <time>2022-08-07T07:33:11.000Z</time>
      </trkpt>
      <trkpt lat="48.5912" lon="-4.26861">
        <ele>43</ele>
        <time>2022-08-07T07:33:12.000Z</time>
      </trkpt>
      <trkpt lat="48.59119" lon="-4.2686">
        <ele>43</ele>
        <time>2022-08-07T07:33:13.000Z</time>
      </trkpt>
      <trkpt lat="48.5912" lon="-4.26859">
        <ele>42.599998474121</ele>
        <time>2022-08-07T07:33:31.000Z</time>
      </trkpt>
      <trkpt lat="48.59122" lon="-4.26858">
        <ele>42.599998474121</ele>
        <time>2022-08-07T07:33:32.000Z</time>
      </trkpt>
      <trkpt lat="48.59124" lon="-4.26858">
        <ele>42.599998474121</ele>
        <time>2022-08-07T07:33:33.000Z</time>
      </trkpt>
      <trkpt lat="48.59126" lon="-4.26858">
        <ele>42.799999237061</ele>
        <time>2022-08-07T07:33:34.000Z</time>
      </trkpt>
      <trkpt lat="48.59129" lon="-4.26859">
        <ele>42.799999237061</ele>
        <time>2022-08-07T07:33:35.000Z</time>
      </trkpt>
      <trkpt lat="48.59132" lon="-4.26861">
        <ele>42.799999237061</ele>
        <time>2022-08-07T07:33:36.000Z</time>
      </trkpt>
      <trkpt lat="48.59135" lon="-4.26862">
        <ele>42.799999237061</ele>
        <time>2022-08-07T07:33:37.000Z</time>
      </trkpt>
      <trkpt lat="48.59138" lon="-4.26864">
        <ele>42.799999237061</ele>
        <time>2022-08-07T07:33:38.000Z</time>
      </trkpt>
      <trkpt lat="48.59141" lon="-4.26866">
        <ele>42.799999237061</ele>
        <time>2022-08-07T07:33:39.000Z</time>
      </trkpt>
      <trkpt lat="48.59143" lon="-4.26868">
        <ele>42.799999237061</ele>
        <time>2022-08-07T07:33:40.000Z</time>
      </trkpt>
      <trkpt lat="48.59146" lon="-4.2687">
        <ele>42.799999237061</ele>
        <time>2022-08-07T07:33:41.000Z</time>
      </trkpt>
      <trkpt lat="48.59149" lon="-4.26871">
        <ele>42.799999237061</ele>
        <time>2022-08-07T07:33:42.000Z</time>
      </trkpt>
      <trkpt lat="48.59152" lon="-4.26873">
        <ele>42.799999237061</ele>
        <time>2022-08-07T07:33:43.000Z</time>
      </trkpt>
      <trkpt lat="48.59156" lon="-4.26875">
        <ele>42.799999237061</ele>
        <time>2022-08-07T07:33:44.000Z</time>
      </trkpt>
      <trkpt lat="48.59159" lon="-4.26877">
        <ele>42.799999237061</ele>
        <time>2022-08-07T07:33:45.000Z</time>
      </trkpt>
      <trkpt lat="48.59162" lon="-4.26879">
        <ele>42.799999237061</ele>
        <time>2022-08-07T07:33:46.000Z</time>
      </trkpt>
      <trkpt lat="48.59165" lon="-4.26881">
        <ele>42.599998474121</ele>
        <time>2022-08-07T07:33:47.000Z</time>
      </trkpt>
      <trkpt lat="48.59168" lon="-4.26884">
        <ele>42.599998474121</ele>
        <time>2022-08-07T07:33:48.000Z</time>
      </trkpt>
      <trkpt lat="48.59171" lon="-4.26885">
        <ele>42.400001525879</ele>
        <time>2022-08-07T07:33:49.000Z</time>
      </trkpt>
      <trkpt lat="48.59173" lon="-4.26887">
        <ele>42.400001525879</ele>
        <time>2022-08-07T07:33:50.000Z</time>
      </trkpt>
      <trkpt lat="48.59176" lon="-4.26889">
        <ele>42.200000762939</ele>
        <time>2022-08-07T07:33:51.000Z</time>
      </trkpt>
      <trkpt lat="48.59179" lon="-4.26891">
        <ele>42.200000762939</ele>
        <time>2022-08-07T07:33:52.000Z</time>
      </trkpt>
      <trkpt lat="48.59182" lon="-4.26893">
        <ele>42.200000762939</ele>
        <time>2022-08-07T07:33:53.000Z</time>
      </trkpt>
      <trkpt lat="48.59184" lon="-4.26895">
        <ele>42.200000762939</ele>
        <time>2022-08-07T07:33:54.000Z</time>
      </trkpt>
      <trkpt lat="48.59188" lon="-4.26896">
        <ele>42.200000762939</ele>
        <time>2022-08-07T07:33:55.000Z</time>
      </trkpt>
      <trkpt lat="48.59191" lon="-4.26896">
        <ele>42</ele>
        <time>2022-08-07T07:33:56.000Z</time>
      </trkpt>
      <trkpt lat="48.59193" lon="-4.26894">
        <ele>42</ele>
        <time>2022-08-07T07:33:57.000Z</time>
      </trkpt>
      <trkpt lat="48.59195" lon="-4.26891">
        <ele>42</ele>
        <time>2022-08-07T07:33:58.000Z</time>
      </trkpt>
      <trkpt lat="48.59196" lon="-4.26886">
        <ele>42</ele>
        <time>2022-08-07T07:33:59.000Z</time>
      </trkpt>
      <trkpt lat="48.59196" lon="-4.26881">
        <ele>42</ele>
        <time>2022-08-07T07:34:00.000Z</time>
      </trkpt>
      <trkpt lat="48.59196" lon="-4.26875">
        <ele>41.799999237061</ele>
        <time>2022-08-07T07:34:01.000Z</time>
      </trkpt>
      <trkpt lat="48.59197" lon="-4.2687">
        <ele>41.799999237061</ele>
        <time>2022-08-07T07:34:02.000Z</time>
      </trkpt>
      <trkpt lat="48.59197" lon="-4.26864">
        <ele>42</ele>
        <time>2022-08-07T07:34:03.000Z</time>
      </trkpt>
      <trkpt lat="48.59198" lon="-4.26859">
        <ele>42</ele>
        <time>2022-08-07T07:34:04.000Z</time>
      </trkpt>
      <trkpt lat="48.59198" lon="-4.26854">
        <ele>42.400001525879</ele>
        <time>2022-08-07T07:34:05.000Z</time>
      </trkpt>
      <trkpt lat="48.59198" lon="-4.2685">
        <ele>42.599998474121</ele>
        <time>2022-08-07T07:34:06.000Z</time>
      </trkpt>
      <trkpt lat="48.59198" lon="-4.26846">
        <ele>42.799999237061</ele>
        <time>2022-08-07T07:34:07.000Z</time>
      </trkpt>
      <trkpt lat="48.59198" lon="-4.26842">
        <ele>43</ele>
        <time>2022-08-07T07:34:08.000Z</time>
      </trkpt>
      <trkpt lat="48.59198" lon="-4.26838">
        <ele>43.200000762939</ele>
        <time>2022-08-07T07:34:09.000Z</time>
      </trkpt>
      <trkpt lat="48.59198" lon="-4.26834">
        <ele>43.400001525879</ele>
        <time>2022-08-07T07:34:10.000Z</time>
      </trkpt>
      <trkpt lat="48.59198" lon="-4.26831">
        <ele>43.599998474121</ele>
        <time>2022-08-07T07:34:11.000Z</time>
      </trkpt>
      <trkpt lat="48.59197" lon="-4.26827">
        <ele>43.799999237061</ele>
        <time>2022-08-07T07:34:12.000Z</time>
      </trkpt>
      <trkpt lat="48.59197" lon="-4.26823">
        <ele>44</ele>
        <time>2022-08-07T07:34:13.000Z</time>
      </trkpt>
      <trkpt lat="48.59196" lon="-4.26819">
        <ele>44.400001525879</ele>
        <time>2022-08-07T07:34:14.000Z</time>
      </trkpt>
      <trkpt lat="48.59195" lon="-4.26815">
        <ele>44.599998474121</ele>
        <time>2022-08-07T07:34:15.000Z</time>
      </trkpt>
      <trkpt lat="48.59194" lon="-4.26812">
        <ele>44.799999237061</ele>
        <time>2022-08-07T07:34:16.000Z</time>
      </trkpt>
      <trkpt lat="48.59194" lon="-4.26809">
        <ele>45</ele>
        <time>2022-08-07T07:34:17.000Z</time>
      </trkpt>
      <trkpt lat="48.59193" lon="-4.26806">
        <ele>45.200000762939</ele>
        <time>2022-08-07T07:34:18.000Z</time>
      </trkpt>
      <trkpt lat="48.59192" lon="-4.26802">
        <ele>45.200000762939</ele>
        <time>2022-08-07T07:34:19.000Z</time>
      </trkpt>
      <trkpt lat="48.59191" lon="-4.26799">
        <ele>45.200000762939</ele>
        <time>2022-08-07T07:34:20.000Z</time>
      </trkpt>
      <trkpt lat="48.5919" lon="-4.26795">
        <ele>45.400001525879</ele>
        <time>2022-08-07T07:34:21.000Z</time>
      </trkpt>
      <trkpt lat="48.59189" lon="-4.26791">
        <ele>45.599998474121</ele>
        <time>2022-08-07T07:34:22.000Z</time>
      </trkpt>
      <trkpt lat="48.59188" lon="-4.26787">
        <ele>46</ele>
        <time>2022-08-07T07:34:23.000Z</time>
      </trkpt>
      <trkpt lat="48.59187" lon="-4.26783">
        <ele>46</ele>
        <time>2022-08-07T07:34:24.000Z</time>
      </trkpt>
      <trkpt lat="48.59186" lon="-4.26779">
        <ele>46.200000762939</ele>
        <time>2022-08-07T07:34:25.000Z</time>
      </trkpt>
      <trkpt lat="48.59185" lon="-4.26776">
        <ele>46.400001525879</ele>
        <time>2022-08-07T07:34:26.000Z</time>
      </trkpt>
      <trkpt lat="48.59184" lon="-4.26773">
        <ele>46.599998474121</ele>
        <time>2022-08-07T07:34:27.000Z</time>
      </trkpt>
      <trkpt lat="48.59183" lon="-4.26771">
        <ele>46.599998474121</ele>
        <time>2022-08-07T07:34:28.000Z</time>
      </trkpt>
      <trkpt lat="48.59182" lon="-4.26768">
        <ele>46.799999237061</ele>
        <time>2022-08-07T07:34:29.000Z</time>
      </trkpt>
      <trkpt lat="48.59182" lon="-4.26765">
        <ele>46.799999237061</ele>
        <time>2022-08-07T07:34:30.000Z</time>
      </trkpt>
      <trkpt lat="48.59181" lon="-4.26763">
        <ele>46.799999237061</ele>
        <time>2022-08-07T07:34:31.000Z</time>
      </trkpt>
      <trkpt lat="48.5918" lon="-4.2676">
        <ele>47</ele>
        <time>2022-08-07T07:34:32.000Z</time>
      </trkpt>
      <trkpt lat="48.59179" lon="-4.26757">
        <ele>47.200000762939</ele>
        <time>2022-08-07T07:34:33.000Z</time>
      </trkpt>
      <trkpt lat="48.59178" lon="-4.26753">
        <ele>47.200000762939</ele>
        <time>2022-08-07T07:34:34.000Z</time>
      </trkpt>
      <trkpt lat="48.59178" lon="-4.2675">
        <ele>47.400001525879</ele>
        <time>2022-08-07T07:34:35.000Z</time>
      </trkpt>
      <trkpt lat="48.59176" lon="-4.26747">
        <ele>47.400001525879</ele>
        <time>2022-08-07T07:34:36.000Z</time>
      </trkpt>
      <trkpt lat="48.59175" lon="-4.26743">
        <ele>47.400001525879</ele>
        <time>2022-08-07T07:34:37.000Z</time>
      </trkpt>
      <trkpt lat="48.59173" lon="-4.26738">
        <ele>47.400001525879</ele>
        <time>2022-08-07T07:34:38.000Z</time>
      </trkpt>
      <trkpt lat="48.59171" lon="-4.26734">
        <ele>47.400001525879</ele>
        <time>2022-08-07T07:34:39.000Z</time>
      </trkpt>
      <trkpt lat="48.59169" lon="-4.26729">
        <ele>47.400001525879</ele>
        <time>2022-08-07T07:34:40.000Z</time>
      </trkpt>
      <trkpt lat="48.59167" lon="-4.26724">
        <ele>47.400001525879</ele>
        <time>2022-08-07T07:34:41.000Z</time>
      </trkpt>
      <trkpt lat="48.59166" lon="-4.26719">
        <ele>47.400001525879</ele>
        <time>2022-08-07T07:34:42.000Z</time>
      </trkpt>
      <trkpt lat="48.59164" lon="-4.26714">
        <ele>47.400001525879</ele>
        <time>2022-08-07T07:34:43.000Z</time>
      </trkpt>
      <trkpt lat="48.59164" lon="-4.26709">
        <ele>47.400001525879</ele>
        <time>2022-08-07T07:34:44.000Z</time>
      </trkpt>
      <trkpt lat="48.59164" lon="-4.26705">
        <ele>47.200000762939</ele>
        <time>2022-08-07T07:34:45.000Z</time>
      </trkpt>
      <trkpt lat="48.59163" lon="-4.267">
        <ele>47.200000762939</ele>
        <time>2022-08-07T07:34:46.000Z</time>
      </trkpt>
      <trkpt lat="48.59162" lon="-4.26695">
        <ele>46.799999237061</ele>
        <time>2022-08-07T07:34:47.000Z</time>
      </trkpt>
      <trkpt lat="48.59162" lon="-4.2669">
        <ele>46.799999237061</ele>
        <time>2022-08-07T07:34:48.000Z</time>
      </trkpt>
      <trkpt lat="48.59162" lon="-4.26686">
        <ele>46.799999237061</ele>
        <time>2022-08-07T07:34:49.000Z</time>
      </trkpt>
      <trkpt lat="48.59163" lon="-4.26682">
        <ele>46.599998474121</ele>
        <time>2022-08-07T07:34:50.000Z</time>
      </trkpt>
      <trkpt lat="48.59163" lon="-4.26676">
        <ele>46.200000762939</ele>
        <time>2022-08-07T07:34:51.000Z</time>
      </trkpt>
      <trkpt lat="48.59163" lon="-4.26671">
        <ele>46</ele>
        <time>2022-08-07T07:34:52.000Z</time>
      </trkpt>
      <trkpt lat="48.59163" lon="-4.26664">
        <ele>45.799999237061</ele>
        <time>2022-08-07T07:34:53.000Z</time>
      </trkpt>
      <trkpt lat="48.59164" lon="-4.26657">
        <ele>45.200000762939</ele>
        <time>2022-08-07T07:34:54.000Z</time>
      </trkpt>
      <trkpt lat="48.59163" lon="-4.26651">
        <ele>45</ele>
        <time>2022-08-07T07:34:55.000Z</time>
      </trkpt>
      <trkpt lat="48.59163" lon="-4.26645">
        <ele>44.599998474121</ele>
        <time>2022-08-07T07:34:56.000Z</time>
      </trkpt>
      <trkpt lat="48.59164" lon="-4.26641">
        <ele>44.599998474121</ele>
        <time>2022-08-07T07:34:57.000Z</time>
      </trkpt>
      <trkpt lat="48.59164" lon="-4.26635">
        <ele>44</ele>
        <time>2022-08-07T07:34:58.000Z</time>
      </trkpt>
      <trkpt lat="48.59164" lon="-4.26629">
        <ele>43.799999237061</ele>
        <time>2022-08-07T07:34:59.000Z</time>
      </trkpt>
      <trkpt lat="48.59164" lon="-4.26622">
        <ele>43.599998474121</ele>
        <time>2022-08-07T07:35:00.000Z</time>
      </trkpt>
      <trkpt lat="48.59163" lon="-4.26615">
        <ele>43.200000762939</ele>
        <time>2022-08-07T07:35:01.000Z</time>
      </trkpt>
      <trkpt lat="48.59163" lon="-4.26608">
        <ele>42.799999237061</ele>
        <time>2022-08-07T07:35:02.000Z</time>
      </trkpt>
      <trkpt lat="48.59163" lon="-4.266">
        <ele>42.400001525879</ele>
        <time>2022-08-07T07:35:03.000Z</time>
      </trkpt>
      <trkpt lat="48.59163" lon="-4.26594">
        <ele>42.400001525879</ele>
        <time>2022-08-07T07:35:04.000Z</time>
      </trkpt>
      <trkpt lat="48.59165" lon="-4.26591">
        <ele>42</ele>
        <time>2022-08-07T07:35:05.000Z</time>
      </trkpt>
      <trkpt lat="48.59169" lon="-4.2659">
        <ele>41.799999237061</ele>
        <time>2022-08-07T07:35:06.000Z</time>
      </trkpt>
      <trkpt lat="48.59173" lon="-4.26589">
        <ele>41.400001525879</ele>
        <time>2022-08-07T07:35:07.000Z</time>
      </trkpt>
      <trkpt lat="48.59177" lon="-4.26589">
        <ele>41.200000762939</ele>
        <time>2022-08-07T07:35:08.000Z</time>
      </trkpt>
      <trkpt lat="48.59181" lon="-4.26589">
        <ele>41</ele>
        <time>2022-08-07T07:35:09.000Z</time>
      </trkpt>
      <trkpt lat="48.59185" lon="-4.26587">
        <ele>41</ele>
        <time>2022-08-07T07:35:10.000Z</time>
      </trkpt>
      <trkpt lat="48.59189" lon="-4.26587">
        <ele>41</ele>
        <time>2022-08-07T07:35:11.000Z</time>
      </trkpt>
      <trkpt lat="48.59193" lon="-4.26587">
        <ele>41</ele>
        <time>2022-08-07T07:35:12.000Z</time>
      </trkpt>
      <trkpt lat="48.59196" lon="-4.26587">
        <ele>41</ele>
        <time>2022-08-07T07:35:13.000Z</time>
      </trkpt>
      <trkpt lat="48.592" lon="-4.26587">
        <ele>41</ele>
        <time>2022-08-07T07:35:14.000Z</time>
      </trkpt>
      <trkpt lat="48.59205" lon="-4.26587">
        <ele>41</ele>
        <time>2022-08-07T07:35:15.000Z</time>
      </trkpt>
      <trkpt lat="48.59209" lon="-4.26586">
        <ele>41</ele>
        <time>2022-08-07T07:35:16.000Z</time>
      </trkpt>
      <trkpt lat="48.59213" lon="-4.26586">
        <ele>41</ele>
        <time>2022-08-07T07:35:17.000Z</time>
      </trkpt>
      <trkpt lat="48.59216" lon="-4.26586">
        <ele>41.200000762939</ele>
        <time>2022-08-07T07:35:18.000Z</time>
      </trkpt>
      <trkpt lat="48.59219" lon="-4.26586">
        <ele>41.400001525879</ele>
        <time>2022-08-07T07:35:19.000Z</time>
      </trkpt>
      <trkpt lat="48.59224" lon="-4.26585">
        <ele>41.599998474121</ele>
        <time>2022-08-07T07:35:20.000Z</time>
      </trkpt>
      <trkpt lat="48.59227" lon="-4.26585">
        <ele>41.799999237061</ele>
        <time>2022-08-07T07:35:21.000Z</time>
      </trkpt>
      <trkpt lat="48.5923" lon="-4.26585">
        <ele>41.799999237061</ele>
        <time>2022-08-07T07:35:22.000Z</time>
      </trkpt>
      <trkpt lat="48.59234" lon="-4.26585">
        <ele>42</ele>
        <time>2022-08-07T07:35:23.000Z</time>
      </trkpt>
      <trkpt lat="48.59238" lon="-4.26584">
        <ele>42</ele>
        <time>2022-08-07T07:35:24.000Z</time>
      </trkpt>
      <trkpt lat="48.59241" lon="-4.26584">
        <ele>42.200000762939</ele>
        <time>2022-08-07T07:35:25.000Z</time>
      </trkpt>
      <trkpt lat="48.59246" lon="-4.26583">
        <ele>42.200000762939</ele>
        <time>2022-08-07T07:35:26.000Z</time>
      </trkpt>
      <trkpt lat="48.59249" lon="-4.26583">
        <ele>42.200000762939</ele>
        <time>2022-08-07T07:35:27.000Z</time>
      </trkpt>
      <trkpt lat="48.59252" lon="-4.26583">
        <ele>42.400001525879</ele>
        <time>2022-08-07T07:35:28.000Z</time>
      </trkpt>
      <trkpt lat="48.59257" lon="-4.26582">
        <ele>42.599998474121</ele>
        <time>2022-08-07T07:35:29.000Z</time>
      </trkpt>
      <trkpt lat="48.5926" lon="-4.26582">
        <ele>43</ele>
        <time>2022-08-07T07:35:30.000Z</time>
      </trkpt>
      <trkpt lat="48.59264" lon="-4.26581">
        <ele>43</ele>
        <time>2022-08-07T07:35:31.000Z</time>
      </trkpt>
      <trkpt lat="48.59267" lon="-4.2658">
        <ele>43.400001525879</ele>
        <time>2022-08-07T07:35:32.000Z</time>
      </trkpt>
      <trkpt lat="48.5927" lon="-4.26579">
        <ele>43.599998474121</ele>
        <time>2022-08-07T07:35:33.000Z</time>
      </trkpt>
      <trkpt lat="48.59273" lon="-4.26578">
        <ele>43.799999237061</ele>
        <time>2022-08-07T07:35:34.000Z</time>
      </trkpt>
      <trkpt lat="48.59277" lon="-4.26577">
        <ele>43.799999237061</ele>
        <time>2022-08-07T07:35:35.000Z</time>
      </trkpt>
      <trkpt lat="48.5928" lon="-4.26576">
        <ele>44</ele>
        <time>2022-08-07T07:35:36.000Z</time>
      </trkpt>
      <trkpt lat="48.59283" lon="-4.26575">
        <ele>44</ele>
        <time>2022-08-07T07:35:37.000Z</time>
      </trkpt>
      <trkpt lat="48.59287" lon="-4.26574">
        <ele>44.400001525879</ele>
        <time>2022-08-07T07:35:38.000Z</time>
      </trkpt>
      <trkpt lat="48.5929" lon="-4.26573">
        <ele>44.599998474121</ele>
        <time>2022-08-07T07:35:39.000Z</time>
      </trkpt>
      <trkpt lat="48.59294" lon="-4.26572">
        <ele>44.599998474121</ele>
        <time>2022-08-07T07:35:40.000Z</time>
      </trkpt>
      <trkpt lat="48.59298" lon="-4.26571">
        <ele>45</ele>
        <time>2022-08-07T07:35:41.000Z</time>
      </trkpt>
      <trkpt lat="48.59301" lon="-4.26571">
        <ele>45.200000762939</ele>
        <time>2022-08-07T07:35:42.000Z</time>
      </trkpt>
      <trkpt lat="48.59304" lon="-4.26571">
        <ele>45.599998474121</ele>
        <time>2022-08-07T07:35:43.000Z</time>
      </trkpt>
      <trkpt lat="48.59307" lon="-4.2657">
        <ele>45.599998474121</ele>
        <time>2022-08-07T07:35:44.000Z</time>
      </trkpt>
      <trkpt lat="48.59311" lon="-4.2657">
        <ele>45.799999237061</ele>
        <time>2022-08-07T07:35:45.000Z</time>
      </trkpt>
      <trkpt lat="48.59313" lon="-4.26569">
        <ele>46</ele>
        <time>2022-08-07T07:35:46.000Z</time>
      </trkpt>
      <trkpt lat="48.59316" lon="-4.26569">
        <ele>46.200000762939</ele>
        <time>2022-08-07T07:35:47.000Z</time>
      </trkpt>
      <trkpt lat="48.59319" lon="-4.26569">
        <ele>46.200000762939</ele>
        <time>2022-08-07T07:35:48.000Z</time>
      </trkpt>
      <trkpt lat="48.59323" lon="-4.2657">
        <ele>46.400001525879</ele>
        <time>2022-08-07T07:35:49.000Z</time>
      </trkpt>
      <trkpt lat="48.59325" lon="-4.26571">
        <ele>46.599998474121</ele>
        <time>2022-08-07T07:35:50.000Z</time>
      </trkpt>
      <trkpt lat="48.59329" lon="-4.26572">
        <ele>46.599998474121</ele>
        <time>2022-08-07T07:35:51.000Z</time>
      </trkpt>
      <trkpt lat="48.59332" lon="-4.26573">
        <ele>46.799999237061</ele>
        <time>2022-08-07T07:35:52.000Z</time>
      </trkpt>
      <trkpt lat="48.59335" lon="-4.26574">
        <ele>46.799999237061</ele>
        <time>2022-08-07T07:35:53.000Z</time>
      </trkpt>
      <trkpt lat="48.59338" lon="-4.26575">
        <ele>47</ele>
        <time>2022-08-07T07:35:54.000Z</time>
      </trkpt>
      <trkpt lat="48.59341" lon="-4.26577">
        <ele>47.200000762939</ele>
        <time>2022-08-07T07:35:55.000Z</time>
      </trkpt>
      <trkpt lat="48.59345" lon="-4.26579">
        <ele>47.400001525879</ele>
        <time>2022-08-07T07:35:56.000Z</time>
      </trkpt>
      <trkpt lat="48.59347" lon="-4.2658">
        <ele>47.400001525879</ele>
        <time>2022-08-07T07:35:57.000Z</time>
      </trkpt>
      <trkpt lat="48.5935" lon="-4.26581">
        <ele>47.400001525879</ele>
        <time>2022-08-07T07:35:58.000Z</time>
      </trkpt>
      <trkpt lat="48.59354" lon="-4.26583">
        <ele>47.599998474121</ele>
        <time>2022-08-07T07:35:59.000Z</time>
      </trkpt>
      <trkpt lat="48.59357" lon="-4.26585">
        <ele>47.599998474121</ele>
        <time>2022-08-07T07:36:00.000Z</time>
      </trkpt>
      <trkpt lat="48.5936" lon="-4.26587">
        <ele>47.599998474121</ele>
        <time>2022-08-07T07:36:01.000Z</time>
      </trkpt>
      <trkpt lat="48.59363" lon="-4.26588">
        <ele>47.599998474121</ele>
        <time>2022-08-07T07:36:02.000Z</time>
      </trkpt>
      <trkpt lat="48.59367" lon="-4.2659">
        <ele>47.799999237061</ele>
        <time>2022-08-07T07:36:03.000Z</time>
      </trkpt>
      <trkpt lat="48.5937" lon="-4.26592">
        <ele>48</ele>
        <time>2022-08-07T07:36:04.000Z</time>
      </trkpt>
      <trkpt lat="48.59374" lon="-4.26594">
        <ele>48</ele>
        <time>2022-08-07T07:36:05.000Z</time>
      </trkpt>
      <trkpt lat="48.59376" lon="-4.26596">
        <ele>48.200000762939</ele>
        <time>2022-08-07T07:36:06.000Z</time>
      </trkpt>
      <trkpt lat="48.5938" lon="-4.26597">
        <ele>48.200000762939</ele>
        <time>2022-08-07T07:36:07.000Z</time>
      </trkpt>
      <trkpt lat="48.59383" lon="-4.26599">
        <ele>48.200000762939</ele>
        <time>2022-08-07T07:36:08.000Z</time>
      </trkpt>
      <trkpt lat="48.59387" lon="-4.26602">
        <ele>48.200000762939</ele>
        <time>2022-08-07T07:36:09.000Z</time>
      </trkpt>
      <trkpt lat="48.5939" lon="-4.26604">
        <ele>48.599998474121</ele>
        <time>2022-08-07T07:36:10.000Z</time>
      </trkpt>
      <trkpt lat="48.59393" lon="-4.26605">
        <ele>48.599998474121</ele>
        <time>2022-08-07T07:36:11.000Z</time>
      </trkpt>
      <trkpt lat="48.59397" lon="-4.26607">
        <ele>48.799999237061</ele>
        <time>2022-08-07T07:36:12.000Z</time>
      </trkpt>
      <trkpt lat="48.594" lon="-4.2661">
        <ele>48.799999237061</ele>
        <time>2022-08-07T07:36:13.000Z</time>
      </trkpt>
      <trkpt lat="48.59405" lon="-4.26612">
        <ele>49</ele>
        <time>2022-08-07T07:36:14.000Z</time>
      </trkpt>
      <trkpt lat="48.59408" lon="-4.26614">
        <ele>49</ele>
        <time>2022-08-07T07:36:15.000Z</time>
      </trkpt>
      <trkpt lat="48.59412" lon="-4.26616">
        <ele>49</ele>
        <time>2022-08-07T07:36:16.000Z</time>
      </trkpt>
      <trkpt lat="48.59417" lon="-4.26618">
        <ele>49</ele>
        <time>2022-08-07T07:36:17.000Z</time>
      </trkpt>
      <trkpt lat="48.59421" lon="-4.2662">
        <ele>49</ele>
        <time>2022-08-07T07:36:18.000Z</time>
      </trkpt>
      <trkpt lat="48.59425" lon="-4.26621">
        <ele>48.799999237061</ele>
        <time>2022-08-07T07:36:19.000Z</time>
      </trkpt>
      <trkpt lat="48.5943" lon="-4.26623">
        <ele>48.799999237061</ele>
        <time>2022-08-07T07:36:20.000Z</time>
      </trkpt>
      <trkpt lat="48.59434" lon="-4.26624">
        <ele>48.400001525879</ele>
        <time>2022-08-07T07:36:21.000Z</time>
      </trkpt>
      <trkpt lat="48.59438" lon="-4.26625">
        <ele>48.200000762939</ele>
        <time>2022-08-07T07:36:22.000Z</time>
      </trkpt>
      <trkpt lat="48.59443" lon="-4.26625">
        <ele>48.200000762939</ele>
        <time>2022-08-07T07:36:23.000Z</time>
      </trkpt>
      <trkpt lat="48.59447" lon="-4.26625">
        <ele>48.400001525879</ele>
        <time>2022-08-07T07:36:24.000Z</time>
      </trkpt>
      <trkpt lat="48.5945" lon="-4.26624">
        <ele>48.200000762939</ele>
        <time>2022-08-07T07:36:25.000Z</time>
      </trkpt>
      <trkpt lat="48.59455" lon="-4.26622">
        <ele>48.200000762939</ele>
        <time>2022-08-07T07:36:26.000Z</time>
      </trkpt>
      <trkpt lat="48.59461" lon="-4.26621">
        <ele>48.200000762939</ele>
        <time>2022-08-07T07:36:27.000Z</time>
      </trkpt>
      <trkpt lat="48.59466" lon="-4.26619">
        <ele>48.200000762939</ele>
        <time>2022-08-07T07:36:28.000Z</time>
      </trkpt>
      <trkpt lat="48.59471" lon="-4.26617">
        <ele>48.200000762939</ele>
        <time>2022-08-07T07:36:29.000Z</time>
      </trkpt>
      <trkpt lat="48.59476" lon="-4.26615">
        <ele>48.200000762939</ele>
        <time>2022-08-07T07:36:30.000Z</time>
      </trkpt>
      <trkpt lat="48.5948" lon="-4.26613">
        <ele>48.200000762939</ele>
        <time>2022-08-07T07:36:31.000Z</time>
      </trkpt>
      <trkpt lat="48.59486" lon="-4.2661">
        <ele>48.400001525879</ele>
        <time>2022-08-07T07:36:32.000Z</time>
      </trkpt>
      <trkpt lat="48.5949" lon="-4.26608">
        <ele>48.400001525879</ele>
        <time>2022-08-07T07:36:33.000Z</time>
      </trkpt>
      <trkpt lat="48.59494" lon="-4.26606">
        <ele>48.599998474121</ele>
        <time>2022-08-07T07:36:34.000Z</time>
      </trkpt>
      <trkpt lat="48.59498" lon="-4.26605">
        <ele>48.599998474121</ele>
        <time>2022-08-07T07:36:35.000Z</time>
      </trkpt>
      <trkpt lat="48.59502" lon="-4.26603">
        <ele>48.599998474121</ele>
        <time>2022-08-07T07:36:36.000Z</time>
      </trkpt>
      <trkpt lat="48.59507" lon="-4.26601">
        <ele>48.599998474121</ele>
        <time>2022-08-07T07:36:37.000Z</time>
      </trkpt>
      <trkpt lat="48.59512" lon="-4.26598">
        <ele>48.599998474121</ele>
        <time>2022-08-07T07:36:38.000Z</time>
      </trkpt>
      <trkpt lat="48.59515" lon="-4.26597">
        <ele>48.599998474121</ele>
        <time>2022-08-07T07:36:39.000Z</time>
      </trkpt>
      <trkpt lat="48.5952" lon="-4.26595">
        <ele>48.599998474121</ele>
        <time>2022-08-07T07:36:40.000Z</time>
      </trkpt>
      <trkpt lat="48.59524" lon="-4.26593">
        <ele>48.599998474121</ele>
        <time>2022-08-07T07:36:41.000Z</time>
      </trkpt>
      <trkpt lat="48.59529" lon="-4.26591">
        <ele>48.599998474121</ele>
        <time>2022-08-07T07:36:42.000Z</time>
      </trkpt>
      <trkpt lat="48.59534" lon="-4.26588">
        <ele>48.599998474121</ele>
        <time>2022-08-07T07:36:43.000Z</time>
      </trkpt>
      <trkpt lat="48.59538" lon="-4.26587">
        <ele>48.599998474121</ele>
        <time>2022-08-07T07:36:44.000Z</time>
      </trkpt>
      <trkpt lat="48.59542" lon="-4.26585">
        <ele>48.599998474121</ele>
        <time>2022-08-07T07:36:45.000Z</time>
      </trkpt>
      <trkpt lat="48.59547" lon="-4.26583">
        <ele>48.599998474121</ele>
        <time>2022-08-07T07:36:46.000Z</time>
      </trkpt>
      <trkpt lat="48.59553" lon="-4.2658">
        <ele>48.599998474121</ele>
        <time>2022-08-07T07:36:47.000Z</time>
      </trkpt>
      <trkpt lat="48.59557" lon="-4.26578">
        <ele>48.400001525879</ele>
        <time>2022-08-07T07:36:48.000Z</time>
      </trkpt>
      <trkpt lat="48.59562" lon="-4.26576">
        <ele>48.400001525879</ele>
        <time>2022-08-07T07:36:49.000Z</time>
      </trkpt>
      <trkpt lat="48.59568" lon="-4.26574">
        <ele>48.200000762939</ele>
        <time>2022-08-07T07:36:50.000Z</time>
      </trkpt>
      <trkpt lat="48.59572" lon="-4.26572">
        <ele>48.200000762939</ele>
        <time>2022-08-07T07:36:51.000Z</time>
      </trkpt>
      <trkpt lat="48.59578" lon="-4.2657">
        <ele>48</ele>
        <time>2022-08-07T07:36:52.000Z</time>
      </trkpt>
      <trkpt lat="48.59583" lon="-4.26569">
        <ele>48</ele>
        <time>2022-08-07T07:36:53.000Z</time>
      </trkpt>
      <trkpt lat="48.59589" lon="-4.26569">
        <ele>47.799999237061</ele>
        <time>2022-08-07T07:36:54.000Z</time>
      </trkpt>
      <trkpt lat="48.59594" lon="-4.26569">
        <ele>47.599998474121</ele>
        <time>2022-08-07T07:36:55.000Z</time>
      </trkpt>
      <trkpt lat="48.59599" lon="-4.26571">
        <ele>47.200000762939</ele>
        <time>2022-08-07T07:36:56.000Z</time>
      </trkpt>
      <trkpt lat="48.59604" lon="-4.26573">
        <ele>46.799999237061</ele>
        <time>2022-08-07T07:36:57.000Z</time>
      </trkpt>
      <trkpt lat="48.59608" lon="-4.26576">
        <ele>46.799999237061</ele>
        <time>2022-08-07T07:36:58.000Z</time>
      </trkpt>
      <trkpt lat="48.59612" lon="-4.26579">
        <ele>46.400001525879</ele>
        <time>2022-08-07T07:36:59.000Z</time>
      </trkpt>
      <trkpt lat="48.59615" lon="-4.2658">
        <ele>46.200000762939</ele>
        <time>2022-08-07T07:37:00.000Z</time>
      </trkpt>
      <trkpt lat="48.59617" lon="-4.26579">
        <ele>45.799999237061</ele>
        <time>2022-08-07T07:37:01.000Z</time>
      </trkpt>
      <trkpt lat="48.59619" lon="-4.26578">
        <ele>45.799999237061</ele>
        <time>2022-08-07T07:37:02.000Z</time>
      </trkpt>
      <trkpt lat="48.5962" lon="-4.26576">
        <ele>45.200000762939</ele>
        <time>2022-08-07T07:37:03.000Z</time>
      </trkpt>
      <trkpt lat="48.5962" lon="-4.26574">
        <ele>45.200000762939</ele>
        <time>2022-08-07T07:37:04.000Z</time>
      </trkpt>
      <trkpt lat="48.59622" lon="-4.2657">
        <ele>45</ele>
        <time>2022-08-07T07:37:05.000Z</time>
      </trkpt>
      <trkpt lat="48.59622" lon="-4.26567">
        <ele>44.799999237061</ele>
        <time>2022-08-07T07:37:06.000Z</time>
      </trkpt>
      <trkpt lat="48.59623" lon="-4.26564">
        <ele>44.599998474121</ele>
        <time>2022-08-07T07:37:07.000Z</time>
      </trkpt>
      <trkpt lat="48.59623" lon="-4.2656">
        <ele>44.599998474121</ele>
        <time>2022-08-07T07:37:08.000Z</time>
      </trkpt>
      <trkpt lat="48.59624" lon="-4.26555">
        <ele>44.599998474121</ele>
        <time>2022-08-07T07:37:09.000Z</time>
      </trkpt>
      <trkpt lat="48.59624" lon="-4.26551">
        <ele>44.599998474121</ele>
        <time>2022-08-07T07:37:10.000Z</time>
      </trkpt>
      <trkpt lat="48.59624" lon="-4.26547">
        <ele>44.599998474121</ele>
        <time>2022-08-07T07:37:11.000Z</time>
      </trkpt>
      <trkpt lat="48.59625" lon="-4.26544">
        <ele>45</ele>
        <time>2022-08-07T07:37:12.000Z</time>
      </trkpt>
      <trkpt lat="48.59625" lon="-4.2654">
        <ele>45</ele>
        <time>2022-08-07T07:37:13.000Z</time>
      </trkpt>
      <trkpt lat="48.59626" lon="-4.26536">
        <ele>45.200000762939</ele>
        <time>2022-08-07T07:37:14.000Z</time>
      </trkpt>
      <trkpt lat="48.59627" lon="-4.26532">
        <ele>45.400001525879</ele>
        <time>2022-08-07T07:37:15.000Z</time>
      </trkpt>
      <trkpt lat="48.59628" lon="-4.26527">
        <ele>45.799999237061</ele>
        <time>2022-08-07T07:37:16.000Z</time>
      </trkpt>
      <trkpt lat="48.59629" lon="-4.26522">
        <ele>46</ele>
        <time>2022-08-07T07:37:17.000Z</time>
      </trkpt>
      <trkpt lat="48.59631" lon="-4.26518">
        <ele>46</ele>
        <time>2022-08-07T07:37:18.000Z</time>
      </trkpt>
      <trkpt lat="48.59632" lon="-4.26514">
        <ele>46.599998474121</ele>
        <time>2022-08-07T07:37:19.000Z</time>
      </trkpt>
      <trkpt lat="48.59633" lon="-4.2651">
        <ele>46.799999237061</ele>
        <time>2022-08-07T07:37:20.000Z</time>
      </trkpt>
      <trkpt lat="48.59635" lon="-4.26506">
        <ele>47.200000762939</ele>
        <time>2022-08-07T07:37:21.000Z</time>
      </trkpt>
      <trkpt lat="48.59637" lon="-4.26501">
        <ele>47.200000762939</ele>
        <time>2022-08-07T07:37:22.000Z</time>
      </trkpt>
      <trkpt lat="48.59639" lon="-4.26496">
        <ele>47.599998474121</ele>
        <time>2022-08-07T07:37:23.000Z</time>
      </trkpt>
      <trkpt lat="48.5964" lon="-4.26491">
        <ele>47.799999237061</ele>
        <time>2022-08-07T07:37:24.000Z</time>
      </trkpt>
      <trkpt lat="48.59642" lon="-4.26486">
        <ele>48.200000762939</ele>
        <time>2022-08-07T07:37:25.000Z</time>
      </trkpt>
      <trkpt lat="48.59643" lon="-4.26481">
        <ele>48.400001525879</ele>
        <time>2022-08-07T07:37:26.000Z</time>
      </trkpt>
      <trkpt lat="48.59645" lon="-4.26475">
        <ele>48.400001525879</ele>
        <time>2022-08-07T07:37:27.000Z</time>
      </trkpt>
      <trkpt lat="48.59646" lon="-4.26469">
        <ele>48.599998474121</ele>
        <time>2022-08-07T07:37:28.000Z</time>
      </trkpt>
      <trkpt lat="48.59646" lon="-4.26464">
        <ele>48.599998474121</ele>
        <time>2022-08-07T07:37:29.000Z</time>
      </trkpt>
      <trkpt lat="48.59647" lon="-4.26458">
        <ele>48.799999237061</ele>
        <time>2022-08-07T07:37:30.000Z</time>
      </trkpt>
      <trkpt lat="48.59648" lon="-4.26453">
        <ele>48.799999237061</ele>
        <time>2022-08-07T07:37:31.000Z</time>
      </trkpt>
      <trkpt lat="48.59648" lon="-4.26447">
        <ele>48.799999237061</ele>
        <time>2022-08-07T07:37:32.000Z</time>
      </trkpt>
      <trkpt lat="48.59648" lon="-4.26442">
        <ele>48.799999237061</ele>
        <time>2022-08-07T07:37:33.000Z</time>
      </trkpt>
      <trkpt lat="48.59648" lon="-4.26436">
        <ele>48.799999237061</ele>
        <time>2022-08-07T07:37:34.000Z</time>
      </trkpt>
      <trkpt lat="48.59648" lon="-4.26432">
        <ele>48.799999237061</ele>
        <time>2022-08-07T07:37:35.000Z</time>
      </trkpt>
      <trkpt lat="48.59648" lon="-4.26427">
        <ele>48.799999237061</ele>
        <time>2022-08-07T07:37:36.000Z</time>
      </trkpt>
      <trkpt lat="48.59647" lon="-4.26422">
        <ele>49</ele>
        <time>2022-08-07T07:37:37.000Z</time>
      </trkpt>
      <trkpt lat="48.59647" lon="-4.26416">
        <ele>49</ele>
        <time>2022-08-07T07:37:38.000Z</time>
      </trkpt>
      <trkpt lat="48.59647" lon="-4.26411">
        <ele>49</ele>
        <time>2022-08-07T07:37:39.000Z</time>
      </trkpt>
      <trkpt lat="48.59646" lon="-4.26406">
        <ele>49.200000762939</ele>
        <time>2022-08-07T07:37:40.000Z</time>
      </trkpt>
      <trkpt lat="48.59645" lon="-4.26401">
        <ele>49.200000762939</ele>
        <time>2022-08-07T07:37:41.000Z</time>
      </trkpt>
      <trkpt lat="48.59644" lon="-4.26396">
        <ele>49.200000762939</ele>
        <time>2022-08-07T07:37:42.000Z</time>
      </trkpt>
      <trkpt lat="48.59643" lon="-4.2639">
        <ele>49.200000762939</ele>
        <time>2022-08-07T07:37:43.000Z</time>
      </trkpt>
      <trkpt lat="48.59642" lon="-4.26385">
        <ele>49</ele>
        <time>2022-08-07T07:37:44.000Z</time>
      </trkpt>
      <trkpt lat="48.59641" lon="-4.26379">
        <ele>49.200000762939</ele>
        <time>2022-08-07T07:37:45.000Z</time>
      </trkpt>
      <trkpt lat="48.59641" lon="-4.26374">
        <ele>49.200000762939</ele>
        <time>2022-08-07T07:37:46.000Z</time>
      </trkpt>
      <trkpt lat="48.5964" lon="-4.26369">
        <ele>49.200000762939</ele>
        <time>2022-08-07T07:37:47.000Z</time>
      </trkpt>
      <trkpt lat="48.5964" lon="-4.26363">
        <ele>49.400001525879</ele>
        <time>2022-08-07T07:37:48.000Z</time>
      </trkpt>
      <trkpt lat="48.5964" lon="-4.26357">
        <ele>49.599998474121</ele>
        <time>2022-08-07T07:37:49.000Z</time>
      </trkpt>
      <trkpt lat="48.59641" lon="-4.26353">
        <ele>49.599998474121</ele>
        <time>2022-08-07T07:37:50.000Z</time>
      </trkpt>
      <trkpt lat="48.59642" lon="-4.26348">
        <ele>49.599998474121</ele>
        <time>2022-08-07T07:37:51.000Z</time>
      </trkpt>
      <trkpt lat="48.59643" lon="-4.26344">
        <ele>49.799999237061</ele>
        <time>2022-08-07T07:37:52.000Z</time>
      </trkpt>
      <trkpt lat="48.59645" lon="-4.26338">
        <ele>49.799999237061</ele>
        <time>2022-08-07T07:37:53.000Z</time>
      </trkpt>
      <trkpt lat="48.59646" lon="-4.26334">
        <ele>49.799999237061</ele>
        <time>2022-08-07T07:37:54.000Z</time>
      </trkpt>
      <trkpt lat="48.59648" lon="-4.2633">
        <ele>49.799999237061</ele>
        <time>2022-08-07T07:37:55.000Z</time>
      </trkpt>
      <trkpt lat="48.5965" lon="-4.26325">
        <ele>49.799999237061</ele>
        <time>2022-08-07T07:37:56.000Z</time>
      </trkpt>
      <trkpt lat="48.59652" lon="-4.26321">
        <ele>50</ele>
        <time>2022-08-07T07:37:57.000Z</time>
      </trkpt>
      <trkpt lat="48.59654" lon="-4.26318">
        <ele>50</ele>
        <time>2022-08-07T07:37:58.000Z</time>
      </trkpt>
      <trkpt lat="48.59656" lon="-4.26314">
        <ele>50.200000762939</ele>
        <time>2022-08-07T07:37:59.000Z</time>
      </trkpt>
      <trkpt lat="48.59658" lon="-4.26309">
        <ele>50.200000762939</ele>
        <time>2022-08-07T07:38:00.000Z</time>
      </trkpt>
      <trkpt lat="48.5966" lon="-4.26305">
        <ele>50.200000762939</ele>
        <time>2022-08-07T07:38:01.000Z</time>
      </trkpt>
      <trkpt lat="48.59661" lon="-4.263">
        <ele>50.400001525879</ele>
        <time>2022-08-07T07:38:02.000Z</time>
      </trkpt>
      <trkpt lat="48.59662" lon="-4.26294">
        <ele>50.799999237061</ele>
        <time>2022-08-07T07:38:03.000Z</time>
      </trkpt>
      <trkpt lat="48.59662" lon="-4.2629">
        <ele>50.799999237061</ele>
        <time>2022-08-07T07:38:04.000Z</time>
      </trkpt>
      <trkpt lat="48.59662" lon="-4.26286">
        <ele>51</ele>
        <time>2022-08-07T07:38:05.000Z</time>
      </trkpt>
      <trkpt lat="48.59661" lon="-4.26281">
        <ele>51</ele>
        <time>2022-08-07T07:38:06.000Z</time>
      </trkpt>
      <trkpt lat="48.59659" lon="-4.26274">
        <ele>51</ele>
        <time>2022-08-07T07:38:07.000Z</time>
      </trkpt>
      <trkpt lat="48.59658" lon="-4.2627">
        <ele>51.200000762939</ele>
        <time>2022-08-07T07:38:08.000Z</time>
      </trkpt>
      <trkpt lat="48.59656" lon="-4.26264">
        <ele>51.400001525879</ele>
        <time>2022-08-07T07:38:09.000Z</time>
      </trkpt>
      <trkpt lat="48.59655" lon="-4.2626">
        <ele>51.599998474121</ele>
        <time>2022-08-07T07:38:10.000Z</time>
      </trkpt>
      <trkpt lat="48.59653" lon="-4.26256">
        <ele>51.799999237061</ele>
        <time>2022-08-07T07:38:11.000Z</time>
      </trkpt>
      <trkpt lat="48.59651" lon="-4.26251">
        <ele>52</ele>
        <time>2022-08-07T07:38:12.000Z</time>
      </trkpt>
      <trkpt lat="48.59649" lon="-4.26248">
        <ele>52</ele>
        <time>2022-08-07T07:38:13.000Z</time>
      </trkpt>
      <trkpt lat="48.59647" lon="-4.26244">
        <ele>52.200000762939</ele>
        <time>2022-08-07T07:38:14.000Z</time>
      </trkpt>
      <trkpt lat="48.59645" lon="-4.26239">
        <ele>52.400001525879</ele>
        <time>2022-08-07T07:38:15.000Z</time>
      </trkpt>
      <trkpt lat="48.59644" lon="-4.26235">
        <ele>52.599998474121</ele>
        <time>2022-08-07T07:38:16.000Z</time>
      </trkpt>
      <trkpt lat="48.59642" lon="-4.2623">
        <ele>53</ele>
        <time>2022-08-07T07:38:17.000Z</time>
      </trkpt>
      <trkpt lat="48.5964" lon="-4.26225">
        <ele>53</ele>
        <time>2022-08-07T07:38:18.000Z</time>
      </trkpt>
      <trkpt lat="48.59639" lon="-4.2622">
        <ele>53.400001525879</ele>
        <time>2022-08-07T07:38:19.000Z</time>
      </trkpt>
      <trkpt lat="48.59637" lon="-4.26213">
        <ele>53.400001525879</ele>
        <time>2022-08-07T07:38:20.000Z</time>
      </trkpt>
      <trkpt lat="48.59636" lon="-4.2621">
        <ele>53.799999237061</ele>
        <time>2022-08-07T07:38:21.000Z</time>
      </trkpt>
      <trkpt lat="48.59634" lon="-4.26205">
        <ele>53.799999237061</ele>
        <time>2022-08-07T07:38:22.000Z</time>
      </trkpt>
      <trkpt lat="48.59633" lon="-4.262">
        <ele>54</ele>
        <time>2022-08-07T07:38:23.000Z</time>
      </trkpt>
      <trkpt lat="48.59631" lon="-4.26195">
        <ele>54.200000762939</ele>
        <time>2022-08-07T07:38:24.000Z</time>
      </trkpt>
      <trkpt lat="48.5963" lon="-4.26191">
        <ele>54.400001525879</ele>
        <time>2022-08-07T07:38:25.000Z</time>
      </trkpt>
      <trkpt lat="48.59628" lon="-4.26186">
        <ele>54.400001525879</ele>
        <time>2022-08-07T07:38:26.000Z</time>
      </trkpt>
      <trkpt lat="48.59627" lon="-4.26181">
        <ele>54.599998474121</ele>
        <time>2022-08-07T07:38:27.000Z</time>
      </trkpt>
      <trkpt lat="48.59626" lon="-4.26176">
        <ele>54.599998474121</ele>
        <time>2022-08-07T07:38:28.000Z</time>
      </trkpt>
      <trkpt lat="48.59624" lon="-4.26171">
        <ele>54.799999237061</ele>
        <time>2022-08-07T07:38:29.000Z</time>
      </trkpt>
      <trkpt lat="48.59623" lon="-4.26167">
        <ele>55</ele>
        <time>2022-08-07T07:38:30.000Z</time>
      </trkpt>
      <trkpt lat="48.59622" lon="-4.26162">
        <ele>55.200000762939</ele>
        <time>2022-08-07T07:38:31.000Z</time>
      </trkpt>
      <trkpt lat="48.5962" lon="-4.26157">
        <ele>55.200000762939</ele>
        <time>2022-08-07T07:38:32.000Z</time>
      </trkpt>
      <trkpt lat="48.5962" lon="-4.26153">
        <ele>55.599998474121</ele>
        <time>2022-08-07T07:38:33.000Z</time>
      </trkpt>
      <trkpt lat="48.59619" lon="-4.26148">
        <ele>55.799999237061</ele>
        <time>2022-08-07T07:38:34.000Z</time>
      </trkpt>
      <trkpt lat="48.59618" lon="-4.26143">
        <ele>56.200000762939</ele>
        <time>2022-08-07T07:38:35.000Z</time>
      </trkpt>
      <trkpt lat="48.59618" lon="-4.26137">
        <ele>56.599998474121</ele>
        <time>2022-08-07T07:38:36.000Z</time>
      </trkpt>
      <trkpt lat="48.59617" lon="-4.26133">
        <ele>57.400001525879</ele>
        <time>2022-08-07T07:38:37.000Z</time>
      </trkpt>
      <trkpt lat="48.59616" lon="-4.26128">
        <ele>57.599998474121</ele>
        <time>2022-08-07T07:38:38.000Z</time>
      </trkpt>
      <trkpt lat="48.59615" lon="-4.26121">
        <ele>57.799999237061</ele>
        <time>2022-08-07T07:38:39.000Z</time>
      </trkpt>
      <trkpt lat="48.59614" lon="-4.26116">
        <ele>58</ele>
        <time>2022-08-07T07:38:40.000Z</time>
      </trkpt>
      <trkpt lat="48.59614" lon="-4.26113">
        <ele>58</ele>
        <time>2022-08-07T07:38:41.000Z</time>
      </trkpt>
      <trkpt lat="48.59613" lon="-4.26108">
        <ele>58</ele>
        <time>2022-08-07T07:38:42.000Z</time>
      </trkpt>
      <trkpt lat="48.59612" lon="-4.26103">
        <ele>58.200000762939</ele>
        <time>2022-08-07T07:38:43.000Z</time>
      </trkpt>
      <trkpt lat="48.5961" lon="-4.26098">
        <ele>58.400001525879</ele>
        <time>2022-08-07T07:38:44.000Z</time>
      </trkpt>
      <trkpt lat="48.59609" lon="-4.26093">
        <ele>58.400001525879</ele>
        <time>2022-08-07T07:38:45.000Z</time>
      </trkpt>
      <trkpt lat="48.59608" lon="-4.26088">
        <ele>58.400001525879</ele>
        <time>2022-08-07T07:38:46.000Z</time>
      </trkpt>
      <trkpt lat="48.59607" lon="-4.26084">
        <ele>58.400001525879</ele>
        <time>2022-08-07T07:38:47.000Z</time>
      </trkpt>
      <trkpt lat="48.59605" lon="-4.26078">
        <ele>58.400001525879</ele>
        <time>2022-08-07T07:38:48.000Z</time>
      </trkpt>
      <trkpt lat="48.59604" lon="-4.26073">
        <ele>58.400001525879</ele>
        <time>2022-08-07T07:38:49.000Z</time>
      </trkpt>
      <trkpt lat="48.59603" lon="-4.26067">
        <ele>58.599998474121</ele>
        <time>2022-08-07T07:38:50.000Z</time>
      </trkpt>
      <trkpt lat="48.59602" lon="-4.26063">
        <ele>58.599998474121</ele>
        <time>2022-08-07T07:38:51.000Z</time>
      </trkpt>
      <trkpt lat="48.59601" lon="-4.26058">
        <ele>58.799999237061</ele>
        <time>2022-08-07T07:38:52.000Z</time>
      </trkpt>
      <trkpt lat="48.59601" lon="-4.26054">
        <ele>58.799999237061</ele>
        <time>2022-08-07T07:38:53.000Z</time>
      </trkpt>
      <trkpt lat="48.59601" lon="-4.2605">
        <ele>59</ele>
        <time>2022-08-07T07:38:54.000Z</time>
      </trkpt>
      <trkpt lat="48.59601" lon="-4.26045">
        <ele>59</ele>
        <time>2022-08-07T07:38:55.000Z</time>
      </trkpt>
      <trkpt lat="48.59601" lon="-4.26035">
        <ele>59</ele>
        <time>2022-08-07T07:38:56.000Z</time>
      </trkpt>
      <trkpt lat="48.59599" lon="-4.26031">
        <ele>59.200000762939</ele>
        <time>2022-08-07T07:38:58.000Z</time>
      </trkpt>
      <trkpt lat="48.59597" lon="-4.26028">
        <ele>59.400001525879</ele>
        <time>2022-08-07T07:38:59.000Z</time>
      </trkpt>
      <trkpt lat="48.59594" lon="-4.26026">
        <ele>59.400001525879</ele>
        <time>2022-08-07T07:39:00.000Z</time>
      </trkpt>
      <trkpt lat="48.59592" lon="-4.26024">
        <ele>59.400001525879</ele>
        <time>2022-08-07T07:39:01.000Z</time>
      </trkpt>
      <trkpt lat="48.59589" lon="-4.26022">
        <ele>59.400001525879</ele>
        <time>2022-08-07T07:39:02.000Z</time>
      </trkpt>
      <trkpt lat="48.59587" lon="-4.26019">
        <ele>59.400001525879</ele>
        <time>2022-08-07T07:39:03.000Z</time>
      </trkpt>
      <trkpt lat="48.59584" lon="-4.26016">
        <ele>59.200000762939</ele>
        <time>2022-08-07T07:39:04.000Z</time>
      </trkpt>
      <trkpt lat="48.59582" lon="-4.26013">
        <ele>59.200000762939</ele>
        <time>2022-08-07T07:39:05.000Z</time>
      </trkpt>
      <trkpt lat="48.5958" lon="-4.2601">
        <ele>59.200000762939</ele>
        <time>2022-08-07T07:39:06.000Z</time>
      </trkpt>
      <trkpt lat="48.59578" lon="-4.26006">
        <ele>59.200000762939</ele>
        <time>2022-08-07T07:39:07.000Z</time>
      </trkpt>
      <trkpt lat="48.59575" lon="-4.26003">
        <ele>59.200000762939</ele>
        <time>2022-08-07T07:39:08.000Z</time>
      </trkpt>
      <trkpt lat="48.59572" lon="-4.25998">
        <ele>59.200000762939</ele>
        <time>2022-08-07T07:39:09.000Z</time>
      </trkpt>
      <trkpt lat="48.5957" lon="-4.25994">
        <ele>59</ele>
        <time>2022-08-07T07:39:10.000Z</time>
      </trkpt>
      <trkpt lat="48.59568" lon="-4.2599">
        <ele>59</ele>
        <time>2022-08-07T07:39:11.000Z</time>
      </trkpt>
      <trkpt lat="48.59565" lon="-4.25985">
        <ele>59</ele>
        <time>2022-08-07T07:39:12.000Z</time>
      </trkpt>
      <trkpt lat="48.59562" lon="-4.2598">
        <ele>59</ele>
        <time>2022-08-07T07:39:13.000Z</time>
      </trkpt>
      <trkpt lat="48.5956" lon="-4.25975">
        <ele>58.799999237061</ele>
        <time>2022-08-07T07:39:14.000Z</time>
      </trkpt>
      <trkpt lat="48.59557" lon="-4.2597">
        <ele>58.599998474121</ele>
        <time>2022-08-07T07:39:15.000Z</time>
      </trkpt>
      <trkpt lat="48.59554" lon="-4.25965">
        <ele>58.599998474121</ele>
        <time>2022-08-07T07:39:16.000Z</time>
      </trkpt>
      <trkpt lat="48.5955" lon="-4.2596">
        <ele>58.400001525879</ele>
        <time>2022-08-07T07:39:17.000Z</time>
      </trkpt>
      <trkpt lat="48.59547" lon="-4.25955">
        <ele>58.400001525879</ele>
        <time>2022-08-07T07:39:18.000Z</time>
      </trkpt>
      <trkpt lat="48.59544" lon="-4.2595">
        <ele>58.200000762939</ele>
        <time>2022-08-07T07:39:19.000Z</time>
      </trkpt>
      <trkpt lat="48.59541" lon="-4.25945">
        <ele>58.200000762939</ele>
        <time>2022-08-07T07:39:20.000Z</time>
      </trkpt>
      <trkpt lat="48.59538" lon="-4.2594">
        <ele>58</ele>
        <time>2022-08-07T07:39:21.000Z</time>
      </trkpt>
      <trkpt lat="48.59536" lon="-4.25935">
        <ele>57.799999237061</ele>
        <time>2022-08-07T07:39:22.000Z</time>
      </trkpt>
      <trkpt lat="48.59533" lon="-4.2593">
        <ele>57.799999237061</ele>
        <time>2022-08-07T07:39:23.000Z</time>
      </trkpt>
      <trkpt lat="48.5953" lon="-4.25924">
        <ele>57.799999237061</ele>
        <time>2022-08-07T07:39:24.000Z</time>
      </trkpt>
      <trkpt lat="48.59527" lon="-4.25919">
        <ele>57.799999237061</ele>
        <time>2022-08-07T07:39:25.000Z</time>
      </trkpt>
      <trkpt lat="48.59525" lon="-4.25913">
        <ele>57.799999237061</ele>
        <time>2022-08-07T07:39:26.000Z</time>
      </trkpt>
      <trkpt lat="48.59522" lon="-4.25908">
        <ele>57.799999237061</ele>
        <time>2022-08-07T07:39:27.000Z</time>
      </trkpt>
      <trkpt lat="48.59519" lon="-4.25902">
        <ele>57.599998474121</ele>
        <time>2022-08-07T07:39:28.000Z</time>
      </trkpt>
      <trkpt lat="48.59516" lon="-4.25896">
        <ele>57.599998474121</ele>
        <time>2022-08-07T07:39:29.000Z</time>
      </trkpt>
      <trkpt lat="48.59514" lon="-4.2589">
        <ele>57.599998474121</ele>
        <time>2022-08-07T07:39:30.000Z</time>
      </trkpt>
      <trkpt lat="48.59512" lon="-4.25883">
        <ele>57.599998474121</ele>
        <time>2022-08-07T07:39:31.000Z</time>
      </trkpt>
      <trkpt lat="48.59509" lon="-4.25877">
        <ele>57.599998474121</ele>
        <time>2022-08-07T07:39:32.000Z</time>
      </trkpt>
      <trkpt lat="48.59505" lon="-4.25865">
        <ele>57.599998474121</ele>
        <time>2022-08-07T07:39:33.000Z</time>
      </trkpt>
      <trkpt lat="48.595" lon="-4.25853">
        <ele>57.599998474121</ele>
        <time>2022-08-07T07:39:35.000Z</time>
      </trkpt>
      <trkpt lat="48.59497" lon="-4.25846">
        <ele>57.599998474121</ele>
        <time>2022-08-07T07:39:37.000Z</time>
      </trkpt>
      <trkpt lat="48.59496" lon="-4.25842">
        <ele>57.599998474121</ele>
        <time>2022-08-07T07:39:38.000Z</time>
      </trkpt>
      <trkpt lat="48.59494" lon="-4.25836">
        <ele>57.799999237061</ele>
        <time>2022-08-07T07:39:39.000Z</time>
      </trkpt>
      <trkpt lat="48.59491" lon="-4.2583">
        <ele>57.799999237061</ele>
        <time>2022-08-07T07:39:40.000Z</time>
      </trkpt>
      <trkpt lat="48.59489" lon="-4.25825">
        <ele>58</ele>
        <time>2022-08-07T07:39:41.000Z</time>
      </trkpt>
      <trkpt lat="48.59487" lon="-4.25819">
        <ele>58.200000762939</ele>
        <time>2022-08-07T07:39:42.000Z</time>
      </trkpt>
      <trkpt lat="48.59485" lon="-4.25813">
        <ele>58.200000762939</ele>
        <time>2022-08-07T07:39:43.000Z</time>
      </trkpt>
      <trkpt lat="48.59483" lon="-4.25808">
        <ele>58.400001525879</ele>
        <time>2022-08-07T07:39:44.000Z</time>
      </trkpt>
      <trkpt lat="48.59481" lon="-4.25802">
        <ele>58.400001525879</ele>
        <time>2022-08-07T07:39:45.000Z</time>
      </trkpt>
      <trkpt lat="48.5948" lon="-4.25797">
        <ele>58.599998474121</ele>
        <time>2022-08-07T07:39:46.000Z</time>
      </trkpt>
      <trkpt lat="48.59478" lon="-4.25792">
        <ele>58.599998474121</ele>
        <time>2022-08-07T07:39:47.000Z</time>
      </trkpt>
      <trkpt lat="48.59476" lon="-4.25787">
        <ele>58.599998474121</ele>
        <time>2022-08-07T07:39:48.000Z</time>
      </trkpt>
      <trkpt lat="48.59474" lon="-4.25781">
        <ele>58.599998474121</ele>
        <time>2022-08-07T07:39:49.000Z</time>
      </trkpt>
      <trkpt lat="48.59472" lon="-4.25776">
        <ele>58.799999237061</ele>
        <time>2022-08-07T07:39:50.000Z</time>
      </trkpt>
      <trkpt lat="48.5947" lon="-4.25771">
        <ele>58.799999237061</ele>
        <time>2022-08-07T07:39:51.000Z</time>
      </trkpt>
      <trkpt lat="48.59468" lon="-4.25766">
        <ele>58.799999237061</ele>
        <time>2022-08-07T07:39:52.000Z</time>
      </trkpt>
      <trkpt lat="48.59466" lon="-4.25761">
        <ele>59</ele>
        <time>2022-08-07T07:39:53.000Z</time>
      </trkpt>
      <trkpt lat="48.59463" lon="-4.25755">
        <ele>59</ele>
        <time>2022-08-07T07:39:54.000Z</time>
      </trkpt>
      <trkpt lat="48.59459" lon="-4.25744">
        <ele>59</ele>
        <time>2022-08-07T07:39:55.000Z</time>
      </trkpt>
      <trkpt lat="48.59457" lon="-4.25739">
        <ele>59.200000762939</ele>
        <time>2022-08-07T07:39:56.000Z</time>
      </trkpt>
      <trkpt lat="48.59452" lon="-4.25729">
        <ele>59.200000762939</ele>
        <time>2022-08-07T07:39:58.000Z</time>
      </trkpt>
      <trkpt lat="48.5945" lon="-4.25724">
        <ele>59.200000762939</ele>
        <time>2022-08-07T07:39:59.000Z</time>
      </trkpt>
      <trkpt lat="48.59448" lon="-4.25718">
        <ele>59.400001525879</ele>
        <time>2022-08-07T07:40:01.000Z</time>
      </trkpt>
      <trkpt lat="48.59445" lon="-4.25713">
        <ele>59.599998474121</ele>
        <time>2022-08-07T07:40:02.000Z</time>
      </trkpt>
      <trkpt lat="48.5944" lon="-4.25702">
        <ele>59.599998474121</ele>
        <time>2022-08-07T07:40:03.000Z</time>
      </trkpt>
      <trkpt lat="48.59438" lon="-4.25697">
        <ele>59.799999237061</ele>
        <time>2022-08-07T07:40:04.000Z</time>
      </trkpt>
      <trkpt lat="48.59433" lon="-4.25687">
        <ele>60</ele>
        <time>2022-08-07T07:40:06.000Z</time>
      </trkpt>
      <trkpt lat="48.59428" lon="-4.25677">
        <ele>60.200000762939</ele>
        <time>2022-08-07T07:40:08.000Z</time>
      </trkpt>
      <trkpt lat="48.59425" lon="-4.2567">
        <ele>60.400001525879</ele>
        <time>2022-08-07T07:40:10.000Z</time>
      </trkpt>
      <trkpt lat="48.59423" lon="-4.25666">
        <ele>60.599998474121</ele>
        <time>2022-08-07T07:40:11.000Z</time>
      </trkpt>
      <trkpt lat="48.59417" lon="-4.25655">
        <ele>60.599998474121</ele>
        <time>2022-08-07T07:40:12.000Z</time>
      </trkpt>
      <trkpt lat="48.59415" lon="-4.2565">
        <ele>60.799999237061</ele>
        <time>2022-08-07T07:40:13.000Z</time>
      </trkpt>
      <trkpt lat="48.59409" lon="-4.25639">
        <ele>61</ele>
        <time>2022-08-07T07:40:15.000Z</time>
      </trkpt>
      <trkpt lat="48.59407" lon="-4.25634">
        <ele>61.200000762939</ele>
        <time>2022-08-07T07:40:16.000Z</time>
      </trkpt>
      <trkpt lat="48.59404" lon="-4.25628">
        <ele>61.200000762939</ele>
        <time>2022-08-07T07:40:17.000Z</time>
      </trkpt>
      <trkpt lat="48.59402" lon="-4.25623">
        <ele>61.400001525879</ele>
        <time>2022-08-07T07:40:18.000Z</time>
      </trkpt>
      <trkpt lat="48.59399" lon="-4.25618">
        <ele>61.400001525879</ele>
        <time>2022-08-07T07:40:19.000Z</time>
      </trkpt>
      <trkpt lat="48.59397" lon="-4.25613">
        <ele>61.599998474121</ele>
        <time>2022-08-07T07:40:20.000Z</time>
      </trkpt>
      <trkpt lat="48.59392" lon="-4.25603">
        <ele>61.799999237061</ele>
        <time>2022-08-07T07:40:22.000Z</time>
      </trkpt>
      <trkpt lat="48.59389" lon="-4.25596">
        <ele>62</ele>
        <time>2022-08-07T07:40:24.000Z</time>
      </trkpt>
      <trkpt lat="48.59384" lon="-4.25587">
        <ele>62.200000762939</ele>
        <time>2022-08-07T07:40:25.000Z</time>
      </trkpt>
      <trkpt lat="48.59382" lon="-4.25582">
        <ele>62.400001525879</ele>
        <time>2022-08-07T07:40:26.000Z</time>
      </trkpt>
      <trkpt lat="48.59379" lon="-4.25577">
        <ele>62.599998474121</ele>
        <time>2022-08-07T07:40:27.000Z</time>
      </trkpt>
      <trkpt lat="48.59377" lon="-4.25572">
        <ele>62.799999237061</ele>
        <time>2022-08-07T07:40:28.000Z</time>
      </trkpt>
      <trkpt lat="48.59375" lon="-4.25567">
        <ele>63</ele>
        <time>2022-08-07T07:40:29.000Z</time>
      </trkpt>
      <trkpt lat="48.59372" lon="-4.25563">
        <ele>63</ele>
        <time>2022-08-07T07:40:30.000Z</time>
      </trkpt>
      <trkpt lat="48.5937" lon="-4.25558">
        <ele>63.200000762939</ele>
        <time>2022-08-07T07:40:31.000Z</time>
      </trkpt>
      <trkpt lat="48.59367" lon="-4.25553">
        <ele>63.400001525879</ele>
        <time>2022-08-07T07:40:32.000Z</time>
      </trkpt>
      <trkpt lat="48.59365" lon="-4.25548">
        <ele>63.400001525879</ele>
        <time>2022-08-07T07:40:33.000Z</time>
      </trkpt>
      <trkpt lat="48.59362" lon="-4.25544">
        <ele>63.599998474121</ele>
        <time>2022-08-07T07:40:34.000Z</time>
      </trkpt>
      <trkpt lat="48.5936" lon="-4.25539">
        <ele>64</ele>
        <time>2022-08-07T07:40:35.000Z</time>
      </trkpt>
      <trkpt lat="48.59354" lon="-4.25531">
        <ele>64.400001525879</ele>
        <time>2022-08-07T07:40:37.000Z</time>
      </trkpt>
      <trkpt lat="48.5935" lon="-4.25526">
        <ele>64.599998474121</ele>
        <time>2022-08-07T07:40:38.000Z</time>
      </trkpt>
      <trkpt lat="48.59348" lon="-4.25523">
        <ele>64.599998474121</ele>
        <time>2022-08-07T07:40:39.000Z</time>
      </trkpt>
      <trkpt lat="48.5934" lon="-4.25517">
        <ele>65</ele>
        <time>2022-08-07T07:40:41.000Z</time>
      </trkpt>
      <trkpt lat="48.59337" lon="-4.25514">
        <ele>65.199996948242</ele>
        <time>2022-08-07T07:40:42.000Z</time>
      </trkpt>
      <trkpt lat="48.59333" lon="-4.25511">
        <ele>65.199996948242</ele>
        <time>2022-08-07T07:40:43.000Z</time>
      </trkpt>
      <trkpt lat="48.59329" lon="-4.25509">
        <ele>65.400001525879</ele>
        <time>2022-08-07T07:40:44.000Z</time>
      </trkpt>
      <trkpt lat="48.59325" lon="-4.25507">
        <ele>65.400001525879</ele>
        <time>2022-08-07T07:40:45.000Z</time>
      </trkpt>
      <trkpt lat="48.59321" lon="-4.25505">
        <ele>65.599998474121</ele>
        <time>2022-08-07T07:40:46.000Z</time>
      </trkpt>
      <trkpt lat="48.59317" lon="-4.25503">
        <ele>65.599998474121</ele>
        <time>2022-08-07T07:40:47.000Z</time>
      </trkpt>
      <trkpt lat="48.59313" lon="-4.25502">
        <ele>65.800003051758</ele>
        <time>2022-08-07T07:40:48.000Z</time>
      </trkpt>
      <trkpt lat="48.59309" lon="-4.255">
        <ele>65.800003051758</ele>
        <time>2022-08-07T07:40:49.000Z</time>
      </trkpt>
      <trkpt lat="48.59301" lon="-4.25497">
        <ele>65.800003051758</ele>
        <time>2022-08-07T07:40:51.000Z</time>
      </trkpt>
      <trkpt lat="48.59296" lon="-4.25496">
        <ele>65.800003051758</ele>
        <time>2022-08-07T07:40:52.000Z</time>
      </trkpt>
      <trkpt lat="48.59292" lon="-4.25494">
        <ele>65.800003051758</ele>
        <time>2022-08-07T07:40:53.000Z</time>
      </trkpt>
      <trkpt lat="48.59288" lon="-4.25493">
        <ele>65.800003051758</ele>
        <time>2022-08-07T07:40:54.000Z</time>
      </trkpt>
      <trkpt lat="48.59284" lon="-4.25491">
        <ele>65.800003051758</ele>
        <time>2022-08-07T07:40:55.000Z</time>
      </trkpt>
      <trkpt lat="48.59279" lon="-4.2549">
        <ele>65.800003051758</ele>
        <time>2022-08-07T07:40:56.000Z</time>
      </trkpt>
      <trkpt lat="48.59275" lon="-4.25488">
        <ele>65.800003051758</ele>
        <time>2022-08-07T07:40:57.000Z</time>
      </trkpt>
      <trkpt lat="48.59271" lon="-4.25487">
        <ele>66</ele>
        <time>2022-08-07T07:40:58.000Z</time>
      </trkpt>
      <trkpt lat="48.59266" lon="-4.25485">
        <ele>66</ele>
        <time>2022-08-07T07:40:59.000Z</time>
      </trkpt>
      <trkpt lat="48.59262" lon="-4.25484">
        <ele>66</ele>
        <time>2022-08-07T07:41:00.000Z</time>
      </trkpt>
      <trkpt lat="48.59254" lon="-4.25481">
        <ele>66.199996948242</ele>
        <time>2022-08-07T07:41:02.000Z</time>
      </trkpt>
      <trkpt lat="48.59249" lon="-4.25479">
        <ele>66.199996948242</ele>
        <time>2022-08-07T07:41:03.000Z</time>
      </trkpt>
      <trkpt lat="48.59241" lon="-4.25476">
        <ele>66.199996948242</ele>
        <time>2022-08-07T07:41:05.000Z</time>
      </trkpt>
      <trkpt lat="48.59236" lon="-4.25474">
        <ele>66.199996948242</ele>
        <time>2022-08-07T07:41:06.000Z</time>
      </trkpt>
      <trkpt lat="48.59232" lon="-4.25473">
        <ele>66.199996948242</ele>
        <time>2022-08-07T07:41:07.000Z</time>
      </trkpt>
      <trkpt lat="48.59228" lon="-4.25471">
        <ele>66.400001525879</ele>
        <time>2022-08-07T07:41:08.000Z</time>
      </trkpt>
      <trkpt lat="48.59223" lon="-4.2547">
        <ele>66.400001525879</ele>
        <time>2022-08-07T07:41:09.000Z</time>
      </trkpt>
      <trkpt lat="48.59219" lon="-4.25468">
        <ele>66.400001525879</ele>
        <time>2022-08-07T07:41:10.000Z</time>
      </trkpt>
      <trkpt lat="48.59215" lon="-4.25466">
        <ele>66.599998474121</ele>
        <time>2022-08-07T07:41:11.000Z</time>
      </trkpt>
      <trkpt lat="48.59211" lon="-4.25464">
        <ele>66.599998474121</ele>
        <time>2022-08-07T07:41:12.000Z</time>
      </trkpt>
      <trkpt lat="48.59206" lon="-4.25461">
        <ele>66.599998474121</ele>
        <time>2022-08-07T07:41:13.000Z</time>
      </trkpt>
      <trkpt lat="48.59203" lon="-4.25458">
        <ele>66.599998474121</ele>
        <time>2022-08-07T07:41:14.000Z</time>
      </trkpt>
      <trkpt lat="48.59199" lon="-4.25453">
        <ele>66.800003051758</ele>
        <time>2022-08-07T07:41:15.000Z</time>
      </trkpt>
      <trkpt lat="48.59197" lon="-4.25447">
        <ele>67</ele>
        <time>2022-08-07T07:41:16.000Z</time>
      </trkpt>
      <trkpt lat="48.59195" lon="-4.25441">
        <ele>67.199996948242</ele>
        <time>2022-08-07T07:41:17.000Z</time>
      </trkpt>
      <trkpt lat="48.59194" lon="-4.25435">
        <ele>67.400001525879</ele>
        <time>2022-08-07T07:41:18.000Z</time>
      </trkpt>
      <trkpt lat="48.59194" lon="-4.25428">
        <ele>67.400001525879</ele>
        <time>2022-08-07T07:41:19.000Z</time>
      </trkpt>
      <trkpt lat="48.59194" lon="-4.25422">
        <ele>67.599998474121</ele>
        <time>2022-08-07T07:41:20.000Z</time>
      </trkpt>
      <trkpt lat="48.59193" lon="-4.25415">
        <ele>67.599998474121</ele>
        <time>2022-08-07T07:41:21.000Z</time>
      </trkpt>
      <trkpt lat="48.59193" lon="-4.25409">
        <ele>67.800003051758</ele>
        <time>2022-08-07T07:41:22.000Z</time>
      </trkpt>
      <trkpt lat="48.59193" lon="-4.25397">
        <ele>67.800003051758</ele>
        <time>2022-08-07T07:41:24.000Z</time>
      </trkpt>
      <trkpt lat="48.59192" lon="-4.2539">
        <ele>67.800003051758</ele>
        <time>2022-08-07T07:41:25.000Z</time>
      </trkpt>
      <trkpt lat="48.59191" lon="-4.25378">
        <ele>68.199996948242</ele>
        <time>2022-08-07T07:41:27.000Z</time>
      </trkpt>
      <trkpt lat="48.5919" lon="-4.25372">
        <ele>68.400001525879</ele>
        <time>2022-08-07T07:41:28.000Z</time>
      </trkpt>
      <trkpt lat="48.59188" lon="-4.25361">
        <ele>68.800003051758</ele>
        <time>2022-08-07T07:41:30.000Z</time>
      </trkpt>
      <trkpt lat="48.59187" lon="-4.25355">
        <ele>69</ele>
        <time>2022-08-07T07:41:31.000Z</time>
      </trkpt>
      <trkpt lat="48.59186" lon="-4.25349">
        <ele>69.199996948242</ele>
        <time>2022-08-07T07:41:32.000Z</time>
      </trkpt>
      <trkpt lat="48.59185" lon="-4.25344">
        <ele>69.800003051758</ele>
        <time>2022-08-07T07:41:33.000Z</time>
      </trkpt>
      <trkpt lat="48.59183" lon="-4.25338">
        <ele>69.800003051758</ele>
        <time>2022-08-07T07:41:34.000Z</time>
      </trkpt>
      <trkpt lat="48.59181" lon="-4.25333">
        <ele>70.400001525879</ele>
        <time>2022-08-07T07:41:35.000Z</time>
      </trkpt>
      <trkpt lat="48.59179" lon="-4.25327">
        <ele>70.400001525879</ele>
        <time>2022-08-07T07:41:36.000Z</time>
      </trkpt>
      <trkpt lat="48.59176" lon="-4.25316">
        <ele>70.800003051758</ele>
        <time>2022-08-07T07:41:38.000Z</time>
      </trkpt>
      <trkpt lat="48.59174" lon="-4.2531">
        <ele>70.800003051758</ele>
        <time>2022-08-07T07:41:39.000Z</time>
      </trkpt>
      <trkpt lat="48.59171" lon="-4.25297">
        <ele>70.800003051758</ele>
        <time>2022-08-07T07:41:41.000Z</time>
      </trkpt>
      <trkpt lat="48.59169" lon="-4.25291">
        <ele>71</ele>
        <time>2022-08-07T07:41:42.000Z</time>
      </trkpt>
      <trkpt lat="48.59167" lon="-4.25278">
        <ele>70.800003051758</ele>
        <time>2022-08-07T07:41:44.000Z</time>
      </trkpt>
      <trkpt lat="48.59166" lon="-4.25271">
        <ele>70.800003051758</ele>
        <time>2022-08-07T07:41:45.000Z</time>
      </trkpt>
      <trkpt lat="48.59164" lon="-4.25257">
        <ele>70.599998474121</ele>
        <time>2022-08-07T07:41:47.000Z</time>
      </trkpt>
      <trkpt lat="48.59163" lon="-4.25249">
        <ele>70.599998474121</ele>
        <time>2022-08-07T07:41:48.000Z</time>
      </trkpt>
      <trkpt lat="48.59162" lon="-4.25242">
        <ele>70.599998474121</ele>
        <time>2022-08-07T07:41:49.000Z</time>
      </trkpt>
      <trkpt lat="48.59162" lon="-4.25235">
        <ele>70.599998474121</ele>
        <time>2022-08-07T07:41:50.000Z</time>
      </trkpt>
      <trkpt lat="48.59161" lon="-4.25227">
        <ele>70.400001525879</ele>
        <time>2022-08-07T07:41:51.000Z</time>
      </trkpt>
      <trkpt lat="48.5916" lon="-4.2522">
        <ele>70.400001525879</ele>
        <time>2022-08-07T07:41:52.000Z</time>
      </trkpt>
      <trkpt lat="48.59159" lon="-4.25213">
        <ele>70.400001525879</ele>
        <time>2022-08-07T07:41:53.000Z</time>
      </trkpt>
      <trkpt lat="48.59159" lon="-4.25206">
        <ele>70.599998474121</ele>
        <time>2022-08-07T07:41:54.000Z</time>
      </trkpt>
      <trkpt lat="48.59158" lon="-4.252">
        <ele>70.599998474121</ele>
        <time>2022-08-07T07:41:55.000Z</time>
      </trkpt>
      <trkpt lat="48.59156" lon="-4.25186">
        <ele>70.599998474121</ele>
        <time>2022-08-07T07:41:57.000Z</time>
      </trkpt>
      <trkpt lat="48.59155" lon="-4.25177">
        <ele>70.599998474121</ele>
        <time>2022-08-07T07:41:58.000Z</time>
      </trkpt>
      <trkpt lat="48.59154" lon="-4.25172">
        <ele>70.599998474121</ele>
        <time>2022-08-07T07:41:59.000Z</time>
      </trkpt>
      <trkpt lat="48.59152" lon="-4.25165">
        <ele>70.599998474121</ele>
        <time>2022-08-07T07:42:00.000Z</time>
      </trkpt>
      <trkpt lat="48.59151" lon="-4.25159">
        <ele>70.599998474121</ele>
        <time>2022-08-07T07:42:01.000Z</time>
      </trkpt>
      <trkpt lat="48.5915" lon="-4.25152">
        <ele>70.800003051758</ele>
        <time>2022-08-07T07:42:02.000Z</time>
      </trkpt>
      <trkpt lat="48.59149" lon="-4.25144">
        <ele>70.800003051758</ele>
        <time>2022-08-07T07:42:03.000Z</time>
      </trkpt>
      <trkpt lat="48.59148" lon="-4.25137">
        <ele>70.800003051758</ele>
        <time>2022-08-07T07:42:04.000Z</time>
      </trkpt>
      <trkpt lat="48.59146" lon="-4.2513">
        <ele>70.800003051758</ele>
        <time>2022-08-07T07:42:05.000Z</time>
      </trkpt>
      <trkpt lat="48.59145" lon="-4.25123">
        <ele>70.800003051758</ele>
        <time>2022-08-07T07:42:06.000Z</time>
      </trkpt>
      <trkpt lat="48.59143" lon="-4.25109">
        <ele>70.800003051758</ele>
        <time>2022-08-07T07:42:08.000Z</time>
      </trkpt>
      <trkpt lat="48.59142" lon="-4.25102">
        <ele>71</ele>
        <time>2022-08-07T07:42:09.000Z</time>
      </trkpt>
      <trkpt lat="48.5914" lon="-4.25088">
        <ele>71</ele>
        <time>2022-08-07T07:42:11.000Z</time>
      </trkpt>
      <trkpt lat="48.5914" lon="-4.25079">
        <ele>71.199996948242</ele>
        <time>2022-08-07T07:42:12.000Z</time>
      </trkpt>
      <trkpt lat="48.5914" lon="-4.25074">
        <ele>71.400001525879</ele>
        <time>2022-08-07T07:42:13.000Z</time>
      </trkpt>
      <trkpt lat="48.59141" lon="-4.25067">
        <ele>71.800003051758</ele>
        <time>2022-08-07T07:42:15.000Z</time>
      </trkpt>
      <trkpt lat="48.59142" lon="-4.25054">
        <ele>72</ele>
        <time>2022-08-07T07:42:16.000Z</time>
      </trkpt>
      <trkpt lat="48.59143" lon="-4.25046">
        <ele>72.199996948242</ele>
        <time>2022-08-07T07:42:17.000Z</time>
      </trkpt>
      <trkpt lat="48.59144" lon="-4.25041">
        <ele>72.400001525879</ele>
        <time>2022-08-07T07:42:18.000Z</time>
      </trkpt>
      <trkpt lat="48.59146" lon="-4.25035">
        <ele>72.599998474121</ele>
        <time>2022-08-07T07:42:19.000Z</time>
      </trkpt>
      <trkpt lat="48.59147" lon="-4.25028">
        <ele>72.800003051758</ele>
        <time>2022-08-07T07:42:20.000Z</time>
      </trkpt>
      <trkpt lat="48.59148" lon="-4.25022">
        <ele>73</ele>
        <time>2022-08-07T07:42:21.000Z</time>
      </trkpt>
      <trkpt lat="48.59149" lon="-4.25016">
        <ele>73.599998474121</ele>
        <time>2022-08-07T07:42:22.000Z</time>
      </trkpt>
      <trkpt lat="48.5915" lon="-4.25009">
        <ele>73.800003051758</ele>
        <time>2022-08-07T07:42:23.000Z</time>
      </trkpt>
      <trkpt lat="48.59151" lon="-4.25003">
        <ele>74</ele>
        <time>2022-08-07T07:42:24.000Z</time>
      </trkpt>
      <trkpt lat="48.59152" lon="-4.24996">
        <ele>74.400001525879</ele>
        <time>2022-08-07T07:42:25.000Z</time>
      </trkpt>
      <trkpt lat="48.59153" lon="-4.2499">
        <ele>74.599998474121</ele>
        <time>2022-08-07T07:42:26.000Z</time>
      </trkpt>
      <trkpt lat="48.59154" lon="-4.24983">
        <ele>75.400001525879</ele>
        <time>2022-08-07T07:42:27.000Z</time>
      </trkpt>
      <trkpt lat="48.59156" lon="-4.24976">
        <ele>75.599998474121</ele>
        <time>2022-08-07T07:42:28.000Z</time>
      </trkpt>
      <trkpt lat="48.59158" lon="-4.24964">
        <ele>76</ele>
        <time>2022-08-07T07:42:30.000Z</time>
      </trkpt>
      <trkpt lat="48.59159" lon="-4.24958">
        <ele>76.400001525879</ele>
        <time>2022-08-07T07:42:31.000Z</time>
      </trkpt>
      <trkpt lat="48.59161" lon="-4.24946">
        <ele>77.400001525879</ele>
        <time>2022-08-07T07:42:33.000Z</time>
      </trkpt>
      <trkpt lat="48.59162" lon="-4.2494">
        <ele>78</ele>
        <time>2022-08-07T07:42:34.000Z</time>
      </trkpt>
      <trkpt lat="48.59162" lon="-4.24934">
        <ele>78.199996948242</ele>
        <time>2022-08-07T07:42:35.000Z</time>
      </trkpt>
      <trkpt lat="48.59163" lon="-4.24928">
        <ele>78.400001525879</ele>
        <time>2022-08-07T07:42:36.000Z</time>
      </trkpt>
      <trkpt lat="48.59163" lon="-4.24921">
        <ele>78.800003051758</ele>
        <time>2022-08-07T07:42:37.000Z</time>
      </trkpt>
      <trkpt lat="48.59162" lon="-4.24915">
        <ele>79</ele>
        <time>2022-08-07T07:42:38.000Z</time>
      </trkpt>
      <trkpt lat="48.59159" lon="-4.24903">
        <ele>79.400001525879</ele>
        <time>2022-08-07T07:42:40.000Z</time>
      </trkpt>
      <trkpt lat="48.59157" lon="-4.24896">
        <ele>79.400001525879</ele>
        <time>2022-08-07T07:42:41.000Z</time>
      </trkpt>
      <trkpt lat="48.59154" lon="-4.24892">
        <ele>79.599998474121</ele>
        <time>2022-08-07T07:42:42.000Z</time>
      </trkpt>
      <trkpt lat="48.59151" lon="-4.24888">
        <ele>79.800003051758</ele>
        <time>2022-08-07T07:42:43.000Z</time>
      </trkpt>
      <trkpt lat="48.59144" lon="-4.24879">
        <ele>80</ele>
        <time>2022-08-07T07:42:45.000Z</time>
      </trkpt>
      <trkpt lat="48.5914" lon="-4.24875">
        <ele>80</ele>
        <time>2022-08-07T07:42:46.000Z</time>
      </trkpt>
      <trkpt lat="48.59137" lon="-4.2487">
        <ele>80.199996948242</ele>
        <time>2022-08-07T07:42:47.000Z</time>
      </trkpt>
      <trkpt lat="48.59134" lon="-4.24864">
        <ele>80.199996948242</ele>
        <time>2022-08-07T07:42:48.000Z</time>
      </trkpt>
      <trkpt lat="48.59132" lon="-4.24858">
        <ele>80.400001525879</ele>
        <time>2022-08-07T07:42:49.000Z</time>
      </trkpt>
      <trkpt lat="48.5913" lon="-4.24851">
        <ele>80.400001525879</ele>
        <time>2022-08-07T07:42:50.000Z</time>
      </trkpt>
      <trkpt lat="48.59129" lon="-4.24845">
        <ele>80.599998474121</ele>
        <time>2022-08-07T07:42:51.000Z</time>
      </trkpt>
      <trkpt lat="48.59127" lon="-4.24838">
        <ele>80.599998474121</ele>
        <time>2022-08-07T07:42:52.000Z</time>
      </trkpt>
      <trkpt lat="48.59126" lon="-4.24831">
        <ele>80.800003051758</ele>
        <time>2022-08-07T07:42:53.000Z</time>
      </trkpt>
      <trkpt lat="48.59125" lon="-4.24824">
        <ele>80.800003051758</ele>
        <time>2022-08-07T07:42:54.000Z</time>
      </trkpt>
      <trkpt lat="48.59124" lon="-4.2481">
        <ele>81.199996948242</ele>
        <time>2022-08-07T07:42:56.000Z</time>
      </trkpt>
      <trkpt lat="48.59122" lon="-4.24804">
        <ele>81.199996948242</ele>
        <time>2022-08-07T07:42:57.000Z</time>
      </trkpt>
      <trkpt lat="48.59121" lon="-4.24797">
        <ele>81.400001525879</ele>
        <time>2022-08-07T07:42:58.000Z</time>
      </trkpt>
      <trkpt lat="48.5912" lon="-4.2479">
        <ele>81.400001525879</ele>
        <time>2022-08-07T07:42:59.000Z</time>
      </trkpt>
      <trkpt lat="48.59119" lon="-4.24784">
        <ele>81.599998474121</ele>
        <time>2022-08-07T07:43:00.000Z</time>
      </trkpt>
      <trkpt lat="48.59117" lon="-4.24777">
        <ele>81.599998474121</ele>
        <time>2022-08-07T07:43:01.000Z</time>
      </trkpt>
      <trkpt lat="48.59116" lon="-4.2477">
        <ele>81.599998474121</ele>
        <time>2022-08-07T07:43:02.000Z</time>
      </trkpt>
      <trkpt lat="48.59115" lon="-4.24756">
        <ele>81.800003051758</ele>
        <time>2022-08-07T07:43:04.000Z</time>
      </trkpt>
      <trkpt lat="48.59115" lon="-4.24749">
        <ele>82</ele>
        <time>2022-08-07T07:43:05.000Z</time>
      </trkpt>
      <trkpt lat="48.59116" lon="-4.24743">
        <ele>82</ele>
        <time>2022-08-07T07:43:06.000Z</time>
      </trkpt>
      <trkpt lat="48.59116" lon="-4.24736">
        <ele>82.199996948242</ele>
        <time>2022-08-07T07:43:07.000Z</time>
      </trkpt>
      <trkpt lat="48.59118" lon="-4.2473">
        <ele>82.400001525879</ele>
        <time>2022-08-07T07:43:08.000Z</time>
      </trkpt>
      <trkpt lat="48.59119" lon="-4.24724">
        <ele>82.400001525879</ele>
        <time>2022-08-07T07:43:09.000Z</time>
      </trkpt>
      <trkpt lat="48.59121" lon="-4.24717">
        <ele>82.400001525879</ele>
        <time>2022-08-07T07:43:10.000Z</time>
      </trkpt>
      <trkpt lat="48.59124" lon="-4.24711">
        <ele>82.599998474121</ele>
        <time>2022-08-07T07:43:11.000Z</time>
      </trkpt>
      <trkpt lat="48.59129" lon="-4.24698">
        <ele>83</ele>
        <time>2022-08-07T07:43:13.000Z</time>
      </trkpt>
      <trkpt lat="48.59132" lon="-4.24691">
        <ele>83.199996948242</ele>
        <time>2022-08-07T07:43:14.000Z</time>
      </trkpt>
      <trkpt lat="48.59134" lon="-4.24685">
        <ele>83.199996948242</ele>
        <time>2022-08-07T07:43:15.000Z</time>
      </trkpt>
      <trkpt lat="48.59137" lon="-4.2468">
        <ele>83.199996948242</ele>
        <time>2022-08-07T07:43:16.000Z</time>
      </trkpt>
      <trkpt lat="48.59142" lon="-4.24668">
        <ele>83.400001525879</ele>
        <time>2022-08-07T07:43:18.000Z</time>
      </trkpt>
      <trkpt lat="48.59144" lon="-4.24663">
        <ele>83.400001525879</ele>
        <time>2022-08-07T07:43:19.000Z</time>
      </trkpt>
      <trkpt lat="48.59147" lon="-4.24657">
        <ele>83.400001525879</ele>
        <time>2022-08-07T07:43:20.000Z</time>
      </trkpt>
      <trkpt lat="48.5915" lon="-4.24651">
        <ele>83.400001525879</ele>
        <time>2022-08-07T07:43:21.000Z</time>
      </trkpt>
      <trkpt lat="48.59152" lon="-4.24645">
        <ele>83.400001525879</ele>
        <time>2022-08-07T07:43:22.000Z</time>
      </trkpt>
      <trkpt lat="48.59155" lon="-4.24639">
        <ele>83.400001525879</ele>
        <time>2022-08-07T07:43:23.000Z</time>
      </trkpt>
      <trkpt lat="48.59158" lon="-4.24633">
        <ele>83.400001525879</ele>
        <time>2022-08-07T07:43:24.000Z</time>
      </trkpt>
      <trkpt lat="48.59161" lon="-4.24626">
        <ele>83.599998474121</ele>
        <time>2022-08-07T07:43:25.000Z</time>
      </trkpt>
      <trkpt lat="48.59164" lon="-4.2462">
        <ele>83.599998474121</ele>
        <time>2022-08-07T07:43:26.000Z</time>
      </trkpt>
      <trkpt lat="48.59169" lon="-4.24609">
        <ele>83.599998474121</ele>
        <time>2022-08-07T07:43:28.000Z</time>
      </trkpt>
      <trkpt lat="48.59172" lon="-4.24601">
        <ele>83.599998474121</ele>
        <time>2022-08-07T07:43:29.000Z</time>
      </trkpt>
      <trkpt lat="48.59175" lon="-4.24597">
        <ele>83.800003051758</ele>
        <time>2022-08-07T07:43:30.000Z</time>
      </trkpt>
      <trkpt lat="48.59177" lon="-4.2459">
        <ele>83.800003051758</ele>
        <time>2022-08-07T07:43:31.000Z</time>
      </trkpt>
      <trkpt lat="48.59179" lon="-4.24584">
        <ele>83.800003051758</ele>
        <time>2022-08-07T07:43:32.000Z</time>
      </trkpt>
      <trkpt lat="48.59182" lon="-4.24578">
        <ele>83.800003051758</ele>
        <time>2022-08-07T07:43:33.000Z</time>
      </trkpt>
      <trkpt lat="48.59185" lon="-4.24571">
        <ele>83.800003051758</ele>
        <time>2022-08-07T07:43:34.000Z</time>
      </trkpt>
      <trkpt lat="48.59187" lon="-4.24565">
        <ele>83.800003051758</ele>
        <time>2022-08-07T07:43:35.000Z</time>
      </trkpt>
      <trkpt lat="48.5919" lon="-4.24559">
        <ele>83.599998474121</ele>
        <time>2022-08-07T07:43:36.000Z</time>
      </trkpt>
      <trkpt lat="48.59192" lon="-4.24553">
        <ele>83.599998474121</ele>
        <time>2022-08-07T07:43:37.000Z</time>
      </trkpt>
      <trkpt lat="48.59196" lon="-4.24541">
        <ele>83.400001525879</ele>
        <time>2022-08-07T07:43:39.000Z</time>
      </trkpt>
      <trkpt lat="48.59199" lon="-4.24535">
        <ele>83.199996948242</ele>
        <time>2022-08-07T07:43:40.000Z</time>
      </trkpt>
      <trkpt lat="48.59206" lon="-4.24528">
        <ele>83</ele>
        <time>2022-08-07T07:43:42.000Z</time>
      </trkpt>
      <trkpt lat="48.59211" lon="-4.24528">
        <ele>82.800003051758</ele>
        <time>2022-08-07T07:43:43.000Z</time>
      </trkpt>
      <trkpt lat="48.59215" lon="-4.24529">
        <ele>82.800003051758</ele>
        <time>2022-08-07T07:43:44.000Z</time>
      </trkpt>
      <trkpt lat="48.59219" lon="-4.24531">
        <ele>82.800003051758</ele>
        <time>2022-08-07T07:43:45.000Z</time>
      </trkpt>
      <trkpt lat="48.59224" lon="-4.24534">
        <ele>82.800003051758</ele>
        <time>2022-08-07T07:43:46.000Z</time>
      </trkpt>
      <trkpt lat="48.59228" lon="-4.24537">
        <ele>82.599998474121</ele>
        <time>2022-08-07T07:43:47.000Z</time>
      </trkpt>
      <trkpt lat="48.59233" lon="-4.2454">
        <ele>82.599998474121</ele>
        <time>2022-08-07T07:43:48.000Z</time>
      </trkpt>
      <trkpt lat="48.59237" lon="-4.24544">
        <ele>82.400001525879</ele>
        <time>2022-08-07T07:43:49.000Z</time>
      </trkpt>
      <trkpt lat="48.59242" lon="-4.24548">
        <ele>82.400001525879</ele>
        <time>2022-08-07T07:43:50.000Z</time>
      </trkpt>
      <trkpt lat="48.59246" lon="-4.24551">
        <ele>82.400001525879</ele>
        <time>2022-08-07T07:43:51.000Z</time>
      </trkpt>
      <trkpt lat="48.59251" lon="-4.24555">
        <ele>82.400001525879</ele>
        <time>2022-08-07T07:43:52.000Z</time>
      </trkpt>
      <trkpt lat="48.59256" lon="-4.24558">
        <ele>82.199996948242</ele>
        <time>2022-08-07T07:43:53.000Z</time>
      </trkpt>
      <trkpt lat="48.5926" lon="-4.24562">
        <ele>82</ele>
        <time>2022-08-07T07:43:54.000Z</time>
      </trkpt>
      <trkpt lat="48.59265" lon="-4.24565">
        <ele>82</ele>
        <time>2022-08-07T07:43:55.000Z</time>
      </trkpt>
      <trkpt lat="48.5927" lon="-4.24569">
        <ele>81.599998474121</ele>
        <time>2022-08-07T07:43:56.000Z</time>
      </trkpt>
      <trkpt lat="48.59275" lon="-4.24572">
        <ele>81.599998474121</ele>
        <time>2022-08-07T07:43:57.000Z</time>
      </trkpt>
      <trkpt lat="48.5928" lon="-4.24576">
        <ele>81.400001525879</ele>
        <time>2022-08-07T07:43:58.000Z</time>
      </trkpt>
      <trkpt lat="48.59284" lon="-4.24579">
        <ele>81.400001525879</ele>
        <time>2022-08-07T07:43:59.000Z</time>
      </trkpt>
      <trkpt lat="48.59289" lon="-4.24583">
        <ele>81.199996948242</ele>
        <time>2022-08-07T07:44:00.000Z</time>
      </trkpt>
      <trkpt lat="48.59293" lon="-4.24586">
        <ele>81.199996948242</ele>
        <time>2022-08-07T07:44:01.000Z</time>
      </trkpt>
      <trkpt lat="48.59297" lon="-4.2459">
        <ele>81.199996948242</ele>
        <time>2022-08-07T07:44:02.000Z</time>
      </trkpt>
      <trkpt lat="48.59302" lon="-4.24594">
        <ele>81.199996948242</ele>
        <time>2022-08-07T07:44:03.000Z</time>
      </trkpt>
      <trkpt lat="48.59306" lon="-4.24596">
        <ele>81.199996948242</ele>
        <time>2022-08-07T07:44:04.000Z</time>
      </trkpt>
      <trkpt lat="48.59315" lon="-4.24601">
        <ele>81.199996948242</ele>
        <time>2022-08-07T07:44:06.000Z</time>
      </trkpt>
      <trkpt lat="48.59321" lon="-4.24602">
        <ele>81</ele>
        <time>2022-08-07T07:44:07.000Z</time>
      </trkpt>
      <trkpt lat="48.59325" lon="-4.24604">
        <ele>81</ele>
        <time>2022-08-07T07:44:08.000Z</time>
      </trkpt>
      <trkpt lat="48.5933" lon="-4.24605">
        <ele>81</ele>
        <time>2022-08-07T07:44:09.000Z</time>
      </trkpt>
      <trkpt lat="48.59335" lon="-4.24607">
        <ele>81</ele>
        <time>2022-08-07T07:44:10.000Z</time>
      </trkpt>
      <trkpt lat="48.5934" lon="-4.24608">
        <ele>81</ele>
        <time>2022-08-07T07:44:11.000Z</time>
      </trkpt>
      <trkpt lat="48.59345" lon="-4.24609">
        <ele>80.800003051758</ele>
        <time>2022-08-07T07:44:12.000Z</time>
      </trkpt>
      <trkpt lat="48.5935" lon="-4.2461">
        <ele>80.800003051758</ele>
        <time>2022-08-07T07:44:13.000Z</time>
      </trkpt>
      <trkpt lat="48.59355" lon="-4.2461">
        <ele>80.800003051758</ele>
        <time>2022-08-07T07:44:14.000Z</time>
      </trkpt>
      <trkpt lat="48.5936" lon="-4.2461">
        <ele>80.800003051758</ele>
        <time>2022-08-07T07:44:15.000Z</time>
      </trkpt>
      <trkpt lat="48.59365" lon="-4.24611">
        <ele>81</ele>
        <time>2022-08-07T07:44:16.000Z</time>
      </trkpt>
      <trkpt lat="48.5937" lon="-4.24611">
        <ele>81</ele>
        <time>2022-08-07T07:44:17.000Z</time>
      </trkpt>
      <trkpt lat="48.59373" lon="-4.24611">
        <ele>81</ele>
        <time>2022-08-07T07:44:18.000Z</time>
      </trkpt>
      <trkpt lat="48.59383" lon="-4.24611">
        <ele>81</ele>
        <time>2022-08-07T07:44:20.000Z</time>
      </trkpt>
      <trkpt lat="48.59388" lon="-4.24611">
        <ele>81</ele>
        <time>2022-08-07T07:44:21.000Z</time>
      </trkpt>
      <trkpt lat="48.59393" lon="-4.24611">
        <ele>81</ele>
        <time>2022-08-07T07:44:22.000Z</time>
      </trkpt>
      <trkpt lat="48.59398" lon="-4.24612">
        <ele>81</ele>
        <time>2022-08-07T07:44:23.000Z</time>
      </trkpt>
      <trkpt lat="48.59403" lon="-4.24612">
        <ele>81</ele>
        <time>2022-08-07T07:44:24.000Z</time>
      </trkpt>
      <trkpt lat="48.59408" lon="-4.24612">
        <ele>81.199996948242</ele>
        <time>2022-08-07T07:44:25.000Z</time>
      </trkpt>
      <trkpt lat="48.59412" lon="-4.24612">
        <ele>81.199996948242</ele>
        <time>2022-08-07T07:44:26.000Z</time>
      </trkpt>
      <trkpt lat="48.5942" lon="-4.24611">
        <ele>81.199996948242</ele>
        <time>2022-08-07T07:44:28.000Z</time>
      </trkpt>
      <trkpt lat="48.59423" lon="-4.24611">
        <ele>81.199996948242</ele>
        <time>2022-08-07T07:44:29.000Z</time>
      </trkpt>
      <trkpt lat="48.59427" lon="-4.2461">
        <ele>81.199996948242</ele>
        <time>2022-08-07T07:44:30.000Z</time>
      </trkpt>
      <trkpt lat="48.5943" lon="-4.2461">
        <ele>81.199996948242</ele>
        <time>2022-08-07T07:44:31.000Z</time>
      </trkpt>
      <trkpt lat="48.59433" lon="-4.24609">
        <ele>81.199996948242</ele>
        <time>2022-08-07T07:44:32.000Z</time>
      </trkpt>
      <trkpt lat="48.5944" lon="-4.24609">
        <ele>81.400001525879</ele>
        <time>2022-08-07T07:44:34.000Z</time>
      </trkpt>
      <trkpt lat="48.59443" lon="-4.2461">
        <ele>81.199996948242</ele>
        <time>2022-08-07T07:44:35.000Z</time>
      </trkpt>
      <trkpt lat="48.59447" lon="-4.24612">
        <ele>81.199996948242</ele>
        <time>2022-08-07T07:44:36.000Z</time>
      </trkpt>
      <trkpt lat="48.5945" lon="-4.24614">
        <ele>81.199996948242</ele>
        <time>2022-08-07T07:44:37.000Z</time>
      </trkpt>
      <trkpt lat="48.59453" lon="-4.24616">
        <ele>81.199996948242</ele>
        <time>2022-08-07T07:44:38.000Z</time>
      </trkpt>
      <trkpt lat="48.59456" lon="-4.24618">
        <ele>81.199996948242</ele>
        <time>2022-08-07T07:44:39.000Z</time>
      </trkpt>
      <trkpt lat="48.59459" lon="-4.2462">
        <ele>81.199996948242</ele>
        <time>2022-08-07T07:44:40.000Z</time>
      </trkpt>
      <trkpt lat="48.59465" lon="-4.24627">
        <ele>81</ele>
        <time>2022-08-07T07:44:42.000Z</time>
      </trkpt>
      <trkpt lat="48.5947" lon="-4.24634">
        <ele>81</ele>
        <time>2022-08-07T07:44:44.000Z</time>
      </trkpt>
      <trkpt lat="48.59473" lon="-4.2464">
        <ele>80.800003051758</ele>
        <time>2022-08-07T07:44:45.000Z</time>
      </trkpt>
      <trkpt lat="48.59475" lon="-4.24644">
        <ele>80.800003051758</ele>
        <time>2022-08-07T07:44:46.000Z</time>
      </trkpt>
      <trkpt lat="48.59477" lon="-4.24649">
        <ele>81</ele>
        <time>2022-08-07T07:44:47.000Z</time>
      </trkpt>
      <trkpt lat="48.59479" lon="-4.24655">
        <ele>81</ele>
        <time>2022-08-07T07:44:48.000Z</time>
      </trkpt>
      <trkpt lat="48.59482" lon="-4.2466">
        <ele>81</ele>
        <time>2022-08-07T07:44:49.000Z</time>
      </trkpt>
      <trkpt lat="48.59484" lon="-4.24666">
        <ele>80.800003051758</ele>
        <time>2022-08-07T07:44:50.000Z</time>
      </trkpt>
      <trkpt lat="48.59487" lon="-4.24672">
        <ele>80.599998474121</ele>
        <time>2022-08-07T07:44:51.000Z</time>
      </trkpt>
      <trkpt lat="48.59489" lon="-4.24677">
        <ele>80.400001525879</ele>
        <time>2022-08-07T07:44:52.000Z</time>
      </trkpt>
      <trkpt lat="48.59492" lon="-4.24682">
        <ele>80.400001525879</ele>
        <time>2022-08-07T07:44:53.000Z</time>
      </trkpt>
      <trkpt lat="48.59494" lon="-4.24687">
        <ele>80.199996948242</ele>
        <time>2022-08-07T07:44:54.000Z</time>
      </trkpt>
      <trkpt lat="48.59497" lon="-4.24691">
        <ele>80</ele>
        <time>2022-08-07T07:44:55.000Z</time>
      </trkpt>
      <trkpt lat="48.595" lon="-4.24696">
        <ele>80</ele>
        <time>2022-08-07T07:44:56.000Z</time>
      </trkpt>
      <trkpt lat="48.59503" lon="-4.247">
        <ele>79.800003051758</ele>
        <time>2022-08-07T07:44:57.000Z</time>
      </trkpt>
      <trkpt lat="48.59509" lon="-4.24709">
        <ele>79.800003051758</ele>
        <time>2022-08-07T07:44:59.000Z</time>
      </trkpt>
      <trkpt lat="48.59512" lon="-4.24713">
        <ele>79.599998474121</ele>
        <time>2022-08-07T07:45:00.000Z</time>
      </trkpt>
      <trkpt lat="48.59513" lon="-4.24716">
        <ele>79.599998474121</ele>
        <time>2022-08-07T07:45:01.000Z</time>
      </trkpt>
      <trkpt lat="48.59517" lon="-4.24722">
        <ele>79.599998474121</ele>
        <time>2022-08-07T07:45:02.000Z</time>
      </trkpt>
      <trkpt lat="48.59521" lon="-4.24726">
        <ele>79.400001525879</ele>
        <time>2022-08-07T07:45:03.000Z</time>
      </trkpt>
      <trkpt lat="48.59524" lon="-4.24729">
        <ele>79.400001525879</ele>
        <time>2022-08-07T07:45:04.000Z</time>
      </trkpt>
      <trkpt lat="48.59528" lon="-4.24732">
        <ele>79.400001525879</ele>
        <time>2022-08-07T07:45:05.000Z</time>
      </trkpt>
      <trkpt lat="48.59532" lon="-4.24734">
        <ele>79.400001525879</ele>
        <time>2022-08-07T07:45:06.000Z</time>
      </trkpt>
      <trkpt lat="48.59535" lon="-4.24735">
        <ele>79.400001525879</ele>
        <time>2022-08-07T07:45:07.000Z</time>
      </trkpt>
      <trkpt lat="48.5954" lon="-4.24736">
        <ele>79.400001525879</ele>
        <time>2022-08-07T07:45:08.000Z</time>
      </trkpt>
      <trkpt lat="48.59544" lon="-4.24736">
        <ele>79.400001525879</ele>
        <time>2022-08-07T07:45:09.000Z</time>
      </trkpt>
      <trkpt lat="48.59548" lon="-4.24736">
        <ele>79.199996948242</ele>
        <time>2022-08-07T07:45:10.000Z</time>
      </trkpt>
      <trkpt lat="48.59551" lon="-4.24736">
        <ele>79.199996948242</ele>
        <time>2022-08-07T07:45:11.000Z</time>
      </trkpt>
      <trkpt lat="48.59556" lon="-4.24735">
        <ele>79</ele>
        <time>2022-08-07T07:45:12.000Z</time>
      </trkpt>
      <trkpt lat="48.5956" lon="-4.24734">
        <ele>79</ele>
        <time>2022-08-07T07:45:13.000Z</time>
      </trkpt>
      <trkpt lat="48.59565" lon="-4.24733">
        <ele>79</ele>
        <time>2022-08-07T07:45:14.000Z</time>
      </trkpt>
      <trkpt lat="48.59569" lon="-4.24731">
        <ele>79</ele>
        <time>2022-08-07T07:45:15.000Z</time>
      </trkpt>
      <trkpt lat="48.59573" lon="-4.24731">
        <ele>78.800003051758</ele>
        <time>2022-08-07T07:45:16.000Z</time>
      </trkpt>
      <trkpt lat="48.59578" lon="-4.24731">
        <ele>78.800003051758</ele>
        <time>2022-08-07T07:45:17.000Z</time>
      </trkpt>
      <trkpt lat="48.59582" lon="-4.24731">
        <ele>78.599998474121</ele>
        <time>2022-08-07T07:45:18.000Z</time>
      </trkpt>
      <trkpt lat="48.59586" lon="-4.24732">
        <ele>78.599998474121</ele>
        <time>2022-08-07T07:45:19.000Z</time>
      </trkpt>
      <trkpt lat="48.5959" lon="-4.24733">
        <ele>78.400001525879</ele>
        <time>2022-08-07T07:45:20.000Z</time>
      </trkpt>
      <trkpt lat="48.59594" lon="-4.24736">
        <ele>78.400001525879</ele>
        <time>2022-08-07T07:45:21.000Z</time>
      </trkpt>
      <trkpt lat="48.59598" lon="-4.2474">
        <ele>78</ele>
        <time>2022-08-07T07:45:22.000Z</time>
      </trkpt>
      <trkpt lat="48.59601" lon="-4.24744">
        <ele>77.800003051758</ele>
        <time>2022-08-07T07:45:23.000Z</time>
      </trkpt>
      <trkpt lat="48.59604" lon="-4.24748">
        <ele>77.599998474121</ele>
        <time>2022-08-07T07:45:24.000Z</time>
      </trkpt>
      <trkpt lat="48.59607" lon="-4.24753">
        <ele>77.599998474121</ele>
        <time>2022-08-07T07:45:25.000Z</time>
      </trkpt>
      <trkpt lat="48.5961" lon="-4.24757">
        <ele>77.400001525879</ele>
        <time>2022-08-07T07:45:26.000Z</time>
      </trkpt>
      <trkpt lat="48.59613" lon="-4.24762">
        <ele>77.400001525879</ele>
        <time>2022-08-07T07:45:27.000Z</time>
      </trkpt>
      <trkpt lat="48.59616" lon="-4.24764">
        <ele>77</ele>
        <time>2022-08-07T07:45:28.000Z</time>
      </trkpt>
      <trkpt lat="48.59618" lon="-4.24766">
        <ele>77</ele>
        <time>2022-08-07T07:45:29.000Z</time>
      </trkpt>
      <trkpt lat="48.5962" lon="-4.24769">
        <ele>76.400001525879</ele>
        <time>2022-08-07T07:45:30.000Z</time>
      </trkpt>
      <trkpt lat="48.59623" lon="-4.24773">
        <ele>76.199996948242</ele>
        <time>2022-08-07T07:45:31.000Z</time>
      </trkpt>
      <trkpt lat="48.59629" lon="-4.24781">
        <ele>75.599998474121</ele>
        <time>2022-08-07T07:45:33.000Z</time>
      </trkpt>
      <trkpt lat="48.59632" lon="-4.24783">
        <ele>75.599998474121</ele>
        <time>2022-08-07T07:45:34.000Z</time>
      </trkpt>
      <trkpt lat="48.59636" lon="-4.24785">
        <ele>75.400001525879</ele>
        <time>2022-08-07T07:45:35.000Z</time>
      </trkpt>
      <trkpt lat="48.59642" lon="-4.24787">
        <ele>75.199996948242</ele>
        <time>2022-08-07T07:45:36.000Z</time>
      </trkpt>
      <trkpt lat="48.59647" lon="-4.24787">
        <ele>75</ele>
        <time>2022-08-07T07:45:37.000Z</time>
      </trkpt>
      <trkpt lat="48.59651" lon="-4.24788">
        <ele>75</ele>
        <time>2022-08-07T07:45:38.000Z</time>
      </trkpt>
      <trkpt lat="48.59656" lon="-4.24789">
        <ele>74.800003051758</ele>
        <time>2022-08-07T07:45:39.000Z</time>
      </trkpt>
      <trkpt lat="48.59661" lon="-4.24789">
        <ele>74.599998474121</ele>
        <time>2022-08-07T07:45:40.000Z</time>
      </trkpt>
      <trkpt lat="48.59665" lon="-4.24791">
        <ele>74.400001525879</ele>
        <time>2022-08-07T07:45:41.000Z</time>
      </trkpt>
      <trkpt lat="48.59669" lon="-4.24792">
        <ele>74</ele>
        <time>2022-08-07T07:45:42.000Z</time>
      </trkpt>
      <trkpt lat="48.59672" lon="-4.24792">
        <ele>73.800003051758</ele>
        <time>2022-08-07T07:45:43.000Z</time>
      </trkpt>
      <trkpt lat="48.59677" lon="-4.24794">
        <ele>73.599998474121</ele>
        <time>2022-08-07T07:45:44.000Z</time>
      </trkpt>
      <trkpt lat="48.59681" lon="-4.24795">
        <ele>73.400001525879</ele>
        <time>2022-08-07T07:45:45.000Z</time>
      </trkpt>
      <trkpt lat="48.59685" lon="-4.24797">
        <ele>73.199996948242</ele>
        <time>2022-08-07T07:45:46.000Z</time>
      </trkpt>
      <trkpt lat="48.59689" lon="-4.24798">
        <ele>73</ele>
        <time>2022-08-07T07:45:47.000Z</time>
      </trkpt>
      <trkpt lat="48.59693" lon="-4.24799">
        <ele>72.800003051758</ele>
        <time>2022-08-07T07:45:48.000Z</time>
      </trkpt>
      <trkpt lat="48.59697" lon="-4.248">
        <ele>72.599998474121</ele>
        <time>2022-08-07T07:45:49.000Z</time>
      </trkpt>
      <trkpt lat="48.59701" lon="-4.24801">
        <ele>72.599998474121</ele>
        <time>2022-08-07T07:45:50.000Z</time>
      </trkpt>
      <trkpt lat="48.59706" lon="-4.24802">
        <ele>72.599998474121</ele>
        <time>2022-08-07T07:45:51.000Z</time>
      </trkpt>
      <trkpt lat="48.59711" lon="-4.24804">
        <ele>72.599998474121</ele>
        <time>2022-08-07T07:45:52.000Z</time>
      </trkpt>
      <trkpt lat="48.59714" lon="-4.24804">
        <ele>72.400001525879</ele>
        <time>2022-08-07T07:45:53.000Z</time>
      </trkpt>
      <trkpt lat="48.59719" lon="-4.24804">
        <ele>72.199996948242</ele>
        <time>2022-08-07T07:45:54.000Z</time>
      </trkpt>
      <trkpt lat="48.59724" lon="-4.24803">
        <ele>72</ele>
        <time>2022-08-07T07:45:55.000Z</time>
      </trkpt>
      <trkpt lat="48.59728" lon="-4.24802">
        <ele>72</ele>
        <time>2022-08-07T07:45:56.000Z</time>
      </trkpt>
      <trkpt lat="48.59732" lon="-4.24801">
        <ele>72</ele>
        <time>2022-08-07T07:45:57.000Z</time>
      </trkpt>
      <trkpt lat="48.59736" lon="-4.24801">
        <ele>71.800003051758</ele>
        <time>2022-08-07T07:45:58.000Z</time>
      </trkpt>
      <trkpt lat="48.5974" lon="-4.248">
        <ele>71.800003051758</ele>
        <time>2022-08-07T07:45:59.000Z</time>
      </trkpt>
      <trkpt lat="48.59744" lon="-4.248">
        <ele>71.599998474121</ele>
        <time>2022-08-07T07:46:00.000Z</time>
      </trkpt>
      <trkpt lat="48.59747" lon="-4.248">
        <ele>71.400001525879</ele>
        <time>2022-08-07T07:46:01.000Z</time>
      </trkpt>
      <trkpt lat="48.59751" lon="-4.248">
        <ele>71.400001525879</ele>
        <time>2022-08-07T07:46:02.000Z</time>
      </trkpt>
      <trkpt lat="48.59756" lon="-4.24799">
        <ele>71.400001525879</ele>
        <time>2022-08-07T07:46:03.000Z</time>
      </trkpt>
      <trkpt lat="48.59761" lon="-4.248">
        <ele>71.199996948242</ele>
        <time>2022-08-07T07:46:04.000Z</time>
      </trkpt>
      <trkpt lat="48.59765" lon="-4.248">
        <ele>71.199996948242</ele>
        <time>2022-08-07T07:46:05.000Z</time>
      </trkpt>
      <trkpt lat="48.59769" lon="-4.24801">
        <ele>71.199996948242</ele>
        <time>2022-08-07T07:46:06.000Z</time>
      </trkpt>
      <trkpt lat="48.59774" lon="-4.24803">
        <ele>71.199996948242</ele>
        <time>2022-08-07T07:46:07.000Z</time>
      </trkpt>
      <trkpt lat="48.59778" lon="-4.24805">
        <ele>70.800003051758</ele>
        <time>2022-08-07T07:46:08.000Z</time>
      </trkpt>
      <trkpt lat="48.59782" lon="-4.24807">
        <ele>70.599998474121</ele>
        <time>2022-08-07T07:46:09.000Z</time>
      </trkpt>
      <trkpt lat="48.59784" lon="-4.24809">
        <ele>70.599998474121</ele>
        <time>2022-08-07T07:46:10.000Z</time>
      </trkpt>
      <trkpt lat="48.59787" lon="-4.24813">
        <ele>70.199996948242</ele>
        <time>2022-08-07T07:46:11.000Z</time>
      </trkpt>
      <trkpt lat="48.5979" lon="-4.24817">
        <ele>70</ele>
        <time>2022-08-07T07:46:12.000Z</time>
      </trkpt>
      <trkpt lat="48.59794" lon="-4.24822">
        <ele>69.800003051758</ele>
        <time>2022-08-07T07:46:13.000Z</time>
      </trkpt>
      <trkpt lat="48.59797" lon="-4.24826">
        <ele>69.800003051758</ele>
        <time>2022-08-07T07:46:14.000Z</time>
      </trkpt>
      <trkpt lat="48.598" lon="-4.24831">
        <ele>69.599998474121</ele>
        <time>2022-08-07T07:46:15.000Z</time>
      </trkpt>
      <trkpt lat="48.59803" lon="-4.24836">
        <ele>69.400001525879</ele>
        <time>2022-08-07T07:46:16.000Z</time>
      </trkpt>
      <trkpt lat="48.59806" lon="-4.2484">
        <ele>69.199996948242</ele>
        <time>2022-08-07T07:46:17.000Z</time>
      </trkpt>
      <trkpt lat="48.59809" lon="-4.24845">
        <ele>69.199996948242</ele>
        <time>2022-08-07T07:46:18.000Z</time>
      </trkpt>
      <trkpt lat="48.59812" lon="-4.2485">
        <ele>69</ele>
        <time>2022-08-07T07:46:19.000Z</time>
      </trkpt>
      <trkpt lat="48.59815" lon="-4.24854">
        <ele>69</ele>
        <time>2022-08-07T07:46:20.000Z</time>
      </trkpt>
      <trkpt lat="48.59821" lon="-4.24865">
        <ele>68.800003051758</ele>
        <time>2022-08-07T07:46:22.000Z</time>
      </trkpt>
      <trkpt lat="48.59825" lon="-4.24868">
        <ele>68.599998474121</ele>
        <time>2022-08-07T07:46:23.000Z</time>
      </trkpt>
      <trkpt lat="48.59832" lon="-4.24874">
        <ele>68.599998474121</ele>
        <time>2022-08-07T07:46:25.000Z</time>
      </trkpt>
      <trkpt lat="48.59836" lon="-4.24876">
        <ele>68.599998474121</ele>
        <time>2022-08-07T07:46:26.000Z</time>
      </trkpt>
      <trkpt lat="48.59841" lon="-4.2488">
        <ele>68.599998474121</ele>
        <time>2022-08-07T07:46:27.000Z</time>
      </trkpt>
      <trkpt lat="48.59845" lon="-4.24883">
        <ele>68.400001525879</ele>
        <time>2022-08-07T07:46:28.000Z</time>
      </trkpt>
      <trkpt lat="48.59849" lon="-4.24886">
        <ele>68.400001525879</ele>
        <time>2022-08-07T07:46:29.000Z</time>
      </trkpt>
      <trkpt lat="48.59853" lon="-4.24889">
        <ele>68.400001525879</ele>
        <time>2022-08-07T07:46:30.000Z</time>
      </trkpt>
      <trkpt lat="48.59857" lon="-4.24893">
        <ele>68.199996948242</ele>
        <time>2022-08-07T07:46:31.000Z</time>
      </trkpt>
      <trkpt lat="48.59861" lon="-4.24896">
        <ele>68.199996948242</ele>
        <time>2022-08-07T07:46:32.000Z</time>
      </trkpt>
      <trkpt lat="48.59865" lon="-4.249">
        <ele>68.199996948242</ele>
        <time>2022-08-07T07:46:33.000Z</time>
      </trkpt>
      <trkpt lat="48.59869" lon="-4.24903">
        <ele>68.199996948242</ele>
        <time>2022-08-07T07:46:34.000Z</time>
      </trkpt>
      <trkpt lat="48.59874" lon="-4.24907">
        <ele>68</ele>
        <time>2022-08-07T07:46:35.000Z</time>
      </trkpt>
      <trkpt lat="48.59878" lon="-4.2491">
        <ele>68</ele>
        <time>2022-08-07T07:46:36.000Z</time>
      </trkpt>
      <trkpt lat="48.59882" lon="-4.24913">
        <ele>68</ele>
        <time>2022-08-07T07:46:37.000Z</time>
      </trkpt>
      <trkpt lat="48.59886" lon="-4.24915">
        <ele>67.800003051758</ele>
        <time>2022-08-07T07:46:38.000Z</time>
      </trkpt>
      <trkpt lat="48.5989" lon="-4.24918">
        <ele>67.800003051758</ele>
        <time>2022-08-07T07:46:39.000Z</time>
      </trkpt>
      <trkpt lat="48.59894" lon="-4.2492">
        <ele>67.599998474121</ele>
        <time>2022-08-07T07:46:40.000Z</time>
      </trkpt>
      <trkpt lat="48.59897" lon="-4.24922">
        <ele>67.400001525879</ele>
        <time>2022-08-07T07:46:41.000Z</time>
      </trkpt>
      <trkpt lat="48.59901" lon="-4.24924">
        <ele>67.400001525879</ele>
        <time>2022-08-07T07:46:42.000Z</time>
      </trkpt>
      <trkpt lat="48.59904" lon="-4.24924">
        <ele>67.400001525879</ele>
        <time>2022-08-07T07:46:43.000Z</time>
      </trkpt>
      <trkpt lat="48.59908" lon="-4.24925">
        <ele>67.400001525879</ele>
        <time>2022-08-07T07:46:44.000Z</time>
      </trkpt>
      <trkpt lat="48.59911" lon="-4.24925">
        <ele>67.400001525879</ele>
        <time>2022-08-07T07:46:45.000Z</time>
      </trkpt>
      <trkpt lat="48.59915" lon="-4.24925">
        <ele>67</ele>
        <time>2022-08-07T07:46:46.000Z</time>
      </trkpt>
      <trkpt lat="48.59918" lon="-4.24927">
        <ele>67</ele>
        <time>2022-08-07T07:46:47.000Z</time>
      </trkpt>
      <trkpt lat="48.59922" lon="-4.24929">
        <ele>66.800003051758</ele>
        <time>2022-08-07T07:46:48.000Z</time>
      </trkpt>
      <trkpt lat="48.59927" lon="-4.24931">
        <ele>66.800003051758</ele>
        <time>2022-08-07T07:46:49.000Z</time>
      </trkpt>
      <trkpt lat="48.59931" lon="-4.24933">
        <ele>67</ele>
        <time>2022-08-07T07:46:50.000Z</time>
      </trkpt>
      <trkpt lat="48.59935" lon="-4.24934">
        <ele>67</ele>
        <time>2022-08-07T07:46:51.000Z</time>
      </trkpt>
      <trkpt lat="48.59939" lon="-4.24936">
        <ele>66.800003051758</ele>
        <time>2022-08-07T07:46:52.000Z</time>
      </trkpt>
      <trkpt lat="48.59943" lon="-4.24938">
        <ele>67</ele>
        <time>2022-08-07T07:46:53.000Z</time>
      </trkpt>
      <trkpt lat="48.59947" lon="-4.2494">
        <ele>67</ele>
        <time>2022-08-07T07:46:54.000Z</time>
      </trkpt>
      <trkpt lat="48.59952" lon="-4.24942">
        <ele>66.800003051758</ele>
        <time>2022-08-07T07:46:55.000Z</time>
      </trkpt>
      <trkpt lat="48.59955" lon="-4.24944">
        <ele>66.800003051758</ele>
        <time>2022-08-07T07:46:56.000Z</time>
      </trkpt>
      <trkpt lat="48.5996" lon="-4.24946">
        <ele>66.800003051758</ele>
        <time>2022-08-07T07:46:57.000Z</time>
      </trkpt>
      <trkpt lat="48.59963" lon="-4.24948">
        <ele>66.800003051758</ele>
        <time>2022-08-07T07:46:58.000Z</time>
      </trkpt>
      <trkpt lat="48.59971" lon="-4.24951">
        <ele>66.800003051758</ele>
        <time>2022-08-07T07:47:00.000Z</time>
      </trkpt>
      <trkpt lat="48.59976" lon="-4.24953">
        <ele>66.599998474121</ele>
        <time>2022-08-07T07:47:01.000Z</time>
      </trkpt>
      <trkpt lat="48.59984" lon="-4.24955">
        <ele>66.599998474121</ele>
        <time>2022-08-07T07:47:03.000Z</time>
      </trkpt>
      <trkpt lat="48.59989" lon="-4.24957">
        <ele>66.599998474121</ele>
        <time>2022-08-07T07:47:04.000Z</time>
      </trkpt>
      <trkpt lat="48.59992" lon="-4.24957">
        <ele>66.599998474121</ele>
        <time>2022-08-07T07:47:05.000Z</time>
      </trkpt>
      <trkpt lat="48.59996" lon="-4.24958">
        <ele>66.599998474121</ele>
        <time>2022-08-07T07:47:06.000Z</time>
      </trkpt>
      <trkpt lat="48.6" lon="-4.24959">
        <ele>66.599998474121</ele>
        <time>2022-08-07T07:47:07.000Z</time>
      </trkpt>
      <trkpt lat="48.60004" lon="-4.24961">
        <ele>66.599998474121</ele>
        <time>2022-08-07T07:47:08.000Z</time>
      </trkpt>
      <trkpt lat="48.60008" lon="-4.24962">
        <ele>66.599998474121</ele>
        <time>2022-08-07T07:47:09.000Z</time>
      </trkpt>
      <trkpt lat="48.60012" lon="-4.24963">
        <ele>66.599998474121</ele>
        <time>2022-08-07T07:47:10.000Z</time>
      </trkpt>
      <trkpt lat="48.60016" lon="-4.24964">
        <ele>66.599998474121</ele>
        <time>2022-08-07T07:47:11.000Z</time>
      </trkpt>
      <trkpt lat="48.60021" lon="-4.24966">
        <ele>66.599998474121</ele>
        <time>2022-08-07T07:47:12.000Z</time>
      </trkpt>
      <trkpt lat="48.60025" lon="-4.24968">
        <ele>66.400001525879</ele>
        <time>2022-08-07T07:47:13.000Z</time>
      </trkpt>
      <trkpt lat="48.60029" lon="-4.24969">
        <ele>66.400001525879</ele>
        <time>2022-08-07T07:47:14.000Z</time>
      </trkpt>
      <trkpt lat="48.60034" lon="-4.24971">
        <ele>66.199996948242</ele>
        <time>2022-08-07T07:47:15.000Z</time>
      </trkpt>
      <trkpt lat="48.60037" lon="-4.24972">
        <ele>66</ele>
        <time>2022-08-07T07:47:16.000Z</time>
      </trkpt>
      <trkpt lat="48.60041" lon="-4.24974">
        <ele>66</ele>
        <time>2022-08-07T07:47:17.000Z</time>
      </trkpt>
      <trkpt lat="48.60045" lon="-4.24975">
        <ele>65.800003051758</ele>
        <time>2022-08-07T07:47:18.000Z</time>
      </trkpt>
      <trkpt lat="48.60049" lon="-4.24978">
        <ele>65.800003051758</ele>
        <time>2022-08-07T07:47:19.000Z</time>
      </trkpt>
      <trkpt lat="48.60052" lon="-4.2498">
        <ele>65.599998474121</ele>
        <time>2022-08-07T07:47:20.000Z</time>
      </trkpt>
      <trkpt lat="48.60056" lon="-4.24982">
        <ele>65.400001525879</ele>
        <time>2022-08-07T07:47:21.000Z</time>
      </trkpt>
      <trkpt lat="48.60059" lon="-4.24984">
        <ele>65.199996948242</ele>
        <time>2022-08-07T07:47:22.000Z</time>
      </trkpt>
      <trkpt lat="48.60062" lon="-4.24985">
        <ele>65.400001525879</ele>
        <time>2022-08-07T07:47:23.000Z</time>
      </trkpt>
      <trkpt lat="48.60066" lon="-4.24987">
        <ele>65.400001525879</ele>
        <time>2022-08-07T07:47:24.000Z</time>
      </trkpt>
      <trkpt lat="48.60069" lon="-4.24989">
        <ele>65.400001525879</ele>
        <time>2022-08-07T07:47:25.000Z</time>
      </trkpt>
      <trkpt lat="48.60073" lon="-4.24991">
        <ele>65.199996948242</ele>
        <time>2022-08-07T07:47:26.000Z</time>
      </trkpt>
      <trkpt lat="48.60075" lon="-4.24992">
        <ele>65.199996948242</ele>
        <time>2022-08-07T07:47:27.000Z</time>
      </trkpt>
      <trkpt lat="48.60078" lon="-4.24994">
        <ele>65</ele>
        <time>2022-08-07T07:47:28.000Z</time>
      </trkpt>
      <trkpt lat="48.60081" lon="-4.24996">
        <ele>65</ele>
        <time>2022-08-07T07:47:29.000Z</time>
      </trkpt>
      <trkpt lat="48.60082" lon="-4.24998">
        <ele>65</ele>
        <time>2022-08-07T07:47:30.000Z</time>
      </trkpt>
      <trkpt lat="48.60085" lon="-4.25">
        <ele>65</ele>
        <time>2022-08-07T07:47:31.000Z</time>
      </trkpt>
      <trkpt lat="48.60088" lon="-4.25001">
        <ele>65</ele>
        <time>2022-08-07T07:47:32.000Z</time>
      </trkpt>
      <trkpt lat="48.6009" lon="-4.25003">
        <ele>65</ele>
        <time>2022-08-07T07:47:33.000Z</time>
      </trkpt>
      <trkpt lat="48.60093" lon="-4.25004">
        <ele>64.800003051758</ele>
        <time>2022-08-07T07:47:34.000Z</time>
      </trkpt>
      <trkpt lat="48.60095" lon="-4.25005">
        <ele>64.800003051758</ele>
        <time>2022-08-07T07:47:35.000Z</time>
      </trkpt>
      <trkpt lat="48.60098" lon="-4.25006">
        <ele>64.800003051758</ele>
        <time>2022-08-07T07:47:36.000Z</time>
      </trkpt>
      <trkpt lat="48.60101" lon="-4.25006">
        <ele>64.800003051758</ele>
        <time>2022-08-07T07:47:37.000Z</time>
      </trkpt>
      <trkpt lat="48.60104" lon="-4.25006">
        <ele>64.800003051758</ele>
        <time>2022-08-07T07:47:38.000Z</time>
      </trkpt>
      <trkpt lat="48.6011" lon="-4.2501">
        <ele>64.800003051758</ele>
        <time>2022-08-07T07:47:40.000Z</time>
      </trkpt>
      <trkpt lat="48.60114" lon="-4.25013">
        <ele>65</ele>
        <time>2022-08-07T07:47:41.000Z</time>
      </trkpt>
      <trkpt lat="48.60117" lon="-4.25015">
        <ele>65</ele>
        <time>2022-08-07T07:47:42.000Z</time>
      </trkpt>
      <trkpt lat="48.6012" lon="-4.25017">
        <ele>64.800003051758</ele>
        <time>2022-08-07T07:47:43.000Z</time>
      </trkpt>
      <trkpt lat="48.60123" lon="-4.25018">
        <ele>64.800003051758</ele>
        <time>2022-08-07T07:47:44.000Z</time>
      </trkpt>
      <trkpt lat="48.60126" lon="-4.25019">
        <ele>64.800003051758</ele>
        <time>2022-08-07T07:47:45.000Z</time>
      </trkpt>
      <trkpt lat="48.60129" lon="-4.25021">
        <ele>64.800003051758</ele>
        <time>2022-08-07T07:47:46.000Z</time>
      </trkpt>
      <trkpt lat="48.60133" lon="-4.25024">
        <ele>64.800003051758</ele>
        <time>2022-08-07T07:47:47.000Z</time>
      </trkpt>
      <trkpt lat="48.60135" lon="-4.25028">
        <ele>64.800003051758</ele>
        <time>2022-08-07T07:47:48.000Z</time>
      </trkpt>
      <trkpt lat="48.60138" lon="-4.25029">
        <ele>64.800003051758</ele>
        <time>2022-08-07T07:47:49.000Z</time>
      </trkpt>
      <trkpt lat="48.60142" lon="-4.25032">
        <ele>64.599998474121</ele>
        <time>2022-08-07T07:47:50.000Z</time>
      </trkpt>
      <trkpt lat="48.60145" lon="-4.25035">
        <ele>64.599998474121</ele>
        <time>2022-08-07T07:47:51.000Z</time>
      </trkpt>
      <trkpt lat="48.60149" lon="-4.25038">
        <ele>64.599998474121</ele>
        <time>2022-08-07T07:47:52.000Z</time>
      </trkpt>
      <trkpt lat="48.60152" lon="-4.25041">
        <ele>64.400001525879</ele>
        <time>2022-08-07T07:47:53.000Z</time>
      </trkpt>
      <trkpt lat="48.60155" lon="-4.25044">
        <ele>64.400001525879</ele>
        <time>2022-08-07T07:47:54.000Z</time>
      </trkpt>
      <trkpt lat="48.60158" lon="-4.25048">
        <ele>64.400001525879</ele>
        <time>2022-08-07T07:47:55.000Z</time>
      </trkpt>
      <trkpt lat="48.60161" lon="-4.25051">
        <ele>64.400001525879</ele>
        <time>2022-08-07T07:47:56.000Z</time>
      </trkpt>
      <trkpt lat="48.60164" lon="-4.25055">
        <ele>64.400001525879</ele>
        <time>2022-08-07T07:47:57.000Z</time>
      </trkpt>
      <trkpt lat="48.60167" lon="-4.25058">
        <ele>64.400001525879</ele>
        <time>2022-08-07T07:47:58.000Z</time>
      </trkpt>
      <trkpt lat="48.60169" lon="-4.25061">
        <ele>64.400001525879</ele>
        <time>2022-08-07T07:47:59.000Z</time>
      </trkpt>
      <trkpt lat="48.60171" lon="-4.25065">
        <ele>64.400001525879</ele>
        <time>2022-08-07T07:48:00.000Z</time>
      </trkpt>
      <trkpt lat="48.60172" lon="-4.25066">
        <ele>64.199996948242</ele>
        <time>2022-08-07T07:48:01.000Z</time>
      </trkpt>
      <trkpt lat="48.60174" lon="-4.25071">
        <ele>64</ele>
        <time>2022-08-07T07:48:02.000Z</time>
      </trkpt>
      <trkpt lat="48.60177" lon="-4.25075">
        <ele>64.199996948242</ele>
        <time>2022-08-07T07:48:03.000Z</time>
      </trkpt>
      <trkpt lat="48.60178" lon="-4.2508">
        <ele>64.400001525879</ele>
        <time>2022-08-07T07:48:04.000Z</time>
      </trkpt>
      <trkpt lat="48.60179" lon="-4.25086">
        <ele>64.400001525879</ele>
        <time>2022-08-07T07:48:05.000Z</time>
      </trkpt>
      <trkpt lat="48.60178" lon="-4.25091">
        <ele>64.400001525879</ele>
        <time>2022-08-07T07:48:06.000Z</time>
      </trkpt>
      <trkpt lat="48.60177" lon="-4.25096">
        <ele>64.199996948242</ele>
        <time>2022-08-07T07:48:07.000Z</time>
      </trkpt>
      <trkpt lat="48.60176" lon="-4.251">
        <ele>64.199996948242</ele>
        <time>2022-08-07T07:48:08.000Z</time>
      </trkpt>
      <trkpt lat="48.60176" lon="-4.25105">
        <ele>64.400001525879</ele>
        <time>2022-08-07T07:48:09.000Z</time>
      </trkpt>
      <trkpt lat="48.60176" lon="-4.25109">
        <ele>64.400001525879</ele>
        <time>2022-08-07T07:48:10.000Z</time>
      </trkpt>
      <trkpt lat="48.60176" lon="-4.25114">
        <ele>64.400001525879</ele>
        <time>2022-08-07T07:48:11.000Z</time>
      </trkpt>
      <trkpt lat="48.60175" lon="-4.25119">
        <ele>64.400001525879</ele>
        <time>2022-08-07T07:48:12.000Z</time>
      </trkpt>
      <trkpt lat="48.60174" lon="-4.25124">
        <ele>64.400001525879</ele>
        <time>2022-08-07T07:48:13.000Z</time>
      </trkpt>
      <trkpt lat="48.60174" lon="-4.25129">
        <ele>64.400001525879</ele>
        <time>2022-08-07T07:48:14.000Z</time>
      </trkpt>
      <trkpt lat="48.60173" lon="-4.25134">
        <ele>64.400001525879</ele>
        <time>2022-08-07T07:48:15.000Z</time>
      </trkpt>
      <trkpt lat="48.60172" lon="-4.2514">
        <ele>64.400001525879</ele>
        <time>2022-08-07T07:48:16.000Z</time>
      </trkpt>
      <trkpt lat="48.60171" lon="-4.25144">
        <ele>64</ele>
        <time>2022-08-07T07:48:17.000Z</time>
      </trkpt>
      <trkpt lat="48.60171" lon="-4.25148">
        <ele>63.799999237061</ele>
        <time>2022-08-07T07:48:18.000Z</time>
      </trkpt>
      <trkpt lat="48.60171" lon="-4.25153">
        <ele>64.199996948242</ele>
        <time>2022-08-07T07:48:19.000Z</time>
      </trkpt>
      <trkpt lat="48.6017" lon="-4.25157">
        <ele>64</ele>
        <time>2022-08-07T07:48:20.000Z</time>
      </trkpt>
      <trkpt lat="48.6017" lon="-4.25162">
        <ele>63.799999237061</ele>
        <time>2022-08-07T07:48:21.000Z</time>
      </trkpt>
      <trkpt lat="48.6017" lon="-4.25167">
        <ele>63.799999237061</ele>
        <time>2022-08-07T07:48:22.000Z</time>
      </trkpt>
      <trkpt lat="48.6017" lon="-4.25171">
        <ele>64</ele>
        <time>2022-08-07T07:48:23.000Z</time>
      </trkpt>
      <trkpt lat="48.6017" lon="-4.25175">
        <ele>63.799999237061</ele>
        <time>2022-08-07T07:48:24.000Z</time>
      </trkpt>
      <trkpt lat="48.60169" lon="-4.25179">
        <ele>63.599998474121</ele>
        <time>2022-08-07T07:48:25.000Z</time>
      </trkpt>
      <trkpt lat="48.60169" lon="-4.25183">
        <ele>64</ele>
        <time>2022-08-07T07:48:26.000Z</time>
      </trkpt>
      <trkpt lat="48.60167" lon="-4.25187">
        <ele>64.400001525879</ele>
        <time>2022-08-07T07:48:27.000Z</time>
      </trkpt>
      <trkpt lat="48.60166" lon="-4.25192">
        <ele>64.400001525879</ele>
        <time>2022-08-07T07:48:28.000Z</time>
      </trkpt>
      <trkpt lat="48.60165" lon="-4.25196">
        <ele>64.599998474121</ele>
        <time>2022-08-07T07:48:29.000Z</time>
      </trkpt>
      <trkpt lat="48.60165" lon="-4.25201">
        <ele>64.599998474121</ele>
        <time>2022-08-07T07:48:30.000Z</time>
      </trkpt>
      <trkpt lat="48.60164" lon="-4.25205">
        <ele>64.400001525879</ele>
        <time>2022-08-07T07:48:31.000Z</time>
      </trkpt>
      <trkpt lat="48.60164" lon="-4.25209">
        <ele>64.599998474121</ele>
        <time>2022-08-07T07:48:32.000Z</time>
      </trkpt>
      <trkpt lat="48.60164" lon="-4.25213">
        <ele>64.599998474121</ele>
        <time>2022-08-07T07:48:33.000Z</time>
      </trkpt>
      <trkpt lat="48.60164" lon="-4.25216">
        <ele>65</ele>
        <time>2022-08-07T07:48:34.000Z</time>
      </trkpt>
      <trkpt lat="48.60164" lon="-4.25219">
        <ele>64.800003051758</ele>
        <time>2022-08-07T07:48:35.000Z</time>
      </trkpt>
      <trkpt lat="48.60165" lon="-4.25222">
        <ele>65</ele>
        <time>2022-08-07T07:48:36.000Z</time>
      </trkpt>
      <trkpt lat="48.60166" lon="-4.25227">
        <ele>65</ele>
        <time>2022-08-07T07:48:37.000Z</time>
      </trkpt>
      <trkpt lat="48.60167" lon="-4.25231">
        <ele>65</ele>
        <time>2022-08-07T07:48:38.000Z</time>
      </trkpt>
      <trkpt lat="48.60168" lon="-4.25236">
        <ele>64.800003051758</ele>
        <time>2022-08-07T07:48:39.000Z</time>
      </trkpt>
      <trkpt lat="48.60169" lon="-4.2524">
        <ele>64.800003051758</ele>
        <time>2022-08-07T07:48:40.000Z</time>
      </trkpt>
      <trkpt lat="48.60169" lon="-4.25245">
        <ele>64.800003051758</ele>
        <time>2022-08-07T07:48:41.000Z</time>
      </trkpt>
      <trkpt lat="48.60169" lon="-4.2525">
        <ele>65</ele>
        <time>2022-08-07T07:48:42.000Z</time>
      </trkpt>
      <trkpt lat="48.6017" lon="-4.25256">
        <ele>65</ele>
        <time>2022-08-07T07:48:43.000Z</time>
      </trkpt>
      <trkpt lat="48.6017" lon="-4.25261">
        <ele>65</ele>
        <time>2022-08-07T07:48:44.000Z</time>
      </trkpt>
      <trkpt lat="48.60171" lon="-4.25265">
        <ele>65</ele>
        <time>2022-08-07T07:48:45.000Z</time>
      </trkpt>
      <trkpt lat="48.60172" lon="-4.25268">
        <ele>65</ele>
        <time>2022-08-07T07:48:46.000Z</time>
      </trkpt>
      <trkpt lat="48.60174" lon="-4.25271">
        <ele>65</ele>
        <time>2022-08-07T07:48:47.000Z</time>
      </trkpt>
      <trkpt lat="48.60176" lon="-4.25271">
        <ele>65.199996948242</ele>
        <time>2022-08-07T07:48:48.000Z</time>
      </trkpt>
      <trkpt lat="48.60178" lon="-4.25271">
        <ele>65.199996948242</ele>
        <time>2022-08-07T07:48:49.000Z</time>
      </trkpt>
      <trkpt lat="48.60179" lon="-4.25269">
        <ele>65.400001525879</ele>
        <time>2022-08-07T07:48:50.000Z</time>
      </trkpt>
      <trkpt lat="48.6018" lon="-4.25267">
        <ele>65.400001525879</ele>
        <time>2022-08-07T07:48:51.000Z</time>
      </trkpt>
      <trkpt lat="48.60181" lon="-4.25266">
        <ele>65.800003051758</ele>
        <time>2022-08-07T07:48:52.000Z</time>
      </trkpt>
      <trkpt lat="48.60182" lon="-4.25264">
        <ele>66</ele>
        <time>2022-08-07T07:50:50.000Z</time>
      </trkpt>
      <trkpt lat="48.60184" lon="-4.25262">
        <ele>66.199996948242</ele>
        <time>2022-08-07T07:50:51.000Z</time>
      </trkpt>
      <trkpt lat="48.60186" lon="-4.25258">
        <ele>66.199996948242</ele>
        <time>2022-08-07T07:50:52.000Z</time>
      </trkpt>
      <trkpt lat="48.60188" lon="-4.25255">
        <ele>66.199996948242</ele>
        <time>2022-08-07T07:50:53.000Z</time>
      </trkpt>
      <trkpt lat="48.6019" lon="-4.25251">
        <ele>66.199996948242</ele>
        <time>2022-08-07T07:50:54.000Z</time>
      </trkpt>
      <trkpt lat="48.60192" lon="-4.25247">
        <ele>66.199996948242</ele>
        <time>2022-08-07T07:50:55.000Z</time>
      </trkpt>
      <trkpt lat="48.60196" lon="-4.25243">
        <ele>66.199996948242</ele>
        <time>2022-08-07T07:50:56.000Z</time>
      </trkpt>
      <trkpt lat="48.60199" lon="-4.25239">
        <ele>66.199996948242</ele>
        <time>2022-08-07T07:50:57.000Z</time>
      </trkpt>
      <trkpt lat="48.60202" lon="-4.25235">
        <ele>66.199996948242</ele>
        <time>2022-08-07T07:50:58.000Z</time>
      </trkpt>
      <trkpt lat="48.60205" lon="-4.25231">
        <ele>66.199996948242</ele>
        <time>2022-08-07T07:50:59.000Z</time>
      </trkpt>
      <trkpt lat="48.60207" lon="-4.25228">
        <ele>66.400001525879</ele>
        <time>2022-08-07T07:51:00.000Z</time>
      </trkpt>
      <trkpt lat="48.6021" lon="-4.25224">
        <ele>66.400001525879</ele>
        <time>2022-08-07T07:51:01.000Z</time>
      </trkpt>
      <trkpt lat="48.60213" lon="-4.2522">
        <ele>66.400001525879</ele>
        <time>2022-08-07T07:51:02.000Z</time>
      </trkpt>
      <trkpt lat="48.60216" lon="-4.25216">
        <ele>66.400001525879</ele>
        <time>2022-08-07T07:51:03.000Z</time>
      </trkpt>
      <trkpt lat="48.60218" lon="-4.25213">
        <ele>66.400001525879</ele>
        <time>2022-08-07T07:51:04.000Z</time>
      </trkpt>
      <trkpt lat="48.60221" lon="-4.25209">
        <ele>66.400001525879</ele>
        <time>2022-08-07T07:51:05.000Z</time>
      </trkpt>
      <trkpt lat="48.60224" lon="-4.25204">
        <ele>66.400001525879</ele>
        <time>2022-08-07T07:51:06.000Z</time>
      </trkpt>
      <trkpt lat="48.60227" lon="-4.252">
        <ele>66.400001525879</ele>
        <time>2022-08-07T07:51:07.000Z</time>
      </trkpt>
      <trkpt lat="48.60231" lon="-4.25196">
        <ele>66.400001525879</ele>
        <time>2022-08-07T07:51:08.000Z</time>
      </trkpt>
      <trkpt lat="48.60233" lon="-4.25192">
        <ele>66.400001525879</ele>
        <time>2022-08-07T07:51:09.000Z</time>
      </trkpt>
      <trkpt lat="48.60237" lon="-4.25187">
        <ele>66.400001525879</ele>
        <time>2022-08-07T07:51:10.000Z</time>
      </trkpt>
      <trkpt lat="48.60241" lon="-4.25181">
        <ele>66.400001525879</ele>
        <time>2022-08-07T07:51:11.000Z</time>
      </trkpt>
      <trkpt lat="48.60245" lon="-4.25175">
        <ele>66.400001525879</ele>
        <time>2022-08-07T07:51:12.000Z</time>
      </trkpt>
      <trkpt lat="48.60248" lon="-4.25169">
        <ele>66.199996948242</ele>
        <time>2022-08-07T07:51:13.000Z</time>
      </trkpt>
      <trkpt lat="48.60252" lon="-4.25163">
        <ele>66.199996948242</ele>
        <time>2022-08-07T07:51:14.000Z</time>
      </trkpt>
      <trkpt lat="48.60255" lon="-4.25156">
        <ele>66</ele>
        <time>2022-08-07T07:51:15.000Z</time>
      </trkpt>
      <trkpt lat="48.60257" lon="-4.25148">
        <ele>66</ele>
        <time>2022-08-07T07:51:16.000Z</time>
      </trkpt>
      <trkpt lat="48.60259" lon="-4.2514">
        <ele>66</ele>
        <time>2022-08-07T07:51:17.000Z</time>
      </trkpt>
      <trkpt lat="48.60261" lon="-4.25132">
        <ele>65.800003051758</ele>
        <time>2022-08-07T07:51:18.000Z</time>
      </trkpt>
      <trkpt lat="48.60262" lon="-4.25126">
        <ele>65.800003051758</ele>
        <time>2022-08-07T07:51:19.000Z</time>
      </trkpt>
      <trkpt lat="48.60262" lon="-4.25116">
        <ele>65.599998474121</ele>
        <time>2022-08-07T07:51:20.000Z</time>
      </trkpt>
      <trkpt lat="48.60263" lon="-4.25108">
        <ele>65.400001525879</ele>
        <time>2022-08-07T07:51:21.000Z</time>
      </trkpt>
      <trkpt lat="48.60264" lon="-4.251">
        <ele>65.199996948242</ele>
        <time>2022-08-07T07:51:22.000Z</time>
      </trkpt>
      <trkpt lat="48.60264" lon="-4.25094">
        <ele>65</ele>
        <time>2022-08-07T07:51:23.000Z</time>
      </trkpt>
      <trkpt lat="48.60265" lon="-4.25085">
        <ele>65</ele>
        <time>2022-08-07T07:51:24.000Z</time>
      </trkpt>
      <trkpt lat="48.60266" lon="-4.25075">
        <ele>65</ele>
        <time>2022-08-07T07:51:25.000Z</time>
      </trkpt>
      <trkpt lat="48.60268" lon="-4.25067">
        <ele>64.800003051758</ele>
        <time>2022-08-07T07:51:26.000Z</time>
      </trkpt>
      <trkpt lat="48.60269" lon="-4.25059">
        <ele>64.800003051758</ele>
        <time>2022-08-07T07:51:27.000Z</time>
      </trkpt>
      <trkpt lat="48.60271" lon="-4.25053">
        <ele>64.800003051758</ele>
        <time>2022-08-07T07:51:28.000Z</time>
      </trkpt>
      <trkpt lat="48.60274" lon="-4.25045">
        <ele>64.599998474121</ele>
        <time>2022-08-07T07:51:29.000Z</time>
      </trkpt>
      <trkpt lat="48.60278" lon="-4.25036">
        <ele>64.400001525879</ele>
        <time>2022-08-07T07:51:30.000Z</time>
      </trkpt>
      <trkpt lat="48.60281" lon="-4.25029">
        <ele>64.199996948242</ele>
        <time>2022-08-07T07:51:31.000Z</time>
      </trkpt>
      <trkpt lat="48.60285" lon="-4.25021">
        <ele>64</ele>
        <time>2022-08-07T07:51:32.000Z</time>
      </trkpt>
      <trkpt lat="48.60289" lon="-4.25015">
        <ele>63.799999237061</ele>
        <time>2022-08-07T07:51:33.000Z</time>
      </trkpt>
      <trkpt lat="48.60293" lon="-4.25008">
        <ele>63.599998474121</ele>
        <time>2022-08-07T07:51:34.000Z</time>
      </trkpt>
      <trkpt lat="48.60298" lon="-4.25001">
        <ele>63.599998474121</ele>
        <time>2022-08-07T07:51:35.000Z</time>
      </trkpt>
      <trkpt lat="48.60302" lon="-4.24994">
        <ele>63.400001525879</ele>
        <time>2022-08-07T07:51:36.000Z</time>
      </trkpt>
      <trkpt lat="48.60306" lon="-4.24987">
        <ele>63.200000762939</ele>
        <time>2022-08-07T07:51:37.000Z</time>
      </trkpt>
      <trkpt lat="48.6031" lon="-4.24981">
        <ele>63</ele>
        <time>2022-08-07T07:51:38.000Z</time>
      </trkpt>
      <trkpt lat="48.60315" lon="-4.24972">
        <ele>63</ele>
        <time>2022-08-07T07:51:39.000Z</time>
      </trkpt>
      <trkpt lat="48.60319" lon="-4.24964">
        <ele>62.599998474121</ele>
        <time>2022-08-07T07:51:40.000Z</time>
      </trkpt>
      <trkpt lat="48.60322" lon="-4.24955">
        <ele>62.599998474121</ele>
        <time>2022-08-07T07:51:41.000Z</time>
      </trkpt>
      <trkpt lat="48.60324" lon="-4.24948">
        <ele>62.200000762939</ele>
        <time>2022-08-07T07:51:42.000Z</time>
      </trkpt>
      <trkpt lat="48.60325" lon="-4.24937">
        <ele>62.200000762939</ele>
        <time>2022-08-07T07:51:43.000Z</time>
      </trkpt>
      <trkpt lat="48.60325" lon="-4.24928">
        <ele>62</ele>
        <time>2022-08-07T07:51:44.000Z</time>
      </trkpt>
      <trkpt lat="48.60325" lon="-4.24918">
        <ele>62</ele>
        <time>2022-08-07T07:51:45.000Z</time>
      </trkpt>
      <trkpt lat="48.60325" lon="-4.24911">
        <ele>61.799999237061</ele>
        <time>2022-08-07T07:51:46.000Z</time>
      </trkpt>
      <trkpt lat="48.60324" lon="-4.24903">
        <ele>61.799999237061</ele>
        <time>2022-08-07T07:51:47.000Z</time>
      </trkpt>
      <trkpt lat="48.60323" lon="-4.24895">
        <ele>61.799999237061</ele>
        <time>2022-08-07T07:51:48.000Z</time>
      </trkpt>
      <trkpt lat="48.60323" lon="-4.24887">
        <ele>61.799999237061</ele>
        <time>2022-08-07T07:51:49.000Z</time>
      </trkpt>
      <trkpt lat="48.60322" lon="-4.24877">
        <ele>61.799999237061</ele>
        <time>2022-08-07T07:51:50.000Z</time>
      </trkpt>
      <trkpt lat="48.60322" lon="-4.24871">
        <ele>61.799999237061</ele>
        <time>2022-08-07T07:51:51.000Z</time>
      </trkpt>
      <trkpt lat="48.60322" lon="-4.24862">
        <ele>61.799999237061</ele>
        <time>2022-08-07T07:51:52.000Z</time>
      </trkpt>
      <trkpt lat="48.60322" lon="-4.24855">
        <ele>61.799999237061</ele>
        <time>2022-08-07T07:51:53.000Z</time>
      </trkpt>
      <trkpt lat="48.60325" lon="-4.2485">
        <ele>61.799999237061</ele>
        <time>2022-08-07T07:51:54.000Z</time>
      </trkpt>
      <trkpt lat="48.60328" lon="-4.24848">
        <ele>62</ele>
        <time>2022-08-07T07:51:55.000Z</time>
      </trkpt>
      <trkpt lat="48.60332" lon="-4.24847">
        <ele>62.200000762939</ele>
        <time>2022-08-07T07:51:56.000Z</time>
      </trkpt>
      <trkpt lat="48.60336" lon="-4.24847">
        <ele>62.400001525879</ele>
        <time>2022-08-07T07:51:57.000Z</time>
      </trkpt>
      <trkpt lat="48.60342" lon="-4.24846">
        <ele>62.400001525879</ele>
        <time>2022-08-07T07:51:58.000Z</time>
      </trkpt>
      <trkpt lat="48.60347" lon="-4.24844">
        <ele>62.400001525879</ele>
        <time>2022-08-07T07:51:59.000Z</time>
      </trkpt>
      <trkpt lat="48.60353" lon="-4.24841">
        <ele>62.599998474121</ele>
        <time>2022-08-07T07:52:00.000Z</time>
      </trkpt>
      <trkpt lat="48.60358" lon="-4.24838">
        <ele>62.599998474121</ele>
        <time>2022-08-07T07:52:01.000Z</time>
      </trkpt>
      <trkpt lat="48.60362" lon="-4.24837">
        <ele>62.599998474121</ele>
        <time>2022-08-07T07:52:02.000Z</time>
      </trkpt>
      <trkpt lat="48.60368" lon="-4.24837">
        <ele>62.599998474121</ele>
        <time>2022-08-07T07:52:03.000Z</time>
      </trkpt>
      <trkpt lat="48.60372" lon="-4.24838">
        <ele>62.599998474121</ele>
        <time>2022-08-07T07:52:04.000Z</time>
      </trkpt>
      <trkpt lat="48.60376" lon="-4.24839">
        <ele>62.400001525879</ele>
        <time>2022-08-07T07:52:05.000Z</time>
      </trkpt>
      <trkpt lat="48.60381" lon="-4.2484">
        <ele>62.400001525879</ele>
        <time>2022-08-07T07:52:06.000Z</time>
      </trkpt>
      <trkpt lat="48.60386" lon="-4.24841">
        <ele>62.599998474121</ele>
        <time>2022-08-07T07:52:07.000Z</time>
      </trkpt>
      <trkpt lat="48.60391" lon="-4.24842">
        <ele>62.599998474121</ele>
        <time>2022-08-07T07:52:08.000Z</time>
      </trkpt>
      <trkpt lat="48.60396" lon="-4.24843">
        <ele>62.599998474121</ele>
        <time>2022-08-07T07:52:09.000Z</time>
      </trkpt>
      <trkpt lat="48.60399" lon="-4.24843">
        <ele>62.599998474121</ele>
        <time>2022-08-07T07:52:10.000Z</time>
      </trkpt>
      <trkpt lat="48.60404" lon="-4.24843">
        <ele>62.799999237061</ele>
        <time>2022-08-07T07:52:11.000Z</time>
      </trkpt>
      <trkpt lat="48.60409" lon="-4.24843">
        <ele>62.799999237061</ele>
        <time>2022-08-07T07:52:12.000Z</time>
      </trkpt>
      <trkpt lat="48.60414" lon="-4.24842">
        <ele>63</ele>
        <time>2022-08-07T07:52:13.000Z</time>
      </trkpt>
      <trkpt lat="48.60418" lon="-4.2484">
        <ele>63</ele>
        <time>2022-08-07T07:52:14.000Z</time>
      </trkpt>
      <trkpt lat="48.60421" lon="-4.24839">
        <ele>62.799999237061</ele>
        <time>2022-08-07T07:52:15.000Z</time>
      </trkpt>
      <trkpt lat="48.60425" lon="-4.24837">
        <ele>63</ele>
        <time>2022-08-07T07:52:16.000Z</time>
      </trkpt>
      <trkpt lat="48.60427" lon="-4.24835">
        <ele>63</ele>
        <time>2022-08-07T07:52:17.000Z</time>
      </trkpt>
      <trkpt lat="48.6043" lon="-4.24835">
        <ele>63</ele>
        <time>2022-08-07T07:52:18.000Z</time>
      </trkpt>
      <trkpt lat="48.60433" lon="-4.24834">
        <ele>63</ele>
        <time>2022-08-07T07:52:19.000Z</time>
      </trkpt>
      <trkpt lat="48.60436" lon="-4.24834">
        <ele>63.200000762939</ele>
        <time>2022-08-07T07:52:20.000Z</time>
      </trkpt>
      <trkpt lat="48.6044" lon="-4.24833">
        <ele>63.200000762939</ele>
        <time>2022-08-07T07:52:21.000Z</time>
      </trkpt>
      <trkpt lat="48.60442" lon="-4.24833">
        <ele>63.200000762939</ele>
        <time>2022-08-07T07:52:22.000Z</time>
      </trkpt>
      <trkpt lat="48.60445" lon="-4.24833">
        <ele>63.200000762939</ele>
        <time>2022-08-07T07:52:23.000Z</time>
      </trkpt>
      <trkpt lat="48.60447" lon="-4.24832">
        <ele>63.200000762939</ele>
        <time>2022-08-07T07:52:24.000Z</time>
      </trkpt>
      <trkpt lat="48.6045" lon="-4.24831">
        <ele>63.200000762939</ele>
        <time>2022-08-07T07:52:25.000Z</time>
      </trkpt>
      <trkpt lat="48.60454" lon="-4.2483">
        <ele>63.200000762939</ele>
        <time>2022-08-07T07:52:26.000Z</time>
      </trkpt>
      <trkpt lat="48.60457" lon="-4.24829">
        <ele>63.400001525879</ele>
        <time>2022-08-07T07:52:27.000Z</time>
      </trkpt>
      <trkpt lat="48.60461" lon="-4.24828">
        <ele>63.400001525879</ele>
        <time>2022-08-07T07:52:28.000Z</time>
      </trkpt>
      <trkpt lat="48.60464" lon="-4.24828">
        <ele>63.599998474121</ele>
        <time>2022-08-07T07:52:29.000Z</time>
      </trkpt>
      <trkpt lat="48.60467" lon="-4.24828">
        <ele>63.599998474121</ele>
        <time>2022-08-07T07:52:30.000Z</time>
      </trkpt>
      <trkpt lat="48.6047" lon="-4.24827">
        <ele>63.599998474121</ele>
        <time>2022-08-07T07:52:31.000Z</time>
      </trkpt>
      <trkpt lat="48.60473" lon="-4.24827">
        <ele>63.599998474121</ele>
        <time>2022-08-07T07:52:32.000Z</time>
      </trkpt>
      <trkpt lat="48.60476" lon="-4.24827">
        <ele>63.799999237061</ele>
        <time>2022-08-07T07:52:33.000Z</time>
      </trkpt>
      <trkpt lat="48.60479" lon="-4.24827">
        <ele>63.799999237061</ele>
        <time>2022-08-07T07:52:34.000Z</time>
      </trkpt>
      <trkpt lat="48.60482" lon="-4.24826">
        <ele>63.799999237061</ele>
        <time>2022-08-07T07:52:35.000Z</time>
      </trkpt>
      <trkpt lat="48.60484" lon="-4.24825">
        <ele>63.599998474121</ele>
        <time>2022-08-07T07:52:36.000Z</time>
      </trkpt>
      <trkpt lat="48.60486" lon="-4.24824">
        <ele>63.599998474121</ele>
        <time>2022-08-07T07:52:37.000Z</time>
      </trkpt>
      <trkpt lat="48.60489" lon="-4.24824">
        <ele>63.599998474121</ele>
        <time>2022-08-07T07:52:38.000Z</time>
      </trkpt>
      <trkpt lat="48.60492" lon="-4.24823">
        <ele>63.599998474121</ele>
        <time>2022-08-07T07:52:39.000Z</time>
      </trkpt>
      <trkpt lat="48.60495" lon="-4.24823">
        <ele>63.400001525879</ele>
        <time>2022-08-07T07:52:40.000Z</time>
      </trkpt>
      <trkpt lat="48.60498" lon="-4.24822">
        <ele>63.400001525879</ele>
        <time>2022-08-07T07:52:41.000Z</time>
      </trkpt>
      <trkpt lat="48.60501" lon="-4.24822">
        <ele>63.400001525879</ele>
        <time>2022-08-07T07:52:42.000Z</time>
      </trkpt>
      <trkpt lat="48.60504" lon="-4.24823">
        <ele>63.400001525879</ele>
        <time>2022-08-07T07:52:43.000Z</time>
      </trkpt>
      <trkpt lat="48.60507" lon="-4.24824">
        <ele>63.400001525879</ele>
        <time>2022-08-07T07:52:44.000Z</time>
      </trkpt>
      <trkpt lat="48.6051" lon="-4.24826">
        <ele>63.400001525879</ele>
        <time>2022-08-07T07:52:45.000Z</time>
      </trkpt>
      <trkpt lat="48.60513" lon="-4.24827">
        <ele>63.400001525879</ele>
        <time>2022-08-07T07:52:46.000Z</time>
      </trkpt>
      <trkpt lat="48.60516" lon="-4.24829">
        <ele>63.400001525879</ele>
        <time>2022-08-07T07:52:47.000Z</time>
      </trkpt>
      <trkpt lat="48.60518" lon="-4.24829">
        <ele>63.400001525879</ele>
        <time>2022-08-07T07:52:48.000Z</time>
      </trkpt>
      <trkpt lat="48.60521" lon="-4.2483">
        <ele>63.400001525879</ele>
        <time>2022-08-07T07:52:49.000Z</time>
      </trkpt>
      <trkpt lat="48.60525" lon="-4.24831">
        <ele>63.400001525879</ele>
        <time>2022-08-07T07:52:50.000Z</time>
      </trkpt>
      <trkpt lat="48.60527" lon="-4.24831">
        <ele>63</ele>
        <time>2022-08-07T07:52:51.000Z</time>
      </trkpt>
      <trkpt lat="48.6053" lon="-4.24833">
        <ele>63</ele>
        <time>2022-08-07T07:52:52.000Z</time>
      </trkpt>
      <trkpt lat="48.60531" lon="-4.24834">
        <ele>63</ele>
        <time>2022-08-07T07:52:53.000Z</time>
      </trkpt>
      <trkpt lat="48.60532" lon="-4.24834">
        <ele>63</ele>
        <time>2022-08-07T07:52:54.000Z</time>
      </trkpt>
      <trkpt lat="48.60534" lon="-4.24834">
        <ele>63</ele>
        <time>2022-08-07T07:52:55.000Z</time>
      </trkpt>
      <trkpt lat="48.60536" lon="-4.24835">
        <ele>62.799999237061</ele>
        <time>2022-08-07T07:52:56.000Z</time>
      </trkpt>
      <trkpt lat="48.60539" lon="-4.24836">
        <ele>62.799999237061</ele>
        <time>2022-08-07T07:52:57.000Z</time>
      </trkpt>
      <trkpt lat="48.6054" lon="-4.24837">
        <ele>62.799999237061</ele>
        <time>2022-08-07T07:52:58.000Z</time>
      </trkpt>
      <trkpt lat="48.60541" lon="-4.2484">
        <ele>62.799999237061</ele>
        <time>2022-08-07T07:52:59.000Z</time>
      </trkpt>
      <trkpt lat="48.60541" lon="-4.24842">
        <ele>62.799999237061</ele>
        <time>2022-08-07T07:53:00.000Z</time>
      </trkpt>
      <trkpt lat="48.60542" lon="-4.24844">
        <ele>62.799999237061</ele>
        <time>2022-08-07T07:53:01.000Z</time>
      </trkpt>
      <trkpt lat="48.60542" lon="-4.24846">
        <ele>62.799999237061</ele>
        <time>2022-08-07T07:53:02.000Z</time>
      </trkpt>
      <trkpt lat="48.60544" lon="-4.24847">
        <ele>62.599998474121</ele>
        <time>2022-08-07T07:53:03.000Z</time>
      </trkpt>
      <trkpt lat="48.60546" lon="-4.24849">
        <ele>62.599998474121</ele>
        <time>2022-08-07T07:53:04.000Z</time>
      </trkpt>
      <trkpt lat="48.60547" lon="-4.2485">
        <ele>62.200000762939</ele>
        <time>2022-08-07T07:53:05.000Z</time>
      </trkpt>
      <trkpt lat="48.60548" lon="-4.24851">
        <ele>62.200000762939</ele>
        <time>2022-08-07T07:53:06.000Z</time>
      </trkpt>
      <trkpt lat="48.6055" lon="-4.24851">
        <ele>62.200000762939</ele>
        <time>2022-08-07T07:53:07.000Z</time>
      </trkpt>
      <trkpt lat="48.60551" lon="-4.24852">
        <ele>62.200000762939</ele>
        <time>2022-08-07T07:53:08.000Z</time>
      </trkpt>
      <trkpt lat="48.60552" lon="-4.24852">
        <ele>62</ele>
        <time>2022-08-07T07:53:09.000Z</time>
      </trkpt>
      <trkpt lat="48.60554" lon="-4.24853">
        <ele>61.799999237061</ele>
        <time>2022-08-07T07:53:10.000Z</time>
      </trkpt>
      <trkpt lat="48.60556" lon="-4.24854">
        <ele>61.799999237061</ele>
        <time>2022-08-07T07:53:11.000Z</time>
      </trkpt>
      <trkpt lat="48.60558" lon="-4.24855">
        <ele>61.799999237061</ele>
        <time>2022-08-07T07:53:12.000Z</time>
      </trkpt>
      <trkpt lat="48.6056" lon="-4.24856">
        <ele>61.799999237061</ele>
        <time>2022-08-07T07:53:13.000Z</time>
      </trkpt>
      <trkpt lat="48.60562" lon="-4.24857">
        <ele>61.799999237061</ele>
        <time>2022-08-07T07:53:14.000Z</time>
      </trkpt>
      <trkpt lat="48.60565" lon="-4.24859">
        <ele>61.799999237061</ele>
        <time>2022-08-07T07:53:15.000Z</time>
      </trkpt>
      <trkpt lat="48.60568" lon="-4.2486">
        <ele>61.799999237061</ele>
        <time>2022-08-07T07:53:16.000Z</time>
      </trkpt>
      <trkpt lat="48.60571" lon="-4.24861">
        <ele>61.599998474121</ele>
        <time>2022-08-07T07:53:17.000Z</time>
      </trkpt>
      <trkpt lat="48.60574" lon="-4.24863">
        <ele>61.599998474121</ele>
        <time>2022-08-07T07:53:18.000Z</time>
      </trkpt>
      <trkpt lat="48.60577" lon="-4.24864">
        <ele>61.400001525879</ele>
        <time>2022-08-07T07:53:19.000Z</time>
      </trkpt>
      <trkpt lat="48.6058" lon="-4.24865">
        <ele>61.400001525879</ele>
        <time>2022-08-07T07:53:20.000Z</time>
      </trkpt>
      <trkpt lat="48.60584" lon="-4.24867">
        <ele>61.400001525879</ele>
        <time>2022-08-07T07:53:21.000Z</time>
      </trkpt>
      <trkpt lat="48.60587" lon="-4.24868">
        <ele>61.400001525879</ele>
        <time>2022-08-07T07:53:22.000Z</time>
      </trkpt>
      <trkpt lat="48.6059" lon="-4.24869">
        <ele>61.400001525879</ele>
        <time>2022-08-07T07:53:23.000Z</time>
      </trkpt>
      <trkpt lat="48.60594" lon="-4.2487">
        <ele>61.400001525879</ele>
        <time>2022-08-07T07:53:24.000Z</time>
      </trkpt>
      <trkpt lat="48.60597" lon="-4.24871">
        <ele>61.400001525879</ele>
        <time>2022-08-07T07:53:25.000Z</time>
      </trkpt>
      <trkpt lat="48.60601" lon="-4.24872">
        <ele>61.400001525879</ele>
        <time>2022-08-07T07:53:26.000Z</time>
      </trkpt>
      <trkpt lat="48.60605" lon="-4.24874">
        <ele>61.400001525879</ele>
        <time>2022-08-07T07:53:27.000Z</time>
      </trkpt>
      <trkpt lat="48.60607" lon="-4.24875">
        <ele>61.400001525879</ele>
        <time>2022-08-07T07:53:28.000Z</time>
      </trkpt>
      <trkpt lat="48.60612" lon="-4.24876">
        <ele>61.400001525879</ele>
        <time>2022-08-07T07:53:29.000Z</time>
      </trkpt>
      <trkpt lat="48.60615" lon="-4.24877">
        <ele>61.400001525879</ele>
        <time>2022-08-07T07:53:30.000Z</time>
      </trkpt>
      <trkpt lat="48.60617" lon="-4.24878">
        <ele>61.200000762939</ele>
        <time>2022-08-07T07:53:31.000Z</time>
      </trkpt>
      <trkpt lat="48.60621" lon="-4.2488">
        <ele>61.200000762939</ele>
        <time>2022-08-07T07:53:32.000Z</time>
      </trkpt>
      <trkpt lat="48.60624" lon="-4.24881">
        <ele>61.200000762939</ele>
        <time>2022-08-07T07:53:33.000Z</time>
      </trkpt>
      <trkpt lat="48.60627" lon="-4.24882">
        <ele>61.200000762939</ele>
        <time>2022-08-07T07:53:34.000Z</time>
      </trkpt>
      <trkpt lat="48.6063" lon="-4.24883">
        <ele>61.200000762939</ele>
        <time>2022-08-07T07:53:35.000Z</time>
      </trkpt>
      <trkpt lat="48.60633" lon="-4.24884">
        <ele>61.200000762939</ele>
        <time>2022-08-07T07:53:36.000Z</time>
      </trkpt>
      <trkpt lat="48.60635" lon="-4.24885">
        <ele>61</ele>
        <time>2022-08-07T07:53:37.000Z</time>
      </trkpt>
      <trkpt lat="48.60639" lon="-4.24886">
        <ele>61</ele>
        <time>2022-08-07T07:53:38.000Z</time>
      </trkpt>
      <trkpt lat="48.60642" lon="-4.24887">
        <ele>60.799999237061</ele>
        <time>2022-08-07T07:53:39.000Z</time>
      </trkpt>
      <trkpt lat="48.60645" lon="-4.24888">
        <ele>60.799999237061</ele>
        <time>2022-08-07T07:53:40.000Z</time>
      </trkpt>
      <trkpt lat="48.60648" lon="-4.24889">
        <ele>60.599998474121</ele>
        <time>2022-08-07T07:53:41.000Z</time>
      </trkpt>
      <trkpt lat="48.60651" lon="-4.24889">
        <ele>60.400001525879</ele>
        <time>2022-08-07T07:53:42.000Z</time>
      </trkpt>
      <trkpt lat="48.60654" lon="-4.2489">
        <ele>60.400001525879</ele>
        <time>2022-08-07T07:53:43.000Z</time>
      </trkpt>
      <trkpt lat="48.60657" lon="-4.24891">
        <ele>60.200000762939</ele>
        <time>2022-08-07T07:53:44.000Z</time>
      </trkpt>
      <trkpt lat="48.60658" lon="-4.24891">
        <ele>60.200000762939</ele>
        <time>2022-08-07T07:53:45.000Z</time>
      </trkpt>
      <trkpt lat="48.60659" lon="-4.24891">
        <ele>60.200000762939</ele>
        <time>2022-08-07T07:53:46.000Z</time>
      </trkpt>
      <trkpt lat="48.60664" lon="-4.24892">
        <ele>59.400001525879</ele>
        <time>2022-08-07T07:54:02.000Z</time>
      </trkpt>
      <trkpt lat="48.60665" lon="-4.24893">
        <ele>59.400001525879</ele>
        <time>2022-08-07T07:54:03.000Z</time>
      </trkpt>
      <trkpt lat="48.60666" lon="-4.24893">
        <ele>59.400001525879</ele>
        <time>2022-08-07T07:54:04.000Z</time>
      </trkpt>
      <trkpt lat="48.60667" lon="-4.24893">
        <ele>59.400001525879</ele>
        <time>2022-08-07T07:54:05.000Z</time>
      </trkpt>
      <trkpt lat="48.60667" lon="-4.24894">
        <ele>59.400001525879</ele>
        <time>2022-08-07T07:54:06.000Z</time>
      </trkpt>
      <trkpt lat="48.60668" lon="-4.24895">
        <ele>59.400001525879</ele>
        <time>2022-08-07T07:54:08.000Z</time>
      </trkpt>
      <trkpt lat="48.60668" lon="-4.24896">
        <ele>59.400001525879</ele>
        <time>2022-08-07T07:54:09.000Z</time>
      </trkpt>
      <trkpt lat="48.60669" lon="-4.24896">
        <ele>59.400001525879</ele>
        <time>2022-08-07T07:54:10.000Z</time>
      </trkpt>
      <trkpt lat="48.60671" lon="-4.24896">
        <ele>59.400001525879</ele>
        <time>2022-08-07T07:54:11.000Z</time>
      </trkpt>
      <trkpt lat="48.60672" lon="-4.24897">
        <ele>59.400001525879</ele>
        <time>2022-08-07T07:54:12.000Z</time>
      </trkpt>
      <trkpt lat="48.60674" lon="-4.24897">
        <ele>59.400001525879</ele>
        <time>2022-08-07T07:54:13.000Z</time>
      </trkpt>
      <trkpt lat="48.60676" lon="-4.24897">
        <ele>59.400001525879</ele>
        <time>2022-08-07T07:54:14.000Z</time>
      </trkpt>
      <trkpt lat="48.60678" lon="-4.24897">
        <ele>59.400001525879</ele>
        <time>2022-08-07T07:54:15.000Z</time>
      </trkpt>
      <trkpt lat="48.6068" lon="-4.24897">
        <ele>59.400001525879</ele>
        <time>2022-08-07T07:54:16.000Z</time>
      </trkpt>
      <trkpt lat="48.60683" lon="-4.24898">
        <ele>59.400001525879</ele>
        <time>2022-08-07T07:54:17.000Z</time>
      </trkpt>
      <trkpt lat="48.60685" lon="-4.24898">
        <ele>59.400001525879</ele>
        <time>2022-08-07T07:54:18.000Z</time>
      </trkpt>
      <trkpt lat="48.60687" lon="-4.24898">
        <ele>59.200000762939</ele>
        <time>2022-08-07T07:54:19.000Z</time>
      </trkpt>
      <trkpt lat="48.60689" lon="-4.24898">
        <ele>59.200000762939</ele>
        <time>2022-08-07T07:54:20.000Z</time>
      </trkpt>
      <trkpt lat="48.60692" lon="-4.24899">
        <ele>59</ele>
        <time>2022-08-07T07:54:21.000Z</time>
      </trkpt>
      <trkpt lat="48.60694" lon="-4.24899">
        <ele>59</ele>
        <time>2022-08-07T07:54:22.000Z</time>
      </trkpt>
      <trkpt lat="48.60695" lon="-4.249">
        <ele>59</ele>
        <time>2022-08-07T07:54:23.000Z</time>
      </trkpt>
      <trkpt lat="48.607" lon="-4.24901">
        <ele>58.599998474121</ele>
        <time>2022-08-07T07:54:37.000Z</time>
      </trkpt>
      <trkpt lat="48.60701" lon="-4.24901">
        <ele>58.599998474121</ele>
        <time>2022-08-07T07:54:38.000Z</time>
      </trkpt>
      <trkpt lat="48.60703" lon="-4.24902">
        <ele>58.599998474121</ele>
        <time>2022-08-07T07:54:39.000Z</time>
      </trkpt>
      <trkpt lat="48.60705" lon="-4.24902">
        <ele>58.599998474121</ele>
        <time>2022-08-07T07:54:40.000Z</time>
      </trkpt>
      <trkpt lat="48.60707" lon="-4.24903">
        <ele>58.599998474121</ele>
        <time>2022-08-07T07:54:41.000Z</time>
      </trkpt>
      <trkpt lat="48.60709" lon="-4.24903">
        <ele>58.599998474121</ele>
        <time>2022-08-07T07:54:42.000Z</time>
      </trkpt>
      <trkpt lat="48.60712" lon="-4.24904">
        <ele>58.599998474121</ele>
        <time>2022-08-07T07:54:43.000Z</time>
      </trkpt>
      <trkpt lat="48.60715" lon="-4.24904">
        <ele>58.599998474121</ele>
        <time>2022-08-07T07:54:44.000Z</time>
      </trkpt>
      <trkpt lat="48.60718" lon="-4.24904">
        <ele>58.400001525879</ele>
        <time>2022-08-07T07:54:45.000Z</time>
      </trkpt>
      <trkpt lat="48.60721" lon="-4.24905">
        <ele>58.400001525879</ele>
        <time>2022-08-07T07:54:46.000Z</time>
      </trkpt>
      <trkpt lat="48.60723" lon="-4.24906">
        <ele>58.400001525879</ele>
        <time>2022-08-07T07:54:47.000Z</time>
      </trkpt>
      <trkpt lat="48.60726" lon="-4.24907">
        <ele>58.400001525879</ele>
        <time>2022-08-07T07:54:48.000Z</time>
      </trkpt>
      <trkpt lat="48.60729" lon="-4.24907">
        <ele>58.400001525879</ele>
        <time>2022-08-07T07:54:49.000Z</time>
      </trkpt>
      <trkpt lat="48.60732" lon="-4.24908">
        <ele>58.200000762939</ele>
        <time>2022-08-07T07:54:50.000Z</time>
      </trkpt>
      <trkpt lat="48.60736" lon="-4.24909">
        <ele>58.200000762939</ele>
        <time>2022-08-07T07:54:51.000Z</time>
      </trkpt>
      <trkpt lat="48.60739" lon="-4.2491">
        <ele>58</ele>
        <time>2022-08-07T07:54:52.000Z</time>
      </trkpt>
      <trkpt lat="48.60742" lon="-4.2491">
        <ele>57.799999237061</ele>
        <time>2022-08-07T07:54:53.000Z</time>
      </trkpt>
      <trkpt lat="48.60745" lon="-4.24911">
        <ele>57.599998474121</ele>
        <time>2022-08-07T07:54:54.000Z</time>
      </trkpt>
      <trkpt lat="48.60748" lon="-4.24911">
        <ele>57.400001525879</ele>
        <time>2022-08-07T07:54:55.000Z</time>
      </trkpt>
      <trkpt lat="48.60751" lon="-4.24912">
        <ele>57.400001525879</ele>
        <time>2022-08-07T07:54:56.000Z</time>
      </trkpt>
      <trkpt lat="48.60755" lon="-4.24913">
        <ele>57.400001525879</ele>
        <time>2022-08-07T07:54:57.000Z</time>
      </trkpt>
      <trkpt lat="48.60758" lon="-4.24914">
        <ele>57.200000762939</ele>
        <time>2022-08-07T07:54:58.000Z</time>
      </trkpt>
      <trkpt lat="48.60761" lon="-4.24915">
        <ele>57</ele>
        <time>2022-08-07T07:54:59.000Z</time>
      </trkpt>
      <trkpt lat="48.60765" lon="-4.24915">
        <ele>57</ele>
        <time>2022-08-07T07:55:00.000Z</time>
      </trkpt>
      <trkpt lat="48.60768" lon="-4.24916">
        <ele>57</ele>
        <time>2022-08-07T07:55:01.000Z</time>
      </trkpt>
      <trkpt lat="48.60771" lon="-4.24919">
        <ele>56.799999237061</ele>
        <time>2022-08-07T07:55:02.000Z</time>
      </trkpt>
      <trkpt lat="48.60774" lon="-4.24922">
        <ele>56.799999237061</ele>
        <time>2022-08-07T07:55:03.000Z</time>
      </trkpt>
      <trkpt lat="48.60775" lon="-4.24927">
        <ele>56.599998474121</ele>
        <time>2022-08-07T07:55:04.000Z</time>
      </trkpt>
      <trkpt lat="48.60775" lon="-4.24934">
        <ele>56.599998474121</ele>
        <time>2022-08-07T07:55:05.000Z</time>
      </trkpt>
      <trkpt lat="48.60776" lon="-4.24941">
        <ele>56.599998474121</ele>
        <time>2022-08-07T07:55:06.000Z</time>
      </trkpt>
      <trkpt lat="48.60776" lon="-4.24949">
        <ele>56.599998474121</ele>
        <time>2022-08-07T07:55:07.000Z</time>
      </trkpt>
      <trkpt lat="48.60776" lon="-4.24957">
        <ele>56.599998474121</ele>
        <time>2022-08-07T07:55:08.000Z</time>
      </trkpt>
      <trkpt lat="48.60777" lon="-4.24964">
        <ele>56.400001525879</ele>
        <time>2022-08-07T07:55:09.000Z</time>
      </trkpt>
      <trkpt lat="48.60778" lon="-4.24972">
        <ele>56.400001525879</ele>
        <time>2022-08-07T07:55:10.000Z</time>
      </trkpt>
      <trkpt lat="48.6078" lon="-4.24981">
        <ele>56.599998474121</ele>
        <time>2022-08-07T07:55:11.000Z</time>
      </trkpt>
      <trkpt lat="48.60781" lon="-4.24989">
        <ele>56.400001525879</ele>
        <time>2022-08-07T07:55:12.000Z</time>
      </trkpt>
      <trkpt lat="48.60784" lon="-4.24998">
        <ele>56.400001525879</ele>
        <time>2022-08-07T07:55:13.000Z</time>
      </trkpt>
      <trkpt lat="48.60787" lon="-4.25006">
        <ele>56.400001525879</ele>
        <time>2022-08-07T07:55:14.000Z</time>
      </trkpt>
      <trkpt lat="48.60791" lon="-4.25013">
        <ele>56.400001525879</ele>
        <time>2022-08-07T07:55:15.000Z</time>
      </trkpt>
      <trkpt lat="48.60795" lon="-4.2502">
        <ele>56.400001525879</ele>
        <time>2022-08-07T07:55:16.000Z</time>
      </trkpt>
      <trkpt lat="48.60801" lon="-4.25027">
        <ele>56.200000762939</ele>
        <time>2022-08-07T07:55:17.000Z</time>
      </trkpt>
      <trkpt lat="48.60804" lon="-4.25034">
        <ele>56</ele>
        <time>2022-08-07T07:55:18.000Z</time>
      </trkpt>
      <trkpt lat="48.60809" lon="-4.25043">
        <ele>56</ele>
        <time>2022-08-07T07:55:19.000Z</time>
      </trkpt>
      <trkpt lat="48.60814" lon="-4.25055">
        <ele>55.799999237061</ele>
        <time>2022-08-07T07:55:20.000Z</time>
      </trkpt>
      <trkpt lat="48.60817" lon="-4.25066">
        <ele>55.200000762939</ele>
        <time>2022-08-07T07:55:21.000Z</time>
      </trkpt>
      <trkpt lat="48.60821" lon="-4.25078">
        <ele>54.599998474121</ele>
        <time>2022-08-07T07:55:22.000Z</time>
      </trkpt>
      <trkpt lat="48.60824" lon="-4.25085">
        <ele>54.400001525879</ele>
        <time>2022-08-07T07:55:23.000Z</time>
      </trkpt>
      <trkpt lat="48.60829" lon="-4.25094">
        <ele>53.599998474121</ele>
        <time>2022-08-07T07:55:24.000Z</time>
      </trkpt>
      <trkpt lat="48.60835" lon="-4.25105">
        <ele>53.400001525879</ele>
        <time>2022-08-07T07:55:25.000Z</time>
      </trkpt>
      <trkpt lat="48.6084" lon="-4.25116">
        <ele>52.799999237061</ele>
        <time>2022-08-07T07:55:26.000Z</time>
      </trkpt>
      <trkpt lat="48.60844" lon="-4.25128">
        <ele>52.599998474121</ele>
        <time>2022-08-07T07:55:27.000Z</time>
      </trkpt>
      <trkpt lat="48.60847" lon="-4.25141">
        <ele>52</ele>
        <time>2022-08-07T07:55:28.000Z</time>
      </trkpt>
      <trkpt lat="48.60849" lon="-4.2515">
        <ele>51.799999237061</ele>
        <time>2022-08-07T07:55:29.000Z</time>
      </trkpt>
      <trkpt lat="48.60852" lon="-4.25165">
        <ele>50.200000762939</ele>
        <time>2022-08-07T07:55:30.000Z</time>
      </trkpt>
      <trkpt lat="48.60855" lon="-4.25175">
        <ele>48.400001525879</ele>
        <time>2022-08-07T07:55:31.000Z</time>
      </trkpt>
      <trkpt lat="48.60857" lon="-4.25185">
        <ele>48</ele>
        <time>2022-08-07T07:55:32.000Z</time>
      </trkpt>
      <trkpt lat="48.6086" lon="-4.25193">
        <ele>47.200000762939</ele>
        <time>2022-08-07T07:55:33.000Z</time>
      </trkpt>
      <trkpt lat="48.60862" lon="-4.25201">
        <ele>47</ele>
        <time>2022-08-07T07:55:34.000Z</time>
      </trkpt>
      <trkpt lat="48.60866" lon="-4.25208">
        <ele>46.599998474121</ele>
        <time>2022-08-07T07:55:35.000Z</time>
      </trkpt>
      <trkpt lat="48.6087" lon="-4.25213">
        <ele>46.400001525879</ele>
        <time>2022-08-07T07:55:36.000Z</time>
      </trkpt>
      <trkpt lat="48.60876" lon="-4.25216">
        <ele>46.200000762939</ele>
        <time>2022-08-07T07:55:37.000Z</time>
      </trkpt>
      <trkpt lat="48.60883" lon="-4.25218">
        <ele>45.799999237061</ele>
        <time>2022-08-07T07:55:38.000Z</time>
      </trkpt>
      <trkpt lat="48.6089" lon="-4.2522">
        <ele>45</ele>
        <time>2022-08-07T07:55:39.000Z</time>
      </trkpt>
      <trkpt lat="48.60896" lon="-4.25223">
        <ele>44</ele>
        <time>2022-08-07T07:55:40.000Z</time>
      </trkpt>
      <trkpt lat="48.60903" lon="-4.25227">
        <ele>43</ele>
        <time>2022-08-07T07:55:41.000Z</time>
      </trkpt>
      <trkpt lat="48.60908" lon="-4.25231">
        <ele>42.200000762939</ele>
        <time>2022-08-07T07:55:42.000Z</time>
      </trkpt>
      <trkpt lat="48.60914" lon="-4.25236">
        <ele>41.799999237061</ele>
        <time>2022-08-07T07:55:43.000Z</time>
      </trkpt>
      <trkpt lat="48.60919" lon="-4.2524">
        <ele>41.400001525879</ele>
        <time>2022-08-07T07:55:44.000Z</time>
      </trkpt>
      <trkpt lat="48.60924" lon="-4.25244">
        <ele>41.400001525879</ele>
        <time>2022-08-07T07:55:45.000Z</time>
      </trkpt>
      <trkpt lat="48.60929" lon="-4.25248">
        <ele>41.200000762939</ele>
        <time>2022-08-07T07:55:46.000Z</time>
      </trkpt>
      <trkpt lat="48.60934" lon="-4.25251">
        <ele>41.200000762939</ele>
        <time>2022-08-07T07:55:47.000Z</time>
      </trkpt>
      <trkpt lat="48.60939" lon="-4.25254">
        <ele>41.200000762939</ele>
        <time>2022-08-07T07:55:48.000Z</time>
      </trkpt>
      <trkpt lat="48.60945" lon="-4.25257">
        <ele>41.200000762939</ele>
        <time>2022-08-07T07:55:49.000Z</time>
      </trkpt>
      <trkpt lat="48.6095" lon="-4.25258">
        <ele>41.200000762939</ele>
        <time>2022-08-07T07:55:50.000Z</time>
      </trkpt>
      <trkpt lat="48.60955" lon="-4.25257">
        <ele>41.400001525879</ele>
        <time>2022-08-07T07:55:51.000Z</time>
      </trkpt>
      <trkpt lat="48.6096" lon="-4.25256">
        <ele>41.599998474121</ele>
        <time>2022-08-07T07:55:52.000Z</time>
      </trkpt>
      <trkpt lat="48.60965" lon="-4.25252">
        <ele>41.799999237061</ele>
        <time>2022-08-07T07:55:53.000Z</time>
      </trkpt>
      <trkpt lat="48.60968" lon="-4.25247">
        <ele>41.799999237061</ele>
        <time>2022-08-07T07:55:54.000Z</time>
      </trkpt>
      <trkpt lat="48.6097" lon="-4.2524">
        <ele>42</ele>
        <time>2022-08-07T07:55:55.000Z</time>
      </trkpt>
      <trkpt lat="48.60972" lon="-4.25235">
        <ele>42</ele>
        <time>2022-08-07T07:55:56.000Z</time>
      </trkpt>
      <trkpt lat="48.60974" lon="-4.25227">
        <ele>42.400001525879</ele>
        <time>2022-08-07T07:55:57.000Z</time>
      </trkpt>
      <trkpt lat="48.60975" lon="-4.2522">
        <ele>42.400001525879</ele>
        <time>2022-08-07T07:55:58.000Z</time>
      </trkpt>
      <trkpt lat="48.60977" lon="-4.25214">
        <ele>42.799999237061</ele>
        <time>2022-08-07T07:55:59.000Z</time>
      </trkpt>
      <trkpt lat="48.60978" lon="-4.25209">
        <ele>43.400001525879</ele>
        <time>2022-08-07T07:56:00.000Z</time>
      </trkpt>
      <trkpt lat="48.6098" lon="-4.25203">
        <ele>43.599998474121</ele>
        <time>2022-08-07T07:56:01.000Z</time>
      </trkpt>
      <trkpt lat="48.60981" lon="-4.25197">
        <ele>44</ele>
        <time>2022-08-07T07:56:02.000Z</time>
      </trkpt>
      <trkpt lat="48.60982" lon="-4.25191">
        <ele>44.200000762939</ele>
        <time>2022-08-07T07:56:03.000Z</time>
      </trkpt>
      <trkpt lat="48.60984" lon="-4.25185">
        <ele>44.799999237061</ele>
        <time>2022-08-07T07:56:04.000Z</time>
      </trkpt>
      <trkpt lat="48.60985" lon="-4.2518">
        <ele>45</ele>
        <time>2022-08-07T07:56:05.000Z</time>
      </trkpt>
      <trkpt lat="48.60986" lon="-4.25175">
        <ele>45.400001525879</ele>
        <time>2022-08-07T07:56:06.000Z</time>
      </trkpt>
      <trkpt lat="48.60987" lon="-4.25169">
        <ele>45.799999237061</ele>
        <time>2022-08-07T07:56:07.000Z</time>
      </trkpt>
      <trkpt lat="48.60988" lon="-4.25163">
        <ele>46.200000762939</ele>
        <time>2022-08-07T07:56:08.000Z</time>
      </trkpt>
      <trkpt lat="48.60989" lon="-4.25158">
        <ele>46.599998474121</ele>
        <time>2022-08-07T07:56:09.000Z</time>
      </trkpt>
      <trkpt lat="48.60991" lon="-4.25152">
        <ele>46.599998474121</ele>
        <time>2022-08-07T07:56:10.000Z</time>
      </trkpt>
      <trkpt lat="48.60993" lon="-4.25146">
        <ele>47</ele>
        <time>2022-08-07T07:56:11.000Z</time>
      </trkpt>
      <trkpt lat="48.60995" lon="-4.2514">
        <ele>47.200000762939</ele>
        <time>2022-08-07T07:56:12.000Z</time>
      </trkpt>
      <trkpt lat="48.60996" lon="-4.25135">
        <ele>47.799999237061</ele>
        <time>2022-08-07T07:56:13.000Z</time>
      </trkpt>
      <trkpt lat="48.60997" lon="-4.25129">
        <ele>48</ele>
        <time>2022-08-07T07:56:14.000Z</time>
      </trkpt>
      <trkpt lat="48.60999" lon="-4.25123">
        <ele>48.200000762939</ele>
        <time>2022-08-07T07:56:15.000Z</time>
      </trkpt>
      <trkpt lat="48.61" lon="-4.25118">
        <ele>48.400001525879</ele>
        <time>2022-08-07T07:56:16.000Z</time>
      </trkpt>
      <trkpt lat="48.61001" lon="-4.25112">
        <ele>48.799999237061</ele>
        <time>2022-08-07T07:56:17.000Z</time>
      </trkpt>
      <trkpt lat="48.61003" lon="-4.25106">
        <ele>49.200000762939</ele>
        <time>2022-08-07T07:56:18.000Z</time>
      </trkpt>
      <trkpt lat="48.61004" lon="-4.25102">
        <ele>49.400001525879</ele>
        <time>2022-08-07T07:56:19.000Z</time>
      </trkpt>
      <trkpt lat="48.61005" lon="-4.25095">
        <ele>49.799999237061</ele>
        <time>2022-08-07T07:56:20.000Z</time>
      </trkpt>
      <trkpt lat="48.61007" lon="-4.25089">
        <ele>50</ele>
        <time>2022-08-07T07:56:21.000Z</time>
      </trkpt>
      <trkpt lat="48.61009" lon="-4.25084">
        <ele>50.400001525879</ele>
        <time>2022-08-07T07:56:22.000Z</time>
      </trkpt>
      <trkpt lat="48.6101" lon="-4.25078">
        <ele>50.599998474121</ele>
        <time>2022-08-07T07:56:23.000Z</time>
      </trkpt>
      <trkpt lat="48.61012" lon="-4.25072">
        <ele>50.799999237061</ele>
        <time>2022-08-07T07:56:24.000Z</time>
      </trkpt>
      <trkpt lat="48.61014" lon="-4.25067">
        <ele>50.799999237061</ele>
        <time>2022-08-07T07:56:25.000Z</time>
      </trkpt>
      <trkpt lat="48.61016" lon="-4.25062">
        <ele>51.200000762939</ele>
        <time>2022-08-07T07:56:26.000Z</time>
      </trkpt>
      <trkpt lat="48.61017" lon="-4.25056">
        <ele>51.200000762939</ele>
        <time>2022-08-07T07:56:27.000Z</time>
      </trkpt>
      <trkpt lat="48.61018" lon="-4.25052">
        <ele>51.400001525879</ele>
        <time>2022-08-07T07:56:28.000Z</time>
      </trkpt>
      <trkpt lat="48.6102" lon="-4.25045">
        <ele>51.799999237061</ele>
        <time>2022-08-07T07:56:29.000Z</time>
      </trkpt>
      <trkpt lat="48.61021" lon="-4.2504">
        <ele>51.799999237061</ele>
        <time>2022-08-07T07:56:30.000Z</time>
      </trkpt>
      <trkpt lat="48.61023" lon="-4.25034">
        <ele>52.200000762939</ele>
        <time>2022-08-07T07:56:31.000Z</time>
      </trkpt>
      <trkpt lat="48.61024" lon="-4.25029">
        <ele>52.200000762939</ele>
        <time>2022-08-07T07:56:32.000Z</time>
      </trkpt>
      <trkpt lat="48.61026" lon="-4.25024">
        <ele>52.599998474121</ele>
        <time>2022-08-07T07:56:33.000Z</time>
      </trkpt>
      <trkpt lat="48.61027" lon="-4.25018">
        <ele>52.799999237061</ele>
        <time>2022-08-07T07:56:34.000Z</time>
      </trkpt>
      <trkpt lat="48.61029" lon="-4.25013">
        <ele>53</ele>
        <time>2022-08-07T07:56:35.000Z</time>
      </trkpt>
      <trkpt lat="48.6103" lon="-4.25007">
        <ele>53</ele>
        <time>2022-08-07T07:56:36.000Z</time>
      </trkpt>
      <trkpt lat="48.61031" lon="-4.25003">
        <ele>53.200000762939</ele>
        <time>2022-08-07T07:56:37.000Z</time>
      </trkpt>
      <trkpt lat="48.61032" lon="-4.24997">
        <ele>53.400001525879</ele>
        <time>2022-08-07T07:56:38.000Z</time>
      </trkpt>
      <trkpt lat="48.61033" lon="-4.24991">
        <ele>53.599998474121</ele>
        <time>2022-08-07T07:56:39.000Z</time>
      </trkpt>
      <trkpt lat="48.61034" lon="-4.24986">
        <ele>54</ele>
        <time>2022-08-07T07:56:40.000Z</time>
      </trkpt>
      <trkpt lat="48.61035" lon="-4.24982">
        <ele>54</ele>
        <time>2022-08-07T07:56:41.000Z</time>
      </trkpt>
      <trkpt lat="48.61036" lon="-4.24977">
        <ele>54.200000762939</ele>
        <time>2022-08-07T07:56:42.000Z</time>
      </trkpt>
      <trkpt lat="48.61037" lon="-4.24972">
        <ele>54.200000762939</ele>
        <time>2022-08-07T07:56:43.000Z</time>
      </trkpt>
      <trkpt lat="48.61038" lon="-4.24967">
        <ele>54.400001525879</ele>
        <time>2022-08-07T07:56:44.000Z</time>
      </trkpt>
      <trkpt lat="48.61039" lon="-4.24963">
        <ele>54.599998474121</ele>
        <time>2022-08-07T07:56:45.000Z</time>
      </trkpt>
      <trkpt lat="48.61039" lon="-4.24959">
        <ele>54.599998474121</ele>
        <time>2022-08-07T07:56:46.000Z</time>
      </trkpt>
      <trkpt lat="48.6104" lon="-4.24954">
        <ele>55.200000762939</ele>
        <time>2022-08-07T07:56:47.000Z</time>
      </trkpt>
      <trkpt lat="48.61041" lon="-4.24949">
        <ele>55.400001525879</ele>
        <time>2022-08-07T07:56:48.000Z</time>
      </trkpt>
      <trkpt lat="48.61042" lon="-4.24945">
        <ele>55.799999237061</ele>
        <time>2022-08-07T07:56:49.000Z</time>
      </trkpt>
      <trkpt lat="48.61043" lon="-4.2494">
        <ele>55.799999237061</ele>
        <time>2022-08-07T07:56:50.000Z</time>
      </trkpt>
      <trkpt lat="48.61044" lon="-4.24936">
        <ele>56</ele>
        <time>2022-08-07T07:56:51.000Z</time>
      </trkpt>
      <trkpt lat="48.61045" lon="-4.24931">
        <ele>56.400001525879</ele>
        <time>2022-08-07T07:56:52.000Z</time>
      </trkpt>
      <trkpt lat="48.61046" lon="-4.24927">
        <ele>56.599998474121</ele>
        <time>2022-08-07T07:56:53.000Z</time>
      </trkpt>
      <trkpt lat="48.61047" lon="-4.24923">
        <ele>56.599998474121</ele>
        <time>2022-08-07T07:56:54.000Z</time>
      </trkpt>
      <trkpt lat="48.61048" lon="-4.24919">
        <ele>56.799999237061</ele>
        <time>2022-08-07T07:56:55.000Z</time>
      </trkpt>
      <trkpt lat="48.61049" lon="-4.24915">
        <ele>57</ele>
        <time>2022-08-07T07:56:56.000Z</time>
      </trkpt>
      <trkpt lat="48.6105" lon="-4.24911">
        <ele>57</ele>
        <time>2022-08-07T07:56:57.000Z</time>
      </trkpt>
      <trkpt lat="48.61051" lon="-4.24907">
        <ele>57.200000762939</ele>
        <time>2022-08-07T07:56:58.000Z</time>
      </trkpt>
      <trkpt lat="48.61052" lon="-4.24903">
        <ele>57.400001525879</ele>
        <time>2022-08-07T07:56:59.000Z</time>
      </trkpt>
      <trkpt lat="48.61053" lon="-4.249">
        <ele>57.799999237061</ele>
        <time>2022-08-07T07:57:00.000Z</time>
      </trkpt>
      <trkpt lat="48.61054" lon="-4.24896">
        <ele>57.799999237061</ele>
        <time>2022-08-07T07:57:01.000Z</time>
      </trkpt>
      <trkpt lat="48.61055" lon="-4.24892">
        <ele>58.200000762939</ele>
        <time>2022-08-07T07:57:02.000Z</time>
      </trkpt>
      <trkpt lat="48.61056" lon="-4.24889">
        <ele>58.200000762939</ele>
        <time>2022-08-07T07:57:03.000Z</time>
      </trkpt>
      <trkpt lat="48.61056" lon="-4.24884">
        <ele>58.400001525879</ele>
        <time>2022-08-07T07:57:04.000Z</time>
      </trkpt>
      <trkpt lat="48.61057" lon="-4.24881">
        <ele>58.799999237061</ele>
        <time>2022-08-07T07:57:05.000Z</time>
      </trkpt>
      <trkpt lat="48.61058" lon="-4.24877">
        <ele>59</ele>
        <time>2022-08-07T07:57:06.000Z</time>
      </trkpt>
      <trkpt lat="48.61059" lon="-4.24873">
        <ele>59.200000762939</ele>
        <time>2022-08-07T07:57:07.000Z</time>
      </trkpt>
      <trkpt lat="48.6106" lon="-4.2487">
        <ele>59.400001525879</ele>
        <time>2022-08-07T07:57:08.000Z</time>
      </trkpt>
      <trkpt lat="48.61061" lon="-4.24866">
        <ele>59.599998474121</ele>
        <time>2022-08-07T07:57:09.000Z</time>
      </trkpt>
      <trkpt lat="48.61062" lon="-4.24861">
        <ele>59.799999237061</ele>
        <time>2022-08-07T07:57:10.000Z</time>
      </trkpt>
      <trkpt lat="48.61063" lon="-4.24858">
        <ele>60.200000762939</ele>
        <time>2022-08-07T07:57:11.000Z</time>
      </trkpt>
      <trkpt lat="48.61064" lon="-4.24854">
        <ele>60.400001525879</ele>
        <time>2022-08-07T07:57:12.000Z</time>
      </trkpt>
      <trkpt lat="48.61065" lon="-4.2485">
        <ele>60.599998474121</ele>
        <time>2022-08-07T07:57:13.000Z</time>
      </trkpt>
      <trkpt lat="48.61066" lon="-4.24847">
        <ele>60.799999237061</ele>
        <time>2022-08-07T07:57:14.000Z</time>
      </trkpt>
      <trkpt lat="48.61066" lon="-4.24843">
        <ele>61</ele>
        <time>2022-08-07T07:57:15.000Z</time>
      </trkpt>
      <trkpt lat="48.61067" lon="-4.24839">
        <ele>61.200000762939</ele>
        <time>2022-08-07T07:57:16.000Z</time>
      </trkpt>
      <trkpt lat="48.61068" lon="-4.24835">
        <ele>61.200000762939</ele>
        <time>2022-08-07T07:57:17.000Z</time>
      </trkpt>
      <trkpt lat="48.61069" lon="-4.24831">
        <ele>61.599998474121</ele>
        <time>2022-08-07T07:57:18.000Z</time>
      </trkpt>
      <trkpt lat="48.6107" lon="-4.24828">
        <ele>61.599998474121</ele>
        <time>2022-08-07T07:57:19.000Z</time>
      </trkpt>
      <trkpt lat="48.61072" lon="-4.24824">
        <ele>61.799999237061</ele>
        <time>2022-08-07T07:57:20.000Z</time>
      </trkpt>
      <trkpt lat="48.61073" lon="-4.2482">
        <ele>62</ele>
        <time>2022-08-07T07:57:21.000Z</time>
      </trkpt>
      <trkpt lat="48.61074" lon="-4.24817">
        <ele>62.200000762939</ele>
        <time>2022-08-07T07:57:22.000Z</time>
      </trkpt>
      <trkpt lat="48.61075" lon="-4.24814">
        <ele>62.200000762939</ele>
        <time>2022-08-07T07:57:23.000Z</time>
      </trkpt>
      <trkpt lat="48.61076" lon="-4.2481">
        <ele>62.400001525879</ele>
        <time>2022-08-07T07:57:24.000Z</time>
      </trkpt>
      <trkpt lat="48.61078" lon="-4.24806">
        <ele>62.799999237061</ele>
        <time>2022-08-07T07:57:25.000Z</time>
      </trkpt>
      <trkpt lat="48.61079" lon="-4.24802">
        <ele>62.799999237061</ele>
        <time>2022-08-07T07:57:26.000Z</time>
      </trkpt>
      <trkpt lat="48.6108" lon="-4.24799">
        <ele>63</ele>
        <time>2022-08-07T07:57:27.000Z</time>
      </trkpt>
      <trkpt lat="48.61082" lon="-4.24795">
        <ele>63.200000762939</ele>
        <time>2022-08-07T07:57:28.000Z</time>
      </trkpt>
      <trkpt lat="48.61083" lon="-4.24791">
        <ele>63.400001525879</ele>
        <time>2022-08-07T07:57:29.000Z</time>
      </trkpt>
      <trkpt lat="48.61085" lon="-4.24787">
        <ele>63.599998474121</ele>
        <time>2022-08-07T07:57:30.000Z</time>
      </trkpt>
      <trkpt lat="48.61086" lon="-4.24783">
        <ele>63.599998474121</ele>
        <time>2022-08-07T07:57:31.000Z</time>
      </trkpt>
      <trkpt lat="48.61088" lon="-4.2478">
        <ele>63.799999237061</ele>
        <time>2022-08-07T07:57:32.000Z</time>
      </trkpt>
      <trkpt lat="48.61089" lon="-4.24777">
        <ele>64</ele>
        <time>2022-08-07T07:57:33.000Z</time>
      </trkpt>
      <trkpt lat="48.6109" lon="-4.24773">
        <ele>64.400001525879</ele>
        <time>2022-08-07T07:57:34.000Z</time>
      </trkpt>
      <trkpt lat="48.61091" lon="-4.24769">
        <ele>64.400001525879</ele>
        <time>2022-08-07T07:57:35.000Z</time>
      </trkpt>
      <trkpt lat="48.61093" lon="-4.24765">
        <ele>64.599998474121</ele>
        <time>2022-08-07T07:57:36.000Z</time>
      </trkpt>
      <trkpt lat="48.61094" lon="-4.24761">
        <ele>64.599998474121</ele>
        <time>2022-08-07T07:57:37.000Z</time>
      </trkpt>
      <trkpt lat="48.61096" lon="-4.24757">
        <ele>64.599998474121</ele>
        <time>2022-08-07T07:57:38.000Z</time>
      </trkpt>
      <trkpt lat="48.61097" lon="-4.24752">
        <ele>64.599998474121</ele>
        <time>2022-08-07T07:57:39.000Z</time>
      </trkpt>
      <trkpt lat="48.61099" lon="-4.24748">
        <ele>64.599998474121</ele>
        <time>2022-08-07T07:57:40.000Z</time>
      </trkpt>
      <trkpt lat="48.61101" lon="-4.24743">
        <ele>64.800003051758</ele>
        <time>2022-08-07T07:57:41.000Z</time>
      </trkpt>
      <trkpt lat="48.61102" lon="-4.2474">
        <ele>64.800003051758</ele>
        <time>2022-08-07T07:57:42.000Z</time>
      </trkpt>
      <trkpt lat="48.61104" lon="-4.24735">
        <ele>64.800003051758</ele>
        <time>2022-08-07T07:57:43.000Z</time>
      </trkpt>
      <trkpt lat="48.61106" lon="-4.2473">
        <ele>64.800003051758</ele>
        <time>2022-08-07T07:57:44.000Z</time>
      </trkpt>
      <trkpt lat="48.61108" lon="-4.24725">
        <ele>64.800003051758</ele>
        <time>2022-08-07T07:57:45.000Z</time>
      </trkpt>
      <trkpt lat="48.6111" lon="-4.2472">
        <ele>65</ele>
        <time>2022-08-07T07:57:46.000Z</time>
      </trkpt>
      <trkpt lat="48.61111" lon="-4.24716">
        <ele>65.199996948242</ele>
        <time>2022-08-07T07:57:47.000Z</time>
      </trkpt>
      <trkpt lat="48.61114" lon="-4.2471">
        <ele>65.199996948242</ele>
        <time>2022-08-07T07:57:48.000Z</time>
      </trkpt>
      <trkpt lat="48.61116" lon="-4.24705">
        <ele>65.400001525879</ele>
        <time>2022-08-07T07:57:49.000Z</time>
      </trkpt>
      <trkpt lat="48.61118" lon="-4.247">
        <ele>65.400001525879</ele>
        <time>2022-08-07T07:57:50.000Z</time>
      </trkpt>
      <trkpt lat="48.6112" lon="-4.24696">
        <ele>65.400001525879</ele>
        <time>2022-08-07T07:57:51.000Z</time>
      </trkpt>
      <trkpt lat="48.61123" lon="-4.24691">
        <ele>65.400001525879</ele>
        <time>2022-08-07T07:57:52.000Z</time>
      </trkpt>
      <trkpt lat="48.61127" lon="-4.24688">
        <ele>65.400001525879</ele>
        <time>2022-08-07T07:57:53.000Z</time>
      </trkpt>
      <trkpt lat="48.61131" lon="-4.24686">
        <ele>65.199996948242</ele>
        <time>2022-08-07T07:57:54.000Z</time>
      </trkpt>
      <trkpt lat="48.61136" lon="-4.24685">
        <ele>65</ele>
        <time>2022-08-07T07:57:55.000Z</time>
      </trkpt>
      <trkpt lat="48.6114" lon="-4.24686">
        <ele>64.800003051758</ele>
        <time>2022-08-07T07:57:56.000Z</time>
      </trkpt>
      <trkpt lat="48.61145" lon="-4.24688">
        <ele>64.800003051758</ele>
        <time>2022-08-07T07:57:57.000Z</time>
      </trkpt>
      <trkpt lat="48.6115" lon="-4.2469">
        <ele>64.599998474121</ele>
        <time>2022-08-07T07:57:58.000Z</time>
      </trkpt>
      <trkpt lat="48.61155" lon="-4.24692">
        <ele>64.400001525879</ele>
        <time>2022-08-07T07:57:59.000Z</time>
      </trkpt>
      <trkpt lat="48.61159" lon="-4.24694">
        <ele>64.199996948242</ele>
        <time>2022-08-07T07:58:00.000Z</time>
      </trkpt>
      <trkpt lat="48.61165" lon="-4.24697">
        <ele>64</ele>
        <time>2022-08-07T07:58:01.000Z</time>
      </trkpt>
      <trkpt lat="48.61171" lon="-4.24699">
        <ele>63.799999237061</ele>
        <time>2022-08-07T07:58:02.000Z</time>
      </trkpt>
      <trkpt lat="48.61176" lon="-4.24702">
        <ele>63.799999237061</ele>
        <time>2022-08-07T07:58:03.000Z</time>
      </trkpt>
      <trkpt lat="48.61181" lon="-4.24704">
        <ele>63.599998474121</ele>
        <time>2022-08-07T07:58:04.000Z</time>
      </trkpt>
      <trkpt lat="48.61187" lon="-4.24707">
        <ele>63.599998474121</ele>
        <time>2022-08-07T07:58:05.000Z</time>
      </trkpt>
      <trkpt lat="48.61192" lon="-4.24709">
        <ele>63.400001525879</ele>
        <time>2022-08-07T07:58:06.000Z</time>
      </trkpt>
      <trkpt lat="48.61198" lon="-4.24711">
        <ele>63.400001525879</ele>
        <time>2022-08-07T07:58:07.000Z</time>
      </trkpt>
      <trkpt lat="48.61202" lon="-4.24713">
        <ele>63.400001525879</ele>
        <time>2022-08-07T07:58:08.000Z</time>
      </trkpt>
      <trkpt lat="48.61208" lon="-4.24716">
        <ele>63.200000762939</ele>
        <time>2022-08-07T07:58:09.000Z</time>
      </trkpt>
      <trkpt lat="48.61214" lon="-4.24719">
        <ele>63.200000762939</ele>
        <time>2022-08-07T07:58:10.000Z</time>
      </trkpt>
      <trkpt lat="48.6122" lon="-4.24722">
        <ele>63</ele>
        <time>2022-08-07T07:58:11.000Z</time>
      </trkpt>
      <trkpt lat="48.61225" lon="-4.24725">
        <ele>63</ele>
        <time>2022-08-07T07:58:12.000Z</time>
      </trkpt>
      <trkpt lat="48.6123" lon="-4.24728">
        <ele>62.799999237061</ele>
        <time>2022-08-07T07:58:13.000Z</time>
      </trkpt>
      <trkpt lat="48.61235" lon="-4.24732">
        <ele>62.599998474121</ele>
        <time>2022-08-07T07:58:14.000Z</time>
      </trkpt>
      <trkpt lat="48.6124" lon="-4.24737">
        <ele>62.599998474121</ele>
        <time>2022-08-07T07:58:15.000Z</time>
      </trkpt>
      <trkpt lat="48.61244" lon="-4.24742">
        <ele>62.599998474121</ele>
        <time>2022-08-07T07:58:16.000Z</time>
      </trkpt>
      <trkpt lat="48.61249" lon="-4.24747">
        <ele>62.400001525879</ele>
        <time>2022-08-07T07:58:17.000Z</time>
      </trkpt>
      <trkpt lat="48.61253" lon="-4.24753">
        <ele>62.400001525879</ele>
        <time>2022-08-07T07:58:18.000Z</time>
      </trkpt>
      <trkpt lat="48.61258" lon="-4.24759">
        <ele>62.200000762939</ele>
        <time>2022-08-07T07:58:19.000Z</time>
      </trkpt>
      <trkpt lat="48.61261" lon="-4.24764">
        <ele>62.200000762939</ele>
        <time>2022-08-07T07:58:20.000Z</time>
      </trkpt>
      <trkpt lat="48.61265" lon="-4.24769">
        <ele>62</ele>
        <time>2022-08-07T07:58:21.000Z</time>
      </trkpt>
      <trkpt lat="48.61269" lon="-4.24773">
        <ele>62</ele>
        <time>2022-08-07T07:58:22.000Z</time>
      </trkpt>
      <trkpt lat="48.61272" lon="-4.24775">
        <ele>61.799999237061</ele>
        <time>2022-08-07T07:58:23.000Z</time>
      </trkpt>
      <trkpt lat="48.61274" lon="-4.24777">
        <ele>61.799999237061</ele>
        <time>2022-08-07T07:58:24.000Z</time>
      </trkpt>
      <trkpt lat="48.61276" lon="-4.24779">
        <ele>61.400001525879</ele>
        <time>2022-08-07T07:58:25.000Z</time>
      </trkpt>
      <trkpt lat="48.61278" lon="-4.2478">
        <ele>61.400001525879</ele>
        <time>2022-08-07T07:58:26.000Z</time>
      </trkpt>
      <trkpt lat="48.61279" lon="-4.24781">
        <ele>61.200000762939</ele>
        <time>2022-08-07T07:58:27.000Z</time>
      </trkpt>
      <trkpt lat="48.6128" lon="-4.24781">
        <ele>61.200000762939</ele>
        <time>2022-08-07T07:58:28.000Z</time>
      </trkpt>
      <trkpt lat="48.6128" lon="-4.24785">
        <ele>59.599998474121</ele>
        <time>2022-08-07T07:59:41.000Z</time>
      </trkpt>
      <trkpt lat="48.61279" lon="-4.2479">
        <ele>59.599998474121</ele>
        <time>2022-08-07T07:59:42.000Z</time>
      </trkpt>
      <trkpt lat="48.6128" lon="-4.24794">
        <ele>59.599998474121</ele>
        <time>2022-08-07T07:59:43.000Z</time>
      </trkpt>
      <trkpt lat="48.6128" lon="-4.24799">
        <ele>59.599998474121</ele>
        <time>2022-08-07T07:59:44.000Z</time>
      </trkpt>
      <trkpt lat="48.61281" lon="-4.24804">
        <ele>59.599998474121</ele>
        <time>2022-08-07T07:59:45.000Z</time>
      </trkpt>
      <trkpt lat="48.61282" lon="-4.24811">
        <ele>59.599998474121</ele>
        <time>2022-08-07T07:59:46.000Z</time>
      </trkpt>
      <trkpt lat="48.61283" lon="-4.24817">
        <ele>59.599998474121</ele>
        <time>2022-08-07T07:59:47.000Z</time>
      </trkpt>
      <trkpt lat="48.61284" lon="-4.24823">
        <ele>59.599998474121</ele>
        <time>2022-08-07T07:59:48.000Z</time>
      </trkpt>
      <trkpt lat="48.61286" lon="-4.24828">
        <ele>59.400001525879</ele>
        <time>2022-08-07T07:59:49.000Z</time>
      </trkpt>
      <trkpt lat="48.61288" lon="-4.24834">
        <ele>59</ele>
        <time>2022-08-07T07:59:50.000Z</time>
      </trkpt>
      <trkpt lat="48.6129" lon="-4.2484">
        <ele>58.799999237061</ele>
        <time>2022-08-07T07:59:51.000Z</time>
      </trkpt>
      <trkpt lat="48.61292" lon="-4.24846">
        <ele>58.799999237061</ele>
        <time>2022-08-07T07:59:52.000Z</time>
      </trkpt>
      <trkpt lat="48.61294" lon="-4.24852">
        <ele>58.200000762939</ele>
        <time>2022-08-07T07:59:53.000Z</time>
      </trkpt>
      <trkpt lat="48.61296" lon="-4.24859">
        <ele>58.200000762939</ele>
        <time>2022-08-07T07:59:54.000Z</time>
      </trkpt>
      <trkpt lat="48.61298" lon="-4.24867">
        <ele>57.799999237061</ele>
        <time>2022-08-07T07:59:55.000Z</time>
      </trkpt>
      <trkpt lat="48.61299" lon="-4.24876">
        <ele>57.799999237061</ele>
        <time>2022-08-07T07:59:56.000Z</time>
      </trkpt>
      <trkpt lat="48.61299" lon="-4.24886">
        <ele>57.599998474121</ele>
        <time>2022-08-07T07:59:57.000Z</time>
      </trkpt>
      <trkpt lat="48.61299" lon="-4.24897">
        <ele>57.599998474121</ele>
        <time>2022-08-07T07:59:58.000Z</time>
      </trkpt>
      <trkpt lat="48.61299" lon="-4.24907">
        <ele>57.200000762939</ele>
        <time>2022-08-07T07:59:59.000Z</time>
      </trkpt>
      <trkpt lat="48.61299" lon="-4.24918">
        <ele>57.200000762939</ele>
        <time>2022-08-07T08:00:00.000Z</time>
      </trkpt>
      <trkpt lat="48.613" lon="-4.24929">
        <ele>56.799999237061</ele>
        <time>2022-08-07T08:00:01.000Z</time>
      </trkpt>
      <trkpt lat="48.613" lon="-4.24941">
        <ele>56.400001525879</ele>
        <time>2022-08-07T08:00:02.000Z</time>
      </trkpt>
      <trkpt lat="48.61301" lon="-4.24952">
        <ele>56.200000762939</ele>
        <time>2022-08-07T08:00:03.000Z</time>
      </trkpt>
      <trkpt lat="48.61301" lon="-4.24962">
        <ele>55.799999237061</ele>
        <time>2022-08-07T08:00:04.000Z</time>
      </trkpt>
      <trkpt lat="48.61302" lon="-4.24972">
        <ele>55.599998474121</ele>
        <time>2022-08-07T08:00:05.000Z</time>
      </trkpt>
      <trkpt lat="48.61304" lon="-4.2498">
        <ele>55</ele>
        <time>2022-08-07T08:00:06.000Z</time>
      </trkpt>
      <trkpt lat="48.61307" lon="-4.24986">
        <ele>55</ele>
        <time>2022-08-07T08:00:07.000Z</time>
      </trkpt>
      <trkpt lat="48.61312" lon="-4.24992">
        <ele>54.599998474121</ele>
        <time>2022-08-07T08:00:08.000Z</time>
      </trkpt>
      <trkpt lat="48.61315" lon="-4.24995">
        <ele>54.400001525879</ele>
        <time>2022-08-07T08:00:09.000Z</time>
      </trkpt>
      <trkpt lat="48.61321" lon="-4.24998">
        <ele>54.400001525879</ele>
        <time>2022-08-07T08:00:10.000Z</time>
      </trkpt>
      <trkpt lat="48.61324" lon="-4.25">
        <ele>54</ele>
        <time>2022-08-07T08:00:11.000Z</time>
      </trkpt>
      <trkpt lat="48.61327" lon="-4.25004">
        <ele>54</ele>
        <time>2022-08-07T08:00:12.000Z</time>
      </trkpt>
      <trkpt lat="48.61328" lon="-4.25007">
        <ele>53.799999237061</ele>
        <time>2022-08-07T08:00:13.000Z</time>
      </trkpt>
      <trkpt lat="48.61329" lon="-4.25012">
        <ele>53.599998474121</ele>
        <time>2022-08-07T08:00:14.000Z</time>
      </trkpt>
      <trkpt lat="48.6133" lon="-4.25018">
        <ele>53.599998474121</ele>
        <time>2022-08-07T08:00:15.000Z</time>
      </trkpt>
      <trkpt lat="48.6133" lon="-4.25024">
        <ele>53.599998474121</ele>
        <time>2022-08-07T08:00:16.000Z</time>
      </trkpt>
      <trkpt lat="48.6133" lon="-4.2503">
        <ele>53.400001525879</ele>
        <time>2022-08-07T08:00:17.000Z</time>
      </trkpt>
      <trkpt lat="48.61329" lon="-4.25037">
        <ele>53.400001525879</ele>
        <time>2022-08-07T08:00:18.000Z</time>
      </trkpt>
      <trkpt lat="48.61327" lon="-4.25044">
        <ele>53.400001525879</ele>
        <time>2022-08-07T08:00:19.000Z</time>
      </trkpt>
      <trkpt lat="48.61324" lon="-4.25049">
        <ele>53.400001525879</ele>
        <time>2022-08-07T08:00:20.000Z</time>
      </trkpt>
      <trkpt lat="48.61321" lon="-4.25051">
        <ele>53.200000762939</ele>
        <time>2022-08-07T08:00:21.000Z</time>
      </trkpt>
      <trkpt lat="48.61317" lon="-4.25052">
        <ele>53.200000762939</ele>
        <time>2022-08-07T08:00:22.000Z</time>
      </trkpt>
      <trkpt lat="48.61313" lon="-4.25052">
        <ele>53.200000762939</ele>
        <time>2022-08-07T08:00:23.000Z</time>
      </trkpt>
      <trkpt lat="48.61309" lon="-4.25051">
        <ele>53.200000762939</ele>
        <time>2022-08-07T08:00:24.000Z</time>
      </trkpt>
      <trkpt lat="48.61306" lon="-4.25051">
        <ele>53</ele>
        <time>2022-08-07T08:00:25.000Z</time>
      </trkpt>
      <trkpt lat="48.61302" lon="-4.2505">
        <ele>53</ele>
        <time>2022-08-07T08:00:26.000Z</time>
      </trkpt>
      <trkpt lat="48.61298" lon="-4.2505">
        <ele>53</ele>
        <time>2022-08-07T08:00:27.000Z</time>
      </trkpt>
      <trkpt lat="48.61295" lon="-4.2505">
        <ele>53</ele>
        <time>2022-08-07T08:00:28.000Z</time>
      </trkpt>
      <trkpt lat="48.6129" lon="-4.2505">
        <ele>53</ele>
        <time>2022-08-07T08:00:29.000Z</time>
      </trkpt>
      <trkpt lat="48.61286" lon="-4.2505">
        <ele>52.599998474121</ele>
        <time>2022-08-07T08:00:30.000Z</time>
      </trkpt>
      <trkpt lat="48.61283" lon="-4.2505">
        <ele>52.599998474121</ele>
        <time>2022-08-07T08:00:31.000Z</time>
      </trkpt>
      <trkpt lat="48.61279" lon="-4.2505">
        <ele>52.599998474121</ele>
        <time>2022-08-07T08:00:32.000Z</time>
      </trkpt>
      <trkpt lat="48.61275" lon="-4.25051">
        <ele>52.400001525879</ele>
        <time>2022-08-07T08:00:33.000Z</time>
      </trkpt>
      <trkpt lat="48.6127" lon="-4.25051">
        <ele>52.400001525879</ele>
        <time>2022-08-07T08:00:34.000Z</time>
      </trkpt>
      <trkpt lat="48.61265" lon="-4.25052">
        <ele>52.400001525879</ele>
        <time>2022-08-07T08:00:35.000Z</time>
      </trkpt>
      <trkpt lat="48.61262" lon="-4.25052">
        <ele>52.400001525879</ele>
        <time>2022-08-07T08:00:36.000Z</time>
      </trkpt>
      <trkpt lat="48.61257" lon="-4.25051">
        <ele>52.400001525879</ele>
        <time>2022-08-07T08:00:37.000Z</time>
      </trkpt>
      <trkpt lat="48.61253" lon="-4.25051">
        <ele>52.400001525879</ele>
        <time>2022-08-07T08:00:38.000Z</time>
      </trkpt>
      <trkpt lat="48.6125" lon="-4.25052">
        <ele>52</ele>
        <time>2022-08-07T08:00:39.000Z</time>
      </trkpt>
      <trkpt lat="48.61247" lon="-4.25052">
        <ele>51.799999237061</ele>
        <time>2022-08-07T08:00:40.000Z</time>
      </trkpt>
      <trkpt lat="48.61245" lon="-4.25052">
        <ele>51.799999237061</ele>
        <time>2022-08-07T08:00:41.000Z</time>
      </trkpt>
      <trkpt lat="48.61243" lon="-4.25052">
        <ele>51</ele>
        <time>2022-08-07T08:00:42.000Z</time>
      </trkpt>
      <trkpt lat="48.6124" lon="-4.25053">
        <ele>50.799999237061</ele>
        <time>2022-08-07T08:00:43.000Z</time>
      </trkpt>
      <trkpt lat="48.61237" lon="-4.25053">
        <ele>50.400001525879</ele>
        <time>2022-08-07T08:00:44.000Z</time>
      </trkpt>
      <trkpt lat="48.61234" lon="-4.25053">
        <ele>49.799999237061</ele>
        <time>2022-08-07T08:00:45.000Z</time>
      </trkpt>
      <trkpt lat="48.61232" lon="-4.25054">
        <ele>49.400001525879</ele>
        <time>2022-08-07T08:00:46.000Z</time>
      </trkpt>
      <trkpt lat="48.6123" lon="-4.25056">
        <ele>49.200000762939</ele>
        <time>2022-08-07T08:00:47.000Z</time>
      </trkpt>
      <trkpt lat="48.61228" lon="-4.25059">
        <ele>48.799999237061</ele>
        <time>2022-08-07T08:00:48.000Z</time>
      </trkpt>
      <trkpt lat="48.61227" lon="-4.25061">
        <ele>48.400001525879</ele>
        <time>2022-08-07T08:00:49.000Z</time>
      </trkpt>
      <trkpt lat="48.61226" lon="-4.25063">
        <ele>48.400001525879</ele>
        <time>2022-08-07T08:00:50.000Z</time>
      </trkpt>
      <trkpt lat="48.61224" lon="-4.25064">
        <ele>48.200000762939</ele>
        <time>2022-08-07T08:00:51.000Z</time>
      </trkpt>
      <trkpt lat="48.61223" lon="-4.25065">
        <ele>48</ele>
        <time>2022-08-07T08:00:52.000Z</time>
      </trkpt>
      <trkpt lat="48.61222" lon="-4.25066">
        <ele>47.799999237061</ele>
        <time>2022-08-07T08:00:53.000Z</time>
      </trkpt>
      <trkpt lat="48.6122" lon="-4.25067">
        <ele>47.799999237061</ele>
        <time>2022-08-07T08:00:54.000Z</time>
      </trkpt>
      <trkpt lat="48.61218" lon="-4.25069">
        <ele>47.200000762939</ele>
        <time>2022-08-07T08:00:55.000Z</time>
      </trkpt>
      <trkpt lat="48.61217" lon="-4.2507">
        <ele>47.200000762939</ele>
        <time>2022-08-07T08:00:56.000Z</time>
      </trkpt>
      <trkpt lat="48.61216" lon="-4.2507">
        <ele>46.599998474121</ele>
        <time>2022-08-07T08:00:57.000Z</time>
      </trkpt>
      <trkpt lat="48.61215" lon="-4.25071">
        <ele>45.200000762939</ele>
        <time>2022-08-07T08:08:25.000Z</time>
      </trkpt>
      <trkpt lat="48.61216" lon="-4.25074">
        <ele>45</ele>
        <time>2022-08-07T08:08:54.000Z</time>
      </trkpt>
      <trkpt lat="48.61218" lon="-4.25069">
        <ele>45.799999237061</ele>
        <time>2022-08-07T08:09:18.000Z</time>
      </trkpt>
      <trkpt lat="48.61219" lon="-4.25067">
        <ele>45.799999237061</ele>
        <time>2022-08-07T08:09:19.000Z</time>
      </trkpt>
      <trkpt lat="48.6122" lon="-4.25066">
        <ele>45.799999237061</ele>
        <time>2022-08-07T08:09:20.000Z</time>
      </trkpt>
      <trkpt lat="48.61221" lon="-4.25064">
        <ele>45.799999237061</ele>
        <time>2022-08-07T08:09:21.000Z</time>
      </trkpt>
      <trkpt lat="48.61222" lon="-4.25063">
        <ele>45.799999237061</ele>
        <time>2022-08-07T08:09:22.000Z</time>
      </trkpt>
      <trkpt lat="48.61224" lon="-4.25062">
        <ele>45.799999237061</ele>
        <time>2022-08-07T08:09:23.000Z</time>
      </trkpt>
      <trkpt lat="48.61225" lon="-4.25062">
        <ele>45.799999237061</ele>
        <time>2022-08-07T08:09:24.000Z</time>
      </trkpt>
      <trkpt lat="48.61226" lon="-4.25061">
        <ele>45.799999237061</ele>
        <time>2022-08-07T08:09:25.000Z</time>
      </trkpt>
      <trkpt lat="48.61227" lon="-4.2506">
        <ele>46</ele>
        <time>2022-08-07T08:09:26.000Z</time>
      </trkpt>
      <trkpt lat="48.61228" lon="-4.2506">
        <ele>46</ele>
        <time>2022-08-07T08:09:27.000Z</time>
      </trkpt>
      <trkpt lat="48.61229" lon="-4.25059">
        <ele>46.200000762939</ele>
        <time>2022-08-07T08:09:28.000Z</time>
      </trkpt>
      <trkpt lat="48.6123" lon="-4.25057">
        <ele>46.400001525879</ele>
        <time>2022-08-07T08:09:29.000Z</time>
      </trkpt>
      <trkpt lat="48.61231" lon="-4.25056">
        <ele>46.599998474121</ele>
        <time>2022-08-07T08:09:30.000Z</time>
      </trkpt>
      <trkpt lat="48.61231" lon="-4.25054">
        <ele>46.599998474121</ele>
        <time>2022-08-07T08:09:31.000Z</time>
      </trkpt>
      <trkpt lat="48.61232" lon="-4.25053">
        <ele>46.799999237061</ele>
        <time>2022-08-07T08:09:32.000Z</time>
      </trkpt>
      <trkpt lat="48.61233" lon="-4.25052">
        <ele>46.799999237061</ele>
        <time>2022-08-07T08:09:33.000Z</time>
      </trkpt>
      <trkpt lat="48.61234" lon="-4.25051">
        <ele>47</ele>
        <time>2022-08-07T08:09:34.000Z</time>
      </trkpt>
      <trkpt lat="48.61235" lon="-4.25052">
        <ele>47.200000762939</ele>
        <time>2022-08-07T08:09:35.000Z</time>
      </trkpt>
      <trkpt lat="48.61237" lon="-4.25052">
        <ele>47.200000762939</ele>
        <time>2022-08-07T08:09:36.000Z</time>
      </trkpt>
      <trkpt lat="48.61239" lon="-4.25052">
        <ele>47.599998474121</ele>
        <time>2022-08-07T08:09:37.000Z</time>
      </trkpt>
      <trkpt lat="48.61241" lon="-4.25052">
        <ele>47.599998474121</ele>
        <time>2022-08-07T08:09:38.000Z</time>
      </trkpt>
      <trkpt lat="48.61243" lon="-4.25051">
        <ele>48</ele>
        <time>2022-08-07T08:09:39.000Z</time>
      </trkpt>
      <trkpt lat="48.61246" lon="-4.25051">
        <ele>48</ele>
        <time>2022-08-07T08:09:40.000Z</time>
      </trkpt>
      <trkpt lat="48.61248" lon="-4.25051">
        <ele>48.400001525879</ele>
        <time>2022-08-07T08:09:41.000Z</time>
      </trkpt>
      <trkpt lat="48.6125" lon="-4.25052">
        <ele>48.599998474121</ele>
        <time>2022-08-07T08:09:42.000Z</time>
      </trkpt>
      <trkpt lat="48.61253" lon="-4.25052">
        <ele>48.799999237061</ele>
        <time>2022-08-07T08:09:43.000Z</time>
      </trkpt>
      <trkpt lat="48.61255" lon="-4.25051">
        <ele>49.200000762939</ele>
        <time>2022-08-07T08:09:44.000Z</time>
      </trkpt>
      <trkpt lat="48.61258" lon="-4.25051">
        <ele>49.400001525879</ele>
        <time>2022-08-07T08:09:45.000Z</time>
      </trkpt>
      <trkpt lat="48.6126" lon="-4.25051">
        <ele>49.799999237061</ele>
        <time>2022-08-07T08:09:46.000Z</time>
      </trkpt>
      <trkpt lat="48.61263" lon="-4.25051">
        <ele>49.799999237061</ele>
        <time>2022-08-07T08:09:47.000Z</time>
      </trkpt>
      <trkpt lat="48.61265" lon="-4.25051">
        <ele>50</ele>
        <time>2022-08-07T08:09:48.000Z</time>
      </trkpt>
      <trkpt lat="48.61268" lon="-4.25051">
        <ele>50.200000762939</ele>
        <time>2022-08-07T08:09:49.000Z</time>
      </trkpt>
      <trkpt lat="48.6127" lon="-4.25051">
        <ele>50.599998474121</ele>
        <time>2022-08-07T08:09:50.000Z</time>
      </trkpt>
      <trkpt lat="48.61273" lon="-4.25051">
        <ele>50.799999237061</ele>
        <time>2022-08-07T08:09:51.000Z</time>
      </trkpt>
      <trkpt lat="48.61276" lon="-4.25051">
        <ele>51.200000762939</ele>
        <time>2022-08-07T08:09:52.000Z</time>
      </trkpt>
      <trkpt lat="48.61279" lon="-4.25051">
        <ele>51.400001525879</ele>
        <time>2022-08-07T08:09:53.000Z</time>
      </trkpt>
      <trkpt lat="48.61281" lon="-4.25051">
        <ele>51.400001525879</ele>
        <time>2022-08-07T08:09:54.000Z</time>
      </trkpt>
      <trkpt lat="48.61284" lon="-4.25051">
        <ele>51.599998474121</ele>
        <time>2022-08-07T08:09:55.000Z</time>
      </trkpt>
      <trkpt lat="48.61287" lon="-4.2505">
        <ele>51.799999237061</ele>
        <time>2022-08-07T08:09:56.000Z</time>
      </trkpt>
      <trkpt lat="48.6129" lon="-4.2505">
        <ele>52.200000762939</ele>
        <time>2022-08-07T08:09:57.000Z</time>
      </trkpt>
      <trkpt lat="48.61292" lon="-4.2505">
        <ele>52.400001525879</ele>
        <time>2022-08-07T08:09:58.000Z</time>
      </trkpt>
      <trkpt lat="48.61295" lon="-4.2505">
        <ele>52.400001525879</ele>
        <time>2022-08-07T08:09:59.000Z</time>
      </trkpt>
      <trkpt lat="48.61298" lon="-4.2505">
        <ele>52.599998474121</ele>
        <time>2022-08-07T08:10:00.000Z</time>
      </trkpt>
      <trkpt lat="48.61301" lon="-4.2505">
        <ele>52.599998474121</ele>
        <time>2022-08-07T08:10:01.000Z</time>
      </trkpt>
      <trkpt lat="48.61304" lon="-4.2505">
        <ele>52.799999237061</ele>
        <time>2022-08-07T08:10:02.000Z</time>
      </trkpt>
      <trkpt lat="48.61307" lon="-4.2505">
        <ele>52.799999237061</ele>
        <time>2022-08-07T08:10:03.000Z</time>
      </trkpt>
      <trkpt lat="48.6131" lon="-4.2505">
        <ele>52.799999237061</ele>
        <time>2022-08-07T08:10:04.000Z</time>
      </trkpt>
      <trkpt lat="48.61313" lon="-4.2505">
        <ele>53</ele>
        <time>2022-08-07T08:10:05.000Z</time>
      </trkpt>
      <trkpt lat="48.61316" lon="-4.2505">
        <ele>53</ele>
        <time>2022-08-07T08:10:06.000Z</time>
      </trkpt>
      <trkpt lat="48.61319" lon="-4.2505">
        <ele>53</ele>
        <time>2022-08-07T08:10:07.000Z</time>
      </trkpt>
      <trkpt lat="48.61322" lon="-4.25048">
        <ele>53.200000762939</ele>
        <time>2022-08-07T08:10:08.000Z</time>
      </trkpt>
      <trkpt lat="48.61324" lon="-4.25045">
        <ele>53.400001525879</ele>
        <time>2022-08-07T08:10:09.000Z</time>
      </trkpt>
      <trkpt lat="48.61327" lon="-4.25042">
        <ele>53.400001525879</ele>
        <time>2022-08-07T08:10:10.000Z</time>
      </trkpt>
      <trkpt lat="48.61328" lon="-4.25038">
        <ele>53.799999237061</ele>
        <time>2022-08-07T08:10:11.000Z</time>
      </trkpt>
      <trkpt lat="48.61329" lon="-4.25034">
        <ele>53.599998474121</ele>
        <time>2022-08-07T08:10:12.000Z</time>
      </trkpt>
      <trkpt lat="48.61329" lon="-4.2503">
        <ele>53.599998474121</ele>
        <time>2022-08-07T08:10:13.000Z</time>
      </trkpt>
      <trkpt lat="48.6133" lon="-4.25026">
        <ele>53.599998474121</ele>
        <time>2022-08-07T08:10:14.000Z</time>
      </trkpt>
      <trkpt lat="48.6133" lon="-4.25023">
        <ele>53.799999237061</ele>
        <time>2022-08-07T08:10:15.000Z</time>
      </trkpt>
      <trkpt lat="48.61329" lon="-4.25019">
        <ele>53.799999237061</ele>
        <time>2022-08-07T08:10:16.000Z</time>
      </trkpt>
      <trkpt lat="48.61329" lon="-4.25015">
        <ele>53.799999237061</ele>
        <time>2022-08-07T08:10:17.000Z</time>
      </trkpt>
      <trkpt lat="48.61329" lon="-4.25012">
        <ele>54</ele>
        <time>2022-08-07T08:10:18.000Z</time>
      </trkpt>
      <trkpt lat="48.61329" lon="-4.25008">
        <ele>54</ele>
        <time>2022-08-07T08:10:19.000Z</time>
      </trkpt>
      <trkpt lat="48.61329" lon="-4.25005">
        <ele>54</ele>
        <time>2022-08-07T08:10:20.000Z</time>
      </trkpt>
      <trkpt lat="48.61331" lon="-4.25002">
        <ele>54.200000762939</ele>
        <time>2022-08-07T08:10:21.000Z</time>
      </trkpt>
      <trkpt lat="48.61332" lon="-4.25001">
        <ele>54.200000762939</ele>
        <time>2022-08-07T08:10:22.000Z</time>
      </trkpt>
      <trkpt lat="48.61335" lon="-4.25">
        <ele>54.200000762939</ele>
        <time>2022-08-07T08:10:23.000Z</time>
      </trkpt>
      <trkpt lat="48.61338" lon="-4.25">
        <ele>54.400001525879</ele>
        <time>2022-08-07T08:10:24.000Z</time>
      </trkpt>
      <trkpt lat="48.6134" lon="-4.25">
        <ele>54.599998474121</ele>
        <time>2022-08-07T08:10:25.000Z</time>
      </trkpt>
      <trkpt lat="48.61344" lon="-4.25">
        <ele>54.799999237061</ele>
        <time>2022-08-07T08:10:26.000Z</time>
      </trkpt>
      <trkpt lat="48.61347" lon="-4.25">
        <ele>54.799999237061</ele>
        <time>2022-08-07T08:10:27.000Z</time>
      </trkpt>
      <trkpt lat="48.6135" lon="-4.25">
        <ele>55</ele>
        <time>2022-08-07T08:10:28.000Z</time>
      </trkpt>
      <trkpt lat="48.61354" lon="-4.25">
        <ele>55</ele>
        <time>2022-08-07T08:10:29.000Z</time>
      </trkpt>
      <trkpt lat="48.61358" lon="-4.24999">
        <ele>55</ele>
        <time>2022-08-07T08:10:30.000Z</time>
      </trkpt>
      <trkpt lat="48.61362" lon="-4.25">
        <ele>55.200000762939</ele>
        <time>2022-08-07T08:10:31.000Z</time>
      </trkpt>
      <trkpt lat="48.61366" lon="-4.25">
        <ele>55.200000762939</ele>
        <time>2022-08-07T08:10:32.000Z</time>
      </trkpt>
      <trkpt lat="48.6137" lon="-4.25001">
        <ele>55.400001525879</ele>
        <time>2022-08-07T08:10:33.000Z</time>
      </trkpt>
      <trkpt lat="48.61374" lon="-4.25002">
        <ele>55.400001525879</ele>
        <time>2022-08-07T08:10:34.000Z</time>
      </trkpt>
      <trkpt lat="48.61376" lon="-4.25002">
        <ele>55.599998474121</ele>
        <time>2022-08-07T08:10:35.000Z</time>
      </trkpt>
      <trkpt lat="48.61379" lon="-4.25003">
        <ele>55.799999237061</ele>
        <time>2022-08-07T08:10:36.000Z</time>
      </trkpt>
      <trkpt lat="48.61381" lon="-4.25003">
        <ele>55.799999237061</ele>
        <time>2022-08-07T08:10:37.000Z</time>
      </trkpt>
      <trkpt lat="48.61385" lon="-4.25003">
        <ele>56</ele>
        <time>2022-08-07T08:10:38.000Z</time>
      </trkpt>
      <trkpt lat="48.61388" lon="-4.25003">
        <ele>56</ele>
        <time>2022-08-07T08:10:39.000Z</time>
      </trkpt>
      <trkpt lat="48.61391" lon="-4.25004">
        <ele>55.799999237061</ele>
        <time>2022-08-07T08:10:40.000Z</time>
      </trkpt>
      <trkpt lat="48.61394" lon="-4.25004">
        <ele>55.799999237061</ele>
        <time>2022-08-07T08:10:41.000Z</time>
      </trkpt>
      <trkpt lat="48.61398" lon="-4.25005">
        <ele>56</ele>
        <time>2022-08-07T08:10:42.000Z</time>
      </trkpt>
      <trkpt lat="48.61402" lon="-4.25006">
        <ele>56</ele>
        <time>2022-08-07T08:10:43.000Z</time>
      </trkpt>
      <trkpt lat="48.61407" lon="-4.25008">
        <ele>56</ele>
        <time>2022-08-07T08:10:44.000Z</time>
      </trkpt>
      <trkpt lat="48.61411" lon="-4.25009">
        <ele>56</ele>
        <time>2022-08-07T08:10:45.000Z</time>
      </trkpt>
      <trkpt lat="48.61416" lon="-4.2501">
        <ele>56</ele>
        <time>2022-08-07T08:10:46.000Z</time>
      </trkpt>
      <trkpt lat="48.61419" lon="-4.25011">
        <ele>55.799999237061</ele>
        <time>2022-08-07T08:10:47.000Z</time>
      </trkpt>
      <trkpt lat="48.61425" lon="-4.25013">
        <ele>55.599998474121</ele>
        <time>2022-08-07T08:10:48.000Z</time>
      </trkpt>
      <trkpt lat="48.6143" lon="-4.25014">
        <ele>55.200000762939</ele>
        <time>2022-08-07T08:10:49.000Z</time>
      </trkpt>
      <trkpt lat="48.61435" lon="-4.25015">
        <ele>55.200000762939</ele>
        <time>2022-08-07T08:10:50.000Z</time>
      </trkpt>
      <trkpt lat="48.61439" lon="-4.25016">
        <ele>55</ele>
        <time>2022-08-07T08:10:51.000Z</time>
      </trkpt>
      <trkpt lat="48.61444" lon="-4.25017">
        <ele>54.599998474121</ele>
        <time>2022-08-07T08:10:52.000Z</time>
      </trkpt>
      <trkpt lat="48.61449" lon="-4.25018">
        <ele>54.599998474121</ele>
        <time>2022-08-07T08:10:53.000Z</time>
      </trkpt>
      <trkpt lat="48.61454" lon="-4.25019">
        <ele>54.200000762939</ele>
        <time>2022-08-07T08:10:54.000Z</time>
      </trkpt>
      <trkpt lat="48.61458" lon="-4.2502">
        <ele>54.200000762939</ele>
        <time>2022-08-07T08:10:55.000Z</time>
      </trkpt>
      <trkpt lat="48.61462" lon="-4.25021">
        <ele>54</ele>
        <time>2022-08-07T08:10:56.000Z</time>
      </trkpt>
      <trkpt lat="48.61468" lon="-4.25022">
        <ele>54</ele>
        <time>2022-08-07T08:10:57.000Z</time>
      </trkpt>
      <trkpt lat="48.61472" lon="-4.25023">
        <ele>54</ele>
        <time>2022-08-07T08:10:58.000Z</time>
      </trkpt>
      <trkpt lat="48.61477" lon="-4.25024">
        <ele>53.799999237061</ele>
        <time>2022-08-07T08:10:59.000Z</time>
      </trkpt>
      <trkpt lat="48.6148" lon="-4.25025">
        <ele>53.599998474121</ele>
        <time>2022-08-07T08:11:00.000Z</time>
      </trkpt>
      <trkpt lat="48.61485" lon="-4.25025">
        <ele>53.200000762939</ele>
        <time>2022-08-07T08:11:01.000Z</time>
      </trkpt>
      <trkpt lat="48.6149" lon="-4.25027">
        <ele>53</ele>
        <time>2022-08-07T08:11:02.000Z</time>
      </trkpt>
      <trkpt lat="48.61494" lon="-4.25027">
        <ele>52.599998474121</ele>
        <time>2022-08-07T08:11:03.000Z</time>
      </trkpt>
      <trkpt lat="48.61497" lon="-4.25028">
        <ele>52.599998474121</ele>
        <time>2022-08-07T08:11:04.000Z</time>
      </trkpt>
      <trkpt lat="48.615" lon="-4.25029">
        <ele>52.200000762939</ele>
        <time>2022-08-07T08:11:05.000Z</time>
      </trkpt>
      <trkpt lat="48.61503" lon="-4.25029">
        <ele>52</ele>
        <time>2022-08-07T08:11:06.000Z</time>
      </trkpt>
      <trkpt lat="48.61505" lon="-4.25028">
        <ele>51.599998474121</ele>
        <time>2022-08-07T08:11:07.000Z</time>
      </trkpt>
      <trkpt lat="48.61508" lon="-4.25027">
        <ele>51.400001525879</ele>
        <time>2022-08-07T08:11:08.000Z</time>
      </trkpt>
      <trkpt lat="48.6151" lon="-4.25026">
        <ele>51</ele>
        <time>2022-08-07T08:11:09.000Z</time>
      </trkpt>
      <trkpt lat="48.61512" lon="-4.25025">
        <ele>50.799999237061</ele>
        <time>2022-08-07T08:11:10.000Z</time>
      </trkpt>
      <trkpt lat="48.61516" lon="-4.25023">
        <ele>50.799999237061</ele>
        <time>2022-08-07T08:11:11.000Z</time>
      </trkpt>
      <trkpt lat="48.61519" lon="-4.25021">
        <ele>50.599998474121</ele>
        <time>2022-08-07T08:11:12.000Z</time>
      </trkpt>
      <trkpt lat="48.61523" lon="-4.2502">
        <ele>50.400001525879</ele>
        <time>2022-08-07T08:11:13.000Z</time>
      </trkpt>
      <trkpt lat="48.61527" lon="-4.25018">
        <ele>50.400001525879</ele>
        <time>2022-08-07T08:11:14.000Z</time>
      </trkpt>
      <trkpt lat="48.6153" lon="-4.25017">
        <ele>50.200000762939</ele>
        <time>2022-08-07T08:11:15.000Z</time>
      </trkpt>
      <trkpt lat="48.61534" lon="-4.25015">
        <ele>50</ele>
        <time>2022-08-07T08:11:16.000Z</time>
      </trkpt>
      <trkpt lat="48.61539" lon="-4.25012">
        <ele>49.799999237061</ele>
        <time>2022-08-07T08:11:17.000Z</time>
      </trkpt>
      <trkpt lat="48.61542" lon="-4.2501">
        <ele>49.599998474121</ele>
        <time>2022-08-07T08:11:18.000Z</time>
      </trkpt>
      <trkpt lat="48.61547" lon="-4.25008">
        <ele>49.400001525879</ele>
        <time>2022-08-07T08:11:19.000Z</time>
      </trkpt>
      <trkpt lat="48.61552" lon="-4.25006">
        <ele>49.200000762939</ele>
        <time>2022-08-07T08:11:20.000Z</time>
      </trkpt>
      <trkpt lat="48.61556" lon="-4.25004">
        <ele>48.799999237061</ele>
        <time>2022-08-07T08:11:21.000Z</time>
      </trkpt>
      <trkpt lat="48.61561" lon="-4.25002">
        <ele>48.799999237061</ele>
        <time>2022-08-07T08:11:22.000Z</time>
      </trkpt>
      <trkpt lat="48.61566" lon="-4.25">
        <ele>48</ele>
        <time>2022-08-07T08:11:23.000Z</time>
      </trkpt>
      <trkpt lat="48.6157" lon="-4.24999">
        <ele>47.599998474121</ele>
        <time>2022-08-07T08:11:24.000Z</time>
      </trkpt>
      <trkpt lat="48.61575" lon="-4.24997">
        <ele>47.200000762939</ele>
        <time>2022-08-07T08:11:25.000Z</time>
      </trkpt>
      <trkpt lat="48.61579" lon="-4.24996">
        <ele>46.799999237061</ele>
        <time>2022-08-07T08:11:26.000Z</time>
      </trkpt>
      <trkpt lat="48.61584" lon="-4.24996">
        <ele>46.400001525879</ele>
        <time>2022-08-07T08:11:27.000Z</time>
      </trkpt>
      <trkpt lat="48.61589" lon="-4.24996">
        <ele>46</ele>
        <time>2022-08-07T08:11:28.000Z</time>
      </trkpt>
      <trkpt lat="48.61594" lon="-4.24997">
        <ele>45.799999237061</ele>
        <time>2022-08-07T08:11:29.000Z</time>
      </trkpt>
      <trkpt lat="48.616" lon="-4.24998">
        <ele>45</ele>
        <time>2022-08-07T08:11:30.000Z</time>
      </trkpt>
      <trkpt lat="48.61606" lon="-4.24999">
        <ele>44.400001525879</ele>
        <time>2022-08-07T08:11:31.000Z</time>
      </trkpt>
      <trkpt lat="48.6161" lon="-4.24998">
        <ele>42.799999237061</ele>
        <time>2022-08-07T08:11:32.000Z</time>
      </trkpt>
      <trkpt lat="48.61615" lon="-4.24997">
        <ele>42.200000762939</ele>
        <time>2022-08-07T08:11:33.000Z</time>
      </trkpt>
      <trkpt lat="48.61618" lon="-4.24995">
        <ele>40.799999237061</ele>
        <time>2022-08-07T08:11:34.000Z</time>
      </trkpt>
      <trkpt lat="48.61621" lon="-4.24993">
        <ele>40.400001525879</ele>
        <time>2022-08-07T08:11:35.000Z</time>
      </trkpt>
      <trkpt lat="48.61623" lon="-4.24992">
        <ele>39.799999237061</ele>
        <time>2022-08-07T08:11:36.000Z</time>
      </trkpt>
      <trkpt lat="48.61627" lon="-4.24991">
        <ele>39.200000762939</ele>
        <time>2022-08-07T08:11:37.000Z</time>
      </trkpt>
      <trkpt lat="48.6163" lon="-4.24991">
        <ele>39</ele>
        <time>2022-08-07T08:11:38.000Z</time>
      </trkpt>
      <trkpt lat="48.61632" lon="-4.24991">
        <ele>38.599998474121</ele>
        <time>2022-08-07T08:11:39.000Z</time>
      </trkpt>
      <trkpt lat="48.61635" lon="-4.24989">
        <ele>38.599998474121</ele>
        <time>2022-08-07T08:11:40.000Z</time>
      </trkpt>
      <trkpt lat="48.61638" lon="-4.24987">
        <ele>38</ele>
        <time>2022-08-07T08:11:41.000Z</time>
      </trkpt>
      <trkpt lat="48.61641" lon="-4.24985">
        <ele>38</ele>
        <time>2022-08-07T08:11:42.000Z</time>
      </trkpt>
      <trkpt lat="48.61644" lon="-4.24982">
        <ele>37.799999237061</ele>
        <time>2022-08-07T08:11:43.000Z</time>
      </trkpt>
      <trkpt lat="48.61647" lon="-4.24978">
        <ele>37.799999237061</ele>
        <time>2022-08-07T08:11:44.000Z</time>
      </trkpt>
      <trkpt lat="48.6165" lon="-4.24973">
        <ele>37.599998474121</ele>
        <time>2022-08-07T08:11:45.000Z</time>
      </trkpt>
      <trkpt lat="48.61653" lon="-4.24968">
        <ele>37.599998474121</ele>
        <time>2022-08-07T08:11:46.000Z</time>
      </trkpt>
      <trkpt lat="48.61654" lon="-4.24965">
        <ele>37.599998474121</ele>
        <time>2022-08-07T08:11:47.000Z</time>
      </trkpt>
      <trkpt lat="48.61655" lon="-4.24962">
        <ele>37.799999237061</ele>
        <time>2022-08-07T08:11:48.000Z</time>
      </trkpt>
      <trkpt lat="48.61657" lon="-4.24958">
        <ele>37.599998474121</ele>
        <time>2022-08-07T08:11:49.000Z</time>
      </trkpt>
      <trkpt lat="48.6166" lon="-4.24954">
        <ele>37.599998474121</ele>
        <time>2022-08-07T08:11:50.000Z</time>
      </trkpt>
      <trkpt lat="48.61662" lon="-4.2495">
        <ele>37.599998474121</ele>
        <time>2022-08-07T08:11:51.000Z</time>
      </trkpt>
      <trkpt lat="48.61666" lon="-4.24945">
        <ele>37.799999237061</ele>
        <time>2022-08-07T08:11:52.000Z</time>
      </trkpt>
      <trkpt lat="48.61673" lon="-4.24937">
        <ele>38</ele>
        <time>2022-08-07T08:11:53.000Z</time>
      </trkpt>
      <trkpt lat="48.61676" lon="-4.24934">
        <ele>38.200000762939</ele>
        <time>2022-08-07T08:11:54.000Z</time>
      </trkpt>
      <trkpt lat="48.61679" lon="-4.2493">
        <ele>38.400001525879</ele>
        <time>2022-08-07T08:11:55.000Z</time>
      </trkpt>
      <trkpt lat="48.61683" lon="-4.24926">
        <ele>38.599998474121</ele>
        <time>2022-08-07T08:11:56.000Z</time>
      </trkpt>
      <trkpt lat="48.61686" lon="-4.24922">
        <ele>39</ele>
        <time>2022-08-07T08:11:57.000Z</time>
      </trkpt>
      <trkpt lat="48.6169" lon="-4.24918">
        <ele>39.200000762939</ele>
        <time>2022-08-07T08:11:58.000Z</time>
      </trkpt>
      <trkpt lat="48.61692" lon="-4.24914">
        <ele>39.400001525879</ele>
        <time>2022-08-07T08:11:59.000Z</time>
      </trkpt>
      <trkpt lat="48.61695" lon="-4.2491">
        <ele>39.599998474121</ele>
        <time>2022-08-07T08:12:00.000Z</time>
      </trkpt>
      <trkpt lat="48.61698" lon="-4.24906">
        <ele>40.200000762939</ele>
        <time>2022-08-07T08:12:01.000Z</time>
      </trkpt>
      <trkpt lat="48.61701" lon="-4.24903">
        <ele>40.400001525879</ele>
        <time>2022-08-07T08:12:02.000Z</time>
      </trkpt>
      <trkpt lat="48.61703" lon="-4.249">
        <ele>40.599998474121</ele>
        <time>2022-08-07T08:12:03.000Z</time>
      </trkpt>
      <trkpt lat="48.61705" lon="-4.24897">
        <ele>41</ele>
        <time>2022-08-07T08:12:04.000Z</time>
      </trkpt>
      <trkpt lat="48.61707" lon="-4.24895">
        <ele>41.200000762939</ele>
        <time>2022-08-07T08:12:05.000Z</time>
      </trkpt>
      <trkpt lat="48.61709" lon="-4.24893">
        <ele>41.599998474121</ele>
        <time>2022-08-07T08:12:06.000Z</time>
      </trkpt>
      <trkpt lat="48.61711" lon="-4.24892">
        <ele>42</ele>
        <time>2022-08-07T08:12:07.000Z</time>
      </trkpt>
      <trkpt lat="48.61713" lon="-4.24891">
        <ele>42.400001525879</ele>
        <time>2022-08-07T08:12:08.000Z</time>
      </trkpt>
      <trkpt lat="48.61715" lon="-4.24891">
        <ele>42.599998474121</ele>
        <time>2022-08-07T08:12:09.000Z</time>
      </trkpt>
      <trkpt lat="48.61717" lon="-4.24889">
        <ele>42.799999237061</ele>
        <time>2022-08-07T08:12:10.000Z</time>
      </trkpt>
      <trkpt lat="48.6172" lon="-4.24888">
        <ele>43</ele>
        <time>2022-08-07T08:12:11.000Z</time>
      </trkpt>
      <trkpt lat="48.61722" lon="-4.24888">
        <ele>43.400001525879</ele>
        <time>2022-08-07T08:12:12.000Z</time>
      </trkpt>
      <trkpt lat="48.61725" lon="-4.24889">
        <ele>43.799999237061</ele>
        <time>2022-08-07T08:12:13.000Z</time>
      </trkpt>
      <trkpt lat="48.61726" lon="-4.24892">
        <ele>44</ele>
        <time>2022-08-07T08:12:14.000Z</time>
      </trkpt>
      <trkpt lat="48.61725" lon="-4.24895">
        <ele>44.599998474121</ele>
        <time>2022-08-07T08:12:15.000Z</time>
      </trkpt>
      <trkpt lat="48.61724" lon="-4.24899">
        <ele>44.799999237061</ele>
        <time>2022-08-07T08:12:16.000Z</time>
      </trkpt>
      <trkpt lat="48.61721" lon="-4.24903">
        <ele>45.200000762939</ele>
        <time>2022-08-07T08:12:17.000Z</time>
      </trkpt>
      <trkpt lat="48.61719" lon="-4.24907">
        <ele>45.599998474121</ele>
        <time>2022-08-07T08:12:18.000Z</time>
      </trkpt>
      <trkpt lat="48.61717" lon="-4.24911">
        <ele>45.799999237061</ele>
        <time>2022-08-07T08:12:19.000Z</time>
      </trkpt>
      <trkpt lat="48.61716" lon="-4.24915">
        <ele>46</ele>
        <time>2022-08-07T08:12:20.000Z</time>
      </trkpt>
      <trkpt lat="48.61714" lon="-4.2492">
        <ele>46</ele>
        <time>2022-08-07T08:12:21.000Z</time>
      </trkpt>
      <trkpt lat="48.61712" lon="-4.24925">
        <ele>46</ele>
        <time>2022-08-07T08:12:22.000Z</time>
      </trkpt>
      <trkpt lat="48.61711" lon="-4.2493">
        <ele>46</ele>
        <time>2022-08-07T08:12:23.000Z</time>
      </trkpt>
      <trkpt lat="48.61709" lon="-4.24935">
        <ele>46</ele>
        <time>2022-08-07T08:12:24.000Z</time>
      </trkpt>
      <trkpt lat="48.61708" lon="-4.24939">
        <ele>46</ele>
        <time>2022-08-07T08:12:25.000Z</time>
      </trkpt>
      <trkpt lat="48.61706" lon="-4.24945">
        <ele>46</ele>
        <time>2022-08-07T08:12:26.000Z</time>
      </trkpt>
      <trkpt lat="48.61705" lon="-4.24951">
        <ele>46</ele>
        <time>2022-08-07T08:12:27.000Z</time>
      </trkpt>
      <trkpt lat="48.61705" lon="-4.24956">
        <ele>45.799999237061</ele>
        <time>2022-08-07T08:12:28.000Z</time>
      </trkpt>
      <trkpt lat="48.61704" lon="-4.24961">
        <ele>45.799999237061</ele>
        <time>2022-08-07T08:12:29.000Z</time>
      </trkpt>
      <trkpt lat="48.61703" lon="-4.24967">
        <ele>45.799999237061</ele>
        <time>2022-08-07T08:12:30.000Z</time>
      </trkpt>
      <trkpt lat="48.61702" lon="-4.24973">
        <ele>45.599998474121</ele>
        <time>2022-08-07T08:12:31.000Z</time>
      </trkpt>
      <trkpt lat="48.61701" lon="-4.24979">
        <ele>45.599998474121</ele>
        <time>2022-08-07T08:12:32.000Z</time>
      </trkpt>
      <trkpt lat="48.617" lon="-4.24986">
        <ele>45.599998474121</ele>
        <time>2022-08-07T08:12:33.000Z</time>
      </trkpt>
      <trkpt lat="48.61699" lon="-4.2499">
        <ele>45.599998474121</ele>
        <time>2022-08-07T08:12:34.000Z</time>
      </trkpt>
      <trkpt lat="48.61698" lon="-4.24997">
        <ele>45.400001525879</ele>
        <time>2022-08-07T08:12:35.000Z</time>
      </trkpt>
      <trkpt lat="48.61698" lon="-4.25003">
        <ele>45.400001525879</ele>
        <time>2022-08-07T08:12:36.000Z</time>
      </trkpt>
      <trkpt lat="48.61698" lon="-4.25009">
        <ele>45</ele>
        <time>2022-08-07T08:12:37.000Z</time>
      </trkpt>
      <trkpt lat="48.61697" lon="-4.25015">
        <ele>44.799999237061</ele>
        <time>2022-08-07T08:12:38.000Z</time>
      </trkpt>
      <trkpt lat="48.61697" lon="-4.25021">
        <ele>44.799999237061</ele>
        <time>2022-08-07T08:12:39.000Z</time>
      </trkpt>
      <trkpt lat="48.61697" lon="-4.25029">
        <ele>44.599998474121</ele>
        <time>2022-08-07T08:12:40.000Z</time>
      </trkpt>
      <trkpt lat="48.61697" lon="-4.25036">
        <ele>44.599998474121</ele>
        <time>2022-08-07T08:12:41.000Z</time>
      </trkpt>
      <trkpt lat="48.61697" lon="-4.25043">
        <ele>44.599998474121</ele>
        <time>2022-08-07T08:12:42.000Z</time>
      </trkpt>
      <trkpt lat="48.61697" lon="-4.25048">
        <ele>44.400001525879</ele>
        <time>2022-08-07T08:12:43.000Z</time>
      </trkpt>
      <trkpt lat="48.61697" lon="-4.25055">
        <ele>44.400001525879</ele>
        <time>2022-08-07T08:12:44.000Z</time>
      </trkpt>
      <trkpt lat="48.61697" lon="-4.25062">
        <ele>44.200000762939</ele>
        <time>2022-08-07T08:12:45.000Z</time>
      </trkpt>
      <trkpt lat="48.61698" lon="-4.25067">
        <ele>44</ele>
        <time>2022-08-07T08:12:46.000Z</time>
      </trkpt>
      <trkpt lat="48.61699" lon="-4.25073">
        <ele>43.799999237061</ele>
        <time>2022-08-07T08:12:47.000Z</time>
      </trkpt>
      <trkpt lat="48.617" lon="-4.25077">
        <ele>43.599998474121</ele>
        <time>2022-08-07T08:12:48.000Z</time>
      </trkpt>
      <trkpt lat="48.61702" lon="-4.25085">
        <ele>43.400001525879</ele>
        <time>2022-08-07T08:12:49.000Z</time>
      </trkpt>
      <trkpt lat="48.61703" lon="-4.25091">
        <ele>43.400001525879</ele>
        <time>2022-08-07T08:12:50.000Z</time>
      </trkpt>
      <trkpt lat="48.61704" lon="-4.25097">
        <ele>43.200000762939</ele>
        <time>2022-08-07T08:12:51.000Z</time>
      </trkpt>
      <trkpt lat="48.61705" lon="-4.25103">
        <ele>43</ele>
        <time>2022-08-07T08:12:52.000Z</time>
      </trkpt>
      <trkpt lat="48.61706" lon="-4.25109">
        <ele>43</ele>
        <time>2022-08-07T08:12:53.000Z</time>
      </trkpt>
      <trkpt lat="48.61708" lon="-4.25118">
        <ele>43</ele>
        <time>2022-08-07T08:12:54.000Z</time>
      </trkpt>
      <trkpt lat="48.61709" lon="-4.25125">
        <ele>43</ele>
        <time>2022-08-07T08:12:55.000Z</time>
      </trkpt>
      <trkpt lat="48.6171" lon="-4.25131">
        <ele>43</ele>
        <time>2022-08-07T08:12:56.000Z</time>
      </trkpt>
      <trkpt lat="48.61712" lon="-4.25137">
        <ele>43</ele>
        <time>2022-08-07T08:12:57.000Z</time>
      </trkpt>
      <trkpt lat="48.61714" lon="-4.25148">
        <ele>42.799999237061</ele>
        <time>2022-08-07T08:12:58.000Z</time>
      </trkpt>
      <trkpt lat="48.61716" lon="-4.25156">
        <ele>42.799999237061</ele>
        <time>2022-08-07T08:12:59.000Z</time>
      </trkpt>
      <trkpt lat="48.61718" lon="-4.25162">
        <ele>42.599998474121</ele>
        <time>2022-08-07T08:13:00.000Z</time>
      </trkpt>
      <trkpt lat="48.6172" lon="-4.25168">
        <ele>42.400001525879</ele>
        <time>2022-08-07T08:13:01.000Z</time>
      </trkpt>
      <trkpt lat="48.61723" lon="-4.25175">
        <ele>42.200000762939</ele>
        <time>2022-08-07T08:13:02.000Z</time>
      </trkpt>
      <trkpt lat="48.61725" lon="-4.25183">
        <ele>42.200000762939</ele>
        <time>2022-08-07T08:13:03.000Z</time>
      </trkpt>
      <trkpt lat="48.61728" lon="-4.2519">
        <ele>42</ele>
        <time>2022-08-07T08:13:04.000Z</time>
      </trkpt>
      <trkpt lat="48.6173" lon="-4.25197">
        <ele>41.799999237061</ele>
        <time>2022-08-07T08:13:05.000Z</time>
      </trkpt>
      <trkpt lat="48.61733" lon="-4.25203">
        <ele>41.599998474121</ele>
        <time>2022-08-07T08:13:06.000Z</time>
      </trkpt>
      <trkpt lat="48.61735" lon="-4.2521">
        <ele>41.400001525879</ele>
        <time>2022-08-07T08:13:07.000Z</time>
      </trkpt>
      <trkpt lat="48.61737" lon="-4.25216">
        <ele>41.400001525879</ele>
        <time>2022-08-07T08:13:08.000Z</time>
      </trkpt>
      <trkpt lat="48.61739" lon="-4.25221">
        <ele>41.200000762939</ele>
        <time>2022-08-07T08:13:09.000Z</time>
      </trkpt>
      <trkpt lat="48.61743" lon="-4.25229">
        <ele>41.200000762939</ele>
        <time>2022-08-07T08:13:10.000Z</time>
      </trkpt>
      <trkpt lat="48.61746" lon="-4.25236">
        <ele>41.200000762939</ele>
        <time>2022-08-07T08:13:11.000Z</time>
      </trkpt>
      <trkpt lat="48.61749" lon="-4.25241">
        <ele>41.200000762939</ele>
        <time>2022-08-07T08:13:12.000Z</time>
      </trkpt>
      <trkpt lat="48.61752" lon="-4.25249">
        <ele>41</ele>
        <time>2022-08-07T08:13:13.000Z</time>
      </trkpt>
      <trkpt lat="48.61755" lon="-4.25254">
        <ele>40.799999237061</ele>
        <time>2022-08-07T08:13:14.000Z</time>
      </trkpt>
      <trkpt lat="48.61759" lon="-4.25259">
        <ele>40.799999237061</ele>
        <time>2022-08-07T08:13:15.000Z</time>
      </trkpt>
      <trkpt lat="48.61763" lon="-4.25264">
        <ele>40.799999237061</ele>
        <time>2022-08-07T08:13:16.000Z</time>
      </trkpt>
      <trkpt lat="48.61768" lon="-4.25269">
        <ele>40.599998474121</ele>
        <time>2022-08-07T08:13:17.000Z</time>
      </trkpt>
      <trkpt lat="48.61773" lon="-4.25273">
        <ele>40.400001525879</ele>
        <time>2022-08-07T08:13:18.000Z</time>
      </trkpt>
      <trkpt lat="48.61778" lon="-4.25277">
        <ele>40.400001525879</ele>
        <time>2022-08-07T08:13:19.000Z</time>
      </trkpt>
      <trkpt lat="48.61782" lon="-4.25281">
        <ele>40</ele>
        <time>2022-08-07T08:13:20.000Z</time>
      </trkpt>
      <trkpt lat="48.61791" lon="-4.25289">
        <ele>39.799999237061</ele>
        <time>2022-08-07T08:13:21.000Z</time>
      </trkpt>
      <trkpt lat="48.61796" lon="-4.25295">
        <ele>39.400001525879</ele>
        <time>2022-08-07T08:13:22.000Z</time>
      </trkpt>
      <trkpt lat="48.618" lon="-4.25298">
        <ele>39</ele>
        <time>2022-08-07T08:13:23.000Z</time>
      </trkpt>
      <trkpt lat="48.61805" lon="-4.25302">
        <ele>38.799999237061</ele>
        <time>2022-08-07T08:13:24.000Z</time>
      </trkpt>
      <trkpt lat="48.61809" lon="-4.25304">
        <ele>38.599998474121</ele>
        <time>2022-08-07T08:13:25.000Z</time>
      </trkpt>
      <trkpt lat="48.61814" lon="-4.25307">
        <ele>38.599998474121</ele>
        <time>2022-08-07T08:13:26.000Z</time>
      </trkpt>
      <trkpt lat="48.6182" lon="-4.25311">
        <ele>38.400001525879</ele>
        <time>2022-08-07T08:13:27.000Z</time>
      </trkpt>
      <trkpt lat="48.61826" lon="-4.25313">
        <ele>38.200000762939</ele>
        <time>2022-08-07T08:13:28.000Z</time>
      </trkpt>
      <trkpt lat="48.6183" lon="-4.25316">
        <ele>38.200000762939</ele>
        <time>2022-08-07T08:13:29.000Z</time>
      </trkpt>
      <trkpt lat="48.61833" lon="-4.25319">
        <ele>38.200000762939</ele>
        <time>2022-08-07T08:13:30.000Z</time>
      </trkpt>
      <trkpt lat="48.61839" lon="-4.25323">
        <ele>38</ele>
        <time>2022-08-07T08:13:31.000Z</time>
      </trkpt>
      <trkpt lat="48.61844" lon="-4.25325">
        <ele>37.799999237061</ele>
        <time>2022-08-07T08:13:32.000Z</time>
      </trkpt>
      <trkpt lat="48.61849" lon="-4.25327">
        <ele>37.799999237061</ele>
        <time>2022-08-07T08:13:33.000Z</time>
      </trkpt>
      <trkpt lat="48.61852" lon="-4.25329">
        <ele>37.599998474121</ele>
        <time>2022-08-07T08:13:34.000Z</time>
      </trkpt>
      <trkpt lat="48.61857" lon="-4.25331">
        <ele>37.400001525879</ele>
        <time>2022-08-07T08:13:35.000Z</time>
      </trkpt>
      <trkpt lat="48.61864" lon="-4.25332">
        <ele>37.200000762939</ele>
        <time>2022-08-07T08:13:36.000Z</time>
      </trkpt>
      <trkpt lat="48.61869" lon="-4.25334">
        <ele>37.200000762939</ele>
        <time>2022-08-07T08:13:37.000Z</time>
      </trkpt>
      <trkpt lat="48.61872" lon="-4.25335">
        <ele>37</ele>
        <time>2022-08-07T08:13:38.000Z</time>
      </trkpt>
      <trkpt lat="48.61875" lon="-4.25338">
        <ele>37</ele>
        <time>2022-08-07T08:13:39.000Z</time>
      </trkpt>
      <trkpt lat="48.61879" lon="-4.2534">
        <ele>36.799999237061</ele>
        <time>2022-08-07T08:13:40.000Z</time>
      </trkpt>
      <trkpt lat="48.61884" lon="-4.2534">
        <ele>36.799999237061</ele>
        <time>2022-08-07T08:13:41.000Z</time>
      </trkpt>
      <trkpt lat="48.61889" lon="-4.2534">
        <ele>36.799999237061</ele>
        <time>2022-08-07T08:13:42.000Z</time>
      </trkpt>
      <trkpt lat="48.61894" lon="-4.2534">
        <ele>36.599998474121</ele>
        <time>2022-08-07T08:13:43.000Z</time>
      </trkpt>
      <trkpt lat="48.61899" lon="-4.2534">
        <ele>36.599998474121</ele>
        <time>2022-08-07T08:13:44.000Z</time>
      </trkpt>
      <trkpt lat="48.61906" lon="-4.2534">
        <ele>36.400001525879</ele>
        <time>2022-08-07T08:13:45.000Z</time>
      </trkpt>
      <trkpt lat="48.61912" lon="-4.2534">
        <ele>36.400001525879</ele>
        <time>2022-08-07T08:13:46.000Z</time>
      </trkpt>
      <trkpt lat="48.61917" lon="-4.25339">
        <ele>36.200000762939</ele>
        <time>2022-08-07T08:13:47.000Z</time>
      </trkpt>
      <trkpt lat="48.61921" lon="-4.25338">
        <ele>36</ele>
        <time>2022-08-07T08:13:48.000Z</time>
      </trkpt>
      <trkpt lat="48.61926" lon="-4.25338">
        <ele>36</ele>
        <time>2022-08-07T08:13:49.000Z</time>
      </trkpt>
      <trkpt lat="48.61932" lon="-4.25337">
        <ele>35.599998474121</ele>
        <time>2022-08-07T08:13:50.000Z</time>
      </trkpt>
      <trkpt lat="48.61938" lon="-4.25336">
        <ele>35.599998474121</ele>
        <time>2022-08-07T08:13:51.000Z</time>
      </trkpt>
      <trkpt lat="48.61943" lon="-4.25334">
        <ele>35.599998474121</ele>
        <time>2022-08-07T08:13:52.000Z</time>
      </trkpt>
      <trkpt lat="48.61947" lon="-4.25333">
        <ele>35.400001525879</ele>
        <time>2022-08-07T08:13:53.000Z</time>
      </trkpt>
      <trkpt lat="48.61953" lon="-4.25332">
        <ele>35.200000762939</ele>
        <time>2022-08-07T08:13:54.000Z</time>
      </trkpt>
      <trkpt lat="48.6196" lon="-4.2533">
        <ele>35</ele>
        <time>2022-08-07T08:13:55.000Z</time>
      </trkpt>
      <trkpt lat="48.61966" lon="-4.25329">
        <ele>35</ele>
        <time>2022-08-07T08:13:56.000Z</time>
      </trkpt>
      <trkpt lat="48.61971" lon="-4.25327">
        <ele>35</ele>
        <time>2022-08-07T08:13:57.000Z</time>
      </trkpt>
      <trkpt lat="48.61977" lon="-4.25326">
        <ele>34.799999237061</ele>
        <time>2022-08-07T08:13:58.000Z</time>
      </trkpt>
      <trkpt lat="48.61983" lon="-4.25324">
        <ele>34.599998474121</ele>
        <time>2022-08-07T08:13:59.000Z</time>
      </trkpt>
      <trkpt lat="48.61989" lon="-4.25323">
        <ele>34.599998474121</ele>
        <time>2022-08-07T08:14:00.000Z</time>
      </trkpt>
      <trkpt lat="48.61995" lon="-4.25322">
        <ele>34.400001525879</ele>
        <time>2022-08-07T08:14:01.000Z</time>
      </trkpt>
      <trkpt lat="48.61999" lon="-4.25321">
        <ele>34.400001525879</ele>
        <time>2022-08-07T08:14:02.000Z</time>
      </trkpt>
      <trkpt lat="48.62006" lon="-4.25321">
        <ele>34.200000762939</ele>
        <time>2022-08-07T08:14:03.000Z</time>
      </trkpt>
      <trkpt lat="48.62014" lon="-4.25321">
        <ele>34</ele>
        <time>2022-08-07T08:14:04.000Z</time>
      </trkpt>
      <trkpt lat="48.62021" lon="-4.25322">
        <ele>33.799999237061</ele>
        <time>2022-08-07T08:14:05.000Z</time>
      </trkpt>
      <trkpt lat="48.62026" lon="-4.25323">
        <ele>33.599998474121</ele>
        <time>2022-08-07T08:14:06.000Z</time>
      </trkpt>
      <trkpt lat="48.62033" lon="-4.25324">
        <ele>33.400001525879</ele>
        <time>2022-08-07T08:14:07.000Z</time>
      </trkpt>
      <trkpt lat="48.6204" lon="-4.25326">
        <ele>33.200000762939</ele>
        <time>2022-08-07T08:14:08.000Z</time>
      </trkpt>
      <trkpt lat="48.62047" lon="-4.25329">
        <ele>33</ele>
        <time>2022-08-07T08:14:09.000Z</time>
      </trkpt>
      <trkpt lat="48.62053" lon="-4.25331">
        <ele>32.799999237061</ele>
        <time>2022-08-07T08:14:10.000Z</time>
      </trkpt>
      <trkpt lat="48.62057" lon="-4.25332">
        <ele>32.599998474121</ele>
        <time>2022-08-07T08:14:11.000Z</time>
      </trkpt>
      <trkpt lat="48.62061" lon="-4.25333">
        <ele>32.200000762939</ele>
        <time>2022-08-07T08:14:12.000Z</time>
      </trkpt>
      <trkpt lat="48.62065" lon="-4.25334">
        <ele>32</ele>
        <time>2022-08-07T08:14:13.000Z</time>
      </trkpt>
      <trkpt lat="48.62068" lon="-4.25335">
        <ele>31.799999237061</ele>
        <time>2022-08-07T08:14:14.000Z</time>
      </trkpt>
      <trkpt lat="48.62072" lon="-4.25336">
        <ele>31.60000038147</ele>
        <time>2022-08-07T08:14:15.000Z</time>
      </trkpt>
      <trkpt lat="48.62074" lon="-4.25338">
        <ele>31.200000762939</ele>
        <time>2022-08-07T08:14:16.000Z</time>
      </trkpt>
      <trkpt lat="48.62077" lon="-4.25341">
        <ele>31.200000762939</ele>
        <time>2022-08-07T08:14:17.000Z</time>
      </trkpt>
      <trkpt lat="48.6208" lon="-4.25345">
        <ele>31.200000762939</ele>
        <time>2022-08-07T08:14:18.000Z</time>
      </trkpt>
      <trkpt lat="48.62082" lon="-4.25351">
        <ele>31</ele>
        <time>2022-08-07T08:14:19.000Z</time>
      </trkpt>
      <trkpt lat="48.62084" lon="-4.25357">
        <ele>31</ele>
        <time>2022-08-07T08:14:20.000Z</time>
      </trkpt>
      <trkpt lat="48.62085" lon="-4.25362">
        <ele>31</ele>
        <time>2022-08-07T08:14:21.000Z</time>
      </trkpt>
      <trkpt lat="48.62087" lon="-4.25371">
        <ele>31</ele>
        <time>2022-08-07T08:14:22.000Z</time>
      </trkpt>
      <trkpt lat="48.62089" lon="-4.25378">
        <ele>30.799999237061</ele>
        <time>2022-08-07T08:14:23.000Z</time>
      </trkpt>
      <trkpt lat="48.62091" lon="-4.25384">
        <ele>30.799999237061</ele>
        <time>2022-08-07T08:14:24.000Z</time>
      </trkpt>
      <trkpt lat="48.62092" lon="-4.2539">
        <ele>30.60000038147</ele>
        <time>2022-08-07T08:14:25.000Z</time>
      </trkpt>
      <trkpt lat="48.62095" lon="-4.25398">
        <ele>30.39999961853</ele>
        <time>2022-08-07T08:14:26.000Z</time>
      </trkpt>
      <trkpt lat="48.62097" lon="-4.25406">
        <ele>30.200000762939</ele>
        <time>2022-08-07T08:14:27.000Z</time>
      </trkpt>
      <trkpt lat="48.621" lon="-4.25414">
        <ele>30</ele>
        <time>2022-08-07T08:14:28.000Z</time>
      </trkpt>
      <trkpt lat="48.62102" lon="-4.25421">
        <ele>30</ele>
        <time>2022-08-07T08:14:29.000Z</time>
      </trkpt>
      <trkpt lat="48.62104" lon="-4.25427">
        <ele>29.799999237061</ele>
        <time>2022-08-07T08:14:30.000Z</time>
      </trkpt>
      <trkpt lat="48.62107" lon="-4.25436">
        <ele>29.60000038147</ele>
        <time>2022-08-07T08:14:31.000Z</time>
      </trkpt>
      <trkpt lat="48.62108" lon="-4.25441">
        <ele>29.200000762939</ele>
        <time>2022-08-07T08:14:32.000Z</time>
      </trkpt>
      <trkpt lat="48.62111" lon="-4.25449">
        <ele>29</ele>
        <time>2022-08-07T08:14:33.000Z</time>
      </trkpt>
      <trkpt lat="48.62112" lon="-4.25453">
        <ele>28.799999237061</ele>
        <time>2022-08-07T08:14:34.000Z</time>
      </trkpt>
      <trkpt lat="48.62114" lon="-4.25458">
        <ele>28.60000038147</ele>
        <time>2022-08-07T08:14:35.000Z</time>
      </trkpt>
      <trkpt lat="48.62116" lon="-4.25463">
        <ele>28.60000038147</ele>
        <time>2022-08-07T08:14:36.000Z</time>
      </trkpt>
      <trkpt lat="48.62117" lon="-4.25465">
        <ele>28.39999961853</ele>
        <time>2022-08-07T08:14:37.000Z</time>
      </trkpt>
      <trkpt lat="48.62118" lon="-4.25467">
        <ele>28.200000762939</ele>
        <time>2022-08-07T08:14:38.000Z</time>
      </trkpt>
      <trkpt lat="48.62119" lon="-4.25468">
        <ele>28</ele>
        <time>2022-08-07T08:14:39.000Z</time>
      </trkpt>
      <trkpt lat="48.6212" lon="-4.2547">
        <ele>27.799999237061</ele>
        <time>2022-08-07T08:14:40.000Z</time>
      </trkpt>
      <trkpt lat="48.6212" lon="-4.25472">
        <ele>27.799999237061</ele>
        <time>2022-08-07T08:14:41.000Z</time>
      </trkpt>
      <trkpt lat="48.6212" lon="-4.25474">
        <ele>27.60000038147</ele>
        <time>2022-08-07T08:14:42.000Z</time>
      </trkpt>
      <trkpt lat="48.62119" lon="-4.25477">
        <ele>27.60000038147</ele>
        <time>2022-08-07T08:14:43.000Z</time>
      </trkpt>
      <trkpt lat="48.62119" lon="-4.2548">
        <ele>27.39999961853</ele>
        <time>2022-08-07T08:14:44.000Z</time>
      </trkpt>
      <trkpt lat="48.62117" lon="-4.25484">
        <ele>27.39999961853</ele>
        <time>2022-08-07T08:14:45.000Z</time>
      </trkpt>
      <trkpt lat="48.62116" lon="-4.25488">
        <ele>27.200000762939</ele>
        <time>2022-08-07T08:14:46.000Z</time>
      </trkpt>
      <trkpt lat="48.62114" lon="-4.25493">
        <ele>27.200000762939</ele>
        <time>2022-08-07T08:14:47.000Z</time>
      </trkpt>
      <trkpt lat="48.62113" lon="-4.25497">
        <ele>27.200000762939</ele>
        <time>2022-08-07T08:14:48.000Z</time>
      </trkpt>
      <trkpt lat="48.62112" lon="-4.25502">
        <ele>27.200000762939</ele>
        <time>2022-08-07T08:14:49.000Z</time>
      </trkpt>
      <trkpt lat="48.62112" lon="-4.2551">
        <ele>27</ele>
        <time>2022-08-07T08:14:50.000Z</time>
      </trkpt>
      <trkpt lat="48.62112" lon="-4.25517">
        <ele>26.799999237061</ele>
        <time>2022-08-07T08:14:51.000Z</time>
      </trkpt>
      <trkpt lat="48.62113" lon="-4.25524">
        <ele>26.799999237061</ele>
        <time>2022-08-07T08:14:52.000Z</time>
      </trkpt>
      <trkpt lat="48.62113" lon="-4.2553">
        <ele>26.60000038147</ele>
        <time>2022-08-07T08:14:53.000Z</time>
      </trkpt>
      <trkpt lat="48.62113" lon="-4.25538">
        <ele>26.39999961853</ele>
        <time>2022-08-07T08:14:54.000Z</time>
      </trkpt>
      <trkpt lat="48.62112" lon="-4.25547">
        <ele>26.39999961853</ele>
        <time>2022-08-07T08:14:55.000Z</time>
      </trkpt>
      <trkpt lat="48.62112" lon="-4.25554">
        <ele>26.39999961853</ele>
        <time>2022-08-07T08:14:56.000Z</time>
      </trkpt>
      <trkpt lat="48.62111" lon="-4.25562">
        <ele>26.200000762939</ele>
        <time>2022-08-07T08:14:57.000Z</time>
      </trkpt>
      <trkpt lat="48.62111" lon="-4.25568">
        <ele>26</ele>
        <time>2022-08-07T08:14:58.000Z</time>
      </trkpt>
      <trkpt lat="48.6211" lon="-4.25577">
        <ele>25.799999237061</ele>
        <time>2022-08-07T08:14:59.000Z</time>
      </trkpt>
      <trkpt lat="48.6211" lon="-4.25587">
        <ele>25.799999237061</ele>
        <time>2022-08-07T08:15:00.000Z</time>
      </trkpt>
      <trkpt lat="48.62109" lon="-4.25596">
        <ele>25.60000038147</ele>
        <time>2022-08-07T08:15:01.000Z</time>
      </trkpt>
      <trkpt lat="48.62109" lon="-4.25605">
        <ele>25.39999961853</ele>
        <time>2022-08-07T08:15:02.000Z</time>
      </trkpt>
      <trkpt lat="48.62108" lon="-4.25613">
        <ele>25.39999961853</ele>
        <time>2022-08-07T08:15:03.000Z</time>
      </trkpt>
      <trkpt lat="48.62107" lon="-4.25623">
        <ele>25</ele>
        <time>2022-08-07T08:15:04.000Z</time>
      </trkpt>
      <trkpt lat="48.62107" lon="-4.25635">
        <ele>24.60000038147</ele>
        <time>2022-08-07T08:15:05.000Z</time>
      </trkpt>
      <trkpt lat="48.62106" lon="-4.25644">
        <ele>24.39999961853</ele>
        <time>2022-08-07T08:15:06.000Z</time>
      </trkpt>
      <trkpt lat="48.62106" lon="-4.25654">
        <ele>24.39999961853</ele>
        <time>2022-08-07T08:15:07.000Z</time>
      </trkpt>
      <trkpt lat="48.62105" lon="-4.25662">
        <ele>24.200000762939</ele>
        <time>2022-08-07T08:15:08.000Z</time>
      </trkpt>
      <trkpt lat="48.62105" lon="-4.25673">
        <ele>24</ele>
        <time>2022-08-07T08:15:09.000Z</time>
      </trkpt>
      <trkpt lat="48.62105" lon="-4.2568">
        <ele>24</ele>
        <time>2022-08-07T08:15:10.000Z</time>
      </trkpt>
      <trkpt lat="48.62106" lon="-4.25691">
        <ele>23.799999237061</ele>
        <time>2022-08-07T08:15:11.000Z</time>
      </trkpt>
      <trkpt lat="48.62106" lon="-4.25699">
        <ele>23.799999237061</ele>
        <time>2022-08-07T08:15:12.000Z</time>
      </trkpt>
      <trkpt lat="48.62106" lon="-4.25707">
        <ele>23.39999961853</ele>
        <time>2022-08-07T08:15:13.000Z</time>
      </trkpt>
      <trkpt lat="48.62106" lon="-4.25719">
        <ele>23.39999961853</ele>
        <time>2022-08-07T08:15:14.000Z</time>
      </trkpt>
      <trkpt lat="48.62107" lon="-4.25728">
        <ele>23.200000762939</ele>
        <time>2022-08-07T08:15:15.000Z</time>
      </trkpt>
      <trkpt lat="48.62107" lon="-4.25737">
        <ele>23.200000762939</ele>
        <time>2022-08-07T08:15:16.000Z</time>
      </trkpt>
      <trkpt lat="48.62107" lon="-4.25745">
        <ele>23</ele>
        <time>2022-08-07T08:15:17.000Z</time>
      </trkpt>
      <trkpt lat="48.62108" lon="-4.25754">
        <ele>22.799999237061</ele>
        <time>2022-08-07T08:15:18.000Z</time>
      </trkpt>
      <trkpt lat="48.62108" lon="-4.25765">
        <ele>22.60000038147</ele>
        <time>2022-08-07T08:15:19.000Z</time>
      </trkpt>
      <trkpt lat="48.62108" lon="-4.25775">
        <ele>22.60000038147</ele>
        <time>2022-08-07T08:15:20.000Z</time>
      </trkpt>
      <trkpt lat="48.62107" lon="-4.25784">
        <ele>22.60000038147</ele>
        <time>2022-08-07T08:15:21.000Z</time>
      </trkpt>
      <trkpt lat="48.62107" lon="-4.25791">
        <ele>22.39999961853</ele>
        <time>2022-08-07T08:15:22.000Z</time>
      </trkpt>
      <trkpt lat="48.62106" lon="-4.25802">
        <ele>22.39999961853</ele>
        <time>2022-08-07T08:15:23.000Z</time>
      </trkpt>
      <trkpt lat="48.62106" lon="-4.25809">
        <ele>22.200000762939</ele>
        <time>2022-08-07T08:15:24.000Z</time>
      </trkpt>
      <trkpt lat="48.62105" lon="-4.25817">
        <ele>22.200000762939</ele>
        <time>2022-08-07T08:15:25.000Z</time>
      </trkpt>
      <trkpt lat="48.62105" lon="-4.25826">
        <ele>22.200000762939</ele>
        <time>2022-08-07T08:15:26.000Z</time>
      </trkpt>
      <trkpt lat="48.62104" lon="-4.25834">
        <ele>22.200000762939</ele>
        <time>2022-08-07T08:15:27.000Z</time>
      </trkpt>
      <trkpt lat="48.62103" lon="-4.25842">
        <ele>22.200000762939</ele>
        <time>2022-08-07T08:15:28.000Z</time>
      </trkpt>
      <trkpt lat="48.62103" lon="-4.25849">
        <ele>22.200000762939</ele>
        <time>2022-08-07T08:15:29.000Z</time>
      </trkpt>
      <trkpt lat="48.62102" lon="-4.25857">
        <ele>22</ele>
        <time>2022-08-07T08:15:30.000Z</time>
      </trkpt>
      <trkpt lat="48.62102" lon="-4.25862">
        <ele>22</ele>
        <time>2022-08-07T08:15:31.000Z</time>
      </trkpt>
      <trkpt lat="48.62101" lon="-4.25867">
        <ele>22</ele>
        <time>2022-08-07T08:15:32.000Z</time>
      </trkpt>
      <trkpt lat="48.621" lon="-4.25874">
        <ele>22</ele>
        <time>2022-08-07T08:15:33.000Z</time>
      </trkpt>
      <trkpt lat="48.62098" lon="-4.25879">
        <ele>22</ele>
        <time>2022-08-07T08:15:34.000Z</time>
      </trkpt>
      <trkpt lat="48.62096" lon="-4.25884">
        <ele>22</ele>
        <time>2022-08-07T08:15:35.000Z</time>
      </trkpt>
      <trkpt lat="48.62093" lon="-4.25888">
        <ele>21.799999237061</ele>
        <time>2022-08-07T08:15:36.000Z</time>
      </trkpt>
      <trkpt lat="48.6209" lon="-4.25892">
        <ele>21.799999237061</ele>
        <time>2022-08-07T08:15:37.000Z</time>
      </trkpt>
      <trkpt lat="48.62086" lon="-4.25896">
        <ele>21.799999237061</ele>
        <time>2022-08-07T08:15:38.000Z</time>
      </trkpt>
      <trkpt lat="48.62082" lon="-4.25901">
        <ele>21.799999237061</ele>
        <time>2022-08-07T08:15:39.000Z</time>
      </trkpt>
      <trkpt lat="48.62079" lon="-4.25905">
        <ele>21.799999237061</ele>
        <time>2022-08-07T08:15:40.000Z</time>
      </trkpt>
      <trkpt lat="48.62075" lon="-4.2591">
        <ele>21.799999237061</ele>
        <time>2022-08-07T08:15:41.000Z</time>
      </trkpt>
      <trkpt lat="48.62071" lon="-4.25915">
        <ele>21.60000038147</ele>
        <time>2022-08-07T08:15:42.000Z</time>
      </trkpt>
      <trkpt lat="48.62067" lon="-4.2592">
        <ele>21.39999961853</ele>
        <time>2022-08-07T08:15:43.000Z</time>
      </trkpt>
      <trkpt lat="48.62064" lon="-4.25926">
        <ele>21.200000762939</ele>
        <time>2022-08-07T08:15:44.000Z</time>
      </trkpt>
      <trkpt lat="48.62061" lon="-4.25931">
        <ele>21</ele>
        <time>2022-08-07T08:15:45.000Z</time>
      </trkpt>
      <trkpt lat="48.62058" lon="-4.25936">
        <ele>20.799999237061</ele>
        <time>2022-08-07T08:15:46.000Z</time>
      </trkpt>
      <trkpt lat="48.62054" lon="-4.25942">
        <ele>20.799999237061</ele>
        <time>2022-08-07T08:15:47.000Z</time>
      </trkpt>
      <trkpt lat="48.62052" lon="-4.25948">
        <ele>20.799999237061</ele>
        <time>2022-08-07T08:15:48.000Z</time>
      </trkpt>
      <trkpt lat="48.62049" lon="-4.25954">
        <ele>20.60000038147</ele>
        <time>2022-08-07T08:15:49.000Z</time>
      </trkpt>
      <trkpt lat="48.62046" lon="-4.2596">
        <ele>20.39999961853</ele>
        <time>2022-08-07T08:15:50.000Z</time>
      </trkpt>
      <trkpt lat="48.62043" lon="-4.25966">
        <ele>20.39999961853</ele>
        <time>2022-08-07T08:15:51.000Z</time>
      </trkpt>
      <trkpt lat="48.62041" lon="-4.25973">
        <ele>20.200000762939</ele>
        <time>2022-08-07T08:15:52.000Z</time>
      </trkpt>
      <trkpt lat="48.62039" lon="-4.2598">
        <ele>20.200000762939</ele>
        <time>2022-08-07T08:15:53.000Z</time>
      </trkpt>
      <trkpt lat="48.62036" lon="-4.25987">
        <ele>20</ele>
        <time>2022-08-07T08:15:54.000Z</time>
      </trkpt>
      <trkpt lat="48.62034" lon="-4.25995">
        <ele>20</ele>
        <time>2022-08-07T08:15:55.000Z</time>
      </trkpt>
      <trkpt lat="48.62032" lon="-4.26003">
        <ele>19.60000038147</ele>
        <time>2022-08-07T08:15:56.000Z</time>
      </trkpt>
      <trkpt lat="48.6203" lon="-4.2601">
        <ele>19.60000038147</ele>
        <time>2022-08-07T08:15:57.000Z</time>
      </trkpt>
      <trkpt lat="48.62028" lon="-4.26018">
        <ele>19.200000762939</ele>
        <time>2022-08-07T08:15:58.000Z</time>
      </trkpt>
      <trkpt lat="48.62026" lon="-4.26026">
        <ele>19</ele>
        <time>2022-08-07T08:15:59.000Z</time>
      </trkpt>
      <trkpt lat="48.62025" lon="-4.26034">
        <ele>18.799999237061</ele>
        <time>2022-08-07T08:16:00.000Z</time>
      </trkpt>
      <trkpt lat="48.62023" lon="-4.26042">
        <ele>18.60000038147</ele>
        <time>2022-08-07T08:16:01.000Z</time>
      </trkpt>
      <trkpt lat="48.62022" lon="-4.2605">
        <ele>18.60000038147</ele>
        <time>2022-08-07T08:16:02.000Z</time>
      </trkpt>
      <trkpt lat="48.6202" lon="-4.26058">
        <ele>18.200000762939</ele>
        <time>2022-08-07T08:16:03.000Z</time>
      </trkpt>
      <trkpt lat="48.62019" lon="-4.26067">
        <ele>18.200000762939</ele>
        <time>2022-08-07T08:16:04.000Z</time>
      </trkpt>
      <trkpt lat="48.62017" lon="-4.26075">
        <ele>17.799999237061</ele>
        <time>2022-08-07T08:16:05.000Z</time>
      </trkpt>
      <trkpt lat="48.62016" lon="-4.26084">
        <ele>17.799999237061</ele>
        <time>2022-08-07T08:16:06.000Z</time>
      </trkpt>
      <trkpt lat="48.62014" lon="-4.26092">
        <ele>17.60000038147</ele>
        <time>2022-08-07T08:16:07.000Z</time>
      </trkpt>
      <trkpt lat="48.62013" lon="-4.261">
        <ele>17.60000038147</ele>
        <time>2022-08-07T08:16:08.000Z</time>
      </trkpt>
      <trkpt lat="48.62011" lon="-4.26107">
        <ele>17.60000038147</ele>
        <time>2022-08-07T08:16:09.000Z</time>
      </trkpt>
      <trkpt lat="48.6201" lon="-4.26115">
        <ele>17.60000038147</ele>
        <time>2022-08-07T08:16:10.000Z</time>
      </trkpt>
      <trkpt lat="48.62008" lon="-4.26124">
        <ele>17.39999961853</ele>
        <time>2022-08-07T08:16:11.000Z</time>
      </trkpt>
      <trkpt lat="48.62006" lon="-4.26133">
        <ele>17.200000762939</ele>
        <time>2022-08-07T08:16:12.000Z</time>
      </trkpt>
      <trkpt lat="48.62005" lon="-4.26141">
        <ele>17.200000762939</ele>
        <time>2022-08-07T08:16:13.000Z</time>
      </trkpt>
      <trkpt lat="48.62003" lon="-4.26147">
        <ele>17</ele>
        <time>2022-08-07T08:16:14.000Z</time>
      </trkpt>
      <trkpt lat="48.62002" lon="-4.26155">
        <ele>17</ele>
        <time>2022-08-07T08:16:15.000Z</time>
      </trkpt>
      <trkpt lat="48.62" lon="-4.26164">
        <ele>16.60000038147</ele>
        <time>2022-08-07T08:16:16.000Z</time>
      </trkpt>
      <trkpt lat="48.61998" lon="-4.26172">
        <ele>16.60000038147</ele>
        <time>2022-08-07T08:16:17.000Z</time>
      </trkpt>
      <trkpt lat="48.61997" lon="-4.26178">
        <ele>16.39999961853</ele>
        <time>2022-08-07T08:16:18.000Z</time>
      </trkpt>
      <trkpt lat="48.61996" lon="-4.26186">
        <ele>16.200000762939</ele>
        <time>2022-08-07T08:16:19.000Z</time>
      </trkpt>
      <trkpt lat="48.61994" lon="-4.26194">
        <ele>16.200000762939</ele>
        <time>2022-08-07T08:16:20.000Z</time>
      </trkpt>
      <trkpt lat="48.61992" lon="-4.26204">
        <ele>16.200000762939</ele>
        <time>2022-08-07T08:16:21.000Z</time>
      </trkpt>
      <trkpt lat="48.6199" lon="-4.26211">
        <ele>16</ele>
        <time>2022-08-07T08:16:22.000Z</time>
      </trkpt>
      <trkpt lat="48.61988" lon="-4.26218">
        <ele>16</ele>
        <time>2022-08-07T08:16:23.000Z</time>
      </trkpt>
      <trkpt lat="48.61987" lon="-4.26225">
        <ele>15.800000190735</ele>
        <time>2022-08-07T08:16:24.000Z</time>
      </trkpt>
      <trkpt lat="48.61986" lon="-4.26232">
        <ele>15.60000038147</ele>
        <time>2022-08-07T08:16:25.000Z</time>
      </trkpt>
      <trkpt lat="48.61984" lon="-4.26242">
        <ele>15.39999961853</ele>
        <time>2022-08-07T08:16:26.000Z</time>
      </trkpt>
      <trkpt lat="48.61983" lon="-4.2625">
        <ele>15.199999809265</ele>
        <time>2022-08-07T08:16:27.000Z</time>
      </trkpt>
      <trkpt lat="48.61981" lon="-4.26257">
        <ele>15.199999809265</ele>
        <time>2022-08-07T08:16:28.000Z</time>
      </trkpt>
      <trkpt lat="48.6198" lon="-4.26264">
        <ele>15</ele>
        <time>2022-08-07T08:16:29.000Z</time>
      </trkpt>
      <trkpt lat="48.61978" lon="-4.26273">
        <ele>14.800000190735</ele>
        <time>2022-08-07T08:16:30.000Z</time>
      </trkpt>
      <trkpt lat="48.61977" lon="-4.26281">
        <ele>14.60000038147</ele>
        <time>2022-08-07T08:16:31.000Z</time>
      </trkpt>
      <trkpt lat="48.61975" lon="-4.26288">
        <ele>14.199999809265</ele>
        <time>2022-08-07T08:16:32.000Z</time>
      </trkpt>
      <trkpt lat="48.61974" lon="-4.26294">
        <ele>14</ele>
        <time>2022-08-07T08:16:33.000Z</time>
      </trkpt>
      <trkpt lat="48.61974" lon="-4.26301">
        <ele>13.800000190735</ele>
        <time>2022-08-07T08:16:34.000Z</time>
      </trkpt>
      <trkpt lat="48.61973" lon="-4.2631">
        <ele>13.800000190735</ele>
        <time>2022-08-07T08:16:35.000Z</time>
      </trkpt>
      <trkpt lat="48.61972" lon="-4.26316">
        <ele>13.800000190735</ele>
        <time>2022-08-07T08:16:36.000Z</time>
      </trkpt>
      <trkpt lat="48.6197" lon="-4.26324">
        <ele>13.60000038147</ele>
        <time>2022-08-07T08:16:37.000Z</time>
      </trkpt>
      <trkpt lat="48.61969" lon="-4.26329">
        <ele>13.39999961853</ele>
        <time>2022-08-07T08:16:38.000Z</time>
      </trkpt>
      <trkpt lat="48.61967" lon="-4.26338">
        <ele>13.39999961853</ele>
        <time>2022-08-07T08:16:39.000Z</time>
      </trkpt>
      <trkpt lat="48.61966" lon="-4.26346">
        <ele>13.39999961853</ele>
        <time>2022-08-07T08:16:40.000Z</time>
      </trkpt>
      <trkpt lat="48.61964" lon="-4.26353">
        <ele>13.199999809265</ele>
        <time>2022-08-07T08:16:41.000Z</time>
      </trkpt>
      <trkpt lat="48.61963" lon="-4.26359">
        <ele>13.199999809265</ele>
        <time>2022-08-07T08:16:42.000Z</time>
      </trkpt>
      <trkpt lat="48.61962" lon="-4.26366">
        <ele>13</ele>
        <time>2022-08-07T08:16:43.000Z</time>
      </trkpt>
      <trkpt lat="48.6196" lon="-4.26376">
        <ele>13</ele>
        <time>2022-08-07T08:16:44.000Z</time>
      </trkpt>
      <trkpt lat="48.61958" lon="-4.26383">
        <ele>12.800000190735</ele>
        <time>2022-08-07T08:16:45.000Z</time>
      </trkpt>
      <trkpt lat="48.61957" lon="-4.26391">
        <ele>12.800000190735</ele>
        <time>2022-08-07T08:16:46.000Z</time>
      </trkpt>
      <trkpt lat="48.61956" lon="-4.26396">
        <ele>12.60000038147</ele>
        <time>2022-08-07T08:16:47.000Z</time>
      </trkpt>
      <trkpt lat="48.61955" lon="-4.26404">
        <ele>12.60000038147</ele>
        <time>2022-08-07T08:16:48.000Z</time>
      </trkpt>
      <trkpt lat="48.61954" lon="-4.26414">
        <ele>12.39999961853</ele>
        <time>2022-08-07T08:16:49.000Z</time>
      </trkpt>
      <trkpt lat="48.61953" lon="-4.26422">
        <ele>12.199999809265</ele>
        <time>2022-08-07T08:16:50.000Z</time>
      </trkpt>
      <trkpt lat="48.61952" lon="-4.26429">
        <ele>12.199999809265</ele>
        <time>2022-08-07T08:16:51.000Z</time>
      </trkpt>
      <trkpt lat="48.61952" lon="-4.26438">
        <ele>12.199999809265</ele>
        <time>2022-08-07T08:16:52.000Z</time>
      </trkpt>
      <trkpt lat="48.61952" lon="-4.26448">
        <ele>12</ele>
        <time>2022-08-07T08:16:53.000Z</time>
      </trkpt>
      <trkpt lat="48.61952" lon="-4.26457">
        <ele>11.800000190735</ele>
        <time>2022-08-07T08:16:54.000Z</time>
      </trkpt>
      <trkpt lat="48.61951" lon="-4.26466">
        <ele>11.800000190735</ele>
        <time>2022-08-07T08:16:55.000Z</time>
      </trkpt>
      <trkpt lat="48.61952" lon="-4.26474">
        <ele>11.60000038147</ele>
        <time>2022-08-07T08:16:56.000Z</time>
      </trkpt>
      <trkpt lat="48.61952" lon="-4.26483">
        <ele>11.60000038147</ele>
        <time>2022-08-07T08:16:57.000Z</time>
      </trkpt>
      <trkpt lat="48.61953" lon="-4.26493">
        <ele>11.39999961853</ele>
        <time>2022-08-07T08:16:58.000Z</time>
      </trkpt>
      <trkpt lat="48.61953" lon="-4.26502">
        <ele>11.39999961853</ele>
        <time>2022-08-07T08:16:59.000Z</time>
      </trkpt>
      <trkpt lat="48.61954" lon="-4.26508">
        <ele>11.199999809265</ele>
        <time>2022-08-07T08:17:00.000Z</time>
      </trkpt>
      <trkpt lat="48.61955" lon="-4.26515">
        <ele>11</ele>
        <time>2022-08-07T08:17:01.000Z</time>
      </trkpt>
      <trkpt lat="48.61956" lon="-4.26522">
        <ele>11</ele>
        <time>2022-08-07T08:17:02.000Z</time>
      </trkpt>
      <trkpt lat="48.61958" lon="-4.26529">
        <ele>11</ele>
        <time>2022-08-07T08:17:03.000Z</time>
      </trkpt>
      <trkpt lat="48.61959" lon="-4.26535">
        <ele>11</ele>
        <time>2022-08-07T08:17:04.000Z</time>
      </trkpt>
      <trkpt lat="48.6196" lon="-4.26541">
        <ele>10.800000190735</ele>
        <time>2022-08-07T08:17:05.000Z</time>
      </trkpt>
      <trkpt lat="48.61962" lon="-4.26548">
        <ele>10.800000190735</ele>
        <time>2022-08-07T08:17:06.000Z</time>
      </trkpt>
      <trkpt lat="48.61963" lon="-4.26555">
        <ele>10.60000038147</ele>
        <time>2022-08-07T08:17:07.000Z</time>
      </trkpt>
      <trkpt lat="48.61965" lon="-4.26561">
        <ele>10.39999961853</ele>
        <time>2022-08-07T08:17:08.000Z</time>
      </trkpt>
      <trkpt lat="48.61967" lon="-4.26568">
        <ele>10.60000038147</ele>
        <time>2022-08-07T08:17:09.000Z</time>
      </trkpt>
      <trkpt lat="48.61969" lon="-4.26576">
        <ele>10.39999961853</ele>
        <time>2022-08-07T08:17:10.000Z</time>
      </trkpt>
      <trkpt lat="48.6197" lon="-4.26581">
        <ele>10.199999809265</ele>
        <time>2022-08-07T08:17:11.000Z</time>
      </trkpt>
      <trkpt lat="48.61972" lon="-4.26588">
        <ele>10</ele>
        <time>2022-08-07T08:17:12.000Z</time>
      </trkpt>
      <trkpt lat="48.61974" lon="-4.26595">
        <ele>9.8000001907349</ele>
        <time>2022-08-07T08:17:13.000Z</time>
      </trkpt>
      <trkpt lat="48.61976" lon="-4.26602">
        <ele>9.6000003814697</ele>
        <time>2022-08-07T08:17:14.000Z</time>
      </trkpt>
      <trkpt lat="48.61979" lon="-4.26608">
        <ele>9.6000003814697</ele>
        <time>2022-08-07T08:17:15.000Z</time>
      </trkpt>
      <trkpt lat="48.6198" lon="-4.26614">
        <ele>9.3999996185303</ele>
        <time>2022-08-07T08:17:16.000Z</time>
      </trkpt>
      <trkpt lat="48.61983" lon="-4.26621">
        <ele>9.1999998092651</ele>
        <time>2022-08-07T08:17:17.000Z</time>
      </trkpt>
      <trkpt lat="48.61985" lon="-4.26627">
        <ele>9.1999998092651</ele>
        <time>2022-08-07T08:17:18.000Z</time>
      </trkpt>
      <trkpt lat="48.61987" lon="-4.26634">
        <ele>9.1999998092651</ele>
        <time>2022-08-07T08:17:19.000Z</time>
      </trkpt>
      <trkpt lat="48.61988" lon="-4.26639">
        <ele>9.1999998092651</ele>
        <time>2022-08-07T08:17:20.000Z</time>
      </trkpt>
      <trkpt lat="48.6199" lon="-4.26646">
        <ele>9</ele>
        <time>2022-08-07T08:17:21.000Z</time>
      </trkpt>
      <trkpt lat="48.61993" lon="-4.26655">
        <ele>9</ele>
        <time>2022-08-07T08:17:22.000Z</time>
      </trkpt>
      <trkpt lat="48.61995" lon="-4.26661">
        <ele>8.8000001907349</ele>
        <time>2022-08-07T08:17:23.000Z</time>
      </trkpt>
      <trkpt lat="48.61997" lon="-4.26668">
        <ele>8.6000003814697</ele>
        <time>2022-08-07T08:17:24.000Z</time>
      </trkpt>
      <trkpt lat="48.61999" lon="-4.26674">
        <ele>8.6000003814697</ele>
        <time>2022-08-07T08:17:25.000Z</time>
      </trkpt>
      <trkpt lat="48.62001" lon="-4.2668">
        <ele>8.3999996185303</ele>
        <time>2022-08-07T08:17:26.000Z</time>
      </trkpt>
      <trkpt lat="48.62003" lon="-4.26687">
        <ele>8.3999996185303</ele>
        <time>2022-08-07T08:17:27.000Z</time>
      </trkpt>
      <trkpt lat="48.62005" lon="-4.26695">
        <ele>8.3999996185303</ele>
        <time>2022-08-07T08:17:28.000Z</time>
      </trkpt>
      <trkpt lat="48.62007" lon="-4.26701">
        <ele>8.1999998092651</ele>
        <time>2022-08-07T08:17:29.000Z</time>
      </trkpt>
      <trkpt lat="48.62008" lon="-4.26708">
        <ele>8</ele>
        <time>2022-08-07T08:17:30.000Z</time>
      </trkpt>
      <trkpt lat="48.6201" lon="-4.26717">
        <ele>8</ele>
        <time>2022-08-07T08:17:31.000Z</time>
      </trkpt>
      <trkpt lat="48.62011" lon="-4.26725">
        <ele>7.5999999046326</ele>
        <time>2022-08-07T08:17:32.000Z</time>
      </trkpt>
      <trkpt lat="48.62012" lon="-4.26733">
        <ele>7.5999999046326</ele>
        <time>2022-08-07T08:17:33.000Z</time>
      </trkpt>
      <trkpt lat="48.62013" lon="-4.2674">
        <ele>7.1999998092651</ele>
        <time>2022-08-07T08:17:34.000Z</time>
      </trkpt>
      <trkpt lat="48.62014" lon="-4.26748">
        <ele>7</ele>
        <time>2022-08-07T08:17:35.000Z</time>
      </trkpt>
      <trkpt lat="48.62015" lon="-4.26758">
        <ele>6.8000001907349</ele>
        <time>2022-08-07T08:17:36.000Z</time>
      </trkpt>
      <trkpt lat="48.62016" lon="-4.26766">
        <ele>6.5999999046326</ele>
        <time>2022-08-07T08:17:37.000Z</time>
      </trkpt>
      <trkpt lat="48.62016" lon="-4.26775">
        <ele>6.4000000953674</ele>
        <time>2022-08-07T08:17:38.000Z</time>
      </trkpt>
      <trkpt lat="48.62016" lon="-4.26783">
        <ele>6.1999998092651</ele>
        <time>2022-08-07T08:17:39.000Z</time>
      </trkpt>
      <trkpt lat="48.62016" lon="-4.26792">
        <ele>6</ele>
        <time>2022-08-07T08:17:40.000Z</time>
      </trkpt>
      <trkpt lat="48.62015" lon="-4.26803">
        <ele>5.8000001907349</ele>
        <time>2022-08-07T08:17:41.000Z</time>
      </trkpt>
      <trkpt lat="48.62015" lon="-4.26812">
        <ele>6</ele>
        <time>2022-08-07T08:17:42.000Z</time>
      </trkpt>
      <trkpt lat="48.62015" lon="-4.26821">
        <ele>5.8000001907349</ele>
        <time>2022-08-07T08:17:43.000Z</time>
      </trkpt>
      <trkpt lat="48.62014" lon="-4.26828">
        <ele>5.8000001907349</ele>
        <time>2022-08-07T08:17:44.000Z</time>
      </trkpt>
      <trkpt lat="48.62014" lon="-4.26838">
        <ele>5.8000001907349</ele>
        <time>2022-08-07T08:17:45.000Z</time>
      </trkpt>
      <trkpt lat="48.62014" lon="-4.26846">
        <ele>5.5999999046326</ele>
        <time>2022-08-07T08:17:46.000Z</time>
      </trkpt>
      <trkpt lat="48.62014" lon="-4.26852">
        <ele>5.5999999046326</ele>
        <time>2022-08-07T08:17:47.000Z</time>
      </trkpt>
      <trkpt lat="48.62013" lon="-4.26858">
        <ele>5.4000000953674</ele>
        <time>2022-08-07T08:17:48.000Z</time>
      </trkpt>
      <trkpt lat="48.62013" lon="-4.26864">
        <ele>5.4000000953674</ele>
        <time>2022-08-07T08:17:49.000Z</time>
      </trkpt>
      <trkpt lat="48.62011" lon="-4.2687">
        <ele>5.1999998092651</ele>
        <time>2022-08-07T08:17:50.000Z</time>
      </trkpt>
      <trkpt lat="48.62011" lon="-4.26876">
        <ele>5.1999998092651</ele>
        <time>2022-08-07T08:17:51.000Z</time>
      </trkpt>
      <trkpt lat="48.6201" lon="-4.26882">
        <ele>5</ele>
        <time>2022-08-07T08:17:52.000Z</time>
      </trkpt>
      <trkpt lat="48.6201" lon="-4.26888">
        <ele>4.8000001907349</ele>
        <time>2022-08-07T08:17:53.000Z</time>
      </trkpt>
      <trkpt lat="48.62008" lon="-4.26895">
        <ele>4.5999999046326</ele>
        <time>2022-08-07T08:17:54.000Z</time>
      </trkpt>
      <trkpt lat="48.62006" lon="-4.26901">
        <ele>4.5999999046326</ele>
        <time>2022-08-07T08:17:55.000Z</time>
      </trkpt>
      <trkpt lat="48.62005" lon="-4.26907">
        <ele>4.4000000953674</ele>
        <time>2022-08-07T08:17:56.000Z</time>
      </trkpt>
      <trkpt lat="48.62004" lon="-4.26912">
        <ele>4.1999998092651</ele>
        <time>2022-08-07T08:17:57.000Z</time>
      </trkpt>
      <trkpt lat="48.62004" lon="-4.26918">
        <ele>4.1999998092651</ele>
        <time>2022-08-07T08:17:58.000Z</time>
      </trkpt>
      <trkpt lat="48.62003" lon="-4.26924">
        <ele>4.1999998092651</ele>
        <time>2022-08-07T08:17:59.000Z</time>
      </trkpt>
      <trkpt lat="48.62002" lon="-4.26931">
        <ele>4.1999998092651</ele>
        <time>2022-08-07T08:18:00.000Z</time>
      </trkpt>
      <trkpt lat="48.62001" lon="-4.26938">
        <ele>4.1999998092651</ele>
        <time>2022-08-07T08:18:01.000Z</time>
      </trkpt>
      <trkpt lat="48.62" lon="-4.26946">
        <ele>4.1999998092651</ele>
        <time>2022-08-07T08:18:02.000Z</time>
      </trkpt>
      <trkpt lat="48.61999" lon="-4.26953">
        <ele>4.1999998092651</ele>
        <time>2022-08-07T08:18:03.000Z</time>
      </trkpt>
      <trkpt lat="48.61998" lon="-4.2696">
        <ele>4.1999998092651</ele>
        <time>2022-08-07T08:18:04.000Z</time>
      </trkpt>
      <trkpt lat="48.61997" lon="-4.26967">
        <ele>4.1999998092651</ele>
        <time>2022-08-07T08:18:05.000Z</time>
      </trkpt>
      <trkpt lat="48.61996" lon="-4.26975">
        <ele>4.1999998092651</ele>
        <time>2022-08-07T08:18:06.000Z</time>
      </trkpt>
      <trkpt lat="48.61994" lon="-4.2698">
        <ele>4.1999998092651</ele>
        <time>2022-08-07T08:18:07.000Z</time>
      </trkpt>
      <trkpt lat="48.61993" lon="-4.26986">
        <ele>4.1999998092651</ele>
        <time>2022-08-07T08:18:08.000Z</time>
      </trkpt>
      <trkpt lat="48.61992" lon="-4.26993">
        <ele>4.1999998092651</ele>
        <time>2022-08-07T08:18:09.000Z</time>
      </trkpt>
      <trkpt lat="48.61991" lon="-4.26999">
        <ele>4.1999998092651</ele>
        <time>2022-08-07T08:18:10.000Z</time>
      </trkpt>
      <trkpt lat="48.6199" lon="-4.27004">
        <ele>4.1999998092651</ele>
        <time>2022-08-07T08:18:11.000Z</time>
      </trkpt>
      <trkpt lat="48.61989" lon="-4.2701">
        <ele>4.1999998092651</ele>
        <time>2022-08-07T08:18:12.000Z</time>
      </trkpt>
      <trkpt lat="48.61988" lon="-4.27017">
        <ele>4.1999998092651</ele>
        <time>2022-08-07T08:18:13.000Z</time>
      </trkpt>
      <trkpt lat="48.61987" lon="-4.27022">
        <ele>4.4000000953674</ele>
        <time>2022-08-07T08:18:14.000Z</time>
      </trkpt>
      <trkpt lat="48.61985" lon="-4.27028">
        <ele>4.4000000953674</ele>
        <time>2022-08-07T08:18:15.000Z</time>
      </trkpt>
      <trkpt lat="48.61984" lon="-4.27034">
        <ele>4.4000000953674</ele>
        <time>2022-08-07T08:18:16.000Z</time>
      </trkpt>
      <trkpt lat="48.61983" lon="-4.27039">
        <ele>4.5999999046326</ele>
        <time>2022-08-07T08:18:17.000Z</time>
      </trkpt>
      <trkpt lat="48.61981" lon="-4.27047">
        <ele>4.5999999046326</ele>
        <time>2022-08-07T08:18:18.000Z</time>
      </trkpt>
      <trkpt lat="48.61979" lon="-4.27052">
        <ele>4.5999999046326</ele>
        <time>2022-08-07T08:18:19.000Z</time>
      </trkpt>
      <trkpt lat="48.61977" lon="-4.27058">
        <ele>4.5999999046326</ele>
        <time>2022-08-07T08:18:20.000Z</time>
      </trkpt>
      <trkpt lat="48.61976" lon="-4.27063">
        <ele>4.5999999046326</ele>
        <time>2022-08-07T08:18:21.000Z</time>
      </trkpt>
      <trkpt lat="48.61975" lon="-4.27069">
        <ele>4.8000001907349</ele>
        <time>2022-08-07T08:18:22.000Z</time>
      </trkpt>
      <trkpt lat="48.61973" lon="-4.27075">
        <ele>4.8000001907349</ele>
        <time>2022-08-07T08:18:23.000Z</time>
      </trkpt>
      <trkpt lat="48.61972" lon="-4.2708">
        <ele>4.8000001907349</ele>
        <time>2022-08-07T08:18:24.000Z</time>
      </trkpt>
      <trkpt lat="48.6197" lon="-4.27086">
        <ele>4.8000001907349</ele>
        <time>2022-08-07T08:18:25.000Z</time>
      </trkpt>
      <trkpt lat="48.61968" lon="-4.27092">
        <ele>5</ele>
        <time>2022-08-07T08:18:26.000Z</time>
      </trkpt>
      <trkpt lat="48.61966" lon="-4.27098">
        <ele>5</ele>
        <time>2022-08-07T08:18:27.000Z</time>
      </trkpt>
      <trkpt lat="48.61963" lon="-4.27106">
        <ele>5</ele>
        <time>2022-08-07T08:18:28.000Z</time>
      </trkpt>
      <trkpt lat="48.61961" lon="-4.27112">
        <ele>5</ele>
        <time>2022-08-07T08:18:29.000Z</time>
      </trkpt>
      <trkpt lat="48.61959" lon="-4.27116">
        <ele>5</ele>
        <time>2022-08-07T08:18:30.000Z</time>
      </trkpt>
      <trkpt lat="48.61956" lon="-4.27122">
        <ele>5.1999998092651</ele>
        <time>2022-08-07T08:18:31.000Z</time>
      </trkpt>
      <trkpt lat="48.61953" lon="-4.27127">
        <ele>5.1999998092651</ele>
        <time>2022-08-07T08:18:32.000Z</time>
      </trkpt>
      <trkpt lat="48.6195" lon="-4.27133">
        <ele>5.1999998092651</ele>
        <time>2022-08-07T08:18:33.000Z</time>
      </trkpt>
      <trkpt lat="48.61947" lon="-4.2714">
        <ele>5.1999998092651</ele>
        <time>2022-08-07T08:18:34.000Z</time>
      </trkpt>
      <trkpt lat="48.61945" lon="-4.27147">
        <ele>5.1999998092651</ele>
        <time>2022-08-07T08:18:35.000Z</time>
      </trkpt>
      <trkpt lat="48.61943" lon="-4.27153">
        <ele>5.1999998092651</ele>
        <time>2022-08-07T08:18:36.000Z</time>
      </trkpt>
      <trkpt lat="48.61942" lon="-4.27159">
        <ele>5.1999998092651</ele>
        <time>2022-08-07T08:18:37.000Z</time>
      </trkpt>
      <trkpt lat="48.61942" lon="-4.27165">
        <ele>5.4000000953674</ele>
        <time>2022-08-07T08:18:38.000Z</time>
      </trkpt>
      <trkpt lat="48.61942" lon="-4.27171">
        <ele>5.4000000953674</ele>
        <time>2022-08-07T08:18:39.000Z</time>
      </trkpt>
      <trkpt lat="48.61942" lon="-4.27177">
        <ele>5.4000000953674</ele>
        <time>2022-08-07T08:18:40.000Z</time>
      </trkpt>
      <trkpt lat="48.61941" lon="-4.27181">
        <ele>5.4000000953674</ele>
        <time>2022-08-07T08:18:41.000Z</time>
      </trkpt>
      <trkpt lat="48.61939" lon="-4.27185">
        <ele>5.4000000953674</ele>
        <time>2022-08-07T08:18:42.000Z</time>
      </trkpt>
      <trkpt lat="48.61936" lon="-4.27188">
        <ele>5.4000000953674</ele>
        <time>2022-08-07T08:18:43.000Z</time>
      </trkpt>
      <trkpt lat="48.61933" lon="-4.27192">
        <ele>5.4000000953674</ele>
        <time>2022-08-07T08:18:44.000Z</time>
      </trkpt>
      <trkpt lat="48.61929" lon="-4.27196">
        <ele>5.4000000953674</ele>
        <time>2022-08-07T08:18:45.000Z</time>
      </trkpt>
      <trkpt lat="48.61926" lon="-4.272">
        <ele>5.4000000953674</ele>
        <time>2022-08-07T08:18:46.000Z</time>
      </trkpt>
      <trkpt lat="48.61922" lon="-4.27204">
        <ele>5.4000000953674</ele>
        <time>2022-08-07T08:18:47.000Z</time>
      </trkpt>
      <trkpt lat="48.61919" lon="-4.27208">
        <ele>5.5999999046326</ele>
        <time>2022-08-07T08:18:48.000Z</time>
      </trkpt>
      <trkpt lat="48.61915" lon="-4.27213">
        <ele>5.5999999046326</ele>
        <time>2022-08-07T08:18:49.000Z</time>
      </trkpt>
      <trkpt lat="48.61912" lon="-4.27217">
        <ele>5.5999999046326</ele>
        <time>2022-08-07T08:18:50.000Z</time>
      </trkpt>
      <trkpt lat="48.61908" lon="-4.27221">
        <ele>5.5999999046326</ele>
        <time>2022-08-07T08:18:51.000Z</time>
      </trkpt>
      <trkpt lat="48.61905" lon="-4.27226">
        <ele>5.5999999046326</ele>
        <time>2022-08-07T08:18:52.000Z</time>
      </trkpt>
      <trkpt lat="48.61901" lon="-4.2723">
        <ele>5.8000001907349</ele>
        <time>2022-08-07T08:18:53.000Z</time>
      </trkpt>
      <trkpt lat="48.61897" lon="-4.27234">
        <ele>5.8000001907349</ele>
        <time>2022-08-07T08:18:54.000Z</time>
      </trkpt>
      <trkpt lat="48.61894" lon="-4.27238">
        <ele>6</ele>
        <time>2022-08-07T08:18:55.000Z</time>
      </trkpt>
      <trkpt lat="48.6189" lon="-4.27242">
        <ele>6</ele>
        <time>2022-08-07T08:18:56.000Z</time>
      </trkpt>
      <trkpt lat="48.61886" lon="-4.27246">
        <ele>6</ele>
        <time>2022-08-07T08:18:57.000Z</time>
      </trkpt>
      <trkpt lat="48.61883" lon="-4.27249">
        <ele>6.1999998092651</ele>
        <time>2022-08-07T08:18:58.000Z</time>
      </trkpt>
      <trkpt lat="48.61879" lon="-4.27252">
        <ele>6.1999998092651</ele>
        <time>2022-08-07T08:18:59.000Z</time>
      </trkpt>
      <trkpt lat="48.61875" lon="-4.27255">
        <ele>6.5999999046326</ele>
        <time>2022-08-07T08:19:00.000Z</time>
      </trkpt>
      <trkpt lat="48.6187" lon="-4.27258">
        <ele>6.5999999046326</ele>
        <time>2022-08-07T08:19:01.000Z</time>
      </trkpt>
      <trkpt lat="48.61866" lon="-4.27259">
        <ele>6.8000001907349</ele>
        <time>2022-08-07T08:19:02.000Z</time>
      </trkpt>
      <trkpt lat="48.61861" lon="-4.2726">
        <ele>6.8000001907349</ele>
        <time>2022-08-07T08:19:03.000Z</time>
      </trkpt>
      <trkpt lat="48.61857" lon="-4.27261">
        <ele>7</ele>
        <time>2022-08-07T08:19:04.000Z</time>
      </trkpt>
      <trkpt lat="48.61853" lon="-4.27262">
        <ele>7.1999998092651</ele>
        <time>2022-08-07T08:19:05.000Z</time>
      </trkpt>
      <trkpt lat="48.61848" lon="-4.27262">
        <ele>7.1999998092651</ele>
        <time>2022-08-07T08:19:06.000Z</time>
      </trkpt>
      <trkpt lat="48.61843" lon="-4.27263">
        <ele>7.4000000953674</ele>
        <time>2022-08-07T08:19:07.000Z</time>
      </trkpt>
      <trkpt lat="48.61838" lon="-4.27263">
        <ele>7.4000000953674</ele>
        <time>2022-08-07T08:19:08.000Z</time>
      </trkpt>
      <trkpt lat="48.61833" lon="-4.27264">
        <ele>7.5999999046326</ele>
        <time>2022-08-07T08:19:09.000Z</time>
      </trkpt>
      <trkpt lat="48.61828" lon="-4.27264">
        <ele>7.5999999046326</ele>
        <time>2022-08-07T08:19:10.000Z</time>
      </trkpt>
      <trkpt lat="48.61824" lon="-4.27264">
        <ele>7.5999999046326</ele>
        <time>2022-08-07T08:19:11.000Z</time>
      </trkpt>
      <trkpt lat="48.61819" lon="-4.27264">
        <ele>7.5999999046326</ele>
        <time>2022-08-07T08:19:12.000Z</time>
      </trkpt>
      <trkpt lat="48.61814" lon="-4.27264">
        <ele>7.5999999046326</ele>
        <time>2022-08-07T08:19:13.000Z</time>
      </trkpt>
      <trkpt lat="48.6181" lon="-4.27264">
        <ele>7.5999999046326</ele>
        <time>2022-08-07T08:19:14.000Z</time>
      </trkpt>
      <trkpt lat="48.61805" lon="-4.27264">
        <ele>7.5999999046326</ele>
        <time>2022-08-07T08:19:15.000Z</time>
      </trkpt>
      <trkpt lat="48.618" lon="-4.27264">
        <ele>7.4000000953674</ele>
        <time>2022-08-07T08:19:16.000Z</time>
      </trkpt>
      <trkpt lat="48.61796" lon="-4.27264">
        <ele>7.4000000953674</ele>
        <time>2022-08-07T08:19:17.000Z</time>
      </trkpt>
      <trkpt lat="48.61791" lon="-4.27264">
        <ele>7.4000000953674</ele>
        <time>2022-08-07T08:19:18.000Z</time>
      </trkpt>
      <trkpt lat="48.61786" lon="-4.27265">
        <ele>7.4000000953674</ele>
        <time>2022-08-07T08:19:19.000Z</time>
      </trkpt>
      <trkpt lat="48.61781" lon="-4.27265">
        <ele>7.4000000953674</ele>
        <time>2022-08-07T08:19:20.000Z</time>
      </trkpt>
      <trkpt lat="48.61777" lon="-4.27265">
        <ele>7.4000000953674</ele>
        <time>2022-08-07T08:19:21.000Z</time>
      </trkpt>
      <trkpt lat="48.61772" lon="-4.27265">
        <ele>7.4000000953674</ele>
        <time>2022-08-07T08:19:22.000Z</time>
      </trkpt>
      <trkpt lat="48.61767" lon="-4.27265">
        <ele>7.4000000953674</ele>
        <time>2022-08-07T08:19:23.000Z</time>
      </trkpt>
      <trkpt lat="48.61763" lon="-4.27265">
        <ele>7.4000000953674</ele>
        <time>2022-08-07T08:19:24.000Z</time>
      </trkpt>
      <trkpt lat="48.61758" lon="-4.27264">
        <ele>7.4000000953674</ele>
        <time>2022-08-07T08:19:25.000Z</time>
      </trkpt>
      <trkpt lat="48.61754" lon="-4.27263">
        <ele>7.4000000953674</ele>
        <time>2022-08-07T08:19:26.000Z</time>
      </trkpt>
      <trkpt lat="48.61749" lon="-4.27263">
        <ele>7.4000000953674</ele>
        <time>2022-08-07T08:19:27.000Z</time>
      </trkpt>
      <trkpt lat="48.61745" lon="-4.27262">
        <ele>7.5999999046326</ele>
        <time>2022-08-07T08:19:28.000Z</time>
      </trkpt>
      <trkpt lat="48.6174" lon="-4.27263">
        <ele>7.5999999046326</ele>
        <time>2022-08-07T08:19:29.000Z</time>
      </trkpt>
      <trkpt lat="48.61736" lon="-4.27263">
        <ele>7.5999999046326</ele>
        <time>2022-08-07T08:19:30.000Z</time>
      </trkpt>
      <trkpt lat="48.61731" lon="-4.27264">
        <ele>7.8000001907349</ele>
        <time>2022-08-07T08:19:31.000Z</time>
      </trkpt>
      <trkpt lat="48.61727" lon="-4.27266">
        <ele>7.8000001907349</ele>
        <time>2022-08-07T08:19:32.000Z</time>
      </trkpt>
      <trkpt lat="48.61722" lon="-4.27269">
        <ele>8</ele>
        <time>2022-08-07T08:19:33.000Z</time>
      </trkpt>
      <trkpt lat="48.61718" lon="-4.27271">
        <ele>8</ele>
        <time>2022-08-07T08:19:34.000Z</time>
      </trkpt>
      <trkpt lat="48.61713" lon="-4.27275">
        <ele>8.1999998092651</ele>
        <time>2022-08-07T08:19:35.000Z</time>
      </trkpt>
      <trkpt lat="48.61709" lon="-4.27278">
        <ele>8.1999998092651</ele>
        <time>2022-08-07T08:19:36.000Z</time>
      </trkpt>
      <trkpt lat="48.61705" lon="-4.27281">
        <ele>8.1999998092651</ele>
        <time>2022-08-07T08:19:37.000Z</time>
      </trkpt>
      <trkpt lat="48.61701" lon="-4.27284">
        <ele>8.3999996185303</ele>
        <time>2022-08-07T08:19:38.000Z</time>
      </trkpt>
      <trkpt lat="48.61699" lon="-4.27286">
        <ele>8.3999996185303</ele>
        <time>2022-08-07T08:19:39.000Z</time>
      </trkpt>
      <trkpt lat="48.61694" lon="-4.27289">
        <ele>8.6000003814697</ele>
        <time>2022-08-07T08:19:40.000Z</time>
      </trkpt>
      <trkpt lat="48.61691" lon="-4.27293">
        <ele>8.6000003814697</ele>
        <time>2022-08-07T08:19:41.000Z</time>
      </trkpt>
      <trkpt lat="48.61688" lon="-4.27296">
        <ele>8.8000001907349</ele>
        <time>2022-08-07T08:19:42.000Z</time>
      </trkpt>
      <trkpt lat="48.61685" lon="-4.27299">
        <ele>8.8000001907349</ele>
        <time>2022-08-07T08:19:43.000Z</time>
      </trkpt>
      <trkpt lat="48.61682" lon="-4.27304">
        <ele>9</ele>
        <time>2022-08-07T08:19:44.000Z</time>
      </trkpt>
      <trkpt lat="48.61679" lon="-4.27309">
        <ele>9.1999998092651</ele>
        <time>2022-08-07T08:19:45.000Z</time>
      </trkpt>
      <trkpt lat="48.61677" lon="-4.27315">
        <ele>9.3999996185303</ele>
        <time>2022-08-07T08:19:46.000Z</time>
      </trkpt>
      <trkpt lat="48.61676" lon="-4.27319">
        <ele>9.6000003814697</ele>
        <time>2022-08-07T08:19:47.000Z</time>
      </trkpt>
      <trkpt lat="48.61675" lon="-4.27324">
        <ele>9.6000003814697</ele>
        <time>2022-08-07T08:19:48.000Z</time>
      </trkpt>
      <trkpt lat="48.61674" lon="-4.2733">
        <ele>9.8000001907349</ele>
        <time>2022-08-07T08:19:49.000Z</time>
      </trkpt>
      <trkpt lat="48.61673" lon="-4.27337">
        <ele>10</ele>
        <time>2022-08-07T08:19:50.000Z</time>
      </trkpt>
      <trkpt lat="48.61672" lon="-4.27342">
        <ele>10.199999809265</ele>
        <time>2022-08-07T08:19:51.000Z</time>
      </trkpt>
      <trkpt lat="48.61672" lon="-4.27348">
        <ele>10.60000038147</ele>
        <time>2022-08-07T08:19:52.000Z</time>
      </trkpt>
      <trkpt lat="48.61671" lon="-4.27352">
        <ele>10.800000190735</ele>
        <time>2022-08-07T08:19:53.000Z</time>
      </trkpt>
      <trkpt lat="48.6167" lon="-4.27358">
        <ele>11.199999809265</ele>
        <time>2022-08-07T08:19:54.000Z</time>
      </trkpt>
      <trkpt lat="48.61669" lon="-4.27364">
        <ele>11.199999809265</ele>
        <time>2022-08-07T08:19:55.000Z</time>
      </trkpt>
      <trkpt lat="48.61668" lon="-4.27368">
        <ele>11.60000038147</ele>
        <time>2022-08-07T08:19:56.000Z</time>
      </trkpt>
      <trkpt lat="48.61667" lon="-4.27372">
        <ele>11.800000190735</ele>
        <time>2022-08-07T08:19:57.000Z</time>
      </trkpt>
      <trkpt lat="48.61666" lon="-4.27374">
        <ele>12.199999809265</ele>
        <time>2022-08-07T08:19:58.000Z</time>
      </trkpt>
      <trkpt lat="48.61663" lon="-4.27376">
        <ele>12.199999809265</ele>
        <time>2022-08-07T08:19:59.000Z</time>
      </trkpt>
      <trkpt lat="48.61659" lon="-4.27377">
        <ele>12.60000038147</ele>
        <time>2022-08-07T08:20:00.000Z</time>
      </trkpt>
      <trkpt lat="48.61656" lon="-4.27378">
        <ele>13</ele>
        <time>2022-08-07T08:20:01.000Z</time>
      </trkpt>
      <trkpt lat="48.61652" lon="-4.27379">
        <ele>13.199999809265</ele>
        <time>2022-08-07T08:20:02.000Z</time>
      </trkpt>
      <trkpt lat="48.61648" lon="-4.2738">
        <ele>13.60000038147</ele>
        <time>2022-08-07T08:20:03.000Z</time>
      </trkpt>
      <trkpt lat="48.61643" lon="-4.27381">
        <ele>13.800000190735</ele>
        <time>2022-08-07T08:20:04.000Z</time>
      </trkpt>
      <trkpt lat="48.61639" lon="-4.27382">
        <ele>14</ele>
        <time>2022-08-07T08:20:05.000Z</time>
      </trkpt>
      <trkpt lat="48.61635" lon="-4.27382">
        <ele>14.199999809265</ele>
        <time>2022-08-07T08:20:06.000Z</time>
      </trkpt>
      <trkpt lat="48.61631" lon="-4.27383">
        <ele>14.199999809265</ele>
        <time>2022-08-07T08:20:07.000Z</time>
      </trkpt>
      <trkpt lat="48.61627" lon="-4.27384">
        <ele>14.199999809265</ele>
        <time>2022-08-07T08:20:08.000Z</time>
      </trkpt>
      <trkpt lat="48.61622" lon="-4.27384">
        <ele>14.39999961853</ele>
        <time>2022-08-07T08:20:09.000Z</time>
      </trkpt>
      <trkpt lat="48.61617" lon="-4.27385">
        <ele>14.39999961853</ele>
        <time>2022-08-07T08:20:10.000Z</time>
      </trkpt>
      <trkpt lat="48.61613" lon="-4.27386">
        <ele>14.60000038147</ele>
        <time>2022-08-07T08:20:11.000Z</time>
      </trkpt>
      <trkpt lat="48.6161" lon="-4.27386">
        <ele>14.60000038147</ele>
        <time>2022-08-07T08:20:12.000Z</time>
      </trkpt>
      <trkpt lat="48.61605" lon="-4.27387">
        <ele>14.60000038147</ele>
        <time>2022-08-07T08:20:13.000Z</time>
      </trkpt>
      <trkpt lat="48.61601" lon="-4.27388">
        <ele>14.800000190735</ele>
        <time>2022-08-07T08:20:14.000Z</time>
      </trkpt>
      <trkpt lat="48.61597" lon="-4.27388">
        <ele>14.800000190735</ele>
        <time>2022-08-07T08:20:15.000Z</time>
      </trkpt>
      <trkpt lat="48.61593" lon="-4.27389">
        <ele>14.800000190735</ele>
        <time>2022-08-07T08:20:16.000Z</time>
      </trkpt>
      <trkpt lat="48.61589" lon="-4.27389">
        <ele>14.800000190735</ele>
        <time>2022-08-07T08:20:17.000Z</time>
      </trkpt>
      <trkpt lat="48.61584" lon="-4.2739">
        <ele>14.800000190735</ele>
        <time>2022-08-07T08:20:18.000Z</time>
      </trkpt>
      <trkpt lat="48.6158" lon="-4.2739">
        <ele>15</ele>
        <time>2022-08-07T08:20:19.000Z</time>
      </trkpt>
      <trkpt lat="48.61576" lon="-4.2739">
        <ele>15.199999809265</ele>
        <time>2022-08-07T08:20:20.000Z</time>
      </trkpt>
      <trkpt lat="48.61572" lon="-4.27391">
        <ele>15.39999961853</ele>
        <time>2022-08-07T08:20:21.000Z</time>
      </trkpt>
      <trkpt lat="48.61568" lon="-4.27391">
        <ele>15.39999961853</ele>
        <time>2022-08-07T08:20:22.000Z</time>
      </trkpt>
      <trkpt lat="48.61562" lon="-4.27392">
        <ele>15.60000038147</ele>
        <time>2022-08-07T08:20:23.000Z</time>
      </trkpt>
      <trkpt lat="48.61558" lon="-4.27392">
        <ele>15.60000038147</ele>
        <time>2022-08-07T08:20:24.000Z</time>
      </trkpt>
      <trkpt lat="48.61555" lon="-4.27392">
        <ele>15.800000190735</ele>
        <time>2022-08-07T08:20:25.000Z</time>
      </trkpt>
      <trkpt lat="48.6155" lon="-4.27393">
        <ele>15.800000190735</ele>
        <time>2022-08-07T08:20:26.000Z</time>
      </trkpt>
      <trkpt lat="48.61546" lon="-4.27393">
        <ele>15.800000190735</ele>
        <time>2022-08-07T08:20:27.000Z</time>
      </trkpt>
      <trkpt lat="48.61542" lon="-4.27394">
        <ele>16</ele>
        <time>2022-08-07T08:20:28.000Z</time>
      </trkpt>
      <trkpt lat="48.61537" lon="-4.27395">
        <ele>16</ele>
        <time>2022-08-07T08:20:29.000Z</time>
      </trkpt>
      <trkpt lat="48.61534" lon="-4.27396">
        <ele>15.800000190735</ele>
        <time>2022-08-07T08:20:30.000Z</time>
      </trkpt>
      <trkpt lat="48.61531" lon="-4.27397">
        <ele>15.800000190735</ele>
        <time>2022-08-07T08:20:31.000Z</time>
      </trkpt>
      <trkpt lat="48.61526" lon="-4.27398">
        <ele>16</ele>
        <time>2022-08-07T08:20:32.000Z</time>
      </trkpt>
      <trkpt lat="48.61521" lon="-4.274">
        <ele>16</ele>
        <time>2022-08-07T08:20:33.000Z</time>
      </trkpt>
      <trkpt lat="48.61517" lon="-4.27401">
        <ele>16</ele>
        <time>2022-08-07T08:20:34.000Z</time>
      </trkpt>
      <trkpt lat="48.61513" lon="-4.27402">
        <ele>16</ele>
        <time>2022-08-07T08:20:35.000Z</time>
      </trkpt>
      <trkpt lat="48.61509" lon="-4.27404">
        <ele>16</ele>
        <time>2022-08-07T08:20:36.000Z</time>
      </trkpt>
      <trkpt lat="48.61506" lon="-4.27406">
        <ele>16.200000762939</ele>
        <time>2022-08-07T08:20:37.000Z</time>
      </trkpt>
      <trkpt lat="48.61501" lon="-4.27408">
        <ele>16.200000762939</ele>
        <time>2022-08-07T08:20:38.000Z</time>
      </trkpt>
      <trkpt lat="48.61497" lon="-4.2741">
        <ele>16.200000762939</ele>
        <time>2022-08-07T08:20:39.000Z</time>
      </trkpt>
      <trkpt lat="48.61494" lon="-4.27412">
        <ele>16.200000762939</ele>
        <time>2022-08-07T08:20:40.000Z</time>
      </trkpt>
      <trkpt lat="48.6149" lon="-4.27415">
        <ele>16.60000038147</ele>
        <time>2022-08-07T08:20:41.000Z</time>
      </trkpt>
      <trkpt lat="48.61485" lon="-4.27418">
        <ele>16.60000038147</ele>
        <time>2022-08-07T08:20:42.000Z</time>
      </trkpt>
      <trkpt lat="48.61482" lon="-4.2742">
        <ele>16.799999237061</ele>
        <time>2022-08-07T08:20:43.000Z</time>
      </trkpt>
      <trkpt lat="48.61478" lon="-4.27423">
        <ele>17</ele>
        <time>2022-08-07T08:20:44.000Z</time>
      </trkpt>
      <trkpt lat="48.61475" lon="-4.27425">
        <ele>17</ele>
        <time>2022-08-07T08:20:45.000Z</time>
      </trkpt>
      <trkpt lat="48.6147" lon="-4.27429">
        <ele>17</ele>
        <time>2022-08-07T08:20:46.000Z</time>
      </trkpt>
      <trkpt lat="48.61466" lon="-4.27432">
        <ele>17.200000762939</ele>
        <time>2022-08-07T08:20:47.000Z</time>
      </trkpt>
      <trkpt lat="48.61463" lon="-4.27436">
        <ele>17.200000762939</ele>
        <time>2022-08-07T08:20:48.000Z</time>
      </trkpt>
      <trkpt lat="48.6146" lon="-4.27438">
        <ele>17.200000762939</ele>
        <time>2022-08-07T08:20:49.000Z</time>
      </trkpt>
      <trkpt lat="48.61457" lon="-4.27442">
        <ele>17.39999961853</ele>
        <time>2022-08-07T08:20:50.000Z</time>
      </trkpt>
      <trkpt lat="48.61453" lon="-4.27446">
        <ele>17.39999961853</ele>
        <time>2022-08-07T08:20:51.000Z</time>
      </trkpt>
      <trkpt lat="48.61449" lon="-4.27449">
        <ele>17.60000038147</ele>
        <time>2022-08-07T08:20:52.000Z</time>
      </trkpt>
      <trkpt lat="48.61446" lon="-4.27452">
        <ele>17.799999237061</ele>
        <time>2022-08-07T08:20:53.000Z</time>
      </trkpt>
      <trkpt lat="48.61443" lon="-4.27456">
        <ele>18</ele>
        <time>2022-08-07T08:20:54.000Z</time>
      </trkpt>
      <trkpt lat="48.61441" lon="-4.27459">
        <ele>18</ele>
        <time>2022-08-07T08:20:55.000Z</time>
      </trkpt>
      <trkpt lat="48.61437" lon="-4.27464">
        <ele>18.200000762939</ele>
        <time>2022-08-07T08:20:56.000Z</time>
      </trkpt>
      <trkpt lat="48.61434" lon="-4.27469">
        <ele>18.39999961853</ele>
        <time>2022-08-07T08:20:57.000Z</time>
      </trkpt>
      <trkpt lat="48.61431" lon="-4.27473">
        <ele>18.39999961853</ele>
        <time>2022-08-07T08:20:58.000Z</time>
      </trkpt>
      <trkpt lat="48.61429" lon="-4.27477">
        <ele>18.39999961853</ele>
        <time>2022-08-07T08:20:59.000Z</time>
      </trkpt>
      <trkpt lat="48.61426" lon="-4.27483">
        <ele>18.60000038147</ele>
        <time>2022-08-07T08:21:00.000Z</time>
      </trkpt>
      <trkpt lat="48.61423" lon="-4.27488">
        <ele>18.799999237061</ele>
        <time>2022-08-07T08:21:01.000Z</time>
      </trkpt>
      <trkpt lat="48.6142" lon="-4.27493">
        <ele>19</ele>
        <time>2022-08-07T08:21:02.000Z</time>
      </trkpt>
      <trkpt lat="48.61418" lon="-4.27497">
        <ele>19.200000762939</ele>
        <time>2022-08-07T08:21:03.000Z</time>
      </trkpt>
      <trkpt lat="48.61416" lon="-4.27503">
        <ele>19.200000762939</ele>
        <time>2022-08-07T08:21:04.000Z</time>
      </trkpt>
      <trkpt lat="48.61413" lon="-4.27509">
        <ele>19.39999961853</ele>
        <time>2022-08-07T08:21:05.000Z</time>
      </trkpt>
      <trkpt lat="48.6141" lon="-4.27514">
        <ele>19.60000038147</ele>
        <time>2022-08-07T08:21:06.000Z</time>
      </trkpt>
      <trkpt lat="48.61409" lon="-4.27519">
        <ele>19.799999237061</ele>
        <time>2022-08-07T08:21:07.000Z</time>
      </trkpt>
      <trkpt lat="48.61407" lon="-4.27524">
        <ele>19.799999237061</ele>
        <time>2022-08-07T08:21:08.000Z</time>
      </trkpt>
      <trkpt lat="48.61405" lon="-4.2753">
        <ele>19.799999237061</ele>
        <time>2022-08-07T08:21:09.000Z</time>
      </trkpt>
      <trkpt lat="48.61403" lon="-4.27536">
        <ele>20</ele>
        <time>2022-08-07T08:21:10.000Z</time>
      </trkpt>
      <trkpt lat="48.61401" lon="-4.27542">
        <ele>20.200000762939</ele>
        <time>2022-08-07T08:21:11.000Z</time>
      </trkpt>
      <trkpt lat="48.614" lon="-4.27548">
        <ele>20.39999961853</ele>
        <time>2022-08-07T08:21:12.000Z</time>
      </trkpt>
      <trkpt lat="48.61398" lon="-4.27554">
        <ele>20.39999961853</ele>
        <time>2022-08-07T08:21:13.000Z</time>
      </trkpt>
      <trkpt lat="48.61397" lon="-4.2756">
        <ele>20.60000038147</ele>
        <time>2022-08-07T08:21:14.000Z</time>
      </trkpt>
      <trkpt lat="48.61396" lon="-4.27565">
        <ele>20.799999237061</ele>
        <time>2022-08-07T08:21:15.000Z</time>
      </trkpt>
      <trkpt lat="48.61395" lon="-4.27571">
        <ele>20.799999237061</ele>
        <time>2022-08-07T08:21:16.000Z</time>
      </trkpt>
      <trkpt lat="48.61393" lon="-4.27578">
        <ele>20.799999237061</ele>
        <time>2022-08-07T08:21:17.000Z</time>
      </trkpt>
      <trkpt lat="48.61392" lon="-4.27583">
        <ele>21</ele>
        <time>2022-08-07T08:21:18.000Z</time>
      </trkpt>
      <trkpt lat="48.61391" lon="-4.27589">
        <ele>21</ele>
        <time>2022-08-07T08:21:19.000Z</time>
      </trkpt>
      <trkpt lat="48.6139" lon="-4.27596">
        <ele>21.200000762939</ele>
        <time>2022-08-07T08:21:20.000Z</time>
      </trkpt>
      <trkpt lat="48.61389" lon="-4.27601">
        <ele>21.200000762939</ele>
        <time>2022-08-07T08:21:21.000Z</time>
      </trkpt>
      <trkpt lat="48.61388" lon="-4.27608">
        <ele>21.39999961853</ele>
        <time>2022-08-07T08:21:22.000Z</time>
      </trkpt>
      <trkpt lat="48.61387" lon="-4.27614">
        <ele>21.39999961853</ele>
        <time>2022-08-07T08:21:23.000Z</time>
      </trkpt>
      <trkpt lat="48.61387" lon="-4.27619">
        <ele>21.60000038147</ele>
        <time>2022-08-07T08:21:24.000Z</time>
      </trkpt>
      <trkpt lat="48.61386" lon="-4.27625">
        <ele>21.799999237061</ele>
        <time>2022-08-07T08:21:25.000Z</time>
      </trkpt>
      <trkpt lat="48.61385" lon="-4.27631">
        <ele>22</ele>
        <time>2022-08-07T08:21:26.000Z</time>
      </trkpt>
      <trkpt lat="48.61385" lon="-4.27637">
        <ele>22</ele>
        <time>2022-08-07T08:21:27.000Z</time>
      </trkpt>
      <trkpt lat="48.61385" lon="-4.27642">
        <ele>22.39999961853</ele>
        <time>2022-08-07T08:21:28.000Z</time>
      </trkpt>
      <trkpt lat="48.61385" lon="-4.27648">
        <ele>22.39999961853</ele>
        <time>2022-08-07T08:21:29.000Z</time>
      </trkpt>
      <trkpt lat="48.61385" lon="-4.27654">
        <ele>22.60000038147</ele>
        <time>2022-08-07T08:21:30.000Z</time>
      </trkpt>
      <trkpt lat="48.61385" lon="-4.27661">
        <ele>22.60000038147</ele>
        <time>2022-08-07T08:21:31.000Z</time>
      </trkpt>
      <trkpt lat="48.61385" lon="-4.27667">
        <ele>22.799999237061</ele>
        <time>2022-08-07T08:21:32.000Z</time>
      </trkpt>
      <trkpt lat="48.61385" lon="-4.27672">
        <ele>22.799999237061</ele>
        <time>2022-08-07T08:21:33.000Z</time>
      </trkpt>
      <trkpt lat="48.61386" lon="-4.27677">
        <ele>23</ele>
        <time>2022-08-07T08:21:34.000Z</time>
      </trkpt>
      <trkpt lat="48.61386" lon="-4.27684">
        <ele>23</ele>
        <time>2022-08-07T08:21:35.000Z</time>
      </trkpt>
      <trkpt lat="48.61386" lon="-4.27688">
        <ele>23</ele>
        <time>2022-08-07T08:21:36.000Z</time>
      </trkpt>
      <trkpt lat="48.61387" lon="-4.27694">
        <ele>23.200000762939</ele>
        <time>2022-08-07T08:21:37.000Z</time>
      </trkpt>
      <trkpt lat="48.61387" lon="-4.277">
        <ele>23.200000762939</ele>
        <time>2022-08-07T08:21:38.000Z</time>
      </trkpt>
      <trkpt lat="48.61387" lon="-4.27706">
        <ele>23.200000762939</ele>
        <time>2022-08-07T08:21:39.000Z</time>
      </trkpt>
      <trkpt lat="48.61387" lon="-4.27711">
        <ele>23.200000762939</ele>
        <time>2022-08-07T08:21:40.000Z</time>
      </trkpt>
      <trkpt lat="48.61388" lon="-4.27717">
        <ele>23.200000762939</ele>
        <time>2022-08-07T08:21:41.000Z</time>
      </trkpt>
      <trkpt lat="48.61389" lon="-4.27723">
        <ele>23.39999961853</ele>
        <time>2022-08-07T08:21:42.000Z</time>
      </trkpt>
      <trkpt lat="48.61389" lon="-4.27729">
        <ele>23.39999961853</ele>
        <time>2022-08-07T08:21:43.000Z</time>
      </trkpt>
      <trkpt lat="48.61389" lon="-4.27735">
        <ele>23.39999961853</ele>
        <time>2022-08-07T08:21:44.000Z</time>
      </trkpt>
      <trkpt lat="48.6139" lon="-4.27741">
        <ele>23.39999961853</ele>
        <time>2022-08-07T08:21:45.000Z</time>
      </trkpt>
      <trkpt lat="48.6139" lon="-4.27747">
        <ele>23.60000038147</ele>
        <time>2022-08-07T08:21:46.000Z</time>
      </trkpt>
      <trkpt lat="48.61391" lon="-4.27752">
        <ele>23.60000038147</ele>
        <time>2022-08-07T08:21:47.000Z</time>
      </trkpt>
      <trkpt lat="48.61391" lon="-4.27758">
        <ele>23.799999237061</ele>
        <time>2022-08-07T08:21:48.000Z</time>
      </trkpt>
      <trkpt lat="48.61391" lon="-4.27764">
        <ele>23.799999237061</ele>
        <time>2022-08-07T08:21:49.000Z</time>
      </trkpt>
      <trkpt lat="48.61391" lon="-4.27769">
        <ele>23.799999237061</ele>
        <time>2022-08-07T08:21:50.000Z</time>
      </trkpt>
      <trkpt lat="48.61391" lon="-4.27775">
        <ele>23.799999237061</ele>
        <time>2022-08-07T08:21:51.000Z</time>
      </trkpt>
      <trkpt lat="48.61391" lon="-4.2778">
        <ele>24</ele>
        <time>2022-08-07T08:21:52.000Z</time>
      </trkpt>
      <trkpt lat="48.61392" lon="-4.27786">
        <ele>24.200000762939</ele>
        <time>2022-08-07T08:21:53.000Z</time>
      </trkpt>
      <trkpt lat="48.61392" lon="-4.27792">
        <ele>24.200000762939</ele>
        <time>2022-08-07T08:21:54.000Z</time>
      </trkpt>
      <trkpt lat="48.61392" lon="-4.27798">
        <ele>24.60000038147</ele>
        <time>2022-08-07T08:21:55.000Z</time>
      </trkpt>
      <trkpt lat="48.61392" lon="-4.27804">
        <ele>24.60000038147</ele>
        <time>2022-08-07T08:21:56.000Z</time>
      </trkpt>
      <trkpt lat="48.61391" lon="-4.2781">
        <ele>24.799999237061</ele>
        <time>2022-08-07T08:21:57.000Z</time>
      </trkpt>
      <trkpt lat="48.61391" lon="-4.27816">
        <ele>25</ele>
        <time>2022-08-07T08:21:58.000Z</time>
      </trkpt>
      <trkpt lat="48.61391" lon="-4.27821">
        <ele>25</ele>
        <time>2022-08-07T08:21:59.000Z</time>
      </trkpt>
      <trkpt lat="48.6139" lon="-4.27827">
        <ele>25.200000762939</ele>
        <time>2022-08-07T08:22:00.000Z</time>
      </trkpt>
      <trkpt lat="48.6139" lon="-4.27833">
        <ele>25.200000762939</ele>
        <time>2022-08-07T08:22:01.000Z</time>
      </trkpt>
      <trkpt lat="48.6139" lon="-4.27838">
        <ele>25.200000762939</ele>
        <time>2022-08-07T08:22:02.000Z</time>
      </trkpt>
      <trkpt lat="48.61389" lon="-4.27844">
        <ele>25.200000762939</ele>
        <time>2022-08-07T08:22:03.000Z</time>
      </trkpt>
      <trkpt lat="48.61388" lon="-4.2785">
        <ele>25.200000762939</ele>
        <time>2022-08-07T08:22:04.000Z</time>
      </trkpt>
      <trkpt lat="48.61387" lon="-4.27855">
        <ele>25.200000762939</ele>
        <time>2022-08-07T08:22:05.000Z</time>
      </trkpt>
      <trkpt lat="48.61386" lon="-4.27861">
        <ele>25.39999961853</ele>
        <time>2022-08-07T08:22:06.000Z</time>
      </trkpt>
      <trkpt lat="48.61385" lon="-4.27867">
        <ele>25.39999961853</ele>
        <time>2022-08-07T08:22:07.000Z</time>
      </trkpt>
      <trkpt lat="48.61384" lon="-4.27872">
        <ele>25.60000038147</ele>
        <time>2022-08-07T08:22:08.000Z</time>
      </trkpt>
      <trkpt lat="48.61382" lon="-4.27877">
        <ele>25.799999237061</ele>
        <time>2022-08-07T08:22:09.000Z</time>
      </trkpt>
      <trkpt lat="48.61381" lon="-4.27883">
        <ele>25.799999237061</ele>
        <time>2022-08-07T08:22:10.000Z</time>
      </trkpt>
      <trkpt lat="48.61379" lon="-4.27888">
        <ele>25.799999237061</ele>
        <time>2022-08-07T08:22:11.000Z</time>
      </trkpt>
      <trkpt lat="48.61378" lon="-4.27894">
        <ele>25.799999237061</ele>
        <time>2022-08-07T08:22:12.000Z</time>
      </trkpt>
      <trkpt lat="48.61376" lon="-4.27899">
        <ele>25.799999237061</ele>
        <time>2022-08-07T08:22:13.000Z</time>
      </trkpt>
      <trkpt lat="48.61374" lon="-4.27904">
        <ele>25.799999237061</ele>
        <time>2022-08-07T08:22:14.000Z</time>
      </trkpt>
      <trkpt lat="48.61373" lon="-4.2791">
        <ele>26</ele>
        <time>2022-08-07T08:22:15.000Z</time>
      </trkpt>
      <trkpt lat="48.61371" lon="-4.27915">
        <ele>26</ele>
        <time>2022-08-07T08:22:16.000Z</time>
      </trkpt>
      <trkpt lat="48.61369" lon="-4.2792">
        <ele>26.39999961853</ele>
        <time>2022-08-07T08:22:17.000Z</time>
      </trkpt>
      <trkpt lat="48.61367" lon="-4.27925">
        <ele>26.60000038147</ele>
        <time>2022-08-07T08:22:18.000Z</time>
      </trkpt>
      <trkpt lat="48.61365" lon="-4.2793">
        <ele>26.60000038147</ele>
        <time>2022-08-07T08:22:19.000Z</time>
      </trkpt>
      <trkpt lat="48.61363" lon="-4.27935">
        <ele>26.60000038147</ele>
        <time>2022-08-07T08:22:20.000Z</time>
      </trkpt>
      <trkpt lat="48.61361" lon="-4.2794">
        <ele>26.60000038147</ele>
        <time>2022-08-07T08:22:21.000Z</time>
      </trkpt>
      <trkpt lat="48.61359" lon="-4.27945">
        <ele>26.799999237061</ele>
        <time>2022-08-07T08:22:22.000Z</time>
      </trkpt>
      <trkpt lat="48.61356" lon="-4.27949">
        <ele>27</ele>
        <time>2022-08-07T08:22:23.000Z</time>
      </trkpt>
      <trkpt lat="48.61354" lon="-4.27954">
        <ele>27.200000762939</ele>
        <time>2022-08-07T08:22:24.000Z</time>
      </trkpt>
      <trkpt lat="48.61351" lon="-4.27959">
        <ele>27.39999961853</ele>
        <time>2022-08-07T08:22:25.000Z</time>
      </trkpt>
      <trkpt lat="48.61349" lon="-4.27963">
        <ele>27.60000038147</ele>
        <time>2022-08-07T08:22:26.000Z</time>
      </trkpt>
      <trkpt lat="48.61346" lon="-4.27967">
        <ele>27.799999237061</ele>
        <time>2022-08-07T08:22:27.000Z</time>
      </trkpt>
      <trkpt lat="48.61344" lon="-4.27971">
        <ele>27.799999237061</ele>
        <time>2022-08-07T08:22:28.000Z</time>
      </trkpt>
      <trkpt lat="48.61341" lon="-4.27975">
        <ele>27.799999237061</ele>
        <time>2022-08-07T08:22:29.000Z</time>
      </trkpt>
      <trkpt lat="48.61338" lon="-4.27979">
        <ele>28</ele>
        <time>2022-08-07T08:22:30.000Z</time>
      </trkpt>
      <trkpt lat="48.61335" lon="-4.27983">
        <ele>28</ele>
        <time>2022-08-07T08:22:31.000Z</time>
      </trkpt>
      <trkpt lat="48.61333" lon="-4.27986">
        <ele>28</ele>
        <time>2022-08-07T08:22:32.000Z</time>
      </trkpt>
      <trkpt lat="48.6133" lon="-4.27989">
        <ele>28.200000762939</ele>
        <time>2022-08-07T08:22:33.000Z</time>
      </trkpt>
      <trkpt lat="48.61328" lon="-4.27992">
        <ele>28.200000762939</ele>
        <time>2022-08-07T08:22:34.000Z</time>
      </trkpt>
      <trkpt lat="48.61326" lon="-4.27996">
        <ele>28.200000762939</ele>
        <time>2022-08-07T08:22:35.000Z</time>
      </trkpt>
      <trkpt lat="48.61324" lon="-4.27999">
        <ele>28.39999961853</ele>
        <time>2022-08-07T08:22:36.000Z</time>
      </trkpt>
      <trkpt lat="48.61323" lon="-4.28">
        <ele>28.60000038147</ele>
        <time>2022-08-07T08:22:37.000Z</time>
      </trkpt>
      <trkpt lat="48.61322" lon="-4.28002">
        <ele>28.799999237061</ele>
        <time>2022-08-07T08:22:38.000Z</time>
      </trkpt>
      <trkpt lat="48.61321" lon="-4.28003">
        <ele>28.799999237061</ele>
        <time>2022-08-07T08:22:39.000Z</time>
      </trkpt>
      <trkpt lat="48.6132" lon="-4.28004">
        <ele>29</ele>
        <time>2022-08-07T08:22:40.000Z</time>
      </trkpt>
      <trkpt lat="48.61319" lon="-4.28005">
        <ele>29</ele>
        <time>2022-08-07T08:22:41.000Z</time>
      </trkpt>
      <trkpt lat="48.61319" lon="-4.28007">
        <ele>29</ele>
        <time>2022-08-07T08:22:42.000Z</time>
      </trkpt>
      <trkpt lat="48.6132" lon="-4.28009">
        <ele>29</ele>
        <time>2022-08-07T08:22:43.000Z</time>
      </trkpt>
      <trkpt lat="48.61322" lon="-4.28009">
        <ele>29</ele>
        <time>2022-08-07T08:22:44.000Z</time>
      </trkpt>
      <trkpt lat="48.61324" lon="-4.28008">
        <ele>29.200000762939</ele>
        <time>2022-08-07T08:22:45.000Z</time>
      </trkpt>
      <trkpt lat="48.61326" lon="-4.28007">
        <ele>29.200000762939</ele>
        <time>2022-08-07T08:22:46.000Z</time>
      </trkpt>
      <trkpt lat="48.61328" lon="-4.28006">
        <ele>29.39999961853</ele>
        <time>2022-08-07T08:22:47.000Z</time>
      </trkpt>
      <trkpt lat="48.61332" lon="-4.28004">
        <ele>29.39999961853</ele>
        <time>2022-08-07T08:22:48.000Z</time>
      </trkpt>
      <trkpt lat="48.61335" lon="-4.28004">
        <ele>29.60000038147</ele>
        <time>2022-08-07T08:22:49.000Z</time>
      </trkpt>
      <trkpt lat="48.61338" lon="-4.28004">
        <ele>29.799999237061</ele>
        <time>2022-08-07T08:22:50.000Z</time>
      </trkpt>
      <trkpt lat="48.6134" lon="-4.28004">
        <ele>29.799999237061</ele>
        <time>2022-08-07T08:22:51.000Z</time>
      </trkpt>
      <trkpt lat="48.61341" lon="-4.28003">
        <ele>29.799999237061</ele>
        <time>2022-08-07T08:22:52.000Z</time>
      </trkpt>
      <trkpt lat="48.61344" lon="-4.28003">
        <ele>30.200000762939</ele>
        <time>2022-08-07T08:22:53.000Z</time>
      </trkpt>
      <trkpt lat="48.61347" lon="-4.28002">
        <ele>30.39999961853</ele>
        <time>2022-08-07T08:22:54.000Z</time>
      </trkpt>
      <trkpt lat="48.6135" lon="-4.28001">
        <ele>30.39999961853</ele>
        <time>2022-08-07T08:22:55.000Z</time>
      </trkpt>
      <trkpt lat="48.61352" lon="-4.28001">
        <ele>30.799999237061</ele>
        <time>2022-08-07T08:22:56.000Z</time>
      </trkpt>
      <trkpt lat="48.61354" lon="-4.28001">
        <ele>31</ele>
        <time>2022-08-07T08:22:57.000Z</time>
      </trkpt>
      <trkpt lat="48.61358" lon="-4.28">
        <ele>31.39999961853</ele>
        <time>2022-08-07T08:22:58.000Z</time>
      </trkpt>
      <trkpt lat="48.61362" lon="-4.27999">
        <ele>31.60000038147</ele>
        <time>2022-08-07T08:22:59.000Z</time>
      </trkpt>
      <trkpt lat="48.61365" lon="-4.27998">
        <ele>32.400001525879</ele>
        <time>2022-08-07T08:23:00.000Z</time>
      </trkpt>
      <trkpt lat="48.61368" lon="-4.27998">
        <ele>32.599998474121</ele>
        <time>2022-08-07T08:23:01.000Z</time>
      </trkpt>
      <trkpt lat="48.61372" lon="-4.27999">
        <ele>32.799999237061</ele>
        <time>2022-08-07T08:23:02.000Z</time>
      </trkpt>
      <trkpt lat="48.61375" lon="-4.27999">
        <ele>33.200000762939</ele>
        <time>2022-08-07T08:23:03.000Z</time>
      </trkpt>
      <trkpt lat="48.61377" lon="-4.28">
        <ele>33.200000762939</ele>
        <time>2022-08-07T08:23:04.000Z</time>
      </trkpt>
      <trkpt lat="48.6138" lon="-4.28">
        <ele>33.400001525879</ele>
        <time>2022-08-07T08:23:05.000Z</time>
      </trkpt>
      <trkpt lat="48.61383" lon="-4.28001">
        <ele>33.599998474121</ele>
        <time>2022-08-07T08:23:06.000Z</time>
      </trkpt>
      <trkpt lat="48.61387" lon="-4.28002">
        <ele>34</ele>
        <time>2022-08-07T08:23:07.000Z</time>
      </trkpt>
      <trkpt lat="48.6139" lon="-4.28003">
        <ele>34</ele>
        <time>2022-08-07T08:23:08.000Z</time>
      </trkpt>
      <trkpt lat="48.61393" lon="-4.28003">
        <ele>34.200000762939</ele>
        <time>2022-08-07T08:23:09.000Z</time>
      </trkpt>
      <trkpt lat="48.61396" lon="-4.28004">
        <ele>34.200000762939</ele>
        <time>2022-08-07T08:23:10.000Z</time>
      </trkpt>
      <trkpt lat="48.61398" lon="-4.28005">
        <ele>34.400001525879</ele>
        <time>2022-08-07T08:23:11.000Z</time>
      </trkpt>
      <trkpt lat="48.614" lon="-4.28007">
        <ele>34.599998474121</ele>
        <time>2022-08-07T08:23:12.000Z</time>
      </trkpt>
      <trkpt lat="48.61403" lon="-4.28008">
        <ele>34.599998474121</ele>
        <time>2022-08-07T08:23:13.000Z</time>
      </trkpt>
      <trkpt lat="48.61405" lon="-4.28009">
        <ele>35</ele>
        <time>2022-08-07T08:23:14.000Z</time>
      </trkpt>
      <trkpt lat="48.61408" lon="-4.28011">
        <ele>35.200000762939</ele>
        <time>2022-08-07T08:23:15.000Z</time>
      </trkpt>
      <trkpt lat="48.6141" lon="-4.28013">
        <ele>35.400001525879</ele>
        <time>2022-08-07T08:23:16.000Z</time>
      </trkpt>
      <trkpt lat="48.61413" lon="-4.28014">
        <ele>35.400001525879</ele>
        <time>2022-08-07T08:23:17.000Z</time>
      </trkpt>
      <trkpt lat="48.61415" lon="-4.28016">
        <ele>35.799999237061</ele>
        <time>2022-08-07T08:23:18.000Z</time>
      </trkpt>
      <trkpt lat="48.61417" lon="-4.28018">
        <ele>36</ele>
        <time>2022-08-07T08:23:19.000Z</time>
      </trkpt>
      <trkpt lat="48.61419" lon="-4.2802">
        <ele>36.200000762939</ele>
        <time>2022-08-07T08:23:20.000Z</time>
      </trkpt>
      <trkpt lat="48.61422" lon="-4.28022">
        <ele>36.599998474121</ele>
        <time>2022-08-07T08:23:21.000Z</time>
      </trkpt>
      <trkpt lat="48.61424" lon="-4.28024">
        <ele>36.799999237061</ele>
        <time>2022-08-07T08:23:22.000Z</time>
      </trkpt>
      <trkpt lat="48.61426" lon="-4.28025">
        <ele>37</ele>
        <time>2022-08-07T08:23:23.000Z</time>
      </trkpt>
      <trkpt lat="48.61428" lon="-4.28027">
        <ele>37.200000762939</ele>
        <time>2022-08-07T08:23:24.000Z</time>
      </trkpt>
      <trkpt lat="48.6143" lon="-4.28029">
        <ele>37.799999237061</ele>
        <time>2022-08-07T08:23:25.000Z</time>
      </trkpt>
      <trkpt lat="48.61432" lon="-4.2803">
        <ele>38</ele>
        <time>2022-08-07T08:23:26.000Z</time>
      </trkpt>
      <trkpt lat="48.61434" lon="-4.28031">
        <ele>38.599998474121</ele>
        <time>2022-08-07T08:23:27.000Z</time>
      </trkpt>
      <trkpt lat="48.61435" lon="-4.2803">
        <ele>39</ele>
        <time>2022-08-07T08:23:28.000Z</time>
      </trkpt>
      <trkpt lat="48.61437" lon="-4.28028">
        <ele>39.400001525879</ele>
        <time>2022-08-07T08:23:29.000Z</time>
      </trkpt>
      <trkpt lat="48.61438" lon="-4.28025">
        <ele>40.400001525879</ele>
        <time>2022-08-07T08:23:30.000Z</time>
      </trkpt>
      <trkpt lat="48.6144" lon="-4.28023">
        <ele>40.599998474121</ele>
        <time>2022-08-07T08:23:31.000Z</time>
      </trkpt>
      <trkpt lat="48.6144" lon="-4.2802">
        <ele>41.200000762939</ele>
        <time>2022-08-07T08:23:32.000Z</time>
      </trkpt>
      <trkpt lat="48.61441" lon="-4.28016">
        <ele>41.400001525879</ele>
        <time>2022-08-07T08:23:33.000Z</time>
      </trkpt>
      <trkpt lat="48.61442" lon="-4.28014">
        <ele>41.599998474121</ele>
        <time>2022-08-07T08:23:34.000Z</time>
      </trkpt>
      <trkpt lat="48.61443" lon="-4.28011">
        <ele>41.799999237061</ele>
        <time>2022-08-07T08:23:35.000Z</time>
      </trkpt>
      <trkpt lat="48.61444" lon="-4.28008">
        <ele>41.799999237061</ele>
        <time>2022-08-07T08:23:36.000Z</time>
      </trkpt>
      <trkpt lat="48.61445" lon="-4.28005">
        <ele>42</ele>
        <time>2022-08-07T08:23:37.000Z</time>
      </trkpt>
      <trkpt lat="48.61447" lon="-4.28002">
        <ele>42</ele>
        <time>2022-08-07T08:23:38.000Z</time>
      </trkpt>
      <trkpt lat="48.61449" lon="-4.28">
        <ele>42</ele>
        <time>2022-08-07T08:23:39.000Z</time>
      </trkpt>
      <trkpt lat="48.61451" lon="-4.27997">
        <ele>42</ele>
        <time>2022-08-07T08:23:40.000Z</time>
      </trkpt>
      <trkpt lat="48.61453" lon="-4.27996">
        <ele>42</ele>
        <time>2022-08-07T08:23:41.000Z</time>
      </trkpt>
      <trkpt lat="48.61455" lon="-4.27995">
        <ele>42</ele>
        <time>2022-08-07T08:23:42.000Z</time>
      </trkpt>
      <trkpt lat="48.61457" lon="-4.27995">
        <ele>42</ele>
        <time>2022-08-07T08:23:43.000Z</time>
      </trkpt>
      <trkpt lat="48.61459" lon="-4.27995">
        <ele>42</ele>
        <time>2022-08-07T08:23:44.000Z</time>
      </trkpt>
      <trkpt lat="48.61461" lon="-4.27995">
        <ele>42.200000762939</ele>
        <time>2022-08-07T08:23:45.000Z</time>
      </trkpt>
      <trkpt lat="48.61463" lon="-4.27993">
        <ele>42.200000762939</ele>
        <time>2022-08-07T08:23:46.000Z</time>
      </trkpt>
      <trkpt lat="48.61465" lon="-4.27992">
        <ele>42.200000762939</ele>
        <time>2022-08-07T08:23:47.000Z</time>
      </trkpt>
      <trkpt lat="48.61466" lon="-4.2799">
        <ele>42.200000762939</ele>
        <time>2022-08-07T08:23:48.000Z</time>
      </trkpt>
      <trkpt lat="48.61468" lon="-4.27989">
        <ele>42.400001525879</ele>
        <time>2022-08-07T08:23:49.000Z</time>
      </trkpt>
      <trkpt lat="48.6147" lon="-4.27988">
        <ele>42.400001525879</ele>
        <time>2022-08-07T08:23:50.000Z</time>
      </trkpt>
      <trkpt lat="48.61471" lon="-4.27987">
        <ele>42.599998474121</ele>
        <time>2022-08-07T08:23:51.000Z</time>
      </trkpt>
      <trkpt lat="48.61473" lon="-4.27986">
        <ele>42.799999237061</ele>
        <time>2022-08-07T08:23:52.000Z</time>
      </trkpt>
      <trkpt lat="48.61475" lon="-4.27985">
        <ele>43</ele>
        <time>2022-08-07T08:23:53.000Z</time>
      </trkpt>
      <trkpt lat="48.61477" lon="-4.27984">
        <ele>43.200000762939</ele>
        <time>2022-08-07T08:23:54.000Z</time>
      </trkpt>
      <trkpt lat="48.61479" lon="-4.27983">
        <ele>43.400001525879</ele>
        <time>2022-08-07T08:23:55.000Z</time>
      </trkpt>
      <trkpt lat="48.61481" lon="-4.27981">
        <ele>43.599998474121</ele>
        <time>2022-08-07T08:23:56.000Z</time>
      </trkpt>
      <trkpt lat="48.61483" lon="-4.2798">
        <ele>43.799999237061</ele>
        <time>2022-08-07T08:23:57.000Z</time>
      </trkpt>
      <trkpt lat="48.61485" lon="-4.27979">
        <ele>43.799999237061</ele>
        <time>2022-08-07T08:23:58.000Z</time>
      </trkpt>
      <trkpt lat="48.61488" lon="-4.27978">
        <ele>43.799999237061</ele>
        <time>2022-08-07T08:23:59.000Z</time>
      </trkpt>
      <trkpt lat="48.6149" lon="-4.27976">
        <ele>44</ele>
        <time>2022-08-07T08:24:00.000Z</time>
      </trkpt>
      <trkpt lat="48.61492" lon="-4.27975">
        <ele>44.200000762939</ele>
        <time>2022-08-07T08:24:01.000Z</time>
      </trkpt>
      <trkpt lat="48.61494" lon="-4.27974">
        <ele>44.400001525879</ele>
        <time>2022-08-07T08:24:02.000Z</time>
      </trkpt>
      <trkpt lat="48.61496" lon="-4.27973">
        <ele>44.599998474121</ele>
        <time>2022-08-07T08:24:03.000Z</time>
      </trkpt>
      <trkpt lat="48.61498" lon="-4.27972">
        <ele>44.799999237061</ele>
        <time>2022-08-07T08:24:04.000Z</time>
      </trkpt>
      <trkpt lat="48.615" lon="-4.27971">
        <ele>45</ele>
        <time>2022-08-07T08:24:05.000Z</time>
      </trkpt>
      <trkpt lat="48.61502" lon="-4.27971">
        <ele>45.400001525879</ele>
        <time>2022-08-07T08:24:06.000Z</time>
      </trkpt>
      <trkpt lat="48.61505" lon="-4.27972">
        <ele>45.599998474121</ele>
        <time>2022-08-07T08:24:07.000Z</time>
      </trkpt>
      <trkpt lat="48.61507" lon="-4.27973">
        <ele>45.799999237061</ele>
        <time>2022-08-07T08:24:08.000Z</time>
      </trkpt>
      <trkpt lat="48.61509" lon="-4.27975">
        <ele>46</ele>
        <time>2022-08-07T08:24:09.000Z</time>
      </trkpt>
      <trkpt lat="48.61511" lon="-4.27977">
        <ele>46.200000762939</ele>
        <time>2022-08-07T08:24:10.000Z</time>
      </trkpt>
      <trkpt lat="48.61512" lon="-4.2798">
        <ele>46.400001525879</ele>
        <time>2022-08-07T08:24:11.000Z</time>
      </trkpt>
      <trkpt lat="48.61513" lon="-4.27984">
        <ele>46.599998474121</ele>
        <time>2022-08-07T08:24:12.000Z</time>
      </trkpt>
      <trkpt lat="48.61514" lon="-4.27988">
        <ele>46.799999237061</ele>
        <time>2022-08-07T08:24:13.000Z</time>
      </trkpt>
      <trkpt lat="48.61515" lon="-4.27992">
        <ele>47</ele>
        <time>2022-08-07T08:24:14.000Z</time>
      </trkpt>
      <trkpt lat="48.61516" lon="-4.27996">
        <ele>47.200000762939</ele>
        <time>2022-08-07T08:24:15.000Z</time>
      </trkpt>
      <trkpt lat="48.61518" lon="-4.28001">
        <ele>47.200000762939</ele>
        <time>2022-08-07T08:24:16.000Z</time>
      </trkpt>
      <trkpt lat="48.61519" lon="-4.28005">
        <ele>47.400001525879</ele>
        <time>2022-08-07T08:24:17.000Z</time>
      </trkpt>
      <trkpt lat="48.6152" lon="-4.2801">
        <ele>47.599998474121</ele>
        <time>2022-08-07T08:24:18.000Z</time>
      </trkpt>
      <trkpt lat="48.61521" lon="-4.28014">
        <ele>47.599998474121</ele>
        <time>2022-08-07T08:24:19.000Z</time>
      </trkpt>
      <trkpt lat="48.61522" lon="-4.28019">
        <ele>47.599998474121</ele>
        <time>2022-08-07T08:24:20.000Z</time>
      </trkpt>
      <trkpt lat="48.61523" lon="-4.28023">
        <ele>47.599998474121</ele>
        <time>2022-08-07T08:24:21.000Z</time>
      </trkpt>
      <trkpt lat="48.61525" lon="-4.28027">
        <ele>47.599998474121</ele>
        <time>2022-08-07T08:24:22.000Z</time>
      </trkpt>
      <trkpt lat="48.61526" lon="-4.28031">
        <ele>47.799999237061</ele>
        <time>2022-08-07T08:24:23.000Z</time>
      </trkpt>
      <trkpt lat="48.61527" lon="-4.28035">
        <ele>47.799999237061</ele>
        <time>2022-08-07T08:24:24.000Z</time>
      </trkpt>
      <trkpt lat="48.61529" lon="-4.28039">
        <ele>47.799999237061</ele>
        <time>2022-08-07T08:24:25.000Z</time>
      </trkpt>
      <trkpt lat="48.6153" lon="-4.28043">
        <ele>47.799999237061</ele>
        <time>2022-08-07T08:24:26.000Z</time>
      </trkpt>
      <trkpt lat="48.61531" lon="-4.28048">
        <ele>47.599998474121</ele>
        <time>2022-08-07T08:24:27.000Z</time>
      </trkpt>
      <trkpt lat="48.61532" lon="-4.28052">
        <ele>47.599998474121</ele>
        <time>2022-08-07T08:24:28.000Z</time>
      </trkpt>
      <trkpt lat="48.61533" lon="-4.28057">
        <ele>47.599998474121</ele>
        <time>2022-08-07T08:24:29.000Z</time>
      </trkpt>
      <trkpt lat="48.61535" lon="-4.28062">
        <ele>47.599998474121</ele>
        <time>2022-08-07T08:24:30.000Z</time>
      </trkpt>
      <trkpt lat="48.61536" lon="-4.28067">
        <ele>47.599998474121</ele>
        <time>2022-08-07T08:24:31.000Z</time>
      </trkpt>
      <trkpt lat="48.61537" lon="-4.28072">
        <ele>47.599998474121</ele>
        <time>2022-08-07T08:24:32.000Z</time>
      </trkpt>
      <trkpt lat="48.61538" lon="-4.28077">
        <ele>47.599998474121</ele>
        <time>2022-08-07T08:24:33.000Z</time>
      </trkpt>
      <trkpt lat="48.61539" lon="-4.28082">
        <ele>47.400001525879</ele>
        <time>2022-08-07T08:24:34.000Z</time>
      </trkpt>
      <trkpt lat="48.6154" lon="-4.28086">
        <ele>47.400001525879</ele>
        <time>2022-08-07T08:24:35.000Z</time>
      </trkpt>
      <trkpt lat="48.61541" lon="-4.2809">
        <ele>47.400001525879</ele>
        <time>2022-08-07T08:24:36.000Z</time>
      </trkpt>
      <trkpt lat="48.61542" lon="-4.28095">
        <ele>47.400001525879</ele>
        <time>2022-08-07T08:24:37.000Z</time>
      </trkpt>
      <trkpt lat="48.61543" lon="-4.281">
        <ele>47.200000762939</ele>
        <time>2022-08-07T08:24:38.000Z</time>
      </trkpt>
      <trkpt lat="48.61544" lon="-4.28104">
        <ele>47.200000762939</ele>
        <time>2022-08-07T08:24:39.000Z</time>
      </trkpt>
      <trkpt lat="48.61545" lon="-4.28109">
        <ele>47</ele>
        <time>2022-08-07T08:24:40.000Z</time>
      </trkpt>
      <trkpt lat="48.61545" lon="-4.28113">
        <ele>47</ele>
        <time>2022-08-07T08:24:41.000Z</time>
      </trkpt>
      <trkpt lat="48.61546" lon="-4.28118">
        <ele>47</ele>
        <time>2022-08-07T08:24:42.000Z</time>
      </trkpt>
      <trkpt lat="48.61547" lon="-4.28123">
        <ele>47</ele>
        <time>2022-08-07T08:24:43.000Z</time>
      </trkpt>
      <trkpt lat="48.61548" lon="-4.28127">
        <ele>46.799999237061</ele>
        <time>2022-08-07T08:24:44.000Z</time>
      </trkpt>
      <trkpt lat="48.61549" lon="-4.28131">
        <ele>46.799999237061</ele>
        <time>2022-08-07T08:24:45.000Z</time>
      </trkpt>
      <trkpt lat="48.6155" lon="-4.28136">
        <ele>46.799999237061</ele>
        <time>2022-08-07T08:24:46.000Z</time>
      </trkpt>
      <trkpt lat="48.61551" lon="-4.2814">
        <ele>46.799999237061</ele>
        <time>2022-08-07T08:24:47.000Z</time>
      </trkpt>
      <trkpt lat="48.61552" lon="-4.28144">
        <ele>46.799999237061</ele>
        <time>2022-08-07T08:24:48.000Z</time>
      </trkpt>
      <trkpt lat="48.61553" lon="-4.28149">
        <ele>46.799999237061</ele>
        <time>2022-08-07T08:24:49.000Z</time>
      </trkpt>
      <trkpt lat="48.61554" lon="-4.28153">
        <ele>46.599998474121</ele>
        <time>2022-08-07T08:24:50.000Z</time>
      </trkpt>
      <trkpt lat="48.61556" lon="-4.28158">
        <ele>46.599998474121</ele>
        <time>2022-08-07T08:24:51.000Z</time>
      </trkpt>
      <trkpt lat="48.61557" lon="-4.28163">
        <ele>46.599998474121</ele>
        <time>2022-08-07T08:24:52.000Z</time>
      </trkpt>
      <trkpt lat="48.61559" lon="-4.28167">
        <ele>46.400001525879</ele>
        <time>2022-08-07T08:24:53.000Z</time>
      </trkpt>
      <trkpt lat="48.6156" lon="-4.28172">
        <ele>46.400001525879</ele>
        <time>2022-08-07T08:24:54.000Z</time>
      </trkpt>
      <trkpt lat="48.61562" lon="-4.28177">
        <ele>46.400001525879</ele>
        <time>2022-08-07T08:24:55.000Z</time>
      </trkpt>
      <trkpt lat="48.61563" lon="-4.28183">
        <ele>46.200000762939</ele>
        <time>2022-08-07T08:24:56.000Z</time>
      </trkpt>
      <trkpt lat="48.61565" lon="-4.28188">
        <ele>46.200000762939</ele>
        <time>2022-08-07T08:24:57.000Z</time>
      </trkpt>
      <trkpt lat="48.61566" lon="-4.28193">
        <ele>46.200000762939</ele>
        <time>2022-08-07T08:24:58.000Z</time>
      </trkpt>
      <trkpt lat="48.61568" lon="-4.28199">
        <ele>46.200000762939</ele>
        <time>2022-08-07T08:24:59.000Z</time>
      </trkpt>
      <trkpt lat="48.61569" lon="-4.28204">
        <ele>46.200000762939</ele>
        <time>2022-08-07T08:25:00.000Z</time>
      </trkpt>
      <trkpt lat="48.61571" lon="-4.2821">
        <ele>46.200000762939</ele>
        <time>2022-08-07T08:25:01.000Z</time>
      </trkpt>
      <trkpt lat="48.61572" lon="-4.28216">
        <ele>46.200000762939</ele>
        <time>2022-08-07T08:25:02.000Z</time>
      </trkpt>
      <trkpt lat="48.61573" lon="-4.28221">
        <ele>46.200000762939</ele>
        <time>2022-08-07T08:25:03.000Z</time>
      </trkpt>
      <trkpt lat="48.61575" lon="-4.28226">
        <ele>46.200000762939</ele>
        <time>2022-08-07T08:25:04.000Z</time>
      </trkpt>
      <trkpt lat="48.61576" lon="-4.28232">
        <ele>46</ele>
        <time>2022-08-07T08:25:05.000Z</time>
      </trkpt>
      <trkpt lat="48.61577" lon="-4.28237">
        <ele>46</ele>
        <time>2022-08-07T08:25:06.000Z</time>
      </trkpt>
      <trkpt lat="48.61579" lon="-4.28243">
        <ele>46</ele>
        <time>2022-08-07T08:25:07.000Z</time>
      </trkpt>
      <trkpt lat="48.6158" lon="-4.28249">
        <ele>46</ele>
        <time>2022-08-07T08:25:08.000Z</time>
      </trkpt>
      <trkpt lat="48.61581" lon="-4.28255">
        <ele>46</ele>
        <time>2022-08-07T08:25:09.000Z</time>
      </trkpt>
      <trkpt lat="48.61583" lon="-4.2826">
        <ele>46</ele>
        <time>2022-08-07T08:25:10.000Z</time>
      </trkpt>
      <trkpt lat="48.61584" lon="-4.28266">
        <ele>46</ele>
        <time>2022-08-07T08:25:11.000Z</time>
      </trkpt>
      <trkpt lat="48.61585" lon="-4.28272">
        <ele>46</ele>
        <time>2022-08-07T08:25:12.000Z</time>
      </trkpt>
      <trkpt lat="48.61586" lon="-4.28277">
        <ele>46</ele>
        <time>2022-08-07T08:25:13.000Z</time>
      </trkpt>
      <trkpt lat="48.61587" lon="-4.28283">
        <ele>45.799999237061</ele>
        <time>2022-08-07T08:25:14.000Z</time>
      </trkpt>
      <trkpt lat="48.61588" lon="-4.28288">
        <ele>45.799999237061</ele>
        <time>2022-08-07T08:25:15.000Z</time>
      </trkpt>
      <trkpt lat="48.6159" lon="-4.28294">
        <ele>45.599998474121</ele>
        <time>2022-08-07T08:25:16.000Z</time>
      </trkpt>
      <trkpt lat="48.61592" lon="-4.283">
        <ele>45.400001525879</ele>
        <time>2022-08-07T08:25:17.000Z</time>
      </trkpt>
      <trkpt lat="48.61593" lon="-4.28304">
        <ele>45.200000762939</ele>
        <time>2022-08-07T08:25:18.000Z</time>
      </trkpt>
      <trkpt lat="48.61595" lon="-4.28308">
        <ele>45.200000762939</ele>
        <time>2022-08-07T08:25:19.000Z</time>
      </trkpt>
      <trkpt lat="48.61597" lon="-4.28313">
        <ele>45</ele>
        <time>2022-08-07T08:25:20.000Z</time>
      </trkpt>
      <trkpt lat="48.61599" lon="-4.28319">
        <ele>44.799999237061</ele>
        <time>2022-08-07T08:25:21.000Z</time>
      </trkpt>
      <trkpt lat="48.61601" lon="-4.28324">
        <ele>44.799999237061</ele>
        <time>2022-08-07T08:25:22.000Z</time>
      </trkpt>
      <trkpt lat="48.61603" lon="-4.28329">
        <ele>44.799999237061</ele>
        <time>2022-08-07T08:25:23.000Z</time>
      </trkpt>
      <trkpt lat="48.61605" lon="-4.28335">
        <ele>44.799999237061</ele>
        <time>2022-08-07T08:25:24.000Z</time>
      </trkpt>
      <trkpt lat="48.61607" lon="-4.2834">
        <ele>44.799999237061</ele>
        <time>2022-08-07T08:25:25.000Z</time>
      </trkpt>
      <trkpt lat="48.61609" lon="-4.28346">
        <ele>44.799999237061</ele>
        <time>2022-08-07T08:25:26.000Z</time>
      </trkpt>
      <trkpt lat="48.61611" lon="-4.28351">
        <ele>44.599998474121</ele>
        <time>2022-08-07T08:25:27.000Z</time>
      </trkpt>
      <trkpt lat="48.61613" lon="-4.28357">
        <ele>44.599998474121</ele>
        <time>2022-08-07T08:25:28.000Z</time>
      </trkpt>
      <trkpt lat="48.61615" lon="-4.28363">
        <ele>44.599998474121</ele>
        <time>2022-08-07T08:25:29.000Z</time>
      </trkpt>
      <trkpt lat="48.61617" lon="-4.28368">
        <ele>44.599998474121</ele>
        <time>2022-08-07T08:25:30.000Z</time>
      </trkpt>
      <trkpt lat="48.61619" lon="-4.28373">
        <ele>44.200000762939</ele>
        <time>2022-08-07T08:25:31.000Z</time>
      </trkpt>
      <trkpt lat="48.6162" lon="-4.28378">
        <ele>44.200000762939</ele>
        <time>2022-08-07T08:25:32.000Z</time>
      </trkpt>
      <trkpt lat="48.61622" lon="-4.28383">
        <ele>44</ele>
        <time>2022-08-07T08:25:33.000Z</time>
      </trkpt>
      <trkpt lat="48.61624" lon="-4.28388">
        <ele>44</ele>
        <time>2022-08-07T08:25:34.000Z</time>
      </trkpt>
      <trkpt lat="48.61626" lon="-4.28392">
        <ele>43.799999237061</ele>
        <time>2022-08-07T08:25:35.000Z</time>
      </trkpt>
      <trkpt lat="48.61627" lon="-4.28396">
        <ele>43.400001525879</ele>
        <time>2022-08-07T08:25:36.000Z</time>
      </trkpt>
      <trkpt lat="48.61628" lon="-4.28399">
        <ele>43.400001525879</ele>
        <time>2022-08-07T08:25:37.000Z</time>
      </trkpt>
      <trkpt lat="48.6163" lon="-4.28401">
        <ele>43.400001525879</ele>
        <time>2022-08-07T08:25:38.000Z</time>
      </trkpt>
      <trkpt lat="48.61632" lon="-4.28403">
        <ele>43.200000762939</ele>
        <time>2022-08-07T08:25:39.000Z</time>
      </trkpt>
      <trkpt lat="48.61633" lon="-4.28403">
        <ele>43.200000762939</ele>
        <time>2022-08-07T08:25:40.000Z</time>
      </trkpt>
      <trkpt lat="48.61634" lon="-4.28404">
        <ele>43.200000762939</ele>
        <time>2022-08-07T08:25:41.000Z</time>
      </trkpt>
      <trkpt lat="48.61633" lon="-4.28404">
        <ele>42.599998474121</ele>
        <time>2022-08-07T08:26:08.000Z</time>
      </trkpt>
      <trkpt lat="48.61631" lon="-4.28406">
        <ele>42.799999237061</ele>
        <time>2022-08-07T08:26:09.000Z</time>
      </trkpt>
      <trkpt lat="48.61629" lon="-4.28407">
        <ele>42.799999237061</ele>
        <time>2022-08-07T08:26:10.000Z</time>
      </trkpt>
      <trkpt lat="48.61627" lon="-4.28408">
        <ele>42.799999237061</ele>
        <time>2022-08-07T08:26:11.000Z</time>
      </trkpt>
      <trkpt lat="48.61625" lon="-4.28409">
        <ele>42.799999237061</ele>
        <time>2022-08-07T08:26:12.000Z</time>
      </trkpt>
      <trkpt lat="48.61622" lon="-4.2841">
        <ele>42.799999237061</ele>
        <time>2022-08-07T08:26:13.000Z</time>
      </trkpt>
      <trkpt lat="48.61619" lon="-4.28412">
        <ele>43</ele>
        <time>2022-08-07T08:26:14.000Z</time>
      </trkpt>
      <trkpt lat="48.61615" lon="-4.28413">
        <ele>43</ele>
        <time>2022-08-07T08:26:15.000Z</time>
      </trkpt>
      <trkpt lat="48.61611" lon="-4.28414">
        <ele>43</ele>
        <time>2022-08-07T08:26:16.000Z</time>
      </trkpt>
      <trkpt lat="48.61606" lon="-4.28416">
        <ele>43.200000762939</ele>
        <time>2022-08-07T08:26:17.000Z</time>
      </trkpt>
      <trkpt lat="48.61602" lon="-4.28417">
        <ele>43.200000762939</ele>
        <time>2022-08-07T08:26:18.000Z</time>
      </trkpt>
      <trkpt lat="48.61598" lon="-4.28418">
        <ele>43.400001525879</ele>
        <time>2022-08-07T08:26:19.000Z</time>
      </trkpt>
      <trkpt lat="48.61594" lon="-4.2842">
        <ele>43.599998474121</ele>
        <time>2022-08-07T08:26:20.000Z</time>
      </trkpt>
      <trkpt lat="48.6159" lon="-4.28421">
        <ele>43.799999237061</ele>
        <time>2022-08-07T08:26:21.000Z</time>
      </trkpt>
      <trkpt lat="48.61586" lon="-4.28423">
        <ele>44</ele>
        <time>2022-08-07T08:26:22.000Z</time>
      </trkpt>
      <trkpt lat="48.61582" lon="-4.28424">
        <ele>44.200000762939</ele>
        <time>2022-08-07T08:26:23.000Z</time>
      </trkpt>
      <trkpt lat="48.61579" lon="-4.28426">
        <ele>44.200000762939</ele>
        <time>2022-08-07T08:26:24.000Z</time>
      </trkpt>
      <trkpt lat="48.61575" lon="-4.28427">
        <ele>44.400001525879</ele>
        <time>2022-08-07T08:26:25.000Z</time>
      </trkpt>
      <trkpt lat="48.61571" lon="-4.28429">
        <ele>44.400001525879</ele>
        <time>2022-08-07T08:26:26.000Z</time>
      </trkpt>
      <trkpt lat="48.61568" lon="-4.28431">
        <ele>44.599998474121</ele>
        <time>2022-08-07T08:26:27.000Z</time>
      </trkpt>
      <trkpt lat="48.61564" lon="-4.28432">
        <ele>44.599998474121</ele>
        <time>2022-08-07T08:26:28.000Z</time>
      </trkpt>
      <trkpt lat="48.61561" lon="-4.28434">
        <ele>44.599998474121</ele>
        <time>2022-08-07T08:26:29.000Z</time>
      </trkpt>
      <trkpt lat="48.61558" lon="-4.28435">
        <ele>44.799999237061</ele>
        <time>2022-08-07T08:26:30.000Z</time>
      </trkpt>
      <trkpt lat="48.61555" lon="-4.28436">
        <ele>44.799999237061</ele>
        <time>2022-08-07T08:26:31.000Z</time>
      </trkpt>
      <trkpt lat="48.61552" lon="-4.28437">
        <ele>45</ele>
        <time>2022-08-07T08:26:32.000Z</time>
      </trkpt>
      <trkpt lat="48.61549" lon="-4.28439">
        <ele>45</ele>
        <time>2022-08-07T08:26:33.000Z</time>
      </trkpt>
      <trkpt lat="48.61546" lon="-4.2844">
        <ele>45.400001525879</ele>
        <time>2022-08-07T08:26:34.000Z</time>
      </trkpt>
      <trkpt lat="48.61543" lon="-4.28441">
        <ele>45.599998474121</ele>
        <time>2022-08-07T08:26:35.000Z</time>
      </trkpt>
      <trkpt lat="48.61539" lon="-4.28443">
        <ele>46</ele>
        <time>2022-08-07T08:26:36.000Z</time>
      </trkpt>
      <trkpt lat="48.61536" lon="-4.28444">
        <ele>46.200000762939</ele>
        <time>2022-08-07T08:26:37.000Z</time>
      </trkpt>
      <trkpt lat="48.61534" lon="-4.28445">
        <ele>46.400001525879</ele>
        <time>2022-08-07T08:26:38.000Z</time>
      </trkpt>
      <trkpt lat="48.61532" lon="-4.28447">
        <ele>46.599998474121</ele>
        <time>2022-08-07T08:26:39.000Z</time>
      </trkpt>
      <trkpt lat="48.61529" lon="-4.28448">
        <ele>46.799999237061</ele>
        <time>2022-08-07T08:26:40.000Z</time>
      </trkpt>
      <trkpt lat="48.61525" lon="-4.2845">
        <ele>47.200000762939</ele>
        <time>2022-08-07T08:26:41.000Z</time>
      </trkpt>
      <trkpt lat="48.61523" lon="-4.28451">
        <ele>47.400001525879</ele>
        <time>2022-08-07T08:26:42.000Z</time>
      </trkpt>
      <trkpt lat="48.61521" lon="-4.28452">
        <ele>47.400001525879</ele>
        <time>2022-08-07T08:26:43.000Z</time>
      </trkpt>
      <trkpt lat="48.61518" lon="-4.28454">
        <ele>47.599998474121</ele>
        <time>2022-08-07T08:26:44.000Z</time>
      </trkpt>
      <trkpt lat="48.61515" lon="-4.28456">
        <ele>48</ele>
        <time>2022-08-07T08:26:45.000Z</time>
      </trkpt>
      <trkpt lat="48.61512" lon="-4.28458">
        <ele>48.200000762939</ele>
        <time>2022-08-07T08:26:46.000Z</time>
      </trkpt>
      <trkpt lat="48.6151" lon="-4.2846">
        <ele>48.200000762939</ele>
        <time>2022-08-07T08:26:47.000Z</time>
      </trkpt>
      <trkpt lat="48.61507" lon="-4.28462">
        <ele>48.400001525879</ele>
        <time>2022-08-07T08:26:48.000Z</time>
      </trkpt>
      <trkpt lat="48.61505" lon="-4.28464">
        <ele>48.599998474121</ele>
        <time>2022-08-07T08:26:49.000Z</time>
      </trkpt>
      <trkpt lat="48.61503" lon="-4.28467">
        <ele>48.599998474121</ele>
        <time>2022-08-07T08:26:50.000Z</time>
      </trkpt>
      <trkpt lat="48.615" lon="-4.28469">
        <ele>48.799999237061</ele>
        <time>2022-08-07T08:26:51.000Z</time>
      </trkpt>
      <trkpt lat="48.61499" lon="-4.28471">
        <ele>49</ele>
        <time>2022-08-07T08:26:52.000Z</time>
      </trkpt>
      <trkpt lat="48.61497" lon="-4.28473">
        <ele>49.200000762939</ele>
        <time>2022-08-07T08:26:53.000Z</time>
      </trkpt>
      <trkpt lat="48.61496" lon="-4.28475">
        <ele>49.400001525879</ele>
        <time>2022-08-07T08:26:54.000Z</time>
      </trkpt>
      <trkpt lat="48.61494" lon="-4.28477">
        <ele>49.400001525879</ele>
        <time>2022-08-07T08:26:55.000Z</time>
      </trkpt>
      <trkpt lat="48.61492" lon="-4.2848">
        <ele>49.599998474121</ele>
        <time>2022-08-07T08:26:56.000Z</time>
      </trkpt>
      <trkpt lat="48.6149" lon="-4.28482">
        <ele>49.799999237061</ele>
        <time>2022-08-07T08:26:57.000Z</time>
      </trkpt>
      <trkpt lat="48.61488" lon="-4.28483">
        <ele>50</ele>
        <time>2022-08-07T08:26:59.000Z</time>
      </trkpt>
      <trkpt lat="48.61486" lon="-4.28486">
        <ele>50.200000762939</ele>
        <time>2022-08-07T08:27:00.000Z</time>
      </trkpt>
      <trkpt lat="48.61484" lon="-4.28489">
        <ele>50.400001525879</ele>
        <time>2022-08-07T08:27:01.000Z</time>
      </trkpt>
      <trkpt lat="48.61481" lon="-4.28494">
        <ele>50.400001525879</ele>
        <time>2022-08-07T08:27:02.000Z</time>
      </trkpt>
      <trkpt lat="48.6148" lon="-4.28497">
        <ele>50.799999237061</ele>
        <time>2022-08-07T08:27:04.000Z</time>
      </trkpt>
      <trkpt lat="48.61478" lon="-4.28499">
        <ele>50.799999237061</ele>
        <time>2022-08-07T08:27:05.000Z</time>
      </trkpt>
      <trkpt lat="48.61475" lon="-4.28505">
        <ele>51</ele>
        <time>2022-08-07T08:27:06.000Z</time>
      </trkpt>
      <trkpt lat="48.61473" lon="-4.28508">
        <ele>51.200000762939</ele>
        <time>2022-08-07T08:27:07.000Z</time>
      </trkpt>
      <trkpt lat="48.61472" lon="-4.28511">
        <ele>51.400001525879</ele>
        <time>2022-08-07T08:27:09.000Z</time>
      </trkpt>
      <trkpt lat="48.6147" lon="-4.28514">
        <ele>51.599998474121</ele>
        <time>2022-08-07T08:27:10.000Z</time>
      </trkpt>
      <trkpt lat="48.61467" lon="-4.28519">
        <ele>51.599998474121</ele>
        <time>2022-08-07T08:27:11.000Z</time>
      </trkpt>
      <trkpt lat="48.61465" lon="-4.28522">
        <ele>51.599998474121</ele>
        <time>2022-08-07T08:27:12.000Z</time>
      </trkpt>
      <trkpt lat="48.61463" lon="-4.28525">
        <ele>51.599998474121</ele>
        <time>2022-08-07T08:27:13.000Z</time>
      </trkpt>
      <trkpt lat="48.61459" lon="-4.28531">
        <ele>51.799999237061</ele>
        <time>2022-08-07T08:27:15.000Z</time>
      </trkpt>
      <trkpt lat="48.61457" lon="-4.28534">
        <ele>52</ele>
        <time>2022-08-07T08:27:17.000Z</time>
      </trkpt>
      <trkpt lat="48.61452" lon="-4.28541">
        <ele>52.200000762939</ele>
        <time>2022-08-07T08:27:18.000Z</time>
      </trkpt>
      <trkpt lat="48.61451" lon="-4.28544">
        <ele>52.200000762939</ele>
        <time>2022-08-07T08:27:20.000Z</time>
      </trkpt>
      <trkpt lat="48.61449" lon="-4.28547">
        <ele>52.200000762939</ele>
        <time>2022-08-07T08:27:21.000Z</time>
      </trkpt>
      <trkpt lat="48.61445" lon="-4.28553">
        <ele>52.200000762939</ele>
        <time>2022-08-07T08:27:22.000Z</time>
      </trkpt>
      <trkpt lat="48.61442" lon="-4.28555">
        <ele>52.200000762939</ele>
        <time>2022-08-07T08:27:23.000Z</time>
      </trkpt>
      <trkpt lat="48.6144" lon="-4.28559">
        <ele>52.200000762939</ele>
        <time>2022-08-07T08:27:25.000Z</time>
      </trkpt>
      <trkpt lat="48.61438" lon="-4.28561">
        <ele>52.200000762939</ele>
        <time>2022-08-07T08:27:26.000Z</time>
      </trkpt>
      <trkpt lat="48.61434" lon="-4.28567">
        <ele>52.200000762939</ele>
        <time>2022-08-07T08:27:27.000Z</time>
      </trkpt>
      <trkpt lat="48.61431" lon="-4.2857">
        <ele>52.200000762939</ele>
        <time>2022-08-07T08:27:28.000Z</time>
      </trkpt>
      <trkpt lat="48.61429" lon="-4.28573">
        <ele>52.200000762939</ele>
        <time>2022-08-07T08:27:30.000Z</time>
      </trkpt>
      <trkpt lat="48.61427" lon="-4.28576">
        <ele>52</ele>
        <time>2022-08-07T08:27:31.000Z</time>
      </trkpt>
      <trkpt lat="48.61422" lon="-4.28582">
        <ele>52.200000762939</ele>
        <time>2022-08-07T08:27:32.000Z</time>
      </trkpt>
      <trkpt lat="48.6142" lon="-4.28586">
        <ele>52.200000762939</ele>
        <time>2022-08-07T08:27:33.000Z</time>
      </trkpt>
      <trkpt lat="48.61417" lon="-4.2859">
        <ele>52.400001525879</ele>
        <time>2022-08-07T08:27:35.000Z</time>
      </trkpt>
      <trkpt lat="48.61411" lon="-4.28599">
        <ele>52.599998474121</ele>
        <time>2022-08-07T08:27:37.000Z</time>
      </trkpt>
      <trkpt lat="48.61409" lon="-4.28602">
        <ele>52.599998474121</ele>
        <time>2022-08-07T08:27:38.000Z</time>
      </trkpt>
      <trkpt lat="48.61407" lon="-4.28605">
        <ele>52.599998474121</ele>
        <time>2022-08-07T08:27:39.000Z</time>
      </trkpt>
      <trkpt lat="48.61405" lon="-4.28608">
        <ele>52.599998474121</ele>
        <time>2022-08-07T08:27:41.000Z</time>
      </trkpt>
      <trkpt lat="48.61401" lon="-4.28616">
        <ele>52.599998474121</ele>
        <time>2022-08-07T08:27:42.000Z</time>
      </trkpt>
      <trkpt lat="48.61397" lon="-4.28623">
        <ele>52.799999237061</ele>
        <time>2022-08-07T08:27:44.000Z</time>
      </trkpt>
      <trkpt lat="48.61395" lon="-4.28627">
        <ele>53</ele>
        <time>2022-08-07T08:27:46.000Z</time>
      </trkpt>
      <trkpt lat="48.61394" lon="-4.28631">
        <ele>53</ele>
        <time>2022-08-07T08:27:47.000Z</time>
      </trkpt>
      <trkpt lat="48.61392" lon="-4.28635">
        <ele>53.200000762939</ele>
        <time>2022-08-07T08:27:48.000Z</time>
      </trkpt>
      <trkpt lat="48.61387" lon="-4.28644">
        <ele>53.200000762939</ele>
        <time>2022-08-07T08:27:49.000Z</time>
      </trkpt>
      <trkpt lat="48.61386" lon="-4.28649">
        <ele>53.400001525879</ele>
        <time>2022-08-07T08:27:51.000Z</time>
      </trkpt>
      <trkpt lat="48.61383" lon="-4.28653">
        <ele>53.400001525879</ele>
        <time>2022-08-07T08:27:52.000Z</time>
      </trkpt>
      <trkpt lat="48.61379" lon="-4.28661">
        <ele>53.599998474121</ele>
        <time>2022-08-07T08:27:53.000Z</time>
      </trkpt>
      <trkpt lat="48.61377" lon="-4.28665">
        <ele>53.599998474121</ele>
        <time>2022-08-07T08:27:54.000Z</time>
      </trkpt>
      <trkpt lat="48.61376" lon="-4.28669">
        <ele>54</ele>
        <time>2022-08-07T08:27:56.000Z</time>
      </trkpt>
      <trkpt lat="48.61374" lon="-4.28673">
        <ele>54.200000762939</ele>
        <time>2022-08-07T08:27:57.000Z</time>
      </trkpt>
      <trkpt lat="48.6137" lon="-4.2868">
        <ele>54.200000762939</ele>
        <time>2022-08-07T08:27:58.000Z</time>
      </trkpt>
      <trkpt lat="48.61367" lon="-4.28684">
        <ele>54.400001525879</ele>
        <time>2022-08-07T08:27:59.000Z</time>
      </trkpt>
      <trkpt lat="48.61365" lon="-4.28688">
        <ele>54.599998474121</ele>
        <time>2022-08-07T08:28:01.000Z</time>
      </trkpt>
      <trkpt lat="48.61363" lon="-4.28692">
        <ele>54.599998474121</ele>
        <time>2022-08-07T08:28:02.000Z</time>
      </trkpt>
      <trkpt lat="48.61359" lon="-4.287">
        <ele>54.599998474121</ele>
        <time>2022-08-07T08:28:03.000Z</time>
      </trkpt>
      <trkpt lat="48.61357" lon="-4.28703">
        <ele>54.599998474121</ele>
        <time>2022-08-07T08:28:04.000Z</time>
      </trkpt>
      <trkpt lat="48.61355" lon="-4.28707">
        <ele>54.799999237061</ele>
        <time>2022-08-07T08:28:06.000Z</time>
      </trkpt>
      <trkpt lat="48.61353" lon="-4.28711">
        <ele>54.799999237061</ele>
        <time>2022-08-07T08:28:07.000Z</time>
      </trkpt>
      <trkpt lat="48.61348" lon="-4.28719">
        <ele>55</ele>
        <time>2022-08-07T08:28:08.000Z</time>
      </trkpt>
      <trkpt lat="48.61346" lon="-4.28724">
        <ele>55</ele>
        <time>2022-08-07T08:28:09.000Z</time>
      </trkpt>
      <trkpt lat="48.61342" lon="-4.28729">
        <ele>55.400001525879</ele>
        <time>2022-08-07T08:28:11.000Z</time>
      </trkpt>
      <trkpt lat="48.61341" lon="-4.28733">
        <ele>55.400001525879</ele>
        <time>2022-08-07T08:28:12.000Z</time>
      </trkpt>
      <trkpt lat="48.61336" lon="-4.28741">
        <ele>55.599998474121</ele>
        <time>2022-08-07T08:28:13.000Z</time>
      </trkpt>
      <trkpt lat="48.61333" lon="-4.28746">
        <ele>55.599998474121</ele>
        <time>2022-08-07T08:28:14.000Z</time>
      </trkpt>
      <trkpt lat="48.61331" lon="-4.28749">
        <ele>55.599998474121</ele>
        <time>2022-08-07T08:28:15.000Z</time>
      </trkpt>
      <trkpt lat="48.61329" lon="-4.28753">
        <ele>55.799999237061</ele>
        <time>2022-08-07T08:28:17.000Z</time>
      </trkpt>
      <trkpt lat="48.61326" lon="-4.28757">
        <ele>56</ele>
        <time>2022-08-07T08:28:18.000Z</time>
      </trkpt>
      <trkpt lat="48.61324" lon="-4.28761">
        <ele>56</ele>
        <time>2022-08-07T08:28:19.000Z</time>
      </trkpt>
      <trkpt lat="48.61319" lon="-4.2877">
        <ele>56</ele>
        <time>2022-08-07T08:28:20.000Z</time>
      </trkpt>
      <trkpt lat="48.61314" lon="-4.28778">
        <ele>56</ele>
        <time>2022-08-07T08:28:22.000Z</time>
      </trkpt>
      <trkpt lat="48.61311" lon="-4.28782">
        <ele>56</ele>
        <time>2022-08-07T08:28:23.000Z</time>
      </trkpt>
      <trkpt lat="48.61309" lon="-4.28787">
        <ele>56</ele>
        <time>2022-08-07T08:28:24.000Z</time>
      </trkpt>
      <trkpt lat="48.61306" lon="-4.28792">
        <ele>56</ele>
        <time>2022-08-07T08:28:25.000Z</time>
      </trkpt>
      <trkpt lat="48.61302" lon="-4.28796">
        <ele>56</ele>
        <time>2022-08-07T08:28:26.000Z</time>
      </trkpt>
      <trkpt lat="48.613" lon="-4.28798">
        <ele>56</ele>
        <time>2022-08-07T08:28:27.000Z</time>
      </trkpt>
      <trkpt lat="48.61296" lon="-4.28801">
        <ele>55.799999237061</ele>
        <time>2022-08-07T08:28:28.000Z</time>
      </trkpt>
      <trkpt lat="48.61292" lon="-4.28804">
        <ele>55.799999237061</ele>
        <time>2022-08-07T08:28:29.000Z</time>
      </trkpt>
      <trkpt lat="48.61287" lon="-4.28808">
        <ele>55.799999237061</ele>
        <time>2022-08-07T08:28:30.000Z</time>
      </trkpt>
      <trkpt lat="48.61283" lon="-4.28811">
        <ele>55.799999237061</ele>
        <time>2022-08-07T08:28:31.000Z</time>
      </trkpt>
      <trkpt lat="48.61276" lon="-4.28815">
        <ele>55.799999237061</ele>
        <time>2022-08-07T08:28:33.000Z</time>
      </trkpt>
      <trkpt lat="48.61272" lon="-4.28818">
        <ele>55.799999237061</ele>
        <time>2022-08-07T08:28:34.000Z</time>
      </trkpt>
      <trkpt lat="48.61268" lon="-4.2882">
        <ele>55.799999237061</ele>
        <time>2022-08-07T08:28:35.000Z</time>
      </trkpt>
      <trkpt lat="48.61265" lon="-4.28823">
        <ele>55.799999237061</ele>
        <time>2022-08-07T08:28:36.000Z</time>
      </trkpt>
      <trkpt lat="48.61261" lon="-4.28825">
        <ele>55.799999237061</ele>
        <time>2022-08-07T08:28:37.000Z</time>
      </trkpt>
      <trkpt lat="48.61258" lon="-4.28828">
        <ele>55.799999237061</ele>
        <time>2022-08-07T08:28:38.000Z</time>
      </trkpt>
      <trkpt lat="48.61254" lon="-4.2883">
        <ele>55.799999237061</ele>
        <time>2022-08-07T08:28:39.000Z</time>
      </trkpt>
      <trkpt lat="48.6125" lon="-4.28832">
        <ele>55.799999237061</ele>
        <time>2022-08-07T08:28:40.000Z</time>
      </trkpt>
      <trkpt lat="48.61247" lon="-4.28834">
        <ele>55.799999237061</ele>
        <time>2022-08-07T08:28:41.000Z</time>
      </trkpt>
      <trkpt lat="48.61243" lon="-4.28837">
        <ele>55.799999237061</ele>
        <time>2022-08-07T08:28:42.000Z</time>
      </trkpt>
      <trkpt lat="48.6124" lon="-4.28839">
        <ele>56</ele>
        <time>2022-08-07T08:28:43.000Z</time>
      </trkpt>
      <trkpt lat="48.61236" lon="-4.28841">
        <ele>56</ele>
        <time>2022-08-07T08:28:44.000Z</time>
      </trkpt>
      <trkpt lat="48.61233" lon="-4.28844">
        <ele>56</ele>
        <time>2022-08-07T08:28:45.000Z</time>
      </trkpt>
      <trkpt lat="48.6123" lon="-4.28847">
        <ele>56</ele>
        <time>2022-08-07T08:28:46.000Z</time>
      </trkpt>
      <trkpt lat="48.61227" lon="-4.2885">
        <ele>56.400001525879</ele>
        <time>2022-08-07T08:28:47.000Z</time>
      </trkpt>
      <trkpt lat="48.61224" lon="-4.28854">
        <ele>56.599998474121</ele>
        <time>2022-08-07T08:28:48.000Z</time>
      </trkpt>
      <trkpt lat="48.61223" lon="-4.28859">
        <ele>56.799999237061</ele>
        <time>2022-08-07T08:28:49.000Z</time>
      </trkpt>
      <trkpt lat="48.61222" lon="-4.28863">
        <ele>56.799999237061</ele>
        <time>2022-08-07T08:28:50.000Z</time>
      </trkpt>
      <trkpt lat="48.61221" lon="-4.28867">
        <ele>57</ele>
        <time>2022-08-07T08:28:51.000Z</time>
      </trkpt>
      <trkpt lat="48.6122" lon="-4.28871">
        <ele>57</ele>
        <time>2022-08-07T08:28:52.000Z</time>
      </trkpt>
      <trkpt lat="48.61219" lon="-4.28876">
        <ele>57</ele>
        <time>2022-08-07T08:28:53.000Z</time>
      </trkpt>
      <trkpt lat="48.61218" lon="-4.28881">
        <ele>57</ele>
        <time>2022-08-07T08:28:54.000Z</time>
      </trkpt>
      <trkpt lat="48.61217" lon="-4.28887">
        <ele>57</ele>
        <time>2022-08-07T08:28:55.000Z</time>
      </trkpt>
      <trkpt lat="48.61216" lon="-4.28892">
        <ele>57</ele>
        <time>2022-08-07T08:28:56.000Z</time>
      </trkpt>
      <trkpt lat="48.61215" lon="-4.28896">
        <ele>57</ele>
        <time>2022-08-07T08:28:57.000Z</time>
      </trkpt>
      <trkpt lat="48.61217" lon="-4.28899">
        <ele>56.799999237061</ele>
        <time>2022-08-07T08:28:58.000Z</time>
      </trkpt>
      <trkpt lat="48.61219" lon="-4.289">
        <ele>56.799999237061</ele>
        <time>2022-08-07T08:28:59.000Z</time>
      </trkpt>
      <trkpt lat="48.61222" lon="-4.289">
        <ele>56.400001525879</ele>
        <time>2022-08-07T08:29:00.000Z</time>
      </trkpt>
      <trkpt lat="48.61226" lon="-4.28898">
        <ele>56.200000762939</ele>
        <time>2022-08-07T08:29:01.000Z</time>
      </trkpt>
      <trkpt lat="48.6123" lon="-4.28897">
        <ele>56</ele>
        <time>2022-08-07T08:29:02.000Z</time>
      </trkpt>
      <trkpt lat="48.61235" lon="-4.28895">
        <ele>55.599998474121</ele>
        <time>2022-08-07T08:29:03.000Z</time>
      </trkpt>
      <trkpt lat="48.6124" lon="-4.28894">
        <ele>55.599998474121</ele>
        <time>2022-08-07T08:29:04.000Z</time>
      </trkpt>
      <trkpt lat="48.61245" lon="-4.28893">
        <ele>55.400001525879</ele>
        <time>2022-08-07T08:29:05.000Z</time>
      </trkpt>
      <trkpt lat="48.6125" lon="-4.28893">
        <ele>55.200000762939</ele>
        <time>2022-08-07T08:29:06.000Z</time>
      </trkpt>
      <trkpt lat="48.61255" lon="-4.28893">
        <ele>55.200000762939</ele>
        <time>2022-08-07T08:29:07.000Z</time>
      </trkpt>
      <trkpt lat="48.61261" lon="-4.28892">
        <ele>55</ele>
        <time>2022-08-07T08:29:08.000Z</time>
      </trkpt>
      <trkpt lat="48.61266" lon="-4.28893">
        <ele>55</ele>
        <time>2022-08-07T08:29:09.000Z</time>
      </trkpt>
      <trkpt lat="48.61272" lon="-4.28894">
        <ele>54.799999237061</ele>
        <time>2022-08-07T08:29:10.000Z</time>
      </trkpt>
      <trkpt lat="48.61278" lon="-4.28894">
        <ele>54.799999237061</ele>
        <time>2022-08-07T08:29:11.000Z</time>
      </trkpt>
      <trkpt lat="48.61284" lon="-4.28895">
        <ele>54.799999237061</ele>
        <time>2022-08-07T08:29:12.000Z</time>
      </trkpt>
      <trkpt lat="48.6129" lon="-4.28896">
        <ele>54.799999237061</ele>
        <time>2022-08-07T08:29:13.000Z</time>
      </trkpt>
      <trkpt lat="48.61297" lon="-4.28898">
        <ele>54.599998474121</ele>
        <time>2022-08-07T08:29:14.000Z</time>
      </trkpt>
      <trkpt lat="48.61302" lon="-4.289">
        <ele>54.599998474121</ele>
        <time>2022-08-07T08:29:15.000Z</time>
      </trkpt>
      <trkpt lat="48.61314" lon="-4.28905">
        <ele>54.400001525879</ele>
        <time>2022-08-07T08:29:17.000Z</time>
      </trkpt>
      <trkpt lat="48.61321" lon="-4.28908">
        <ele>54.400001525879</ele>
        <time>2022-08-07T08:29:18.000Z</time>
      </trkpt>
      <trkpt lat="48.61327" lon="-4.28912">
        <ele>54</ele>
        <time>2022-08-07T08:29:19.000Z</time>
      </trkpt>
      <trkpt lat="48.61333" lon="-4.28916">
        <ele>54</ele>
        <time>2022-08-07T08:29:20.000Z</time>
      </trkpt>
      <trkpt lat="48.61339" lon="-4.2892">
        <ele>53.799999237061</ele>
        <time>2022-08-07T08:29:21.000Z</time>
      </trkpt>
      <trkpt lat="48.61345" lon="-4.28925">
        <ele>53.599998474121</ele>
        <time>2022-08-07T08:29:22.000Z</time>
      </trkpt>
      <trkpt lat="48.61351" lon="-4.2893">
        <ele>53.599998474121</ele>
        <time>2022-08-07T08:29:23.000Z</time>
      </trkpt>
      <trkpt lat="48.61358" lon="-4.28936">
        <ele>53.599998474121</ele>
        <time>2022-08-07T08:29:24.000Z</time>
      </trkpt>
      <trkpt lat="48.61364" lon="-4.28943">
        <ele>53.400001525879</ele>
        <time>2022-08-07T08:29:25.000Z</time>
      </trkpt>
      <trkpt lat="48.61371" lon="-4.2895">
        <ele>53.400001525879</ele>
        <time>2022-08-07T08:29:26.000Z</time>
      </trkpt>
      <trkpt lat="48.61377" lon="-4.28958">
        <ele>53.400001525879</ele>
        <time>2022-08-07T08:29:27.000Z</time>
      </trkpt>
      <trkpt lat="48.61383" lon="-4.28966">
        <ele>53.400001525879</ele>
        <time>2022-08-07T08:29:28.000Z</time>
      </trkpt>
      <trkpt lat="48.6139" lon="-4.28975">
        <ele>53.200000762939</ele>
        <time>2022-08-07T08:29:29.000Z</time>
      </trkpt>
      <trkpt lat="48.61396" lon="-4.28984">
        <ele>53.200000762939</ele>
        <time>2022-08-07T08:29:30.000Z</time>
      </trkpt>
      <trkpt lat="48.61402" lon="-4.28993">
        <ele>53</ele>
        <time>2022-08-07T08:29:31.000Z</time>
      </trkpt>
      <trkpt lat="48.61408" lon="-4.29003">
        <ele>53</ele>
        <time>2022-08-07T08:29:32.000Z</time>
      </trkpt>
      <trkpt lat="48.61415" lon="-4.29013">
        <ele>52.799999237061</ele>
        <time>2022-08-07T08:29:33.000Z</time>
      </trkpt>
      <trkpt lat="48.61421" lon="-4.29023">
        <ele>52.400001525879</ele>
        <time>2022-08-07T08:29:34.000Z</time>
      </trkpt>
      <trkpt lat="48.61428" lon="-4.29033">
        <ele>52.200000762939</ele>
        <time>2022-08-07T08:29:35.000Z</time>
      </trkpt>
      <trkpt lat="48.61434" lon="-4.29043">
        <ele>52</ele>
        <time>2022-08-07T08:29:36.000Z</time>
      </trkpt>
      <trkpt lat="48.61441" lon="-4.29053">
        <ele>51.599998474121</ele>
        <time>2022-08-07T08:29:37.000Z</time>
      </trkpt>
      <trkpt lat="48.61448" lon="-4.29064">
        <ele>51.400001525879</ele>
        <time>2022-08-07T08:29:38.000Z</time>
      </trkpt>
      <trkpt lat="48.61455" lon="-4.29074">
        <ele>50.799999237061</ele>
        <time>2022-08-07T08:29:39.000Z</time>
      </trkpt>
      <trkpt lat="48.61462" lon="-4.29085">
        <ele>50.599998474121</ele>
        <time>2022-08-07T08:29:40.000Z</time>
      </trkpt>
      <trkpt lat="48.61469" lon="-4.29095">
        <ele>50.200000762939</ele>
        <time>2022-08-07T08:29:41.000Z</time>
      </trkpt>
      <trkpt lat="48.61477" lon="-4.29105">
        <ele>50.200000762939</ele>
        <time>2022-08-07T08:29:42.000Z</time>
      </trkpt>
      <trkpt lat="48.61484" lon="-4.29116">
        <ele>50</ele>
        <time>2022-08-07T08:29:43.000Z</time>
      </trkpt>
      <trkpt lat="48.61492" lon="-4.29125">
        <ele>50</ele>
        <time>2022-08-07T08:29:44.000Z</time>
      </trkpt>
      <trkpt lat="48.61501" lon="-4.29135">
        <ele>49.599998474121</ele>
        <time>2022-08-07T08:29:45.000Z</time>
      </trkpt>
      <trkpt lat="48.61509" lon="-4.29144">
        <ele>49.200000762939</ele>
        <time>2022-08-07T08:29:46.000Z</time>
      </trkpt>
      <trkpt lat="48.61517" lon="-4.29153">
        <ele>49</ele>
        <time>2022-08-07T08:29:47.000Z</time>
      </trkpt>
      <trkpt lat="48.61525" lon="-4.29162">
        <ele>48.799999237061</ele>
        <time>2022-08-07T08:29:48.000Z</time>
      </trkpt>
      <trkpt lat="48.61534" lon="-4.2917">
        <ele>48.599998474121</ele>
        <time>2022-08-07T08:29:49.000Z</time>
      </trkpt>
      <trkpt lat="48.61542" lon="-4.29178">
        <ele>48.400001525879</ele>
        <time>2022-08-07T08:29:50.000Z</time>
      </trkpt>
      <trkpt lat="48.6155" lon="-4.29186">
        <ele>48.400001525879</ele>
        <time>2022-08-07T08:29:51.000Z</time>
      </trkpt>
      <trkpt lat="48.61559" lon="-4.29193">
        <ele>48.200000762939</ele>
        <time>2022-08-07T08:29:52.000Z</time>
      </trkpt>
      <trkpt lat="48.61567" lon="-4.29199">
        <ele>48.200000762939</ele>
        <time>2022-08-07T08:29:53.000Z</time>
      </trkpt>
      <trkpt lat="48.61575" lon="-4.29205">
        <ele>48.200000762939</ele>
        <time>2022-08-07T08:29:54.000Z</time>
      </trkpt>
      <trkpt lat="48.61592" lon="-4.29218">
        <ele>47.200000762939</ele>
        <time>2022-08-07T08:29:56.000Z</time>
      </trkpt>
      <trkpt lat="48.616" lon="-4.29223">
        <ele>46.799999237061</ele>
        <time>2022-08-07T08:29:57.000Z</time>
      </trkpt>
      <trkpt lat="48.61608" lon="-4.29229">
        <ele>46.599998474121</ele>
        <time>2022-08-07T08:29:58.000Z</time>
      </trkpt>
      <trkpt lat="48.61614" lon="-4.29233">
        <ele>46.599998474121</ele>
        <time>2022-08-07T08:29:59.000Z</time>
      </trkpt>
      <trkpt lat="48.61623" lon="-4.29239">
        <ele>46.599998474121</ele>
        <time>2022-08-07T08:30:00.000Z</time>
      </trkpt>
      <trkpt lat="48.6163" lon="-4.29244">
        <ele>46.599998474121</ele>
        <time>2022-08-07T08:30:01.000Z</time>
      </trkpt>
      <trkpt lat="48.61643" lon="-4.29254">
        <ele>45.799999237061</ele>
        <time>2022-08-07T08:30:03.000Z</time>
      </trkpt>
      <trkpt lat="48.61649" lon="-4.29259">
        <ele>45.200000762939</ele>
        <time>2022-08-07T08:30:04.000Z</time>
      </trkpt>
      <trkpt lat="48.61655" lon="-4.29264">
        <ele>45</ele>
        <time>2022-08-07T08:30:05.000Z</time>
      </trkpt>
      <trkpt lat="48.61661" lon="-4.29269">
        <ele>44.799999237061</ele>
        <time>2022-08-07T08:30:06.000Z</time>
      </trkpt>
      <trkpt lat="48.61668" lon="-4.29274">
        <ele>44.599998474121</ele>
        <time>2022-08-07T08:30:07.000Z</time>
      </trkpt>
      <trkpt lat="48.61675" lon="-4.29279">
        <ele>44.400001525879</ele>
        <time>2022-08-07T08:30:08.000Z</time>
      </trkpt>
      <trkpt lat="48.6168" lon="-4.29283">
        <ele>44.400001525879</ele>
        <time>2022-08-07T08:30:09.000Z</time>
      </trkpt>
      <trkpt lat="48.61689" lon="-4.29289">
        <ele>44.200000762939</ele>
        <time>2022-08-07T08:30:10.000Z</time>
      </trkpt>
      <trkpt lat="48.61696" lon="-4.29294">
        <ele>43.799999237061</ele>
        <time>2022-08-07T08:30:11.000Z</time>
      </trkpt>
      <trkpt lat="48.61703" lon="-4.29298">
        <ele>43.799999237061</ele>
        <time>2022-08-07T08:30:12.000Z</time>
      </trkpt>
      <trkpt lat="48.61711" lon="-4.29303">
        <ele>43.599998474121</ele>
        <time>2022-08-07T08:30:13.000Z</time>
      </trkpt>
      <trkpt lat="48.61718" lon="-4.29308">
        <ele>43.400001525879</ele>
        <time>2022-08-07T08:30:14.000Z</time>
      </trkpt>
      <trkpt lat="48.61725" lon="-4.29313">
        <ele>43.200000762939</ele>
        <time>2022-08-07T08:30:15.000Z</time>
      </trkpt>
      <trkpt lat="48.61732" lon="-4.29319">
        <ele>43</ele>
        <time>2022-08-07T08:30:16.000Z</time>
      </trkpt>
      <trkpt lat="48.6174" lon="-4.29324">
        <ele>42.799999237061</ele>
        <time>2022-08-07T08:30:17.000Z</time>
      </trkpt>
      <trkpt lat="48.61747" lon="-4.2933">
        <ele>42.599998474121</ele>
        <time>2022-08-07T08:30:18.000Z</time>
      </trkpt>
      <trkpt lat="48.61755" lon="-4.29335">
        <ele>42.599998474121</ele>
        <time>2022-08-07T08:30:19.000Z</time>
      </trkpt>
      <trkpt lat="48.6177" lon="-4.29347">
        <ele>42</ele>
        <time>2022-08-07T08:30:21.000Z</time>
      </trkpt>
      <trkpt lat="48.61777" lon="-4.29352">
        <ele>41.799999237061</ele>
        <time>2022-08-07T08:30:22.000Z</time>
      </trkpt>
      <trkpt lat="48.61785" lon="-4.29358">
        <ele>41.599998474121</ele>
        <time>2022-08-07T08:30:23.000Z</time>
      </trkpt>
      <trkpt lat="48.61792" lon="-4.29363">
        <ele>41.400001525879</ele>
        <time>2022-08-07T08:30:24.000Z</time>
      </trkpt>
      <trkpt lat="48.618" lon="-4.29368">
        <ele>41.200000762939</ele>
        <time>2022-08-07T08:30:25.000Z</time>
      </trkpt>
      <trkpt lat="48.61807" lon="-4.29374">
        <ele>40.799999237061</ele>
        <time>2022-08-07T08:30:26.000Z</time>
      </trkpt>
      <trkpt lat="48.61815" lon="-4.29379">
        <ele>40.799999237061</ele>
        <time>2022-08-07T08:30:27.000Z</time>
      </trkpt>
      <trkpt lat="48.61822" lon="-4.29385">
        <ele>40.799999237061</ele>
        <time>2022-08-07T08:30:28.000Z</time>
      </trkpt>
      <trkpt lat="48.61829" lon="-4.29391">
        <ele>40.400001525879</ele>
        <time>2022-08-07T08:30:29.000Z</time>
      </trkpt>
      <trkpt lat="48.61837" lon="-4.29396">
        <ele>40.400001525879</ele>
        <time>2022-08-07T08:30:30.000Z</time>
      </trkpt>
      <trkpt lat="48.61842" lon="-4.29401">
        <ele>40.200000762939</ele>
        <time>2022-08-07T08:30:31.000Z</time>
      </trkpt>
      <trkpt lat="48.61851" lon="-4.29407">
        <ele>40</ele>
        <time>2022-08-07T08:30:32.000Z</time>
      </trkpt>
      <trkpt lat="48.61858" lon="-4.29413">
        <ele>40</ele>
        <time>2022-08-07T08:30:33.000Z</time>
      </trkpt>
      <trkpt lat="48.61865" lon="-4.29418">
        <ele>39.799999237061</ele>
        <time>2022-08-07T08:30:34.000Z</time>
      </trkpt>
      <trkpt lat="48.61872" lon="-4.29423">
        <ele>39.200000762939</ele>
        <time>2022-08-07T08:30:35.000Z</time>
      </trkpt>
      <trkpt lat="48.6188" lon="-4.29429">
        <ele>39</ele>
        <time>2022-08-07T08:30:36.000Z</time>
      </trkpt>
      <trkpt lat="48.61887" lon="-4.29434">
        <ele>38.599998474121</ele>
        <time>2022-08-07T08:30:37.000Z</time>
      </trkpt>
      <trkpt lat="48.61894" lon="-4.2944">
        <ele>38.200000762939</ele>
        <time>2022-08-07T08:30:38.000Z</time>
      </trkpt>
      <trkpt lat="48.61902" lon="-4.29445">
        <ele>38.200000762939</ele>
        <time>2022-08-07T08:30:39.000Z</time>
      </trkpt>
      <trkpt lat="48.61909" lon="-4.2945">
        <ele>38</ele>
        <time>2022-08-07T08:30:40.000Z</time>
      </trkpt>
      <trkpt lat="48.61916" lon="-4.29456">
        <ele>38</ele>
        <time>2022-08-07T08:30:41.000Z</time>
      </trkpt>
      <trkpt lat="48.61924" lon="-4.29461">
        <ele>37.599998474121</ele>
        <time>2022-08-07T08:30:42.000Z</time>
      </trkpt>
      <trkpt lat="48.61931" lon="-4.29467">
        <ele>37.599998474121</ele>
        <time>2022-08-07T08:30:43.000Z</time>
      </trkpt>
      <trkpt lat="48.61938" lon="-4.29473">
        <ele>37.400001525879</ele>
        <time>2022-08-07T08:30:44.000Z</time>
      </trkpt>
      <trkpt lat="48.61945" lon="-4.29479">
        <ele>37.400001525879</ele>
        <time>2022-08-07T08:30:45.000Z</time>
      </trkpt>
      <trkpt lat="48.61952" lon="-4.29485">
        <ele>37</ele>
        <time>2022-08-07T08:30:46.000Z</time>
      </trkpt>
      <trkpt lat="48.61959" lon="-4.29492">
        <ele>36.799999237061</ele>
        <time>2022-08-07T08:30:47.000Z</time>
      </trkpt>
      <trkpt lat="48.61966" lon="-4.29499">
        <ele>36.599998474121</ele>
        <time>2022-08-07T08:30:48.000Z</time>
      </trkpt>
      <trkpt lat="48.61972" lon="-4.29506">
        <ele>36.200000762939</ele>
        <time>2022-08-07T08:30:49.000Z</time>
      </trkpt>
      <trkpt lat="48.61978" lon="-4.29515">
        <ele>36.200000762939</ele>
        <time>2022-08-07T08:30:50.000Z</time>
      </trkpt>
      <trkpt lat="48.61985" lon="-4.29524">
        <ele>36</ele>
        <time>2022-08-07T08:30:51.000Z</time>
      </trkpt>
      <trkpt lat="48.61991" lon="-4.29533">
        <ele>36</ele>
        <time>2022-08-07T08:30:52.000Z</time>
      </trkpt>
      <trkpt lat="48.61997" lon="-4.29541">
        <ele>35.799999237061</ele>
        <time>2022-08-07T08:30:53.000Z</time>
      </trkpt>
      <trkpt lat="48.62003" lon="-4.29551">
        <ele>36</ele>
        <time>2022-08-07T08:30:54.000Z</time>
      </trkpt>
      <trkpt lat="48.62008" lon="-4.29561">
        <ele>35.599998474121</ele>
        <time>2022-08-07T08:30:55.000Z</time>
      </trkpt>
      <trkpt lat="48.62013" lon="-4.29571">
        <ele>35.200000762939</ele>
        <time>2022-08-07T08:30:56.000Z</time>
      </trkpt>
      <trkpt lat="48.62018" lon="-4.29581">
        <ele>34.799999237061</ele>
        <time>2022-08-07T08:30:57.000Z</time>
      </trkpt>
      <trkpt lat="48.62023" lon="-4.29591">
        <ele>34.599998474121</ele>
        <time>2022-08-07T08:30:58.000Z</time>
      </trkpt>
      <trkpt lat="48.62027" lon="-4.29601">
        <ele>34.200000762939</ele>
        <time>2022-08-07T08:30:59.000Z</time>
      </trkpt>
      <trkpt lat="48.62031" lon="-4.29612">
        <ele>33.799999237061</ele>
        <time>2022-08-07T08:31:00.000Z</time>
      </trkpt>
      <trkpt lat="48.62036" lon="-4.29623">
        <ele>33.799999237061</ele>
        <time>2022-08-07T08:31:01.000Z</time>
      </trkpt>
      <trkpt lat="48.6204" lon="-4.29635">
        <ele>33.200000762939</ele>
        <time>2022-08-07T08:31:02.000Z</time>
      </trkpt>
      <trkpt lat="48.62044" lon="-4.29646">
        <ele>33</ele>
        <time>2022-08-07T08:31:03.000Z</time>
      </trkpt>
      <trkpt lat="48.62048" lon="-4.29658">
        <ele>32.599998474121</ele>
        <time>2022-08-07T08:31:04.000Z</time>
      </trkpt>
      <trkpt lat="48.62052" lon="-4.2967">
        <ele>32.400001525879</ele>
        <time>2022-08-07T08:31:05.000Z</time>
      </trkpt>
      <trkpt lat="48.62057" lon="-4.29683">
        <ele>32.400001525879</ele>
        <time>2022-08-07T08:31:06.000Z</time>
      </trkpt>
      <trkpt lat="48.62061" lon="-4.29694">
        <ele>32</ele>
        <time>2022-08-07T08:31:07.000Z</time>
      </trkpt>
      <trkpt lat="48.62067" lon="-4.29705">
        <ele>31.60000038147</ele>
        <time>2022-08-07T08:31:08.000Z</time>
      </trkpt>
      <trkpt lat="48.62072" lon="-4.29716">
        <ele>31</ele>
        <time>2022-08-07T08:31:09.000Z</time>
      </trkpt>
      <trkpt lat="48.62078" lon="-4.29726">
        <ele>30.799999237061</ele>
        <time>2022-08-07T08:31:10.000Z</time>
      </trkpt>
      <trkpt lat="48.62084" lon="-4.29736">
        <ele>30.60000038147</ele>
        <time>2022-08-07T08:31:11.000Z</time>
      </trkpt>
      <trkpt lat="48.6209" lon="-4.29744">
        <ele>30.39999961853</ele>
        <time>2022-08-07T08:31:12.000Z</time>
      </trkpt>
      <trkpt lat="48.62096" lon="-4.29752">
        <ele>30.39999961853</ele>
        <time>2022-08-07T08:31:13.000Z</time>
      </trkpt>
      <trkpt lat="48.62102" lon="-4.2976">
        <ele>30.200000762939</ele>
        <time>2022-08-07T08:31:14.000Z</time>
      </trkpt>
      <trkpt lat="48.62108" lon="-4.29767">
        <ele>30.200000762939</ele>
        <time>2022-08-07T08:31:15.000Z</time>
      </trkpt>
      <trkpt lat="48.62114" lon="-4.29773">
        <ele>30</ele>
        <time>2022-08-07T08:31:16.000Z</time>
      </trkpt>
      <trkpt lat="48.62118" lon="-4.29781">
        <ele>29.799999237061</ele>
        <time>2022-08-07T08:31:17.000Z</time>
      </trkpt>
      <trkpt lat="48.62123" lon="-4.29788">
        <ele>29.39999961853</ele>
        <time>2022-08-07T08:31:18.000Z</time>
      </trkpt>
      <trkpt lat="48.62128" lon="-4.29795">
        <ele>29.39999961853</ele>
        <time>2022-08-07T08:31:19.000Z</time>
      </trkpt>
      <trkpt lat="48.62134" lon="-4.29799">
        <ele>29</ele>
        <time>2022-08-07T08:31:20.000Z</time>
      </trkpt>
      <trkpt lat="48.62139" lon="-4.298">
        <ele>28.799999237061</ele>
        <time>2022-08-07T08:31:21.000Z</time>
      </trkpt>
      <trkpt lat="48.62145" lon="-4.298">
        <ele>28.39999961853</ele>
        <time>2022-08-07T08:31:22.000Z</time>
      </trkpt>
      <trkpt lat="48.6215" lon="-4.298">
        <ele>27.799999237061</ele>
        <time>2022-08-07T08:31:23.000Z</time>
      </trkpt>
      <trkpt lat="48.62156" lon="-4.29801">
        <ele>27.60000038147</ele>
        <time>2022-08-07T08:31:24.000Z</time>
      </trkpt>
      <trkpt lat="48.62161" lon="-4.29801">
        <ele>27.200000762939</ele>
        <time>2022-08-07T08:31:25.000Z</time>
      </trkpt>
      <trkpt lat="48.62167" lon="-4.29801">
        <ele>27.200000762939</ele>
        <time>2022-08-07T08:31:26.000Z</time>
      </trkpt>
      <trkpt lat="48.6217" lon="-4.29802">
        <ele>26.799999237061</ele>
        <time>2022-08-07T08:31:27.000Z</time>
      </trkpt>
      <trkpt lat="48.62175" lon="-4.29801">
        <ele>26.799999237061</ele>
        <time>2022-08-07T08:31:28.000Z</time>
      </trkpt>
      <trkpt lat="48.6218" lon="-4.29801">
        <ele>26.39999961853</ele>
        <time>2022-08-07T08:31:29.000Z</time>
      </trkpt>
      <trkpt lat="48.62184" lon="-4.29801">
        <ele>26.200000762939</ele>
        <time>2022-08-07T08:31:30.000Z</time>
      </trkpt>
      <trkpt lat="48.62188" lon="-4.29801">
        <ele>26.200000762939</ele>
        <time>2022-08-07T08:31:31.000Z</time>
      </trkpt>
      <trkpt lat="48.62191" lon="-4.29801">
        <ele>26</ele>
        <time>2022-08-07T08:31:32.000Z</time>
      </trkpt>
      <trkpt lat="48.62195" lon="-4.29801">
        <ele>26</ele>
        <time>2022-08-07T08:31:33.000Z</time>
      </trkpt>
      <trkpt lat="48.62199" lon="-4.29801">
        <ele>26</ele>
        <time>2022-08-07T08:31:34.000Z</time>
      </trkpt>
      <trkpt lat="48.62202" lon="-4.29801">
        <ele>26</ele>
        <time>2022-08-07T08:31:35.000Z</time>
      </trkpt>
      <trkpt lat="48.62205" lon="-4.29803">
        <ele>25.799999237061</ele>
        <time>2022-08-07T08:31:36.000Z</time>
      </trkpt>
      <trkpt lat="48.62207" lon="-4.29804">
        <ele>25.799999237061</ele>
        <time>2022-08-07T08:31:37.000Z</time>
      </trkpt>
      <trkpt lat="48.62208" lon="-4.29806">
        <ele>25.60000038147</ele>
        <time>2022-08-07T08:31:38.000Z</time>
      </trkpt>
      <trkpt lat="48.62208" lon="-4.29808">
        <ele>25.60000038147</ele>
        <time>2022-08-07T08:31:39.000Z</time>
      </trkpt>
      <trkpt lat="48.62208" lon="-4.29809">
        <ele>25.60000038147</ele>
        <time>2022-08-07T08:31:40.000Z</time>
      </trkpt>
      <trkpt lat="48.62208" lon="-4.29816">
        <ele>25</ele>
        <time>2022-08-07T08:31:48.000Z</time>
      </trkpt>
      <trkpt lat="48.62207" lon="-4.29819">
        <ele>25</ele>
        <time>2022-08-07T08:31:49.000Z</time>
      </trkpt>
      <trkpt lat="48.62207" lon="-4.29822">
        <ele>25</ele>
        <time>2022-08-07T08:31:50.000Z</time>
      </trkpt>
      <trkpt lat="48.62206" lon="-4.29825">
        <ele>25</ele>
        <time>2022-08-07T08:31:51.000Z</time>
      </trkpt>
      <trkpt lat="48.62205" lon="-4.29828">
        <ele>25</ele>
        <time>2022-08-07T08:31:52.000Z</time>
      </trkpt>
      <trkpt lat="48.62205" lon="-4.2983">
        <ele>24.799999237061</ele>
        <time>2022-08-07T08:31:53.000Z</time>
      </trkpt>
      <trkpt lat="48.62205" lon="-4.29833">
        <ele>24.799999237061</ele>
        <time>2022-08-07T08:31:54.000Z</time>
      </trkpt>
      <trkpt lat="48.62205" lon="-4.29834">
        <ele>24.60000038147</ele>
        <time>2022-08-07T08:31:55.000Z</time>
      </trkpt>
      <trkpt lat="48.62206" lon="-4.29836">
        <ele>24.39999961853</ele>
        <time>2022-08-07T08:31:56.000Z</time>
      </trkpt>
      <trkpt lat="48.62207" lon="-4.29838">
        <ele>24.39999961853</ele>
        <time>2022-08-07T08:31:57.000Z</time>
      </trkpt>
      <trkpt lat="48.62208" lon="-4.29839">
        <ele>24.39999961853</ele>
        <time>2022-08-07T08:31:58.000Z</time>
      </trkpt>
      <trkpt lat="48.62209" lon="-4.2984">
        <ele>24.39999961853</ele>
        <time>2022-08-07T08:31:59.000Z</time>
      </trkpt>
      <trkpt lat="48.62208" lon="-4.2984">
        <ele>24.60000038147</ele>
        <time>2022-08-07T08:32:43.000Z</time>
      </trkpt>
      <trkpt lat="48.62208" lon="-4.29844">
        <ele>24.60000038147</ele>
        <time>2022-08-07T08:32:44.000Z</time>
      </trkpt>
      <trkpt lat="48.62209" lon="-4.29849">
        <ele>24.60000038147</ele>
        <time>2022-08-07T08:32:45.000Z</time>
      </trkpt>
      <trkpt lat="48.62211" lon="-4.29854">
        <ele>24.60000038147</ele>
        <time>2022-08-07T08:32:46.000Z</time>
      </trkpt>
      <trkpt lat="48.62214" lon="-4.29859">
        <ele>24.60000038147</ele>
        <time>2022-08-07T08:32:47.000Z</time>
      </trkpt>
      <trkpt lat="48.62217" lon="-4.29864">
        <ele>24.39999961853</ele>
        <time>2022-08-07T08:32:48.000Z</time>
      </trkpt>
      <trkpt lat="48.6222" lon="-4.2987">
        <ele>24.39999961853</ele>
        <time>2022-08-07T08:32:49.000Z</time>
      </trkpt>
      <trkpt lat="48.62223" lon="-4.29876">
        <ele>24.200000762939</ele>
        <time>2022-08-07T08:32:50.000Z</time>
      </trkpt>
      <trkpt lat="48.62227" lon="-4.29883">
        <ele>24.200000762939</ele>
        <time>2022-08-07T08:32:51.000Z</time>
      </trkpt>
      <trkpt lat="48.62231" lon="-4.29891">
        <ele>24.200000762939</ele>
        <time>2022-08-07T08:32:52.000Z</time>
      </trkpt>
      <trkpt lat="48.62235" lon="-4.29899">
        <ele>24</ele>
        <time>2022-08-07T08:32:53.000Z</time>
      </trkpt>
      <trkpt lat="48.62239" lon="-4.29909">
        <ele>23.799999237061</ele>
        <time>2022-08-07T08:32:54.000Z</time>
      </trkpt>
      <trkpt lat="48.62243" lon="-4.29919">
        <ele>23.60000038147</ele>
        <time>2022-08-07T08:32:55.000Z</time>
      </trkpt>
      <trkpt lat="48.62247" lon="-4.29929">
        <ele>23.200000762939</ele>
        <time>2022-08-07T08:32:56.000Z</time>
      </trkpt>
      <trkpt lat="48.62252" lon="-4.29938">
        <ele>22.60000038147</ele>
        <time>2022-08-07T08:32:57.000Z</time>
      </trkpt>
      <trkpt lat="48.62255" lon="-4.29946">
        <ele>22.200000762939</ele>
        <time>2022-08-07T08:32:58.000Z</time>
      </trkpt>
      <trkpt lat="48.62258" lon="-4.29951">
        <ele>21</ele>
        <time>2022-08-07T08:32:59.000Z</time>
      </trkpt>
      <trkpt lat="48.62261" lon="-4.29956">
        <ele>20.60000038147</ele>
        <time>2022-08-07T08:33:00.000Z</time>
      </trkpt>
      <trkpt lat="48.62263" lon="-4.29961">
        <ele>20.200000762939</ele>
        <time>2022-08-07T08:33:01.000Z</time>
      </trkpt>
      <trkpt lat="48.62265" lon="-4.29966">
        <ele>19.60000038147</ele>
        <time>2022-08-07T08:33:02.000Z</time>
      </trkpt>
      <trkpt lat="48.62267" lon="-4.2997">
        <ele>19.39999961853</ele>
        <time>2022-08-07T08:33:03.000Z</time>
      </trkpt>
      <trkpt lat="48.62269" lon="-4.29975">
        <ele>19.200000762939</ele>
        <time>2022-08-07T08:33:04.000Z</time>
      </trkpt>
      <trkpt lat="48.62272" lon="-4.2998">
        <ele>19</ele>
        <time>2022-08-07T08:33:05.000Z</time>
      </trkpt>
      <trkpt lat="48.62274" lon="-4.29985">
        <ele>18.60000038147</ele>
        <time>2022-08-07T08:33:06.000Z</time>
      </trkpt>
      <trkpt lat="48.62277" lon="-4.2999">
        <ele>18.60000038147</ele>
        <time>2022-08-07T08:33:07.000Z</time>
      </trkpt>
      <trkpt lat="48.62279" lon="-4.29994">
        <ele>18.200000762939</ele>
        <time>2022-08-07T08:33:08.000Z</time>
      </trkpt>
      <trkpt lat="48.62282" lon="-4.29997">
        <ele>18.200000762939</ele>
        <time>2022-08-07T08:33:09.000Z</time>
      </trkpt>
      <trkpt lat="48.62284" lon="-4.29999">
        <ele>18</ele>
        <time>2022-08-07T08:33:10.000Z</time>
      </trkpt>
      <trkpt lat="48.62286" lon="-4.30002">
        <ele>18</ele>
        <time>2022-08-07T08:33:11.000Z</time>
      </trkpt>
      <trkpt lat="48.62288" lon="-4.30006">
        <ele>18</ele>
        <time>2022-08-07T08:33:12.000Z</time>
      </trkpt>
      <trkpt lat="48.62289" lon="-4.3001">
        <ele>18</ele>
        <time>2022-08-07T08:33:13.000Z</time>
      </trkpt>
      <trkpt lat="48.62292" lon="-4.30015">
        <ele>18</ele>
        <time>2022-08-07T08:33:14.000Z</time>
      </trkpt>
      <trkpt lat="48.62295" lon="-4.30018">
        <ele>18</ele>
        <time>2022-08-07T08:33:15.000Z</time>
      </trkpt>
      <trkpt lat="48.62297" lon="-4.30023">
        <ele>18</ele>
        <time>2022-08-07T08:33:16.000Z</time>
      </trkpt>
      <trkpt lat="48.62301" lon="-4.30027">
        <ele>18</ele>
        <time>2022-08-07T08:33:17.000Z</time>
      </trkpt>
      <trkpt lat="48.62304" lon="-4.30031">
        <ele>18</ele>
        <time>2022-08-07T08:33:18.000Z</time>
      </trkpt>
      <trkpt lat="48.62306" lon="-4.30036">
        <ele>18</ele>
        <time>2022-08-07T08:33:19.000Z</time>
      </trkpt>
      <trkpt lat="48.62308" lon="-4.30042">
        <ele>18.200000762939</ele>
        <time>2022-08-07T08:33:20.000Z</time>
      </trkpt>
      <trkpt lat="48.6231" lon="-4.30047">
        <ele>18.200000762939</ele>
        <time>2022-08-07T08:33:21.000Z</time>
      </trkpt>
      <trkpt lat="48.62311" lon="-4.30053">
        <ele>18.39999961853</ele>
        <time>2022-08-07T08:33:22.000Z</time>
      </trkpt>
      <trkpt lat="48.62311" lon="-4.30059">
        <ele>18.60000038147</ele>
        <time>2022-08-07T08:33:23.000Z</time>
      </trkpt>
      <trkpt lat="48.62312" lon="-4.30064">
        <ele>18.799999237061</ele>
        <time>2022-08-07T08:33:24.000Z</time>
      </trkpt>
      <trkpt lat="48.62312" lon="-4.3007">
        <ele>18.799999237061</ele>
        <time>2022-08-07T08:33:26.000Z</time>
      </trkpt>
      <trkpt lat="48.62312" lon="-4.30075">
        <ele>19</ele>
        <time>2022-08-07T08:33:27.000Z</time>
      </trkpt>
      <trkpt lat="48.62312" lon="-4.3008">
        <ele>19.200000762939</ele>
        <time>2022-08-07T08:33:28.000Z</time>
      </trkpt>
      <trkpt lat="48.62313" lon="-4.30085">
        <ele>19.200000762939</ele>
        <time>2022-08-07T08:33:29.000Z</time>
      </trkpt>
      <trkpt lat="48.62313" lon="-4.30091">
        <ele>19.200000762939</ele>
        <time>2022-08-07T08:33:30.000Z</time>
      </trkpt>
      <trkpt lat="48.62314" lon="-4.30096">
        <ele>19.39999961853</ele>
        <time>2022-08-07T08:33:31.000Z</time>
      </trkpt>
      <trkpt lat="48.62314" lon="-4.30101">
        <ele>19.39999961853</ele>
        <time>2022-08-07T08:33:32.000Z</time>
      </trkpt>
      <trkpt lat="48.62314" lon="-4.30106">
        <ele>19.60000038147</ele>
        <time>2022-08-07T08:33:33.000Z</time>
      </trkpt>
      <trkpt lat="48.62315" lon="-4.30112">
        <ele>19.799999237061</ele>
        <time>2022-08-07T08:33:34.000Z</time>
      </trkpt>
      <trkpt lat="48.62315" lon="-4.30117">
        <ele>19.799999237061</ele>
        <time>2022-08-07T08:33:35.000Z</time>
      </trkpt>
      <trkpt lat="48.62316" lon="-4.30123">
        <ele>20.200000762939</ele>
        <time>2022-08-07T08:33:36.000Z</time>
      </trkpt>
      <trkpt lat="48.62316" lon="-4.30128">
        <ele>20.39999961853</ele>
        <time>2022-08-07T08:33:37.000Z</time>
      </trkpt>
      <trkpt lat="48.62316" lon="-4.30132">
        <ele>20.799999237061</ele>
        <time>2022-08-07T08:33:38.000Z</time>
      </trkpt>
      <trkpt lat="48.62317" lon="-4.30136">
        <ele>21</ele>
        <time>2022-08-07T08:33:39.000Z</time>
      </trkpt>
      <trkpt lat="48.62317" lon="-4.3014">
        <ele>21.200000762939</ele>
        <time>2022-08-07T08:33:40.000Z</time>
      </trkpt>
      <trkpt lat="48.62317" lon="-4.30144">
        <ele>21.200000762939</ele>
        <time>2022-08-07T08:33:41.000Z</time>
      </trkpt>
      <trkpt lat="48.62318" lon="-4.30149">
        <ele>21.200000762939</ele>
        <time>2022-08-07T08:33:42.000Z</time>
      </trkpt>
      <trkpt lat="48.62318" lon="-4.30153">
        <ele>21.39999961853</ele>
        <time>2022-08-07T08:33:43.000Z</time>
      </trkpt>
      <trkpt lat="48.62319" lon="-4.30157">
        <ele>21.39999961853</ele>
        <time>2022-08-07T08:33:44.000Z</time>
      </trkpt>
      <trkpt lat="48.6232" lon="-4.30161">
        <ele>21.60000038147</ele>
        <time>2022-08-07T08:33:45.000Z</time>
      </trkpt>
      <trkpt lat="48.6232" lon="-4.30165">
        <ele>21.60000038147</ele>
        <time>2022-08-07T08:33:46.000Z</time>
      </trkpt>
      <trkpt lat="48.62321" lon="-4.30168">
        <ele>22</ele>
        <time>2022-08-07T08:33:47.000Z</time>
      </trkpt>
      <trkpt lat="48.62322" lon="-4.30172">
        <ele>22.200000762939</ele>
        <time>2022-08-07T08:33:48.000Z</time>
      </trkpt>
      <trkpt lat="48.62323" lon="-4.30176">
        <ele>22.799999237061</ele>
        <time>2022-08-07T08:33:49.000Z</time>
      </trkpt>
      <trkpt lat="48.62324" lon="-4.30181">
        <ele>23</ele>
        <time>2022-08-07T08:33:50.000Z</time>
      </trkpt>
      <trkpt lat="48.62325" lon="-4.30186">
        <ele>23.200000762939</ele>
        <time>2022-08-07T08:33:51.000Z</time>
      </trkpt>
      <trkpt lat="48.62326" lon="-4.30191">
        <ele>23.39999961853</ele>
        <time>2022-08-07T08:33:52.000Z</time>
      </trkpt>
      <trkpt lat="48.62327" lon="-4.30196">
        <ele>23.60000038147</ele>
        <time>2022-08-07T08:33:53.000Z</time>
      </trkpt>
      <trkpt lat="48.62328" lon="-4.30201">
        <ele>23.799999237061</ele>
        <time>2022-08-07T08:33:54.000Z</time>
      </trkpt>
      <trkpt lat="48.62329" lon="-4.30206">
        <ele>23.799999237061</ele>
        <time>2022-08-07T08:33:55.000Z</time>
      </trkpt>
      <trkpt lat="48.62329" lon="-4.30211">
        <ele>24</ele>
        <time>2022-08-07T08:33:56.000Z</time>
      </trkpt>
      <trkpt lat="48.62329" lon="-4.30214">
        <ele>24.200000762939</ele>
        <time>2022-08-07T08:33:57.000Z</time>
      </trkpt>
      <trkpt lat="48.6233" lon="-4.30218">
        <ele>24.200000762939</ele>
        <time>2022-08-07T08:33:58.000Z</time>
      </trkpt>
      <trkpt lat="48.6233" lon="-4.30222">
        <ele>24.60000038147</ele>
        <time>2022-08-07T08:33:59.000Z</time>
      </trkpt>
      <trkpt lat="48.6233" lon="-4.30227">
        <ele>24.60000038147</ele>
        <time>2022-08-07T08:34:00.000Z</time>
      </trkpt>
      <trkpt lat="48.6233" lon="-4.30231">
        <ele>24.799999237061</ele>
        <time>2022-08-07T08:34:01.000Z</time>
      </trkpt>
      <trkpt lat="48.6233" lon="-4.30234">
        <ele>24.799999237061</ele>
        <time>2022-08-07T08:34:02.000Z</time>
      </trkpt>
      <trkpt lat="48.6233" lon="-4.30237">
        <ele>25</ele>
        <time>2022-08-07T08:34:03.000Z</time>
      </trkpt>
      <trkpt lat="48.62329" lon="-4.3024">
        <ele>25.200000762939</ele>
        <time>2022-08-07T08:34:04.000Z</time>
      </trkpt>
      <trkpt lat="48.62329" lon="-4.30245">
        <ele>25.200000762939</ele>
        <time>2022-08-07T08:34:05.000Z</time>
      </trkpt>
      <trkpt lat="48.62329" lon="-4.30247">
        <ele>25.200000762939</ele>
        <time>2022-08-07T08:34:06.000Z</time>
      </trkpt>
      <trkpt lat="48.62329" lon="-4.30251">
        <ele>25.39999961853</ele>
        <time>2022-08-07T08:34:07.000Z</time>
      </trkpt>
      <trkpt lat="48.62328" lon="-4.30255">
        <ele>25.799999237061</ele>
        <time>2022-08-07T08:34:08.000Z</time>
      </trkpt>
      <trkpt lat="48.62328" lon="-4.30259">
        <ele>26</ele>
        <time>2022-08-07T08:34:09.000Z</time>
      </trkpt>
      <trkpt lat="48.62328" lon="-4.30263">
        <ele>26.200000762939</ele>
        <time>2022-08-07T08:34:10.000Z</time>
      </trkpt>
      <trkpt lat="48.62328" lon="-4.30266">
        <ele>26.39999961853</ele>
        <time>2022-08-07T08:34:11.000Z</time>
      </trkpt>
      <trkpt lat="48.62327" lon="-4.30269">
        <ele>26.60000038147</ele>
        <time>2022-08-07T08:34:12.000Z</time>
      </trkpt>
      <trkpt lat="48.62327" lon="-4.30272">
        <ele>26.799999237061</ele>
        <time>2022-08-07T08:34:13.000Z</time>
      </trkpt>
      <trkpt lat="48.62327" lon="-4.30275">
        <ele>27.200000762939</ele>
        <time>2022-08-07T08:34:14.000Z</time>
      </trkpt>
      <trkpt lat="48.62326" lon="-4.30278">
        <ele>27.200000762939</ele>
        <time>2022-08-07T08:34:15.000Z</time>
      </trkpt>
      <trkpt lat="48.62325" lon="-4.30281">
        <ele>27.60000038147</ele>
        <time>2022-08-07T08:34:16.000Z</time>
      </trkpt>
      <trkpt lat="48.62325" lon="-4.30284">
        <ele>28</ele>
        <time>2022-08-07T08:34:17.000Z</time>
      </trkpt>
      <trkpt lat="48.62325" lon="-4.30287">
        <ele>28.200000762939</ele>
        <time>2022-08-07T08:34:18.000Z</time>
      </trkpt>
      <trkpt lat="48.62325" lon="-4.30291">
        <ele>29</ele>
        <time>2022-08-07T08:34:19.000Z</time>
      </trkpt>
      <trkpt lat="48.62325" lon="-4.30293">
        <ele>29.200000762939</ele>
        <time>2022-08-07T08:34:20.000Z</time>
      </trkpt>
      <trkpt lat="48.62324" lon="-4.30296">
        <ele>29.39999961853</ele>
        <time>2022-08-07T08:34:21.000Z</time>
      </trkpt>
      <trkpt lat="48.62324" lon="-4.30299">
        <ele>29.60000038147</ele>
        <time>2022-08-07T08:34:22.000Z</time>
      </trkpt>
      <trkpt lat="48.62323" lon="-4.30303">
        <ele>29.799999237061</ele>
        <time>2022-08-07T08:34:23.000Z</time>
      </trkpt>
      <trkpt lat="48.62322" lon="-4.30306">
        <ele>30</ele>
        <time>2022-08-07T08:34:24.000Z</time>
      </trkpt>
      <trkpt lat="48.62322" lon="-4.30309">
        <ele>30.60000038147</ele>
        <time>2022-08-07T08:34:25.000Z</time>
      </trkpt>
      <trkpt lat="48.62321" lon="-4.30312">
        <ele>30.799999237061</ele>
        <time>2022-08-07T08:34:26.000Z</time>
      </trkpt>
      <trkpt lat="48.6232" lon="-4.30315">
        <ele>31</ele>
        <time>2022-08-07T08:34:27.000Z</time>
      </trkpt>
      <trkpt lat="48.6232" lon="-4.30318">
        <ele>31.39999961853</ele>
        <time>2022-08-07T08:34:28.000Z</time>
      </trkpt>
      <trkpt lat="48.62319" lon="-4.30321">
        <ele>31.39999961853</ele>
        <time>2022-08-07T08:34:29.000Z</time>
      </trkpt>
      <trkpt lat="48.62318" lon="-4.30325">
        <ele>31.60000038147</ele>
        <time>2022-08-07T08:34:30.000Z</time>
      </trkpt>
      <trkpt lat="48.62318" lon="-4.30328">
        <ele>31.799999237061</ele>
        <time>2022-08-07T08:34:31.000Z</time>
      </trkpt>
      <trkpt lat="48.62317" lon="-4.30331">
        <ele>31.799999237061</ele>
        <time>2022-08-07T08:34:32.000Z</time>
      </trkpt>
      <trkpt lat="48.62316" lon="-4.30333">
        <ele>32</ele>
        <time>2022-08-07T08:34:33.000Z</time>
      </trkpt>
      <trkpt lat="48.62316" lon="-4.30336">
        <ele>32.400001525879</ele>
        <time>2022-08-07T08:34:34.000Z</time>
      </trkpt>
      <trkpt lat="48.62316" lon="-4.30339">
        <ele>32.400001525879</ele>
        <time>2022-08-07T08:34:35.000Z</time>
      </trkpt>
      <trkpt lat="48.62315" lon="-4.30342">
        <ele>32.799999237061</ele>
        <time>2022-08-07T08:34:36.000Z</time>
      </trkpt>
      <trkpt lat="48.62315" lon="-4.30345">
        <ele>33</ele>
        <time>2022-08-07T08:34:37.000Z</time>
      </trkpt>
      <trkpt lat="48.62314" lon="-4.30349">
        <ele>33.200000762939</ele>
        <time>2022-08-07T08:34:38.000Z</time>
      </trkpt>
      <trkpt lat="48.62314" lon="-4.30352">
        <ele>33.400001525879</ele>
        <time>2022-08-07T08:34:39.000Z</time>
      </trkpt>
      <trkpt lat="48.62313" lon="-4.30355">
        <ele>33.599998474121</ele>
        <time>2022-08-07T08:34:40.000Z</time>
      </trkpt>
      <trkpt lat="48.62313" lon="-4.30358">
        <ele>33.799999237061</ele>
        <time>2022-08-07T08:34:41.000Z</time>
      </trkpt>
      <trkpt lat="48.62313" lon="-4.30361">
        <ele>34</ele>
        <time>2022-08-07T08:34:42.000Z</time>
      </trkpt>
      <trkpt lat="48.62312" lon="-4.30364">
        <ele>34</ele>
        <time>2022-08-07T08:34:43.000Z</time>
      </trkpt>
      <trkpt lat="48.62312" lon="-4.30367">
        <ele>34.200000762939</ele>
        <time>2022-08-07T08:34:44.000Z</time>
      </trkpt>
      <trkpt lat="48.62311" lon="-4.3037">
        <ele>34.400001525879</ele>
        <time>2022-08-07T08:34:45.000Z</time>
      </trkpt>
      <trkpt lat="48.6231" lon="-4.30373">
        <ele>34.599998474121</ele>
        <time>2022-08-07T08:34:46.000Z</time>
      </trkpt>
      <trkpt lat="48.62309" lon="-4.30377">
        <ele>34.599998474121</ele>
        <time>2022-08-07T08:34:47.000Z</time>
      </trkpt>
      <trkpt lat="48.62309" lon="-4.3038">
        <ele>35</ele>
        <time>2022-08-07T08:34:48.000Z</time>
      </trkpt>
      <trkpt lat="48.62308" lon="-4.30383">
        <ele>35.200000762939</ele>
        <time>2022-08-07T08:34:49.000Z</time>
      </trkpt>
      <trkpt lat="48.62307" lon="-4.30387">
        <ele>35.599998474121</ele>
        <time>2022-08-07T08:34:50.000Z</time>
      </trkpt>
      <trkpt lat="48.62307" lon="-4.30391">
        <ele>35.799999237061</ele>
        <time>2022-08-07T08:34:51.000Z</time>
      </trkpt>
      <trkpt lat="48.62306" lon="-4.30395">
        <ele>36</ele>
        <time>2022-08-07T08:34:52.000Z</time>
      </trkpt>
      <trkpt lat="48.62305" lon="-4.30399">
        <ele>36</ele>
        <time>2022-08-07T08:34:53.000Z</time>
      </trkpt>
      <trkpt lat="48.62304" lon="-4.30403">
        <ele>36.200000762939</ele>
        <time>2022-08-07T08:34:54.000Z</time>
      </trkpt>
      <trkpt lat="48.62303" lon="-4.30408">
        <ele>36.400001525879</ele>
        <time>2022-08-07T08:34:55.000Z</time>
      </trkpt>
      <trkpt lat="48.62302" lon="-4.30412">
        <ele>36.599998474121</ele>
        <time>2022-08-07T08:34:56.000Z</time>
      </trkpt>
      <trkpt lat="48.62301" lon="-4.30416">
        <ele>37</ele>
        <time>2022-08-07T08:34:57.000Z</time>
      </trkpt>
      <trkpt lat="48.62301" lon="-4.3042">
        <ele>37</ele>
        <time>2022-08-07T08:34:58.000Z</time>
      </trkpt>
      <trkpt lat="48.623" lon="-4.30423">
        <ele>37.400001525879</ele>
        <time>2022-08-07T08:34:59.000Z</time>
      </trkpt>
      <trkpt lat="48.62299" lon="-4.30427">
        <ele>37.400001525879</ele>
        <time>2022-08-07T08:35:00.000Z</time>
      </trkpt>
      <trkpt lat="48.62299" lon="-4.30431">
        <ele>37.799999237061</ele>
        <time>2022-08-07T08:35:01.000Z</time>
      </trkpt>
      <trkpt lat="48.62298" lon="-4.30435">
        <ele>38</ele>
        <time>2022-08-07T08:35:02.000Z</time>
      </trkpt>
      <trkpt lat="48.62297" lon="-4.30439">
        <ele>38.200000762939</ele>
        <time>2022-08-07T08:35:03.000Z</time>
      </trkpt>
      <trkpt lat="48.62296" lon="-4.30444">
        <ele>38.400001525879</ele>
        <time>2022-08-07T08:35:04.000Z</time>
      </trkpt>
      <trkpt lat="48.62296" lon="-4.30448">
        <ele>38.400001525879</ele>
        <time>2022-08-07T08:35:05.000Z</time>
      </trkpt>
      <trkpt lat="48.62295" lon="-4.30452">
        <ele>38.599998474121</ele>
        <time>2022-08-07T08:35:06.000Z</time>
      </trkpt>
      <trkpt lat="48.62294" lon="-4.30456">
        <ele>38.799999237061</ele>
        <time>2022-08-07T08:35:07.000Z</time>
      </trkpt>
      <trkpt lat="48.62293" lon="-4.3046">
        <ele>39</ele>
        <time>2022-08-07T08:35:08.000Z</time>
      </trkpt>
      <trkpt lat="48.62292" lon="-4.30465">
        <ele>39</ele>
        <time>2022-08-07T08:35:09.000Z</time>
      </trkpt>
      <trkpt lat="48.62292" lon="-4.30469">
        <ele>39.200000762939</ele>
        <time>2022-08-07T08:35:10.000Z</time>
      </trkpt>
      <trkpt lat="48.62292" lon="-4.30473">
        <ele>39.200000762939</ele>
        <time>2022-08-07T08:35:11.000Z</time>
      </trkpt>
      <trkpt lat="48.62291" lon="-4.30477">
        <ele>39.400001525879</ele>
        <time>2022-08-07T08:35:12.000Z</time>
      </trkpt>
      <trkpt lat="48.62291" lon="-4.30481">
        <ele>39.599998474121</ele>
        <time>2022-08-07T08:35:13.000Z</time>
      </trkpt>
      <trkpt lat="48.62291" lon="-4.30485">
        <ele>40</ele>
        <time>2022-08-07T08:35:14.000Z</time>
      </trkpt>
      <trkpt lat="48.62291" lon="-4.30489">
        <ele>40.200000762939</ele>
        <time>2022-08-07T08:35:15.000Z</time>
      </trkpt>
      <trkpt lat="48.62291" lon="-4.30493">
        <ele>40.200000762939</ele>
        <time>2022-08-07T08:35:16.000Z</time>
      </trkpt>
      <trkpt lat="48.6229" lon="-4.30497">
        <ele>40.400001525879</ele>
        <time>2022-08-07T08:35:17.000Z</time>
      </trkpt>
      <trkpt lat="48.6229" lon="-4.30502">
        <ele>40.599998474121</ele>
        <time>2022-08-07T08:35:18.000Z</time>
      </trkpt>
      <trkpt lat="48.62289" lon="-4.30506">
        <ele>40.799999237061</ele>
        <time>2022-08-07T08:35:19.000Z</time>
      </trkpt>
      <trkpt lat="48.62289" lon="-4.3051">
        <ele>40.799999237061</ele>
        <time>2022-08-07T08:35:20.000Z</time>
      </trkpt>
      <trkpt lat="48.62288" lon="-4.30514">
        <ele>41.200000762939</ele>
        <time>2022-08-07T08:35:21.000Z</time>
      </trkpt>
      <trkpt lat="48.62287" lon="-4.30518">
        <ele>41.400001525879</ele>
        <time>2022-08-07T08:35:22.000Z</time>
      </trkpt>
      <trkpt lat="48.62287" lon="-4.30522">
        <ele>41.599998474121</ele>
        <time>2022-08-07T08:35:23.000Z</time>
      </trkpt>
      <trkpt lat="48.62287" lon="-4.30526">
        <ele>41.799999237061</ele>
        <time>2022-08-07T08:35:24.000Z</time>
      </trkpt>
      <trkpt lat="48.62286" lon="-4.3053">
        <ele>42</ele>
        <time>2022-08-07T08:35:25.000Z</time>
      </trkpt>
      <trkpt lat="48.62285" lon="-4.30534">
        <ele>42.200000762939</ele>
        <time>2022-08-07T08:35:26.000Z</time>
      </trkpt>
      <trkpt lat="48.62284" lon="-4.30539">
        <ele>42.200000762939</ele>
        <time>2022-08-07T08:35:27.000Z</time>
      </trkpt>
      <trkpt lat="48.62284" lon="-4.30543">
        <ele>42.400001525879</ele>
        <time>2022-08-07T08:35:28.000Z</time>
      </trkpt>
      <trkpt lat="48.62283" lon="-4.30548">
        <ele>42.400001525879</ele>
        <time>2022-08-07T08:35:29.000Z</time>
      </trkpt>
      <trkpt lat="48.62282" lon="-4.30553">
        <ele>42.599998474121</ele>
        <time>2022-08-07T08:35:30.000Z</time>
      </trkpt>
      <trkpt lat="48.62282" lon="-4.30558">
        <ele>42.599998474121</ele>
        <time>2022-08-07T08:35:31.000Z</time>
      </trkpt>
      <trkpt lat="48.62281" lon="-4.30564">
        <ele>42.799999237061</ele>
        <time>2022-08-07T08:35:32.000Z</time>
      </trkpt>
      <trkpt lat="48.62281" lon="-4.3057">
        <ele>43</ele>
        <time>2022-08-07T08:35:33.000Z</time>
      </trkpt>
      <trkpt lat="48.6228" lon="-4.30575">
        <ele>43.200000762939</ele>
        <time>2022-08-07T08:35:34.000Z</time>
      </trkpt>
      <trkpt lat="48.6228" lon="-4.30579">
        <ele>43.400001525879</ele>
        <time>2022-08-07T08:35:35.000Z</time>
      </trkpt>
      <trkpt lat="48.6228" lon="-4.30583">
        <ele>43.400001525879</ele>
        <time>2022-08-07T08:35:36.000Z</time>
      </trkpt>
      <trkpt lat="48.6228" lon="-4.30586">
        <ele>43.599998474121</ele>
        <time>2022-08-07T08:35:37.000Z</time>
      </trkpt>
      <trkpt lat="48.6228" lon="-4.3059">
        <ele>43.799999237061</ele>
        <time>2022-08-07T08:35:38.000Z</time>
      </trkpt>
      <trkpt lat="48.6228" lon="-4.30594">
        <ele>43.799999237061</ele>
        <time>2022-08-07T08:35:39.000Z</time>
      </trkpt>
      <trkpt lat="48.62279" lon="-4.30598">
        <ele>44</ele>
        <time>2022-08-07T08:35:40.000Z</time>
      </trkpt>
      <trkpt lat="48.62279" lon="-4.30603">
        <ele>44</ele>
        <time>2022-08-07T08:35:41.000Z</time>
      </trkpt>
      <trkpt lat="48.62279" lon="-4.30606">
        <ele>44.200000762939</ele>
        <time>2022-08-07T08:35:42.000Z</time>
      </trkpt>
      <trkpt lat="48.62279" lon="-4.3061">
        <ele>44.200000762939</ele>
        <time>2022-08-07T08:35:43.000Z</time>
      </trkpt>
      <trkpt lat="48.6228" lon="-4.30614">
        <ele>44.200000762939</ele>
        <time>2022-08-07T08:35:44.000Z</time>
      </trkpt>
      <trkpt lat="48.62281" lon="-4.30617">
        <ele>44.400001525879</ele>
        <time>2022-08-07T08:35:45.000Z</time>
      </trkpt>
      <trkpt lat="48.62283" lon="-4.3062">
        <ele>44.400001525879</ele>
        <time>2022-08-07T08:35:46.000Z</time>
      </trkpt>
      <trkpt lat="48.62286" lon="-4.30621">
        <ele>44.400001525879</ele>
        <time>2022-08-07T08:35:47.000Z</time>
      </trkpt>
      <trkpt lat="48.6229" lon="-4.30621">
        <ele>44.400001525879</ele>
        <time>2022-08-07T08:35:48.000Z</time>
      </trkpt>
      <trkpt lat="48.62295" lon="-4.30621">
        <ele>44.400001525879</ele>
        <time>2022-08-07T08:35:49.000Z</time>
      </trkpt>
      <trkpt lat="48.62298" lon="-4.30621">
        <ele>44.400001525879</ele>
        <time>2022-08-07T08:35:50.000Z</time>
      </trkpt>
      <trkpt lat="48.62303" lon="-4.30622">
        <ele>44.400001525879</ele>
        <time>2022-08-07T08:35:51.000Z</time>
      </trkpt>
      <trkpt lat="48.62308" lon="-4.30623">
        <ele>44.200000762939</ele>
        <time>2022-08-07T08:35:52.000Z</time>
      </trkpt>
      <trkpt lat="48.62313" lon="-4.30623">
        <ele>44.200000762939</ele>
        <time>2022-08-07T08:35:53.000Z</time>
      </trkpt>
      <trkpt lat="48.62318" lon="-4.30623">
        <ele>44.200000762939</ele>
        <time>2022-08-07T08:35:54.000Z</time>
      </trkpt>
      <trkpt lat="48.62329" lon="-4.30621">
        <ele>44.200000762939</ele>
        <time>2022-08-07T08:35:56.000Z</time>
      </trkpt>
      <trkpt lat="48.62334" lon="-4.3062">
        <ele>43.799999237061</ele>
        <time>2022-08-07T08:35:57.000Z</time>
      </trkpt>
      <trkpt lat="48.6234" lon="-4.30618">
        <ele>43.799999237061</ele>
        <time>2022-08-07T08:35:58.000Z</time>
      </trkpt>
      <trkpt lat="48.62345" lon="-4.30615">
        <ele>43.400001525879</ele>
        <time>2022-08-07T08:35:59.000Z</time>
      </trkpt>
      <trkpt lat="48.6235" lon="-4.30612">
        <ele>43.200000762939</ele>
        <time>2022-08-07T08:36:00.000Z</time>
      </trkpt>
      <trkpt lat="48.62355" lon="-4.30609">
        <ele>43.200000762939</ele>
        <time>2022-08-07T08:36:01.000Z</time>
      </trkpt>
      <trkpt lat="48.6236" lon="-4.30606">
        <ele>43</ele>
        <time>2022-08-07T08:36:02.000Z</time>
      </trkpt>
      <trkpt lat="48.62365" lon="-4.30602">
        <ele>43</ele>
        <time>2022-08-07T08:36:03.000Z</time>
      </trkpt>
      <trkpt lat="48.62371" lon="-4.30599">
        <ele>42.599998474121</ele>
        <time>2022-08-07T08:36:04.000Z</time>
      </trkpt>
      <trkpt lat="48.62376" lon="-4.30596">
        <ele>42.400001525879</ele>
        <time>2022-08-07T08:36:05.000Z</time>
      </trkpt>
      <trkpt lat="48.62381" lon="-4.30593">
        <ele>42</ele>
        <time>2022-08-07T08:36:06.000Z</time>
      </trkpt>
      <trkpt lat="48.62387" lon="-4.3059">
        <ele>41.799999237061</ele>
        <time>2022-08-07T08:36:07.000Z</time>
      </trkpt>
      <trkpt lat="48.62393" lon="-4.30589">
        <ele>41.400001525879</ele>
        <time>2022-08-07T08:36:08.000Z</time>
      </trkpt>
      <trkpt lat="48.62398" lon="-4.30587">
        <ele>41.200000762939</ele>
        <time>2022-08-07T08:36:09.000Z</time>
      </trkpt>
      <trkpt lat="48.62404" lon="-4.30586">
        <ele>41.200000762939</ele>
        <time>2022-08-07T08:36:10.000Z</time>
      </trkpt>
      <trkpt lat="48.62411" lon="-4.30584">
        <ele>40.599998474121</ele>
        <time>2022-08-07T08:36:11.000Z</time>
      </trkpt>
      <trkpt lat="48.62417" lon="-4.30583">
        <ele>40.400001525879</ele>
        <time>2022-08-07T08:36:12.000Z</time>
      </trkpt>
      <trkpt lat="48.62422" lon="-4.30582">
        <ele>39.799999237061</ele>
        <time>2022-08-07T08:36:13.000Z</time>
      </trkpt>
      <trkpt lat="48.62428" lon="-4.3058">
        <ele>39.599998474121</ele>
        <time>2022-08-07T08:36:14.000Z</time>
      </trkpt>
      <trkpt lat="48.62433" lon="-4.30577">
        <ele>39.200000762939</ele>
        <time>2022-08-07T08:36:15.000Z</time>
      </trkpt>
      <trkpt lat="48.62439" lon="-4.30573">
        <ele>39</ele>
        <time>2022-08-07T08:36:16.000Z</time>
      </trkpt>
      <trkpt lat="48.62444" lon="-4.30569">
        <ele>38.400001525879</ele>
        <time>2022-08-07T08:36:17.000Z</time>
      </trkpt>
      <trkpt lat="48.62449" lon="-4.30564">
        <ele>37.799999237061</ele>
        <time>2022-08-07T08:36:18.000Z</time>
      </trkpt>
      <trkpt lat="48.62453" lon="-4.30559">
        <ele>37.400001525879</ele>
        <time>2022-08-07T08:36:19.000Z</time>
      </trkpt>
      <trkpt lat="48.62457" lon="-4.30553">
        <ele>36.799999237061</ele>
        <time>2022-08-07T08:36:20.000Z</time>
      </trkpt>
      <trkpt lat="48.6246" lon="-4.30547">
        <ele>36.400001525879</ele>
        <time>2022-08-07T08:36:21.000Z</time>
      </trkpt>
      <trkpt lat="48.62463" lon="-4.30542">
        <ele>35.799999237061</ele>
        <time>2022-08-07T08:36:22.000Z</time>
      </trkpt>
      <trkpt lat="48.62466" lon="-4.30536">
        <ele>35.599998474121</ele>
        <time>2022-08-07T08:36:23.000Z</time>
      </trkpt>
      <trkpt lat="48.62469" lon="-4.3053">
        <ele>34.799999237061</ele>
        <time>2022-08-07T08:36:24.000Z</time>
      </trkpt>
      <trkpt lat="48.62472" lon="-4.30525">
        <ele>34.400001525879</ele>
        <time>2022-08-07T08:36:25.000Z</time>
      </trkpt>
      <trkpt lat="48.62474" lon="-4.30521">
        <ele>33.799999237061</ele>
        <time>2022-08-07T08:36:26.000Z</time>
      </trkpt>
      <trkpt lat="48.62476" lon="-4.30519">
        <ele>33.400001525879</ele>
        <time>2022-08-07T08:36:27.000Z</time>
      </trkpt>
      <trkpt lat="48.62477" lon="-4.30517">
        <ele>32.799999237061</ele>
        <time>2022-08-07T08:36:28.000Z</time>
      </trkpt>
      <trkpt lat="48.62479" lon="-4.30515">
        <ele>32.200000762939</ele>
        <time>2022-08-07T08:36:29.000Z</time>
      </trkpt>
      <trkpt lat="48.6248" lon="-4.30513">
        <ele>31.799999237061</ele>
        <time>2022-08-07T08:36:30.000Z</time>
      </trkpt>
      <trkpt lat="48.62482" lon="-4.30512">
        <ele>31.200000762939</ele>
        <time>2022-08-07T08:36:31.000Z</time>
      </trkpt>
      <trkpt lat="48.62485" lon="-4.30512">
        <ele>31</ele>
        <time>2022-08-07T08:36:32.000Z</time>
      </trkpt>
      <trkpt lat="48.62487" lon="-4.30513">
        <ele>30.799999237061</ele>
        <time>2022-08-07T08:36:33.000Z</time>
      </trkpt>
      <trkpt lat="48.62489" lon="-4.30514">
        <ele>30.60000038147</ele>
        <time>2022-08-07T08:36:34.000Z</time>
      </trkpt>
      <trkpt lat="48.62491" lon="-4.30515">
        <ele>30.60000038147</ele>
        <time>2022-08-07T08:36:35.000Z</time>
      </trkpt>
      <trkpt lat="48.62493" lon="-4.30516">
        <ele>30.60000038147</ele>
        <time>2022-08-07T08:36:36.000Z</time>
      </trkpt>
      <trkpt lat="48.62495" lon="-4.30517">
        <ele>30.39999961853</ele>
        <time>2022-08-07T08:36:37.000Z</time>
      </trkpt>
      <trkpt lat="48.62496" lon="-4.30519">
        <ele>30.39999961853</ele>
        <time>2022-08-07T08:36:38.000Z</time>
      </trkpt>
      <trkpt lat="48.62498" lon="-4.3052">
        <ele>30.39999961853</ele>
        <time>2022-08-07T08:36:39.000Z</time>
      </trkpt>
      <trkpt lat="48.62499" lon="-4.30521">
        <ele>30.60000038147</ele>
        <time>2022-08-07T08:36:40.000Z</time>
      </trkpt>
      <trkpt lat="48.625" lon="-4.30522">
        <ele>30.60000038147</ele>
        <time>2022-08-07T08:36:41.000Z</time>
      </trkpt>
      <trkpt lat="48.62502" lon="-4.30523">
        <ele>30.799999237061</ele>
        <time>2022-08-07T08:36:42.000Z</time>
      </trkpt>
      <trkpt lat="48.62503" lon="-4.30523">
        <ele>30.799999237061</ele>
        <time>2022-08-07T08:36:43.000Z</time>
      </trkpt>
      <trkpt lat="48.62504" lon="-4.30524">
        <ele>31.39999961853</ele>
        <time>2022-08-07T08:36:44.000Z</time>
      </trkpt>
      <trkpt lat="48.62505" lon="-4.30524">
        <ele>31.60000038147</ele>
        <time>2022-08-07T08:36:45.000Z</time>
      </trkpt>
      <trkpt lat="48.62506" lon="-4.30525">
        <ele>32.200000762939</ele>
        <time>2022-08-07T08:36:46.000Z</time>
      </trkpt>
      <trkpt lat="48.62507" lon="-4.30527">
        <ele>33.200000762939</ele>
        <time>2022-08-07T08:36:47.000Z</time>
      </trkpt>
      <trkpt lat="48.62508" lon="-4.30528">
        <ele>33.599998474121</ele>
        <time>2022-08-07T08:36:48.000Z</time>
      </trkpt>
      <trkpt lat="48.62509" lon="-4.30529">
        <ele>34</ele>
        <time>2022-08-07T08:36:49.000Z</time>
      </trkpt>
      <trkpt lat="48.6251" lon="-4.3053">
        <ele>34.200000762939</ele>
        <time>2022-08-07T08:36:50.000Z</time>
      </trkpt>
      <trkpt lat="48.62511" lon="-4.30531">
        <ele>34.599998474121</ele>
        <time>2022-08-07T08:36:51.000Z</time>
      </trkpt>
      <trkpt lat="48.62512" lon="-4.30532">
        <ele>35.200000762939</ele>
        <time>2022-08-07T08:36:52.000Z</time>
      </trkpt>
      <trkpt lat="48.62513" lon="-4.30533">
        <ele>35.799999237061</ele>
        <time>2022-08-07T08:36:53.000Z</time>
      </trkpt>
      <trkpt lat="48.62514" lon="-4.30533">
        <ele>36</ele>
        <time>2022-08-07T08:36:54.000Z</time>
      </trkpt>
      <trkpt lat="48.62515" lon="-4.30532">
        <ele>36.400001525879</ele>
        <time>2022-08-07T08:36:55.000Z</time>
      </trkpt>
      <trkpt lat="48.62516" lon="-4.30533">
        <ele>36.599998474121</ele>
        <time>2022-08-07T08:36:56.000Z</time>
      </trkpt>
      <trkpt lat="48.62518" lon="-4.30534">
        <ele>36.799999237061</ele>
        <time>2022-08-07T08:36:57.000Z</time>
      </trkpt>
      <trkpt lat="48.62519" lon="-4.30536">
        <ele>37.400001525879</ele>
        <time>2022-08-07T08:36:58.000Z</time>
      </trkpt>
      <trkpt lat="48.6252" lon="-4.30539">
        <ele>37.799999237061</ele>
        <time>2022-08-07T08:36:59.000Z</time>
      </trkpt>
      <trkpt lat="48.62521" lon="-4.3054">
        <ele>38.599998474121</ele>
        <time>2022-08-07T08:37:00.000Z</time>
      </trkpt>
      <trkpt lat="48.62522" lon="-4.3054">
        <ele>38.799999237061</ele>
        <time>2022-08-07T08:37:01.000Z</time>
      </trkpt>
      <trkpt lat="48.62523" lon="-4.30541">
        <ele>39</ele>
        <time>2022-08-07T08:37:02.000Z</time>
      </trkpt>
      <trkpt lat="48.62524" lon="-4.30542">
        <ele>39</ele>
        <time>2022-08-07T08:37:03.000Z</time>
      </trkpt>
      <trkpt lat="48.62526" lon="-4.30544">
        <ele>39.200000762939</ele>
        <time>2022-08-07T08:37:04.000Z</time>
      </trkpt>
      <trkpt lat="48.62527" lon="-4.30546">
        <ele>39.400001525879</ele>
        <time>2022-08-07T08:37:05.000Z</time>
      </trkpt>
      <trkpt lat="48.62529" lon="-4.30548">
        <ele>39.400001525879</ele>
        <time>2022-08-07T08:37:06.000Z</time>
      </trkpt>
      <trkpt lat="48.6253" lon="-4.3055">
        <ele>39.599998474121</ele>
        <time>2022-08-07T08:37:07.000Z</time>
      </trkpt>
      <trkpt lat="48.62531" lon="-4.30552">
        <ele>39.599998474121</ele>
        <time>2022-08-07T08:37:08.000Z</time>
      </trkpt>
      <trkpt lat="48.62532" lon="-4.30554">
        <ele>39.799999237061</ele>
        <time>2022-08-07T08:37:09.000Z</time>
      </trkpt>
      <trkpt lat="48.62534" lon="-4.30555">
        <ele>39.799999237061</ele>
        <time>2022-08-07T08:37:10.000Z</time>
      </trkpt>
      <trkpt lat="48.62536" lon="-4.30557">
        <ele>40</ele>
        <time>2022-08-07T08:37:11.000Z</time>
      </trkpt>
      <trkpt lat="48.62537" lon="-4.30559">
        <ele>40.200000762939</ele>
        <time>2022-08-07T08:37:12.000Z</time>
      </trkpt>
      <trkpt lat="48.62538" lon="-4.30561">
        <ele>40.400001525879</ele>
        <time>2022-08-07T08:37:13.000Z</time>
      </trkpt>
      <trkpt lat="48.62539" lon="-4.30562">
        <ele>40.599998474121</ele>
        <time>2022-08-07T08:37:14.000Z</time>
      </trkpt>
      <trkpt lat="48.6254" lon="-4.30564">
        <ele>40.799999237061</ele>
        <time>2022-08-07T08:37:15.000Z</time>
      </trkpt>
      <trkpt lat="48.62541" lon="-4.30566">
        <ele>41</ele>
        <time>2022-08-07T08:37:17.000Z</time>
      </trkpt>
      <trkpt lat="48.62542" lon="-4.30566">
        <ele>41</ele>
        <time>2022-08-07T08:37:18.000Z</time>
      </trkpt>
      <trkpt lat="48.62542" lon="-4.30567">
        <ele>41</ele>
        <time>2022-08-07T08:37:19.000Z</time>
      </trkpt>
      <trkpt lat="48.62544" lon="-4.30569">
        <ele>41.200000762939</ele>
        <time>2022-08-07T08:38:05.000Z</time>
      </trkpt>
      <trkpt lat="48.62546" lon="-4.30573">
        <ele>41.200000762939</ele>
        <time>2022-08-07T08:38:06.000Z</time>
      </trkpt>
      <trkpt lat="48.62549" lon="-4.30575">
        <ele>41.200000762939</ele>
        <time>2022-08-07T08:38:07.000Z</time>
      </trkpt>
      <trkpt lat="48.62553" lon="-4.30577">
        <ele>41</ele>
        <time>2022-08-07T08:38:08.000Z</time>
      </trkpt>
      <trkpt lat="48.62556" lon="-4.30575">
        <ele>41</ele>
        <time>2022-08-07T08:38:09.000Z</time>
      </trkpt>
      <trkpt lat="48.62559" lon="-4.30571">
        <ele>40.799999237061</ele>
        <time>2022-08-07T08:38:10.000Z</time>
      </trkpt>
      <trkpt lat="48.62562" lon="-4.30567">
        <ele>40.799999237061</ele>
        <time>2022-08-07T08:38:11.000Z</time>
      </trkpt>
      <trkpt lat="48.62565" lon="-4.30562">
        <ele>40.799999237061</ele>
        <time>2022-08-07T08:38:12.000Z</time>
      </trkpt>
      <trkpt lat="48.62568" lon="-4.30559">
        <ele>40.799999237061</ele>
        <time>2022-08-07T08:38:13.000Z</time>
      </trkpt>
      <trkpt lat="48.62571" lon="-4.30556">
        <ele>40.599998474121</ele>
        <time>2022-08-07T08:38:14.000Z</time>
      </trkpt>
      <trkpt lat="48.62573" lon="-4.30552">
        <ele>40.599998474121</ele>
        <time>2022-08-07T08:38:15.000Z</time>
      </trkpt>
      <trkpt lat="48.62576" lon="-4.30548">
        <ele>40.400001525879</ele>
        <time>2022-08-07T08:38:16.000Z</time>
      </trkpt>
      <trkpt lat="48.62579" lon="-4.30544">
        <ele>40.400001525879</ele>
        <time>2022-08-07T08:38:17.000Z</time>
      </trkpt>
      <trkpt lat="48.62582" lon="-4.30539">
        <ele>40.200000762939</ele>
        <time>2022-08-07T08:38:18.000Z</time>
      </trkpt>
      <trkpt lat="48.62586" lon="-4.30535">
        <ele>39.799999237061</ele>
        <time>2022-08-07T08:38:19.000Z</time>
      </trkpt>
      <trkpt lat="48.62589" lon="-4.3053">
        <ele>39.599998474121</ele>
        <time>2022-08-07T08:38:20.000Z</time>
      </trkpt>
      <trkpt lat="48.62592" lon="-4.30526">
        <ele>39.200000762939</ele>
        <time>2022-08-07T08:38:21.000Z</time>
      </trkpt>
      <trkpt lat="48.62595" lon="-4.3052">
        <ele>38.799999237061</ele>
        <time>2022-08-07T08:38:22.000Z</time>
      </trkpt>
      <trkpt lat="48.62597" lon="-4.30518">
        <ele>38.400001525879</ele>
        <time>2022-08-07T08:38:23.000Z</time>
      </trkpt>
      <trkpt lat="48.626" lon="-4.30515">
        <ele>38.200000762939</ele>
        <time>2022-08-07T08:38:24.000Z</time>
      </trkpt>
      <trkpt lat="48.62602" lon="-4.30513">
        <ele>37.799999237061</ele>
        <time>2022-08-07T08:38:25.000Z</time>
      </trkpt>
      <trkpt lat="48.62604" lon="-4.30512">
        <ele>37.599998474121</ele>
        <time>2022-08-07T08:38:26.000Z</time>
      </trkpt>
      <trkpt lat="48.62606" lon="-4.30511">
        <ele>37</ele>
        <time>2022-08-07T08:38:27.000Z</time>
      </trkpt>
      <trkpt lat="48.62608" lon="-4.30512">
        <ele>36.599998474121</ele>
        <time>2022-08-07T08:38:28.000Z</time>
      </trkpt>
      <trkpt lat="48.6261" lon="-4.30514">
        <ele>36.200000762939</ele>
        <time>2022-08-07T08:38:29.000Z</time>
      </trkpt>
      <trkpt lat="48.62613" lon="-4.30517">
        <ele>35.599998474121</ele>
        <time>2022-08-07T08:38:30.000Z</time>
      </trkpt>
      <trkpt lat="48.62616" lon="-4.30519">
        <ele>35.599998474121</ele>
        <time>2022-08-07T08:38:31.000Z</time>
      </trkpt>
      <trkpt lat="48.6262" lon="-4.30522">
        <ele>35</ele>
        <time>2022-08-07T08:38:32.000Z</time>
      </trkpt>
      <trkpt lat="48.62623" lon="-4.30525">
        <ele>35</ele>
        <time>2022-08-07T08:38:33.000Z</time>
      </trkpt>
      <trkpt lat="48.62626" lon="-4.30528">
        <ele>34.799999237061</ele>
        <time>2022-08-07T08:38:34.000Z</time>
      </trkpt>
      <trkpt lat="48.62629" lon="-4.30532">
        <ele>34.599998474121</ele>
        <time>2022-08-07T08:38:35.000Z</time>
      </trkpt>
      <trkpt lat="48.62632" lon="-4.30537">
        <ele>34.400001525879</ele>
        <time>2022-08-07T08:38:36.000Z</time>
      </trkpt>
      <trkpt lat="48.62634" lon="-4.30543">
        <ele>34.200000762939</ele>
        <time>2022-08-07T08:38:37.000Z</time>
      </trkpt>
      <trkpt lat="48.62636" lon="-4.30548">
        <ele>34</ele>
        <time>2022-08-07T08:38:38.000Z</time>
      </trkpt>
      <trkpt lat="48.62637" lon="-4.30555">
        <ele>33.799999237061</ele>
        <time>2022-08-07T08:38:39.000Z</time>
      </trkpt>
      <trkpt lat="48.62639" lon="-4.30561">
        <ele>33.599998474121</ele>
        <time>2022-08-07T08:38:40.000Z</time>
      </trkpt>
      <trkpt lat="48.62641" lon="-4.30567">
        <ele>33.200000762939</ele>
        <time>2022-08-07T08:38:41.000Z</time>
      </trkpt>
      <trkpt lat="48.62642" lon="-4.30574">
        <ele>32.799999237061</ele>
        <time>2022-08-07T08:38:42.000Z</time>
      </trkpt>
      <trkpt lat="48.62644" lon="-4.30581">
        <ele>32.400001525879</ele>
        <time>2022-08-07T08:38:43.000Z</time>
      </trkpt>
      <trkpt lat="48.62645" lon="-4.30587">
        <ele>32.200000762939</ele>
        <time>2022-08-07T08:38:44.000Z</time>
      </trkpt>
      <trkpt lat="48.62647" lon="-4.30594">
        <ele>32.200000762939</ele>
        <time>2022-08-07T08:38:45.000Z</time>
      </trkpt>
      <trkpt lat="48.62649" lon="-4.30599">
        <ele>32</ele>
        <time>2022-08-07T08:38:46.000Z</time>
      </trkpt>
      <trkpt lat="48.6265" lon="-4.30604">
        <ele>32</ele>
        <time>2022-08-07T08:38:47.000Z</time>
      </trkpt>
      <trkpt lat="48.62652" lon="-4.30609">
        <ele>31.799999237061</ele>
        <time>2022-08-07T08:38:48.000Z</time>
      </trkpt>
      <trkpt lat="48.62655" lon="-4.30615">
        <ele>31.60000038147</ele>
        <time>2022-08-07T08:38:49.000Z</time>
      </trkpt>
      <trkpt lat="48.62659" lon="-4.30623">
        <ele>30.39999961853</ele>
        <time>2022-08-07T08:38:50.000Z</time>
      </trkpt>
      <trkpt lat="48.62661" lon="-4.30628">
        <ele>30.200000762939</ele>
        <time>2022-08-07T08:38:51.000Z</time>
      </trkpt>
      <trkpt lat="48.62665" lon="-4.30635">
        <ele>29.60000038147</ele>
        <time>2022-08-07T08:38:52.000Z</time>
      </trkpt>
      <trkpt lat="48.62669" lon="-4.30642">
        <ele>29.200000762939</ele>
        <time>2022-08-07T08:38:53.000Z</time>
      </trkpt>
      <trkpt lat="48.62673" lon="-4.30649">
        <ele>29</ele>
        <time>2022-08-07T08:38:54.000Z</time>
      </trkpt>
      <trkpt lat="48.62678" lon="-4.30654">
        <ele>28.799999237061</ele>
        <time>2022-08-07T08:38:55.000Z</time>
      </trkpt>
      <trkpt lat="48.62683" lon="-4.3066">
        <ele>28.60000038147</ele>
        <time>2022-08-07T08:38:56.000Z</time>
      </trkpt>
      <trkpt lat="48.62688" lon="-4.30668">
        <ele>27.799999237061</ele>
        <time>2022-08-07T08:38:57.000Z</time>
      </trkpt>
      <trkpt lat="48.62692" lon="-4.30676">
        <ele>27.39999961853</ele>
        <time>2022-08-07T08:38:58.000Z</time>
      </trkpt>
      <trkpt lat="48.62696" lon="-4.30685">
        <ele>26.200000762939</ele>
        <time>2022-08-07T08:38:59.000Z</time>
      </trkpt>
      <trkpt lat="48.62699" lon="-4.30692">
        <ele>25.799999237061</ele>
        <time>2022-08-07T08:39:00.000Z</time>
      </trkpt>
      <trkpt lat="48.62701" lon="-4.30697">
        <ele>25</ele>
        <time>2022-08-07T08:39:01.000Z</time>
      </trkpt>
      <trkpt lat="48.62703" lon="-4.30701">
        <ele>24.60000038147</ele>
        <time>2022-08-07T08:39:02.000Z</time>
      </trkpt>
      <trkpt lat="48.62704" lon="-4.30705">
        <ele>24.60000038147</ele>
        <time>2022-08-07T08:39:03.000Z</time>
      </trkpt>
      <trkpt lat="48.62705" lon="-4.30709">
        <ele>24.39999961853</ele>
        <time>2022-08-07T08:39:04.000Z</time>
      </trkpt>
      <trkpt lat="48.62707" lon="-4.30712">
        <ele>24.200000762939</ele>
        <time>2022-08-07T08:39:05.000Z</time>
      </trkpt>
      <trkpt lat="48.62708" lon="-4.30715">
        <ele>24.200000762939</ele>
        <time>2022-08-07T08:39:06.000Z</time>
      </trkpt>
      <trkpt lat="48.62709" lon="-4.30718">
        <ele>24.39999961853</ele>
        <time>2022-08-07T08:39:07.000Z</time>
      </trkpt>
      <trkpt lat="48.62711" lon="-4.30722">
        <ele>24.60000038147</ele>
        <time>2022-08-07T08:39:08.000Z</time>
      </trkpt>
      <trkpt lat="48.62712" lon="-4.30727">
        <ele>24.60000038147</ele>
        <time>2022-08-07T08:39:09.000Z</time>
      </trkpt>
      <trkpt lat="48.62713" lon="-4.3073">
        <ele>24.799999237061</ele>
        <time>2022-08-07T08:39:10.000Z</time>
      </trkpt>
      <trkpt lat="48.62714" lon="-4.30734">
        <ele>25.200000762939</ele>
        <time>2022-08-07T08:39:11.000Z</time>
      </trkpt>
      <trkpt lat="48.62715" lon="-4.30739">
        <ele>25.200000762939</ele>
        <time>2022-08-07T08:39:12.000Z</time>
      </trkpt>
      <trkpt lat="48.62716" lon="-4.30742">
        <ele>25.39999961853</ele>
        <time>2022-08-07T08:39:13.000Z</time>
      </trkpt>
      <trkpt lat="48.62717" lon="-4.30747">
        <ele>25.39999961853</ele>
        <time>2022-08-07T08:39:14.000Z</time>
      </trkpt>
      <trkpt lat="48.62718" lon="-4.30752">
        <ele>25.60000038147</ele>
        <time>2022-08-07T08:39:15.000Z</time>
      </trkpt>
      <trkpt lat="48.6272" lon="-4.30757">
        <ele>25.60000038147</ele>
        <time>2022-08-07T08:39:16.000Z</time>
      </trkpt>
      <trkpt lat="48.6272" lon="-4.30761">
        <ele>25.799999237061</ele>
        <time>2022-08-07T08:39:17.000Z</time>
      </trkpt>
      <trkpt lat="48.62721" lon="-4.30766">
        <ele>25.799999237061</ele>
        <time>2022-08-07T08:39:18.000Z</time>
      </trkpt>
      <trkpt lat="48.62723" lon="-4.3077">
        <ele>25.799999237061</ele>
        <time>2022-08-07T08:39:19.000Z</time>
      </trkpt>
      <trkpt lat="48.62724" lon="-4.30774">
        <ele>25.799999237061</ele>
        <time>2022-08-07T08:39:20.000Z</time>
      </trkpt>
      <trkpt lat="48.62726" lon="-4.30778">
        <ele>25.799999237061</ele>
        <time>2022-08-07T08:39:21.000Z</time>
      </trkpt>
      <trkpt lat="48.62727" lon="-4.30782">
        <ele>25.799999237061</ele>
        <time>2022-08-07T08:39:22.000Z</time>
      </trkpt>
      <trkpt lat="48.62729" lon="-4.30787">
        <ele>25.799999237061</ele>
        <time>2022-08-07T08:39:23.000Z</time>
      </trkpt>
      <trkpt lat="48.6273" lon="-4.30791">
        <ele>25.60000038147</ele>
        <time>2022-08-07T08:39:24.000Z</time>
      </trkpt>
      <trkpt lat="48.6273" lon="-4.30796">
        <ele>25.60000038147</ele>
        <time>2022-08-07T08:39:25.000Z</time>
      </trkpt>
      <trkpt lat="48.6273" lon="-4.30802">
        <ele>25.60000038147</ele>
        <time>2022-08-07T08:39:26.000Z</time>
      </trkpt>
      <trkpt lat="48.6273" lon="-4.30807">
        <ele>25.60000038147</ele>
        <time>2022-08-07T08:39:27.000Z</time>
      </trkpt>
      <trkpt lat="48.6273" lon="-4.30813">
        <ele>25.39999961853</ele>
        <time>2022-08-07T08:39:28.000Z</time>
      </trkpt>
      <trkpt lat="48.6273" lon="-4.30819">
        <ele>25.39999961853</ele>
        <time>2022-08-07T08:39:29.000Z</time>
      </trkpt>
      <trkpt lat="48.6273" lon="-4.30825">
        <ele>25.200000762939</ele>
        <time>2022-08-07T08:39:30.000Z</time>
      </trkpt>
      <trkpt lat="48.62731" lon="-4.3083">
        <ele>25.200000762939</ele>
        <time>2022-08-07T08:39:31.000Z</time>
      </trkpt>
      <trkpt lat="48.62732" lon="-4.30836">
        <ele>25.200000762939</ele>
        <time>2022-08-07T08:39:32.000Z</time>
      </trkpt>
      <trkpt lat="48.62733" lon="-4.30842">
        <ele>25</ele>
        <time>2022-08-07T08:39:33.000Z</time>
      </trkpt>
      <trkpt lat="48.62734" lon="-4.30847">
        <ele>25</ele>
        <time>2022-08-07T08:39:34.000Z</time>
      </trkpt>
      <trkpt lat="48.62736" lon="-4.30852">
        <ele>25</ele>
        <time>2022-08-07T08:39:35.000Z</time>
      </trkpt>
      <trkpt lat="48.62737" lon="-4.30857">
        <ele>25</ele>
        <time>2022-08-07T08:39:36.000Z</time>
      </trkpt>
      <trkpt lat="48.62738" lon="-4.3086">
        <ele>25</ele>
        <time>2022-08-07T08:39:37.000Z</time>
      </trkpt>
      <trkpt lat="48.62739" lon="-4.30864">
        <ele>25.39999961853</ele>
        <time>2022-08-07T08:39:38.000Z</time>
      </trkpt>
      <trkpt lat="48.62739" lon="-4.30868">
        <ele>25.39999961853</ele>
        <time>2022-08-07T08:39:39.000Z</time>
      </trkpt>
      <trkpt lat="48.6274" lon="-4.30872">
        <ele>25.39999961853</ele>
        <time>2022-08-07T08:39:40.000Z</time>
      </trkpt>
      <trkpt lat="48.6274" lon="-4.30876">
        <ele>25.60000038147</ele>
        <time>2022-08-07T08:39:41.000Z</time>
      </trkpt>
      <trkpt lat="48.62742" lon="-4.30881">
        <ele>25.799999237061</ele>
        <time>2022-08-07T08:39:42.000Z</time>
      </trkpt>
      <trkpt lat="48.62743" lon="-4.30885">
        <ele>26</ele>
        <time>2022-08-07T08:39:43.000Z</time>
      </trkpt>
      <trkpt lat="48.62745" lon="-4.3089">
        <ele>25.799999237061</ele>
        <time>2022-08-07T08:39:44.000Z</time>
      </trkpt>
      <trkpt lat="48.62747" lon="-4.30894">
        <ele>25.799999237061</ele>
        <time>2022-08-07T08:39:45.000Z</time>
      </trkpt>
      <trkpt lat="48.62749" lon="-4.30897">
        <ele>26</ele>
        <time>2022-08-07T08:39:46.000Z</time>
      </trkpt>
      <trkpt lat="48.62751" lon="-4.30901">
        <ele>26.200000762939</ele>
        <time>2022-08-07T08:39:47.000Z</time>
      </trkpt>
      <trkpt lat="48.62752" lon="-4.30904">
        <ele>26.200000762939</ele>
        <time>2022-08-07T08:39:48.000Z</time>
      </trkpt>
      <trkpt lat="48.62754" lon="-4.30908">
        <ele>26.39999961853</ele>
        <time>2022-08-07T08:39:49.000Z</time>
      </trkpt>
      <trkpt lat="48.62756" lon="-4.30911">
        <ele>26.39999961853</ele>
        <time>2022-08-07T08:39:50.000Z</time>
      </trkpt>
      <trkpt lat="48.62758" lon="-4.30915">
        <ele>26.39999961853</ele>
        <time>2022-08-07T08:39:51.000Z</time>
      </trkpt>
      <trkpt lat="48.6276" lon="-4.30919">
        <ele>26.60000038147</ele>
        <time>2022-08-07T08:39:52.000Z</time>
      </trkpt>
      <trkpt lat="48.62762" lon="-4.30923">
        <ele>26.60000038147</ele>
        <time>2022-08-07T08:39:53.000Z</time>
      </trkpt>
      <trkpt lat="48.62763" lon="-4.30928">
        <ele>26.60000038147</ele>
        <time>2022-08-07T08:39:54.000Z</time>
      </trkpt>
      <trkpt lat="48.62764" lon="-4.30932">
        <ele>26.799999237061</ele>
        <time>2022-08-07T08:39:55.000Z</time>
      </trkpt>
      <trkpt lat="48.62766" lon="-4.30936">
        <ele>26.799999237061</ele>
        <time>2022-08-07T08:39:56.000Z</time>
      </trkpt>
      <trkpt lat="48.62767" lon="-4.30939">
        <ele>26.799999237061</ele>
        <time>2022-08-07T08:39:57.000Z</time>
      </trkpt>
      <trkpt lat="48.62769" lon="-4.30943">
        <ele>27.200000762939</ele>
        <time>2022-08-07T08:39:58.000Z</time>
      </trkpt>
      <trkpt lat="48.6277" lon="-4.30946">
        <ele>27.39999961853</ele>
        <time>2022-08-07T08:39:59.000Z</time>
      </trkpt>
      <trkpt lat="48.62771" lon="-4.3095">
        <ele>28</ele>
        <time>2022-08-07T08:40:00.000Z</time>
      </trkpt>
      <trkpt lat="48.62772" lon="-4.30955">
        <ele>28.200000762939</ele>
        <time>2022-08-07T08:40:01.000Z</time>
      </trkpt>
      <trkpt lat="48.62773" lon="-4.30959">
        <ele>28.39999961853</ele>
        <time>2022-08-07T08:40:02.000Z</time>
      </trkpt>
      <trkpt lat="48.62774" lon="-4.30963">
        <ele>28.60000038147</ele>
        <time>2022-08-07T08:40:03.000Z</time>
      </trkpt>
      <trkpt lat="48.62777" lon="-4.30967">
        <ele>28.60000038147</ele>
        <time>2022-08-07T08:40:04.000Z</time>
      </trkpt>
      <trkpt lat="48.62779" lon="-4.30971">
        <ele>28.799999237061</ele>
        <time>2022-08-07T08:40:05.000Z</time>
      </trkpt>
      <trkpt lat="48.62781" lon="-4.30975">
        <ele>29</ele>
        <time>2022-08-07T08:40:06.000Z</time>
      </trkpt>
      <trkpt lat="48.62784" lon="-4.30979">
        <ele>29.200000762939</ele>
        <time>2022-08-07T08:40:07.000Z</time>
      </trkpt>
      <trkpt lat="48.62786" lon="-4.30983">
        <ele>29.39999961853</ele>
        <time>2022-08-07T08:40:08.000Z</time>
      </trkpt>
      <trkpt lat="48.62787" lon="-4.30986">
        <ele>30</ele>
        <time>2022-08-07T08:40:09.000Z</time>
      </trkpt>
      <trkpt lat="48.62788" lon="-4.30989">
        <ele>30</ele>
        <time>2022-08-07T08:40:10.000Z</time>
      </trkpt>
      <trkpt lat="48.6279" lon="-4.30994">
        <ele>30.200000762939</ele>
        <time>2022-08-07T08:40:11.000Z</time>
      </trkpt>
      <trkpt lat="48.62792" lon="-4.30998">
        <ele>30.39999961853</ele>
        <time>2022-08-07T08:40:12.000Z</time>
      </trkpt>
      <trkpt lat="48.62792" lon="-4.31001">
        <ele>30.60000038147</ele>
        <time>2022-08-07T08:40:13.000Z</time>
      </trkpt>
      <trkpt lat="48.62794" lon="-4.31004">
        <ele>30.799999237061</ele>
        <time>2022-08-07T08:40:14.000Z</time>
      </trkpt>
      <trkpt lat="48.62795" lon="-4.31007">
        <ele>30.799999237061</ele>
        <time>2022-08-07T08:40:15.000Z</time>
      </trkpt>
      <trkpt lat="48.62795" lon="-4.31009">
        <ele>31</ele>
        <time>2022-08-07T08:40:16.000Z</time>
      </trkpt>
      <trkpt lat="48.62796" lon="-4.31012">
        <ele>31.200000762939</ele>
        <time>2022-08-07T08:40:17.000Z</time>
      </trkpt>
      <trkpt lat="48.62797" lon="-4.31015">
        <ele>31.39999961853</ele>
        <time>2022-08-07T08:40:18.000Z</time>
      </trkpt>
      <trkpt lat="48.62798" lon="-4.31019">
        <ele>31.60000038147</ele>
        <time>2022-08-07T08:40:19.000Z</time>
      </trkpt>
      <trkpt lat="48.62798" lon="-4.31022">
        <ele>31.60000038147</ele>
        <time>2022-08-07T08:40:20.000Z</time>
      </trkpt>
      <trkpt lat="48.62799" lon="-4.31025">
        <ele>31.799999237061</ele>
        <time>2022-08-07T08:40:21.000Z</time>
      </trkpt>
      <trkpt lat="48.628" lon="-4.31028">
        <ele>32</ele>
        <time>2022-08-07T08:40:22.000Z</time>
      </trkpt>
      <trkpt lat="48.628" lon="-4.3103">
        <ele>32.200000762939</ele>
        <time>2022-08-07T08:40:23.000Z</time>
      </trkpt>
      <trkpt lat="48.628" lon="-4.31032">
        <ele>32.200000762939</ele>
        <time>2022-08-07T08:40:24.000Z</time>
      </trkpt>
      <trkpt lat="48.62799" lon="-4.31034">
        <ele>32.599998474121</ele>
        <time>2022-08-07T08:40:25.000Z</time>
      </trkpt>
      <trkpt lat="48.62799" lon="-4.31037">
        <ele>32.599998474121</ele>
        <time>2022-08-07T08:40:26.000Z</time>
      </trkpt>
      <trkpt lat="48.62799" lon="-4.31038">
        <ele>33.200000762939</ele>
        <time>2022-08-07T08:40:27.000Z</time>
      </trkpt>
      <trkpt lat="48.62798" lon="-4.3104">
        <ele>33.599998474121</ele>
        <time>2022-08-07T08:40:28.000Z</time>
      </trkpt>
      <trkpt lat="48.62797" lon="-4.31043">
        <ele>33.799999237061</ele>
        <time>2022-08-07T08:40:29.000Z</time>
      </trkpt>
      <trkpt lat="48.62796" lon="-4.31045">
        <ele>33.799999237061</ele>
        <time>2022-08-07T08:40:30.000Z</time>
      </trkpt>
      <trkpt lat="48.62795" lon="-4.31047">
        <ele>34.400001525879</ele>
        <time>2022-08-07T08:40:31.000Z</time>
      </trkpt>
      <trkpt lat="48.62794" lon="-4.3105">
        <ele>34.799999237061</ele>
        <time>2022-08-07T08:40:32.000Z</time>
      </trkpt>
      <trkpt lat="48.62794" lon="-4.31052">
        <ele>35</ele>
        <time>2022-08-07T08:40:33.000Z</time>
      </trkpt>
      <trkpt lat="48.62794" lon="-4.31055">
        <ele>35.599998474121</ele>
        <time>2022-08-07T08:40:34.000Z</time>
      </trkpt>
      <trkpt lat="48.62793" lon="-4.31057">
        <ele>35.799999237061</ele>
        <time>2022-08-07T08:40:35.000Z</time>
      </trkpt>
      <trkpt lat="48.62793" lon="-4.3106">
        <ele>36</ele>
        <time>2022-08-07T08:40:36.000Z</time>
      </trkpt>
      <trkpt lat="48.62792" lon="-4.31062">
        <ele>36.200000762939</ele>
        <time>2022-08-07T08:40:37.000Z</time>
      </trkpt>
      <trkpt lat="48.62792" lon="-4.31065">
        <ele>36.599998474121</ele>
        <time>2022-08-07T08:40:38.000Z</time>
      </trkpt>
      <trkpt lat="48.62791" lon="-4.31068">
        <ele>36.799999237061</ele>
        <time>2022-08-07T08:40:39.000Z</time>
      </trkpt>
      <trkpt lat="48.62791" lon="-4.31071">
        <ele>37.200000762939</ele>
        <time>2022-08-07T08:40:40.000Z</time>
      </trkpt>
      <trkpt lat="48.62791" lon="-4.31074">
        <ele>37.400001525879</ele>
        <time>2022-08-07T08:40:41.000Z</time>
      </trkpt>
      <trkpt lat="48.6279" lon="-4.31078">
        <ele>37.799999237061</ele>
        <time>2022-08-07T08:40:42.000Z</time>
      </trkpt>
      <trkpt lat="48.6279" lon="-4.31081">
        <ele>38</ele>
        <time>2022-08-07T08:40:43.000Z</time>
      </trkpt>
      <trkpt lat="48.62789" lon="-4.31085">
        <ele>38.200000762939</ele>
        <time>2022-08-07T08:40:44.000Z</time>
      </trkpt>
      <trkpt lat="48.62789" lon="-4.31088">
        <ele>38.400001525879</ele>
        <time>2022-08-07T08:40:45.000Z</time>
      </trkpt>
      <trkpt lat="48.62789" lon="-4.31092">
        <ele>38.599998474121</ele>
        <time>2022-08-07T08:40:46.000Z</time>
      </trkpt>
      <trkpt lat="48.6279" lon="-4.31095">
        <ele>38.799999237061</ele>
        <time>2022-08-07T08:40:47.000Z</time>
      </trkpt>
      <trkpt lat="48.62789" lon="-4.31099">
        <ele>39</ele>
        <time>2022-08-07T08:40:48.000Z</time>
      </trkpt>
      <trkpt lat="48.62789" lon="-4.31102">
        <ele>39</ele>
        <time>2022-08-07T08:40:49.000Z</time>
      </trkpt>
      <trkpt lat="48.62789" lon="-4.31105">
        <ele>39.200000762939</ele>
        <time>2022-08-07T08:40:50.000Z</time>
      </trkpt>
      <trkpt lat="48.62789" lon="-4.31108">
        <ele>39.400001525879</ele>
        <time>2022-08-07T08:40:51.000Z</time>
      </trkpt>
      <trkpt lat="48.62789" lon="-4.31112">
        <ele>39.599998474121</ele>
        <time>2022-08-07T08:40:52.000Z</time>
      </trkpt>
      <trkpt lat="48.6279" lon="-4.31115">
        <ele>39.599998474121</ele>
        <time>2022-08-07T08:40:53.000Z</time>
      </trkpt>
      <trkpt lat="48.6279" lon="-4.31119">
        <ele>39.799999237061</ele>
        <time>2022-08-07T08:40:54.000Z</time>
      </trkpt>
      <trkpt lat="48.6279" lon="-4.31123">
        <ele>40</ele>
        <time>2022-08-07T08:40:55.000Z</time>
      </trkpt>
      <trkpt lat="48.6279" lon="-4.31127">
        <ele>40.200000762939</ele>
        <time>2022-08-07T08:40:56.000Z</time>
      </trkpt>
      <trkpt lat="48.6279" lon="-4.31131">
        <ele>40.200000762939</ele>
        <time>2022-08-07T08:40:57.000Z</time>
      </trkpt>
      <trkpt lat="48.62791" lon="-4.31134">
        <ele>40.400001525879</ele>
        <time>2022-08-07T08:40:58.000Z</time>
      </trkpt>
      <trkpt lat="48.62791" lon="-4.31138">
        <ele>40.599998474121</ele>
        <time>2022-08-07T08:40:59.000Z</time>
      </trkpt>
      <trkpt lat="48.62792" lon="-4.31143">
        <ele>40.599998474121</ele>
        <time>2022-08-07T08:41:00.000Z</time>
      </trkpt>
      <trkpt lat="48.62792" lon="-4.31146">
        <ele>40.799999237061</ele>
        <time>2022-08-07T08:41:01.000Z</time>
      </trkpt>
      <trkpt lat="48.62792" lon="-4.3115">
        <ele>41</ele>
        <time>2022-08-07T08:41:02.000Z</time>
      </trkpt>
      <trkpt lat="48.62793" lon="-4.31154">
        <ele>41</ele>
        <time>2022-08-07T08:41:03.000Z</time>
      </trkpt>
      <trkpt lat="48.62793" lon="-4.31158">
        <ele>41.200000762939</ele>
        <time>2022-08-07T08:41:04.000Z</time>
      </trkpt>
      <trkpt lat="48.62793" lon="-4.31163">
        <ele>41.200000762939</ele>
        <time>2022-08-07T08:41:05.000Z</time>
      </trkpt>
      <trkpt lat="48.62794" lon="-4.31166">
        <ele>41.400001525879</ele>
        <time>2022-08-07T08:41:06.000Z</time>
      </trkpt>
      <trkpt lat="48.62794" lon="-4.3117">
        <ele>41.599998474121</ele>
        <time>2022-08-07T08:41:07.000Z</time>
      </trkpt>
      <trkpt lat="48.62795" lon="-4.31174">
        <ele>41.799999237061</ele>
        <time>2022-08-07T08:41:08.000Z</time>
      </trkpt>
      <trkpt lat="48.62795" lon="-4.31177">
        <ele>42</ele>
        <time>2022-08-07T08:41:09.000Z</time>
      </trkpt>
      <trkpt lat="48.62796" lon="-4.31181">
        <ele>42.200000762939</ele>
        <time>2022-08-07T08:41:10.000Z</time>
      </trkpt>
      <trkpt lat="48.62796" lon="-4.31184">
        <ele>42.400001525879</ele>
        <time>2022-08-07T08:41:11.000Z</time>
      </trkpt>
      <trkpt lat="48.62796" lon="-4.31186">
        <ele>42.599998474121</ele>
        <time>2022-08-07T08:41:12.000Z</time>
      </trkpt>
      <trkpt lat="48.62797" lon="-4.31188">
        <ele>42.599998474121</ele>
        <time>2022-08-07T08:41:13.000Z</time>
      </trkpt>
      <trkpt lat="48.62797" lon="-4.31189">
        <ele>42.599998474121</ele>
        <time>2022-08-07T08:41:14.000Z</time>
      </trkpt>
      <trkpt lat="48.62797" lon="-4.3119">
        <ele>42.599998474121</ele>
        <time>2022-08-07T08:41:15.000Z</time>
      </trkpt>
      <trkpt lat="48.62797" lon="-4.31191">
        <ele>42.599998474121</ele>
        <time>2022-08-07T08:41:30.000Z</time>
      </trkpt>
      <trkpt lat="48.62796" lon="-4.31193">
        <ele>42.599998474121</ele>
        <time>2022-08-07T08:41:31.000Z</time>
      </trkpt>
      <trkpt lat="48.62795" lon="-4.31196">
        <ele>42.599998474121</ele>
        <time>2022-08-07T08:41:32.000Z</time>
      </trkpt>
      <trkpt lat="48.62793" lon="-4.31198">
        <ele>42.599998474121</ele>
        <time>2022-08-07T08:41:33.000Z</time>
      </trkpt>
      <trkpt lat="48.6279" lon="-4.312">
        <ele>42.599998474121</ele>
        <time>2022-08-07T08:41:34.000Z</time>
      </trkpt>
      <trkpt lat="48.62787" lon="-4.31202">
        <ele>42.599998474121</ele>
        <time>2022-08-07T08:41:35.000Z</time>
      </trkpt>
      <trkpt lat="48.62784" lon="-4.31204">
        <ele>42.599998474121</ele>
        <time>2022-08-07T08:41:36.000Z</time>
      </trkpt>
      <trkpt lat="48.62779" lon="-4.31206">
        <ele>42.799999237061</ele>
        <time>2022-08-07T08:41:37.000Z</time>
      </trkpt>
      <trkpt lat="48.62776" lon="-4.31208">
        <ele>42.799999237061</ele>
        <time>2022-08-07T08:41:38.000Z</time>
      </trkpt>
      <trkpt lat="48.62773" lon="-4.3121">
        <ele>43</ele>
        <time>2022-08-07T08:41:39.000Z</time>
      </trkpt>
      <trkpt lat="48.6277" lon="-4.31213">
        <ele>43</ele>
        <time>2022-08-07T08:41:40.000Z</time>
      </trkpt>
      <trkpt lat="48.62767" lon="-4.31215">
        <ele>43.400001525879</ele>
        <time>2022-08-07T08:41:41.000Z</time>
      </trkpt>
      <trkpt lat="48.62763" lon="-4.31218">
        <ele>43.400001525879</ele>
        <time>2022-08-07T08:41:42.000Z</time>
      </trkpt>
      <trkpt lat="48.6276" lon="-4.3122">
        <ele>43.599998474121</ele>
        <time>2022-08-07T08:41:43.000Z</time>
      </trkpt>
      <trkpt lat="48.62757" lon="-4.31223">
        <ele>44</ele>
        <time>2022-08-07T08:41:44.000Z</time>
      </trkpt>
      <trkpt lat="48.62753" lon="-4.31226">
        <ele>44.200000762939</ele>
        <time>2022-08-07T08:41:45.000Z</time>
      </trkpt>
      <trkpt lat="48.62751" lon="-4.31229">
        <ele>44.599998474121</ele>
        <time>2022-08-07T08:41:46.000Z</time>
      </trkpt>
      <trkpt lat="48.62748" lon="-4.31232">
        <ele>44.799999237061</ele>
        <time>2022-08-07T08:41:47.000Z</time>
      </trkpt>
      <trkpt lat="48.62744" lon="-4.31235">
        <ele>45.200000762939</ele>
        <time>2022-08-07T08:41:48.000Z</time>
      </trkpt>
      <trkpt lat="48.62741" lon="-4.31237">
        <ele>45.200000762939</ele>
        <time>2022-08-07T08:41:49.000Z</time>
      </trkpt>
      <trkpt lat="48.62739" lon="-4.3124">
        <ele>45.400001525879</ele>
        <time>2022-08-07T08:41:50.000Z</time>
      </trkpt>
      <trkpt lat="48.62736" lon="-4.31243">
        <ele>46</ele>
        <time>2022-08-07T08:41:51.000Z</time>
      </trkpt>
      <trkpt lat="48.62733" lon="-4.31246">
        <ele>46.200000762939</ele>
        <time>2022-08-07T08:41:52.000Z</time>
      </trkpt>
      <trkpt lat="48.6273" lon="-4.31249">
        <ele>46.400001525879</ele>
        <time>2022-08-07T08:41:53.000Z</time>
      </trkpt>
      <trkpt lat="48.62727" lon="-4.31251">
        <ele>46.599998474121</ele>
        <time>2022-08-07T08:41:54.000Z</time>
      </trkpt>
      <trkpt lat="48.62724" lon="-4.31253">
        <ele>46.599998474121</ele>
        <time>2022-08-07T08:41:55.000Z</time>
      </trkpt>
      <trkpt lat="48.62721" lon="-4.31255">
        <ele>47</ele>
        <time>2022-08-07T08:41:56.000Z</time>
      </trkpt>
      <trkpt lat="48.62718" lon="-4.31258">
        <ele>47</ele>
        <time>2022-08-07T08:41:57.000Z</time>
      </trkpt>
      <trkpt lat="48.62715" lon="-4.3126">
        <ele>47</ele>
        <time>2022-08-07T08:41:58.000Z</time>
      </trkpt>
      <trkpt lat="48.62711" lon="-4.31262">
        <ele>46.799999237061</ele>
        <time>2022-08-07T08:41:59.000Z</time>
      </trkpt>
      <trkpt lat="48.62708" lon="-4.31264">
        <ele>47.200000762939</ele>
        <time>2022-08-07T08:42:00.000Z</time>
      </trkpt>
      <trkpt lat="48.62704" lon="-4.31266">
        <ele>47.200000762939</ele>
        <time>2022-08-07T08:42:01.000Z</time>
      </trkpt>
      <trkpt lat="48.62701" lon="-4.31268">
        <ele>47.400001525879</ele>
        <time>2022-08-07T08:42:02.000Z</time>
      </trkpt>
      <trkpt lat="48.62698" lon="-4.3127">
        <ele>47.599998474121</ele>
        <time>2022-08-07T08:42:03.000Z</time>
      </trkpt>
      <trkpt lat="48.62694" lon="-4.31272">
        <ele>47.400001525879</ele>
        <time>2022-08-07T08:42:04.000Z</time>
      </trkpt>
      <trkpt lat="48.62691" lon="-4.31273">
        <ele>47.599998474121</ele>
        <time>2022-08-07T08:42:05.000Z</time>
      </trkpt>
      <trkpt lat="48.62688" lon="-4.31276">
        <ele>47.799999237061</ele>
        <time>2022-08-07T08:42:06.000Z</time>
      </trkpt>
      <trkpt lat="48.62685" lon="-4.31278">
        <ele>47.799999237061</ele>
        <time>2022-08-07T08:42:07.000Z</time>
      </trkpt>
      <trkpt lat="48.62681" lon="-4.3128">
        <ele>47.799999237061</ele>
        <time>2022-08-07T08:42:08.000Z</time>
      </trkpt>
      <trkpt lat="48.62678" lon="-4.31282">
        <ele>48.200000762939</ele>
        <time>2022-08-07T08:42:09.000Z</time>
      </trkpt>
      <trkpt lat="48.62674" lon="-4.31283">
        <ele>48.599998474121</ele>
        <time>2022-08-07T08:42:10.000Z</time>
      </trkpt>
      <trkpt lat="48.62671" lon="-4.31285">
        <ele>48.799999237061</ele>
        <time>2022-08-07T08:42:11.000Z</time>
      </trkpt>
      <trkpt lat="48.62668" lon="-4.31286">
        <ele>48.799999237061</ele>
        <time>2022-08-07T08:42:12.000Z</time>
      </trkpt>
      <trkpt lat="48.62665" lon="-4.31287">
        <ele>48.799999237061</ele>
        <time>2022-08-07T08:42:13.000Z</time>
      </trkpt>
      <trkpt lat="48.62662" lon="-4.31287">
        <ele>48.799999237061</ele>
        <time>2022-08-07T08:42:14.000Z</time>
      </trkpt>
      <trkpt lat="48.62659" lon="-4.31286">
        <ele>49</ele>
        <time>2022-08-07T08:42:15.000Z</time>
      </trkpt>
      <trkpt lat="48.62655" lon="-4.31284">
        <ele>49</ele>
        <time>2022-08-07T08:42:16.000Z</time>
      </trkpt>
      <trkpt lat="48.62652" lon="-4.31282">
        <ele>49.200000762939</ele>
        <time>2022-08-07T08:42:17.000Z</time>
      </trkpt>
      <trkpt lat="48.62649" lon="-4.3128">
        <ele>49.400001525879</ele>
        <time>2022-08-07T08:42:18.000Z</time>
      </trkpt>
      <trkpt lat="48.62646" lon="-4.31276">
        <ele>49.400001525879</ele>
        <time>2022-08-07T08:42:19.000Z</time>
      </trkpt>
      <trkpt lat="48.62643" lon="-4.31273">
        <ele>49.599998474121</ele>
        <time>2022-08-07T08:42:20.000Z</time>
      </trkpt>
      <trkpt lat="48.62641" lon="-4.31269">
        <ele>49.599998474121</ele>
        <time>2022-08-07T08:42:21.000Z</time>
      </trkpt>
      <trkpt lat="48.62638" lon="-4.31265">
        <ele>49.799999237061</ele>
        <time>2022-08-07T08:42:22.000Z</time>
      </trkpt>
      <trkpt lat="48.62636" lon="-4.3126">
        <ele>50</ele>
        <time>2022-08-07T08:42:23.000Z</time>
      </trkpt>
      <trkpt lat="48.62633" lon="-4.31256">
        <ele>50</ele>
        <time>2022-08-07T08:42:24.000Z</time>
      </trkpt>
      <trkpt lat="48.62631" lon="-4.31253">
        <ele>50.200000762939</ele>
        <time>2022-08-07T08:42:25.000Z</time>
      </trkpt>
      <trkpt lat="48.62627" lon="-4.3125">
        <ele>50.200000762939</ele>
        <time>2022-08-07T08:42:26.000Z</time>
      </trkpt>
      <trkpt lat="48.62624" lon="-4.31248">
        <ele>50.200000762939</ele>
        <time>2022-08-07T08:42:27.000Z</time>
      </trkpt>
      <trkpt lat="48.62621" lon="-4.31247">
        <ele>50.400001525879</ele>
        <time>2022-08-07T08:42:28.000Z</time>
      </trkpt>
      <trkpt lat="48.62617" lon="-4.31246">
        <ele>50.599998474121</ele>
        <time>2022-08-07T08:42:29.000Z</time>
      </trkpt>
      <trkpt lat="48.62614" lon="-4.31246">
        <ele>50.599998474121</ele>
        <time>2022-08-07T08:42:30.000Z</time>
      </trkpt>
      <trkpt lat="48.6261" lon="-4.31246">
        <ele>50.599998474121</ele>
        <time>2022-08-07T08:42:31.000Z</time>
      </trkpt>
      <trkpt lat="48.62606" lon="-4.31247">
        <ele>50.599998474121</ele>
        <time>2022-08-07T08:42:32.000Z</time>
      </trkpt>
      <trkpt lat="48.62602" lon="-4.31247">
        <ele>50.400001525879</ele>
        <time>2022-08-07T08:42:33.000Z</time>
      </trkpt>
      <trkpt lat="48.62599" lon="-4.31248">
        <ele>50.400001525879</ele>
        <time>2022-08-07T08:42:34.000Z</time>
      </trkpt>
      <trkpt lat="48.62595" lon="-4.31249">
        <ele>50.200000762939</ele>
        <time>2022-08-07T08:42:35.000Z</time>
      </trkpt>
      <trkpt lat="48.62591" lon="-4.3125">
        <ele>50.200000762939</ele>
        <time>2022-08-07T08:42:36.000Z</time>
      </trkpt>
      <trkpt lat="48.62587" lon="-4.3125">
        <ele>50.200000762939</ele>
        <time>2022-08-07T08:42:37.000Z</time>
      </trkpt>
      <trkpt lat="48.62583" lon="-4.31251">
        <ele>50</ele>
        <time>2022-08-07T08:42:38.000Z</time>
      </trkpt>
      <trkpt lat="48.62579" lon="-4.31253">
        <ele>50</ele>
        <time>2022-08-07T08:42:39.000Z</time>
      </trkpt>
      <trkpt lat="48.62574" lon="-4.31254">
        <ele>49.799999237061</ele>
        <time>2022-08-07T08:42:40.000Z</time>
      </trkpt>
      <trkpt lat="48.6257" lon="-4.31255">
        <ele>49.599998474121</ele>
        <time>2022-08-07T08:42:41.000Z</time>
      </trkpt>
      <trkpt lat="48.62566" lon="-4.31256">
        <ele>49.400001525879</ele>
        <time>2022-08-07T08:42:42.000Z</time>
      </trkpt>
      <trkpt lat="48.62562" lon="-4.31257">
        <ele>49.599998474121</ele>
        <time>2022-08-07T08:42:43.000Z</time>
      </trkpt>
      <trkpt lat="48.62557" lon="-4.31259">
        <ele>49</ele>
        <time>2022-08-07T08:42:44.000Z</time>
      </trkpt>
      <trkpt lat="48.62553" lon="-4.31261">
        <ele>49.200000762939</ele>
        <time>2022-08-07T08:42:45.000Z</time>
      </trkpt>
      <trkpt lat="48.6255" lon="-4.31264">
        <ele>49</ele>
        <time>2022-08-07T08:42:46.000Z</time>
      </trkpt>
      <trkpt lat="48.62547" lon="-4.31268">
        <ele>49</ele>
        <time>2022-08-07T08:42:47.000Z</time>
      </trkpt>
      <trkpt lat="48.62544" lon="-4.31273">
        <ele>49</ele>
        <time>2022-08-07T08:42:48.000Z</time>
      </trkpt>
      <trkpt lat="48.62543" lon="-4.31279">
        <ele>49</ele>
        <time>2022-08-07T08:42:49.000Z</time>
      </trkpt>
      <trkpt lat="48.62543" lon="-4.31285">
        <ele>49</ele>
        <time>2022-08-07T08:42:50.000Z</time>
      </trkpt>
      <trkpt lat="48.62543" lon="-4.31291">
        <ele>49.200000762939</ele>
        <time>2022-08-07T08:42:51.000Z</time>
      </trkpt>
      <trkpt lat="48.62543" lon="-4.31296">
        <ele>49.200000762939</ele>
        <time>2022-08-07T08:42:52.000Z</time>
      </trkpt>
      <trkpt lat="48.62544" lon="-4.31302">
        <ele>49.400001525879</ele>
        <time>2022-08-07T08:42:53.000Z</time>
      </trkpt>
      <trkpt lat="48.62544" lon="-4.31308">
        <ele>49.400001525879</ele>
        <time>2022-08-07T08:42:54.000Z</time>
      </trkpt>
      <trkpt lat="48.62545" lon="-4.31314">
        <ele>49.599998474121</ele>
        <time>2022-08-07T08:42:55.000Z</time>
      </trkpt>
      <trkpt lat="48.62545" lon="-4.3132">
        <ele>49.599998474121</ele>
        <time>2022-08-07T08:42:56.000Z</time>
      </trkpt>
      <trkpt lat="48.62545" lon="-4.31326">
        <ele>49.599998474121</ele>
        <time>2022-08-07T08:42:57.000Z</time>
      </trkpt>
      <trkpt lat="48.62546" lon="-4.31331">
        <ele>49.799999237061</ele>
        <time>2022-08-07T08:42:58.000Z</time>
      </trkpt>
      <trkpt lat="48.62546" lon="-4.31337">
        <ele>49.799999237061</ele>
        <time>2022-08-07T08:42:59.000Z</time>
      </trkpt>
      <trkpt lat="48.62546" lon="-4.31342">
        <ele>50</ele>
        <time>2022-08-07T08:43:00.000Z</time>
      </trkpt>
      <trkpt lat="48.62547" lon="-4.31348">
        <ele>50</ele>
        <time>2022-08-07T08:43:01.000Z</time>
      </trkpt>
      <trkpt lat="48.62547" lon="-4.31354">
        <ele>50.200000762939</ele>
        <time>2022-08-07T08:43:02.000Z</time>
      </trkpt>
      <trkpt lat="48.62547" lon="-4.31359">
        <ele>50.400001525879</ele>
        <time>2022-08-07T08:43:03.000Z</time>
      </trkpt>
      <trkpt lat="48.62548" lon="-4.31365">
        <ele>50.599998474121</ele>
        <time>2022-08-07T08:43:04.000Z</time>
      </trkpt>
      <trkpt lat="48.62548" lon="-4.31371">
        <ele>50.599998474121</ele>
        <time>2022-08-07T08:43:05.000Z</time>
      </trkpt>
      <trkpt lat="48.62548" lon="-4.31376">
        <ele>50.599998474121</ele>
        <time>2022-08-07T08:43:06.000Z</time>
      </trkpt>
      <trkpt lat="48.62548" lon="-4.31382">
        <ele>50.799999237061</ele>
        <time>2022-08-07T08:43:07.000Z</time>
      </trkpt>
      <trkpt lat="48.62549" lon="-4.31387">
        <ele>50.799999237061</ele>
        <time>2022-08-07T08:43:08.000Z</time>
      </trkpt>
      <trkpt lat="48.62549" lon="-4.31393">
        <ele>51</ele>
        <time>2022-08-07T08:43:09.000Z</time>
      </trkpt>
      <trkpt lat="48.6255" lon="-4.31398">
        <ele>51</ele>
        <time>2022-08-07T08:43:10.000Z</time>
      </trkpt>
      <trkpt lat="48.62551" lon="-4.31403">
        <ele>51</ele>
        <time>2022-08-07T08:43:11.000Z</time>
      </trkpt>
      <trkpt lat="48.62551" lon="-4.31409">
        <ele>51</ele>
        <time>2022-08-07T08:43:12.000Z</time>
      </trkpt>
      <trkpt lat="48.62552" lon="-4.31414">
        <ele>51</ele>
        <time>2022-08-07T08:43:13.000Z</time>
      </trkpt>
      <trkpt lat="48.62553" lon="-4.31421">
        <ele>51</ele>
        <time>2022-08-07T08:43:14.000Z</time>
      </trkpt>
      <trkpt lat="48.62553" lon="-4.31425">
        <ele>51</ele>
        <time>2022-08-07T08:43:15.000Z</time>
      </trkpt>
      <trkpt lat="48.62554" lon="-4.31431">
        <ele>51</ele>
        <time>2022-08-07T08:43:16.000Z</time>
      </trkpt>
      <trkpt lat="48.62554" lon="-4.31437">
        <ele>51.200000762939</ele>
        <time>2022-08-07T08:43:17.000Z</time>
      </trkpt>
      <trkpt lat="48.62555" lon="-4.31442">
        <ele>51.200000762939</ele>
        <time>2022-08-07T08:43:18.000Z</time>
      </trkpt>
      <trkpt lat="48.62555" lon="-4.31447">
        <ele>51.200000762939</ele>
        <time>2022-08-07T08:43:19.000Z</time>
      </trkpt>
      <trkpt lat="48.62556" lon="-4.31452">
        <ele>50.799999237061</ele>
        <time>2022-08-07T08:43:20.000Z</time>
      </trkpt>
      <trkpt lat="48.62556" lon="-4.31458">
        <ele>51.200000762939</ele>
        <time>2022-08-07T08:43:21.000Z</time>
      </trkpt>
      <trkpt lat="48.62557" lon="-4.31463">
        <ele>51.400001525879</ele>
        <time>2022-08-07T08:43:22.000Z</time>
      </trkpt>
      <trkpt lat="48.62557" lon="-4.31469">
        <ele>51.400001525879</ele>
        <time>2022-08-07T08:43:23.000Z</time>
      </trkpt>
      <trkpt lat="48.62558" lon="-4.31473">
        <ele>51.400001525879</ele>
        <time>2022-08-07T08:43:24.000Z</time>
      </trkpt>
      <trkpt lat="48.62558" lon="-4.31479">
        <ele>51.599998474121</ele>
        <time>2022-08-07T08:43:25.000Z</time>
      </trkpt>
      <trkpt lat="48.62559" lon="-4.31484">
        <ele>51.599998474121</ele>
        <time>2022-08-07T08:43:26.000Z</time>
      </trkpt>
      <trkpt lat="48.6256" lon="-4.31489">
        <ele>51.799999237061</ele>
        <time>2022-08-07T08:43:27.000Z</time>
      </trkpt>
      <trkpt lat="48.62561" lon="-4.31495">
        <ele>51.799999237061</ele>
        <time>2022-08-07T08:43:28.000Z</time>
      </trkpt>
      <trkpt lat="48.62562" lon="-4.31501">
        <ele>52</ele>
        <time>2022-08-07T08:43:29.000Z</time>
      </trkpt>
      <trkpt lat="48.62562" lon="-4.31506">
        <ele>52</ele>
        <time>2022-08-07T08:43:30.000Z</time>
      </trkpt>
      <trkpt lat="48.62563" lon="-4.31511">
        <ele>52.200000762939</ele>
        <time>2022-08-07T08:43:31.000Z</time>
      </trkpt>
      <trkpt lat="48.62564" lon="-4.31516">
        <ele>52.200000762939</ele>
        <time>2022-08-07T08:43:32.000Z</time>
      </trkpt>
      <trkpt lat="48.62565" lon="-4.31522">
        <ele>52.200000762939</ele>
        <time>2022-08-07T08:43:33.000Z</time>
      </trkpt>
      <trkpt lat="48.62566" lon="-4.31527">
        <ele>52.400001525879</ele>
        <time>2022-08-07T08:43:34.000Z</time>
      </trkpt>
      <trkpt lat="48.62567" lon="-4.31532">
        <ele>52.400001525879</ele>
        <time>2022-08-07T08:43:35.000Z</time>
      </trkpt>
      <trkpt lat="48.62568" lon="-4.31537">
        <ele>52.400001525879</ele>
        <time>2022-08-07T08:43:36.000Z</time>
      </trkpt>
      <trkpt lat="48.62569" lon="-4.31541">
        <ele>52.400001525879</ele>
        <time>2022-08-07T08:43:37.000Z</time>
      </trkpt>
      <trkpt lat="48.6257" lon="-4.31545">
        <ele>52.400001525879</ele>
        <time>2022-08-07T08:43:38.000Z</time>
      </trkpt>
      <trkpt lat="48.62573" lon="-4.31548">
        <ele>52.400001525879</ele>
        <time>2022-08-07T08:43:39.000Z</time>
      </trkpt>
      <trkpt lat="48.62576" lon="-4.3155">
        <ele>52.400001525879</ele>
        <time>2022-08-07T08:43:40.000Z</time>
      </trkpt>
      <trkpt lat="48.6258" lon="-4.31549">
        <ele>52.400001525879</ele>
        <time>2022-08-07T08:43:41.000Z</time>
      </trkpt>
      <trkpt lat="48.62583" lon="-4.31547">
        <ele>52.400001525879</ele>
        <time>2022-08-07T08:43:42.000Z</time>
      </trkpt>
      <trkpt lat="48.62586" lon="-4.31546">
        <ele>52.400001525879</ele>
        <time>2022-08-07T08:43:43.000Z</time>
      </trkpt>
      <trkpt lat="48.62589" lon="-4.31544">
        <ele>52.400001525879</ele>
        <time>2022-08-07T08:43:44.000Z</time>
      </trkpt>
      <trkpt lat="48.62594" lon="-4.31542">
        <ele>52.400001525879</ele>
        <time>2022-08-07T08:43:45.000Z</time>
      </trkpt>
      <trkpt lat="48.62597" lon="-4.31541">
        <ele>52.599998474121</ele>
        <time>2022-08-07T08:43:46.000Z</time>
      </trkpt>
      <trkpt lat="48.62602" lon="-4.31539">
        <ele>52.599998474121</ele>
        <time>2022-08-07T08:43:47.000Z</time>
      </trkpt>
      <trkpt lat="48.62605" lon="-4.31538">
        <ele>52.599998474121</ele>
        <time>2022-08-07T08:43:48.000Z</time>
      </trkpt>
      <trkpt lat="48.62609" lon="-4.31537">
        <ele>52.599998474121</ele>
        <time>2022-08-07T08:43:49.000Z</time>
      </trkpt>
      <trkpt lat="48.62614" lon="-4.31535">
        <ele>52.599998474121</ele>
        <time>2022-08-07T08:43:50.000Z</time>
      </trkpt>
      <trkpt lat="48.62618" lon="-4.31532">
        <ele>52.400001525879</ele>
        <time>2022-08-07T08:43:51.000Z</time>
      </trkpt>
      <trkpt lat="48.62622" lon="-4.3153">
        <ele>52.400001525879</ele>
        <time>2022-08-07T08:43:52.000Z</time>
      </trkpt>
      <trkpt lat="48.62627" lon="-4.31529">
        <ele>52.400001525879</ele>
        <time>2022-08-07T08:43:53.000Z</time>
      </trkpt>
      <trkpt lat="48.62631" lon="-4.31527">
        <ele>52.400001525879</ele>
        <time>2022-08-07T08:43:54.000Z</time>
      </trkpt>
      <trkpt lat="48.62636" lon="-4.31525">
        <ele>52.400001525879</ele>
        <time>2022-08-07T08:43:55.000Z</time>
      </trkpt>
      <trkpt lat="48.62641" lon="-4.31523">
        <ele>52.200000762939</ele>
        <time>2022-08-07T08:43:56.000Z</time>
      </trkpt>
      <trkpt lat="48.62645" lon="-4.31521">
        <ele>52.200000762939</ele>
        <time>2022-08-07T08:43:57.000Z</time>
      </trkpt>
      <trkpt lat="48.62649" lon="-4.31519">
        <ele>52.200000762939</ele>
        <time>2022-08-07T08:43:58.000Z</time>
      </trkpt>
      <trkpt lat="48.62653" lon="-4.31518">
        <ele>52</ele>
        <time>2022-08-07T08:43:59.000Z</time>
      </trkpt>
      <trkpt lat="48.62657" lon="-4.31518">
        <ele>52</ele>
        <time>2022-08-07T08:44:00.000Z</time>
      </trkpt>
      <trkpt lat="48.6266" lon="-4.31522">
        <ele>51.799999237061</ele>
        <time>2022-08-07T08:44:01.000Z</time>
      </trkpt>
      <trkpt lat="48.62661" lon="-4.31524">
        <ele>51.599998474121</ele>
        <time>2022-08-07T08:44:02.000Z</time>
      </trkpt>
      <trkpt lat="48.62662" lon="-4.31527">
        <ele>51.400001525879</ele>
        <time>2022-08-07T08:44:03.000Z</time>
      </trkpt>
      <trkpt lat="48.62662" lon="-4.31526">
        <ele>51.200000762939</ele>
        <time>2022-08-07T08:44:07.000Z</time>
      </trkpt>
      <trkpt lat="48.62662" lon="-4.31525">
        <ele>50.799999237061</ele>
        <time>2022-08-07T08:44:08.000Z</time>
      </trkpt>
      <trkpt lat="48.62662" lon="-4.31524">
        <ele>50.799999237061</ele>
        <time>2022-08-07T08:44:09.000Z</time>
      </trkpt>
      <trkpt lat="48.62662" lon="-4.31522">
        <ele>50.599998474121</ele>
        <time>2022-08-07T08:44:11.000Z</time>
      </trkpt>
      <trkpt lat="48.62662" lon="-4.3152">
        <ele>50.400001525879</ele>
        <time>2022-08-07T08:44:12.000Z</time>
      </trkpt>
      <trkpt lat="48.62664" lon="-4.31517">
        <ele>50.400001525879</ele>
        <time>2022-08-07T08:44:13.000Z</time>
      </trkpt>
      <trkpt lat="48.62666" lon="-4.31516">
        <ele>50.400001525879</ele>
        <time>2022-08-07T08:44:14.000Z</time>
      </trkpt>
      <trkpt lat="48.62669" lon="-4.31516">
        <ele>50.400001525879</ele>
        <time>2022-08-07T08:44:15.000Z</time>
      </trkpt>
      <trkpt lat="48.62672" lon="-4.31515">
        <ele>50.400001525879</ele>
        <time>2022-08-07T08:44:16.000Z</time>
      </trkpt>
      <trkpt lat="48.62676" lon="-4.31514">
        <ele>50.400001525879</ele>
        <time>2022-08-07T08:44:17.000Z</time>
      </trkpt>
      <trkpt lat="48.62679" lon="-4.31513">
        <ele>50.400001525879</ele>
        <time>2022-08-07T08:44:18.000Z</time>
      </trkpt>
      <trkpt lat="48.62683" lon="-4.31512">
        <ele>50.400001525879</ele>
        <time>2022-08-07T08:44:19.000Z</time>
      </trkpt>
      <trkpt lat="48.62687" lon="-4.3151">
        <ele>50.400001525879</ele>
        <time>2022-08-07T08:44:20.000Z</time>
      </trkpt>
      <trkpt lat="48.6269" lon="-4.31508">
        <ele>50.200000762939</ele>
        <time>2022-08-07T08:44:21.000Z</time>
      </trkpt>
      <trkpt lat="48.62695" lon="-4.31507">
        <ele>50.200000762939</ele>
        <time>2022-08-07T08:44:22.000Z</time>
      </trkpt>
      <trkpt lat="48.62699" lon="-4.31505">
        <ele>50.200000762939</ele>
        <time>2022-08-07T08:44:23.000Z</time>
      </trkpt>
      <trkpt lat="48.62704" lon="-4.31504">
        <ele>50.200000762939</ele>
        <time>2022-08-07T08:44:24.000Z</time>
      </trkpt>
      <trkpt lat="48.62709" lon="-4.31501">
        <ele>50</ele>
        <time>2022-08-07T08:44:25.000Z</time>
      </trkpt>
      <trkpt lat="48.62713" lon="-4.315">
        <ele>49.799999237061</ele>
        <time>2022-08-07T08:44:26.000Z</time>
      </trkpt>
      <trkpt lat="48.62717" lon="-4.31498">
        <ele>49.799999237061</ele>
        <time>2022-08-07T08:44:27.000Z</time>
      </trkpt>
      <trkpt lat="48.62722" lon="-4.31496">
        <ele>49.599998474121</ele>
        <time>2022-08-07T08:44:28.000Z</time>
      </trkpt>
      <trkpt lat="48.62727" lon="-4.31494">
        <ele>49.599998474121</ele>
        <time>2022-08-07T08:44:29.000Z</time>
      </trkpt>
      <trkpt lat="48.62733" lon="-4.31492">
        <ele>49.599998474121</ele>
        <time>2022-08-07T08:44:30.000Z</time>
      </trkpt>
      <trkpt lat="48.62737" lon="-4.31491">
        <ele>49.400001525879</ele>
        <time>2022-08-07T08:44:31.000Z</time>
      </trkpt>
      <trkpt lat="48.62741" lon="-4.31489">
        <ele>49.400001525879</ele>
        <time>2022-08-07T08:44:32.000Z</time>
      </trkpt>
      <trkpt lat="48.62746" lon="-4.31487">
        <ele>49.200000762939</ele>
        <time>2022-08-07T08:44:33.000Z</time>
      </trkpt>
      <trkpt lat="48.6275" lon="-4.31485">
        <ele>49.200000762939</ele>
        <time>2022-08-07T08:44:34.000Z</time>
      </trkpt>
      <trkpt lat="48.62755" lon="-4.31483">
        <ele>49</ele>
        <time>2022-08-07T08:44:35.000Z</time>
      </trkpt>
      <trkpt lat="48.62759" lon="-4.31481">
        <ele>49</ele>
        <time>2022-08-07T08:44:36.000Z</time>
      </trkpt>
      <trkpt lat="48.62762" lon="-4.31479">
        <ele>48.599998474121</ele>
        <time>2022-08-07T08:44:37.000Z</time>
      </trkpt>
      <trkpt lat="48.62766" lon="-4.31478">
        <ele>48.599998474121</ele>
        <time>2022-08-07T08:44:38.000Z</time>
      </trkpt>
      <trkpt lat="48.62769" lon="-4.31478">
        <ele>48.400001525879</ele>
        <time>2022-08-07T08:44:39.000Z</time>
      </trkpt>
      <trkpt lat="48.6277" lon="-4.3148">
        <ele>48.400001525879</ele>
        <time>2022-08-07T08:44:40.000Z</time>
      </trkpt>
      <trkpt lat="48.62771" lon="-4.31484">
        <ele>48.400001525879</ele>
        <time>2022-08-07T08:44:41.000Z</time>
      </trkpt>
      <trkpt lat="48.62772" lon="-4.31489">
        <ele>48.200000762939</ele>
        <time>2022-08-07T08:44:42.000Z</time>
      </trkpt>
      <trkpt lat="48.62773" lon="-4.31494">
        <ele>48.200000762939</ele>
        <time>2022-08-07T08:44:43.000Z</time>
      </trkpt>
      <trkpt lat="48.62774" lon="-4.31499">
        <ele>48.200000762939</ele>
        <time>2022-08-07T08:44:44.000Z</time>
      </trkpt>
      <trkpt lat="48.62775" lon="-4.31505">
        <ele>48.200000762939</ele>
        <time>2022-08-07T08:44:45.000Z</time>
      </trkpt>
      <trkpt lat="48.62775" lon="-4.3151">
        <ele>48.200000762939</ele>
        <time>2022-08-07T08:44:46.000Z</time>
      </trkpt>
      <trkpt lat="48.62776" lon="-4.31515">
        <ele>48.200000762939</ele>
        <time>2022-08-07T08:44:47.000Z</time>
      </trkpt>
      <trkpt lat="48.62776" lon="-4.3152">
        <ele>48.200000762939</ele>
        <time>2022-08-07T08:44:48.000Z</time>
      </trkpt>
      <trkpt lat="48.62776" lon="-4.31526">
        <ele>48.200000762939</ele>
        <time>2022-08-07T08:44:49.000Z</time>
      </trkpt>
      <trkpt lat="48.62777" lon="-4.3153">
        <ele>48.200000762939</ele>
        <time>2022-08-07T08:44:50.000Z</time>
      </trkpt>
      <trkpt lat="48.62777" lon="-4.31535">
        <ele>48.200000762939</ele>
        <time>2022-08-07T08:44:51.000Z</time>
      </trkpt>
      <trkpt lat="48.62777" lon="-4.31541">
        <ele>48.200000762939</ele>
        <time>2022-08-07T08:44:52.000Z</time>
      </trkpt>
      <trkpt lat="48.62778" lon="-4.31546">
        <ele>48.200000762939</ele>
        <time>2022-08-07T08:44:53.000Z</time>
      </trkpt>
      <trkpt lat="48.62778" lon="-4.31552">
        <ele>48.200000762939</ele>
        <time>2022-08-07T08:44:54.000Z</time>
      </trkpt>
      <trkpt lat="48.62778" lon="-4.31557">
        <ele>48.200000762939</ele>
        <time>2022-08-07T08:44:55.000Z</time>
      </trkpt>
      <trkpt lat="48.62779" lon="-4.31563">
        <ele>48.400001525879</ele>
        <time>2022-08-07T08:44:56.000Z</time>
      </trkpt>
      <trkpt lat="48.62779" lon="-4.31567">
        <ele>48.400001525879</ele>
        <time>2022-08-07T08:44:57.000Z</time>
      </trkpt>
      <trkpt lat="48.62779" lon="-4.31572">
        <ele>48.400001525879</ele>
        <time>2022-08-07T08:44:58.000Z</time>
      </trkpt>
      <trkpt lat="48.62779" lon="-4.31577">
        <ele>48.400001525879</ele>
        <time>2022-08-07T08:44:59.000Z</time>
      </trkpt>
      <trkpt lat="48.62779" lon="-4.31582">
        <ele>48.400001525879</ele>
        <time>2022-08-07T08:45:00.000Z</time>
      </trkpt>
      <trkpt lat="48.62779" lon="-4.31587">
        <ele>48.400001525879</ele>
        <time>2022-08-07T08:45:01.000Z</time>
      </trkpt>
      <trkpt lat="48.62778" lon="-4.31591">
        <ele>48.400001525879</ele>
        <time>2022-08-07T08:45:02.000Z</time>
      </trkpt>
      <trkpt lat="48.62778" lon="-4.31597">
        <ele>48.400001525879</ele>
        <time>2022-08-07T08:45:03.000Z</time>
      </trkpt>
      <trkpt lat="48.62778" lon="-4.31602">
        <ele>48.400001525879</ele>
        <time>2022-08-07T08:45:04.000Z</time>
      </trkpt>
      <trkpt lat="48.62777" lon="-4.31606">
        <ele>48.400001525879</ele>
        <time>2022-08-07T08:45:05.000Z</time>
      </trkpt>
      <trkpt lat="48.62776" lon="-4.31613">
        <ele>48.200000762939</ele>
        <time>2022-08-07T08:45:06.000Z</time>
      </trkpt>
      <trkpt lat="48.62775" lon="-4.31618">
        <ele>48.200000762939</ele>
        <time>2022-08-07T08:45:07.000Z</time>
      </trkpt>
      <trkpt lat="48.62775" lon="-4.31624">
        <ele>48.200000762939</ele>
        <time>2022-08-07T08:45:08.000Z</time>
      </trkpt>
      <trkpt lat="48.62774" lon="-4.31628">
        <ele>48</ele>
        <time>2022-08-07T08:45:09.000Z</time>
      </trkpt>
      <trkpt lat="48.62774" lon="-4.31634">
        <ele>48</ele>
        <time>2022-08-07T08:45:10.000Z</time>
      </trkpt>
      <trkpt lat="48.62773" lon="-4.31641">
        <ele>48</ele>
        <time>2022-08-07T08:45:11.000Z</time>
      </trkpt>
      <trkpt lat="48.62773" lon="-4.31647">
        <ele>48.200000762939</ele>
        <time>2022-08-07T08:45:12.000Z</time>
      </trkpt>
      <trkpt lat="48.62773" lon="-4.31651">
        <ele>48.200000762939</ele>
        <time>2022-08-07T08:45:13.000Z</time>
      </trkpt>
      <trkpt lat="48.62772" lon="-4.31657">
        <ele>48</ele>
        <time>2022-08-07T08:45:14.000Z</time>
      </trkpt>
      <trkpt lat="48.62772" lon="-4.31663">
        <ele>48</ele>
        <time>2022-08-07T08:45:15.000Z</time>
      </trkpt>
      <trkpt lat="48.62771" lon="-4.31668">
        <ele>48</ele>
        <time>2022-08-07T08:45:16.000Z</time>
      </trkpt>
      <trkpt lat="48.6277" lon="-4.31674">
        <ele>48</ele>
        <time>2022-08-07T08:45:17.000Z</time>
      </trkpt>
      <trkpt lat="48.62769" lon="-4.31678">
        <ele>48</ele>
        <time>2022-08-07T08:45:18.000Z</time>
      </trkpt>
      <trkpt lat="48.62767" lon="-4.31682">
        <ele>48</ele>
        <time>2022-08-07T08:45:19.000Z</time>
      </trkpt>
      <trkpt lat="48.62764" lon="-4.31687">
        <ele>48</ele>
        <time>2022-08-07T08:45:20.000Z</time>
      </trkpt>
      <trkpt lat="48.62761" lon="-4.31693">
        <ele>48.200000762939</ele>
        <time>2022-08-07T08:45:21.000Z</time>
      </trkpt>
      <trkpt lat="48.62759" lon="-4.31697">
        <ele>48.200000762939</ele>
        <time>2022-08-07T08:45:22.000Z</time>
      </trkpt>
      <trkpt lat="48.62756" lon="-4.317">
        <ele>48.200000762939</ele>
        <time>2022-08-07T08:45:23.000Z</time>
      </trkpt>
      <trkpt lat="48.62753" lon="-4.31704">
        <ele>48.400001525879</ele>
        <time>2022-08-07T08:45:24.000Z</time>
      </trkpt>
      <trkpt lat="48.6275" lon="-4.31708">
        <ele>48.400001525879</ele>
        <time>2022-08-07T08:45:25.000Z</time>
      </trkpt>
      <trkpt lat="48.62746" lon="-4.31713">
        <ele>48.400001525879</ele>
        <time>2022-08-07T08:45:26.000Z</time>
      </trkpt>
      <trkpt lat="48.62744" lon="-4.31717">
        <ele>48.599998474121</ele>
        <time>2022-08-07T08:45:27.000Z</time>
      </trkpt>
      <trkpt lat="48.62741" lon="-4.31721">
        <ele>48.599998474121</ele>
        <time>2022-08-07T08:45:28.000Z</time>
      </trkpt>
      <trkpt lat="48.62737" lon="-4.31727">
        <ele>48.599998474121</ele>
        <time>2022-08-07T08:45:29.000Z</time>
      </trkpt>
      <trkpt lat="48.62735" lon="-4.31732">
        <ele>48.599998474121</ele>
        <time>2022-08-07T08:45:30.000Z</time>
      </trkpt>
      <trkpt lat="48.62733" lon="-4.31736">
        <ele>48.599998474121</ele>
        <time>2022-08-07T08:45:31.000Z</time>
      </trkpt>
      <trkpt lat="48.62731" lon="-4.31742">
        <ele>48.599998474121</ele>
        <time>2022-08-07T08:45:32.000Z</time>
      </trkpt>
      <trkpt lat="48.62729" lon="-4.31748">
        <ele>48.599998474121</ele>
        <time>2022-08-07T08:45:33.000Z</time>
      </trkpt>
      <trkpt lat="48.62727" lon="-4.31754">
        <ele>48.599998474121</ele>
        <time>2022-08-07T08:45:34.000Z</time>
      </trkpt>
      <trkpt lat="48.62724" lon="-4.3176">
        <ele>48.400001525879</ele>
        <time>2022-08-07T08:45:35.000Z</time>
      </trkpt>
      <trkpt lat="48.62722" lon="-4.31767">
        <ele>48.400001525879</ele>
        <time>2022-08-07T08:45:36.000Z</time>
      </trkpt>
      <trkpt lat="48.62721" lon="-4.31773">
        <ele>48.400001525879</ele>
        <time>2022-08-07T08:45:37.000Z</time>
      </trkpt>
      <trkpt lat="48.62719" lon="-4.3178">
        <ele>48.400001525879</ele>
        <time>2022-08-07T08:45:38.000Z</time>
      </trkpt>
      <trkpt lat="48.62718" lon="-4.31787">
        <ele>48.400001525879</ele>
        <time>2022-08-07T08:45:39.000Z</time>
      </trkpt>
      <trkpt lat="48.62717" lon="-4.31796">
        <ele>48.400001525879</ele>
        <time>2022-08-07T08:45:40.000Z</time>
      </trkpt>
      <trkpt lat="48.62716" lon="-4.31801">
        <ele>48.200000762939</ele>
        <time>2022-08-07T08:45:41.000Z</time>
      </trkpt>
      <trkpt lat="48.62715" lon="-4.31808">
        <ele>48</ele>
        <time>2022-08-07T08:45:42.000Z</time>
      </trkpt>
      <trkpt lat="48.62714" lon="-4.31817">
        <ele>48</ele>
        <time>2022-08-07T08:45:43.000Z</time>
      </trkpt>
      <trkpt lat="48.62713" lon="-4.31822">
        <ele>47.799999237061</ele>
        <time>2022-08-07T08:45:44.000Z</time>
      </trkpt>
      <trkpt lat="48.62712" lon="-4.31831">
        <ele>47.599998474121</ele>
        <time>2022-08-07T08:45:45.000Z</time>
      </trkpt>
      <trkpt lat="48.62711" lon="-4.31837">
        <ele>47.400001525879</ele>
        <time>2022-08-07T08:45:46.000Z</time>
      </trkpt>
      <trkpt lat="48.6271" lon="-4.31844">
        <ele>47</ele>
        <time>2022-08-07T08:45:47.000Z</time>
      </trkpt>
      <trkpt lat="48.62709" lon="-4.31852">
        <ele>47</ele>
        <time>2022-08-07T08:45:48.000Z</time>
      </trkpt>
      <trkpt lat="48.62709" lon="-4.31859">
        <ele>47</ele>
        <time>2022-08-07T08:45:49.000Z</time>
      </trkpt>
      <trkpt lat="48.62708" lon="-4.31865">
        <ele>47</ele>
        <time>2022-08-07T08:45:50.000Z</time>
      </trkpt>
      <trkpt lat="48.62707" lon="-4.31872">
        <ele>46.799999237061</ele>
        <time>2022-08-07T08:45:51.000Z</time>
      </trkpt>
      <trkpt lat="48.62705" lon="-4.31879">
        <ele>46.799999237061</ele>
        <time>2022-08-07T08:45:52.000Z</time>
      </trkpt>
      <trkpt lat="48.62703" lon="-4.31885">
        <ele>46.799999237061</ele>
        <time>2022-08-07T08:45:53.000Z</time>
      </trkpt>
      <trkpt lat="48.62699" lon="-4.3189">
        <ele>46.599998474121</ele>
        <time>2022-08-07T08:45:54.000Z</time>
      </trkpt>
      <trkpt lat="48.62696" lon="-4.31894">
        <ele>46.599998474121</ele>
        <time>2022-08-07T08:45:55.000Z</time>
      </trkpt>
      <trkpt lat="48.62693" lon="-4.31898">
        <ele>46.200000762939</ele>
        <time>2022-08-07T08:45:56.000Z</time>
      </trkpt>
      <trkpt lat="48.62691" lon="-4.31903">
        <ele>46</ele>
        <time>2022-08-07T08:45:57.000Z</time>
      </trkpt>
      <trkpt lat="48.62688" lon="-4.31908">
        <ele>45.799999237061</ele>
        <time>2022-08-07T08:45:58.000Z</time>
      </trkpt>
      <trkpt lat="48.62685" lon="-4.31914">
        <ele>45.400001525879</ele>
        <time>2022-08-07T08:45:59.000Z</time>
      </trkpt>
      <trkpt lat="48.62683" lon="-4.31918">
        <ele>44.599998474121</ele>
        <time>2022-08-07T08:46:00.000Z</time>
      </trkpt>
      <trkpt lat="48.62682" lon="-4.31925">
        <ele>44.400001525879</ele>
        <time>2022-08-07T08:46:01.000Z</time>
      </trkpt>
      <trkpt lat="48.62683" lon="-4.31934">
        <ele>44.200000762939</ele>
        <time>2022-08-07T08:46:02.000Z</time>
      </trkpt>
      <trkpt lat="48.62684" lon="-4.31941">
        <ele>44</ele>
        <time>2022-08-07T08:46:03.000Z</time>
      </trkpt>
      <trkpt lat="48.62685" lon="-4.31948">
        <ele>43.799999237061</ele>
        <time>2022-08-07T08:46:04.000Z</time>
      </trkpt>
      <trkpt lat="48.62687" lon="-4.31953">
        <ele>43.799999237061</ele>
        <time>2022-08-07T08:46:05.000Z</time>
      </trkpt>
      <trkpt lat="48.62688" lon="-4.3196">
        <ele>43.799999237061</ele>
        <time>2022-08-07T08:46:06.000Z</time>
      </trkpt>
      <trkpt lat="48.6269" lon="-4.31965">
        <ele>43.799999237061</ele>
        <time>2022-08-07T08:46:07.000Z</time>
      </trkpt>
      <trkpt lat="48.62691" lon="-4.31971">
        <ele>43.799999237061</ele>
        <time>2022-08-07T08:46:08.000Z</time>
      </trkpt>
      <trkpt lat="48.62692" lon="-4.31975">
        <ele>43.799999237061</ele>
        <time>2022-08-07T08:46:09.000Z</time>
      </trkpt>
      <trkpt lat="48.62693" lon="-4.31979">
        <ele>43.799999237061</ele>
        <time>2022-08-07T08:46:10.000Z</time>
      </trkpt>
      <trkpt lat="48.62694" lon="-4.31985">
        <ele>44</ele>
        <time>2022-08-07T08:46:11.000Z</time>
      </trkpt>
      <trkpt lat="48.62695" lon="-4.3199">
        <ele>44</ele>
        <time>2022-08-07T08:46:12.000Z</time>
      </trkpt>
      <trkpt lat="48.62695" lon="-4.31993">
        <ele>44.200000762939</ele>
        <time>2022-08-07T08:46:13.000Z</time>
      </trkpt>
      <trkpt lat="48.62696" lon="-4.31998">
        <ele>44.400001525879</ele>
        <time>2022-08-07T08:46:14.000Z</time>
      </trkpt>
      <trkpt lat="48.62697" lon="-4.32003">
        <ele>44.599998474121</ele>
        <time>2022-08-07T08:46:15.000Z</time>
      </trkpt>
      <trkpt lat="48.62698" lon="-4.32008">
        <ele>45.200000762939</ele>
        <time>2022-08-07T08:46:16.000Z</time>
      </trkpt>
      <trkpt lat="48.62698" lon="-4.32014">
        <ele>45.400001525879</ele>
        <time>2022-08-07T08:46:17.000Z</time>
      </trkpt>
      <trkpt lat="48.62699" lon="-4.32017">
        <ele>45.599998474121</ele>
        <time>2022-08-07T08:46:18.000Z</time>
      </trkpt>
      <trkpt lat="48.62699" lon="-4.32022">
        <ele>45.799999237061</ele>
        <time>2022-08-07T08:46:19.000Z</time>
      </trkpt>
      <trkpt lat="48.627" lon="-4.32027">
        <ele>46.400001525879</ele>
        <time>2022-08-07T08:46:20.000Z</time>
      </trkpt>
      <trkpt lat="48.627" lon="-4.32033">
        <ele>46.599998474121</ele>
        <time>2022-08-07T08:46:21.000Z</time>
      </trkpt>
      <trkpt lat="48.627" lon="-4.32038">
        <ele>47</ele>
        <time>2022-08-07T08:46:22.000Z</time>
      </trkpt>
      <trkpt lat="48.627" lon="-4.32043">
        <ele>47.400001525879</ele>
        <time>2022-08-07T08:46:23.000Z</time>
      </trkpt>
      <trkpt lat="48.62701" lon="-4.32047">
        <ele>47.599998474121</ele>
        <time>2022-08-07T08:46:24.000Z</time>
      </trkpt>
      <trkpt lat="48.62702" lon="-4.32052">
        <ele>47.799999237061</ele>
        <time>2022-08-07T08:46:25.000Z</time>
      </trkpt>
      <trkpt lat="48.62702" lon="-4.32057">
        <ele>47.799999237061</ele>
        <time>2022-08-07T08:46:26.000Z</time>
      </trkpt>
      <trkpt lat="48.62702" lon="-4.32061">
        <ele>48.200000762939</ele>
        <time>2022-08-07T08:46:27.000Z</time>
      </trkpt>
      <trkpt lat="48.62703" lon="-4.32065">
        <ele>48.400001525879</ele>
        <time>2022-08-07T08:46:28.000Z</time>
      </trkpt>
      <trkpt lat="48.62703" lon="-4.3207">
        <ele>48.599998474121</ele>
        <time>2022-08-07T08:46:29.000Z</time>
      </trkpt>
      <trkpt lat="48.62703" lon="-4.32075">
        <ele>48.799999237061</ele>
        <time>2022-08-07T08:46:30.000Z</time>
      </trkpt>
      <trkpt lat="48.62704" lon="-4.32081">
        <ele>49</ele>
        <time>2022-08-07T08:46:31.000Z</time>
      </trkpt>
      <trkpt lat="48.62704" lon="-4.32086">
        <ele>49.400001525879</ele>
        <time>2022-08-07T08:46:32.000Z</time>
      </trkpt>
      <trkpt lat="48.62704" lon="-4.3209">
        <ele>49.400001525879</ele>
        <time>2022-08-07T08:46:33.000Z</time>
      </trkpt>
      <trkpt lat="48.62704" lon="-4.32095">
        <ele>49.599998474121</ele>
        <time>2022-08-07T08:46:34.000Z</time>
      </trkpt>
      <trkpt lat="48.62704" lon="-4.32101">
        <ele>49.599998474121</ele>
        <time>2022-08-07T08:46:35.000Z</time>
      </trkpt>
      <trkpt lat="48.62705" lon="-4.32107">
        <ele>49.599998474121</ele>
        <time>2022-08-07T08:46:36.000Z</time>
      </trkpt>
      <trkpt lat="48.62705" lon="-4.32111">
        <ele>49.799999237061</ele>
        <time>2022-08-07T08:46:37.000Z</time>
      </trkpt>
      <trkpt lat="48.62706" lon="-4.32116">
        <ele>50</ele>
        <time>2022-08-07T08:46:38.000Z</time>
      </trkpt>
      <trkpt lat="48.62708" lon="-4.32123">
        <ele>50</ele>
        <time>2022-08-07T08:46:39.000Z</time>
      </trkpt>
      <trkpt lat="48.6271" lon="-4.32127">
        <ele>50</ele>
        <time>2022-08-07T08:46:40.000Z</time>
      </trkpt>
      <trkpt lat="48.62711" lon="-4.32133">
        <ele>50.200000762939</ele>
        <time>2022-08-07T08:46:41.000Z</time>
      </trkpt>
      <trkpt lat="48.62712" lon="-4.32138">
        <ele>50.200000762939</ele>
        <time>2022-08-07T08:46:42.000Z</time>
      </trkpt>
      <trkpt lat="48.62714" lon="-4.32144">
        <ele>50.200000762939</ele>
        <time>2022-08-07T08:46:43.000Z</time>
      </trkpt>
      <trkpt lat="48.62715" lon="-4.3215">
        <ele>50.200000762939</ele>
        <time>2022-08-07T08:46:44.000Z</time>
      </trkpt>
      <trkpt lat="48.62715" lon="-4.32157">
        <ele>50.400001525879</ele>
        <time>2022-08-07T08:46:45.000Z</time>
      </trkpt>
      <trkpt lat="48.62715" lon="-4.32163">
        <ele>50.400001525879</ele>
        <time>2022-08-07T08:46:46.000Z</time>
      </trkpt>
      <trkpt lat="48.62715" lon="-4.32168">
        <ele>50.400001525879</ele>
        <time>2022-08-07T08:46:47.000Z</time>
      </trkpt>
      <trkpt lat="48.62715" lon="-4.32173">
        <ele>50.400001525879</ele>
        <time>2022-08-07T08:46:48.000Z</time>
      </trkpt>
      <trkpt lat="48.62715" lon="-4.32179">
        <ele>50.599998474121</ele>
        <time>2022-08-07T08:46:49.000Z</time>
      </trkpt>
      <trkpt lat="48.62715" lon="-4.32186">
        <ele>50.599998474121</ele>
        <time>2022-08-07T08:46:50.000Z</time>
      </trkpt>
      <trkpt lat="48.62715" lon="-4.32191">
        <ele>50.599998474121</ele>
        <time>2022-08-07T08:46:51.000Z</time>
      </trkpt>
      <trkpt lat="48.62715" lon="-4.32196">
        <ele>50.799999237061</ele>
        <time>2022-08-07T08:46:52.000Z</time>
      </trkpt>
      <trkpt lat="48.62716" lon="-4.32203">
        <ele>50.799999237061</ele>
        <time>2022-08-07T08:46:53.000Z</time>
      </trkpt>
      <trkpt lat="48.62717" lon="-4.32209">
        <ele>51</ele>
        <time>2022-08-07T08:46:54.000Z</time>
      </trkpt>
      <trkpt lat="48.62717" lon="-4.32214">
        <ele>51</ele>
        <time>2022-08-07T08:46:55.000Z</time>
      </trkpt>
      <trkpt lat="48.62718" lon="-4.32219">
        <ele>51</ele>
        <time>2022-08-07T08:46:56.000Z</time>
      </trkpt>
      <trkpt lat="48.62717" lon="-4.32225">
        <ele>51</ele>
        <time>2022-08-07T08:46:57.000Z</time>
      </trkpt>
      <trkpt lat="48.62716" lon="-4.3223">
        <ele>51.200000762939</ele>
        <time>2022-08-07T08:46:58.000Z</time>
      </trkpt>
      <trkpt lat="48.62714" lon="-4.32233">
        <ele>51.400001525879</ele>
        <time>2022-08-07T08:46:59.000Z</time>
      </trkpt>
      <trkpt lat="48.62713" lon="-4.32236">
        <ele>51.400001525879</ele>
        <time>2022-08-07T08:47:00.000Z</time>
      </trkpt>
      <trkpt lat="48.62712" lon="-4.3224">
        <ele>51.599998474121</ele>
        <time>2022-08-07T08:47:01.000Z</time>
      </trkpt>
      <trkpt lat="48.62711" lon="-4.32243">
        <ele>51.799999237061</ele>
        <time>2022-08-07T08:47:02.000Z</time>
      </trkpt>
      <trkpt lat="48.6271" lon="-4.32246">
        <ele>52</ele>
        <time>2022-08-07T08:47:03.000Z</time>
      </trkpt>
      <trkpt lat="48.62709" lon="-4.32249">
        <ele>52</ele>
        <time>2022-08-07T08:47:04.000Z</time>
      </trkpt>
      <trkpt lat="48.62708" lon="-4.32252">
        <ele>52.400001525879</ele>
        <time>2022-08-07T08:47:05.000Z</time>
      </trkpt>
      <trkpt lat="48.62706" lon="-4.32256">
        <ele>52.400001525879</ele>
        <time>2022-08-07T08:47:06.000Z</time>
      </trkpt>
      <trkpt lat="48.62704" lon="-4.3226">
        <ele>52.599998474121</ele>
        <time>2022-08-07T08:47:07.000Z</time>
      </trkpt>
      <trkpt lat="48.62703" lon="-4.32264">
        <ele>52.799999237061</ele>
        <time>2022-08-07T08:47:08.000Z</time>
      </trkpt>
      <trkpt lat="48.62701" lon="-4.32267">
        <ele>52.799999237061</ele>
        <time>2022-08-07T08:47:09.000Z</time>
      </trkpt>
      <trkpt lat="48.62698" lon="-4.32272">
        <ele>53</ele>
        <time>2022-08-07T08:47:10.000Z</time>
      </trkpt>
      <trkpt lat="48.62696" lon="-4.32276">
        <ele>53</ele>
        <time>2022-08-07T08:47:11.000Z</time>
      </trkpt>
      <trkpt lat="48.62692" lon="-4.32281">
        <ele>53.200000762939</ele>
        <time>2022-08-07T08:47:12.000Z</time>
      </trkpt>
      <trkpt lat="48.6269" lon="-4.32285">
        <ele>53.200000762939</ele>
        <time>2022-08-07T08:47:13.000Z</time>
      </trkpt>
      <trkpt lat="48.62688" lon="-4.32288">
        <ele>53.400001525879</ele>
        <time>2022-08-07T08:47:14.000Z</time>
      </trkpt>
      <trkpt lat="48.62686" lon="-4.32292">
        <ele>53.400001525879</ele>
        <time>2022-08-07T08:47:15.000Z</time>
      </trkpt>
      <trkpt lat="48.62684" lon="-4.32296">
        <ele>53.599998474121</ele>
        <time>2022-08-07T08:47:16.000Z</time>
      </trkpt>
      <trkpt lat="48.62682" lon="-4.323">
        <ele>53.599998474121</ele>
        <time>2022-08-07T08:47:17.000Z</time>
      </trkpt>
      <trkpt lat="48.62679" lon="-4.32304">
        <ele>53.799999237061</ele>
        <time>2022-08-07T08:47:18.000Z</time>
      </trkpt>
      <trkpt lat="48.62678" lon="-4.32307">
        <ele>54</ele>
        <time>2022-08-07T08:47:19.000Z</time>
      </trkpt>
      <trkpt lat="48.62676" lon="-4.32312">
        <ele>54</ele>
        <time>2022-08-07T08:47:20.000Z</time>
      </trkpt>
      <trkpt lat="48.62673" lon="-4.32316">
        <ele>54</ele>
        <time>2022-08-07T08:47:21.000Z</time>
      </trkpt>
      <trkpt lat="48.62671" lon="-4.3232">
        <ele>54</ele>
        <time>2022-08-07T08:47:22.000Z</time>
      </trkpt>
      <trkpt lat="48.62668" lon="-4.32326">
        <ele>54.200000762939</ele>
        <time>2022-08-07T08:47:23.000Z</time>
      </trkpt>
      <trkpt lat="48.62666" lon="-4.32331">
        <ele>54.200000762939</ele>
        <time>2022-08-07T08:47:24.000Z</time>
      </trkpt>
      <trkpt lat="48.62663" lon="-4.32336">
        <ele>54.200000762939</ele>
        <time>2022-08-07T08:47:25.000Z</time>
      </trkpt>
      <trkpt lat="48.62661" lon="-4.32341">
        <ele>54.200000762939</ele>
        <time>2022-08-07T08:47:26.000Z</time>
      </trkpt>
      <trkpt lat="48.62659" lon="-4.32346">
        <ele>54.200000762939</ele>
        <time>2022-08-07T08:47:27.000Z</time>
      </trkpt>
      <trkpt lat="48.62656" lon="-4.32351">
        <ele>54.200000762939</ele>
        <time>2022-08-07T08:47:28.000Z</time>
      </trkpt>
      <trkpt lat="48.62654" lon="-4.32355">
        <ele>54.200000762939</ele>
        <time>2022-08-07T08:47:29.000Z</time>
      </trkpt>
      <trkpt lat="48.62652" lon="-4.3236">
        <ele>54.200000762939</ele>
        <time>2022-08-07T08:47:30.000Z</time>
      </trkpt>
      <trkpt lat="48.62649" lon="-4.32366">
        <ele>54.200000762939</ele>
        <time>2022-08-07T08:47:31.000Z</time>
      </trkpt>
      <trkpt lat="48.62646" lon="-4.3237">
        <ele>54.200000762939</ele>
        <time>2022-08-07T08:47:32.000Z</time>
      </trkpt>
      <trkpt lat="48.62643" lon="-4.32373">
        <ele>54.200000762939</ele>
        <time>2022-08-07T08:47:33.000Z</time>
      </trkpt>
      <trkpt lat="48.62641" lon="-4.32377">
        <ele>54</ele>
        <time>2022-08-07T08:47:34.000Z</time>
      </trkpt>
      <trkpt lat="48.62639" lon="-4.32381">
        <ele>53.799999237061</ele>
        <time>2022-08-07T08:47:35.000Z</time>
      </trkpt>
      <trkpt lat="48.62636" lon="-4.32386">
        <ele>53.799999237061</ele>
        <time>2022-08-07T08:47:36.000Z</time>
      </trkpt>
      <trkpt lat="48.62634" lon="-4.32391">
        <ele>53.799999237061</ele>
        <time>2022-08-07T08:47:37.000Z</time>
      </trkpt>
      <trkpt lat="48.62633" lon="-4.32396">
        <ele>53.799999237061</ele>
        <time>2022-08-07T08:47:38.000Z</time>
      </trkpt>
      <trkpt lat="48.62631" lon="-4.32401">
        <ele>53.799999237061</ele>
        <time>2022-08-07T08:47:39.000Z</time>
      </trkpt>
      <trkpt lat="48.62629" lon="-4.32406">
        <ele>53.599998474121</ele>
        <time>2022-08-07T08:47:40.000Z</time>
      </trkpt>
      <trkpt lat="48.62627" lon="-4.32412">
        <ele>53.599998474121</ele>
        <time>2022-08-07T08:47:41.000Z</time>
      </trkpt>
      <trkpt lat="48.62626" lon="-4.32417">
        <ele>53.599998474121</ele>
        <time>2022-08-07T08:47:42.000Z</time>
      </trkpt>
      <trkpt lat="48.62625" lon="-4.32422">
        <ele>53.400001525879</ele>
        <time>2022-08-07T08:47:43.000Z</time>
      </trkpt>
      <trkpt lat="48.62624" lon="-4.32427">
        <ele>53.400001525879</ele>
        <time>2022-08-07T08:47:44.000Z</time>
      </trkpt>
      <trkpt lat="48.62623" lon="-4.32432">
        <ele>53.400001525879</ele>
        <time>2022-08-07T08:47:45.000Z</time>
      </trkpt>
      <trkpt lat="48.62622" lon="-4.32437">
        <ele>53.400001525879</ele>
        <time>2022-08-07T08:47:46.000Z</time>
      </trkpt>
      <trkpt lat="48.62621" lon="-4.32442">
        <ele>53.400001525879</ele>
        <time>2022-08-07T08:47:47.000Z</time>
      </trkpt>
      <trkpt lat="48.6262" lon="-4.32446">
        <ele>53.400001525879</ele>
        <time>2022-08-07T08:47:48.000Z</time>
      </trkpt>
      <trkpt lat="48.6262" lon="-4.32451">
        <ele>53.400001525879</ele>
        <time>2022-08-07T08:47:49.000Z</time>
      </trkpt>
      <trkpt lat="48.62619" lon="-4.32457">
        <ele>53.400001525879</ele>
        <time>2022-08-07T08:47:50.000Z</time>
      </trkpt>
      <trkpt lat="48.62618" lon="-4.32463">
        <ele>53.200000762939</ele>
        <time>2022-08-07T08:47:51.000Z</time>
      </trkpt>
      <trkpt lat="48.62618" lon="-4.32469">
        <ele>53.200000762939</ele>
        <time>2022-08-07T08:47:52.000Z</time>
      </trkpt>
      <trkpt lat="48.62618" lon="-4.32475">
        <ele>53.200000762939</ele>
        <time>2022-08-07T08:47:53.000Z</time>
      </trkpt>
      <trkpt lat="48.62619" lon="-4.32481">
        <ele>53.200000762939</ele>
        <time>2022-08-07T08:47:54.000Z</time>
      </trkpt>
      <trkpt lat="48.62619" lon="-4.32488">
        <ele>53.200000762939</ele>
        <time>2022-08-07T08:47:55.000Z</time>
      </trkpt>
      <trkpt lat="48.62619" lon="-4.32496">
        <ele>53.200000762939</ele>
        <time>2022-08-07T08:47:56.000Z</time>
      </trkpt>
      <trkpt lat="48.62619" lon="-4.32503">
        <ele>53.200000762939</ele>
        <time>2022-08-07T08:47:57.000Z</time>
      </trkpt>
      <trkpt lat="48.62619" lon="-4.32508">
        <ele>53.200000762939</ele>
        <time>2022-08-07T08:47:58.000Z</time>
      </trkpt>
      <trkpt lat="48.62618" lon="-4.32514">
        <ele>53.200000762939</ele>
        <time>2022-08-07T08:47:59.000Z</time>
      </trkpt>
      <trkpt lat="48.62618" lon="-4.32521">
        <ele>53.200000762939</ele>
        <time>2022-08-07T08:48:00.000Z</time>
      </trkpt>
      <trkpt lat="48.62617" lon="-4.32526">
        <ele>53.200000762939</ele>
        <time>2022-08-07T08:48:01.000Z</time>
      </trkpt>
      <trkpt lat="48.62617" lon="-4.32531">
        <ele>53.200000762939</ele>
        <time>2022-08-07T08:48:02.000Z</time>
      </trkpt>
      <trkpt lat="48.62616" lon="-4.32536">
        <ele>53.200000762939</ele>
        <time>2022-08-07T08:48:03.000Z</time>
      </trkpt>
      <trkpt lat="48.62615" lon="-4.32541">
        <ele>53</ele>
        <time>2022-08-07T08:48:04.000Z</time>
      </trkpt>
      <trkpt lat="48.62614" lon="-4.32546">
        <ele>52.799999237061</ele>
        <time>2022-08-07T08:48:05.000Z</time>
      </trkpt>
      <trkpt lat="48.62612" lon="-4.32552">
        <ele>52.599998474121</ele>
        <time>2022-08-07T08:48:06.000Z</time>
      </trkpt>
      <trkpt lat="48.62611" lon="-4.32556">
        <ele>52.599998474121</ele>
        <time>2022-08-07T08:48:07.000Z</time>
      </trkpt>
      <trkpt lat="48.62611" lon="-4.3256">
        <ele>52.400001525879</ele>
        <time>2022-08-07T08:48:08.000Z</time>
      </trkpt>
      <trkpt lat="48.6261" lon="-4.32565">
        <ele>52.400001525879</ele>
        <time>2022-08-07T08:48:09.000Z</time>
      </trkpt>
      <trkpt lat="48.6261" lon="-4.3257">
        <ele>52.200000762939</ele>
        <time>2022-08-07T08:48:10.000Z</time>
      </trkpt>
      <trkpt lat="48.62609" lon="-4.32574">
        <ele>52.200000762939</ele>
        <time>2022-08-07T08:48:11.000Z</time>
      </trkpt>
      <trkpt lat="48.62609" lon="-4.32577">
        <ele>52</ele>
        <time>2022-08-07T08:48:12.000Z</time>
      </trkpt>
      <trkpt lat="48.62608" lon="-4.32582">
        <ele>52</ele>
        <time>2022-08-07T08:48:13.000Z</time>
      </trkpt>
      <trkpt lat="48.62608" lon="-4.32588">
        <ele>52</ele>
        <time>2022-08-07T08:48:14.000Z</time>
      </trkpt>
      <trkpt lat="48.62607" lon="-4.32595">
        <ele>52</ele>
        <time>2022-08-07T08:48:15.000Z</time>
      </trkpt>
      <trkpt lat="48.62606" lon="-4.32601">
        <ele>52</ele>
        <time>2022-08-07T08:48:16.000Z</time>
      </trkpt>
      <trkpt lat="48.62606" lon="-4.32607">
        <ele>51.799999237061</ele>
        <time>2022-08-07T08:48:17.000Z</time>
      </trkpt>
      <trkpt lat="48.62605" lon="-4.32616">
        <ele>51.799999237061</ele>
        <time>2022-08-07T08:48:18.000Z</time>
      </trkpt>
      <trkpt lat="48.62605" lon="-4.32623">
        <ele>51.799999237061</ele>
        <time>2022-08-07T08:48:19.000Z</time>
      </trkpt>
      <trkpt lat="48.62604" lon="-4.32632">
        <ele>52</ele>
        <time>2022-08-07T08:48:20.000Z</time>
      </trkpt>
      <trkpt lat="48.62604" lon="-4.32637">
        <ele>52</ele>
        <time>2022-08-07T08:48:21.000Z</time>
      </trkpt>
      <trkpt lat="48.62604" lon="-4.32644">
        <ele>52.200000762939</ele>
        <time>2022-08-07T08:48:22.000Z</time>
      </trkpt>
      <trkpt lat="48.62603" lon="-4.3265">
        <ele>52.200000762939</ele>
        <time>2022-08-07T08:48:23.000Z</time>
      </trkpt>
      <trkpt lat="48.62603" lon="-4.32656">
        <ele>52.400001525879</ele>
        <time>2022-08-07T08:48:24.000Z</time>
      </trkpt>
      <trkpt lat="48.62603" lon="-4.32661">
        <ele>52.599998474121</ele>
        <time>2022-08-07T08:48:25.000Z</time>
      </trkpt>
      <trkpt lat="48.62603" lon="-4.32666">
        <ele>53</ele>
        <time>2022-08-07T08:48:26.000Z</time>
      </trkpt>
      <trkpt lat="48.62602" lon="-4.32672">
        <ele>53.200000762939</ele>
        <time>2022-08-07T08:48:27.000Z</time>
      </trkpt>
      <trkpt lat="48.62602" lon="-4.32677">
        <ele>53.400001525879</ele>
        <time>2022-08-07T08:48:28.000Z</time>
      </trkpt>
      <trkpt lat="48.62602" lon="-4.32683">
        <ele>53.400001525879</ele>
        <time>2022-08-07T08:48:29.000Z</time>
      </trkpt>
      <trkpt lat="48.62602" lon="-4.32688">
        <ele>53.599998474121</ele>
        <time>2022-08-07T08:48:30.000Z</time>
      </trkpt>
      <trkpt lat="48.62602" lon="-4.32694">
        <ele>53.599998474121</ele>
        <time>2022-08-07T08:48:31.000Z</time>
      </trkpt>
      <trkpt lat="48.62602" lon="-4.32699">
        <ele>53.799999237061</ele>
        <time>2022-08-07T08:48:32.000Z</time>
      </trkpt>
      <trkpt lat="48.62602" lon="-4.32704">
        <ele>54</ele>
        <time>2022-08-07T08:48:33.000Z</time>
      </trkpt>
      <trkpt lat="48.62602" lon="-4.32709">
        <ele>54</ele>
        <time>2022-08-07T08:48:34.000Z</time>
      </trkpt>
      <trkpt lat="48.62603" lon="-4.32715">
        <ele>54.200000762939</ele>
        <time>2022-08-07T08:48:35.000Z</time>
      </trkpt>
      <trkpt lat="48.62603" lon="-4.32721">
        <ele>54.200000762939</ele>
        <time>2022-08-07T08:48:36.000Z</time>
      </trkpt>
      <trkpt lat="48.62603" lon="-4.32727">
        <ele>54.200000762939</ele>
        <time>2022-08-07T08:48:37.000Z</time>
      </trkpt>
      <trkpt lat="48.62604" lon="-4.32734">
        <ele>54.200000762939</ele>
        <time>2022-08-07T08:48:38.000Z</time>
      </trkpt>
      <trkpt lat="48.62604" lon="-4.32739">
        <ele>54.400001525879</ele>
        <time>2022-08-07T08:48:39.000Z</time>
      </trkpt>
      <trkpt lat="48.62604" lon="-4.32743">
        <ele>54.599998474121</ele>
        <time>2022-08-07T08:48:40.000Z</time>
      </trkpt>
      <trkpt lat="48.62604" lon="-4.3275">
        <ele>54.599998474121</ele>
        <time>2022-08-07T08:48:41.000Z</time>
      </trkpt>
      <trkpt lat="48.62605" lon="-4.32757">
        <ele>54.799999237061</ele>
        <time>2022-08-07T08:48:42.000Z</time>
      </trkpt>
      <trkpt lat="48.62605" lon="-4.32762">
        <ele>55</ele>
        <time>2022-08-07T08:48:43.000Z</time>
      </trkpt>
      <trkpt lat="48.62606" lon="-4.32767">
        <ele>55.400001525879</ele>
        <time>2022-08-07T08:48:44.000Z</time>
      </trkpt>
      <trkpt lat="48.62606" lon="-4.32772">
        <ele>55.599998474121</ele>
        <time>2022-08-07T08:48:45.000Z</time>
      </trkpt>
      <trkpt lat="48.62606" lon="-4.32778">
        <ele>55.799999237061</ele>
        <time>2022-08-07T08:48:46.000Z</time>
      </trkpt>
      <trkpt lat="48.62606" lon="-4.32783">
        <ele>56</ele>
        <time>2022-08-07T08:48:47.000Z</time>
      </trkpt>
      <trkpt lat="48.62607" lon="-4.32789">
        <ele>56</ele>
        <time>2022-08-07T08:48:48.000Z</time>
      </trkpt>
      <trkpt lat="48.62607" lon="-4.32796">
        <ele>56</ele>
        <time>2022-08-07T08:48:49.000Z</time>
      </trkpt>
      <trkpt lat="48.62607" lon="-4.32801">
        <ele>56</ele>
        <time>2022-08-07T08:48:50.000Z</time>
      </trkpt>
      <trkpt lat="48.62607" lon="-4.32806">
        <ele>56</ele>
        <time>2022-08-07T08:48:51.000Z</time>
      </trkpt>
      <trkpt lat="48.62608" lon="-4.32812">
        <ele>56</ele>
        <time>2022-08-07T08:48:52.000Z</time>
      </trkpt>
      <trkpt lat="48.62608" lon="-4.32819">
        <ele>56.200000762939</ele>
        <time>2022-08-07T08:48:53.000Z</time>
      </trkpt>
      <trkpt lat="48.62608" lon="-4.32824">
        <ele>56.200000762939</ele>
        <time>2022-08-07T08:48:54.000Z</time>
      </trkpt>
      <trkpt lat="48.62609" lon="-4.3283">
        <ele>56.599998474121</ele>
        <time>2022-08-07T08:48:55.000Z</time>
      </trkpt>
      <trkpt lat="48.62609" lon="-4.32836">
        <ele>56.599998474121</ele>
        <time>2022-08-07T08:48:56.000Z</time>
      </trkpt>
      <trkpt lat="48.6261" lon="-4.32841">
        <ele>56.799999237061</ele>
        <time>2022-08-07T08:48:57.000Z</time>
      </trkpt>
      <trkpt lat="48.6261" lon="-4.32847">
        <ele>57</ele>
        <time>2022-08-07T08:48:58.000Z</time>
      </trkpt>
      <trkpt lat="48.62611" lon="-4.32851">
        <ele>57</ele>
        <time>2022-08-07T08:48:59.000Z</time>
      </trkpt>
      <trkpt lat="48.62611" lon="-4.32856">
        <ele>57.200000762939</ele>
        <time>2022-08-07T08:49:00.000Z</time>
      </trkpt>
      <trkpt lat="48.62612" lon="-4.32863">
        <ele>57.200000762939</ele>
        <time>2022-08-07T08:49:01.000Z</time>
      </trkpt>
      <trkpt lat="48.62612" lon="-4.32868">
        <ele>57.400001525879</ele>
        <time>2022-08-07T08:49:02.000Z</time>
      </trkpt>
      <trkpt lat="48.62613" lon="-4.32872">
        <ele>57.599998474121</ele>
        <time>2022-08-07T08:49:03.000Z</time>
      </trkpt>
      <trkpt lat="48.62613" lon="-4.32878">
        <ele>57.599998474121</ele>
        <time>2022-08-07T08:49:04.000Z</time>
      </trkpt>
      <trkpt lat="48.62613" lon="-4.32884">
        <ele>57.599998474121</ele>
        <time>2022-08-07T08:49:05.000Z</time>
      </trkpt>
      <trkpt lat="48.62614" lon="-4.3289">
        <ele>57.799999237061</ele>
        <time>2022-08-07T08:49:06.000Z</time>
      </trkpt>
      <trkpt lat="48.62614" lon="-4.32897">
        <ele>57.799999237061</ele>
        <time>2022-08-07T08:49:07.000Z</time>
      </trkpt>
      <trkpt lat="48.62614" lon="-4.32902">
        <ele>57.799999237061</ele>
        <time>2022-08-07T08:49:08.000Z</time>
      </trkpt>
      <trkpt lat="48.62614" lon="-4.32907">
        <ele>57.799999237061</ele>
        <time>2022-08-07T08:49:09.000Z</time>
      </trkpt>
      <trkpt lat="48.62614" lon="-4.32913">
        <ele>57.799999237061</ele>
        <time>2022-08-07T08:49:10.000Z</time>
      </trkpt>
      <trkpt lat="48.62615" lon="-4.32919">
        <ele>57.799999237061</ele>
        <time>2022-08-07T08:49:11.000Z</time>
      </trkpt>
      <trkpt lat="48.62615" lon="-4.32924">
        <ele>57.799999237061</ele>
        <time>2022-08-07T08:49:12.000Z</time>
      </trkpt>
      <trkpt lat="48.62614" lon="-4.3293">
        <ele>57.799999237061</ele>
        <time>2022-08-07T08:49:13.000Z</time>
      </trkpt>
      <trkpt lat="48.62614" lon="-4.32936">
        <ele>57.799999237061</ele>
        <time>2022-08-07T08:49:14.000Z</time>
      </trkpt>
      <trkpt lat="48.62614" lon="-4.32941">
        <ele>57.799999237061</ele>
        <time>2022-08-07T08:49:15.000Z</time>
      </trkpt>
      <trkpt lat="48.62614" lon="-4.32945">
        <ele>57.599998474121</ele>
        <time>2022-08-07T08:49:16.000Z</time>
      </trkpt>
      <trkpt lat="48.62614" lon="-4.3295">
        <ele>57.599998474121</ele>
        <time>2022-08-07T08:49:17.000Z</time>
      </trkpt>
      <trkpt lat="48.62614" lon="-4.32954">
        <ele>57.599998474121</ele>
        <time>2022-08-07T08:49:18.000Z</time>
      </trkpt>
      <trkpt lat="48.62614" lon="-4.32957">
        <ele>57.400001525879</ele>
        <time>2022-08-07T08:49:19.000Z</time>
      </trkpt>
      <trkpt lat="48.62614" lon="-4.32962">
        <ele>57.400001525879</ele>
        <time>2022-08-07T08:49:20.000Z</time>
      </trkpt>
      <trkpt lat="48.62614" lon="-4.32964">
        <ele>57.400001525879</ele>
        <time>2022-08-07T08:49:21.000Z</time>
      </trkpt>
      <trkpt lat="48.62614" lon="-4.32967">
        <ele>57.400001525879</ele>
        <time>2022-08-07T08:49:22.000Z</time>
      </trkpt>
      <trkpt lat="48.62614" lon="-4.32968">
        <ele>57.400001525879</ele>
        <time>2022-08-07T08:49:23.000Z</time>
      </trkpt>
      <trkpt lat="48.62614" lon="-4.32971">
        <ele>57</ele>
        <time>2022-08-07T08:49:56.000Z</time>
      </trkpt>
      <trkpt lat="48.62613" lon="-4.32972">
        <ele>57</ele>
        <time>2022-08-07T08:49:57.000Z</time>
      </trkpt>
      <trkpt lat="48.62612" lon="-4.32974">
        <ele>57</ele>
        <time>2022-08-07T08:49:58.000Z</time>
      </trkpt>
      <trkpt lat="48.62611" lon="-4.32977">
        <ele>57</ele>
        <time>2022-08-07T08:49:59.000Z</time>
      </trkpt>
      <trkpt lat="48.62608" lon="-4.32979">
        <ele>57</ele>
        <time>2022-08-07T08:50:00.000Z</time>
      </trkpt>
      <trkpt lat="48.62605" lon="-4.32981">
        <ele>57</ele>
        <time>2022-08-07T08:50:01.000Z</time>
      </trkpt>
      <trkpt lat="48.62602" lon="-4.32982">
        <ele>57</ele>
        <time>2022-08-07T08:50:02.000Z</time>
      </trkpt>
      <trkpt lat="48.62598" lon="-4.32982">
        <ele>57</ele>
        <time>2022-08-07T08:50:03.000Z</time>
      </trkpt>
      <trkpt lat="48.62593" lon="-4.32984">
        <ele>57</ele>
        <time>2022-08-07T08:50:04.000Z</time>
      </trkpt>
      <trkpt lat="48.62589" lon="-4.32985">
        <ele>57</ele>
        <time>2022-08-07T08:50:05.000Z</time>
      </trkpt>
      <trkpt lat="48.62585" lon="-4.32986">
        <ele>57</ele>
        <time>2022-08-07T08:50:06.000Z</time>
      </trkpt>
      <trkpt lat="48.62581" lon="-4.32987">
        <ele>57.200000762939</ele>
        <time>2022-08-07T08:50:07.000Z</time>
      </trkpt>
      <trkpt lat="48.62575" lon="-4.32987">
        <ele>57.200000762939</ele>
        <time>2022-08-07T08:50:08.000Z</time>
      </trkpt>
      <trkpt lat="48.6257" lon="-4.32988">
        <ele>57.400001525879</ele>
        <time>2022-08-07T08:50:09.000Z</time>
      </trkpt>
      <trkpt lat="48.62567" lon="-4.32988">
        <ele>57.799999237061</ele>
        <time>2022-08-07T08:50:10.000Z</time>
      </trkpt>
      <trkpt lat="48.62562" lon="-4.32989">
        <ele>58</ele>
        <time>2022-08-07T08:50:11.000Z</time>
      </trkpt>
      <trkpt lat="48.62558" lon="-4.32989">
        <ele>58.200000762939</ele>
        <time>2022-08-07T08:50:12.000Z</time>
      </trkpt>
      <trkpt lat="48.62553" lon="-4.3299">
        <ele>58.400001525879</ele>
        <time>2022-08-07T08:50:13.000Z</time>
      </trkpt>
      <trkpt lat="48.62548" lon="-4.3299">
        <ele>58.599998474121</ele>
        <time>2022-08-07T08:50:14.000Z</time>
      </trkpt>
      <trkpt lat="48.62544" lon="-4.3299">
        <ele>58.599998474121</ele>
        <time>2022-08-07T08:50:15.000Z</time>
      </trkpt>
      <trkpt lat="48.62539" lon="-4.3299">
        <ele>58.799999237061</ele>
        <time>2022-08-07T08:50:16.000Z</time>
      </trkpt>
      <trkpt lat="48.62533" lon="-4.32991">
        <ele>59</ele>
        <time>2022-08-07T08:50:17.000Z</time>
      </trkpt>
      <trkpt lat="48.62528" lon="-4.32991">
        <ele>59.200000762939</ele>
        <time>2022-08-07T08:50:18.000Z</time>
      </trkpt>
      <trkpt lat="48.62524" lon="-4.32991">
        <ele>59.599998474121</ele>
        <time>2022-08-07T08:50:19.000Z</time>
      </trkpt>
      <trkpt lat="48.62519" lon="-4.32992">
        <ele>59.599998474121</ele>
        <time>2022-08-07T08:50:20.000Z</time>
      </trkpt>
      <trkpt lat="48.62514" lon="-4.32992">
        <ele>59.799999237061</ele>
        <time>2022-08-07T08:50:21.000Z</time>
      </trkpt>
      <trkpt lat="48.62509" lon="-4.32993">
        <ele>59.799999237061</ele>
        <time>2022-08-07T08:50:22.000Z</time>
      </trkpt>
      <trkpt lat="48.62503" lon="-4.32993">
        <ele>60</ele>
        <time>2022-08-07T08:50:23.000Z</time>
      </trkpt>
      <trkpt lat="48.62499" lon="-4.32993">
        <ele>60.200000762939</ele>
        <time>2022-08-07T08:50:24.000Z</time>
      </trkpt>
      <trkpt lat="48.62494" lon="-4.32994">
        <ele>60.400001525879</ele>
        <time>2022-08-07T08:50:25.000Z</time>
      </trkpt>
      <trkpt lat="48.62487" lon="-4.32994">
        <ele>60.599998474121</ele>
        <time>2022-08-07T08:50:26.000Z</time>
      </trkpt>
      <trkpt lat="48.62483" lon="-4.32994">
        <ele>60.799999237061</ele>
        <time>2022-08-07T08:50:27.000Z</time>
      </trkpt>
      <trkpt lat="48.62479" lon="-4.32994">
        <ele>60.799999237061</ele>
        <time>2022-08-07T08:50:28.000Z</time>
      </trkpt>
      <trkpt lat="48.62474" lon="-4.32995">
        <ele>61</ele>
        <time>2022-08-07T08:50:29.000Z</time>
      </trkpt>
      <trkpt lat="48.62469" lon="-4.32995">
        <ele>61.200000762939</ele>
        <time>2022-08-07T08:50:30.000Z</time>
      </trkpt>
      <trkpt lat="48.62463" lon="-4.32995">
        <ele>61.400001525879</ele>
        <time>2022-08-07T08:50:31.000Z</time>
      </trkpt>
      <trkpt lat="48.62458" lon="-4.32995">
        <ele>61.599998474121</ele>
        <time>2022-08-07T08:50:32.000Z</time>
      </trkpt>
      <trkpt lat="48.62453" lon="-4.32995">
        <ele>61.599998474121</ele>
        <time>2022-08-07T08:50:33.000Z</time>
      </trkpt>
      <trkpt lat="48.62448" lon="-4.32996">
        <ele>61.599998474121</ele>
        <time>2022-08-07T08:50:34.000Z</time>
      </trkpt>
      <trkpt lat="48.62442" lon="-4.32996">
        <ele>61.799999237061</ele>
        <time>2022-08-07T08:50:35.000Z</time>
      </trkpt>
      <trkpt lat="48.62436" lon="-4.32996">
        <ele>61.799999237061</ele>
        <time>2022-08-07T08:50:36.000Z</time>
      </trkpt>
      <trkpt lat="48.62429" lon="-4.32997">
        <ele>61.799999237061</ele>
        <time>2022-08-07T08:50:37.000Z</time>
      </trkpt>
      <trkpt lat="48.62424" lon="-4.32997">
        <ele>62</ele>
        <time>2022-08-07T08:50:38.000Z</time>
      </trkpt>
      <trkpt lat="48.62418" lon="-4.32998">
        <ele>62</ele>
        <time>2022-08-07T08:50:39.000Z</time>
      </trkpt>
      <trkpt lat="48.6241" lon="-4.32998">
        <ele>62</ele>
        <time>2022-08-07T08:50:40.000Z</time>
      </trkpt>
      <trkpt lat="48.62405" lon="-4.32999">
        <ele>62</ele>
        <time>2022-08-07T08:50:41.000Z</time>
      </trkpt>
      <trkpt lat="48.62397" lon="-4.32999">
        <ele>62.200000762939</ele>
        <time>2022-08-07T08:50:42.000Z</time>
      </trkpt>
      <trkpt lat="48.62391" lon="-4.32999">
        <ele>62.200000762939</ele>
        <time>2022-08-07T08:50:43.000Z</time>
      </trkpt>
      <trkpt lat="48.62384" lon="-4.32999">
        <ele>62.200000762939</ele>
        <time>2022-08-07T08:50:44.000Z</time>
      </trkpt>
      <trkpt lat="48.62376" lon="-4.33">
        <ele>62.200000762939</ele>
        <time>2022-08-07T08:50:45.000Z</time>
      </trkpt>
      <trkpt lat="48.62371" lon="-4.33">
        <ele>62.200000762939</ele>
        <time>2022-08-07T08:50:46.000Z</time>
      </trkpt>
      <trkpt lat="48.62364" lon="-4.33">
        <ele>62.200000762939</ele>
        <time>2022-08-07T08:50:47.000Z</time>
      </trkpt>
      <trkpt lat="48.62357" lon="-4.33001">
        <ele>62.400001525879</ele>
        <time>2022-08-07T08:50:48.000Z</time>
      </trkpt>
      <trkpt lat="48.6235" lon="-4.33001">
        <ele>62.400001525879</ele>
        <time>2022-08-07T08:50:49.000Z</time>
      </trkpt>
      <trkpt lat="48.62343" lon="-4.33001">
        <ele>62.400001525879</ele>
        <time>2022-08-07T08:50:50.000Z</time>
      </trkpt>
      <trkpt lat="48.62335" lon="-4.33002">
        <ele>62.400001525879</ele>
        <time>2022-08-07T08:50:51.000Z</time>
      </trkpt>
      <trkpt lat="48.6233" lon="-4.33002">
        <ele>62.400001525879</ele>
        <time>2022-08-07T08:50:52.000Z</time>
      </trkpt>
      <trkpt lat="48.62322" lon="-4.33003">
        <ele>62.400001525879</ele>
        <time>2022-08-07T08:50:53.000Z</time>
      </trkpt>
      <trkpt lat="48.62316" lon="-4.33003">
        <ele>62.400001525879</ele>
        <time>2022-08-07T08:50:54.000Z</time>
      </trkpt>
      <trkpt lat="48.62309" lon="-4.33003">
        <ele>62.400001525879</ele>
        <time>2022-08-07T08:50:55.000Z</time>
      </trkpt>
      <trkpt lat="48.623" lon="-4.33004">
        <ele>62.400001525879</ele>
        <time>2022-08-07T08:50:56.000Z</time>
      </trkpt>
      <trkpt lat="48.62295" lon="-4.33004">
        <ele>62.400001525879</ele>
        <time>2022-08-07T08:50:57.000Z</time>
      </trkpt>
      <trkpt lat="48.62287" lon="-4.33004">
        <ele>62.400001525879</ele>
        <time>2022-08-07T08:50:58.000Z</time>
      </trkpt>
      <trkpt lat="48.6228" lon="-4.33004">
        <ele>62.200000762939</ele>
        <time>2022-08-07T08:50:59.000Z</time>
      </trkpt>
      <trkpt lat="48.62273" lon="-4.33005">
        <ele>62.200000762939</ele>
        <time>2022-08-07T08:51:00.000Z</time>
      </trkpt>
      <trkpt lat="48.62265" lon="-4.33005">
        <ele>62.200000762939</ele>
        <time>2022-08-07T08:51:01.000Z</time>
      </trkpt>
      <trkpt lat="48.62259" lon="-4.33006">
        <ele>62.200000762939</ele>
        <time>2022-08-07T08:51:02.000Z</time>
      </trkpt>
      <trkpt lat="48.62252" lon="-4.33006">
        <ele>62</ele>
        <time>2022-08-07T08:51:03.000Z</time>
      </trkpt>
      <trkpt lat="48.62245" lon="-4.33006">
        <ele>62</ele>
        <time>2022-08-07T08:51:04.000Z</time>
      </trkpt>
      <trkpt lat="48.62236" lon="-4.33007">
        <ele>62</ele>
        <time>2022-08-07T08:51:05.000Z</time>
      </trkpt>
      <trkpt lat="48.62231" lon="-4.33008">
        <ele>62</ele>
        <time>2022-08-07T08:51:06.000Z</time>
      </trkpt>
      <trkpt lat="48.62219" lon="-4.33011">
        <ele>62.9</ele>
        <time>2022-08-07T08:51:07.000Z</time>
      </trkpt>
      <trkpt lat="48.62283" lon="-4.33145">
        <ele>64.2</ele>
      </trkpt>
      <trkpt lat="48.62337" lon="-4.33255">
        <ele>65</ele>
      </trkpt>
      <trkpt lat="48.62375" lon="-4.33404">
        <ele>64.3</ele>
        <time>2022-08-07T08:51:27.000Z</time>
      </trkpt>
      <trkpt lat="48.62408" lon="-4.33541">
        <ele>64.3</ele>
        <time>2022-08-07T08:51:31.000Z</time>
      </trkpt>
      <trkpt lat="48.62437" lon="-4.33637">
        <ele>64.3</ele>
        <time>2022-08-07T08:51:32.000Z</time>
      </trkpt>
      <trkpt lat="48.62474" lon="-4.33726">
        <ele>64.1</ele>
        <time>2022-08-07T08:51:33.000Z</time>
      </trkpt>
      <trkpt lat="48.62552" lon="-4.33829">
        <ele>64.9</ele>
        <time>2022-08-07T08:51:34.000Z</time>
      </trkpt>
      <trkpt lat="48.62566" lon="-4.33885">
        <ele>64.6</ele>
      </trkpt>
      <trkpt lat="48.62563" lon="-4.34014">
        <ele>63.7</ele>
      </trkpt>
      <trkpt lat="48.62579" lon="-4.34151">
        <ele>63.3</ele>
      </trkpt>
      <trkpt lat="48.6259" lon="-4.34256">
        <ele>61.8</ele>
      </trkpt>
      <trkpt lat="48.62586" lon="-4.34565">
        <ele>58.7</ele>
      </trkpt>
      <trkpt lat="48.62648" lon="-4.34748">
        <ele>53.7</ele>
      </trkpt>
      <trkpt lat="48.62725" lon="-4.34928">
        <ele>53.4</ele>
      </trkpt>
      <trkpt lat="48.6265" lon="-4.35001">
        <ele>53.4</ele>
      </trkpt>
      <trkpt lat="48.62648" lon="-4.35087">
        <ele>53.3</ele>
      </trkpt>
      <trkpt lat="48.62651" lon="-4.35134">
        <ele>53.4</ele>
      </trkpt>
      <trkpt lat="48.62596" lon="-4.35213">
        <ele>51.1</ele>
      </trkpt>
      <trkpt lat="48.62552" lon="-4.35308">
        <ele>43.3</ele>
      </trkpt>
      <trkpt lat="48.62534" lon="-4.35357">
        <ele>38.4</ele>
      </trkpt>
      <trkpt lat="48.62529" lon="-4.35411">
        <ele>35.6</ele>
      </trkpt>
      <trkpt lat="48.62505" lon="-4.35411">
        <ele>31.3</ele>
      </trkpt>
      <trkpt lat="48.62468" lon="-4.35419">
        <ele>26.3</ele>
      </trkpt>
      <trkpt lat="48.62457" lon="-4.35432">
        <ele>23.6</ele>
      </trkpt>
      <trkpt lat="48.62455" lon="-4.35439">
        <ele>22.6</ele>
      </trkpt>
      <trkpt lat="48.62464" lon="-4.35485">
        <ele>23.2</ele>
      </trkpt>
      <trkpt lat="48.6247" lon="-4.35506">
        <ele>23.7</ele>
      </trkpt>
      <trkpt lat="48.62478" lon="-4.35533">
        <ele>25.3</ele>
      </trkpt>
      <trkpt lat="48.62486" lon="-4.35561">
        <ele>26.8</ele>
      </trkpt>
      <trkpt lat="48.62493" lon="-4.35633">
        <ele>25</ele>
      </trkpt>
      <trkpt lat="48.62499" lon="-4.35678">
        <ele>24.1</ele>
      </trkpt>
      <trkpt lat="48.62502" lon="-4.35703">
        <ele>23.2</ele>
      </trkpt>
      <trkpt lat="48.6254" lon="-4.35785">
        <ele>25.3</ele>
      </trkpt>
      <trkpt lat="48.62528" lon="-4.35805">
        <ele>21</ele>
      </trkpt>
      <trkpt lat="48.62509" lon="-4.35857">
        <ele>14.1</ele>
      </trkpt>
      <trkpt lat="48.62566" lon="-4.35981">
        <ele>11.2</ele>
      </trkpt>
      <trkpt lat="48.62537" lon="-4.35914">
        <ele>12.4</ele>
      </trkpt>
      <trkpt lat="48.62583" lon="-4.36041">
        <ele>9</ele>
      </trkpt>
      <trkpt lat="48.62609" lon="-4.36107">
        <ele>9.2</ele>
      </trkpt>
      <trkpt lat="48.62619" lon="-4.36237">
        <ele>9.8</ele>
      </trkpt>
      <trkpt lat="48.62678" lon="-4.36468">
        <ele>9.7</ele>
      </trkpt>
      <trkpt lat="48.62736" lon="-4.36668">
        <ele>8.5</ele>
      </trkpt>
      <trkpt lat="48.62759" lon="-4.36745">
        <ele>8.7</ele>
      </trkpt>
      <trkpt lat="48.6287" lon="-4.36668">
        <ele>19.9</ele>
      </trkpt>
      <trkpt lat="48.62914" lon="-4.36786">
        <ele>19.7</ele>
      </trkpt>
      <trkpt lat="48.62908" lon="-4.36878">
        <ele>16.6</ele>
      </trkpt>
      <trkpt lat="48.62904" lon="-4.36917">
        <ele>16.1</ele>
      </trkpt>
      <trkpt lat="48.62941" lon="-4.36992">
        <ele>16.7</ele>
      </trkpt>
      <trkpt lat="48.6305" lon="-4.36975">
        <ele>23.9</ele>
      </trkpt>
      <trkpt lat="48.63099" lon="-4.37134">
        <ele>22.8</ele>
      </trkpt>
      <trkpt lat="48.63121" lon="-4.37157">
        <ele>23.9</ele>
      </trkpt>
      <trkpt lat="48.63148" lon="-4.37168">
        <ele>25.1</ele>
      </trkpt>
      <trkpt lat="48.63163" lon="-4.37194">
        <ele>26.8</ele>
      </trkpt>
      <trkpt lat="48.63163" lon="-4.37288">
        <ele>31.6</ele>
      </trkpt>
      <trkpt lat="48.63122" lon="-4.37374">
        <ele>30.3</ele>
      </trkpt>
      <trkpt lat="48.63098" lon="-4.37406">
        <ele>29.5</ele>
      </trkpt>
      <trkpt lat="48.63099" lon="-4.37434">
        <ele>29.9</ele>
      </trkpt>
      <trkpt lat="48.63048" lon="-4.37413">
        <ele>25.2</ele>
      </trkpt>
      <trkpt lat="48.63016" lon="-4.37451">
        <ele>21</ele>
      </trkpt>
      <trkpt lat="48.63007" lon="-4.37518">
        <ele>19.2</ele>
      </trkpt>
      <trkpt lat="48.6304" lon="-4.37754">
        <ele>16.5</ele>
      </trkpt>
      <trkpt lat="48.62976" lon="-4.37779">
        <ele>10.3</ele>
      </trkpt>
      <trkpt lat="48.62945" lon="-4.3779">
        <ele>8</ele>
      </trkpt>
      <trkpt lat="48.6298" lon="-4.3793">
        <ele>7.2</ele>
      </trkpt>
      <trkpt lat="48.62995" lon="-4.38022">
        <ele>7.8</ele>
      </trkpt>
      <trkpt lat="48.62968" lon="-4.38084">
        <ele>7.8</ele>
      </trkpt>
      <trkpt lat="48.62963" lon="-4.38166">
        <ele>7.7</ele>
      </trkpt>
      <trkpt lat="48.62977" lon="-4.38224">
        <ele>8.2</ele>
      </trkpt>
      <trkpt lat="48.62999" lon="-4.38217">
        <ele>9</ele>
      </trkpt>
      <trkpt lat="48.62983" lon="-4.3826">
        <ele>8.2</ele>
      </trkpt>
      <trkpt lat="48.63024" lon="-4.3834">
        <ele>8.6</ele>
      </trkpt>
      <trkpt lat="48.62897" lon="-4.3838">
        <ele>7.7</ele>
      </trkpt>
      <trkpt lat="48.62735" lon="-4.38449">
        <ele>10</ele>
      </trkpt>
      <trkpt lat="48.62528" lon="-4.38563">
        <ele>15</ele>
      </trkpt>
      <trkpt lat="48.62412" lon="-4.38565">
        <ele>21.2</ele>
      </trkpt>
      <trkpt lat="48.62298" lon="-4.38539">
        <ele>28.2</ele>
      </trkpt>
      <trkpt lat="48.6219" lon="-4.38595">
        <ele>31.6</ele>
      </trkpt>
      <trkpt lat="48.62108" lon="-4.38513">
        <ele>33.5</ele>
      </trkpt>
      <trkpt lat="48.62003" lon="-4.38513">
        <ele>33</ele>
      </trkpt>
      <trkpt lat="48.61921" lon="-4.38492">
        <ele>33.3</ele>
      </trkpt>
      <trkpt lat="48.61824" lon="-4.38419">
        <ele>34.3</ele>
      </trkpt>
      <trkpt lat="48.61705" lon="-4.38217">
        <ele>41.7</ele>
      </trkpt>
      <trkpt lat="48.61648" lon="-4.38149">
        <ele>45</ele>
      </trkpt>
      <trkpt lat="48.61603" lon="-4.3808">
        <ele>45.5</ele>
      </trkpt>
      <trkpt lat="48.61555" lon="-4.37979">
        <ele>44.2</ele>
      </trkpt>
      <trkpt lat="48.61518" lon="-4.37917">
        <ele>42.3</ele>
      </trkpt>
      <trkpt lat="48.61412" lon="-4.37882">
        <ele>37.4</ele>
      </trkpt>
      <trkpt lat="48.61444" lon="-4.37855">
        <ele>38</ele>
      </trkpt>
      <trkpt lat="48.61477" lon="-4.37825">
        <ele>40.2</ele>
      </trkpt>
      <trkpt lat="48.61511" lon="-4.37732">
        <ele>43.8</ele>
      </trkpt>
      <trkpt lat="48.61549" lon="-4.37649">
        <ele>45.8</ele>
      </trkpt>
      <trkpt lat="48.61589" lon="-4.37558">
        <ele>47.6</ele>
      </trkpt>
      <trkpt lat="48.61607" lon="-4.37466">
        <ele>52.1</ele>
      </trkpt>
      <trkpt lat="48.61617" lon="-4.3738">
        <ele>54.3</ele>
      </trkpt>
      <trkpt lat="48.61617" lon="-4.3732">
        <ele>54.5</ele>
      </trkpt>
      <trkpt lat="48.61623" lon="-4.37258">
        <ele>56.4</ele>
      </trkpt>
      <trkpt lat="48.61651" lon="-4.37237">
        <ele>57</ele>
      </trkpt>
      <trkpt lat="48.61661" lon="-4.37149">
        <ele>56.6</ele>
      </trkpt>
      <trkpt lat="48.61678" lon="-4.37071">
        <ele>55.8</ele>
      </trkpt>
      <trkpt lat="48.61687" lon="-4.37022">
        <ele>53.9</ele>
      </trkpt>
      <trkpt lat="48.61666" lon="-4.36943">
        <ele>50.9</ele>
      </trkpt>
      <trkpt lat="48.61568" lon="-4.36951">
        <ele>46.4</ele>
      </trkpt>
      <trkpt lat="48.61522" lon="-4.3685">
        <ele>46</ele>
      </trkpt>
      <trkpt lat="48.61463" lon="-4.36898">
        <ele>45</ele>
      </trkpt>
      <trkpt lat="48.61419" lon="-4.36953">
        <ele>44.3</ele>
      </trkpt>
      <trkpt lat="48.61363" lon="-4.36979">
        <ele>41.8</ele>
      </trkpt>
      <trkpt lat="48.61317" lon="-4.37003">
        <ele>38.6</ele>
      </trkpt>
      <trkpt lat="48.61268" lon="-4.36951">
        <ele>35.2</ele>
      </trkpt>
      <trkpt lat="48.61216" lon="-4.36887">
        <ele>32.6</ele>
      </trkpt>
      <trkpt lat="48.61183" lon="-4.36814">
        <ele>34.4</ele>
      </trkpt>
      <trkpt lat="48.61175" lon="-4.36724">
        <ele>34.4</ele>
      </trkpt>
      <trkpt lat="48.61199" lon="-4.36574">
        <ele>36.5</ele>
      </trkpt>
      <trkpt lat="48.61224" lon="-4.36494">
        <ele>38.1</ele>
      </trkpt>
      <trkpt lat="48.61221" lon="-4.364">
        <ele>38.9</ele>
      </trkpt>
      <trkpt lat="48.61223" lon="-4.36331">
        <ele>38.1</ele>
      </trkpt>
      <trkpt lat="48.61221" lon="-4.36299">
        <ele>38.9</ele>
      </trkpt>
      <trkpt lat="48.61193" lon="-4.36252">
        <ele>37.8</ele>
      </trkpt>
      <trkpt lat="48.61151" lon="-4.36177">
        <ele>32.1</ele>
      </trkpt>
      <trkpt lat="48.61132" lon="-4.36104">
        <ele>28.3</ele>
      </trkpt>
      <trkpt lat="48.61109" lon="-4.36003">
        <ele>23.7</ele>
      </trkpt>
      <trkpt lat="48.61092" lon="-4.35898">
        <ele>22.3</ele>
      </trkpt>
      <trkpt lat="48.61077" lon="-4.35801">
        <ele>19</ele>
      </trkpt>
      <trkpt lat="48.61073" lon="-4.35767">
        <ele>18.6</ele>
      </trkpt>
      <trkpt lat="48.61036" lon="-4.35711">
        <ele>18.9</ele>
      </trkpt>
      <trkpt lat="48.61003" lon="-4.35608">
        <ele>16.8</ele>
      </trkpt>
      <trkpt lat="48.6097" lon="-4.35516">
        <ele>17.8</ele>
      </trkpt>
      <trkpt lat="48.6098" lon="-4.35447">
        <ele>16.8</ele>
      </trkpt>
      <trkpt lat="48.60994" lon="-4.3537">
        <ele>15.2</ele>
      </trkpt>
      <trkpt lat="48.61004" lon="-4.35325">
        <ele>15.8</ele>
      </trkpt>
      <trkpt lat="48.6098" lon="-4.35265">
        <ele>20.6</ele>
      </trkpt>
      <trkpt lat="48.60951" lon="-4.35207">
        <ele>21.8</ele>
      </trkpt>
      <trkpt lat="48.60933" lon="-4.3525">
        <ele>22</ele>
      </trkpt>
      <trkpt lat="48.60887" lon="-4.35299">
        <ele>23</ele>
      </trkpt>
      <trkpt lat="48.60865" lon="-4.35335">
        <ele>23.1</ele>
      </trkpt>
      <trkpt lat="48.60861" lon="-4.35443">
        <ele>24.9</ele>
      </trkpt>
      <trkpt lat="48.60834" lon="-4.35518">
        <ele>26</ele>
      </trkpt>
      <trkpt lat="48.60817" lon="-4.3555">
        <ele>26.9</ele>
      </trkpt>
      <trkpt lat="48.6078" lon="-4.35595">
        <ele>27</ele>
      </trkpt>
      <trkpt lat="48.60753" lon="-4.35666">
        <ele>28.1</ele>
      </trkpt>
      <trkpt lat="48.6075" lon="-4.35936">
        <ele>29.7</ele>
      </trkpt>
      <trkpt lat="48.60758" lon="-4.35805">
        <ele>29.5</ele>
      </trkpt>
      <trkpt lat="48.60741" lon="-4.36024">
        <ele>31</ele>
      </trkpt>
      <trkpt lat="48.60672" lon="-4.35966">
        <ele>30</ele>
      </trkpt>
      <trkpt lat="48.60636" lon="-4.35949">
        <ele>28.9</ele>
      </trkpt>
      <trkpt lat="48.60587" lon="-4.35891">
        <ele>27.1</ele>
      </trkpt>
      <trkpt lat="48.60535" lon="-4.3588">
        <ele>25.3</ele>
      </trkpt>
      <trkpt lat="48.60506" lon="-4.35767">
        <ele>23.2</ele>
      </trkpt>
      <trkpt lat="48.60489" lon="-4.35732">
        <ele>22</ele>
      </trkpt>
      <trkpt lat="48.60458" lon="-4.35732">
        <ele>20.4</ele>
      </trkpt>
      <trkpt lat="48.60481" lon="-4.35602">
        <ele>18.5</ele>
      </trkpt>
      <trkpt lat="48.60495" lon="-4.35554">
        <ele>18.8</ele>
      </trkpt>
      <trkpt lat="48.60448" lon="-4.35539">
        <ele>17.4</ele>
      </trkpt>
      <trkpt lat="48.60394" lon="-4.35501">
        <ele>18</ele>
      </trkpt>
      <trkpt lat="48.60326" lon="-4.35505">
        <ele>19.1</ele>
      </trkpt>
      <trkpt lat="48.60251" lon="-4.35535">
        <ele>18.7</ele>
      </trkpt>
      <trkpt lat="48.60162" lon="-4.35539">
        <ele>19.7</ele>
      </trkpt>
      <trkpt lat="48.60082" lon="-4.35526">
        <ele>21</ele>
      </trkpt>
      <trkpt lat="48.5999" lon="-4.35514">
        <ele>22.7</ele>
      </trkpt>
      <trkpt lat="48.59858" lon="-4.35481">
        <ele>25</ele>
      </trkpt>
      <trkpt lat="48.59742" lon="-4.35449">
        <ele>26.4</ele>
      </trkpt>
      <trkpt lat="48.59686" lon="-4.35429">
        <ele>27.6</ele>
      </trkpt>
      <trkpt lat="48.59628" lon="-4.35395">
        <ele>25.60000038147</ele>
        <time>2022-08-07T09:03:48.000Z</time>
      </trkpt>
      <trkpt lat="48.5963" lon="-4.35402">
        <ele>25.799999237061</ele>
        <time>2022-08-07T09:03:49.000Z</time>
      </trkpt>
      <trkpt lat="48.5963" lon="-4.35409">
        <ele>26</ele>
        <time>2022-08-07T09:03:50.000Z</time>
      </trkpt>
      <trkpt lat="48.59628" lon="-4.35414">
        <ele>26</ele>
        <time>2022-08-07T09:03:51.000Z</time>
      </trkpt>
      <trkpt lat="48.59626" lon="-4.35417">
        <ele>26</ele>
        <time>2022-08-07T09:03:52.000Z</time>
      </trkpt>
      <trkpt lat="48.59624" lon="-4.3542">
        <ele>26.200000762939</ele>
        <time>2022-08-07T09:03:53.000Z</time>
      </trkpt>
      <trkpt lat="48.59622" lon="-4.35423">
        <ele>26.39999961853</ele>
        <time>2022-08-07T09:03:54.000Z</time>
      </trkpt>
      <trkpt lat="48.59619" lon="-4.35425">
        <ele>26.39999961853</ele>
        <time>2022-08-07T09:03:55.000Z</time>
      </trkpt>
      <trkpt lat="48.59618" lon="-4.35427">
        <ele>26.60000038147</ele>
        <time>2022-08-07T09:03:56.000Z</time>
      </trkpt>
      <trkpt lat="48.59616" lon="-4.35429">
        <ele>26.799999237061</ele>
        <time>2022-08-07T09:03:57.000Z</time>
      </trkpt>
      <trkpt lat="48.59614" lon="-4.35432">
        <ele>27</ele>
        <time>2022-08-07T09:03:58.000Z</time>
      </trkpt>
      <trkpt lat="48.59611" lon="-4.35434">
        <ele>27.200000762939</ele>
        <time>2022-08-07T09:03:59.000Z</time>
      </trkpt>
      <trkpt lat="48.59609" lon="-4.35437">
        <ele>27.39999961853</ele>
        <time>2022-08-07T09:04:00.000Z</time>
      </trkpt>
      <trkpt lat="48.59606" lon="-4.3544">
        <ele>27.60000038147</ele>
        <time>2022-08-07T09:04:01.000Z</time>
      </trkpt>
      <trkpt lat="48.59602" lon="-4.35442">
        <ele>27.799999237061</ele>
        <time>2022-08-07T09:04:02.000Z</time>
      </trkpt>
      <trkpt lat="48.59599" lon="-4.35444">
        <ele>28</ele>
        <time>2022-08-07T09:04:03.000Z</time>
      </trkpt>
      <trkpt lat="48.59596" lon="-4.35446">
        <ele>28.39999961853</ele>
        <time>2022-08-07T09:04:04.000Z</time>
      </trkpt>
      <trkpt lat="48.59593" lon="-4.35447">
        <ele>28.200000762939</ele>
        <time>2022-08-07T09:04:05.000Z</time>
      </trkpt>
      <trkpt lat="48.5959" lon="-4.35448">
        <ele>28.60000038147</ele>
        <time>2022-08-07T09:04:06.000Z</time>
      </trkpt>
      <trkpt lat="48.59587" lon="-4.35448">
        <ele>28.799999237061</ele>
        <time>2022-08-07T09:04:07.000Z</time>
      </trkpt>
      <trkpt lat="48.59584" lon="-4.35449">
        <ele>29.200000762939</ele>
        <time>2022-08-07T09:04:08.000Z</time>
      </trkpt>
      <trkpt lat="48.59581" lon="-4.3545">
        <ele>29.200000762939</ele>
        <time>2022-08-07T09:04:09.000Z</time>
      </trkpt>
      <trkpt lat="48.59578" lon="-4.35451">
        <ele>29.200000762939</ele>
        <time>2022-08-07T09:04:10.000Z</time>
      </trkpt>
      <trkpt lat="48.59575" lon="-4.35452">
        <ele>29.200000762939</ele>
        <time>2022-08-07T09:04:11.000Z</time>
      </trkpt>
      <trkpt lat="48.5957" lon="-4.35453">
        <ele>29.39999961853</ele>
        <time>2022-08-07T09:04:12.000Z</time>
      </trkpt>
      <trkpt lat="48.59565" lon="-4.35454">
        <ele>29.799999237061</ele>
        <time>2022-08-07T09:04:13.000Z</time>
      </trkpt>
      <trkpt lat="48.59561" lon="-4.35455">
        <ele>29.60000038147</ele>
        <time>2022-08-07T09:04:14.000Z</time>
      </trkpt>
      <trkpt lat="48.59559" lon="-4.35457">
        <ele>29.799999237061</ele>
        <time>2022-08-07T09:04:15.000Z</time>
      </trkpt>
      <trkpt lat="48.59556" lon="-4.35458">
        <ele>29.799999237061</ele>
        <time>2022-08-07T09:04:16.000Z</time>
      </trkpt>
      <trkpt lat="48.59553" lon="-4.35459">
        <ele>29.799999237061</ele>
        <time>2022-08-07T09:04:17.000Z</time>
      </trkpt>
      <trkpt lat="48.59551" lon="-4.35462">
        <ele>30</ele>
        <time>2022-08-07T09:04:18.000Z</time>
      </trkpt>
      <trkpt lat="48.59545" lon="-4.35463">
        <ele>30.39999961853</ele>
        <time>2022-08-07T09:04:19.000Z</time>
      </trkpt>
      <trkpt lat="48.5954" lon="-4.35463">
        <ele>30.39999961853</ele>
        <time>2022-08-07T09:04:20.000Z</time>
      </trkpt>
      <trkpt lat="48.59534" lon="-4.35464">
        <ele>30.60000038147</ele>
        <time>2022-08-07T09:04:21.000Z</time>
      </trkpt>
      <trkpt lat="48.59531" lon="-4.35465">
        <ele>31</ele>
        <time>2022-08-07T09:04:22.000Z</time>
      </trkpt>
      <trkpt lat="48.59528" lon="-4.35467">
        <ele>31</ele>
        <time>2022-08-07T09:04:23.000Z</time>
      </trkpt>
      <trkpt lat="48.59525" lon="-4.35468">
        <ele>31</ele>
        <time>2022-08-07T09:04:24.000Z</time>
      </trkpt>
      <trkpt lat="48.59523" lon="-4.3547">
        <ele>31</ele>
        <time>2022-08-07T09:04:25.000Z</time>
      </trkpt>
      <trkpt lat="48.5952" lon="-4.35472">
        <ele>31</ele>
        <time>2022-08-07T09:04:26.000Z</time>
      </trkpt>
      <trkpt lat="48.59517" lon="-4.35474">
        <ele>31</ele>
        <time>2022-08-07T09:04:27.000Z</time>
      </trkpt>
      <trkpt lat="48.59515" lon="-4.35477">
        <ele>31.200000762939</ele>
        <time>2022-08-07T09:04:28.000Z</time>
      </trkpt>
      <trkpt lat="48.59511" lon="-4.35477">
        <ele>31.39999961853</ele>
        <time>2022-08-07T09:04:29.000Z</time>
      </trkpt>
      <trkpt lat="48.59508" lon="-4.35478">
        <ele>31.60000038147</ele>
        <time>2022-08-07T09:04:30.000Z</time>
      </trkpt>
      <trkpt lat="48.59506" lon="-4.35479">
        <ele>31.60000038147</ele>
        <time>2022-08-07T09:04:31.000Z</time>
      </trkpt>
      <trkpt lat="48.59503" lon="-4.35481">
        <ele>31.799999237061</ele>
        <time>2022-08-07T09:04:32.000Z</time>
      </trkpt>
      <trkpt lat="48.59501" lon="-4.35481">
        <ele>32.200000762939</ele>
        <time>2022-08-07T09:04:33.000Z</time>
      </trkpt>
      <trkpt lat="48.59498" lon="-4.35483">
        <ele>32.400001525879</ele>
        <time>2022-08-07T09:04:34.000Z</time>
      </trkpt>
      <trkpt lat="48.59495" lon="-4.35485">
        <ele>32.599998474121</ele>
        <time>2022-08-07T09:04:35.000Z</time>
      </trkpt>
      <trkpt lat="48.59494" lon="-4.35487">
        <ele>32.599998474121</ele>
        <time>2022-08-07T09:04:36.000Z</time>
      </trkpt>
      <trkpt lat="48.59491" lon="-4.3549">
        <ele>33</ele>
        <time>2022-08-07T09:04:37.000Z</time>
      </trkpt>
      <trkpt lat="48.59489" lon="-4.35493">
        <ele>33.200000762939</ele>
        <time>2022-08-07T09:04:38.000Z</time>
      </trkpt>
      <trkpt lat="48.59485" lon="-4.35495">
        <ele>33.400001525879</ele>
        <time>2022-08-07T09:04:39.000Z</time>
      </trkpt>
      <trkpt lat="48.59482" lon="-4.35497">
        <ele>33.599998474121</ele>
        <time>2022-08-07T09:04:40.000Z</time>
      </trkpt>
      <trkpt lat="48.59479" lon="-4.35499">
        <ele>33.599998474121</ele>
        <time>2022-08-07T09:04:41.000Z</time>
      </trkpt>
      <trkpt lat="48.59476" lon="-4.35501">
        <ele>33.799999237061</ele>
        <time>2022-08-07T09:04:42.000Z</time>
      </trkpt>
      <trkpt lat="48.59474" lon="-4.35502">
        <ele>34.200000762939</ele>
        <time>2022-08-07T09:04:43.000Z</time>
      </trkpt>
      <trkpt lat="48.5947" lon="-4.35504">
        <ele>34.200000762939</ele>
        <time>2022-08-07T09:04:44.000Z</time>
      </trkpt>
      <trkpt lat="48.59467" lon="-4.35505">
        <ele>34.200000762939</ele>
        <time>2022-08-07T09:04:45.000Z</time>
      </trkpt>
      <trkpt lat="48.59465" lon="-4.35506">
        <ele>34.400001525879</ele>
        <time>2022-08-07T09:04:46.000Z</time>
      </trkpt>
      <trkpt lat="48.59462" lon="-4.35506">
        <ele>34.599998474121</ele>
        <time>2022-08-07T09:04:47.000Z</time>
      </trkpt>
      <trkpt lat="48.59461" lon="-4.35506">
        <ele>34.799999237061</ele>
        <time>2022-08-07T09:04:48.000Z</time>
      </trkpt>
      <trkpt lat="48.5946" lon="-4.35507">
        <ele>35</ele>
        <time>2022-08-07T09:04:49.000Z</time>
      </trkpt>
      <trkpt lat="48.59458" lon="-4.35507">
        <ele>35.200000762939</ele>
        <time>2022-08-07T09:04:50.000Z</time>
      </trkpt>
      <trkpt lat="48.59456" lon="-4.35506">
        <ele>35.599998474121</ele>
        <time>2022-08-07T09:04:51.000Z</time>
      </trkpt>
      <trkpt lat="48.59454" lon="-4.35506">
        <ele>35.599998474121</ele>
        <time>2022-08-07T09:04:52.000Z</time>
      </trkpt>
      <trkpt lat="48.59452" lon="-4.35506">
        <ele>35.799999237061</ele>
        <time>2022-08-07T09:04:53.000Z</time>
      </trkpt>
      <trkpt lat="48.5945" lon="-4.35506">
        <ele>36</ele>
        <time>2022-08-07T09:04:54.000Z</time>
      </trkpt>
      <trkpt lat="48.59447" lon="-4.35505">
        <ele>36.200000762939</ele>
        <time>2022-08-07T09:04:55.000Z</time>
      </trkpt>
      <trkpt lat="48.59444" lon="-4.35505">
        <ele>36.400001525879</ele>
        <time>2022-08-07T09:04:56.000Z</time>
      </trkpt>
      <trkpt lat="48.59441" lon="-4.35505">
        <ele>36.400001525879</ele>
        <time>2022-08-07T09:04:57.000Z</time>
      </trkpt>
      <trkpt lat="48.59438" lon="-4.35505">
        <ele>36.599998474121</ele>
        <time>2022-08-07T09:04:58.000Z</time>
      </trkpt>
      <trkpt lat="48.59434" lon="-4.35505">
        <ele>36.599998474121</ele>
        <time>2022-08-07T09:04:59.000Z</time>
      </trkpt>
      <trkpt lat="48.59431" lon="-4.35505">
        <ele>36.599998474121</ele>
        <time>2022-08-07T09:05:00.000Z</time>
      </trkpt>
      <trkpt lat="48.59429" lon="-4.35506">
        <ele>36.799999237061</ele>
        <time>2022-08-07T09:05:01.000Z</time>
      </trkpt>
      <trkpt lat="48.59426" lon="-4.35506">
        <ele>36.799999237061</ele>
        <time>2022-08-07T09:05:02.000Z</time>
      </trkpt>
      <trkpt lat="48.59424" lon="-4.35506">
        <ele>36.799999237061</ele>
        <time>2022-08-07T09:05:03.000Z</time>
      </trkpt>
      <trkpt lat="48.59421" lon="-4.35507">
        <ele>37</ele>
        <time>2022-08-07T09:05:04.000Z</time>
      </trkpt>
      <trkpt lat="48.59418" lon="-4.35507">
        <ele>37</ele>
        <time>2022-08-07T09:05:05.000Z</time>
      </trkpt>
      <trkpt lat="48.59416" lon="-4.35508">
        <ele>37</ele>
        <time>2022-08-07T09:05:06.000Z</time>
      </trkpt>
      <trkpt lat="48.59414" lon="-4.35509">
        <ele>37</ele>
        <time>2022-08-07T09:05:07.000Z</time>
      </trkpt>
      <trkpt lat="48.59412" lon="-4.3551">
        <ele>37.200000762939</ele>
        <time>2022-08-07T09:05:08.000Z</time>
      </trkpt>
      <trkpt lat="48.5941" lon="-4.35511">
        <ele>37.200000762939</ele>
        <time>2022-08-07T09:05:09.000Z</time>
      </trkpt>
      <trkpt lat="48.59408" lon="-4.35511">
        <ele>37.200000762939</ele>
        <time>2022-08-07T09:05:10.000Z</time>
      </trkpt>
      <trkpt lat="48.59406" lon="-4.35511">
        <ele>37.599998474121</ele>
        <time>2022-08-07T09:05:11.000Z</time>
      </trkpt>
      <trkpt lat="48.59404" lon="-4.35513">
        <ele>37.799999237061</ele>
        <time>2022-08-07T09:05:12.000Z</time>
      </trkpt>
      <trkpt lat="48.59402" lon="-4.35514">
        <ele>38.200000762939</ele>
        <time>2022-08-07T09:05:13.000Z</time>
      </trkpt>
      <trkpt lat="48.59399" lon="-4.35515">
        <ele>38.400001525879</ele>
        <time>2022-08-07T09:05:14.000Z</time>
      </trkpt>
      <trkpt lat="48.59397" lon="-4.35517">
        <ele>38.599998474121</ele>
        <time>2022-08-07T09:05:15.000Z</time>
      </trkpt>
      <trkpt lat="48.59394" lon="-4.35518">
        <ele>39</ele>
        <time>2022-08-07T09:05:16.000Z</time>
      </trkpt>
      <trkpt lat="48.59392" lon="-4.35519">
        <ele>39.200000762939</ele>
        <time>2022-08-07T09:05:17.000Z</time>
      </trkpt>
      <trkpt lat="48.59389" lon="-4.35521">
        <ele>39.400001525879</ele>
        <time>2022-08-07T09:05:18.000Z</time>
      </trkpt>
      <trkpt lat="48.59386" lon="-4.35522">
        <ele>39.400001525879</ele>
        <time>2022-08-07T09:05:19.000Z</time>
      </trkpt>
      <trkpt lat="48.59385" lon="-4.35523">
        <ele>39.599998474121</ele>
        <time>2022-08-07T09:05:20.000Z</time>
      </trkpt>
      <trkpt lat="48.59383" lon="-4.35524">
        <ele>39.599998474121</ele>
        <time>2022-08-07T09:05:21.000Z</time>
      </trkpt>
      <trkpt lat="48.59381" lon="-4.35525">
        <ele>39.599998474121</ele>
        <time>2022-08-07T09:05:22.000Z</time>
      </trkpt>
      <trkpt lat="48.59377" lon="-4.35528">
        <ele>39.799999237061</ele>
        <time>2022-08-07T09:05:23.000Z</time>
      </trkpt>
      <trkpt lat="48.59374" lon="-4.3553">
        <ele>39.799999237061</ele>
        <time>2022-08-07T09:05:24.000Z</time>
      </trkpt>
      <trkpt lat="48.59369" lon="-4.35532">
        <ele>39.799999237061</ele>
        <time>2022-08-07T09:05:25.000Z</time>
      </trkpt>
      <trkpt lat="48.59366" lon="-4.35533">
        <ele>40</ele>
        <time>2022-08-07T09:05:26.000Z</time>
      </trkpt>
      <trkpt lat="48.59363" lon="-4.35535">
        <ele>40</ele>
        <time>2022-08-07T09:05:27.000Z</time>
      </trkpt>
      <trkpt lat="48.5936" lon="-4.35537">
        <ele>40</ele>
        <time>2022-08-07T09:05:28.000Z</time>
      </trkpt>
      <trkpt lat="48.59358" lon="-4.35539">
        <ele>40</ele>
        <time>2022-08-07T09:05:29.000Z</time>
      </trkpt>
      <trkpt lat="48.59356" lon="-4.35541">
        <ele>40</ele>
        <time>2022-08-07T09:05:30.000Z</time>
      </trkpt>
      <trkpt lat="48.59353" lon="-4.35542">
        <ele>40.200000762939</ele>
        <time>2022-08-07T09:05:31.000Z</time>
      </trkpt>
      <trkpt lat="48.5935" lon="-4.35543">
        <ele>40.200000762939</ele>
        <time>2022-08-07T09:05:32.000Z</time>
      </trkpt>
      <trkpt lat="48.59348" lon="-4.35545">
        <ele>40.200000762939</ele>
        <time>2022-08-07T09:05:33.000Z</time>
      </trkpt>
      <trkpt lat="48.59346" lon="-4.35546">
        <ele>40.400001525879</ele>
        <time>2022-08-07T09:05:34.000Z</time>
      </trkpt>
      <trkpt lat="48.59343" lon="-4.35548">
        <ele>40.400001525879</ele>
        <time>2022-08-07T09:05:35.000Z</time>
      </trkpt>
      <trkpt lat="48.59341" lon="-4.35549">
        <ele>40.799999237061</ele>
        <time>2022-08-07T09:05:36.000Z</time>
      </trkpt>
      <trkpt lat="48.59338" lon="-4.3555">
        <ele>40.799999237061</ele>
        <time>2022-08-07T09:05:37.000Z</time>
      </trkpt>
      <trkpt lat="48.59335" lon="-4.35551">
        <ele>40.799999237061</ele>
        <time>2022-08-07T09:05:38.000Z</time>
      </trkpt>
      <trkpt lat="48.59332" lon="-4.35553">
        <ele>40.799999237061</ele>
        <time>2022-08-07T09:05:39.000Z</time>
      </trkpt>
      <trkpt lat="48.5933" lon="-4.35555">
        <ele>40.799999237061</ele>
        <time>2022-08-07T09:05:40.000Z</time>
      </trkpt>
      <trkpt lat="48.59327" lon="-4.35556">
        <ele>41</ele>
        <time>2022-08-07T09:05:41.000Z</time>
      </trkpt>
      <trkpt lat="48.59325" lon="-4.35558">
        <ele>41</ele>
        <time>2022-08-07T09:05:42.000Z</time>
      </trkpt>
      <trkpt lat="48.59322" lon="-4.35559">
        <ele>41</ele>
        <time>2022-08-07T09:05:43.000Z</time>
      </trkpt>
      <trkpt lat="48.59319" lon="-4.35561">
        <ele>41</ele>
        <time>2022-08-07T09:05:44.000Z</time>
      </trkpt>
      <trkpt lat="48.59315" lon="-4.35562">
        <ele>41.400001525879</ele>
        <time>2022-08-07T09:05:45.000Z</time>
      </trkpt>
      <trkpt lat="48.59311" lon="-4.35563">
        <ele>41.400001525879</ele>
        <time>2022-08-07T09:05:46.000Z</time>
      </trkpt>
      <trkpt lat="48.59308" lon="-4.35565">
        <ele>41.400001525879</ele>
        <time>2022-08-07T09:05:47.000Z</time>
      </trkpt>
      <trkpt lat="48.59304" lon="-4.35566">
        <ele>41.400001525879</ele>
        <time>2022-08-07T09:05:48.000Z</time>
      </trkpt>
      <trkpt lat="48.59301" lon="-4.35567">
        <ele>41.400001525879</ele>
        <time>2022-08-07T09:05:49.000Z</time>
      </trkpt>
      <trkpt lat="48.59297" lon="-4.35569">
        <ele>41.599998474121</ele>
        <time>2022-08-07T09:05:50.000Z</time>
      </trkpt>
      <trkpt lat="48.59294" lon="-4.3557">
        <ele>41.599998474121</ele>
        <time>2022-08-07T09:05:51.000Z</time>
      </trkpt>
      <trkpt lat="48.59289" lon="-4.35572">
        <ele>41.599998474121</ele>
        <time>2022-08-07T09:05:52.000Z</time>
      </trkpt>
      <trkpt lat="48.59286" lon="-4.35575">
        <ele>41.599998474121</ele>
        <time>2022-08-07T09:05:53.000Z</time>
      </trkpt>
      <trkpt lat="48.59283" lon="-4.35579">
        <ele>41.599998474121</ele>
        <time>2022-08-07T09:05:54.000Z</time>
      </trkpt>
      <trkpt lat="48.59281" lon="-4.35584">
        <ele>41.599998474121</ele>
        <time>2022-08-07T09:05:55.000Z</time>
      </trkpt>
      <trkpt lat="48.5928" lon="-4.35589">
        <ele>41.599998474121</ele>
        <time>2022-08-07T09:05:56.000Z</time>
      </trkpt>
      <trkpt lat="48.59279" lon="-4.35594">
        <ele>41.599998474121</ele>
        <time>2022-08-07T09:05:57.000Z</time>
      </trkpt>
      <trkpt lat="48.59276" lon="-4.35598">
        <ele>41.599998474121</ele>
        <time>2022-08-07T09:05:58.000Z</time>
      </trkpt>
      <trkpt lat="48.59272" lon="-4.35601">
        <ele>42</ele>
        <time>2022-08-07T09:05:59.000Z</time>
      </trkpt>
      <trkpt lat="48.59268" lon="-4.35602">
        <ele>42</ele>
        <time>2022-08-07T09:06:00.000Z</time>
      </trkpt>
      <trkpt lat="48.59264" lon="-4.35604">
        <ele>42</ele>
        <time>2022-08-07T09:06:01.000Z</time>
      </trkpt>
      <trkpt lat="48.5926" lon="-4.35605">
        <ele>42</ele>
        <time>2022-08-07T09:06:02.000Z</time>
      </trkpt>
      <trkpt lat="48.59257" lon="-4.35605">
        <ele>42</ele>
        <time>2022-08-07T09:06:03.000Z</time>
      </trkpt>
      <trkpt lat="48.59253" lon="-4.35605">
        <ele>42</ele>
        <time>2022-08-07T09:06:04.000Z</time>
      </trkpt>
      <trkpt lat="48.59249" lon="-4.35605">
        <ele>42.200000762939</ele>
        <time>2022-08-07T09:06:05.000Z</time>
      </trkpt>
      <trkpt lat="48.59245" lon="-4.35605">
        <ele>42.200000762939</ele>
        <time>2022-08-07T09:06:06.000Z</time>
      </trkpt>
      <trkpt lat="48.59241" lon="-4.35606">
        <ele>42.200000762939</ele>
        <time>2022-08-07T09:06:07.000Z</time>
      </trkpt>
      <trkpt lat="48.59236" lon="-4.35606">
        <ele>42.400001525879</ele>
        <time>2022-08-07T09:06:08.000Z</time>
      </trkpt>
      <trkpt lat="48.59232" lon="-4.35606">
        <ele>42.400001525879</ele>
        <time>2022-08-07T09:06:09.000Z</time>
      </trkpt>
      <trkpt lat="48.59228" lon="-4.35606">
        <ele>42.599998474121</ele>
        <time>2022-08-07T09:06:10.000Z</time>
      </trkpt>
      <trkpt lat="48.59224" lon="-4.35606">
        <ele>42.599998474121</ele>
        <time>2022-08-07T09:06:11.000Z</time>
      </trkpt>
      <trkpt lat="48.59219" lon="-4.35605">
        <ele>42.599998474121</ele>
        <time>2022-08-07T09:06:12.000Z</time>
      </trkpt>
      <trkpt lat="48.59215" lon="-4.35605">
        <ele>42.599998474121</ele>
        <time>2022-08-07T09:06:13.000Z</time>
      </trkpt>
      <trkpt lat="48.59211" lon="-4.35605">
        <ele>42.599998474121</ele>
        <time>2022-08-07T09:06:14.000Z</time>
      </trkpt>
      <trkpt lat="48.59207" lon="-4.35604">
        <ele>42.400001525879</ele>
        <time>2022-08-07T09:06:15.000Z</time>
      </trkpt>
      <trkpt lat="48.59203" lon="-4.35604">
        <ele>42.400001525879</ele>
        <time>2022-08-07T09:06:16.000Z</time>
      </trkpt>
      <trkpt lat="48.59199" lon="-4.35606">
        <ele>42.400001525879</ele>
        <time>2022-08-07T09:06:17.000Z</time>
      </trkpt>
      <trkpt lat="48.59196" lon="-4.35609">
        <ele>42.400001525879</ele>
        <time>2022-08-07T09:06:18.000Z</time>
      </trkpt>
      <trkpt lat="48.59194" lon="-4.35612">
        <ele>42.400001525879</ele>
        <time>2022-08-07T09:06:19.000Z</time>
      </trkpt>
      <trkpt lat="48.59192" lon="-4.35616">
        <ele>42.200000762939</ele>
        <time>2022-08-07T09:06:20.000Z</time>
      </trkpt>
      <trkpt lat="48.59191" lon="-4.35621">
        <ele>42.200000762939</ele>
        <time>2022-08-07T09:06:21.000Z</time>
      </trkpt>
      <trkpt lat="48.5919" lon="-4.35627">
        <ele>42</ele>
        <time>2022-08-07T09:06:22.000Z</time>
      </trkpt>
      <trkpt lat="48.59189" lon="-4.35633">
        <ele>42</ele>
        <time>2022-08-07T09:06:23.000Z</time>
      </trkpt>
      <trkpt lat="48.59188" lon="-4.35639">
        <ele>42</ele>
        <time>2022-08-07T09:06:24.000Z</time>
      </trkpt>
      <trkpt lat="48.59188" lon="-4.35645">
        <ele>42</ele>
        <time>2022-08-07T09:06:25.000Z</time>
      </trkpt>
      <trkpt lat="48.59187" lon="-4.35651">
        <ele>42</ele>
        <time>2022-08-07T09:06:26.000Z</time>
      </trkpt>
      <trkpt lat="48.59186" lon="-4.35657">
        <ele>42</ele>
        <time>2022-08-07T09:06:27.000Z</time>
      </trkpt>
      <trkpt lat="48.59185" lon="-4.35663">
        <ele>41.599998474121</ele>
        <time>2022-08-07T09:06:28.000Z</time>
      </trkpt>
      <trkpt lat="48.59184" lon="-4.35669">
        <ele>41.599998474121</ele>
        <time>2022-08-07T09:06:29.000Z</time>
      </trkpt>
      <trkpt lat="48.59183" lon="-4.35675">
        <ele>41.599998474121</ele>
        <time>2022-08-07T09:06:30.000Z</time>
      </trkpt>
      <trkpt lat="48.59182" lon="-4.3568">
        <ele>41.599998474121</ele>
        <time>2022-08-07T09:06:31.000Z</time>
      </trkpt>
      <trkpt lat="48.59181" lon="-4.35685">
        <ele>42</ele>
        <time>2022-08-07T09:06:32.000Z</time>
      </trkpt>
      <trkpt lat="48.5918" lon="-4.35691">
        <ele>42</ele>
        <time>2022-08-07T09:06:33.000Z</time>
      </trkpt>
      <trkpt lat="48.59179" lon="-4.35696">
        <ele>42</ele>
        <time>2022-08-07T09:06:34.000Z</time>
      </trkpt>
      <trkpt lat="48.59177" lon="-4.35702">
        <ele>42</ele>
        <time>2022-08-07T09:06:35.000Z</time>
      </trkpt>
      <trkpt lat="48.59176" lon="-4.35708">
        <ele>42</ele>
        <time>2022-08-07T09:06:36.000Z</time>
      </trkpt>
      <trkpt lat="48.59174" lon="-4.35714">
        <ele>42.200000762939</ele>
        <time>2022-08-07T09:06:37.000Z</time>
      </trkpt>
      <trkpt lat="48.59172" lon="-4.35719">
        <ele>42.200000762939</ele>
        <time>2022-08-07T09:06:38.000Z</time>
      </trkpt>
      <trkpt lat="48.5917" lon="-4.35724">
        <ele>42.200000762939</ele>
        <time>2022-08-07T09:06:39.000Z</time>
      </trkpt>
      <trkpt lat="48.59168" lon="-4.35728">
        <ele>42.200000762939</ele>
        <time>2022-08-07T09:06:40.000Z</time>
      </trkpt>
      <trkpt lat="48.59165" lon="-4.35732">
        <ele>42.400001525879</ele>
        <time>2022-08-07T09:06:41.000Z</time>
      </trkpt>
      <trkpt lat="48.59163" lon="-4.35734">
        <ele>42.400001525879</ele>
        <time>2022-08-07T09:06:42.000Z</time>
      </trkpt>
      <trkpt lat="48.5916" lon="-4.35735">
        <ele>42.599998474121</ele>
        <time>2022-08-07T09:06:43.000Z</time>
      </trkpt>
      <trkpt lat="48.59157" lon="-4.35736">
        <ele>42.599998474121</ele>
        <time>2022-08-07T09:06:44.000Z</time>
      </trkpt>
      <trkpt lat="48.59153" lon="-4.35736">
        <ele>42.599998474121</ele>
        <time>2022-08-07T09:06:45.000Z</time>
      </trkpt>
      <trkpt lat="48.59149" lon="-4.35736">
        <ele>42.599998474121</ele>
        <time>2022-08-07T09:06:46.000Z</time>
      </trkpt>
      <trkpt lat="48.59145" lon="-4.35734">
        <ele>42.799999237061</ele>
        <time>2022-08-07T09:06:47.000Z</time>
      </trkpt>
      <trkpt lat="48.59141" lon="-4.35733">
        <ele>42.599998474121</ele>
        <time>2022-08-07T09:06:48.000Z</time>
      </trkpt>
      <trkpt lat="48.59137" lon="-4.35733">
        <ele>42.599998474121</ele>
        <time>2022-08-07T09:06:49.000Z</time>
      </trkpt>
      <trkpt lat="48.59133" lon="-4.35732">
        <ele>42.599998474121</ele>
        <time>2022-08-07T09:06:50.000Z</time>
      </trkpt>
      <trkpt lat="48.59129" lon="-4.35732">
        <ele>42.599998474121</ele>
        <time>2022-08-07T09:06:51.000Z</time>
      </trkpt>
      <trkpt lat="48.59124" lon="-4.35731">
        <ele>42.599998474121</ele>
        <time>2022-08-07T09:06:52.000Z</time>
      </trkpt>
      <trkpt lat="48.5912" lon="-4.35731">
        <ele>42.599998474121</ele>
        <time>2022-08-07T09:06:53.000Z</time>
      </trkpt>
      <trkpt lat="48.59116" lon="-4.3573">
        <ele>42.599998474121</ele>
        <time>2022-08-07T09:06:54.000Z</time>
      </trkpt>
      <trkpt lat="48.59112" lon="-4.35729">
        <ele>42.599998474121</ele>
        <time>2022-08-07T09:06:55.000Z</time>
      </trkpt>
      <trkpt lat="48.59108" lon="-4.35729">
        <ele>42.599998474121</ele>
        <time>2022-08-07T09:06:56.000Z</time>
      </trkpt>
      <trkpt lat="48.59103" lon="-4.35728">
        <ele>42.599998474121</ele>
        <time>2022-08-07T09:06:57.000Z</time>
      </trkpt>
      <trkpt lat="48.59099" lon="-4.35727">
        <ele>42.599998474121</ele>
        <time>2022-08-07T09:06:58.000Z</time>
      </trkpt>
      <trkpt lat="48.59095" lon="-4.35725">
        <ele>42.599998474121</ele>
        <time>2022-08-07T09:06:59.000Z</time>
      </trkpt>
      <trkpt lat="48.59091" lon="-4.35724">
        <ele>42.599998474121</ele>
        <time>2022-08-07T09:07:00.000Z</time>
      </trkpt>
      <trkpt lat="48.59087" lon="-4.35722">
        <ele>42.599998474121</ele>
        <time>2022-08-07T09:07:01.000Z</time>
      </trkpt>
      <trkpt lat="48.59083" lon="-4.3572">
        <ele>42.400001525879</ele>
        <time>2022-08-07T09:07:02.000Z</time>
      </trkpt>
      <trkpt lat="48.5908" lon="-4.35718">
        <ele>42.400001525879</ele>
        <time>2022-08-07T09:07:03.000Z</time>
      </trkpt>
      <trkpt lat="48.59076" lon="-4.35716">
        <ele>42.400001525879</ele>
        <time>2022-08-07T09:07:04.000Z</time>
      </trkpt>
      <trkpt lat="48.59073" lon="-4.35713">
        <ele>42.400001525879</ele>
        <time>2022-08-07T09:07:05.000Z</time>
      </trkpt>
      <trkpt lat="48.5907" lon="-4.35711">
        <ele>42.400001525879</ele>
        <time>2022-08-07T09:07:06.000Z</time>
      </trkpt>
      <trkpt lat="48.59067" lon="-4.35708">
        <ele>42.400001525879</ele>
        <time>2022-08-07T09:07:07.000Z</time>
      </trkpt>
      <trkpt lat="48.59063" lon="-4.35705">
        <ele>42.599998474121</ele>
        <time>2022-08-07T09:07:08.000Z</time>
      </trkpt>
      <trkpt lat="48.5906" lon="-4.35701">
        <ele>42.599998474121</ele>
        <time>2022-08-07T09:07:09.000Z</time>
      </trkpt>
      <trkpt lat="48.59056" lon="-4.35698">
        <ele>42.599998474121</ele>
        <time>2022-08-07T09:07:10.000Z</time>
      </trkpt>
      <trkpt lat="48.59053" lon="-4.35695">
        <ele>42.599998474121</ele>
        <time>2022-08-07T09:07:11.000Z</time>
      </trkpt>
      <trkpt lat="48.59049" lon="-4.35692">
        <ele>42.400001525879</ele>
        <time>2022-08-07T09:07:12.000Z</time>
      </trkpt>
      <trkpt lat="48.59046" lon="-4.35689">
        <ele>42.400001525879</ele>
        <time>2022-08-07T09:07:13.000Z</time>
      </trkpt>
      <trkpt lat="48.59042" lon="-4.35686">
        <ele>42.599998474121</ele>
        <time>2022-08-07T09:07:14.000Z</time>
      </trkpt>
      <trkpt lat="48.59038" lon="-4.35683">
        <ele>42.599998474121</ele>
        <time>2022-08-07T09:07:15.000Z</time>
      </trkpt>
      <trkpt lat="48.59034" lon="-4.35681">
        <ele>42.599998474121</ele>
        <time>2022-08-07T09:07:16.000Z</time>
      </trkpt>
      <trkpt lat="48.5903" lon="-4.35679">
        <ele>42.599998474121</ele>
        <time>2022-08-07T09:07:17.000Z</time>
      </trkpt>
      <trkpt lat="48.59026" lon="-4.35676">
        <ele>42.599998474121</ele>
        <time>2022-08-07T09:07:18.000Z</time>
      </trkpt>
      <trkpt lat="48.59021" lon="-4.35674">
        <ele>42.599998474121</ele>
        <time>2022-08-07T09:07:19.000Z</time>
      </trkpt>
      <trkpt lat="48.59017" lon="-4.35672">
        <ele>42.599998474121</ele>
        <time>2022-08-07T09:07:20.000Z</time>
      </trkpt>
      <trkpt lat="48.59013" lon="-4.3567">
        <ele>42.400001525879</ele>
        <time>2022-08-07T09:07:21.000Z</time>
      </trkpt>
      <trkpt lat="48.59009" lon="-4.35667">
        <ele>42.400001525879</ele>
        <time>2022-08-07T09:07:22.000Z</time>
      </trkpt>
      <trkpt lat="48.59006" lon="-4.35665">
        <ele>42.400001525879</ele>
        <time>2022-08-07T09:07:23.000Z</time>
      </trkpt>
      <trkpt lat="48.59002" lon="-4.35663">
        <ele>42.400001525879</ele>
        <time>2022-08-07T09:07:24.000Z</time>
      </trkpt>
      <trkpt lat="48.58998" lon="-4.35661">
        <ele>42.400001525879</ele>
        <time>2022-08-07T09:07:25.000Z</time>
      </trkpt>
      <trkpt lat="48.58994" lon="-4.35661">
        <ele>42.400001525879</ele>
        <time>2022-08-07T09:07:26.000Z</time>
      </trkpt>
      <trkpt lat="48.58991" lon="-4.35662">
        <ele>42.400001525879</ele>
        <time>2022-08-07T09:07:27.000Z</time>
      </trkpt>
      <trkpt lat="48.58989" lon="-4.35664">
        <ele>42.400001525879</ele>
        <time>2022-08-07T09:07:28.000Z</time>
      </trkpt>
      <trkpt lat="48.58987" lon="-4.35667">
        <ele>42.599998474121</ele>
        <time>2022-08-07T09:07:29.000Z</time>
      </trkpt>
      <trkpt lat="48.58986" lon="-4.35671">
        <ele>42.799999237061</ele>
        <time>2022-08-07T09:07:30.000Z</time>
      </trkpt>
      <trkpt lat="48.58985" lon="-4.35674">
        <ele>42.799999237061</ele>
        <time>2022-08-07T09:07:31.000Z</time>
      </trkpt>
      <trkpt lat="48.58984" lon="-4.35677">
        <ele>42.799999237061</ele>
        <time>2022-08-07T09:07:32.000Z</time>
      </trkpt>
      <trkpt lat="48.58983" lon="-4.35679">
        <ele>42.799999237061</ele>
        <time>2022-08-07T09:07:33.000Z</time>
      </trkpt>
      <trkpt lat="48.5898" lon="-4.35681">
        <ele>43</ele>
        <time>2022-08-07T09:07:34.000Z</time>
      </trkpt>
      <trkpt lat="48.58977" lon="-4.35682">
        <ele>43.200000762939</ele>
        <time>2022-08-07T09:07:35.000Z</time>
      </trkpt>
      <trkpt lat="48.58974" lon="-4.35684">
        <ele>43.400001525879</ele>
        <time>2022-08-07T09:07:36.000Z</time>
      </trkpt>
      <trkpt lat="48.58972" lon="-4.35684">
        <ele>43.799999237061</ele>
        <time>2022-08-07T09:07:37.000Z</time>
      </trkpt>
      <trkpt lat="48.58968" lon="-4.35685">
        <ele>43.799999237061</ele>
        <time>2022-08-07T09:07:38.000Z</time>
      </trkpt>
      <trkpt lat="48.58964" lon="-4.35685">
        <ele>43.799999237061</ele>
        <time>2022-08-07T09:07:39.000Z</time>
      </trkpt>
      <trkpt lat="48.5896" lon="-4.35685">
        <ele>44</ele>
        <time>2022-08-07T09:07:40.000Z</time>
      </trkpt>
      <trkpt lat="48.58956" lon="-4.35685">
        <ele>44.200000762939</ele>
        <time>2022-08-07T09:07:41.000Z</time>
      </trkpt>
      <trkpt lat="48.58952" lon="-4.35684">
        <ele>44.400001525879</ele>
        <time>2022-08-07T09:07:42.000Z</time>
      </trkpt>
      <trkpt lat="48.58947" lon="-4.35683">
        <ele>44.599998474121</ele>
        <time>2022-08-07T09:07:43.000Z</time>
      </trkpt>
      <trkpt lat="48.58943" lon="-4.35683">
        <ele>45</ele>
        <time>2022-08-07T09:07:44.000Z</time>
      </trkpt>
      <trkpt lat="48.58939" lon="-4.35682">
        <ele>45.200000762939</ele>
        <time>2022-08-07T09:07:45.000Z</time>
      </trkpt>
      <trkpt lat="48.58935" lon="-4.35682">
        <ele>45.400001525879</ele>
        <time>2022-08-07T09:07:46.000Z</time>
      </trkpt>
      <trkpt lat="48.5893" lon="-4.35681">
        <ele>45.599998474121</ele>
        <time>2022-08-07T09:07:47.000Z</time>
      </trkpt>
      <trkpt lat="48.58927" lon="-4.35681">
        <ele>45.599998474121</ele>
        <time>2022-08-07T09:07:48.000Z</time>
      </trkpt>
      <trkpt lat="48.58924" lon="-4.35681">
        <ele>46</ele>
        <time>2022-08-07T09:07:49.000Z</time>
      </trkpt>
      <trkpt lat="48.58919" lon="-4.35681">
        <ele>46.200000762939</ele>
        <time>2022-08-07T09:07:50.000Z</time>
      </trkpt>
      <trkpt lat="48.58915" lon="-4.35681">
        <ele>46.599998474121</ele>
        <time>2022-08-07T09:07:51.000Z</time>
      </trkpt>
      <trkpt lat="48.58912" lon="-4.3568">
        <ele>46.799999237061</ele>
        <time>2022-08-07T09:07:52.000Z</time>
      </trkpt>
      <trkpt lat="48.58908" lon="-4.3568">
        <ele>47.200000762939</ele>
        <time>2022-08-07T09:07:53.000Z</time>
      </trkpt>
      <trkpt lat="48.58904" lon="-4.3568">
        <ele>47.400001525879</ele>
        <time>2022-08-07T09:07:54.000Z</time>
      </trkpt>
      <trkpt lat="48.589" lon="-4.35679">
        <ele>47.400001525879</ele>
        <time>2022-08-07T09:07:55.000Z</time>
      </trkpt>
      <trkpt lat="48.58896" lon="-4.35679">
        <ele>47.599998474121</ele>
        <time>2022-08-07T09:07:56.000Z</time>
      </trkpt>
      <trkpt lat="48.58892" lon="-4.35679">
        <ele>47.599998474121</ele>
        <time>2022-08-07T09:07:57.000Z</time>
      </trkpt>
      <trkpt lat="48.58887" lon="-4.35678">
        <ele>47.799999237061</ele>
        <time>2022-08-07T09:07:58.000Z</time>
      </trkpt>
      <trkpt lat="48.58884" lon="-4.35678">
        <ele>47.799999237061</ele>
        <time>2022-08-07T09:07:59.000Z</time>
      </trkpt>
      <trkpt lat="48.58881" lon="-4.35679">
        <ele>48</ele>
        <time>2022-08-07T09:08:00.000Z</time>
      </trkpt>
      <trkpt lat="48.58877" lon="-4.35678">
        <ele>48</ele>
        <time>2022-08-07T09:08:01.000Z</time>
      </trkpt>
      <trkpt lat="48.58872" lon="-4.35677">
        <ele>48.200000762939</ele>
        <time>2022-08-07T09:08:02.000Z</time>
      </trkpt>
      <trkpt lat="48.58865" lon="-4.35676">
        <ele>48.400001525879</ele>
        <time>2022-08-07T09:08:03.000Z</time>
      </trkpt>
      <trkpt lat="48.58859" lon="-4.35675">
        <ele>48.599998474121</ele>
        <time>2022-08-07T09:08:04.000Z</time>
      </trkpt>
      <trkpt lat="48.58854" lon="-4.35673">
        <ele>48.599998474121</ele>
        <time>2022-08-07T09:08:05.000Z</time>
      </trkpt>
      <trkpt lat="48.5885" lon="-4.35673">
        <ele>48.799999237061</ele>
        <time>2022-08-07T09:08:06.000Z</time>
      </trkpt>
      <trkpt lat="48.58845" lon="-4.35672">
        <ele>48.799999237061</ele>
        <time>2022-08-07T09:08:07.000Z</time>
      </trkpt>
      <trkpt lat="48.58841" lon="-4.35671">
        <ele>49.200000762939</ele>
        <time>2022-08-07T09:08:08.000Z</time>
      </trkpt>
      <trkpt lat="48.58838" lon="-4.3567">
        <ele>49.400001525879</ele>
        <time>2022-08-07T09:08:09.000Z</time>
      </trkpt>
      <trkpt lat="48.58834" lon="-4.3567">
        <ele>49.599998474121</ele>
        <time>2022-08-07T09:08:10.000Z</time>
      </trkpt>
      <trkpt lat="48.58831" lon="-4.35669">
        <ele>49.799999237061</ele>
        <time>2022-08-07T09:08:11.000Z</time>
      </trkpt>
      <trkpt lat="48.58827" lon="-4.35669">
        <ele>49.799999237061</ele>
        <time>2022-08-07T09:08:12.000Z</time>
      </trkpt>
      <trkpt lat="48.58824" lon="-4.35669">
        <ele>50</ele>
        <time>2022-08-07T09:08:13.000Z</time>
      </trkpt>
      <trkpt lat="48.58821" lon="-4.35669">
        <ele>50</ele>
        <time>2022-08-07T09:08:14.000Z</time>
      </trkpt>
      <trkpt lat="48.58818" lon="-4.3567">
        <ele>50.200000762939</ele>
        <time>2022-08-07T09:08:15.000Z</time>
      </trkpt>
      <trkpt lat="48.58816" lon="-4.35671">
        <ele>50.200000762939</ele>
        <time>2022-08-07T09:08:16.000Z</time>
      </trkpt>
      <trkpt lat="48.58813" lon="-4.35671">
        <ele>50.200000762939</ele>
        <time>2022-08-07T09:08:17.000Z</time>
      </trkpt>
      <trkpt lat="48.5881" lon="-4.35671">
        <ele>50.400001525879</ele>
        <time>2022-08-07T09:08:18.000Z</time>
      </trkpt>
      <trkpt lat="48.58807" lon="-4.35672">
        <ele>50.400001525879</ele>
        <time>2022-08-07T09:08:19.000Z</time>
      </trkpt>
      <trkpt lat="48.58805" lon="-4.35674">
        <ele>50.799999237061</ele>
        <time>2022-08-07T09:08:20.000Z</time>
      </trkpt>
      <trkpt lat="48.58803" lon="-4.35675">
        <ele>51</ele>
        <time>2022-08-07T09:08:21.000Z</time>
      </trkpt>
      <trkpt lat="48.58801" lon="-4.35677">
        <ele>51.200000762939</ele>
        <time>2022-08-07T09:08:22.000Z</time>
      </trkpt>
      <trkpt lat="48.58799" lon="-4.35678">
        <ele>51.200000762939</ele>
        <time>2022-08-07T09:08:23.000Z</time>
      </trkpt>
      <trkpt lat="48.58797" lon="-4.35679">
        <ele>51.400001525879</ele>
        <time>2022-08-07T09:08:24.000Z</time>
      </trkpt>
      <trkpt lat="48.58795" lon="-4.3568">
        <ele>51.400001525879</ele>
        <time>2022-08-07T09:08:25.000Z</time>
      </trkpt>
      <trkpt lat="48.58794" lon="-4.35682">
        <ele>51.599998474121</ele>
        <time>2022-08-07T09:08:26.000Z</time>
      </trkpt>
      <trkpt lat="48.58792" lon="-4.35683">
        <ele>51.599998474121</ele>
        <time>2022-08-07T09:08:27.000Z</time>
      </trkpt>
      <trkpt lat="48.58791" lon="-4.35685">
        <ele>51.799999237061</ele>
        <time>2022-08-07T09:08:28.000Z</time>
      </trkpt>
      <trkpt lat="48.5879" lon="-4.35687">
        <ele>51.799999237061</ele>
        <time>2022-08-07T09:08:29.000Z</time>
      </trkpt>
      <trkpt lat="48.58789" lon="-4.35689">
        <ele>51.799999237061</ele>
        <time>2022-08-07T09:08:30.000Z</time>
      </trkpt>
      <trkpt lat="48.58788" lon="-4.35691">
        <ele>52</ele>
        <time>2022-08-07T09:08:31.000Z</time>
      </trkpt>
      <trkpt lat="48.58787" lon="-4.35692">
        <ele>52</ele>
        <time>2022-08-07T09:08:32.000Z</time>
      </trkpt>
      <trkpt lat="48.58785" lon="-4.35694">
        <ele>52</ele>
        <time>2022-08-07T09:08:33.000Z</time>
      </trkpt>
      <trkpt lat="48.58782" lon="-4.35695">
        <ele>52</ele>
        <time>2022-08-07T09:08:34.000Z</time>
      </trkpt>
      <trkpt lat="48.58779" lon="-4.35697">
        <ele>52</ele>
        <time>2022-08-07T09:08:35.000Z</time>
      </trkpt>
      <trkpt lat="48.58779" lon="-4.35698">
        <ele>52.200000762939</ele>
        <time>2022-08-07T09:08:36.000Z</time>
      </trkpt>
      <trkpt lat="48.58779" lon="-4.35699">
        <ele>52.200000762939</ele>
        <time>2022-08-07T09:08:37.000Z</time>
      </trkpt>
      <trkpt lat="48.5878" lon="-4.35699">
        <ele>52.200000762939</ele>
        <time>2022-08-07T09:08:39.000Z</time>
      </trkpt>
      <trkpt lat="48.58782" lon="-4.35698">
        <ele>52.400001525879</ele>
        <time>2022-08-07T09:08:40.000Z</time>
      </trkpt>
      <trkpt lat="48.58784" lon="-4.35698">
        <ele>52.400001525879</ele>
        <time>2022-08-07T09:08:41.000Z</time>
      </trkpt>
      <trkpt lat="48.58786" lon="-4.35698">
        <ele>52.400001525879</ele>
        <time>2022-08-07T09:08:42.000Z</time>
      </trkpt>
      <trkpt lat="48.5879" lon="-4.357">
        <ele>52.599998474121</ele>
        <time>2022-08-07T09:08:43.000Z</time>
      </trkpt>
      <trkpt lat="48.58793" lon="-4.35704">
        <ele>52.599998474121</ele>
        <time>2022-08-07T09:08:44.000Z</time>
      </trkpt>
      <trkpt lat="48.58796" lon="-4.3571">
        <ele>52.599998474121</ele>
        <time>2022-08-07T09:08:45.000Z</time>
      </trkpt>
      <trkpt lat="48.58797" lon="-4.35718">
        <ele>52.599998474121</ele>
        <time>2022-08-07T09:08:46.000Z</time>
      </trkpt>
      <trkpt lat="48.58797" lon="-4.35723">
        <ele>52.799999237061</ele>
        <time>2022-08-07T09:08:47.000Z</time>
      </trkpt>
      <trkpt lat="48.58798" lon="-4.35731">
        <ele>52.799999237061</ele>
        <time>2022-08-07T09:08:48.000Z</time>
      </trkpt>
      <trkpt lat="48.58799" lon="-4.35739">
        <ele>52.799999237061</ele>
        <time>2022-08-07T09:08:49.000Z</time>
      </trkpt>
      <trkpt lat="48.58799" lon="-4.35749">
        <ele>53</ele>
        <time>2022-08-07T09:08:50.000Z</time>
      </trkpt>
      <trkpt lat="48.588" lon="-4.35758">
        <ele>53.200000762939</ele>
        <time>2022-08-07T09:08:51.000Z</time>
      </trkpt>
      <trkpt lat="48.58801" lon="-4.35766">
        <ele>53.400001525879</ele>
        <time>2022-08-07T09:08:52.000Z</time>
      </trkpt>
      <trkpt lat="48.58802" lon="-4.35773">
        <ele>53.400001525879</ele>
        <time>2022-08-07T09:08:53.000Z</time>
      </trkpt>
      <trkpt lat="48.58802" lon="-4.35783">
        <ele>53.599998474121</ele>
        <time>2022-08-07T09:08:54.000Z</time>
      </trkpt>
      <trkpt lat="48.58803" lon="-4.35794">
        <ele>53.799999237061</ele>
        <time>2022-08-07T09:08:55.000Z</time>
      </trkpt>
      <trkpt lat="48.58804" lon="-4.35803">
        <ele>54</ele>
        <time>2022-08-07T09:08:56.000Z</time>
      </trkpt>
      <trkpt lat="48.58805" lon="-4.35811">
        <ele>54.200000762939</ele>
        <time>2022-08-07T09:08:57.000Z</time>
      </trkpt>
      <trkpt lat="48.58806" lon="-4.3582">
        <ele>54.200000762939</ele>
        <time>2022-08-07T09:08:58.000Z</time>
      </trkpt>
      <trkpt lat="48.58806" lon="-4.35827">
        <ele>54.400001525879</ele>
        <time>2022-08-07T09:08:59.000Z</time>
      </trkpt>
      <trkpt lat="48.58807" lon="-4.35836">
        <ele>54.599998474121</ele>
        <time>2022-08-07T09:09:00.000Z</time>
      </trkpt>
      <trkpt lat="48.58807" lon="-4.35844">
        <ele>54.599998474121</ele>
        <time>2022-08-07T09:09:01.000Z</time>
      </trkpt>
      <trkpt lat="48.58807" lon="-4.35851">
        <ele>54.599998474121</ele>
        <time>2022-08-07T09:09:02.000Z</time>
      </trkpt>
      <trkpt lat="48.58807" lon="-4.35856">
        <ele>54.799999237061</ele>
        <time>2022-08-07T09:09:03.000Z</time>
      </trkpt>
      <trkpt lat="48.58808" lon="-4.35863">
        <ele>54.799999237061</ele>
        <time>2022-08-07T09:09:04.000Z</time>
      </trkpt>
      <trkpt lat="48.58808" lon="-4.35871">
        <ele>54.799999237061</ele>
        <time>2022-08-07T09:09:05.000Z</time>
      </trkpt>
      <trkpt lat="48.58809" lon="-4.35879">
        <ele>54.799999237061</ele>
        <time>2022-08-07T09:09:06.000Z</time>
      </trkpt>
      <trkpt lat="48.58809" lon="-4.35886">
        <ele>54.799999237061</ele>
        <time>2022-08-07T09:09:07.000Z</time>
      </trkpt>
      <trkpt lat="48.58809" lon="-4.35892">
        <ele>55</ele>
        <time>2022-08-07T09:09:08.000Z</time>
      </trkpt>
      <trkpt lat="48.58809" lon="-4.35899">
        <ele>55</ele>
        <time>2022-08-07T09:09:09.000Z</time>
      </trkpt>
      <trkpt lat="48.5881" lon="-4.35907">
        <ele>55</ele>
        <time>2022-08-07T09:09:10.000Z</time>
      </trkpt>
      <trkpt lat="48.5881" lon="-4.35915">
        <ele>55</ele>
        <time>2022-08-07T09:09:11.000Z</time>
      </trkpt>
      <trkpt lat="48.58811" lon="-4.35922">
        <ele>55.200000762939</ele>
        <time>2022-08-07T09:09:12.000Z</time>
      </trkpt>
      <trkpt lat="48.58812" lon="-4.35928">
        <ele>55.200000762939</ele>
        <time>2022-08-07T09:09:13.000Z</time>
      </trkpt>
      <trkpt lat="48.58812" lon="-4.35933">
        <ele>55.200000762939</ele>
        <time>2022-08-07T09:09:14.000Z</time>
      </trkpt>
      <trkpt lat="48.58813" lon="-4.3594">
        <ele>55.200000762939</ele>
        <time>2022-08-07T09:09:15.000Z</time>
      </trkpt>
      <trkpt lat="48.58815" lon="-4.35948">
        <ele>55.200000762939</ele>
        <time>2022-08-07T09:09:16.000Z</time>
      </trkpt>
      <trkpt lat="48.58817" lon="-4.35953">
        <ele>55.200000762939</ele>
        <time>2022-08-07T09:09:17.000Z</time>
      </trkpt>
      <trkpt lat="48.58819" lon="-4.35958">
        <ele>55.200000762939</ele>
        <time>2022-08-07T09:09:18.000Z</time>
      </trkpt>
      <trkpt lat="48.58823" lon="-4.35964">
        <ele>55.200000762939</ele>
        <time>2022-08-07T09:09:19.000Z</time>
      </trkpt>
      <trkpt lat="48.58827" lon="-4.3597">
        <ele>55.200000762939</ele>
        <time>2022-08-07T09:09:20.000Z</time>
      </trkpt>
      <trkpt lat="48.58832" lon="-4.35973">
        <ele>55.200000762939</ele>
        <time>2022-08-07T09:09:21.000Z</time>
      </trkpt>
      <trkpt lat="48.58836" lon="-4.35975">
        <ele>55</ele>
        <time>2022-08-07T09:09:22.000Z</time>
      </trkpt>
      <trkpt lat="48.58839" lon="-4.35976">
        <ele>55</ele>
        <time>2022-08-07T09:09:23.000Z</time>
      </trkpt>
      <trkpt lat="48.58843" lon="-4.35979">
        <ele>55</ele>
        <time>2022-08-07T09:09:24.000Z</time>
      </trkpt>
      <trkpt lat="48.58847" lon="-4.35985">
        <ele>54.799999237061</ele>
        <time>2022-08-07T09:09:25.000Z</time>
      </trkpt>
      <trkpt lat="48.58848" lon="-4.35992">
        <ele>54.599998474121</ele>
        <time>2022-08-07T09:09:26.000Z</time>
      </trkpt>
      <trkpt lat="48.58848" lon="-4.35999">
        <ele>54.599998474121</ele>
        <time>2022-08-07T09:09:27.000Z</time>
      </trkpt>
      <trkpt lat="48.58847" lon="-4.36005">
        <ele>54.400001525879</ele>
        <time>2022-08-07T09:09:28.000Z</time>
      </trkpt>
      <trkpt lat="48.58846" lon="-4.36012">
        <ele>54.400001525879</ele>
        <time>2022-08-07T09:09:29.000Z</time>
      </trkpt>
      <trkpt lat="48.58846" lon="-4.3602">
        <ele>54.200000762939</ele>
        <time>2022-08-07T09:09:30.000Z</time>
      </trkpt>
      <trkpt lat="48.58845" lon="-4.36027">
        <ele>54.200000762939</ele>
        <time>2022-08-07T09:09:31.000Z</time>
      </trkpt>
      <trkpt lat="48.58845" lon="-4.36034">
        <ele>54</ele>
        <time>2022-08-07T09:09:32.000Z</time>
      </trkpt>
      <trkpt lat="48.58845" lon="-4.3604">
        <ele>54</ele>
        <time>2022-08-07T09:09:33.000Z</time>
      </trkpt>
      <trkpt lat="48.58844" lon="-4.36046">
        <ele>54</ele>
        <time>2022-08-07T09:09:34.000Z</time>
      </trkpt>
      <trkpt lat="48.58844" lon="-4.36055">
        <ele>54</ele>
        <time>2022-08-07T09:09:35.000Z</time>
      </trkpt>
      <trkpt lat="48.58843" lon="-4.36062">
        <ele>54</ele>
        <time>2022-08-07T09:09:36.000Z</time>
      </trkpt>
      <trkpt lat="48.58842" lon="-4.36069">
        <ele>54</ele>
        <time>2022-08-07T09:09:37.000Z</time>
      </trkpt>
      <trkpt lat="48.58841" lon="-4.36076">
        <ele>54</ele>
        <time>2022-08-07T09:09:38.000Z</time>
      </trkpt>
      <trkpt lat="48.58839" lon="-4.36082">
        <ele>53.799999237061</ele>
        <time>2022-08-07T09:09:39.000Z</time>
      </trkpt>
      <trkpt lat="48.58836" lon="-4.36088">
        <ele>53.799999237061</ele>
        <time>2022-08-07T09:09:40.000Z</time>
      </trkpt>
      <trkpt lat="48.58831" lon="-4.36091">
        <ele>53.799999237061</ele>
        <time>2022-08-07T09:09:41.000Z</time>
      </trkpt>
      <trkpt lat="48.58826" lon="-4.36095">
        <ele>53.799999237061</ele>
        <time>2022-08-07T09:09:42.000Z</time>
      </trkpt>
      <trkpt lat="48.58822" lon="-4.36099">
        <ele>53.799999237061</ele>
        <time>2022-08-07T09:09:43.000Z</time>
      </trkpt>
      <trkpt lat="48.58818" lon="-4.36105">
        <ele>53.799999237061</ele>
        <time>2022-08-07T09:09:44.000Z</time>
      </trkpt>
      <trkpt lat="48.58815" lon="-4.36111">
        <ele>53.799999237061</ele>
        <time>2022-08-07T09:09:45.000Z</time>
      </trkpt>
      <trkpt lat="48.58812" lon="-4.36117">
        <ele>53.599998474121</ele>
        <time>2022-08-07T09:09:46.000Z</time>
      </trkpt>
      <trkpt lat="48.58809" lon="-4.36123">
        <ele>53.599998474121</ele>
        <time>2022-08-07T09:09:47.000Z</time>
      </trkpt>
      <trkpt lat="48.58806" lon="-4.36129">
        <ele>53.599998474121</ele>
        <time>2022-08-07T09:09:48.000Z</time>
      </trkpt>
      <trkpt lat="48.58803" lon="-4.36133">
        <ele>53.400001525879</ele>
        <time>2022-08-07T09:09:49.000Z</time>
      </trkpt>
      <trkpt lat="48.58799" lon="-4.36135">
        <ele>53.400001525879</ele>
        <time>2022-08-07T09:09:50.000Z</time>
      </trkpt>
      <trkpt lat="48.58794" lon="-4.36135">
        <ele>53.400001525879</ele>
        <time>2022-08-07T09:09:51.000Z</time>
      </trkpt>
      <trkpt lat="48.5879" lon="-4.36134">
        <ele>53.400001525879</ele>
        <time>2022-08-07T09:09:52.000Z</time>
      </trkpt>
      <trkpt lat="48.58785" lon="-4.36132">
        <ele>53.400001525879</ele>
        <time>2022-08-07T09:09:53.000Z</time>
      </trkpt>
      <trkpt lat="48.58781" lon="-4.3613">
        <ele>53.400001525879</ele>
        <time>2022-08-07T09:09:54.000Z</time>
      </trkpt>
      <trkpt lat="48.58776" lon="-4.36128">
        <ele>53.400001525879</ele>
        <time>2022-08-07T09:09:55.000Z</time>
      </trkpt>
      <trkpt lat="48.58772" lon="-4.36127">
        <ele>53.799999237061</ele>
        <time>2022-08-07T09:09:56.000Z</time>
      </trkpt>
      <trkpt lat="48.58767" lon="-4.36126">
        <ele>54.200000762939</ele>
        <time>2022-08-07T09:09:57.000Z</time>
      </trkpt>
      <trkpt lat="48.58763" lon="-4.36126">
        <ele>54.400001525879</ele>
        <time>2022-08-07T09:09:58.000Z</time>
      </trkpt>
      <trkpt lat="48.58759" lon="-4.36125">
        <ele>54.599998474121</ele>
        <time>2022-08-07T09:09:59.000Z</time>
      </trkpt>
      <trkpt lat="48.58756" lon="-4.36125">
        <ele>55</ele>
        <time>2022-08-07T09:10:00.000Z</time>
      </trkpt>
      <trkpt lat="48.58752" lon="-4.36126">
        <ele>55.400001525879</ele>
        <time>2022-08-07T09:10:01.000Z</time>
      </trkpt>
      <trkpt lat="48.58749" lon="-4.36128">
        <ele>55.799999237061</ele>
        <time>2022-08-07T09:10:02.000Z</time>
      </trkpt>
      <trkpt lat="48.58746" lon="-4.36131">
        <ele>56</ele>
        <time>2022-08-07T09:10:03.000Z</time>
      </trkpt>
      <trkpt lat="48.58743" lon="-4.36136">
        <ele>56.200000762939</ele>
        <time>2022-08-07T09:10:04.000Z</time>
      </trkpt>
      <trkpt lat="48.5874" lon="-4.3614">
        <ele>56.200000762939</ele>
        <time>2022-08-07T09:10:05.000Z</time>
      </trkpt>
      <trkpt lat="48.58738" lon="-4.36144">
        <ele>56.400001525879</ele>
        <time>2022-08-07T09:10:06.000Z</time>
      </trkpt>
      <trkpt lat="48.58736" lon="-4.36148">
        <ele>56.400001525879</ele>
        <time>2022-08-07T09:10:07.000Z</time>
      </trkpt>
      <trkpt lat="48.58732" lon="-4.36153">
        <ele>56.599998474121</ele>
        <time>2022-08-07T09:10:08.000Z</time>
      </trkpt>
      <trkpt lat="48.58729" lon="-4.36158">
        <ele>56.799999237061</ele>
        <time>2022-08-07T09:10:09.000Z</time>
      </trkpt>
      <trkpt lat="48.58725" lon="-4.36163">
        <ele>57</ele>
        <time>2022-08-07T09:10:10.000Z</time>
      </trkpt>
      <trkpt lat="48.58722" lon="-4.36168">
        <ele>57</ele>
        <time>2022-08-07T09:10:11.000Z</time>
      </trkpt>
      <trkpt lat="48.5872" lon="-4.36172">
        <ele>57</ele>
        <time>2022-08-07T09:10:12.000Z</time>
      </trkpt>
      <trkpt lat="48.58718" lon="-4.36176">
        <ele>57.200000762939</ele>
        <time>2022-08-07T09:10:13.000Z</time>
      </trkpt>
      <trkpt lat="48.58715" lon="-4.36181">
        <ele>57.200000762939</ele>
        <time>2022-08-07T09:10:14.000Z</time>
      </trkpt>
      <trkpt lat="48.58712" lon="-4.36186">
        <ele>57</ele>
        <time>2022-08-07T09:10:15.000Z</time>
      </trkpt>
      <trkpt lat="48.58708" lon="-4.3619">
        <ele>57</ele>
        <time>2022-08-07T09:10:16.000Z</time>
      </trkpt>
      <trkpt lat="48.58704" lon="-4.36193">
        <ele>57.200000762939</ele>
        <time>2022-08-07T09:10:17.000Z</time>
      </trkpt>
      <trkpt lat="48.58699" lon="-4.36194">
        <ele>57.200000762939</ele>
        <time>2022-08-07T09:10:18.000Z</time>
      </trkpt>
      <trkpt lat="48.58694" lon="-4.36195">
        <ele>57.400001525879</ele>
        <time>2022-08-07T09:10:19.000Z</time>
      </trkpt>
      <trkpt lat="48.58689" lon="-4.36194">
        <ele>57.599998474121</ele>
        <time>2022-08-07T09:10:20.000Z</time>
      </trkpt>
      <trkpt lat="48.58685" lon="-4.36192">
        <ele>57.599998474121</ele>
        <time>2022-08-07T09:10:21.000Z</time>
      </trkpt>
      <trkpt lat="48.5868" lon="-4.3619">
        <ele>57.599998474121</ele>
        <time>2022-08-07T09:10:22.000Z</time>
      </trkpt>
      <trkpt lat="48.58676" lon="-4.36189">
        <ele>57.599998474121</ele>
        <time>2022-08-07T09:10:23.000Z</time>
      </trkpt>
      <trkpt lat="48.58671" lon="-4.36188">
        <ele>57.599998474121</ele>
        <time>2022-08-07T09:10:24.000Z</time>
      </trkpt>
      <trkpt lat="48.58666" lon="-4.36186">
        <ele>57.799999237061</ele>
        <time>2022-08-07T09:10:25.000Z</time>
      </trkpt>
      <trkpt lat="48.58662" lon="-4.36185">
        <ele>57.799999237061</ele>
        <time>2022-08-07T09:10:26.000Z</time>
      </trkpt>
      <trkpt lat="48.58658" lon="-4.36185">
        <ele>57.799999237061</ele>
        <time>2022-08-07T09:10:27.000Z</time>
      </trkpt>
      <trkpt lat="48.58654" lon="-4.36185">
        <ele>57.799999237061</ele>
        <time>2022-08-07T09:10:28.000Z</time>
      </trkpt>
      <trkpt lat="48.5865" lon="-4.36186">
        <ele>57.799999237061</ele>
        <time>2022-08-07T09:10:29.000Z</time>
      </trkpt>
      <trkpt lat="48.58645" lon="-4.36188">
        <ele>57.799999237061</ele>
        <time>2022-08-07T09:10:30.000Z</time>
      </trkpt>
      <trkpt lat="48.58641" lon="-4.36191">
        <ele>58</ele>
        <time>2022-08-07T09:10:31.000Z</time>
      </trkpt>
      <trkpt lat="48.58637" lon="-4.36193">
        <ele>58</ele>
        <time>2022-08-07T09:10:32.000Z</time>
      </trkpt>
      <trkpt lat="48.58633" lon="-4.36195">
        <ele>58.200000762939</ele>
        <time>2022-08-07T09:10:33.000Z</time>
      </trkpt>
      <trkpt lat="48.58628" lon="-4.36198">
        <ele>58.400001525879</ele>
        <time>2022-08-07T09:10:34.000Z</time>
      </trkpt>
      <trkpt lat="48.58624" lon="-4.36201">
        <ele>58.400001525879</ele>
        <time>2022-08-07T09:10:35.000Z</time>
      </trkpt>
      <trkpt lat="48.5862" lon="-4.36204">
        <ele>58.599998474121</ele>
        <time>2022-08-07T09:10:36.000Z</time>
      </trkpt>
      <trkpt lat="48.58616" lon="-4.36207">
        <ele>58.599998474121</ele>
        <time>2022-08-07T09:10:37.000Z</time>
      </trkpt>
      <trkpt lat="48.58612" lon="-4.36209">
        <ele>58.599998474121</ele>
        <time>2022-08-07T09:10:38.000Z</time>
      </trkpt>
      <trkpt lat="48.58608" lon="-4.36212">
        <ele>58.599998474121</ele>
        <time>2022-08-07T09:10:39.000Z</time>
      </trkpt>
      <trkpt lat="48.58604" lon="-4.36214">
        <ele>58.599998474121</ele>
        <time>2022-08-07T09:10:40.000Z</time>
      </trkpt>
      <trkpt lat="48.586" lon="-4.36216">
        <ele>58.599998474121</ele>
        <time>2022-08-07T09:10:41.000Z</time>
      </trkpt>
      <trkpt lat="48.58596" lon="-4.36218">
        <ele>58.599998474121</ele>
        <time>2022-08-07T09:10:42.000Z</time>
      </trkpt>
      <trkpt lat="48.58592" lon="-4.3622">
        <ele>58.599998474121</ele>
        <time>2022-08-07T09:10:43.000Z</time>
      </trkpt>
      <trkpt lat="48.58588" lon="-4.36224">
        <ele>58.599998474121</ele>
        <time>2022-08-07T09:10:44.000Z</time>
      </trkpt>
      <trkpt lat="48.58586" lon="-4.36227">
        <ele>58.599998474121</ele>
        <time>2022-08-07T09:10:45.000Z</time>
      </trkpt>
      <trkpt lat="48.58583" lon="-4.36231">
        <ele>58.599998474121</ele>
        <time>2022-08-07T09:10:46.000Z</time>
      </trkpt>
      <trkpt lat="48.58581" lon="-4.36234">
        <ele>58.799999237061</ele>
        <time>2022-08-07T09:10:47.000Z</time>
      </trkpt>
      <trkpt lat="48.58578" lon="-4.36237">
        <ele>58.799999237061</ele>
        <time>2022-08-07T09:10:48.000Z</time>
      </trkpt>
      <trkpt lat="48.58576" lon="-4.3624">
        <ele>58.799999237061</ele>
        <time>2022-08-07T09:10:49.000Z</time>
      </trkpt>
      <trkpt lat="48.58573" lon="-4.36244">
        <ele>59</ele>
        <time>2022-08-07T09:10:50.000Z</time>
      </trkpt>
      <trkpt lat="48.58571" lon="-4.36247">
        <ele>59.200000762939</ele>
        <time>2022-08-07T09:10:51.000Z</time>
      </trkpt>
      <trkpt lat="48.58568" lon="-4.36251">
        <ele>59.200000762939</ele>
        <time>2022-08-07T09:10:52.000Z</time>
      </trkpt>
      <trkpt lat="48.58565" lon="-4.36255">
        <ele>59.200000762939</ele>
        <time>2022-08-07T09:10:53.000Z</time>
      </trkpt>
      <trkpt lat="48.58562" lon="-4.36259">
        <ele>59.400001525879</ele>
        <time>2022-08-07T09:10:54.000Z</time>
      </trkpt>
      <trkpt lat="48.58559" lon="-4.36262">
        <ele>59.400001525879</ele>
        <time>2022-08-07T09:10:55.000Z</time>
      </trkpt>
      <trkpt lat="48.58556" lon="-4.36267">
        <ele>59.400001525879</ele>
        <time>2022-08-07T09:10:56.000Z</time>
      </trkpt>
      <trkpt lat="48.58552" lon="-4.36271">
        <ele>59.599998474121</ele>
        <time>2022-08-07T09:10:57.000Z</time>
      </trkpt>
      <trkpt lat="48.58548" lon="-4.36275">
        <ele>59.799999237061</ele>
        <time>2022-08-07T09:10:58.000Z</time>
      </trkpt>
      <trkpt lat="48.58545" lon="-4.36279">
        <ele>60</ele>
        <time>2022-08-07T09:10:59.000Z</time>
      </trkpt>
      <trkpt lat="48.58542" lon="-4.36283">
        <ele>60.400001525879</ele>
        <time>2022-08-07T09:11:00.000Z</time>
      </trkpt>
      <trkpt lat="48.58538" lon="-4.36287">
        <ele>60.599998474121</ele>
        <time>2022-08-07T09:11:01.000Z</time>
      </trkpt>
      <trkpt lat="48.58535" lon="-4.36292">
        <ele>60.799999237061</ele>
        <time>2022-08-07T09:11:02.000Z</time>
      </trkpt>
      <trkpt lat="48.58532" lon="-4.36296">
        <ele>61</ele>
        <time>2022-08-07T09:11:03.000Z</time>
      </trkpt>
      <trkpt lat="48.58528" lon="-4.363">
        <ele>61.200000762939</ele>
        <time>2022-08-07T09:11:04.000Z</time>
      </trkpt>
      <trkpt lat="48.58525" lon="-4.36304">
        <ele>61.200000762939</ele>
        <time>2022-08-07T09:11:05.000Z</time>
      </trkpt>
      <trkpt lat="48.58521" lon="-4.36308">
        <ele>61.400001525879</ele>
        <time>2022-08-07T09:11:06.000Z</time>
      </trkpt>
      <trkpt lat="48.58518" lon="-4.36312">
        <ele>61.400001525879</ele>
        <time>2022-08-07T09:11:07.000Z</time>
      </trkpt>
      <trkpt lat="48.58514" lon="-4.36316">
        <ele>61.599998474121</ele>
        <time>2022-08-07T09:11:08.000Z</time>
      </trkpt>
      <trkpt lat="48.5851" lon="-4.3632">
        <ele>61.599998474121</ele>
        <time>2022-08-07T09:11:09.000Z</time>
      </trkpt>
      <trkpt lat="48.58507" lon="-4.36324">
        <ele>61.799999237061</ele>
        <time>2022-08-07T09:11:10.000Z</time>
      </trkpt>
      <trkpt lat="48.58504" lon="-4.36327">
        <ele>61.799999237061</ele>
        <time>2022-08-07T09:11:11.000Z</time>
      </trkpt>
      <trkpt lat="48.58501" lon="-4.36331">
        <ele>62</ele>
        <time>2022-08-07T09:11:12.000Z</time>
      </trkpt>
      <trkpt lat="48.58498" lon="-4.36333">
        <ele>62</ele>
        <time>2022-08-07T09:11:13.000Z</time>
      </trkpt>
      <trkpt lat="48.58495" lon="-4.36334">
        <ele>62</ele>
        <time>2022-08-07T09:11:14.000Z</time>
      </trkpt>
      <trkpt lat="48.58492" lon="-4.36333">
        <ele>62</ele>
        <time>2022-08-07T09:11:15.000Z</time>
      </trkpt>
      <trkpt lat="48.58488" lon="-4.3633">
        <ele>62</ele>
        <time>2022-08-07T09:11:16.000Z</time>
      </trkpt>
      <trkpt lat="48.58485" lon="-4.36326">
        <ele>62</ele>
        <time>2022-08-07T09:11:17.000Z</time>
      </trkpt>
      <trkpt lat="48.58482" lon="-4.36321">
        <ele>62.200000762939</ele>
        <time>2022-08-07T09:11:18.000Z</time>
      </trkpt>
      <trkpt lat="48.58479" lon="-4.36317">
        <ele>62.200000762939</ele>
        <time>2022-08-07T09:11:19.000Z</time>
      </trkpt>
      <trkpt lat="48.58476" lon="-4.36312">
        <ele>62.200000762939</ele>
        <time>2022-08-07T09:11:20.000Z</time>
      </trkpt>
      <trkpt lat="48.58472" lon="-4.36307">
        <ele>62.200000762939</ele>
        <time>2022-08-07T09:11:21.000Z</time>
      </trkpt>
      <trkpt lat="48.58468" lon="-4.36302">
        <ele>62.200000762939</ele>
        <time>2022-08-07T09:11:22.000Z</time>
      </trkpt>
      <trkpt lat="48.58464" lon="-4.36298">
        <ele>62</ele>
        <time>2022-08-07T09:11:23.000Z</time>
      </trkpt>
      <trkpt lat="48.5846" lon="-4.36293">
        <ele>62</ele>
        <time>2022-08-07T09:11:24.000Z</time>
      </trkpt>
      <trkpt lat="48.58456" lon="-4.36288">
        <ele>62</ele>
        <time>2022-08-07T09:11:25.000Z</time>
      </trkpt>
      <trkpt lat="48.58453" lon="-4.36283">
        <ele>62</ele>
        <time>2022-08-07T09:11:26.000Z</time>
      </trkpt>
      <trkpt lat="48.58449" lon="-4.36278">
        <ele>62.200000762939</ele>
        <time>2022-08-07T09:11:27.000Z</time>
      </trkpt>
      <trkpt lat="48.58445" lon="-4.36274">
        <ele>62.200000762939</ele>
        <time>2022-08-07T09:11:28.000Z</time>
      </trkpt>
      <trkpt lat="48.58441" lon="-4.36269">
        <ele>62.400001525879</ele>
        <time>2022-08-07T09:11:29.000Z</time>
      </trkpt>
      <trkpt lat="48.58438" lon="-4.36264">
        <ele>62.400001525879</ele>
        <time>2022-08-07T09:11:30.000Z</time>
      </trkpt>
      <trkpt lat="48.58435" lon="-4.36259">
        <ele>62.400001525879</ele>
        <time>2022-08-07T09:11:31.000Z</time>
      </trkpt>
      <trkpt lat="48.58431" lon="-4.36253">
        <ele>62.599998474121</ele>
        <time>2022-08-07T09:11:32.000Z</time>
      </trkpt>
      <trkpt lat="48.58428" lon="-4.36248">
        <ele>62.599998474121</ele>
        <time>2022-08-07T09:11:33.000Z</time>
      </trkpt>
      <trkpt lat="48.58425" lon="-4.36243">
        <ele>62.799999237061</ele>
        <time>2022-08-07T09:11:34.000Z</time>
      </trkpt>
      <trkpt lat="48.58421" lon="-4.36238">
        <ele>63</ele>
        <time>2022-08-07T09:11:35.000Z</time>
      </trkpt>
      <trkpt lat="48.58418" lon="-4.36233">
        <ele>63</ele>
        <time>2022-08-07T09:11:36.000Z</time>
      </trkpt>
      <trkpt lat="48.58415" lon="-4.36228">
        <ele>63</ele>
        <time>2022-08-07T09:11:37.000Z</time>
      </trkpt>
      <trkpt lat="48.58411" lon="-4.36223">
        <ele>63</ele>
        <time>2022-08-07T09:11:38.000Z</time>
      </trkpt>
      <trkpt lat="48.58408" lon="-4.36218">
        <ele>63.200000762939</ele>
        <time>2022-08-07T09:11:39.000Z</time>
      </trkpt>
      <trkpt lat="48.58405" lon="-4.36212">
        <ele>63.200000762939</ele>
        <time>2022-08-07T09:11:40.000Z</time>
      </trkpt>
      <trkpt lat="48.58403" lon="-4.36205">
        <ele>63.400001525879</ele>
        <time>2022-08-07T09:11:41.000Z</time>
      </trkpt>
      <trkpt lat="48.58401" lon="-4.36198">
        <ele>63.599998474121</ele>
        <time>2022-08-07T09:11:42.000Z</time>
      </trkpt>
      <trkpt lat="48.58399" lon="-4.36192">
        <ele>63.599998474121</ele>
        <time>2022-08-07T09:11:43.000Z</time>
      </trkpt>
      <trkpt lat="48.58397" lon="-4.36186">
        <ele>63.799999237061</ele>
        <time>2022-08-07T09:11:44.000Z</time>
      </trkpt>
      <trkpt lat="48.58395" lon="-4.3618">
        <ele>63.799999237061</ele>
        <time>2022-08-07T09:11:45.000Z</time>
      </trkpt>
      <trkpt lat="48.58393" lon="-4.36174">
        <ele>64</ele>
        <time>2022-08-07T09:11:46.000Z</time>
      </trkpt>
      <trkpt lat="48.58391" lon="-4.36168">
        <ele>64.199996948242</ele>
        <time>2022-08-07T09:11:47.000Z</time>
      </trkpt>
      <trkpt lat="48.58389" lon="-4.36162">
        <ele>64.199996948242</ele>
        <time>2022-08-07T09:11:48.000Z</time>
      </trkpt>
      <trkpt lat="48.58387" lon="-4.36157">
        <ele>64.199996948242</ele>
        <time>2022-08-07T09:11:49.000Z</time>
      </trkpt>
      <trkpt lat="48.58385" lon="-4.36151">
        <ele>64.199996948242</ele>
        <time>2022-08-07T09:11:50.000Z</time>
      </trkpt>
      <trkpt lat="48.58383" lon="-4.36145">
        <ele>64.199996948242</ele>
        <time>2022-08-07T09:11:51.000Z</time>
      </trkpt>
      <trkpt lat="48.58381" lon="-4.3614">
        <ele>64.199996948242</ele>
        <time>2022-08-07T09:11:52.000Z</time>
      </trkpt>
      <trkpt lat="48.58379" lon="-4.36134">
        <ele>64.199996948242</ele>
        <time>2022-08-07T09:11:53.000Z</time>
      </trkpt>
      <trkpt lat="48.58377" lon="-4.36127">
        <ele>64.400001525879</ele>
        <time>2022-08-07T09:11:54.000Z</time>
      </trkpt>
      <trkpt lat="48.58374" lon="-4.3612">
        <ele>64.400001525879</ele>
        <time>2022-08-07T09:11:55.000Z</time>
      </trkpt>
      <trkpt lat="48.58372" lon="-4.36113">
        <ele>64.400001525879</ele>
        <time>2022-08-07T09:11:56.000Z</time>
      </trkpt>
      <trkpt lat="48.5837" lon="-4.36106">
        <ele>64.400001525879</ele>
        <time>2022-08-07T09:11:57.000Z</time>
      </trkpt>
      <trkpt lat="48.58367" lon="-4.361">
        <ele>64.599998474121</ele>
        <time>2022-08-07T09:11:58.000Z</time>
      </trkpt>
      <trkpt lat="48.58365" lon="-4.36094">
        <ele>64.599998474121</ele>
        <time>2022-08-07T09:11:59.000Z</time>
      </trkpt>
      <trkpt lat="48.58362" lon="-4.36088">
        <ele>64.599998474121</ele>
        <time>2022-08-07T09:12:00.000Z</time>
      </trkpt>
      <trkpt lat="48.5836" lon="-4.36084">
        <ele>64.800003051758</ele>
        <time>2022-08-07T09:12:01.000Z</time>
      </trkpt>
      <trkpt lat="48.58358" lon="-4.36078">
        <ele>64.800003051758</ele>
        <time>2022-08-07T09:12:02.000Z</time>
      </trkpt>
      <trkpt lat="48.58355" lon="-4.36073">
        <ele>64.800003051758</ele>
        <time>2022-08-07T09:12:03.000Z</time>
      </trkpt>
      <trkpt lat="48.58353" lon="-4.36067">
        <ele>65</ele>
        <time>2022-08-07T09:12:04.000Z</time>
      </trkpt>
      <trkpt lat="48.58351" lon="-4.3606">
        <ele>65.199996948242</ele>
        <time>2022-08-07T09:12:05.000Z</time>
      </trkpt>
      <trkpt lat="48.58348" lon="-4.36054">
        <ele>65.400001525879</ele>
        <time>2022-08-07T09:12:06.000Z</time>
      </trkpt>
      <trkpt lat="48.58345" lon="-4.36048">
        <ele>65.599998474121</ele>
        <time>2022-08-07T09:12:07.000Z</time>
      </trkpt>
      <trkpt lat="48.58342" lon="-4.36041">
        <ele>65.800003051758</ele>
        <time>2022-08-07T09:12:08.000Z</time>
      </trkpt>
      <trkpt lat="48.5834" lon="-4.36034">
        <ele>65.800003051758</ele>
        <time>2022-08-07T09:12:09.000Z</time>
      </trkpt>
      <trkpt lat="48.58337" lon="-4.36027">
        <ele>65.800003051758</ele>
        <time>2022-08-07T09:12:10.000Z</time>
      </trkpt>
      <trkpt lat="48.58334" lon="-4.36022">
        <ele>65.800003051758</ele>
        <time>2022-08-07T09:12:11.000Z</time>
      </trkpt>
      <trkpt lat="48.58331" lon="-4.36017">
        <ele>65.800003051758</ele>
        <time>2022-08-07T09:12:12.000Z</time>
      </trkpt>
      <trkpt lat="48.58327" lon="-4.36015">
        <ele>65.800003051758</ele>
        <time>2022-08-07T09:12:13.000Z</time>
      </trkpt>
      <trkpt lat="48.58322" lon="-4.36017">
        <ele>65.800003051758</ele>
        <time>2022-08-07T09:12:14.000Z</time>
      </trkpt>
      <trkpt lat="48.58318" lon="-4.36018">
        <ele>65.800003051758</ele>
        <time>2022-08-07T09:12:15.000Z</time>
      </trkpt>
      <trkpt lat="48.58313" lon="-4.36021">
        <ele>65.800003051758</ele>
        <time>2022-08-07T09:12:16.000Z</time>
      </trkpt>
      <trkpt lat="48.58307" lon="-4.36023">
        <ele>65.800003051758</ele>
        <time>2022-08-07T09:12:17.000Z</time>
      </trkpt>
      <trkpt lat="48.58302" lon="-4.36026">
        <ele>65.800003051758</ele>
        <time>2022-08-07T09:12:18.000Z</time>
      </trkpt>
      <trkpt lat="48.58296" lon="-4.36029">
        <ele>66</ele>
        <time>2022-08-07T09:12:19.000Z</time>
      </trkpt>
      <trkpt lat="48.5829" lon="-4.36031">
        <ele>66</ele>
        <time>2022-08-07T09:12:20.000Z</time>
      </trkpt>
      <trkpt lat="48.58284" lon="-4.36034">
        <ele>66</ele>
        <time>2022-08-07T09:12:21.000Z</time>
      </trkpt>
      <trkpt lat="48.58278" lon="-4.36037">
        <ele>66.400001525879</ele>
        <time>2022-08-07T09:12:22.000Z</time>
      </trkpt>
      <trkpt lat="48.58273" lon="-4.3604">
        <ele>66.599998474121</ele>
        <time>2022-08-07T09:12:23.000Z</time>
      </trkpt>
      <trkpt lat="48.58267" lon="-4.36043">
        <ele>66.599998474121</ele>
        <time>2022-08-07T09:12:24.000Z</time>
      </trkpt>
      <trkpt lat="48.58262" lon="-4.36045">
        <ele>66.599998474121</ele>
        <time>2022-08-07T09:12:25.000Z</time>
      </trkpt>
      <trkpt lat="48.58257" lon="-4.36048">
        <ele>66.800003051758</ele>
        <time>2022-08-07T09:12:26.000Z</time>
      </trkpt>
      <trkpt lat="48.58251" lon="-4.36051">
        <ele>66.800003051758</ele>
        <time>2022-08-07T09:12:27.000Z</time>
      </trkpt>
      <trkpt lat="48.58245" lon="-4.36053">
        <ele>67</ele>
        <time>2022-08-07T09:12:28.000Z</time>
      </trkpt>
      <trkpt lat="48.5824" lon="-4.36056">
        <ele>67</ele>
        <time>2022-08-07T09:12:29.000Z</time>
      </trkpt>
      <trkpt lat="48.58235" lon="-4.36059">
        <ele>67</ele>
        <time>2022-08-07T09:12:30.000Z</time>
      </trkpt>
      <trkpt lat="48.5823" lon="-4.36061">
        <ele>67</ele>
        <time>2022-08-07T09:12:31.000Z</time>
      </trkpt>
      <trkpt lat="48.58224" lon="-4.36064">
        <ele>67</ele>
        <time>2022-08-07T09:12:32.000Z</time>
      </trkpt>
      <trkpt lat="48.58218" lon="-4.36066">
        <ele>67.199996948242</ele>
        <time>2022-08-07T09:12:33.000Z</time>
      </trkpt>
      <trkpt lat="48.58213" lon="-4.36069">
        <ele>67.199996948242</ele>
        <time>2022-08-07T09:12:34.000Z</time>
      </trkpt>
      <trkpt lat="48.58207" lon="-4.36071">
        <ele>67.400001525879</ele>
        <time>2022-08-07T09:12:35.000Z</time>
      </trkpt>
      <trkpt lat="48.58202" lon="-4.36074">
        <ele>67.599998474121</ele>
        <time>2022-08-07T09:12:36.000Z</time>
      </trkpt>
      <trkpt lat="48.58196" lon="-4.36076">
        <ele>67.599998474121</ele>
        <time>2022-08-07T09:12:37.000Z</time>
      </trkpt>
      <trkpt lat="48.58191" lon="-4.36078">
        <ele>67.800003051758</ele>
        <time>2022-08-07T09:12:38.000Z</time>
      </trkpt>
      <trkpt lat="48.58186" lon="-4.36082">
        <ele>67.800003051758</ele>
        <time>2022-08-07T09:12:39.000Z</time>
      </trkpt>
      <trkpt lat="48.58181" lon="-4.36085">
        <ele>68</ele>
        <time>2022-08-07T09:12:40.000Z</time>
      </trkpt>
      <trkpt lat="48.58176" lon="-4.36089">
        <ele>68.199996948242</ele>
        <time>2022-08-07T09:12:41.000Z</time>
      </trkpt>
      <trkpt lat="48.58171" lon="-4.36093">
        <ele>68.400001525879</ele>
        <time>2022-08-07T09:12:42.000Z</time>
      </trkpt>
      <trkpt lat="48.58165" lon="-4.36097">
        <ele>68.400001525879</ele>
        <time>2022-08-07T09:12:43.000Z</time>
      </trkpt>
      <trkpt lat="48.5816" lon="-4.36102">
        <ele>68.599998474121</ele>
        <time>2022-08-07T09:12:44.000Z</time>
      </trkpt>
      <trkpt lat="48.58155" lon="-4.36107">
        <ele>68.800003051758</ele>
        <time>2022-08-07T09:12:45.000Z</time>
      </trkpt>
      <trkpt lat="48.58149" lon="-4.36113">
        <ele>68.800003051758</ele>
        <time>2022-08-07T09:12:46.000Z</time>
      </trkpt>
      <trkpt lat="48.58144" lon="-4.36117">
        <ele>68.800003051758</ele>
        <time>2022-08-07T09:12:47.000Z</time>
      </trkpt>
      <trkpt lat="48.58139" lon="-4.36121">
        <ele>69</ele>
        <time>2022-08-07T09:12:48.000Z</time>
      </trkpt>
      <trkpt lat="48.58134" lon="-4.36123">
        <ele>69</ele>
        <time>2022-08-07T09:12:49.000Z</time>
      </trkpt>
      <trkpt lat="48.5813" lon="-4.36126">
        <ele>69.199996948242</ele>
        <time>2022-08-07T09:12:50.000Z</time>
      </trkpt>
      <trkpt lat="48.58124" lon="-4.36128">
        <ele>69.199996948242</ele>
        <time>2022-08-07T09:12:51.000Z</time>
      </trkpt>
      <trkpt lat="48.58119" lon="-4.3613">
        <ele>69.400001525879</ele>
        <time>2022-08-07T09:12:52.000Z</time>
      </trkpt>
      <trkpt lat="48.58114" lon="-4.36134">
        <ele>69.400001525879</ele>
        <time>2022-08-07T09:12:53.000Z</time>
      </trkpt>
      <trkpt lat="48.58109" lon="-4.36138">
        <ele>69.400001525879</ele>
        <time>2022-08-07T09:12:54.000Z</time>
      </trkpt>
      <trkpt lat="48.58105" lon="-4.36143">
        <ele>69.400001525879</ele>
        <time>2022-08-07T09:12:55.000Z</time>
      </trkpt>
      <trkpt lat="48.581" lon="-4.36148">
        <ele>69.599998474121</ele>
        <time>2022-08-07T09:12:56.000Z</time>
      </trkpt>
      <trkpt lat="48.58095" lon="-4.36152">
        <ele>69.599998474121</ele>
        <time>2022-08-07T09:12:57.000Z</time>
      </trkpt>
      <trkpt lat="48.58089" lon="-4.36155">
        <ele>69.800003051758</ele>
        <time>2022-08-07T09:12:58.000Z</time>
      </trkpt>
      <trkpt lat="48.58084" lon="-4.36159">
        <ele>69.800003051758</ele>
        <time>2022-08-07T09:12:59.000Z</time>
      </trkpt>
      <trkpt lat="48.58079" lon="-4.36163">
        <ele>70</ele>
        <time>2022-08-07T09:13:00.000Z</time>
      </trkpt>
      <trkpt lat="48.58073" lon="-4.36167">
        <ele>70</ele>
        <time>2022-08-07T09:13:01.000Z</time>
      </trkpt>
      <trkpt lat="48.58068" lon="-4.36172">
        <ele>70</ele>
        <time>2022-08-07T09:13:02.000Z</time>
      </trkpt>
      <trkpt lat="48.58063" lon="-4.36177">
        <ele>70</ele>
        <time>2022-08-07T09:13:03.000Z</time>
      </trkpt>
      <trkpt lat="48.58057" lon="-4.36182">
        <ele>70</ele>
        <time>2022-08-07T09:13:04.000Z</time>
      </trkpt>
      <trkpt lat="48.58052" lon="-4.36187">
        <ele>70</ele>
        <time>2022-08-07T09:13:05.000Z</time>
      </trkpt>
      <trkpt lat="48.58047" lon="-4.36192">
        <ele>70.199996948242</ele>
        <time>2022-08-07T09:13:06.000Z</time>
      </trkpt>
      <trkpt lat="48.58042" lon="-4.36198">
        <ele>70.199996948242</ele>
        <time>2022-08-07T09:13:07.000Z</time>
      </trkpt>
      <trkpt lat="48.58036" lon="-4.36203">
        <ele>70.199996948242</ele>
        <time>2022-08-07T09:13:08.000Z</time>
      </trkpt>
      <trkpt lat="48.58031" lon="-4.36209">
        <ele>70.199996948242</ele>
        <time>2022-08-07T09:13:09.000Z</time>
      </trkpt>
      <trkpt lat="48.58026" lon="-4.36214">
        <ele>70.199996948242</ele>
        <time>2022-08-07T09:13:10.000Z</time>
      </trkpt>
      <trkpt lat="48.58021" lon="-4.36219">
        <ele>70.400001525879</ele>
        <time>2022-08-07T09:13:11.000Z</time>
      </trkpt>
      <trkpt lat="48.58016" lon="-4.36224">
        <ele>70.400001525879</ele>
        <time>2022-08-07T09:13:12.000Z</time>
      </trkpt>
      <trkpt lat="48.58011" lon="-4.36229">
        <ele>70.400001525879</ele>
        <time>2022-08-07T09:13:13.000Z</time>
      </trkpt>
      <trkpt lat="48.58006" lon="-4.36234">
        <ele>70.400001525879</ele>
        <time>2022-08-07T09:13:14.000Z</time>
      </trkpt>
      <trkpt lat="48.58001" lon="-4.36239">
        <ele>70.400001525879</ele>
        <time>2022-08-07T09:13:15.000Z</time>
      </trkpt>
      <trkpt lat="48.57997" lon="-4.36244">
        <ele>70.599998474121</ele>
        <time>2022-08-07T09:13:16.000Z</time>
      </trkpt>
      <trkpt lat="48.57993" lon="-4.36249">
        <ele>70.800003051758</ele>
        <time>2022-08-07T09:13:17.000Z</time>
      </trkpt>
      <trkpt lat="48.57989" lon="-4.36253">
        <ele>70.800003051758</ele>
        <time>2022-08-07T09:13:18.000Z</time>
      </trkpt>
      <trkpt lat="48.57985" lon="-4.36257">
        <ele>70.800003051758</ele>
        <time>2022-08-07T09:13:19.000Z</time>
      </trkpt>
      <trkpt lat="48.57982" lon="-4.36261">
        <ele>70.800003051758</ele>
        <time>2022-08-07T09:13:20.000Z</time>
      </trkpt>
      <trkpt lat="48.57979" lon="-4.36264">
        <ele>70.800003051758</ele>
        <time>2022-08-07T09:13:21.000Z</time>
      </trkpt>
      <trkpt lat="48.57975" lon="-4.36267">
        <ele>71</ele>
        <time>2022-08-07T09:13:22.000Z</time>
      </trkpt>
      <trkpt lat="48.57972" lon="-4.36271">
        <ele>71.199996948242</ele>
        <time>2022-08-07T09:13:23.000Z</time>
      </trkpt>
      <trkpt lat="48.57969" lon="-4.36275">
        <ele>71.199996948242</ele>
        <time>2022-08-07T09:13:24.000Z</time>
      </trkpt>
      <trkpt lat="48.57965" lon="-4.36278">
        <ele>71.199996948242</ele>
        <time>2022-08-07T09:13:25.000Z</time>
      </trkpt>
      <trkpt lat="48.57961" lon="-4.36282">
        <ele>71.400001525879</ele>
        <time>2022-08-07T09:13:26.000Z</time>
      </trkpt>
      <trkpt lat="48.57958" lon="-4.36285">
        <ele>71.400001525879</ele>
        <time>2022-08-07T09:13:27.000Z</time>
      </trkpt>
      <trkpt lat="48.57954" lon="-4.36289">
        <ele>71.400001525879</ele>
        <time>2022-08-07T09:13:28.000Z</time>
      </trkpt>
      <trkpt lat="48.57951" lon="-4.36292">
        <ele>71.400001525879</ele>
        <time>2022-08-07T09:13:29.000Z</time>
      </trkpt>
      <trkpt lat="48.57947" lon="-4.36295">
        <ele>71.400001525879</ele>
        <time>2022-08-07T09:13:30.000Z</time>
      </trkpt>
      <trkpt lat="48.57944" lon="-4.36298">
        <ele>71.400001525879</ele>
        <time>2022-08-07T09:13:31.000Z</time>
      </trkpt>
      <trkpt lat="48.57941" lon="-4.36301">
        <ele>71.599998474121</ele>
        <time>2022-08-07T09:13:32.000Z</time>
      </trkpt>
      <trkpt lat="48.57937" lon="-4.36304">
        <ele>71.599998474121</ele>
        <time>2022-08-07T09:13:33.000Z</time>
      </trkpt>
      <trkpt lat="48.57934" lon="-4.36307">
        <ele>71.400001525879</ele>
        <time>2022-08-07T09:13:34.000Z</time>
      </trkpt>
      <trkpt lat="48.57931" lon="-4.3631">
        <ele>71.400001525879</ele>
        <time>2022-08-07T09:13:35.000Z</time>
      </trkpt>
      <trkpt lat="48.57927" lon="-4.36313">
        <ele>71.400001525879</ele>
        <time>2022-08-07T09:13:36.000Z</time>
      </trkpt>
      <trkpt lat="48.57924" lon="-4.36317">
        <ele>71.400001525879</ele>
        <time>2022-08-07T09:13:37.000Z</time>
      </trkpt>
      <trkpt lat="48.57921" lon="-4.3632">
        <ele>71.199996948242</ele>
        <time>2022-08-07T09:13:38.000Z</time>
      </trkpt>
      <trkpt lat="48.57918" lon="-4.36323">
        <ele>71.199996948242</ele>
        <time>2022-08-07T09:13:39.000Z</time>
      </trkpt>
      <trkpt lat="48.57915" lon="-4.36325">
        <ele>71.199996948242</ele>
        <time>2022-08-07T09:13:40.000Z</time>
      </trkpt>
      <trkpt lat="48.57912" lon="-4.36327">
        <ele>71.199996948242</ele>
        <time>2022-08-07T09:13:41.000Z</time>
      </trkpt>
      <trkpt lat="48.57909" lon="-4.36328">
        <ele>71.199996948242</ele>
        <time>2022-08-07T09:13:42.000Z</time>
      </trkpt>
      <trkpt lat="48.57906" lon="-4.36329">
        <ele>71.199996948242</ele>
        <time>2022-08-07T09:13:43.000Z</time>
      </trkpt>
      <trkpt lat="48.57904" lon="-4.36329">
        <ele>71.199996948242</ele>
        <time>2022-08-07T09:13:44.000Z</time>
      </trkpt>
      <trkpt lat="48.57902" lon="-4.3633">
        <ele>71.199996948242</ele>
        <time>2022-08-07T09:13:45.000Z</time>
      </trkpt>
      <trkpt lat="48.579" lon="-4.3633">
        <ele>71.199996948242</ele>
        <time>2022-08-07T09:13:46.000Z</time>
      </trkpt>
      <trkpt lat="48.57898" lon="-4.36331">
        <ele>71.199996948242</ele>
        <time>2022-08-07T09:13:47.000Z</time>
      </trkpt>
      <trkpt lat="48.57896" lon="-4.36332">
        <ele>71.400001525879</ele>
        <time>2022-08-07T09:13:48.000Z</time>
      </trkpt>
      <trkpt lat="48.57895" lon="-4.36333">
        <ele>71.400001525879</ele>
        <time>2022-08-07T09:13:49.000Z</time>
      </trkpt>
      <trkpt lat="48.57894" lon="-4.36335">
        <ele>71.599998474121</ele>
        <time>2022-08-07T09:13:50.000Z</time>
      </trkpt>
      <trkpt lat="48.57892" lon="-4.36337">
        <ele>71.599998474121</ele>
        <time>2022-08-07T09:13:51.000Z</time>
      </trkpt>
      <trkpt lat="48.57892" lon="-4.36338">
        <ele>71.599998474121</ele>
        <time>2022-08-07T09:13:52.000Z</time>
      </trkpt>
      <trkpt lat="48.57891" lon="-4.3634">
        <ele>71.599998474121</ele>
        <time>2022-08-07T09:13:53.000Z</time>
      </trkpt>
      <trkpt lat="48.57889" lon="-4.36341">
        <ele>71.599998474121</ele>
        <time>2022-08-07T09:13:54.000Z</time>
      </trkpt>
      <trkpt lat="48.57888" lon="-4.36344">
        <ele>71.599998474121</ele>
        <time>2022-08-07T09:13:55.000Z</time>
      </trkpt>
      <trkpt lat="48.57886" lon="-4.36346">
        <ele>71.599998474121</ele>
        <time>2022-08-07T09:13:56.000Z</time>
      </trkpt>
      <trkpt lat="48.57884" lon="-4.36348">
        <ele>71.800003051758</ele>
        <time>2022-08-07T09:13:57.000Z</time>
      </trkpt>
      <trkpt lat="48.57883" lon="-4.3635">
        <ele>71.599998474121</ele>
        <time>2022-08-07T09:13:58.000Z</time>
      </trkpt>
      <trkpt lat="48.57881" lon="-4.36352">
        <ele>71.599998474121</ele>
        <time>2022-08-07T09:13:59.000Z</time>
      </trkpt>
      <trkpt lat="48.57879" lon="-4.36353">
        <ele>71.599998474121</ele>
        <time>2022-08-07T09:14:00.000Z</time>
      </trkpt>
      <trkpt lat="48.57877" lon="-4.36356">
        <ele>71.599998474121</ele>
        <time>2022-08-07T09:14:01.000Z</time>
      </trkpt>
      <trkpt lat="48.57875" lon="-4.36358">
        <ele>71.599998474121</ele>
        <time>2022-08-07T09:14:02.000Z</time>
      </trkpt>
      <trkpt lat="48.57874" lon="-4.36361">
        <ele>71.800003051758</ele>
        <time>2022-08-07T09:14:03.000Z</time>
      </trkpt>
      <trkpt lat="48.57872" lon="-4.36363">
        <ele>71.800003051758</ele>
        <time>2022-08-07T09:14:04.000Z</time>
      </trkpt>
      <trkpt lat="48.5787" lon="-4.36366">
        <ele>71.800003051758</ele>
        <time>2022-08-07T09:14:05.000Z</time>
      </trkpt>
      <trkpt lat="48.57868" lon="-4.36368">
        <ele>71.800003051758</ele>
        <time>2022-08-07T09:14:06.000Z</time>
      </trkpt>
      <trkpt lat="48.57866" lon="-4.36371">
        <ele>71.800003051758</ele>
        <time>2022-08-07T09:14:07.000Z</time>
      </trkpt>
      <trkpt lat="48.57864" lon="-4.36373">
        <ele>71.800003051758</ele>
        <time>2022-08-07T09:14:08.000Z</time>
      </trkpt>
      <trkpt lat="48.57862" lon="-4.36374">
        <ele>71.599998474121</ele>
        <time>2022-08-07T09:14:09.000Z</time>
      </trkpt>
      <trkpt lat="48.5786" lon="-4.36376">
        <ele>71.800003051758</ele>
        <time>2022-08-07T09:14:10.000Z</time>
      </trkpt>
      <trkpt lat="48.57858" lon="-4.36379">
        <ele>71.800003051758</ele>
        <time>2022-08-07T09:14:11.000Z</time>
      </trkpt>
      <trkpt lat="48.57856" lon="-4.36381">
        <ele>72</ele>
        <time>2022-08-07T09:14:12.000Z</time>
      </trkpt>
      <trkpt lat="48.57854" lon="-4.36383">
        <ele>72</ele>
        <time>2022-08-07T09:14:13.000Z</time>
      </trkpt>
      <trkpt lat="48.57852" lon="-4.36385">
        <ele>72</ele>
        <time>2022-08-07T09:14:14.000Z</time>
      </trkpt>
      <trkpt lat="48.5785" lon="-4.36386">
        <ele>72</ele>
        <time>2022-08-07T09:14:15.000Z</time>
      </trkpt>
      <trkpt lat="48.57848" lon="-4.36389">
        <ele>72</ele>
        <time>2022-08-07T09:14:16.000Z</time>
      </trkpt>
      <trkpt lat="48.57845" lon="-4.36391">
        <ele>72</ele>
        <time>2022-08-07T09:14:17.000Z</time>
      </trkpt>
      <trkpt lat="48.57842" lon="-4.36393">
        <ele>72</ele>
        <time>2022-08-07T09:14:18.000Z</time>
      </trkpt>
      <trkpt lat="48.5784" lon="-4.36395">
        <ele>72</ele>
        <time>2022-08-07T09:14:19.000Z</time>
      </trkpt>
      <trkpt lat="48.57839" lon="-4.36397">
        <ele>72</ele>
        <time>2022-08-07T09:14:20.000Z</time>
      </trkpt>
      <trkpt lat="48.57837" lon="-4.36399">
        <ele>72</ele>
        <time>2022-08-07T09:14:21.000Z</time>
      </trkpt>
      <trkpt lat="48.57835" lon="-4.36401">
        <ele>72</ele>
        <time>2022-08-07T09:14:22.000Z</time>
      </trkpt>
      <trkpt lat="48.57834" lon="-4.36403">
        <ele>72</ele>
        <time>2022-08-07T09:14:23.000Z</time>
      </trkpt>
      <trkpt lat="48.57832" lon="-4.36404">
        <ele>72</ele>
        <time>2022-08-07T09:14:24.000Z</time>
      </trkpt>
      <trkpt lat="48.5783" lon="-4.36406">
        <ele>72</ele>
        <time>2022-08-07T09:14:25.000Z</time>
      </trkpt>
      <trkpt lat="48.57827" lon="-4.36408">
        <ele>72</ele>
        <time>2022-08-07T09:14:26.000Z</time>
      </trkpt>
      <trkpt lat="48.57825" lon="-4.3641">
        <ele>72</ele>
        <time>2022-08-07T09:14:27.000Z</time>
      </trkpt>
      <trkpt lat="48.57821" lon="-4.36414">
        <ele>72</ele>
        <time>2022-08-07T09:14:28.000Z</time>
      </trkpt>
      <trkpt lat="48.57818" lon="-4.36417">
        <ele>72</ele>
        <time>2022-08-07T09:14:29.000Z</time>
      </trkpt>
      <trkpt lat="48.57815" lon="-4.3642">
        <ele>72</ele>
        <time>2022-08-07T09:14:30.000Z</time>
      </trkpt>
      <trkpt lat="48.57811" lon="-4.36425">
        <ele>72.199996948242</ele>
        <time>2022-08-07T09:14:31.000Z</time>
      </trkpt>
      <trkpt lat="48.57807" lon="-4.36429">
        <ele>72.199996948242</ele>
        <time>2022-08-07T09:14:32.000Z</time>
      </trkpt>
      <trkpt lat="48.57802" lon="-4.36434">
        <ele>72.400001525879</ele>
        <time>2022-08-07T09:14:33.000Z</time>
      </trkpt>
      <trkpt lat="48.57797" lon="-4.36439">
        <ele>72.400001525879</ele>
        <time>2022-08-07T09:14:34.000Z</time>
      </trkpt>
      <trkpt lat="48.57793" lon="-4.36443">
        <ele>72.400001525879</ele>
        <time>2022-08-07T09:14:35.000Z</time>
      </trkpt>
      <trkpt lat="48.57789" lon="-4.36446">
        <ele>72.599998474121</ele>
        <time>2022-08-07T09:14:36.000Z</time>
      </trkpt>
      <trkpt lat="48.57785" lon="-4.3645">
        <ele>72.599998474121</ele>
        <time>2022-08-07T09:14:37.000Z</time>
      </trkpt>
      <trkpt lat="48.57781" lon="-4.36453">
        <ele>72.599998474121</ele>
        <time>2022-08-07T09:14:38.000Z</time>
      </trkpt>
      <trkpt lat="48.57777" lon="-4.36457">
        <ele>72.599998474121</ele>
        <time>2022-08-07T09:14:39.000Z</time>
      </trkpt>
      <trkpt lat="48.57773" lon="-4.36461">
        <ele>72.800003051758</ele>
        <time>2022-08-07T09:14:40.000Z</time>
      </trkpt>
      <trkpt lat="48.5777" lon="-4.36466">
        <ele>72.800003051758</ele>
        <time>2022-08-07T09:14:41.000Z</time>
      </trkpt>
      <trkpt lat="48.57766" lon="-4.3647">
        <ele>72.800003051758</ele>
        <time>2022-08-07T09:14:42.000Z</time>
      </trkpt>
      <trkpt lat="48.57762" lon="-4.36475">
        <ele>72.800003051758</ele>
        <time>2022-08-07T09:14:43.000Z</time>
      </trkpt>
      <trkpt lat="48.57757" lon="-4.3648">
        <ele>72.800003051758</ele>
        <time>2022-08-07T09:14:44.000Z</time>
      </trkpt>
      <trkpt lat="48.57753" lon="-4.36485">
        <ele>72.800003051758</ele>
        <time>2022-08-07T09:14:45.000Z</time>
      </trkpt>
      <trkpt lat="48.57749" lon="-4.3649">
        <ele>72.800003051758</ele>
        <time>2022-08-07T09:14:46.000Z</time>
      </trkpt>
      <trkpt lat="48.57745" lon="-4.36495">
        <ele>72.800003051758</ele>
        <time>2022-08-07T09:14:47.000Z</time>
      </trkpt>
      <trkpt lat="48.57741" lon="-4.365">
        <ele>72.599998474121</ele>
        <time>2022-08-07T09:14:48.000Z</time>
      </trkpt>
      <trkpt lat="48.57737" lon="-4.36506">
        <ele>72.599998474121</ele>
        <time>2022-08-07T09:14:49.000Z</time>
      </trkpt>
      <trkpt lat="48.57733" lon="-4.36511">
        <ele>72.400001525879</ele>
        <time>2022-08-07T09:14:50.000Z</time>
      </trkpt>
      <trkpt lat="48.57728" lon="-4.36516">
        <ele>72.400001525879</ele>
        <time>2022-08-07T09:14:51.000Z</time>
      </trkpt>
      <trkpt lat="48.57724" lon="-4.3652">
        <ele>72.400001525879</ele>
        <time>2022-08-07T09:14:52.000Z</time>
      </trkpt>
      <trkpt lat="48.5772" lon="-4.36525">
        <ele>72.199996948242</ele>
        <time>2022-08-07T09:14:53.000Z</time>
      </trkpt>
      <trkpt lat="48.57716" lon="-4.3653">
        <ele>72.199996948242</ele>
        <time>2022-08-07T09:14:54.000Z</time>
      </trkpt>
      <trkpt lat="48.57712" lon="-4.36535">
        <ele>72</ele>
        <time>2022-08-07T09:14:55.000Z</time>
      </trkpt>
      <trkpt lat="48.57708" lon="-4.36539">
        <ele>72</ele>
        <time>2022-08-07T09:14:56.000Z</time>
      </trkpt>
      <trkpt lat="48.57704" lon="-4.36543">
        <ele>72</ele>
        <time>2022-08-07T09:14:57.000Z</time>
      </trkpt>
      <trkpt lat="48.57699" lon="-4.36548">
        <ele>71.800003051758</ele>
        <time>2022-08-07T09:14:58.000Z</time>
      </trkpt>
      <trkpt lat="48.57695" lon="-4.36552">
        <ele>71.800003051758</ele>
        <time>2022-08-07T09:14:59.000Z</time>
      </trkpt>
      <trkpt lat="48.57691" lon="-4.36557">
        <ele>71.800003051758</ele>
        <time>2022-08-07T09:15:00.000Z</time>
      </trkpt>
      <trkpt lat="48.57687" lon="-4.36562">
        <ele>71.800003051758</ele>
        <time>2022-08-07T09:15:01.000Z</time>
      </trkpt>
      <trkpt lat="48.57683" lon="-4.36567">
        <ele>71.599998474121</ele>
        <time>2022-08-07T09:15:02.000Z</time>
      </trkpt>
      <trkpt lat="48.57679" lon="-4.36572">
        <ele>71.599998474121</ele>
        <time>2022-08-07T09:15:03.000Z</time>
      </trkpt>
      <trkpt lat="48.57674" lon="-4.36578">
        <ele>71.599998474121</ele>
        <time>2022-08-07T09:15:04.000Z</time>
      </trkpt>
      <trkpt lat="48.5767" lon="-4.36583">
        <ele>71.599998474121</ele>
        <time>2022-08-07T09:15:05.000Z</time>
      </trkpt>
      <trkpt lat="48.57666" lon="-4.36588">
        <ele>71.400001525879</ele>
        <time>2022-08-07T09:15:06.000Z</time>
      </trkpt>
      <trkpt lat="48.57662" lon="-4.36594">
        <ele>71.599998474121</ele>
        <time>2022-08-07T09:15:07.000Z</time>
      </trkpt>
      <trkpt lat="48.57657" lon="-4.366">
        <ele>71.599998474121</ele>
        <time>2022-08-07T09:15:08.000Z</time>
      </trkpt>
      <trkpt lat="48.57653" lon="-4.36605">
        <ele>71.400001525879</ele>
        <time>2022-08-07T09:15:09.000Z</time>
      </trkpt>
      <trkpt lat="48.57648" lon="-4.36611">
        <ele>71.199996948242</ele>
        <time>2022-08-07T09:15:10.000Z</time>
      </trkpt>
      <trkpt lat="48.57644" lon="-4.36617">
        <ele>71</ele>
        <time>2022-08-07T09:15:11.000Z</time>
      </trkpt>
      <trkpt lat="48.57639" lon="-4.36623">
        <ele>71</ele>
        <time>2022-08-07T09:15:12.000Z</time>
      </trkpt>
      <trkpt lat="48.57635" lon="-4.3663">
        <ele>70.800003051758</ele>
        <time>2022-08-07T09:15:13.000Z</time>
      </trkpt>
      <trkpt lat="48.5763" lon="-4.36636">
        <ele>70.800003051758</ele>
        <time>2022-08-07T09:15:14.000Z</time>
      </trkpt>
      <trkpt lat="48.57626" lon="-4.36641">
        <ele>70.800003051758</ele>
        <time>2022-08-07T09:15:15.000Z</time>
      </trkpt>
      <trkpt lat="48.57621" lon="-4.36648">
        <ele>70.400001525879</ele>
        <time>2022-08-07T09:15:16.000Z</time>
      </trkpt>
      <trkpt lat="48.57616" lon="-4.36653">
        <ele>70.400001525879</ele>
        <time>2022-08-07T09:15:17.000Z</time>
      </trkpt>
      <trkpt lat="48.57611" lon="-4.36658">
        <ele>70.400001525879</ele>
        <time>2022-08-07T09:15:18.000Z</time>
      </trkpt>
      <trkpt lat="48.57606" lon="-4.36663">
        <ele>70.199996948242</ele>
        <time>2022-08-07T09:15:19.000Z</time>
      </trkpt>
      <trkpt lat="48.576" lon="-4.36668">
        <ele>70.199996948242</ele>
        <time>2022-08-07T09:15:20.000Z</time>
      </trkpt>
      <trkpt lat="48.57595" lon="-4.36671">
        <ele>70.199996948242</ele>
        <time>2022-08-07T09:15:21.000Z</time>
      </trkpt>
      <trkpt lat="48.5759" lon="-4.36675">
        <ele>70.199996948242</ele>
        <time>2022-08-07T09:15:22.000Z</time>
      </trkpt>
      <trkpt lat="48.57584" lon="-4.36678">
        <ele>70.199996948242</ele>
        <time>2022-08-07T09:15:23.000Z</time>
      </trkpt>
      <trkpt lat="48.57579" lon="-4.36681">
        <ele>70.199996948242</ele>
        <time>2022-08-07T09:15:24.000Z</time>
      </trkpt>
      <trkpt lat="48.57574" lon="-4.36683">
        <ele>70.199996948242</ele>
        <time>2022-08-07T09:15:25.000Z</time>
      </trkpt>
      <trkpt lat="48.57569" lon="-4.36686">
        <ele>70</ele>
        <time>2022-08-07T09:15:26.000Z</time>
      </trkpt>
      <trkpt lat="48.57564" lon="-4.36689">
        <ele>70</ele>
        <time>2022-08-07T09:15:27.000Z</time>
      </trkpt>
      <trkpt lat="48.57559" lon="-4.36691">
        <ele>70</ele>
        <time>2022-08-07T09:15:28.000Z</time>
      </trkpt>
      <trkpt lat="48.57554" lon="-4.36693">
        <ele>70</ele>
        <time>2022-08-07T09:15:29.000Z</time>
      </trkpt>
      <trkpt lat="48.57549" lon="-4.36695">
        <ele>70</ele>
        <time>2022-08-07T09:15:30.000Z</time>
      </trkpt>
      <trkpt lat="48.57544" lon="-4.36697">
        <ele>70</ele>
        <time>2022-08-07T09:15:31.000Z</time>
      </trkpt>
      <trkpt lat="48.57539" lon="-4.367">
        <ele>70</ele>
        <time>2022-08-07T09:15:32.000Z</time>
      </trkpt>
      <trkpt lat="48.57534" lon="-4.36702">
        <ele>70</ele>
        <time>2022-08-07T09:15:33.000Z</time>
      </trkpt>
      <trkpt lat="48.57529" lon="-4.36705">
        <ele>70.199996948242</ele>
        <time>2022-08-07T09:15:34.000Z</time>
      </trkpt>
      <trkpt lat="48.57525" lon="-4.36707">
        <ele>70.199996948242</ele>
        <time>2022-08-07T09:15:35.000Z</time>
      </trkpt>
      <trkpt lat="48.5752" lon="-4.36709">
        <ele>70.199996948242</ele>
        <time>2022-08-07T09:15:36.000Z</time>
      </trkpt>
      <trkpt lat="48.57515" lon="-4.36711">
        <ele>70.199996948242</ele>
        <time>2022-08-07T09:15:37.000Z</time>
      </trkpt>
      <trkpt lat="48.5751" lon="-4.36714">
        <ele>70.199996948242</ele>
        <time>2022-08-07T09:15:38.000Z</time>
      </trkpt>
      <trkpt lat="48.57505" lon="-4.36716">
        <ele>70.199996948242</ele>
        <time>2022-08-07T09:15:39.000Z</time>
      </trkpt>
      <trkpt lat="48.575" lon="-4.36719">
        <ele>70.400001525879</ele>
        <time>2022-08-07T09:15:40.000Z</time>
      </trkpt>
      <trkpt lat="48.57495" lon="-4.36721">
        <ele>70.400001525879</ele>
        <time>2022-08-07T09:15:41.000Z</time>
      </trkpt>
      <trkpt lat="48.5749" lon="-4.36723">
        <ele>70.400001525879</ele>
        <time>2022-08-07T09:15:42.000Z</time>
      </trkpt>
      <trkpt lat="48.57485" lon="-4.36725">
        <ele>70.400001525879</ele>
        <time>2022-08-07T09:15:43.000Z</time>
      </trkpt>
      <trkpt lat="48.57481" lon="-4.36728">
        <ele>70.599998474121</ele>
        <time>2022-08-07T09:15:44.000Z</time>
      </trkpt>
      <trkpt lat="48.57476" lon="-4.3673">
        <ele>70.599998474121</ele>
        <time>2022-08-07T09:15:45.000Z</time>
      </trkpt>
      <trkpt lat="48.57471" lon="-4.36732">
        <ele>70.599998474121</ele>
        <time>2022-08-07T09:15:46.000Z</time>
      </trkpt>
      <trkpt lat="48.57466" lon="-4.36733">
        <ele>70.800003051758</ele>
        <time>2022-08-07T09:15:47.000Z</time>
      </trkpt>
      <trkpt lat="48.57461" lon="-4.36735">
        <ele>70.800003051758</ele>
        <time>2022-08-07T09:15:48.000Z</time>
      </trkpt>
      <trkpt lat="48.57456" lon="-4.36737">
        <ele>71</ele>
        <time>2022-08-07T09:15:49.000Z</time>
      </trkpt>
      <trkpt lat="48.57452" lon="-4.36738">
        <ele>71</ele>
        <time>2022-08-07T09:15:50.000Z</time>
      </trkpt>
      <trkpt lat="48.57447" lon="-4.3674">
        <ele>71</ele>
        <time>2022-08-07T09:15:51.000Z</time>
      </trkpt>
      <trkpt lat="48.57443" lon="-4.36742">
        <ele>71</ele>
        <time>2022-08-07T09:15:52.000Z</time>
      </trkpt>
      <trkpt lat="48.57438" lon="-4.36744">
        <ele>71</ele>
        <time>2022-08-07T09:15:53.000Z</time>
      </trkpt>
      <trkpt lat="48.57434" lon="-4.36745">
        <ele>71</ele>
        <time>2022-08-07T09:15:54.000Z</time>
      </trkpt>
      <trkpt lat="48.57429" lon="-4.36746">
        <ele>71</ele>
        <time>2022-08-07T09:15:55.000Z</time>
      </trkpt>
      <trkpt lat="48.57425" lon="-4.36747">
        <ele>71</ele>
        <time>2022-08-07T09:15:56.000Z</time>
      </trkpt>
      <trkpt lat="48.57421" lon="-4.36749">
        <ele>71</ele>
        <time>2022-08-07T09:15:57.000Z</time>
      </trkpt>
      <trkpt lat="48.57418" lon="-4.36751">
        <ele>70.800003051758</ele>
        <time>2022-08-07T09:15:58.000Z</time>
      </trkpt>
      <trkpt lat="48.57415" lon="-4.36754">
        <ele>70.800003051758</ele>
        <time>2022-08-07T09:15:59.000Z</time>
      </trkpt>
      <trkpt lat="48.57412" lon="-4.36757">
        <ele>70.800003051758</ele>
        <time>2022-08-07T09:16:00.000Z</time>
      </trkpt>
      <trkpt lat="48.57409" lon="-4.3676">
        <ele>70.599998474121</ele>
        <time>2022-08-07T09:16:01.000Z</time>
      </trkpt>
      <trkpt lat="48.57406" lon="-4.36763">
        <ele>70.599998474121</ele>
        <time>2022-08-07T09:16:02.000Z</time>
      </trkpt>
      <trkpt lat="48.57402" lon="-4.36766">
        <ele>70.599998474121</ele>
        <time>2022-08-07T09:16:03.000Z</time>
      </trkpt>
      <trkpt lat="48.57397" lon="-4.36769">
        <ele>70.400001525879</ele>
        <time>2022-08-07T09:16:04.000Z</time>
      </trkpt>
      <trkpt lat="48.57393" lon="-4.36771">
        <ele>70.400001525879</ele>
        <time>2022-08-07T09:16:05.000Z</time>
      </trkpt>
      <trkpt lat="48.57388" lon="-4.36773">
        <ele>70.199996948242</ele>
        <time>2022-08-07T09:16:06.000Z</time>
      </trkpt>
      <trkpt lat="48.57384" lon="-4.36775">
        <ele>70.199996948242</ele>
        <time>2022-08-07T09:16:07.000Z</time>
      </trkpt>
      <trkpt lat="48.5738" lon="-4.36776">
        <ele>70.199996948242</ele>
        <time>2022-08-07T09:16:08.000Z</time>
      </trkpt>
      <trkpt lat="48.57376" lon="-4.36778">
        <ele>70.199996948242</ele>
        <time>2022-08-07T09:16:09.000Z</time>
      </trkpt>
      <trkpt lat="48.57373" lon="-4.3678">
        <ele>70</ele>
        <time>2022-08-07T09:16:10.000Z</time>
      </trkpt>
      <trkpt lat="48.57369" lon="-4.36782">
        <ele>69.800003051758</ele>
        <time>2022-08-07T09:16:11.000Z</time>
      </trkpt>
      <trkpt lat="48.57365" lon="-4.36784">
        <ele>69.599998474121</ele>
        <time>2022-08-07T09:16:12.000Z</time>
      </trkpt>
      <trkpt lat="48.57361" lon="-4.36787">
        <ele>69.599998474121</ele>
        <time>2022-08-07T09:16:13.000Z</time>
      </trkpt>
      <trkpt lat="48.57357" lon="-4.36791">
        <ele>69.400001525879</ele>
        <time>2022-08-07T09:16:14.000Z</time>
      </trkpt>
      <trkpt lat="48.57353" lon="-4.36794">
        <ele>69.400001525879</ele>
        <time>2022-08-07T09:16:15.000Z</time>
      </trkpt>
      <trkpt lat="48.57349" lon="-4.36798">
        <ele>69.199996948242</ele>
        <time>2022-08-07T09:16:16.000Z</time>
      </trkpt>
      <trkpt lat="48.57346" lon="-4.36802">
        <ele>69.199996948242</ele>
        <time>2022-08-07T09:16:17.000Z</time>
      </trkpt>
      <trkpt lat="48.57342" lon="-4.36807">
        <ele>69.199996948242</ele>
        <time>2022-08-07T09:16:18.000Z</time>
      </trkpt>
      <trkpt lat="48.57339" lon="-4.36811">
        <ele>69.199996948242</ele>
        <time>2022-08-07T09:16:19.000Z</time>
      </trkpt>
      <trkpt lat="48.57335" lon="-4.36814">
        <ele>69.199996948242</ele>
        <time>2022-08-07T09:16:20.000Z</time>
      </trkpt>
      <trkpt lat="48.57331" lon="-4.36815">
        <ele>69.199996948242</ele>
        <time>2022-08-07T09:16:21.000Z</time>
      </trkpt>
      <trkpt lat="48.57327" lon="-4.36816">
        <ele>69</ele>
        <time>2022-08-07T09:16:22.000Z</time>
      </trkpt>
      <trkpt lat="48.57322" lon="-4.36817">
        <ele>69</ele>
        <time>2022-08-07T09:16:23.000Z</time>
      </trkpt>
      <trkpt lat="48.57317" lon="-4.36817">
        <ele>69</ele>
        <time>2022-08-07T09:16:24.000Z</time>
      </trkpt>
      <trkpt lat="48.57313" lon="-4.36817">
        <ele>68.800003051758</ele>
        <time>2022-08-07T09:16:25.000Z</time>
      </trkpt>
      <trkpt lat="48.57308" lon="-4.36817">
        <ele>68.800003051758</ele>
        <time>2022-08-07T09:16:26.000Z</time>
      </trkpt>
      <trkpt lat="48.57304" lon="-4.36816">
        <ele>68.800003051758</ele>
        <time>2022-08-07T09:16:27.000Z</time>
      </trkpt>
      <trkpt lat="48.57299" lon="-4.36816">
        <ele>68.800003051758</ele>
        <time>2022-08-07T09:16:28.000Z</time>
      </trkpt>
      <trkpt lat="48.57295" lon="-4.36816">
        <ele>68.800003051758</ele>
        <time>2022-08-07T09:16:29.000Z</time>
      </trkpt>
      <trkpt lat="48.5729" lon="-4.36815">
        <ele>68.800003051758</ele>
        <time>2022-08-07T09:16:30.000Z</time>
      </trkpt>
      <trkpt lat="48.57286" lon="-4.36815">
        <ele>68.800003051758</ele>
        <time>2022-08-07T09:16:31.000Z</time>
      </trkpt>
      <trkpt lat="48.57281" lon="-4.36814">
        <ele>68.400001525879</ele>
        <time>2022-08-07T09:16:32.000Z</time>
      </trkpt>
      <trkpt lat="48.57277" lon="-4.36814">
        <ele>68.400001525879</ele>
        <time>2022-08-07T09:16:33.000Z</time>
      </trkpt>
      <trkpt lat="48.57272" lon="-4.36813">
        <ele>68.400001525879</ele>
        <time>2022-08-07T09:16:34.000Z</time>
      </trkpt>
      <trkpt lat="48.57268" lon="-4.36812">
        <ele>68.400001525879</ele>
        <time>2022-08-07T09:16:35.000Z</time>
      </trkpt>
      <trkpt lat="48.57264" lon="-4.36811">
        <ele>68.400001525879</ele>
        <time>2022-08-07T09:16:36.000Z</time>
      </trkpt>
      <trkpt lat="48.57259" lon="-4.3681">
        <ele>68.400001525879</ele>
        <time>2022-08-07T09:16:37.000Z</time>
      </trkpt>
      <trkpt lat="48.57255" lon="-4.3681">
        <ele>68.599998474121</ele>
        <time>2022-08-07T09:16:38.000Z</time>
      </trkpt>
      <trkpt lat="48.57251" lon="-4.36808">
        <ele>68.599998474121</ele>
        <time>2022-08-07T09:16:39.000Z</time>
      </trkpt>
      <trkpt lat="48.57246" lon="-4.36806">
        <ele>68.599998474121</ele>
        <time>2022-08-07T09:16:40.000Z</time>
      </trkpt>
      <trkpt lat="48.57241" lon="-4.36805">
        <ele>68.599998474121</ele>
        <time>2022-08-07T09:16:41.000Z</time>
      </trkpt>
      <trkpt lat="48.57237" lon="-4.36802">
        <ele>68.800003051758</ele>
        <time>2022-08-07T09:16:42.000Z</time>
      </trkpt>
      <trkpt lat="48.57232" lon="-4.368">
        <ele>68.800003051758</ele>
        <time>2022-08-07T09:16:43.000Z</time>
      </trkpt>
      <trkpt lat="48.57228" lon="-4.36796">
        <ele>69</ele>
        <time>2022-08-07T09:16:44.000Z</time>
      </trkpt>
      <trkpt lat="48.57224" lon="-4.36793">
        <ele>69</ele>
        <time>2022-08-07T09:16:45.000Z</time>
      </trkpt>
      <trkpt lat="48.5722" lon="-4.3679">
        <ele>69</ele>
        <time>2022-08-07T09:16:46.000Z</time>
      </trkpt>
      <trkpt lat="48.57216" lon="-4.36786">
        <ele>69</ele>
        <time>2022-08-07T09:16:47.000Z</time>
      </trkpt>
      <trkpt lat="48.57212" lon="-4.36783">
        <ele>69.199996948242</ele>
        <time>2022-08-07T09:16:48.000Z</time>
      </trkpt>
      <trkpt lat="48.57208" lon="-4.3678">
        <ele>69.199996948242</ele>
        <time>2022-08-07T09:16:49.000Z</time>
      </trkpt>
      <trkpt lat="48.57204" lon="-4.36776">
        <ele>69.199996948242</ele>
        <time>2022-08-07T09:16:50.000Z</time>
      </trkpt>
      <trkpt lat="48.57198" lon="-4.36773">
        <ele>69.400001525879</ele>
        <time>2022-08-07T09:16:51.000Z</time>
      </trkpt>
      <trkpt lat="48.57195" lon="-4.3677">
        <ele>69.400001525879</ele>
        <time>2022-08-07T09:16:52.000Z</time>
      </trkpt>
      <trkpt lat="48.5719" lon="-4.36767">
        <ele>69.599998474121</ele>
        <time>2022-08-07T09:16:53.000Z</time>
      </trkpt>
      <trkpt lat="48.57186" lon="-4.36764">
        <ele>69.599998474121</ele>
        <time>2022-08-07T09:16:54.000Z</time>
      </trkpt>
      <trkpt lat="48.57182" lon="-4.36761">
        <ele>69.800003051758</ele>
        <time>2022-08-07T09:16:55.000Z</time>
      </trkpt>
      <trkpt lat="48.57177" lon="-4.36757">
        <ele>70</ele>
        <time>2022-08-07T09:16:56.000Z</time>
      </trkpt>
      <trkpt lat="48.57174" lon="-4.36754">
        <ele>70</ele>
        <time>2022-08-07T09:16:57.000Z</time>
      </trkpt>
      <trkpt lat="48.57169" lon="-4.36751">
        <ele>70</ele>
        <time>2022-08-07T09:16:58.000Z</time>
      </trkpt>
      <trkpt lat="48.57165" lon="-4.36749">
        <ele>70</ele>
        <time>2022-08-07T09:16:59.000Z</time>
      </trkpt>
      <trkpt lat="48.57161" lon="-4.36746">
        <ele>70</ele>
        <time>2022-08-07T09:17:00.000Z</time>
      </trkpt>
      <trkpt lat="48.57157" lon="-4.36743">
        <ele>70</ele>
        <time>2022-08-07T09:17:01.000Z</time>
      </trkpt>
      <trkpt lat="48.57152" lon="-4.36741">
        <ele>70</ele>
        <time>2022-08-07T09:17:02.000Z</time>
      </trkpt>
      <trkpt lat="48.57148" lon="-4.36739">
        <ele>70</ele>
        <time>2022-08-07T09:17:03.000Z</time>
      </trkpt>
      <trkpt lat="48.57143" lon="-4.36737">
        <ele>69.800003051758</ele>
        <time>2022-08-07T09:17:04.000Z</time>
      </trkpt>
      <trkpt lat="48.57139" lon="-4.36736">
        <ele>69.800003051758</ele>
        <time>2022-08-07T09:17:05.000Z</time>
      </trkpt>
      <trkpt lat="48.57135" lon="-4.36734">
        <ele>69.800003051758</ele>
        <time>2022-08-07T09:17:06.000Z</time>
      </trkpt>
      <trkpt lat="48.57131" lon="-4.36733">
        <ele>69.800003051758</ele>
        <time>2022-08-07T09:17:07.000Z</time>
      </trkpt>
      <trkpt lat="48.57126" lon="-4.36731">
        <ele>69.800003051758</ele>
        <time>2022-08-07T09:17:08.000Z</time>
      </trkpt>
      <trkpt lat="48.57122" lon="-4.3673">
        <ele>70</ele>
        <time>2022-08-07T09:17:09.000Z</time>
      </trkpt>
      <trkpt lat="48.57118" lon="-4.36729">
        <ele>70</ele>
        <time>2022-08-07T09:17:10.000Z</time>
      </trkpt>
      <trkpt lat="48.57114" lon="-4.36728">
        <ele>70.199996948242</ele>
        <time>2022-08-07T09:17:11.000Z</time>
      </trkpt>
      <trkpt lat="48.5711" lon="-4.36727">
        <ele>70.400001525879</ele>
        <time>2022-08-07T09:17:12.000Z</time>
      </trkpt>
      <trkpt lat="48.57106" lon="-4.36726">
        <ele>70.599998474121</ele>
        <time>2022-08-07T09:17:13.000Z</time>
      </trkpt>
      <trkpt lat="48.57102" lon="-4.36725">
        <ele>70.599998474121</ele>
        <time>2022-08-07T09:17:14.000Z</time>
      </trkpt>
      <trkpt lat="48.57097" lon="-4.36723">
        <ele>70.800003051758</ele>
        <time>2022-08-07T09:17:15.000Z</time>
      </trkpt>
      <trkpt lat="48.57093" lon="-4.36722">
        <ele>70.800003051758</ele>
        <time>2022-08-07T09:17:16.000Z</time>
      </trkpt>
      <trkpt lat="48.57089" lon="-4.3672">
        <ele>70.800003051758</ele>
        <time>2022-08-07T09:17:17.000Z</time>
      </trkpt>
      <trkpt lat="48.57085" lon="-4.36718">
        <ele>70.800003051758</ele>
        <time>2022-08-07T09:17:18.000Z</time>
      </trkpt>
      <trkpt lat="48.57081" lon="-4.36716">
        <ele>70.800003051758</ele>
        <time>2022-08-07T09:17:19.000Z</time>
      </trkpt>
      <trkpt lat="48.57077" lon="-4.36715">
        <ele>70.800003051758</ele>
        <time>2022-08-07T09:17:20.000Z</time>
      </trkpt>
      <trkpt lat="48.57072" lon="-4.36713">
        <ele>70.800003051758</ele>
        <time>2022-08-07T09:17:21.000Z</time>
      </trkpt>
      <trkpt lat="48.57068" lon="-4.36712">
        <ele>70.800003051758</ele>
        <time>2022-08-07T09:17:22.000Z</time>
      </trkpt>
      <trkpt lat="48.57065" lon="-4.36713">
        <ele>70.800003051758</ele>
        <time>2022-08-07T09:17:23.000Z</time>
      </trkpt>
      <trkpt lat="48.57061" lon="-4.36715">
        <ele>70.800003051758</ele>
        <time>2022-08-07T09:17:24.000Z</time>
      </trkpt>
      <trkpt lat="48.57058" lon="-4.36717">
        <ele>70.800003051758</ele>
        <time>2022-08-07T09:17:25.000Z</time>
      </trkpt>
      <trkpt lat="48.57053" lon="-4.36718">
        <ele>70.599998474121</ele>
        <time>2022-08-07T09:17:26.000Z</time>
      </trkpt>
      <trkpt lat="48.57049" lon="-4.36718">
        <ele>70.599998474121</ele>
        <time>2022-08-07T09:17:27.000Z</time>
      </trkpt>
      <trkpt lat="48.57044" lon="-4.36716">
        <ele>70.400001525879</ele>
        <time>2022-08-07T09:17:28.000Z</time>
      </trkpt>
      <trkpt lat="48.5704" lon="-4.36715">
        <ele>70.400001525879</ele>
        <time>2022-08-07T09:17:29.000Z</time>
      </trkpt>
      <trkpt lat="48.57035" lon="-4.36713">
        <ele>70.199996948242</ele>
        <time>2022-08-07T09:17:30.000Z</time>
      </trkpt>
      <trkpt lat="48.57029" lon="-4.36712">
        <ele>70.400001525879</ele>
        <time>2022-08-07T09:17:31.000Z</time>
      </trkpt>
      <trkpt lat="48.57023" lon="-4.36711">
        <ele>70.400001525879</ele>
        <time>2022-08-07T09:17:32.000Z</time>
      </trkpt>
      <trkpt lat="48.57017" lon="-4.3671">
        <ele>70.400001525879</ele>
        <time>2022-08-07T09:17:33.000Z</time>
      </trkpt>
      <trkpt lat="48.5701" lon="-4.36709">
        <ele>70.400001525879</ele>
        <time>2022-08-07T09:17:34.000Z</time>
      </trkpt>
      <trkpt lat="48.57004" lon="-4.36708">
        <ele>70.400001525879</ele>
        <time>2022-08-07T09:17:35.000Z</time>
      </trkpt>
      <trkpt lat="48.56997" lon="-4.36708">
        <ele>70.400001525879</ele>
        <time>2022-08-07T09:17:36.000Z</time>
      </trkpt>
      <trkpt lat="48.56991" lon="-4.36707">
        <ele>70.400001525879</ele>
        <time>2022-08-07T09:17:37.000Z</time>
      </trkpt>
      <trkpt lat="48.56984" lon="-4.36707">
        <ele>70.400001525879</ele>
        <time>2022-08-07T09:17:38.000Z</time>
      </trkpt>
      <trkpt lat="48.56978" lon="-4.36707">
        <ele>70.400001525879</ele>
        <time>2022-08-07T09:17:39.000Z</time>
      </trkpt>
      <trkpt lat="48.56972" lon="-4.36706">
        <ele>70.599998474121</ele>
        <time>2022-08-07T09:17:40.000Z</time>
      </trkpt>
      <trkpt lat="48.56965" lon="-4.36704">
        <ele>70.599998474121</ele>
        <time>2022-08-07T09:17:41.000Z</time>
      </trkpt>
      <trkpt lat="48.56959" lon="-4.36703">
        <ele>70.599998474121</ele>
        <time>2022-08-07T09:17:42.000Z</time>
      </trkpt>
      <trkpt lat="48.56952" lon="-4.36702">
        <ele>70.400001525879</ele>
        <time>2022-08-07T09:17:43.000Z</time>
      </trkpt>
      <trkpt lat="48.56947" lon="-4.36702">
        <ele>70.400001525879</ele>
        <time>2022-08-07T09:17:44.000Z</time>
      </trkpt>
      <trkpt lat="48.56941" lon="-4.36702">
        <ele>70.199996948242</ele>
        <time>2022-08-07T09:17:45.000Z</time>
      </trkpt>
      <trkpt lat="48.56935" lon="-4.36703">
        <ele>70.199996948242</ele>
        <time>2022-08-07T09:17:46.000Z</time>
      </trkpt>
      <trkpt lat="48.5693" lon="-4.36704">
        <ele>70</ele>
        <time>2022-08-07T09:17:47.000Z</time>
      </trkpt>
      <trkpt lat="48.56927" lon="-4.36705">
        <ele>69.599998474121</ele>
        <time>2022-08-07T09:17:48.000Z</time>
      </trkpt>
      <trkpt lat="48.56924" lon="-4.36706">
        <ele>69</ele>
        <time>2022-08-07T09:17:49.000Z</time>
      </trkpt>
      <trkpt lat="48.56921" lon="-4.36708">
        <ele>68.800003051758</ele>
        <time>2022-08-07T09:17:50.000Z</time>
      </trkpt>
      <trkpt lat="48.56917" lon="-4.3671">
        <ele>68.599998474121</ele>
        <time>2022-08-07T09:17:51.000Z</time>
      </trkpt>
      <trkpt lat="48.56913" lon="-4.36712">
        <ele>68.599998474121</ele>
        <time>2022-08-07T09:17:52.000Z</time>
      </trkpt>
      <trkpt lat="48.56909" lon="-4.36714">
        <ele>68.599998474121</ele>
        <time>2022-08-07T09:17:53.000Z</time>
      </trkpt>
      <trkpt lat="48.56904" lon="-4.36717">
        <ele>68.400001525879</ele>
        <time>2022-08-07T09:17:54.000Z</time>
      </trkpt>
      <trkpt lat="48.56898" lon="-4.3672">
        <ele>68.400001525879</ele>
        <time>2022-08-07T09:17:55.000Z</time>
      </trkpt>
      <trkpt lat="48.56893" lon="-4.36722">
        <ele>68.199996948242</ele>
        <time>2022-08-07T09:17:56.000Z</time>
      </trkpt>
      <trkpt lat="48.56887" lon="-4.36724">
        <ele>68.199996948242</ele>
        <time>2022-08-07T09:17:57.000Z</time>
      </trkpt>
      <trkpt lat="48.56881" lon="-4.36726">
        <ele>68</ele>
        <time>2022-08-07T09:17:58.000Z</time>
      </trkpt>
      <trkpt lat="48.56875" lon="-4.36727">
        <ele>68</ele>
        <time>2022-08-07T09:17:59.000Z</time>
      </trkpt>
      <trkpt lat="48.5687" lon="-4.36729">
        <ele>67.800003051758</ele>
        <time>2022-08-07T09:18:00.000Z</time>
      </trkpt>
      <trkpt lat="48.56864" lon="-4.36731">
        <ele>67.800003051758</ele>
        <time>2022-08-07T09:18:01.000Z</time>
      </trkpt>
      <trkpt lat="48.56858" lon="-4.36733">
        <ele>67.800003051758</ele>
        <time>2022-08-07T09:18:02.000Z</time>
      </trkpt>
      <trkpt lat="48.56852" lon="-4.36734">
        <ele>67.800003051758</ele>
        <time>2022-08-07T09:18:03.000Z</time>
      </trkpt>
      <trkpt lat="48.56847" lon="-4.36736">
        <ele>67.800003051758</ele>
        <time>2022-08-07T09:18:04.000Z</time>
      </trkpt>
      <trkpt lat="48.5684" lon="-4.36738">
        <ele>67.599998474121</ele>
        <time>2022-08-07T09:18:05.000Z</time>
      </trkpt>
      <trkpt lat="48.56836" lon="-4.36739">
        <ele>67.400001525879</ele>
        <time>2022-08-07T09:18:06.000Z</time>
      </trkpt>
      <trkpt lat="48.5683" lon="-4.36741">
        <ele>67.400001525879</ele>
        <time>2022-08-07T09:18:07.000Z</time>
      </trkpt>
      <trkpt lat="48.56824" lon="-4.36743">
        <ele>67.199996948242</ele>
        <time>2022-08-07T09:18:08.000Z</time>
      </trkpt>
      <trkpt lat="48.56819" lon="-4.36745">
        <ele>67.199996948242</ele>
        <time>2022-08-07T09:18:09.000Z</time>
      </trkpt>
      <trkpt lat="48.56814" lon="-4.36747">
        <ele>67</ele>
        <time>2022-08-07T09:18:10.000Z</time>
      </trkpt>
      <trkpt lat="48.56808" lon="-4.36748">
        <ele>66.800003051758</ele>
        <time>2022-08-07T09:18:11.000Z</time>
      </trkpt>
      <trkpt lat="48.56803" lon="-4.3675">
        <ele>66.800003051758</ele>
        <time>2022-08-07T09:18:12.000Z</time>
      </trkpt>
      <trkpt lat="48.56798" lon="-4.36751">
        <ele>66.599998474121</ele>
        <time>2022-08-07T09:18:13.000Z</time>
      </trkpt>
      <trkpt lat="48.56793" lon="-4.36753">
        <ele>66.400001525879</ele>
        <time>2022-08-07T09:18:14.000Z</time>
      </trkpt>
      <trkpt lat="48.56787" lon="-4.36754">
        <ele>66.199996948242</ele>
        <time>2022-08-07T09:18:15.000Z</time>
      </trkpt>
      <trkpt lat="48.56782" lon="-4.36755">
        <ele>66.199996948242</ele>
        <time>2022-08-07T09:18:16.000Z</time>
      </trkpt>
      <trkpt lat="48.56777" lon="-4.36757">
        <ele>66</ele>
        <time>2022-08-07T09:18:17.000Z</time>
      </trkpt>
      <trkpt lat="48.56772" lon="-4.36758">
        <ele>66</ele>
        <time>2022-08-07T09:18:18.000Z</time>
      </trkpt>
      <trkpt lat="48.56767" lon="-4.36759">
        <ele>65.800003051758</ele>
        <time>2022-08-07T09:18:19.000Z</time>
      </trkpt>
      <trkpt lat="48.56761" lon="-4.3676">
        <ele>65.800003051758</ele>
        <time>2022-08-07T09:18:20.000Z</time>
      </trkpt>
      <trkpt lat="48.56756" lon="-4.36761">
        <ele>65.599998474121</ele>
        <time>2022-08-07T09:18:21.000Z</time>
      </trkpt>
      <trkpt lat="48.5675" lon="-4.36762">
        <ele>65.599998474121</ele>
        <time>2022-08-07T09:18:22.000Z</time>
      </trkpt>
      <trkpt lat="48.56744" lon="-4.36763">
        <ele>65.599998474121</ele>
        <time>2022-08-07T09:18:23.000Z</time>
      </trkpt>
      <trkpt lat="48.56738" lon="-4.36763">
        <ele>65.599998474121</ele>
        <time>2022-08-07T09:18:24.000Z</time>
      </trkpt>
      <trkpt lat="48.56733" lon="-4.36764">
        <ele>65.599998474121</ele>
        <time>2022-08-07T09:18:25.000Z</time>
      </trkpt>
      <trkpt lat="48.56727" lon="-4.36765">
        <ele>65.599998474121</ele>
        <time>2022-08-07T09:18:26.000Z</time>
      </trkpt>
      <trkpt lat="48.56721" lon="-4.36765">
        <ele>65.599998474121</ele>
        <time>2022-08-07T09:18:27.000Z</time>
      </trkpt>
      <trkpt lat="48.56715" lon="-4.36765">
        <ele>65.599998474121</ele>
        <time>2022-08-07T09:18:28.000Z</time>
      </trkpt>
      <trkpt lat="48.5671" lon="-4.36766">
        <ele>65.800003051758</ele>
        <time>2022-08-07T09:18:29.000Z</time>
      </trkpt>
      <trkpt lat="48.56704" lon="-4.36766">
        <ele>65.800003051758</ele>
        <time>2022-08-07T09:18:30.000Z</time>
      </trkpt>
      <trkpt lat="48.56698" lon="-4.36767">
        <ele>65.800003051758</ele>
        <time>2022-08-07T09:18:31.000Z</time>
      </trkpt>
      <trkpt lat="48.56693" lon="-4.36767">
        <ele>66</ele>
        <time>2022-08-07T09:18:32.000Z</time>
      </trkpt>
      <trkpt lat="48.56687" lon="-4.36768">
        <ele>66</ele>
        <time>2022-08-07T09:18:33.000Z</time>
      </trkpt>
      <trkpt lat="48.56682" lon="-4.36768">
        <ele>66</ele>
        <time>2022-08-07T09:18:34.000Z</time>
      </trkpt>
      <trkpt lat="48.56676" lon="-4.36769">
        <ele>66</ele>
        <time>2022-08-07T09:18:35.000Z</time>
      </trkpt>
      <trkpt lat="48.5667" lon="-4.36769">
        <ele>66</ele>
        <time>2022-08-07T09:18:36.000Z</time>
      </trkpt>
      <trkpt lat="48.56664" lon="-4.36769">
        <ele>66</ele>
        <time>2022-08-07T09:18:37.000Z</time>
      </trkpt>
      <trkpt lat="48.56659" lon="-4.3677">
        <ele>66</ele>
        <time>2022-08-07T09:18:38.000Z</time>
      </trkpt>
      <trkpt lat="48.56653" lon="-4.3677">
        <ele>66.199996948242</ele>
        <time>2022-08-07T09:18:39.000Z</time>
      </trkpt>
      <trkpt lat="48.56647" lon="-4.36771">
        <ele>66.599998474121</ele>
        <time>2022-08-07T09:18:40.000Z</time>
      </trkpt>
      <trkpt lat="48.56642" lon="-4.36771">
        <ele>66.599998474121</ele>
        <time>2022-08-07T09:18:41.000Z</time>
      </trkpt>
      <trkpt lat="48.56636" lon="-4.36771">
        <ele>66.800003051758</ele>
        <time>2022-08-07T09:18:42.000Z</time>
      </trkpt>
      <trkpt lat="48.5663" lon="-4.36771">
        <ele>67</ele>
        <time>2022-08-07T09:18:43.000Z</time>
      </trkpt>
      <trkpt lat="48.56623" lon="-4.36771">
        <ele>67.199996948242</ele>
        <time>2022-08-07T09:18:44.000Z</time>
      </trkpt>
      <trkpt lat="48.56619" lon="-4.36771">
        <ele>67.199996948242</ele>
        <time>2022-08-07T09:18:45.000Z</time>
      </trkpt>
      <trkpt lat="48.56613" lon="-4.36771">
        <ele>67.400001525879</ele>
        <time>2022-08-07T09:18:46.000Z</time>
      </trkpt>
      <trkpt lat="48.56608" lon="-4.36771">
        <ele>67.400001525879</ele>
        <time>2022-08-07T09:18:47.000Z</time>
      </trkpt>
      <trkpt lat="48.56601" lon="-4.3677">
        <ele>67.599998474121</ele>
        <time>2022-08-07T09:18:48.000Z</time>
      </trkpt>
      <trkpt lat="48.56597" lon="-4.3677">
        <ele>67.800003051758</ele>
        <time>2022-08-07T09:18:49.000Z</time>
      </trkpt>
      <trkpt lat="48.56591" lon="-4.36769">
        <ele>68</ele>
        <time>2022-08-07T09:18:50.000Z</time>
      </trkpt>
      <trkpt lat="48.56586" lon="-4.36768">
        <ele>68.199996948242</ele>
        <time>2022-08-07T09:18:51.000Z</time>
      </trkpt>
      <trkpt lat="48.56581" lon="-4.36767">
        <ele>68.199996948242</ele>
        <time>2022-08-07T09:18:52.000Z</time>
      </trkpt>
      <trkpt lat="48.56575" lon="-4.36766">
        <ele>68.400001525879</ele>
        <time>2022-08-07T09:18:53.000Z</time>
      </trkpt>
      <trkpt lat="48.5657" lon="-4.36765">
        <ele>68.599998474121</ele>
        <time>2022-08-07T09:18:54.000Z</time>
      </trkpt>
      <trkpt lat="48.56564" lon="-4.36764">
        <ele>68.599998474121</ele>
        <time>2022-08-07T09:18:55.000Z</time>
      </trkpt>
      <trkpt lat="48.56559" lon="-4.36763">
        <ele>68.599998474121</ele>
        <time>2022-08-07T09:18:56.000Z</time>
      </trkpt>
      <trkpt lat="48.56553" lon="-4.36762">
        <ele>68.800003051758</ele>
        <time>2022-08-07T09:18:57.000Z</time>
      </trkpt>
      <trkpt lat="48.56548" lon="-4.36761">
        <ele>68.800003051758</ele>
        <time>2022-08-07T09:18:58.000Z</time>
      </trkpt>
      <trkpt lat="48.56542" lon="-4.36759">
        <ele>68.800003051758</ele>
        <time>2022-08-07T09:18:59.000Z</time>
      </trkpt>
      <trkpt lat="48.56537" lon="-4.36758">
        <ele>68.800003051758</ele>
        <time>2022-08-07T09:19:00.000Z</time>
      </trkpt>
      <trkpt lat="48.56531" lon="-4.36756">
        <ele>68.800003051758</ele>
        <time>2022-08-07T09:19:01.000Z</time>
      </trkpt>
      <trkpt lat="48.56524" lon="-4.36754">
        <ele>68.800003051758</ele>
        <time>2022-08-07T09:19:02.000Z</time>
      </trkpt>
      <trkpt lat="48.5652" lon="-4.36752">
        <ele>68.599998474121</ele>
        <time>2022-08-07T09:19:03.000Z</time>
      </trkpt>
      <trkpt lat="48.56514" lon="-4.36751">
        <ele>68.599998474121</ele>
        <time>2022-08-07T09:19:04.000Z</time>
      </trkpt>
      <trkpt lat="48.56509" lon="-4.36749">
        <ele>68.599998474121</ele>
        <time>2022-08-07T09:19:05.000Z</time>
      </trkpt>
      <trkpt lat="48.56503" lon="-4.36748">
        <ele>68.599998474121</ele>
        <time>2022-08-07T09:19:06.000Z</time>
      </trkpt>
      <trkpt lat="48.56497" lon="-4.36746">
        <ele>68.599998474121</ele>
        <time>2022-08-07T09:19:07.000Z</time>
      </trkpt>
      <trkpt lat="48.5649" lon="-4.36744">
        <ele>68.599998474121</ele>
        <time>2022-08-07T09:19:08.000Z</time>
      </trkpt>
      <trkpt lat="48.56486" lon="-4.36743">
        <ele>68.400001525879</ele>
        <time>2022-08-07T09:19:09.000Z</time>
      </trkpt>
      <trkpt lat="48.5648" lon="-4.36742">
        <ele>68.400001525879</ele>
        <time>2022-08-07T09:19:10.000Z</time>
      </trkpt>
      <trkpt lat="48.56475" lon="-4.36741">
        <ele>68.400001525879</ele>
        <time>2022-08-07T09:19:11.000Z</time>
      </trkpt>
      <trkpt lat="48.56469" lon="-4.36739">
        <ele>68.199996948242</ele>
        <time>2022-08-07T09:19:12.000Z</time>
      </trkpt>
      <trkpt lat="48.56463" lon="-4.36739">
        <ele>68.199996948242</ele>
        <time>2022-08-07T09:19:13.000Z</time>
      </trkpt>
      <trkpt lat="48.56457" lon="-4.36739">
        <ele>68</ele>
        <time>2022-08-07T09:19:14.000Z</time>
      </trkpt>
      <trkpt lat="48.56451" lon="-4.36739">
        <ele>67.800003051758</ele>
        <time>2022-08-07T09:19:15.000Z</time>
      </trkpt>
      <trkpt lat="48.56445" lon="-4.36739">
        <ele>67.199996948242</ele>
        <time>2022-08-07T09:19:16.000Z</time>
      </trkpt>
      <trkpt lat="48.56438" lon="-4.36739">
        <ele>67</ele>
        <time>2022-08-07T09:19:17.000Z</time>
      </trkpt>
      <trkpt lat="48.56432" lon="-4.36739">
        <ele>66.599998474121</ele>
        <time>2022-08-07T09:19:18.000Z</time>
      </trkpt>
      <trkpt lat="48.56425" lon="-4.36739">
        <ele>66.599998474121</ele>
        <time>2022-08-07T09:19:19.000Z</time>
      </trkpt>
      <trkpt lat="48.56418" lon="-4.36739">
        <ele>66.400001525879</ele>
        <time>2022-08-07T09:19:20.000Z</time>
      </trkpt>
      <trkpt lat="48.56411" lon="-4.36738">
        <ele>66.199996948242</ele>
        <time>2022-08-07T09:19:21.000Z</time>
      </trkpt>
      <trkpt lat="48.56405" lon="-4.36738">
        <ele>65.800003051758</ele>
        <time>2022-08-07T09:19:22.000Z</time>
      </trkpt>
      <trkpt lat="48.56398" lon="-4.36737">
        <ele>65.599998474121</ele>
        <time>2022-08-07T09:19:23.000Z</time>
      </trkpt>
      <trkpt lat="48.56391" lon="-4.36738">
        <ele>65.599998474121</ele>
        <time>2022-08-07T09:19:24.000Z</time>
      </trkpt>
      <trkpt lat="48.56385" lon="-4.3674">
        <ele>65.199996948242</ele>
        <time>2022-08-07T09:19:25.000Z</time>
      </trkpt>
      <trkpt lat="48.56378" lon="-4.36744">
        <ele>65</ele>
        <time>2022-08-07T09:19:26.000Z</time>
      </trkpt>
      <trkpt lat="48.56373" lon="-4.3675">
        <ele>64.800003051758</ele>
        <time>2022-08-07T09:19:27.000Z</time>
      </trkpt>
      <trkpt lat="48.56369" lon="-4.36758">
        <ele>64.599998474121</ele>
        <time>2022-08-07T09:19:28.000Z</time>
      </trkpt>
      <trkpt lat="48.56366" lon="-4.36768">
        <ele>64.599998474121</ele>
        <time>2022-08-07T09:19:29.000Z</time>
      </trkpt>
      <trkpt lat="48.56364" lon="-4.36777">
        <ele>64.400001525879</ele>
        <time>2022-08-07T09:19:30.000Z</time>
      </trkpt>
      <trkpt lat="48.56361" lon="-4.36785">
        <ele>64.199996948242</ele>
        <time>2022-08-07T09:19:31.000Z</time>
      </trkpt>
      <trkpt lat="48.56356" lon="-4.36791">
        <ele>64</ele>
        <time>2022-08-07T09:19:32.000Z</time>
      </trkpt>
      <trkpt lat="48.56351" lon="-4.36796">
        <ele>64</ele>
        <time>2022-08-07T09:19:33.000Z</time>
      </trkpt>
      <trkpt lat="48.56346" lon="-4.36801">
        <ele>63.799999237061</ele>
        <time>2022-08-07T09:19:34.000Z</time>
      </trkpt>
      <trkpt lat="48.56341" lon="-4.36804">
        <ele>63.799999237061</ele>
        <time>2022-08-07T09:19:35.000Z</time>
      </trkpt>
      <trkpt lat="48.56335" lon="-4.36808">
        <ele>63.400001525879</ele>
        <time>2022-08-07T09:19:36.000Z</time>
      </trkpt>
      <trkpt lat="48.56329" lon="-4.36811">
        <ele>63.400001525879</ele>
        <time>2022-08-07T09:19:37.000Z</time>
      </trkpt>
      <trkpt lat="48.56323" lon="-4.36813">
        <ele>63.200000762939</ele>
        <time>2022-08-07T09:19:38.000Z</time>
      </trkpt>
      <trkpt lat="48.56317" lon="-4.36815">
        <ele>63.200000762939</ele>
        <time>2022-08-07T09:19:39.000Z</time>
      </trkpt>
      <trkpt lat="48.56311" lon="-4.36815">
        <ele>63</ele>
        <time>2022-08-07T09:19:40.000Z</time>
      </trkpt>
      <trkpt lat="48.56305" lon="-4.36816">
        <ele>63</ele>
        <time>2022-08-07T09:19:41.000Z</time>
      </trkpt>
      <trkpt lat="48.56298" lon="-4.36816">
        <ele>63</ele>
        <time>2022-08-07T09:19:42.000Z</time>
      </trkpt>
      <trkpt lat="48.56292" lon="-4.36816">
        <ele>63.200000762939</ele>
        <time>2022-08-07T09:19:43.000Z</time>
      </trkpt>
      <trkpt lat="48.56286" lon="-4.36816">
        <ele>63.400001525879</ele>
        <time>2022-08-07T09:19:44.000Z</time>
      </trkpt>
      <trkpt lat="48.56279" lon="-4.36817">
        <ele>63.400001525879</ele>
        <time>2022-08-07T09:19:45.000Z</time>
      </trkpt>
      <trkpt lat="48.56273" lon="-4.36817">
        <ele>63.400001525879</ele>
        <time>2022-08-07T09:19:46.000Z</time>
      </trkpt>
      <trkpt lat="48.56266" lon="-4.36817">
        <ele>63.599998474121</ele>
        <time>2022-08-07T09:19:47.000Z</time>
      </trkpt>
      <trkpt lat="48.56259" lon="-4.36817">
        <ele>63.799999237061</ele>
        <time>2022-08-07T09:19:48.000Z</time>
      </trkpt>
      <trkpt lat="48.56253" lon="-4.36817">
        <ele>64</ele>
        <time>2022-08-07T09:19:49.000Z</time>
      </trkpt>
      <trkpt lat="48.56247" lon="-4.36818">
        <ele>64.199996948242</ele>
        <time>2022-08-07T09:19:50.000Z</time>
      </trkpt>
      <trkpt lat="48.5624" lon="-4.36818">
        <ele>64.199996948242</ele>
        <time>2022-08-07T09:19:51.000Z</time>
      </trkpt>
      <trkpt lat="48.56234" lon="-4.36818">
        <ele>64.199996948242</ele>
        <time>2022-08-07T09:19:52.000Z</time>
      </trkpt>
      <trkpt lat="48.56227" lon="-4.36818">
        <ele>64.199996948242</ele>
        <time>2022-08-07T09:19:53.000Z</time>
      </trkpt>
      <trkpt lat="48.5622" lon="-4.36817">
        <ele>64.199996948242</ele>
        <time>2022-08-07T09:19:54.000Z</time>
      </trkpt>
      <trkpt lat="48.56213" lon="-4.36817">
        <ele>64.199996948242</ele>
        <time>2022-08-07T09:19:55.000Z</time>
      </trkpt>
      <trkpt lat="48.56207" lon="-4.36818">
        <ele>64.199996948242</ele>
        <time>2022-08-07T09:19:56.000Z</time>
      </trkpt>
      <trkpt lat="48.56201" lon="-4.36818">
        <ele>64.199996948242</ele>
        <time>2022-08-07T09:19:57.000Z</time>
      </trkpt>
      <trkpt lat="48.56195" lon="-4.36819">
        <ele>64.199996948242</ele>
        <time>2022-08-07T09:19:58.000Z</time>
      </trkpt>
      <trkpt lat="48.56188" lon="-4.36819">
        <ele>64</ele>
        <time>2022-08-07T09:19:59.000Z</time>
      </trkpt>
      <trkpt lat="48.56181" lon="-4.36819">
        <ele>64</ele>
        <time>2022-08-07T09:20:00.000Z</time>
      </trkpt>
      <trkpt lat="48.56176" lon="-4.36819">
        <ele>64</ele>
        <time>2022-08-07T09:20:01.000Z</time>
      </trkpt>
      <trkpt lat="48.56169" lon="-4.36819">
        <ele>64</ele>
        <time>2022-08-07T09:20:02.000Z</time>
      </trkpt>
      <trkpt lat="48.56163" lon="-4.36819">
        <ele>64</ele>
        <time>2022-08-07T09:20:03.000Z</time>
      </trkpt>
      <trkpt lat="48.56156" lon="-4.36819">
        <ele>64</ele>
        <time>2022-08-07T09:20:04.000Z</time>
      </trkpt>
      <trkpt lat="48.5615" lon="-4.36819">
        <ele>64</ele>
        <time>2022-08-07T09:20:05.000Z</time>
      </trkpt>
      <trkpt lat="48.56144" lon="-4.36818">
        <ele>64</ele>
        <time>2022-08-07T09:20:06.000Z</time>
      </trkpt>
      <trkpt lat="48.56137" lon="-4.36818">
        <ele>64</ele>
        <time>2022-08-07T09:20:07.000Z</time>
      </trkpt>
      <trkpt lat="48.56131" lon="-4.36817">
        <ele>64</ele>
        <time>2022-08-07T09:20:08.000Z</time>
      </trkpt>
      <trkpt lat="48.56124" lon="-4.36817">
        <ele>64</ele>
        <time>2022-08-07T09:20:09.000Z</time>
      </trkpt>
      <trkpt lat="48.56118" lon="-4.36817">
        <ele>63.799999237061</ele>
        <time>2022-08-07T09:20:10.000Z</time>
      </trkpt>
      <trkpt lat="48.56111" lon="-4.36816">
        <ele>63.599998474121</ele>
        <time>2022-08-07T09:20:11.000Z</time>
      </trkpt>
      <trkpt lat="48.56104" lon="-4.36816">
        <ele>63.599998474121</ele>
        <time>2022-08-07T09:20:12.000Z</time>
      </trkpt>
      <trkpt lat="48.56097" lon="-4.36816">
        <ele>63.599998474121</ele>
        <time>2022-08-07T09:20:13.000Z</time>
      </trkpt>
      <trkpt lat="48.5609" lon="-4.36816">
        <ele>63.599998474121</ele>
        <time>2022-08-07T09:20:14.000Z</time>
      </trkpt>
      <trkpt lat="48.56083" lon="-4.36815">
        <ele>63.400001525879</ele>
        <time>2022-08-07T09:20:15.000Z</time>
      </trkpt>
      <trkpt lat="48.56076" lon="-4.36815">
        <ele>63.400001525879</ele>
        <time>2022-08-07T09:20:16.000Z</time>
      </trkpt>
      <trkpt lat="48.56069" lon="-4.36814">
        <ele>63.400001525879</ele>
        <time>2022-08-07T09:20:17.000Z</time>
      </trkpt>
      <trkpt lat="48.56062" lon="-4.36814">
        <ele>63.400001525879</ele>
        <time>2022-08-07T09:20:18.000Z</time>
      </trkpt>
      <trkpt lat="48.56055" lon="-4.36814">
        <ele>63.200000762939</ele>
        <time>2022-08-07T09:20:19.000Z</time>
      </trkpt>
      <trkpt lat="48.56047" lon="-4.36813">
        <ele>63.200000762939</ele>
        <time>2022-08-07T09:20:20.000Z</time>
      </trkpt>
      <trkpt lat="48.5604" lon="-4.36813">
        <ele>63.200000762939</ele>
        <time>2022-08-07T09:20:21.000Z</time>
      </trkpt>
      <trkpt lat="48.56033" lon="-4.36812">
        <ele>63.200000762939</ele>
        <time>2022-08-07T09:20:22.000Z</time>
      </trkpt>
      <trkpt lat="48.56025" lon="-4.36812">
        <ele>63.200000762939</ele>
        <time>2022-08-07T09:20:23.000Z</time>
      </trkpt>
      <trkpt lat="48.56018" lon="-4.36812">
        <ele>63.200000762939</ele>
        <time>2022-08-07T09:20:24.000Z</time>
      </trkpt>
      <trkpt lat="48.56011" lon="-4.36812">
        <ele>63.200000762939</ele>
        <time>2022-08-07T09:20:25.000Z</time>
      </trkpt>
      <trkpt lat="48.56003" lon="-4.36812">
        <ele>63.200000762939</ele>
        <time>2022-08-07T09:20:26.000Z</time>
      </trkpt>
      <trkpt lat="48.55997" lon="-4.36814">
        <ele>63.200000762939</ele>
        <time>2022-08-07T09:20:27.000Z</time>
      </trkpt>
      <trkpt lat="48.5599" lon="-4.36816">
        <ele>63</ele>
        <time>2022-08-07T09:20:28.000Z</time>
      </trkpt>
      <trkpt lat="48.55984" lon="-4.36817">
        <ele>63</ele>
        <time>2022-08-07T09:20:29.000Z</time>
      </trkpt>
      <trkpt lat="48.55979" lon="-4.36814">
        <ele>63</ele>
        <time>2022-08-07T09:20:30.000Z</time>
      </trkpt>
      <trkpt lat="48.55975" lon="-4.36808">
        <ele>62.799999237061</ele>
        <time>2022-08-07T09:20:31.000Z</time>
      </trkpt>
      <trkpt lat="48.55972" lon="-4.368">
        <ele>62.599998474121</ele>
        <time>2022-08-07T09:20:32.000Z</time>
      </trkpt>
      <trkpt lat="48.5597" lon="-4.36791">
        <ele>62.599998474121</ele>
        <time>2022-08-07T09:20:33.000Z</time>
      </trkpt>
      <trkpt lat="48.55968" lon="-4.36782">
        <ele>62.400001525879</ele>
        <time>2022-08-07T09:20:34.000Z</time>
      </trkpt>
      <trkpt lat="48.55966" lon="-4.36773">
        <ele>62.200000762939</ele>
        <time>2022-08-07T09:20:35.000Z</time>
      </trkpt>
      <trkpt lat="48.55966" lon="-4.36765">
        <ele>62.200000762939</ele>
        <time>2022-08-07T09:20:36.000Z</time>
      </trkpt>
      <trkpt lat="48.55965" lon="-4.36756">
        <ele>62</ele>
        <time>2022-08-07T09:20:37.000Z</time>
      </trkpt>
      <trkpt lat="48.55965" lon="-4.36747">
        <ele>61.799999237061</ele>
        <time>2022-08-07T09:20:38.000Z</time>
      </trkpt>
      <trkpt lat="48.55964" lon="-4.36737">
        <ele>61.599998474121</ele>
        <time>2022-08-07T09:20:39.000Z</time>
      </trkpt>
      <trkpt lat="48.55964" lon="-4.36728">
        <ele>61.400001525879</ele>
        <time>2022-08-07T09:20:40.000Z</time>
      </trkpt>
      <trkpt lat="48.55964" lon="-4.3672">
        <ele>61.200000762939</ele>
        <time>2022-08-07T09:20:41.000Z</time>
      </trkpt>
      <trkpt lat="48.55962" lon="-4.36711">
        <ele>60.799999237061</ele>
        <time>2022-08-07T09:20:42.000Z</time>
      </trkpt>
      <trkpt lat="48.55959" lon="-4.36707">
        <ele>60.599998474121</ele>
        <time>2022-08-07T09:20:43.000Z</time>
      </trkpt>
      <trkpt lat="48.55956" lon="-4.36704">
        <ele>60.200000762939</ele>
        <time>2022-08-07T09:20:44.000Z</time>
      </trkpt>
      <trkpt lat="48.55951" lon="-4.36703">
        <ele>60</ele>
        <time>2022-08-07T09:20:45.000Z</time>
      </trkpt>
      <trkpt lat="48.55947" lon="-4.36702">
        <ele>60</ele>
        <time>2022-08-07T09:20:46.000Z</time>
      </trkpt>
      <trkpt lat="48.55942" lon="-4.36703">
        <ele>59.799999237061</ele>
        <time>2022-08-07T09:20:47.000Z</time>
      </trkpt>
      <trkpt lat="48.55938" lon="-4.36703">
        <ele>59.799999237061</ele>
        <time>2022-08-07T09:20:48.000Z</time>
      </trkpt>
      <trkpt lat="48.55934" lon="-4.36703">
        <ele>59.799999237061</ele>
        <time>2022-08-07T09:20:49.000Z</time>
      </trkpt>
      <trkpt lat="48.55929" lon="-4.36702">
        <ele>59.599998474121</ele>
        <time>2022-08-07T09:20:50.000Z</time>
      </trkpt>
      <trkpt lat="48.55924" lon="-4.36701">
        <ele>59.400001525879</ele>
        <time>2022-08-07T09:20:51.000Z</time>
      </trkpt>
      <trkpt lat="48.55918" lon="-4.367">
        <ele>59.400001525879</ele>
        <time>2022-08-07T09:20:52.000Z</time>
      </trkpt>
      <trkpt lat="48.55913" lon="-4.367">
        <ele>59.400001525879</ele>
        <time>2022-08-07T09:20:53.000Z</time>
      </trkpt>
      <trkpt lat="48.55907" lon="-4.36699">
        <ele>59.200000762939</ele>
        <time>2022-08-07T09:20:54.000Z</time>
      </trkpt>
      <trkpt lat="48.55903" lon="-4.367">
        <ele>59.200000762939</ele>
        <time>2022-08-07T09:20:55.000Z</time>
      </trkpt>
      <trkpt lat="48.55898" lon="-4.367">
        <ele>59.200000762939</ele>
        <time>2022-08-07T09:20:56.000Z</time>
      </trkpt>
      <trkpt lat="48.55893" lon="-4.367">
        <ele>59</ele>
        <time>2022-08-07T09:20:57.000Z</time>
      </trkpt>
      <trkpt lat="48.55888" lon="-4.36699">
        <ele>59</ele>
        <time>2022-08-07T09:20:58.000Z</time>
      </trkpt>
      <trkpt lat="48.55882" lon="-4.36699">
        <ele>59</ele>
        <time>2022-08-07T09:20:59.000Z</time>
      </trkpt>
      <trkpt lat="48.55876" lon="-4.36698">
        <ele>58.799999237061</ele>
        <time>2022-08-07T09:21:00.000Z</time>
      </trkpt>
      <trkpt lat="48.5587" lon="-4.36696">
        <ele>58.799999237061</ele>
        <time>2022-08-07T09:21:01.000Z</time>
      </trkpt>
      <trkpt lat="48.55865" lon="-4.36695">
        <ele>58.599998474121</ele>
        <time>2022-08-07T09:21:02.000Z</time>
      </trkpt>
      <trkpt lat="48.5586" lon="-4.36691">
        <ele>58.599998474121</ele>
        <time>2022-08-07T09:21:03.000Z</time>
      </trkpt>
      <trkpt lat="48.55855" lon="-4.36686">
        <ele>58.400001525879</ele>
        <time>2022-08-07T09:21:04.000Z</time>
      </trkpt>
      <trkpt lat="48.55851" lon="-4.36679">
        <ele>58.400001525879</ele>
        <time>2022-08-07T09:21:05.000Z</time>
      </trkpt>
      <trkpt lat="48.55848" lon="-4.36671">
        <ele>58.400001525879</ele>
        <time>2022-08-07T09:21:06.000Z</time>
      </trkpt>
      <trkpt lat="48.55846" lon="-4.36664">
        <ele>58.400001525879</ele>
        <time>2022-08-07T09:21:07.000Z</time>
      </trkpt>
      <trkpt lat="48.55844" lon="-4.36656">
        <ele>58.400001525879</ele>
        <time>2022-08-07T09:21:08.000Z</time>
      </trkpt>
      <trkpt lat="48.55843" lon="-4.36648">
        <ele>58.400001525879</ele>
        <time>2022-08-07T09:21:09.000Z</time>
      </trkpt>
      <trkpt lat="48.55842" lon="-4.36641">
        <ele>58.400001525879</ele>
        <time>2022-08-07T09:21:10.000Z</time>
      </trkpt>
      <trkpt lat="48.5584" lon="-4.36633">
        <ele>58.400001525879</ele>
        <time>2022-08-07T09:21:11.000Z</time>
      </trkpt>
      <trkpt lat="48.55839" lon="-4.36625">
        <ele>58.599998474121</ele>
        <time>2022-08-07T09:21:12.000Z</time>
      </trkpt>
      <trkpt lat="48.55838" lon="-4.36617">
        <ele>59</ele>
        <time>2022-08-07T09:21:13.000Z</time>
      </trkpt>
      <trkpt lat="48.55837" lon="-4.36609">
        <ele>59.200000762939</ele>
        <time>2022-08-07T09:21:14.000Z</time>
      </trkpt>
      <trkpt lat="48.55838" lon="-4.366">
        <ele>59.400001525879</ele>
        <time>2022-08-07T09:21:15.000Z</time>
      </trkpt>
      <trkpt lat="48.55839" lon="-4.36594">
        <ele>59.599998474121</ele>
        <time>2022-08-07T09:21:16.000Z</time>
      </trkpt>
      <trkpt lat="48.5584" lon="-4.36586">
        <ele>59.799999237061</ele>
        <time>2022-08-07T09:21:17.000Z</time>
      </trkpt>
      <trkpt lat="48.55842" lon="-4.36577">
        <ele>60.599998474121</ele>
        <time>2022-08-07T09:21:18.000Z</time>
      </trkpt>
      <trkpt lat="48.55843" lon="-4.36571">
        <ele>60.799999237061</ele>
        <time>2022-08-07T09:21:19.000Z</time>
      </trkpt>
      <trkpt lat="48.55845" lon="-4.36563">
        <ele>61.200000762939</ele>
        <time>2022-08-07T09:21:20.000Z</time>
      </trkpt>
      <trkpt lat="48.55847" lon="-4.36555">
        <ele>61.400001525879</ele>
        <time>2022-08-07T09:21:21.000Z</time>
      </trkpt>
      <trkpt lat="48.55849" lon="-4.36548">
        <ele>61.599998474121</ele>
        <time>2022-08-07T09:21:22.000Z</time>
      </trkpt>
      <trkpt lat="48.55851" lon="-4.36541">
        <ele>61.799999237061</ele>
        <time>2022-08-07T09:21:23.000Z</time>
      </trkpt>
      <trkpt lat="48.55853" lon="-4.36534">
        <ele>62</ele>
        <time>2022-08-07T09:21:24.000Z</time>
      </trkpt>
      <trkpt lat="48.55855" lon="-4.36527">
        <ele>62.200000762939</ele>
        <time>2022-08-07T09:21:25.000Z</time>
      </trkpt>
      <trkpt lat="48.55856" lon="-4.3652">
        <ele>62.400001525879</ele>
        <time>2022-08-07T09:21:26.000Z</time>
      </trkpt>
      <trkpt lat="48.55858" lon="-4.36514">
        <ele>62.599998474121</ele>
        <time>2022-08-07T09:21:27.000Z</time>
      </trkpt>
      <trkpt lat="48.55859" lon="-4.36509">
        <ele>62.599998474121</ele>
        <time>2022-08-07T09:21:28.000Z</time>
      </trkpt>
      <trkpt lat="48.55861" lon="-4.36503">
        <ele>63</ele>
        <time>2022-08-07T09:21:29.000Z</time>
      </trkpt>
      <trkpt lat="48.55862" lon="-4.36498">
        <ele>63.200000762939</ele>
        <time>2022-08-07T09:21:30.000Z</time>
      </trkpt>
      <trkpt lat="48.55864" lon="-4.36492">
        <ele>63.400001525879</ele>
        <time>2022-08-07T09:21:31.000Z</time>
      </trkpt>
      <trkpt lat="48.55865" lon="-4.36486">
        <ele>63.400001525879</ele>
        <time>2022-08-07T09:21:32.000Z</time>
      </trkpt>
      <trkpt lat="48.55867" lon="-4.3648">
        <ele>63.400001525879</ele>
        <time>2022-08-07T09:21:33.000Z</time>
      </trkpt>
      <trkpt lat="48.5587" lon="-4.36475">
        <ele>63.400001525879</ele>
        <time>2022-08-07T09:21:34.000Z</time>
      </trkpt>
      <trkpt lat="48.55872" lon="-4.36471">
        <ele>63.400001525879</ele>
        <time>2022-08-07T09:21:35.000Z</time>
      </trkpt>
      <trkpt lat="48.55875" lon="-4.36467">
        <ele>63.400001525879</ele>
        <time>2022-08-07T09:21:36.000Z</time>
      </trkpt>
      <trkpt lat="48.55878" lon="-4.36464">
        <ele>63.400001525879</ele>
        <time>2022-08-07T09:21:37.000Z</time>
      </trkpt>
      <trkpt lat="48.55881" lon="-4.3646">
        <ele>63.400001525879</ele>
        <time>2022-08-07T09:21:38.000Z</time>
      </trkpt>
      <trkpt lat="48.55885" lon="-4.36455">
        <ele>63.400001525879</ele>
        <time>2022-08-07T09:21:39.000Z</time>
      </trkpt>
      <trkpt lat="48.55887" lon="-4.36451">
        <ele>63.200000762939</ele>
        <time>2022-08-07T09:21:40.000Z</time>
      </trkpt>
      <trkpt lat="48.55891" lon="-4.36447">
        <ele>63.200000762939</ele>
        <time>2022-08-07T09:21:41.000Z</time>
      </trkpt>
      <trkpt lat="48.55894" lon="-4.36442">
        <ele>63.200000762939</ele>
        <time>2022-08-07T09:21:42.000Z</time>
      </trkpt>
      <trkpt lat="48.55896" lon="-4.36436">
        <ele>63</ele>
        <time>2022-08-07T09:21:43.000Z</time>
      </trkpt>
      <trkpt lat="48.55897" lon="-4.36429">
        <ele>62.799999237061</ele>
        <time>2022-08-07T09:21:44.000Z</time>
      </trkpt>
      <trkpt lat="48.55898" lon="-4.36423">
        <ele>62.799999237061</ele>
        <time>2022-08-07T09:21:45.000Z</time>
      </trkpt>
      <trkpt lat="48.55897" lon="-4.36416">
        <ele>62.799999237061</ele>
        <time>2022-08-07T09:21:46.000Z</time>
      </trkpt>
      <trkpt lat="48.55896" lon="-4.36408">
        <ele>62.599998474121</ele>
        <time>2022-08-07T09:21:47.000Z</time>
      </trkpt>
      <trkpt lat="48.55896" lon="-4.36402">
        <ele>62.599998474121</ele>
        <time>2022-08-07T09:21:48.000Z</time>
      </trkpt>
      <trkpt lat="48.55895" lon="-4.36395">
        <ele>62.599998474121</ele>
        <time>2022-08-07T09:21:49.000Z</time>
      </trkpt>
      <trkpt lat="48.55894" lon="-4.36389">
        <ele>62.400001525879</ele>
        <time>2022-08-07T09:21:50.000Z</time>
      </trkpt>
      <trkpt lat="48.55893" lon="-4.36382">
        <ele>62.400001525879</ele>
        <time>2022-08-07T09:21:51.000Z</time>
      </trkpt>
      <trkpt lat="48.55892" lon="-4.36376">
        <ele>62.400001525879</ele>
        <time>2022-08-07T09:21:52.000Z</time>
      </trkpt>
      <trkpt lat="48.5589" lon="-4.36368">
        <ele>62.400001525879</ele>
        <time>2022-08-07T09:21:53.000Z</time>
      </trkpt>
      <trkpt lat="48.5589" lon="-4.36363">
        <ele>62.400001525879</ele>
        <time>2022-08-07T09:21:54.000Z</time>
      </trkpt>
      <trkpt lat="48.55889" lon="-4.36356">
        <ele>62.400001525879</ele>
        <time>2022-08-07T09:21:55.000Z</time>
      </trkpt>
      <trkpt lat="48.55888" lon="-4.36349">
        <ele>62.200000762939</ele>
        <time>2022-08-07T09:21:56.000Z</time>
      </trkpt>
      <trkpt lat="48.55887" lon="-4.36343">
        <ele>62.200000762939</ele>
        <time>2022-08-07T09:21:57.000Z</time>
      </trkpt>
      <trkpt lat="48.55886" lon="-4.36336">
        <ele>62.200000762939</ele>
        <time>2022-08-07T09:21:58.000Z</time>
      </trkpt>
      <trkpt lat="48.55885" lon="-4.36329">
        <ele>62.200000762939</ele>
        <time>2022-08-07T09:21:59.000Z</time>
      </trkpt>
      <trkpt lat="48.55885" lon="-4.36322">
        <ele>62.200000762939</ele>
        <time>2022-08-07T09:22:00.000Z</time>
      </trkpt>
      <trkpt lat="48.55884" lon="-4.36315">
        <ele>62</ele>
        <time>2022-08-07T09:22:01.000Z</time>
      </trkpt>
      <trkpt lat="48.55884" lon="-4.36308">
        <ele>62</ele>
        <time>2022-08-07T09:22:02.000Z</time>
      </trkpt>
      <trkpt lat="48.55884" lon="-4.363">
        <ele>62</ele>
        <time>2022-08-07T09:22:03.000Z</time>
      </trkpt>
      <trkpt lat="48.55885" lon="-4.36293">
        <ele>61.799999237061</ele>
        <time>2022-08-07T09:22:04.000Z</time>
      </trkpt>
      <trkpt lat="48.55884" lon="-4.36285">
        <ele>61.799999237061</ele>
        <time>2022-08-07T09:22:05.000Z</time>
      </trkpt>
      <trkpt lat="48.55885" lon="-4.36277">
        <ele>61.799999237061</ele>
        <time>2022-08-07T09:22:06.000Z</time>
      </trkpt>
      <trkpt lat="48.55885" lon="-4.36269">
        <ele>61.799999237061</ele>
        <time>2022-08-07T09:22:07.000Z</time>
      </trkpt>
      <trkpt lat="48.55886" lon="-4.36262">
        <ele>61.599998474121</ele>
        <time>2022-08-07T09:22:08.000Z</time>
      </trkpt>
      <trkpt lat="48.55887" lon="-4.36254">
        <ele>61.599998474121</ele>
        <time>2022-08-07T09:22:09.000Z</time>
      </trkpt>
      <trkpt lat="48.55888" lon="-4.36247">
        <ele>61.599998474121</ele>
        <time>2022-08-07T09:22:10.000Z</time>
      </trkpt>
      <trkpt lat="48.55889" lon="-4.36239">
        <ele>61.400001525879</ele>
        <time>2022-08-07T09:22:11.000Z</time>
      </trkpt>
      <trkpt lat="48.5589" lon="-4.36231">
        <ele>61.400001525879</ele>
        <time>2022-08-07T09:22:12.000Z</time>
      </trkpt>
      <trkpt lat="48.55891" lon="-4.36223">
        <ele>61.400001525879</ele>
        <time>2022-08-07T09:22:13.000Z</time>
      </trkpt>
      <trkpt lat="48.55891" lon="-4.36215">
        <ele>61.400001525879</ele>
        <time>2022-08-07T09:22:14.000Z</time>
      </trkpt>
      <trkpt lat="48.55891" lon="-4.36208">
        <ele>61.400001525879</ele>
        <time>2022-08-07T09:22:15.000Z</time>
      </trkpt>
      <trkpt lat="48.55891" lon="-4.362">
        <ele>61.400001525879</ele>
        <time>2022-08-07T09:22:16.000Z</time>
      </trkpt>
      <trkpt lat="48.55891" lon="-4.36193">
        <ele>61.400001525879</ele>
        <time>2022-08-07T09:22:17.000Z</time>
      </trkpt>
      <trkpt lat="48.5589" lon="-4.36186">
        <ele>61.400001525879</ele>
        <time>2022-08-07T09:22:18.000Z</time>
      </trkpt>
      <trkpt lat="48.5589" lon="-4.36178">
        <ele>61.400001525879</ele>
        <time>2022-08-07T09:22:19.000Z</time>
      </trkpt>
      <trkpt lat="48.55888" lon="-4.3617">
        <ele>61.400001525879</ele>
        <time>2022-08-07T09:22:20.000Z</time>
      </trkpt>
      <trkpt lat="48.55888" lon="-4.36162">
        <ele>61.200000762939</ele>
        <time>2022-08-07T09:22:21.000Z</time>
      </trkpt>
      <trkpt lat="48.55887" lon="-4.36153">
        <ele>61.200000762939</ele>
        <time>2022-08-07T09:22:22.000Z</time>
      </trkpt>
      <trkpt lat="48.55886" lon="-4.36146">
        <ele>61.200000762939</ele>
        <time>2022-08-07T09:22:23.000Z</time>
      </trkpt>
      <trkpt lat="48.55884" lon="-4.36138">
        <ele>61.200000762939</ele>
        <time>2022-08-07T09:22:24.000Z</time>
      </trkpt>
      <trkpt lat="48.55883" lon="-4.3613">
        <ele>61.200000762939</ele>
        <time>2022-08-07T09:22:25.000Z</time>
      </trkpt>
      <trkpt lat="48.55882" lon="-4.36122">
        <ele>61.400001525879</ele>
        <time>2022-08-07T09:22:26.000Z</time>
      </trkpt>
      <trkpt lat="48.5588" lon="-4.36115">
        <ele>61.400001525879</ele>
        <time>2022-08-07T09:22:27.000Z</time>
      </trkpt>
      <trkpt lat="48.55878" lon="-4.36108">
        <ele>61</ele>
        <time>2022-08-07T09:22:28.000Z</time>
      </trkpt>
      <trkpt lat="48.55877" lon="-4.361">
        <ele>61</ele>
        <time>2022-08-07T09:22:29.000Z</time>
      </trkpt>
      <trkpt lat="48.55875" lon="-4.36093">
        <ele>61.200000762939</ele>
        <time>2022-08-07T09:22:30.000Z</time>
      </trkpt>
      <trkpt lat="48.55873" lon="-4.36086">
        <ele>61.400001525879</ele>
        <time>2022-08-07T09:22:31.000Z</time>
      </trkpt>
      <trkpt lat="48.55871" lon="-4.36078">
        <ele>61.400001525879</ele>
        <time>2022-08-07T09:22:32.000Z</time>
      </trkpt>
      <trkpt lat="48.5587" lon="-4.36071">
        <ele>61.400001525879</ele>
        <time>2022-08-07T09:22:33.000Z</time>
      </trkpt>
      <trkpt lat="48.55868" lon="-4.36063">
        <ele>61.599998474121</ele>
        <time>2022-08-07T09:22:34.000Z</time>
      </trkpt>
      <trkpt lat="48.55867" lon="-4.36056">
        <ele>61.799999237061</ele>
        <time>2022-08-07T09:22:35.000Z</time>
      </trkpt>
      <trkpt lat="48.55866" lon="-4.36049">
        <ele>61.799999237061</ele>
        <time>2022-08-07T09:22:36.000Z</time>
      </trkpt>
      <trkpt lat="48.55864" lon="-4.36042">
        <ele>61.799999237061</ele>
        <time>2022-08-07T09:22:37.000Z</time>
      </trkpt>
      <trkpt lat="48.55862" lon="-4.36035">
        <ele>61.799999237061</ele>
        <time>2022-08-07T09:22:38.000Z</time>
      </trkpt>
      <trkpt lat="48.55861" lon="-4.36029">
        <ele>62</ele>
        <time>2022-08-07T09:22:39.000Z</time>
      </trkpt>
      <trkpt lat="48.55859" lon="-4.36022">
        <ele>62</ele>
        <time>2022-08-07T09:22:40.000Z</time>
      </trkpt>
      <trkpt lat="48.55857" lon="-4.36015">
        <ele>62</ele>
        <time>2022-08-07T09:22:41.000Z</time>
      </trkpt>
      <trkpt lat="48.55856" lon="-4.36009">
        <ele>62</ele>
        <time>2022-08-07T09:22:42.000Z</time>
      </trkpt>
      <trkpt lat="48.55854" lon="-4.36003">
        <ele>62</ele>
        <time>2022-08-07T09:22:43.000Z</time>
      </trkpt>
      <trkpt lat="48.55852" lon="-4.35996">
        <ele>62</ele>
        <time>2022-08-07T09:22:44.000Z</time>
      </trkpt>
      <trkpt lat="48.5585" lon="-4.35989">
        <ele>62</ele>
        <time>2022-08-07T09:22:45.000Z</time>
      </trkpt>
      <trkpt lat="48.55847" lon="-4.35983">
        <ele>62</ele>
        <time>2022-08-07T09:22:46.000Z</time>
      </trkpt>
      <trkpt lat="48.55843" lon="-4.35977">
        <ele>62</ele>
        <time>2022-08-07T09:22:47.000Z</time>
      </trkpt>
      <trkpt lat="48.55839" lon="-4.3597">
        <ele>62</ele>
        <time>2022-08-07T09:22:48.000Z</time>
      </trkpt>
      <trkpt lat="48.55834" lon="-4.35962">
        <ele>62</ele>
        <time>2022-08-07T09:22:49.000Z</time>
      </trkpt>
      <trkpt lat="48.55829" lon="-4.35954">
        <ele>62</ele>
        <time>2022-08-07T09:22:50.000Z</time>
      </trkpt>
      <trkpt lat="48.55823" lon="-4.35947">
        <ele>62</ele>
        <time>2022-08-07T09:22:51.000Z</time>
      </trkpt>
      <trkpt lat="48.55818" lon="-4.35939">
        <ele>62</ele>
        <time>2022-08-07T09:22:52.000Z</time>
      </trkpt>
      <trkpt lat="48.55812" lon="-4.35932">
        <ele>62.200000762939</ele>
        <time>2022-08-07T09:22:53.000Z</time>
      </trkpt>
      <trkpt lat="48.55807" lon="-4.35925">
        <ele>62.200000762939</ele>
        <time>2022-08-07T09:22:54.000Z</time>
      </trkpt>
      <trkpt lat="48.55801" lon="-4.35918">
        <ele>62.200000762939</ele>
        <time>2022-08-07T09:22:55.000Z</time>
      </trkpt>
      <trkpt lat="48.55796" lon="-4.35914">
        <ele>62.400001525879</ele>
        <time>2022-08-07T09:22:56.000Z</time>
      </trkpt>
      <trkpt lat="48.5579" lon="-4.3591">
        <ele>62.400001525879</ele>
        <time>2022-08-07T09:22:57.000Z</time>
      </trkpt>
      <trkpt lat="48.55784" lon="-4.35908">
        <ele>62.400001525879</ele>
        <time>2022-08-07T09:22:58.000Z</time>
      </trkpt>
      <trkpt lat="48.55778" lon="-4.3591">
        <ele>62.400001525879</ele>
        <time>2022-08-07T09:22:59.000Z</time>
      </trkpt>
      <trkpt lat="48.55772" lon="-4.35916">
        <ele>62.400001525879</ele>
        <time>2022-08-07T09:23:00.000Z</time>
      </trkpt>
      <trkpt lat="48.55766" lon="-4.35924">
        <ele>62.200000762939</ele>
        <time>2022-08-07T09:23:01.000Z</time>
      </trkpt>
      <trkpt lat="48.55762" lon="-4.35933">
        <ele>61.799999237061</ele>
        <time>2022-08-07T09:23:02.000Z</time>
      </trkpt>
      <trkpt lat="48.55757" lon="-4.35942">
        <ele>61.599998474121</ele>
        <time>2022-08-07T09:23:03.000Z</time>
      </trkpt>
      <trkpt lat="48.55752" lon="-4.35952">
        <ele>61.400001525879</ele>
        <time>2022-08-07T09:23:04.000Z</time>
      </trkpt>
      <trkpt lat="48.55747" lon="-4.35962">
        <ele>61.200000762939</ele>
        <time>2022-08-07T09:23:05.000Z</time>
      </trkpt>
      <trkpt lat="48.55742" lon="-4.35972">
        <ele>60.599998474121</ele>
        <time>2022-08-07T09:23:06.000Z</time>
      </trkpt>
      <trkpt lat="48.55736" lon="-4.35983">
        <ele>60.200000762939</ele>
        <time>2022-08-07T09:23:07.000Z</time>
      </trkpt>
      <trkpt lat="48.55731" lon="-4.35993">
        <ele>60</ele>
        <time>2022-08-07T09:23:08.000Z</time>
      </trkpt>
      <trkpt lat="48.55726" lon="-4.36004">
        <ele>59.400001525879</ele>
        <time>2022-08-07T09:23:09.000Z</time>
      </trkpt>
      <trkpt lat="48.55721" lon="-4.36016">
        <ele>59.200000762939</ele>
        <time>2022-08-07T09:23:10.000Z</time>
      </trkpt>
      <trkpt lat="48.55716" lon="-4.36028">
        <ele>58.400001525879</ele>
        <time>2022-08-07T09:23:11.000Z</time>
      </trkpt>
      <trkpt lat="48.5571" lon="-4.3604">
        <ele>58</ele>
        <time>2022-08-07T09:23:12.000Z</time>
      </trkpt>
      <trkpt lat="48.55705" lon="-4.36051">
        <ele>57.599998474121</ele>
        <time>2022-08-07T09:23:13.000Z</time>
      </trkpt>
      <trkpt lat="48.55698" lon="-4.36062">
        <ele>57.200000762939</ele>
        <time>2022-08-07T09:23:14.000Z</time>
      </trkpt>
      <trkpt lat="48.55692" lon="-4.36071">
        <ele>56.799999237061</ele>
        <time>2022-08-07T09:23:15.000Z</time>
      </trkpt>
      <trkpt lat="48.55686" lon="-4.36081">
        <ele>56.400001525879</ele>
        <time>2022-08-07T09:23:16.000Z</time>
      </trkpt>
      <trkpt lat="48.55679" lon="-4.36091">
        <ele>56.200000762939</ele>
        <time>2022-08-07T09:23:17.000Z</time>
      </trkpt>
      <trkpt lat="48.55672" lon="-4.361">
        <ele>56</ele>
        <time>2022-08-07T09:23:18.000Z</time>
      </trkpt>
      <trkpt lat="48.55663" lon="-4.36111">
        <ele>56</ele>
        <time>2022-08-07T09:23:19.000Z</time>
      </trkpt>
      <trkpt lat="48.55657" lon="-4.36118">
        <ele>55.799999237061</ele>
        <time>2022-08-07T09:23:20.000Z</time>
      </trkpt>
      <trkpt lat="48.55649" lon="-4.36126">
        <ele>55.799999237061</ele>
        <time>2022-08-07T09:23:21.000Z</time>
      </trkpt>
      <trkpt lat="48.55642" lon="-4.36134">
        <ele>55.599998474121</ele>
        <time>2022-08-07T09:23:22.000Z</time>
      </trkpt>
      <trkpt lat="48.55634" lon="-4.36141">
        <ele>55.400001525879</ele>
        <time>2022-08-07T09:23:23.000Z</time>
      </trkpt>
      <trkpt lat="48.55627" lon="-4.36147">
        <ele>55</ele>
        <time>2022-08-07T09:23:24.000Z</time>
      </trkpt>
      <trkpt lat="48.55619" lon="-4.36154">
        <ele>54.799999237061</ele>
        <time>2022-08-07T09:23:25.000Z</time>
      </trkpt>
      <trkpt lat="48.55612" lon="-4.3616">
        <ele>54.799999237061</ele>
        <time>2022-08-07T09:23:26.000Z</time>
      </trkpt>
      <trkpt lat="48.55606" lon="-4.36168">
        <ele>54.599998474121</ele>
        <time>2022-08-07T09:23:27.000Z</time>
      </trkpt>
      <trkpt lat="48.55599" lon="-4.36175">
        <ele>54.599998474121</ele>
        <time>2022-08-07T09:23:28.000Z</time>
      </trkpt>
      <trkpt lat="48.55593" lon="-4.36182">
        <ele>54.400001525879</ele>
        <time>2022-08-07T09:23:29.000Z</time>
      </trkpt>
      <trkpt lat="48.55586" lon="-4.36188">
        <ele>54.400001525879</ele>
        <time>2022-08-07T09:23:30.000Z</time>
      </trkpt>
      <trkpt lat="48.5558" lon="-4.36191">
        <ele>54.400001525879</ele>
        <time>2022-08-07T09:23:31.000Z</time>
      </trkpt>
      <trkpt lat="48.55574" lon="-4.36191">
        <ele>54.400001525879</ele>
        <time>2022-08-07T09:23:32.000Z</time>
      </trkpt>
      <trkpt lat="48.55569" lon="-4.36189">
        <ele>54.400001525879</ele>
        <time>2022-08-07T09:23:33.000Z</time>
      </trkpt>
      <trkpt lat="48.55564" lon="-4.36184">
        <ele>54.400001525879</ele>
        <time>2022-08-07T09:23:34.000Z</time>
      </trkpt>
      <trkpt lat="48.5556" lon="-4.36178">
        <ele>54.400001525879</ele>
        <time>2022-08-07T09:23:35.000Z</time>
      </trkpt>
      <trkpt lat="48.55558" lon="-4.3617">
        <ele>54.599998474121</ele>
        <time>2022-08-07T09:23:36.000Z</time>
      </trkpt>
      <trkpt lat="48.55554" lon="-4.36163">
        <ele>54.599998474121</ele>
        <time>2022-08-07T09:23:37.000Z</time>
      </trkpt>
      <trkpt lat="48.55552" lon="-4.36156">
        <ele>55</ele>
        <time>2022-08-07T09:23:38.000Z</time>
      </trkpt>
      <trkpt lat="48.5555" lon="-4.3615">
        <ele>55</ele>
        <time>2022-08-07T09:23:39.000Z</time>
      </trkpt>
      <trkpt lat="48.55549" lon="-4.36145">
        <ele>55.400001525879</ele>
        <time>2022-08-07T09:23:40.000Z</time>
      </trkpt>
      <trkpt lat="48.55548" lon="-4.36141">
        <ele>55.799999237061</ele>
        <time>2022-08-07T09:23:41.000Z</time>
      </trkpt>
      <trkpt lat="48.55546" lon="-4.36137">
        <ele>56.200000762939</ele>
        <time>2022-08-07T09:23:42.000Z</time>
      </trkpt>
      <trkpt lat="48.55545" lon="-4.36132">
        <ele>56.599998474121</ele>
        <time>2022-08-07T09:23:43.000Z</time>
      </trkpt>
      <trkpt lat="48.55543" lon="-4.36128">
        <ele>56.799999237061</ele>
        <time>2022-08-07T09:23:44.000Z</time>
      </trkpt>
      <trkpt lat="48.55541" lon="-4.36124">
        <ele>57</ele>
        <time>2022-08-07T09:23:45.000Z</time>
      </trkpt>
      <trkpt lat="48.55541" lon="-4.3612">
        <ele>57</ele>
        <time>2022-08-07T09:23:46.000Z</time>
      </trkpt>
      <trkpt lat="48.5554" lon="-4.36116">
        <ele>57.400001525879</ele>
        <time>2022-08-07T09:23:47.000Z</time>
      </trkpt>
      <trkpt lat="48.55538" lon="-4.36112">
        <ele>57.400001525879</ele>
        <time>2022-08-07T09:23:48.000Z</time>
      </trkpt>
      <trkpt lat="48.55536" lon="-4.36108">
        <ele>57.599998474121</ele>
        <time>2022-08-07T09:23:49.000Z</time>
      </trkpt>
      <trkpt lat="48.55535" lon="-4.36104">
        <ele>57.599998474121</ele>
        <time>2022-08-07T09:23:50.000Z</time>
      </trkpt>
      <trkpt lat="48.55534" lon="-4.36099">
        <ele>57.599998474121</ele>
        <time>2022-08-07T09:23:51.000Z</time>
      </trkpt>
      <trkpt lat="48.55535" lon="-4.36094">
        <ele>57.599998474121</ele>
        <time>2022-08-07T09:23:52.000Z</time>
      </trkpt>
      <trkpt lat="48.55536" lon="-4.36089">
        <ele>57.599998474121</ele>
        <time>2022-08-07T09:23:53.000Z</time>
      </trkpt>
      <trkpt lat="48.55538" lon="-4.36084">
        <ele>57.799999237061</ele>
        <time>2022-08-07T09:23:54.000Z</time>
      </trkpt>
      <trkpt lat="48.5554" lon="-4.36078">
        <ele>57.799999237061</ele>
        <time>2022-08-07T09:23:55.000Z</time>
      </trkpt>
      <trkpt lat="48.55542" lon="-4.36072">
        <ele>57.799999237061</ele>
        <time>2022-08-07T09:23:56.000Z</time>
      </trkpt>
      <trkpt lat="48.55544" lon="-4.36066">
        <ele>57.799999237061</ele>
        <time>2022-08-07T09:23:57.000Z</time>
      </trkpt>
      <trkpt lat="48.55546" lon="-4.36061">
        <ele>57.799999237061</ele>
        <time>2022-08-07T09:23:58.000Z</time>
      </trkpt>
      <trkpt lat="48.55548" lon="-4.36055">
        <ele>57.799999237061</ele>
        <time>2022-08-07T09:23:59.000Z</time>
      </trkpt>
      <trkpt lat="48.55551" lon="-4.3605">
        <ele>57.799999237061</ele>
        <time>2022-08-07T09:24:00.000Z</time>
      </trkpt>
      <trkpt lat="48.55552" lon="-4.36043">
        <ele>57.799999237061</ele>
        <time>2022-08-07T09:24:01.000Z</time>
      </trkpt>
      <trkpt lat="48.55555" lon="-4.36037">
        <ele>57.799999237061</ele>
        <time>2022-08-07T09:24:02.000Z</time>
      </trkpt>
      <trkpt lat="48.55557" lon="-4.36031">
        <ele>58</ele>
        <time>2022-08-07T09:24:03.000Z</time>
      </trkpt>
      <trkpt lat="48.55559" lon="-4.36026">
        <ele>58</ele>
        <time>2022-08-07T09:24:04.000Z</time>
      </trkpt>
      <trkpt lat="48.55561" lon="-4.3602">
        <ele>58.200000762939</ele>
        <time>2022-08-07T09:24:05.000Z</time>
      </trkpt>
      <trkpt lat="48.55564" lon="-4.36013">
        <ele>58.200000762939</ele>
        <time>2022-08-07T09:24:06.000Z</time>
      </trkpt>
      <trkpt lat="48.55566" lon="-4.36009">
        <ele>58.200000762939</ele>
        <time>2022-08-07T09:24:07.000Z</time>
      </trkpt>
      <trkpt lat="48.55568" lon="-4.36003">
        <ele>58.400001525879</ele>
        <time>2022-08-07T09:24:08.000Z</time>
      </trkpt>
      <trkpt lat="48.55571" lon="-4.35997">
        <ele>58.400001525879</ele>
        <time>2022-08-07T09:24:09.000Z</time>
      </trkpt>
      <trkpt lat="48.55573" lon="-4.35991">
        <ele>58.400001525879</ele>
        <time>2022-08-07T09:24:10.000Z</time>
      </trkpt>
      <trkpt lat="48.55576" lon="-4.35985">
        <ele>58.400001525879</ele>
        <time>2022-08-07T09:24:11.000Z</time>
      </trkpt>
      <trkpt lat="48.55578" lon="-4.35979">
        <ele>58.400001525879</ele>
        <time>2022-08-07T09:24:12.000Z</time>
      </trkpt>
      <trkpt lat="48.55581" lon="-4.35973">
        <ele>58.400001525879</ele>
        <time>2022-08-07T09:24:13.000Z</time>
      </trkpt>
      <trkpt lat="48.55583" lon="-4.35967">
        <ele>58.400001525879</ele>
        <time>2022-08-07T09:24:14.000Z</time>
      </trkpt>
      <trkpt lat="48.55586" lon="-4.35961">
        <ele>58.400001525879</ele>
        <time>2022-08-07T09:24:15.000Z</time>
      </trkpt>
      <trkpt lat="48.55588" lon="-4.35955">
        <ele>58.400001525879</ele>
        <time>2022-08-07T09:24:16.000Z</time>
      </trkpt>
      <trkpt lat="48.55591" lon="-4.35949">
        <ele>58.400001525879</ele>
        <time>2022-08-07T09:24:17.000Z</time>
      </trkpt>
      <trkpt lat="48.55593" lon="-4.35944">
        <ele>58.400001525879</ele>
        <time>2022-08-07T09:24:18.000Z</time>
      </trkpt>
      <trkpt lat="48.55595" lon="-4.35938">
        <ele>58.400001525879</ele>
        <time>2022-08-07T09:24:19.000Z</time>
      </trkpt>
      <trkpt lat="48.55595" lon="-4.35932">
        <ele>58.599998474121</ele>
        <time>2022-08-07T09:24:20.000Z</time>
      </trkpt>
      <trkpt lat="48.55592" lon="-4.35926">
        <ele>58.599998474121</ele>
        <time>2022-08-07T09:24:21.000Z</time>
      </trkpt>
      <trkpt lat="48.55589" lon="-4.35924">
        <ele>58.599998474121</ele>
        <time>2022-08-07T09:24:22.000Z</time>
      </trkpt>
      <trkpt lat="48.55583" lon="-4.35925">
        <ele>58.799999237061</ele>
        <time>2022-08-07T09:24:23.000Z</time>
      </trkpt>
      <trkpt lat="48.55578" lon="-4.35927">
        <ele>58.799999237061</ele>
        <time>2022-08-07T09:24:24.000Z</time>
      </trkpt>
      <trkpt lat="48.55573" lon="-4.3593">
        <ele>58.799999237061</ele>
        <time>2022-08-07T09:24:25.000Z</time>
      </trkpt>
      <trkpt lat="48.55568" lon="-4.35932">
        <ele>58.799999237061</ele>
        <time>2022-08-07T09:24:26.000Z</time>
      </trkpt>
      <trkpt lat="48.55564" lon="-4.35935">
        <ele>58.799999237061</ele>
        <time>2022-08-07T09:24:27.000Z</time>
      </trkpt>
      <trkpt lat="48.5556" lon="-4.35937">
        <ele>58.799999237061</ele>
        <time>2022-08-07T09:24:28.000Z</time>
      </trkpt>
      <trkpt lat="48.55556" lon="-4.35939">
        <ele>58.799999237061</ele>
        <time>2022-08-07T09:24:29.000Z</time>
      </trkpt>
      <trkpt lat="48.55552" lon="-4.35941">
        <ele>58.599998474121</ele>
        <time>2022-08-07T09:24:30.000Z</time>
      </trkpt>
      <trkpt lat="48.55547" lon="-4.35943">
        <ele>58.599998474121</ele>
        <time>2022-08-07T09:24:31.000Z</time>
      </trkpt>
      <trkpt lat="48.55543" lon="-4.35945">
        <ele>58.400001525879</ele>
        <time>2022-08-07T09:24:32.000Z</time>
      </trkpt>
      <trkpt lat="48.55539" lon="-4.35947">
        <ele>58.200000762939</ele>
        <time>2022-08-07T09:24:33.000Z</time>
      </trkpt>
      <trkpt lat="48.55534" lon="-4.35948">
        <ele>58.200000762939</ele>
        <time>2022-08-07T09:24:34.000Z</time>
      </trkpt>
      <trkpt lat="48.5553" lon="-4.3595">
        <ele>58</ele>
        <time>2022-08-07T09:24:35.000Z</time>
      </trkpt>
      <trkpt lat="48.55525" lon="-4.35951">
        <ele>58</ele>
        <time>2022-08-07T09:24:36.000Z</time>
      </trkpt>
      <trkpt lat="48.55521" lon="-4.35952">
        <ele>58</ele>
        <time>2022-08-07T09:24:37.000Z</time>
      </trkpt>
      <trkpt lat="48.55516" lon="-4.35953">
        <ele>57.799999237061</ele>
        <time>2022-08-07T09:24:38.000Z</time>
      </trkpt>
      <trkpt lat="48.55511" lon="-4.35955">
        <ele>57.799999237061</ele>
        <time>2022-08-07T09:24:39.000Z</time>
      </trkpt>
      <trkpt lat="48.55506" lon="-4.35956">
        <ele>57.799999237061</ele>
        <time>2022-08-07T09:24:40.000Z</time>
      </trkpt>
      <trkpt lat="48.55501" lon="-4.35957">
        <ele>57.599998474121</ele>
        <time>2022-08-07T09:24:41.000Z</time>
      </trkpt>
      <trkpt lat="48.55495" lon="-4.35959">
        <ele>57.599998474121</ele>
        <time>2022-08-07T09:24:42.000Z</time>
      </trkpt>
      <trkpt lat="48.5549" lon="-4.3596">
        <ele>57.400001525879</ele>
        <time>2022-08-07T09:24:43.000Z</time>
      </trkpt>
      <trkpt lat="48.55484" lon="-4.35961">
        <ele>57.400001525879</ele>
        <time>2022-08-07T09:24:44.000Z</time>
      </trkpt>
      <trkpt lat="48.55478" lon="-4.35961">
        <ele>57.200000762939</ele>
        <time>2022-08-07T09:24:45.000Z</time>
      </trkpt>
      <trkpt lat="48.55472" lon="-4.35961">
        <ele>57</ele>
        <time>2022-08-07T09:24:46.000Z</time>
      </trkpt>
      <trkpt lat="48.55465" lon="-4.3596">
        <ele>56.799999237061</ele>
        <time>2022-08-07T09:24:47.000Z</time>
      </trkpt>
      <trkpt lat="48.55459" lon="-4.35958">
        <ele>56.400001525879</ele>
        <time>2022-08-07T09:24:48.000Z</time>
      </trkpt>
      <trkpt lat="48.55453" lon="-4.35955">
        <ele>56.400001525879</ele>
        <time>2022-08-07T09:24:49.000Z</time>
      </trkpt>
      <trkpt lat="48.55446" lon="-4.35951">
        <ele>56.200000762939</ele>
        <time>2022-08-07T09:24:50.000Z</time>
      </trkpt>
      <trkpt lat="48.55439" lon="-4.35947">
        <ele>55.799999237061</ele>
        <time>2022-08-07T09:24:51.000Z</time>
      </trkpt>
      <trkpt lat="48.55432" lon="-4.35943">
        <ele>55.599998474121</ele>
        <time>2022-08-07T09:24:52.000Z</time>
      </trkpt>
      <trkpt lat="48.55426" lon="-4.35938">
        <ele>55.200000762939</ele>
        <time>2022-08-07T09:24:53.000Z</time>
      </trkpt>
      <trkpt lat="48.55419" lon="-4.35933">
        <ele>55.200000762939</ele>
        <time>2022-08-07T09:24:54.000Z</time>
      </trkpt>
      <trkpt lat="48.55413" lon="-4.35929">
        <ele>54.799999237061</ele>
        <time>2022-08-07T09:24:55.000Z</time>
      </trkpt>
      <trkpt lat="48.55407" lon="-4.35925">
        <ele>54.599998474121</ele>
        <time>2022-08-07T09:24:56.000Z</time>
      </trkpt>
      <trkpt lat="48.55401" lon="-4.35921">
        <ele>54.400001525879</ele>
        <time>2022-08-07T09:24:57.000Z</time>
      </trkpt>
      <trkpt lat="48.55394" lon="-4.35916">
        <ele>54.200000762939</ele>
        <time>2022-08-07T09:24:58.000Z</time>
      </trkpt>
      <trkpt lat="48.55386" lon="-4.35911">
        <ele>54</ele>
        <time>2022-08-07T09:24:59.000Z</time>
      </trkpt>
      <trkpt lat="48.55379" lon="-4.35906">
        <ele>53.799999237061</ele>
        <time>2022-08-07T09:25:00.000Z</time>
      </trkpt>
      <trkpt lat="48.55372" lon="-4.359">
        <ele>53.599998474121</ele>
        <time>2022-08-07T09:25:01.000Z</time>
      </trkpt>
      <trkpt lat="48.55365" lon="-4.35895">
        <ele>53.400001525879</ele>
        <time>2022-08-07T09:25:02.000Z</time>
      </trkpt>
      <trkpt lat="48.55358" lon="-4.3589">
        <ele>53.200000762939</ele>
        <time>2022-08-07T09:25:03.000Z</time>
      </trkpt>
      <trkpt lat="48.5535" lon="-4.35885">
        <ele>53.200000762939</ele>
        <time>2022-08-07T09:25:04.000Z</time>
      </trkpt>
      <trkpt lat="48.55345" lon="-4.35882">
        <ele>53</ele>
        <time>2022-08-07T09:25:05.000Z</time>
      </trkpt>
      <trkpt lat="48.55338" lon="-4.35879">
        <ele>52.799999237061</ele>
        <time>2022-08-07T09:25:06.000Z</time>
      </trkpt>
      <trkpt lat="48.55331" lon="-4.35878">
        <ele>52.400001525879</ele>
        <time>2022-08-07T09:25:07.000Z</time>
      </trkpt>
      <trkpt lat="48.55325" lon="-4.35879">
        <ele>52.200000762939</ele>
        <time>2022-08-07T09:25:08.000Z</time>
      </trkpt>
      <trkpt lat="48.55318" lon="-4.35881">
        <ele>51.799999237061</ele>
        <time>2022-08-07T09:25:09.000Z</time>
      </trkpt>
      <trkpt lat="48.55311" lon="-4.35884">
        <ele>51.799999237061</ele>
        <time>2022-08-07T09:25:10.000Z</time>
      </trkpt>
      <trkpt lat="48.55304" lon="-4.35887">
        <ele>51.400001525879</ele>
        <time>2022-08-07T09:25:11.000Z</time>
      </trkpt>
      <trkpt lat="48.55297" lon="-4.3589">
        <ele>51.200000762939</ele>
        <time>2022-08-07T09:25:12.000Z</time>
      </trkpt>
      <trkpt lat="48.5529" lon="-4.35892">
        <ele>51</ele>
        <time>2022-08-07T09:25:13.000Z</time>
      </trkpt>
      <trkpt lat="48.55284" lon="-4.35895">
        <ele>50.799999237061</ele>
        <time>2022-08-07T09:25:14.000Z</time>
      </trkpt>
      <trkpt lat="48.55277" lon="-4.35898">
        <ele>50.599998474121</ele>
        <time>2022-08-07T09:25:15.000Z</time>
      </trkpt>
      <trkpt lat="48.5527" lon="-4.35901">
        <ele>50.200000762939</ele>
        <time>2022-08-07T09:25:16.000Z</time>
      </trkpt>
      <trkpt lat="48.55263" lon="-4.35904">
        <ele>50.200000762939</ele>
        <time>2022-08-07T09:25:17.000Z</time>
      </trkpt>
      <trkpt lat="48.55256" lon="-4.35908">
        <ele>50.200000762939</ele>
        <time>2022-08-07T09:25:18.000Z</time>
      </trkpt>
      <trkpt lat="48.55251" lon="-4.3591">
        <ele>50.200000762939</ele>
        <time>2022-08-07T09:25:19.000Z</time>
      </trkpt>
      <trkpt lat="48.55244" lon="-4.35913">
        <ele>50.200000762939</ele>
        <time>2022-08-07T09:25:20.000Z</time>
      </trkpt>
      <trkpt lat="48.55238" lon="-4.35916">
        <ele>50.200000762939</ele>
        <time>2022-08-07T09:25:21.000Z</time>
      </trkpt>
      <trkpt lat="48.55232" lon="-4.35918">
        <ele>50</ele>
        <time>2022-08-07T09:25:22.000Z</time>
      </trkpt>
      <trkpt lat="48.55225" lon="-4.35921">
        <ele>50</ele>
        <time>2022-08-07T09:25:23.000Z</time>
      </trkpt>
      <trkpt lat="48.55219" lon="-4.35924">
        <ele>50</ele>
        <time>2022-08-07T09:25:24.000Z</time>
      </trkpt>
      <trkpt lat="48.55213" lon="-4.35926">
        <ele>50</ele>
        <time>2022-08-07T09:25:25.000Z</time>
      </trkpt>
      <trkpt lat="48.55207" lon="-4.35929">
        <ele>50</ele>
        <time>2022-08-07T09:25:26.000Z</time>
      </trkpt>
      <trkpt lat="48.55201" lon="-4.35932">
        <ele>50</ele>
        <time>2022-08-07T09:25:27.000Z</time>
      </trkpt>
      <trkpt lat="48.55195" lon="-4.35934">
        <ele>50</ele>
        <time>2022-08-07T09:25:28.000Z</time>
      </trkpt>
      <trkpt lat="48.5519" lon="-4.35937">
        <ele>50.200000762939</ele>
        <time>2022-08-07T09:25:29.000Z</time>
      </trkpt>
      <trkpt lat="48.55185" lon="-4.3594">
        <ele>50.200000762939</ele>
        <time>2022-08-07T09:25:30.000Z</time>
      </trkpt>
      <trkpt lat="48.5518" lon="-4.35943">
        <ele>50.200000762939</ele>
        <time>2022-08-07T09:25:31.000Z</time>
      </trkpt>
      <trkpt lat="48.55174" lon="-4.35946">
        <ele>50.200000762939</ele>
        <time>2022-08-07T09:25:32.000Z</time>
      </trkpt>
      <trkpt lat="48.55167" lon="-4.35951">
        <ele>50.200000762939</ele>
        <time>2022-08-07T09:25:33.000Z</time>
      </trkpt>
      <trkpt lat="48.55161" lon="-4.35955">
        <ele>50.200000762939</ele>
        <time>2022-08-07T09:25:34.000Z</time>
      </trkpt>
      <trkpt lat="48.55155" lon="-4.35958">
        <ele>50.200000762939</ele>
        <time>2022-08-07T09:25:35.000Z</time>
      </trkpt>
      <trkpt lat="48.55149" lon="-4.35961">
        <ele>50.200000762939</ele>
        <time>2022-08-07T09:25:36.000Z</time>
      </trkpt>
      <trkpt lat="48.55143" lon="-4.35965">
        <ele>50</ele>
        <time>2022-08-07T09:25:37.000Z</time>
      </trkpt>
      <trkpt lat="48.55135" lon="-4.35968">
        <ele>49.799999237061</ele>
        <time>2022-08-07T09:25:38.000Z</time>
      </trkpt>
      <trkpt lat="48.55128" lon="-4.35971">
        <ele>49.799999237061</ele>
        <time>2022-08-07T09:25:39.000Z</time>
      </trkpt>
      <trkpt lat="48.55121" lon="-4.35974">
        <ele>48.599998474121</ele>
        <time>2022-08-07T09:25:40.000Z</time>
      </trkpt>
      <trkpt lat="48.55113" lon="-4.35976">
        <ele>48.400001525879</ele>
        <time>2022-08-07T09:25:41.000Z</time>
      </trkpt>
      <trkpt lat="48.55106" lon="-4.35977">
        <ele>47.799999237061</ele>
        <time>2022-08-07T09:25:42.000Z</time>
      </trkpt>
      <trkpt lat="48.551" lon="-4.3598">
        <ele>47.400001525879</ele>
        <time>2022-08-07T09:25:43.000Z</time>
      </trkpt>
      <trkpt lat="48.55094" lon="-4.35982">
        <ele>47.200000762939</ele>
        <time>2022-08-07T09:25:44.000Z</time>
      </trkpt>
      <trkpt lat="48.55087" lon="-4.35984">
        <ele>46.799999237061</ele>
        <time>2022-08-07T09:25:45.000Z</time>
      </trkpt>
      <trkpt lat="48.55078" lon="-4.35985">
        <ele>46.799999237061</ele>
        <time>2022-08-07T09:25:46.000Z</time>
      </trkpt>
      <trkpt lat="48.55069" lon="-4.35987">
        <ele>46.599998474121</ele>
        <time>2022-08-07T09:25:47.000Z</time>
      </trkpt>
      <trkpt lat="48.55061" lon="-4.3599">
        <ele>46.400001525879</ele>
        <time>2022-08-07T09:25:48.000Z</time>
      </trkpt>
      <trkpt lat="48.55054" lon="-4.35994">
        <ele>46</ele>
        <time>2022-08-07T09:25:49.000Z</time>
      </trkpt>
      <trkpt lat="48.55046" lon="-4.36001">
        <ele>45.599998474121</ele>
        <time>2022-08-07T09:25:50.000Z</time>
      </trkpt>
      <trkpt lat="48.55039" lon="-4.36011">
        <ele>45</ele>
        <time>2022-08-07T09:25:51.000Z</time>
      </trkpt>
      <trkpt lat="48.55032" lon="-4.36021">
        <ele>44.400001525879</ele>
        <time>2022-08-07T09:25:52.000Z</time>
      </trkpt>
      <trkpt lat="48.55026" lon="-4.3603">
        <ele>44</ele>
        <time>2022-08-07T09:25:53.000Z</time>
      </trkpt>
      <trkpt lat="48.55018" lon="-4.36038">
        <ele>43.200000762939</ele>
        <time>2022-08-07T09:25:54.000Z</time>
      </trkpt>
      <trkpt lat="48.55011" lon="-4.36044">
        <ele>42.799999237061</ele>
        <time>2022-08-07T09:25:55.000Z</time>
      </trkpt>
      <trkpt lat="48.55001" lon="-4.36047">
        <ele>41.799999237061</ele>
        <time>2022-08-07T09:25:56.000Z</time>
      </trkpt>
      <trkpt lat="48.54995" lon="-4.36046">
        <ele>41.400001525879</ele>
        <time>2022-08-07T09:25:57.000Z</time>
      </trkpt>
      <trkpt lat="48.5499" lon="-4.36044">
        <ele>40.200000762939</ele>
        <time>2022-08-07T09:25:58.000Z</time>
      </trkpt>
      <trkpt lat="48.54984" lon="-4.3604">
        <ele>39</ele>
        <time>2022-08-07T09:25:59.000Z</time>
      </trkpt>
      <trkpt lat="48.5498" lon="-4.36035">
        <ele>38.599998474121</ele>
        <time>2022-08-07T09:26:00.000Z</time>
      </trkpt>
      <trkpt lat="48.54974" lon="-4.3603">
        <ele>38</ele>
        <time>2022-08-07T09:26:01.000Z</time>
      </trkpt>
      <trkpt lat="48.5497" lon="-4.36027">
        <ele>38</ele>
        <time>2022-08-07T09:26:02.000Z</time>
      </trkpt>
      <trkpt lat="48.54968" lon="-4.36028">
        <ele>37.599998474121</ele>
        <time>2022-08-07T09:26:03.000Z</time>
      </trkpt>
      <trkpt lat="48.54967" lon="-4.3603">
        <ele>37.599998474121</ele>
        <time>2022-08-07T09:26:04.000Z</time>
      </trkpt>
      <trkpt lat="48.54965" lon="-4.36036">
        <ele>37.400001525879</ele>
        <time>2022-08-07T09:26:05.000Z</time>
      </trkpt>
      <trkpt lat="48.54963" lon="-4.36043">
        <ele>37.400001525879</ele>
        <time>2022-08-07T09:26:06.000Z</time>
      </trkpt>
      <trkpt lat="48.54961" lon="-4.36051">
        <ele>37.200000762939</ele>
        <time>2022-08-07T09:26:07.000Z</time>
      </trkpt>
      <trkpt lat="48.5496" lon="-4.36058">
        <ele>37</ele>
        <time>2022-08-07T09:26:08.000Z</time>
      </trkpt>
      <trkpt lat="48.5496" lon="-4.36067">
        <ele>37</ele>
        <time>2022-08-07T09:26:09.000Z</time>
      </trkpt>
      <trkpt lat="48.54957" lon="-4.3608">
        <ele>37</ele>
        <time>2022-08-07T09:26:10.000Z</time>
      </trkpt>
      <trkpt lat="48.54958" lon="-4.36089">
        <ele>37</ele>
        <time>2022-08-07T09:26:11.000Z</time>
      </trkpt>
      <trkpt lat="48.54956" lon="-4.361">
        <ele>37</ele>
        <time>2022-08-07T09:26:12.000Z</time>
      </trkpt>
      <trkpt lat="48.54954" lon="-4.36112">
        <ele>37</ele>
        <time>2022-08-07T09:26:13.000Z</time>
      </trkpt>
      <trkpt lat="48.54952" lon="-4.36122">
        <ele>37</ele>
        <time>2022-08-07T09:26:14.000Z</time>
      </trkpt>
      <trkpt lat="48.54951" lon="-4.36132">
        <ele>36.799999237061</ele>
        <time>2022-08-07T09:26:15.000Z</time>
      </trkpt>
      <trkpt lat="48.54949" lon="-4.36143">
        <ele>36.599998474121</ele>
        <time>2022-08-07T09:26:16.000Z</time>
      </trkpt>
      <trkpt lat="48.54949" lon="-4.36153">
        <ele>36.599998474121</ele>
        <time>2022-08-07T09:26:17.000Z</time>
      </trkpt>
      <trkpt lat="48.54949" lon="-4.36164">
        <ele>36.599998474121</ele>
        <time>2022-08-07T09:26:18.000Z</time>
      </trkpt>
      <trkpt lat="48.54947" lon="-4.36173">
        <ele>36.599998474121</ele>
        <time>2022-08-07T09:26:19.000Z</time>
      </trkpt>
      <trkpt lat="48.54944" lon="-4.36183">
        <ele>36.400001525879</ele>
        <time>2022-08-07T09:26:20.000Z</time>
      </trkpt>
      <trkpt lat="48.5494" lon="-4.36193">
        <ele>36.400001525879</ele>
        <time>2022-08-07T09:26:21.000Z</time>
      </trkpt>
      <trkpt lat="48.54937" lon="-4.36203">
        <ele>36.400001525879</ele>
        <time>2022-08-07T09:26:22.000Z</time>
      </trkpt>
      <trkpt lat="48.54934" lon="-4.36212">
        <ele>36.400001525879</ele>
        <time>2022-08-07T09:26:23.000Z</time>
      </trkpt>
      <trkpt lat="48.54932" lon="-4.36219">
        <ele>36.200000762939</ele>
        <time>2022-08-07T09:26:24.000Z</time>
      </trkpt>
      <trkpt lat="48.54929" lon="-4.36227">
        <ele>36.400001525879</ele>
        <time>2022-08-07T09:26:25.000Z</time>
      </trkpt>
      <trkpt lat="48.54926" lon="-4.36235">
        <ele>36.400001525879</ele>
        <time>2022-08-07T09:26:26.000Z</time>
      </trkpt>
      <trkpt lat="48.54924" lon="-4.36242">
        <ele>36.400001525879</ele>
        <time>2022-08-07T09:26:27.000Z</time>
      </trkpt>
      <trkpt lat="48.54922" lon="-4.3625">
        <ele>36.599998474121</ele>
        <time>2022-08-07T09:26:28.000Z</time>
      </trkpt>
      <trkpt lat="48.5492" lon="-4.36256">
        <ele>36.599998474121</ele>
        <time>2022-08-07T09:26:29.000Z</time>
      </trkpt>
      <trkpt lat="48.54916" lon="-4.36262">
        <ele>37</ele>
        <time>2022-08-07T09:26:30.000Z</time>
      </trkpt>
      <trkpt lat="48.54911" lon="-4.36265">
        <ele>37.200000762939</ele>
        <time>2022-08-07T09:26:31.000Z</time>
      </trkpt>
      <trkpt lat="48.54905" lon="-4.36268">
        <ele>37.200000762939</ele>
        <time>2022-08-07T09:26:32.000Z</time>
      </trkpt>
      <trkpt lat="48.54898" lon="-4.36273">
        <ele>37.400001525879</ele>
        <time>2022-08-07T09:26:33.000Z</time>
      </trkpt>
      <trkpt lat="48.54892" lon="-4.36278">
        <ele>37.400001525879</ele>
        <time>2022-08-07T09:26:34.000Z</time>
      </trkpt>
      <trkpt lat="48.54887" lon="-4.36284">
        <ele>37.400001525879</ele>
        <time>2022-08-07T09:26:35.000Z</time>
      </trkpt>
      <trkpt lat="48.54883" lon="-4.3629">
        <ele>37.400001525879</ele>
        <time>2022-08-07T09:26:36.000Z</time>
      </trkpt>
      <trkpt lat="48.54878" lon="-4.36296">
        <ele>37.400001525879</ele>
        <time>2022-08-07T09:26:37.000Z</time>
      </trkpt>
      <trkpt lat="48.54874" lon="-4.36306">
        <ele>37.200000762939</ele>
        <time>2022-08-07T09:26:38.000Z</time>
      </trkpt>
      <trkpt lat="48.5487" lon="-4.36314">
        <ele>36.799999237061</ele>
        <time>2022-08-07T09:26:39.000Z</time>
      </trkpt>
      <trkpt lat="48.54866" lon="-4.3632">
        <ele>36.599998474121</ele>
        <time>2022-08-07T09:26:40.000Z</time>
      </trkpt>
      <trkpt lat="48.5486" lon="-4.36325">
        <ele>35.799999237061</ele>
        <time>2022-08-07T09:26:41.000Z</time>
      </trkpt>
      <trkpt lat="48.54854" lon="-4.3633">
        <ele>35.400001525879</ele>
        <time>2022-08-07T09:26:42.000Z</time>
      </trkpt>
      <trkpt lat="48.54847" lon="-4.36336">
        <ele>35</ele>
        <time>2022-08-07T09:26:43.000Z</time>
      </trkpt>
      <trkpt lat="48.54841" lon="-4.36342">
        <ele>34.799999237061</ele>
        <time>2022-08-07T09:26:44.000Z</time>
      </trkpt>
      <trkpt lat="48.54834" lon="-4.36346">
        <ele>34.799999237061</ele>
        <time>2022-08-07T09:26:45.000Z</time>
      </trkpt>
      <trkpt lat="48.54826" lon="-4.36351">
        <ele>34.599998474121</ele>
        <time>2022-08-07T09:26:46.000Z</time>
      </trkpt>
      <trkpt lat="48.54818" lon="-4.36356">
        <ele>34.599998474121</ele>
        <time>2022-08-07T09:26:47.000Z</time>
      </trkpt>
      <trkpt lat="48.5481" lon="-4.36361">
        <ele>34.599998474121</ele>
        <time>2022-08-07T09:26:48.000Z</time>
      </trkpt>
      <trkpt lat="48.54802" lon="-4.36366">
        <ele>34.400001525879</ele>
        <time>2022-08-07T09:26:49.000Z</time>
      </trkpt>
      <trkpt lat="48.54795" lon="-4.3637">
        <ele>34.400001525879</ele>
        <time>2022-08-07T09:26:50.000Z</time>
      </trkpt>
      <trkpt lat="48.54784" lon="-4.36377">
        <ele>34.200000762939</ele>
        <time>2022-08-07T09:26:51.000Z</time>
      </trkpt>
      <trkpt lat="48.54778" lon="-4.36382">
        <ele>34.200000762939</ele>
        <time>2022-08-07T09:26:52.000Z</time>
      </trkpt>
      <trkpt lat="48.54771" lon="-4.36387">
        <ele>34.200000762939</ele>
        <time>2022-08-07T09:26:53.000Z</time>
      </trkpt>
      <trkpt lat="48.54763" lon="-4.36393">
        <ele>34.200000762939</ele>
        <time>2022-08-07T09:26:54.000Z</time>
      </trkpt>
      <trkpt lat="48.54756" lon="-4.36398">
        <ele>34</ele>
        <time>2022-08-07T09:26:55.000Z</time>
      </trkpt>
      <trkpt lat="48.54752" lon="-4.36402">
        <ele>34</ele>
        <time>2022-08-07T09:26:56.000Z</time>
      </trkpt>
      <trkpt lat="48.54746" lon="-4.36407">
        <ele>34</ele>
        <time>2022-08-07T09:26:57.000Z</time>
      </trkpt>
      <trkpt lat="48.54739" lon="-4.36412">
        <ele>34</ele>
        <time>2022-08-07T09:26:58.000Z</time>
      </trkpt>
      <trkpt lat="48.54732" lon="-4.36417">
        <ele>33.799999237061</ele>
        <time>2022-08-07T09:26:59.000Z</time>
      </trkpt>
      <trkpt lat="48.54726" lon="-4.36421">
        <ele>33.799999237061</ele>
        <time>2022-08-07T09:27:00.000Z</time>
      </trkpt>
      <trkpt lat="48.54717" lon="-4.36425">
        <ele>33.799999237061</ele>
        <time>2022-08-07T09:27:01.000Z</time>
      </trkpt>
      <trkpt lat="48.54709" lon="-4.3643">
        <ele>33.799999237061</ele>
        <time>2022-08-07T09:27:02.000Z</time>
      </trkpt>
      <trkpt lat="48.54702" lon="-4.36435">
        <ele>33.799999237061</ele>
        <time>2022-08-07T09:27:03.000Z</time>
      </trkpt>
      <trkpt lat="48.54696" lon="-4.3644">
        <ele>33.799999237061</ele>
        <time>2022-08-07T09:27:04.000Z</time>
      </trkpt>
      <trkpt lat="48.5469" lon="-4.36445">
        <ele>33.799999237061</ele>
        <time>2022-08-07T09:27:05.000Z</time>
      </trkpt>
      <trkpt lat="48.54682" lon="-4.3645">
        <ele>33.799999237061</ele>
        <time>2022-08-07T09:27:06.000Z</time>
      </trkpt>
      <trkpt lat="48.54675" lon="-4.36455">
        <ele>33.799999237061</ele>
        <time>2022-08-07T09:27:07.000Z</time>
      </trkpt>
      <trkpt lat="48.54667" lon="-4.3646">
        <ele>33.799999237061</ele>
        <time>2022-08-07T09:27:08.000Z</time>
      </trkpt>
      <trkpt lat="48.54659" lon="-4.36466">
        <ele>33.799999237061</ele>
        <time>2022-08-07T09:27:09.000Z</time>
      </trkpt>
      <trkpt lat="48.54653" lon="-4.3647">
        <ele>33.799999237061</ele>
        <time>2022-08-07T09:27:10.000Z</time>
      </trkpt>
      <trkpt lat="48.54646" lon="-4.36475">
        <ele>33.599998474121</ele>
        <time>2022-08-07T09:27:11.000Z</time>
      </trkpt>
      <trkpt lat="48.54638" lon="-4.36479">
        <ele>33.599998474121</ele>
        <time>2022-08-07T09:27:12.000Z</time>
      </trkpt>
      <trkpt lat="48.54631" lon="-4.36483">
        <ele>33.599998474121</ele>
        <time>2022-08-07T09:27:13.000Z</time>
      </trkpt>
      <trkpt lat="48.54623" lon="-4.36489">
        <ele>33.599998474121</ele>
        <time>2022-08-07T09:27:14.000Z</time>
      </trkpt>
      <trkpt lat="48.54617" lon="-4.36493">
        <ele>33.599998474121</ele>
        <time>2022-08-07T09:27:15.000Z</time>
      </trkpt>
      <trkpt lat="48.54611" lon="-4.36497">
        <ele>33.599998474121</ele>
        <time>2022-08-07T09:27:16.000Z</time>
      </trkpt>
      <trkpt lat="48.54605" lon="-4.365">
        <ele>33.599998474121</ele>
        <time>2022-08-07T09:27:17.000Z</time>
      </trkpt>
      <trkpt lat="48.54598" lon="-4.36504">
        <ele>33.799999237061</ele>
        <time>2022-08-07T09:27:18.000Z</time>
      </trkpt>
      <trkpt lat="48.54592" lon="-4.36508">
        <ele>33.799999237061</ele>
        <time>2022-08-07T09:27:19.000Z</time>
      </trkpt>
      <trkpt lat="48.54586" lon="-4.36512">
        <ele>34</ele>
        <time>2022-08-07T09:27:20.000Z</time>
      </trkpt>
      <trkpt lat="48.54579" lon="-4.36517">
        <ele>34</ele>
        <time>2022-08-07T09:27:21.000Z</time>
      </trkpt>
      <trkpt lat="48.54573" lon="-4.36521">
        <ele>34.200000762939</ele>
        <time>2022-08-07T09:27:22.000Z</time>
      </trkpt>
      <trkpt lat="48.54566" lon="-4.36526">
        <ele>34.200000762939</ele>
        <time>2022-08-07T09:27:23.000Z</time>
      </trkpt>
      <trkpt lat="48.5456" lon="-4.3653">
        <ele>34.200000762939</ele>
        <time>2022-08-07T09:27:24.000Z</time>
      </trkpt>
      <trkpt lat="48.54555" lon="-4.36535">
        <ele>34.400001525879</ele>
        <time>2022-08-07T09:27:25.000Z</time>
      </trkpt>
      <trkpt lat="48.54549" lon="-4.36539">
        <ele>34.400001525879</ele>
        <time>2022-08-07T09:27:26.000Z</time>
      </trkpt>
      <trkpt lat="48.54544" lon="-4.36542">
        <ele>34.599998474121</ele>
        <time>2022-08-07T09:27:27.000Z</time>
      </trkpt>
      <trkpt lat="48.54539" lon="-4.36545">
        <ele>34.599998474121</ele>
        <time>2022-08-07T09:27:28.000Z</time>
      </trkpt>
      <trkpt lat="48.54534" lon="-4.36549">
        <ele>34.799999237061</ele>
        <time>2022-08-07T09:27:29.000Z</time>
      </trkpt>
      <trkpt lat="48.5453" lon="-4.36553">
        <ele>35</ele>
        <time>2022-08-07T09:27:30.000Z</time>
      </trkpt>
      <trkpt lat="48.54525" lon="-4.36557">
        <ele>35.200000762939</ele>
        <time>2022-08-07T09:27:31.000Z</time>
      </trkpt>
      <trkpt lat="48.5452" lon="-4.3656">
        <ele>35.400001525879</ele>
        <time>2022-08-07T09:27:32.000Z</time>
      </trkpt>
      <trkpt lat="48.54515" lon="-4.36562">
        <ele>35.599998474121</ele>
        <time>2022-08-07T09:27:33.000Z</time>
      </trkpt>
      <trkpt lat="48.5451" lon="-4.36566">
        <ele>35.799999237061</ele>
        <time>2022-08-07T09:27:34.000Z</time>
      </trkpt>
      <trkpt lat="48.54506" lon="-4.36569">
        <ele>36</ele>
        <time>2022-08-07T09:27:35.000Z</time>
      </trkpt>
      <trkpt lat="48.54501" lon="-4.36573">
        <ele>36.400001525879</ele>
        <time>2022-08-07T09:27:36.000Z</time>
      </trkpt>
      <trkpt lat="48.54497" lon="-4.36577">
        <ele>36.599998474121</ele>
        <time>2022-08-07T09:27:37.000Z</time>
      </trkpt>
      <trkpt lat="48.54492" lon="-4.36582">
        <ele>36.599998474121</ele>
        <time>2022-08-07T09:27:38.000Z</time>
      </trkpt>
      <trkpt lat="48.54487" lon="-4.36586">
        <ele>36.799999237061</ele>
        <time>2022-08-07T09:27:39.000Z</time>
      </trkpt>
      <trkpt lat="48.54482" lon="-4.3659">
        <ele>37.200000762939</ele>
        <time>2022-08-07T09:27:40.000Z</time>
      </trkpt>
      <trkpt lat="48.54477" lon="-4.36594">
        <ele>37.400001525879</ele>
        <time>2022-08-07T09:27:41.000Z</time>
      </trkpt>
      <trkpt lat="48.54473" lon="-4.36598">
        <ele>37.799999237061</ele>
        <time>2022-08-07T09:27:42.000Z</time>
      </trkpt>
      <trkpt lat="48.54468" lon="-4.36603">
        <ele>38</ele>
        <time>2022-08-07T09:27:43.000Z</time>
      </trkpt>
      <trkpt lat="48.54464" lon="-4.36607">
        <ele>38.200000762939</ele>
        <time>2022-08-07T09:27:44.000Z</time>
      </trkpt>
      <trkpt lat="48.54458" lon="-4.36612">
        <ele>38.400001525879</ele>
        <time>2022-08-07T09:27:45.000Z</time>
      </trkpt>
      <trkpt lat="48.54452" lon="-4.36618">
        <ele>38.599998474121</ele>
        <time>2022-08-07T09:27:46.000Z</time>
      </trkpt>
      <trkpt lat="48.54447" lon="-4.36624">
        <ele>38.599998474121</ele>
        <time>2022-08-07T09:27:47.000Z</time>
      </trkpt>
      <trkpt lat="48.54443" lon="-4.36631">
        <ele>38.799999237061</ele>
        <time>2022-08-07T09:27:48.000Z</time>
      </trkpt>
      <trkpt lat="48.54439" lon="-4.36636">
        <ele>39</ele>
        <time>2022-08-07T09:27:49.000Z</time>
      </trkpt>
      <trkpt lat="48.54435" lon="-4.3664">
        <ele>39.200000762939</ele>
        <time>2022-08-07T09:27:50.000Z</time>
      </trkpt>
      <trkpt lat="48.54429" lon="-4.36644">
        <ele>39.400001525879</ele>
        <time>2022-08-07T09:27:51.000Z</time>
      </trkpt>
      <trkpt lat="48.54424" lon="-4.36648">
        <ele>39.400001525879</ele>
        <time>2022-08-07T09:27:52.000Z</time>
      </trkpt>
      <trkpt lat="48.54421" lon="-4.36653">
        <ele>39.599998474121</ele>
        <time>2022-08-07T09:27:53.000Z</time>
      </trkpt>
      <trkpt lat="48.54418" lon="-4.36659">
        <ele>39.599998474121</ele>
        <time>2022-08-07T09:27:54.000Z</time>
      </trkpt>
      <trkpt lat="48.54413" lon="-4.36665">
        <ele>39.799999237061</ele>
        <time>2022-08-07T09:27:55.000Z</time>
      </trkpt>
      <trkpt lat="48.54409" lon="-4.3667">
        <ele>39.799999237061</ele>
        <time>2022-08-07T09:27:56.000Z</time>
      </trkpt>
      <trkpt lat="48.54404" lon="-4.36675">
        <ele>39.799999237061</ele>
        <time>2022-08-07T09:27:57.000Z</time>
      </trkpt>
      <trkpt lat="48.54399" lon="-4.36681">
        <ele>39.799999237061</ele>
        <time>2022-08-07T09:27:58.000Z</time>
      </trkpt>
      <trkpt lat="48.54394" lon="-4.36687">
        <ele>40</ele>
        <time>2022-08-07T09:27:59.000Z</time>
      </trkpt>
      <trkpt lat="48.54389" lon="-4.36692">
        <ele>40.200000762939</ele>
        <time>2022-08-07T09:28:00.000Z</time>
      </trkpt>
      <trkpt lat="48.54384" lon="-4.36697">
        <ele>40.200000762939</ele>
        <time>2022-08-07T09:28:01.000Z</time>
      </trkpt>
      <trkpt lat="48.54379" lon="-4.36702">
        <ele>40.200000762939</ele>
        <time>2022-08-07T09:28:02.000Z</time>
      </trkpt>
      <trkpt lat="48.54375" lon="-4.36707">
        <ele>40.400001525879</ele>
        <time>2022-08-07T09:28:03.000Z</time>
      </trkpt>
      <trkpt lat="48.54371" lon="-4.36711">
        <ele>40.599998474121</ele>
        <time>2022-08-07T09:28:04.000Z</time>
      </trkpt>
      <trkpt lat="48.54367" lon="-4.36716">
        <ele>40.799999237061</ele>
        <time>2022-08-07T09:28:05.000Z</time>
      </trkpt>
      <trkpt lat="48.54362" lon="-4.36723">
        <ele>41</ele>
        <time>2022-08-07T09:28:06.000Z</time>
      </trkpt>
      <trkpt lat="48.54357" lon="-4.36727">
        <ele>41.200000762939</ele>
        <time>2022-08-07T09:28:07.000Z</time>
      </trkpt>
      <trkpt lat="48.54353" lon="-4.36733">
        <ele>41.400001525879</ele>
        <time>2022-08-07T09:28:08.000Z</time>
      </trkpt>
      <trkpt lat="48.54348" lon="-4.36739">
        <ele>41.599998474121</ele>
        <time>2022-08-07T09:28:09.000Z</time>
      </trkpt>
      <trkpt lat="48.54344" lon="-4.36745">
        <ele>41.599998474121</ele>
        <time>2022-08-07T09:28:10.000Z</time>
      </trkpt>
      <trkpt lat="48.54341" lon="-4.3675">
        <ele>41.799999237061</ele>
        <time>2022-08-07T09:28:11.000Z</time>
      </trkpt>
      <trkpt lat="48.54338" lon="-4.36757">
        <ele>42</ele>
        <time>2022-08-07T09:28:12.000Z</time>
      </trkpt>
      <trkpt lat="48.54334" lon="-4.36764">
        <ele>42</ele>
        <time>2022-08-07T09:28:13.000Z</time>
      </trkpt>
      <trkpt lat="48.54328" lon="-4.36774">
        <ele>42.400001525879</ele>
        <time>2022-08-07T09:28:14.000Z</time>
      </trkpt>
      <trkpt lat="48.54323" lon="-4.3678">
        <ele>42.400001525879</ele>
        <time>2022-08-07T09:28:15.000Z</time>
      </trkpt>
      <trkpt lat="48.5432" lon="-4.36786">
        <ele>42.799999237061</ele>
        <time>2022-08-07T09:28:16.000Z</time>
      </trkpt>
      <trkpt lat="48.54316" lon="-4.36795">
        <ele>43</ele>
        <time>2022-08-07T09:28:17.000Z</time>
      </trkpt>
      <trkpt lat="48.54313" lon="-4.36803">
        <ele>43.200000762939</ele>
        <time>2022-08-07T09:28:18.000Z</time>
      </trkpt>
      <trkpt lat="48.54309" lon="-4.36811">
        <ele>43.400001525879</ele>
        <time>2022-08-07T09:28:19.000Z</time>
      </trkpt>
      <trkpt lat="48.54307" lon="-4.36819">
        <ele>43.599998474121</ele>
        <time>2022-08-07T09:28:20.000Z</time>
      </trkpt>
      <trkpt lat="48.54307" lon="-4.36826">
        <ele>43.799999237061</ele>
        <time>2022-08-07T09:28:21.000Z</time>
      </trkpt>
      <trkpt lat="48.54307" lon="-4.36833">
        <ele>44</ele>
        <time>2022-08-07T09:28:22.000Z</time>
      </trkpt>
      <trkpt lat="48.54307" lon="-4.36841">
        <ele>44.200000762939</ele>
        <time>2022-08-07T09:28:23.000Z</time>
      </trkpt>
      <trkpt lat="48.54305" lon="-4.36848">
        <ele>44.200000762939</ele>
        <time>2022-08-07T09:28:24.000Z</time>
      </trkpt>
      <trkpt lat="48.54303" lon="-4.36855">
        <ele>44.400001525879</ele>
        <time>2022-08-07T09:28:25.000Z</time>
      </trkpt>
      <trkpt lat="48.54297" lon="-4.36862">
        <ele>44.400001525879</ele>
        <time>2022-08-07T09:28:26.000Z</time>
      </trkpt>
      <trkpt lat="48.54295" lon="-4.36867">
        <ele>44.400001525879</ele>
        <time>2022-08-07T09:28:27.000Z</time>
      </trkpt>
      <trkpt lat="48.54295" lon="-4.36871">
        <ele>44.599998474121</ele>
        <time>2022-08-07T09:28:28.000Z</time>
      </trkpt>
      <trkpt lat="48.54294" lon="-4.36875">
        <ele>44.599998474121</ele>
        <time>2022-08-07T09:28:29.000Z</time>
      </trkpt>
      <trkpt lat="48.54293" lon="-4.36879">
        <ele>44.799999237061</ele>
        <time>2022-08-07T09:28:30.000Z</time>
      </trkpt>
      <trkpt lat="48.54292" lon="-4.36883">
        <ele>44.799999237061</ele>
        <time>2022-08-07T09:28:31.000Z</time>
      </trkpt>
      <trkpt lat="48.54291" lon="-4.36887">
        <ele>44.799999237061</ele>
        <time>2022-08-07T09:28:32.000Z</time>
      </trkpt>
      <trkpt lat="48.54289" lon="-4.36889">
        <ele>44.799999237061</ele>
        <time>2022-08-07T09:28:33.000Z</time>
      </trkpt>
      <trkpt lat="48.54286" lon="-4.3689">
        <ele>44.799999237061</ele>
        <time>2022-08-07T09:28:34.000Z</time>
      </trkpt>
      <trkpt lat="48.54284" lon="-4.36888">
        <ele>45</ele>
        <time>2022-08-07T09:28:35.000Z</time>
      </trkpt>
      <trkpt lat="48.54282" lon="-4.36885">
        <ele>45.200000762939</ele>
        <time>2022-08-07T09:28:36.000Z</time>
      </trkpt>
      <trkpt lat="48.5428" lon="-4.36882">
        <ele>45.200000762939</ele>
        <time>2022-08-07T09:28:37.000Z</time>
      </trkpt>
      <trkpt lat="48.54278" lon="-4.36878">
        <ele>45.200000762939</ele>
        <time>2022-08-07T09:28:38.000Z</time>
      </trkpt>
      <trkpt lat="48.54276" lon="-4.36875">
        <ele>45.400001525879</ele>
        <time>2022-08-07T09:28:39.000Z</time>
      </trkpt>
      <trkpt lat="48.54273" lon="-4.36871">
        <ele>45.599998474121</ele>
        <time>2022-08-07T09:28:40.000Z</time>
      </trkpt>
      <trkpt lat="48.54271" lon="-4.36869">
        <ele>46</ele>
        <time>2022-08-07T09:28:41.000Z</time>
      </trkpt>
      <trkpt lat="48.54269" lon="-4.36865">
        <ele>46</ele>
        <time>2022-08-07T09:28:42.000Z</time>
      </trkpt>
      <trkpt lat="48.54268" lon="-4.36862">
        <ele>46.200000762939</ele>
        <time>2022-08-07T09:28:43.000Z</time>
      </trkpt>
      <trkpt lat="48.54265" lon="-4.36859">
        <ele>46.200000762939</ele>
        <time>2022-08-07T09:28:44.000Z</time>
      </trkpt>
      <trkpt lat="48.54263" lon="-4.36856">
        <ele>46.400001525879</ele>
        <time>2022-08-07T09:28:45.000Z</time>
      </trkpt>
      <trkpt lat="48.54262" lon="-4.36853">
        <ele>46.400001525879</ele>
        <time>2022-08-07T09:28:46.000Z</time>
      </trkpt>
      <trkpt lat="48.5426" lon="-4.3685">
        <ele>46.400001525879</ele>
        <time>2022-08-07T09:28:47.000Z</time>
      </trkpt>
      <trkpt lat="48.54258" lon="-4.36847">
        <ele>46.599998474121</ele>
        <time>2022-08-07T09:28:48.000Z</time>
      </trkpt>
      <trkpt lat="48.54256" lon="-4.36844">
        <ele>46.599998474121</ele>
        <time>2022-08-07T09:28:49.000Z</time>
      </trkpt>
      <trkpt lat="48.54254" lon="-4.3684">
        <ele>46.599998474121</ele>
        <time>2022-08-07T09:28:50.000Z</time>
      </trkpt>
      <trkpt lat="48.54252" lon="-4.36836">
        <ele>46.799999237061</ele>
        <time>2022-08-07T09:28:51.000Z</time>
      </trkpt>
      <trkpt lat="48.5425" lon="-4.36832">
        <ele>46.799999237061</ele>
        <time>2022-08-07T09:28:52.000Z</time>
      </trkpt>
      <trkpt lat="48.54248" lon="-4.36829">
        <ele>46.799999237061</ele>
        <time>2022-08-07T09:28:53.000Z</time>
      </trkpt>
      <trkpt lat="48.54246" lon="-4.36825">
        <ele>47</ele>
        <time>2022-08-07T09:28:54.000Z</time>
      </trkpt>
      <trkpt lat="48.54244" lon="-4.36822">
        <ele>47</ele>
        <time>2022-08-07T09:28:55.000Z</time>
      </trkpt>
      <trkpt lat="48.54242" lon="-4.36819">
        <ele>47</ele>
        <time>2022-08-07T09:28:56.000Z</time>
      </trkpt>
      <trkpt lat="48.54241" lon="-4.36815">
        <ele>47.200000762939</ele>
        <time>2022-08-07T09:28:57.000Z</time>
      </trkpt>
      <trkpt lat="48.54239" lon="-4.36813">
        <ele>47.200000762939</ele>
        <time>2022-08-07T09:28:58.000Z</time>
      </trkpt>
      <trkpt lat="48.54237" lon="-4.36809">
        <ele>47.400001525879</ele>
        <time>2022-08-07T09:28:59.000Z</time>
      </trkpt>
      <trkpt lat="48.54235" lon="-4.36805">
        <ele>47.400001525879</ele>
        <time>2022-08-07T09:29:00.000Z</time>
      </trkpt>
      <trkpt lat="48.54233" lon="-4.36802">
        <ele>47.400001525879</ele>
        <time>2022-08-07T09:29:01.000Z</time>
      </trkpt>
      <trkpt lat="48.54232" lon="-4.36797">
        <ele>47.599998474121</ele>
        <time>2022-08-07T09:29:02.000Z</time>
      </trkpt>
      <trkpt lat="48.5423" lon="-4.36792">
        <ele>47.799999237061</ele>
        <time>2022-08-07T09:29:03.000Z</time>
      </trkpt>
      <trkpt lat="48.54228" lon="-4.36786">
        <ele>48</ele>
        <time>2022-08-07T09:29:04.000Z</time>
      </trkpt>
      <trkpt lat="48.54225" lon="-4.3678">
        <ele>48</ele>
        <time>2022-08-07T09:29:05.000Z</time>
      </trkpt>
      <trkpt lat="48.54223" lon="-4.36774">
        <ele>48.400001525879</ele>
        <time>2022-08-07T09:29:06.000Z</time>
      </trkpt>
      <trkpt lat="48.54221" lon="-4.36768">
        <ele>48.400001525879</ele>
        <time>2022-08-07T09:29:07.000Z</time>
      </trkpt>
      <trkpt lat="48.54219" lon="-4.36762">
        <ele>48.599998474121</ele>
        <time>2022-08-07T09:29:08.000Z</time>
      </trkpt>
      <trkpt lat="48.54218" lon="-4.36755">
        <ele>48.799999237061</ele>
        <time>2022-08-07T09:29:09.000Z</time>
      </trkpt>
      <trkpt lat="48.54216" lon="-4.36749">
        <ele>49</ele>
        <time>2022-08-07T09:29:10.000Z</time>
      </trkpt>
      <trkpt lat="48.54215" lon="-4.36742">
        <ele>49</ele>
        <time>2022-08-07T09:29:11.000Z</time>
      </trkpt>
      <trkpt lat="48.54214" lon="-4.36735">
        <ele>49</ele>
        <time>2022-08-07T09:29:12.000Z</time>
      </trkpt>
      <trkpt lat="48.54213" lon="-4.36728">
        <ele>49.200000762939</ele>
        <time>2022-08-07T09:29:13.000Z</time>
      </trkpt>
      <trkpt lat="48.54211" lon="-4.36721">
        <ele>49.200000762939</ele>
        <time>2022-08-07T09:29:14.000Z</time>
      </trkpt>
      <trkpt lat="48.5421" lon="-4.36715">
        <ele>49.400001525879</ele>
        <time>2022-08-07T09:29:15.000Z</time>
      </trkpt>
      <trkpt lat="48.54208" lon="-4.36708">
        <ele>49.400001525879</ele>
        <time>2022-08-07T09:29:16.000Z</time>
      </trkpt>
      <trkpt lat="48.54206" lon="-4.36701">
        <ele>49.400001525879</ele>
        <time>2022-08-07T09:29:17.000Z</time>
      </trkpt>
      <trkpt lat="48.54203" lon="-4.36696">
        <ele>49.400001525879</ele>
        <time>2022-08-07T09:29:18.000Z</time>
      </trkpt>
      <trkpt lat="48.54199" lon="-4.36694">
        <ele>49.400001525879</ele>
        <time>2022-08-07T09:29:19.000Z</time>
      </trkpt>
      <trkpt lat="48.54195" lon="-4.36696">
        <ele>49.400001525879</ele>
        <time>2022-08-07T09:29:20.000Z</time>
      </trkpt>
      <trkpt lat="48.54191" lon="-4.36698">
        <ele>49.400001525879</ele>
        <time>2022-08-07T09:29:21.000Z</time>
      </trkpt>
      <trkpt lat="48.54185" lon="-4.367">
        <ele>49.400001525879</ele>
        <time>2022-08-07T09:29:22.000Z</time>
      </trkpt>
      <trkpt lat="48.5418" lon="-4.36702">
        <ele>49.400001525879</ele>
        <time>2022-08-07T09:29:23.000Z</time>
      </trkpt>
      <trkpt lat="48.54174" lon="-4.36704">
        <ele>49.200000762939</ele>
        <time>2022-08-07T09:29:24.000Z</time>
      </trkpt>
      <trkpt lat="48.54169" lon="-4.36705">
        <ele>49.200000762939</ele>
        <time>2022-08-07T09:29:25.000Z</time>
      </trkpt>
      <trkpt lat="48.54163" lon="-4.36707">
        <ele>49</ele>
        <time>2022-08-07T09:29:26.000Z</time>
      </trkpt>
      <trkpt lat="48.54157" lon="-4.36708">
        <ele>49</ele>
        <time>2022-08-07T09:29:27.000Z</time>
      </trkpt>
      <trkpt lat="48.54151" lon="-4.36708">
        <ele>48.799999237061</ele>
        <time>2022-08-07T09:29:28.000Z</time>
      </trkpt>
      <trkpt lat="48.54145" lon="-4.36709">
        <ele>48.599998474121</ele>
        <time>2022-08-07T09:29:29.000Z</time>
      </trkpt>
      <trkpt lat="48.54138" lon="-4.36709">
        <ele>48.599998474121</ele>
        <time>2022-08-07T09:29:30.000Z</time>
      </trkpt>
      <trkpt lat="48.54132" lon="-4.36709">
        <ele>48.599998474121</ele>
        <time>2022-08-07T09:29:31.000Z</time>
      </trkpt>
      <trkpt lat="48.54125" lon="-4.36708">
        <ele>48.599998474121</ele>
        <time>2022-08-07T09:29:32.000Z</time>
      </trkpt>
      <trkpt lat="48.54119" lon="-4.36709">
        <ele>48.400001525879</ele>
        <time>2022-08-07T09:29:33.000Z</time>
      </trkpt>
      <trkpt lat="48.54112" lon="-4.36709">
        <ele>48.400001525879</ele>
        <time>2022-08-07T09:29:34.000Z</time>
      </trkpt>
      <trkpt lat="48.54106" lon="-4.36708">
        <ele>48.200000762939</ele>
        <time>2022-08-07T09:29:35.000Z</time>
      </trkpt>
      <trkpt lat="48.54099" lon="-4.36706">
        <ele>48.200000762939</ele>
        <time>2022-08-07T09:29:36.000Z</time>
      </trkpt>
      <trkpt lat="48.54087" lon="-4.36704">
        <ele>48</ele>
        <time>2022-08-07T09:29:37.000Z</time>
      </trkpt>
      <trkpt lat="48.54081" lon="-4.36702">
        <ele>47.799999237061</ele>
        <time>2022-08-07T09:29:39.000Z</time>
      </trkpt>
      <trkpt lat="48.54075" lon="-4.367">
        <ele>47.799999237061</ele>
        <time>2022-08-07T09:29:40.000Z</time>
      </trkpt>
      <trkpt lat="48.54069" lon="-4.36697">
        <ele>47.599998474121</ele>
        <time>2022-08-07T09:29:41.000Z</time>
      </trkpt>
      <trkpt lat="48.54057" lon="-4.36693">
        <ele>47.599998474121</ele>
        <time>2022-08-07T09:29:42.000Z</time>
      </trkpt>
      <trkpt lat="48.54051" lon="-4.36691">
        <ele>47.200000762939</ele>
        <time>2022-08-07T09:29:44.000Z</time>
      </trkpt>
      <trkpt lat="48.54045" lon="-4.36688">
        <ele>47.200000762939</ele>
        <time>2022-08-07T09:29:45.000Z</time>
      </trkpt>
      <trkpt lat="48.5404" lon="-4.36686">
        <ele>47</ele>
        <time>2022-08-07T09:29:46.000Z</time>
      </trkpt>
      <trkpt lat="48.54034" lon="-4.36682">
        <ele>47</ele>
        <time>2022-08-07T09:29:47.000Z</time>
      </trkpt>
      <trkpt lat="48.54028" lon="-4.36678">
        <ele>47</ele>
        <time>2022-08-07T09:29:48.000Z</time>
      </trkpt>
      <trkpt lat="48.54018" lon="-4.36669">
        <ele>46.799999237061</ele>
        <time>2022-08-07T09:29:49.000Z</time>
      </trkpt>
      <trkpt lat="48.54013" lon="-4.36663">
        <ele>46.799999237061</ele>
        <time>2022-08-07T09:29:50.000Z</time>
      </trkpt>
      <trkpt lat="48.54009" lon="-4.36657">
        <ele>46.599998474121</ele>
        <time>2022-08-07T09:29:51.000Z</time>
      </trkpt>
      <trkpt lat="48.54003" lon="-4.3665">
        <ele>46.400001525879</ele>
        <time>2022-08-07T09:29:52.000Z</time>
      </trkpt>
      <trkpt lat="48.53991" lon="-4.36636">
        <ele>46</ele>
        <time>2022-08-07T09:29:54.000Z</time>
      </trkpt>
      <trkpt lat="48.53985" lon="-4.36628">
        <ele>45.400001525879</ele>
        <time>2022-08-07T09:29:55.000Z</time>
      </trkpt>
      <trkpt lat="48.53979" lon="-4.36623">
        <ele>45.200000762939</ele>
        <time>2022-08-07T09:29:56.000Z</time>
      </trkpt>
      <trkpt lat="48.53968" lon="-4.3662">
        <ele>44.400001525879</ele>
        <time>2022-08-07T09:29:58.000Z</time>
      </trkpt>
      <trkpt lat="48.53963" lon="-4.36624">
        <ele>44</ele>
        <time>2022-08-07T09:29:59.000Z</time>
      </trkpt>
      <trkpt lat="48.53959" lon="-4.36631">
        <ele>43.799999237061</ele>
        <time>2022-08-07T09:30:00.000Z</time>
      </trkpt>
      <trkpt lat="48.53955" lon="-4.36639">
        <ele>43.599998474121</ele>
        <time>2022-08-07T09:30:01.000Z</time>
      </trkpt>
      <trkpt lat="48.53951" lon="-4.36647">
        <ele>42.799999237061</ele>
        <time>2022-08-07T09:30:02.000Z</time>
      </trkpt>
      <trkpt lat="48.53946" lon="-4.36655">
        <ele>42.599998474121</ele>
        <time>2022-08-07T09:30:03.000Z</time>
      </trkpt>
      <trkpt lat="48.53941" lon="-4.36663">
        <ele>42</ele>
        <time>2022-08-07T09:30:05.000Z</time>
      </trkpt>
      <trkpt lat="48.53933" lon="-4.3668">
        <ele>41.799999237061</ele>
        <time>2022-08-07T09:30:06.000Z</time>
      </trkpt>
      <trkpt lat="48.53929" lon="-4.36688">
        <ele>41.799999237061</ele>
        <time>2022-08-07T09:30:07.000Z</time>
      </trkpt>
      <trkpt lat="48.53926" lon="-4.36697">
        <ele>41.599998474121</ele>
        <time>2022-08-07T09:30:08.000Z</time>
      </trkpt>
      <trkpt lat="48.53922" lon="-4.36706">
        <ele>41</ele>
        <time>2022-08-07T09:30:09.000Z</time>
      </trkpt>
      <trkpt lat="48.53915" lon="-4.3672">
        <ele>40.799999237061</ele>
        <time>2022-08-07T09:30:11.000Z</time>
      </trkpt>
      <trkpt lat="48.5391" lon="-4.36723">
        <ele>40.599998474121</ele>
        <time>2022-08-07T09:30:12.000Z</time>
      </trkpt>
      <trkpt lat="48.53905" lon="-4.36725">
        <ele>40.400001525879</ele>
        <time>2022-08-07T09:30:13.000Z</time>
      </trkpt>
      <trkpt lat="48.53898" lon="-4.36727">
        <ele>40.400001525879</ele>
        <time>2022-08-07T09:30:14.000Z</time>
      </trkpt>
      <trkpt lat="48.53885" lon="-4.36733">
        <ele>40</ele>
        <time>2022-08-07T09:30:16.000Z</time>
      </trkpt>
      <trkpt lat="48.53872" lon="-4.36745">
        <ele>39.400001525879</ele>
        <time>2022-08-07T09:30:18.000Z</time>
      </trkpt>
      <trkpt lat="48.53865" lon="-4.36752">
        <ele>39</ele>
        <time>2022-08-07T09:30:20.000Z</time>
      </trkpt>
      <trkpt lat="48.53858" lon="-4.36759">
        <ele>38.799999237061</ele>
        <time>2022-08-07T09:30:21.000Z</time>
      </trkpt>
      <trkpt lat="48.53844" lon="-4.36773">
        <ele>38.400001525879</ele>
        <time>2022-08-07T09:30:22.000Z</time>
      </trkpt>
      <trkpt lat="48.53836" lon="-4.3678">
        <ele>38.200000762939</ele>
        <time>2022-08-07T09:30:23.000Z</time>
      </trkpt>
      <trkpt lat="48.53829" lon="-4.36787">
        <ele>37.799999237061</ele>
        <time>2022-08-07T09:30:24.000Z</time>
      </trkpt>
      <trkpt lat="48.53823" lon="-4.36793">
        <ele>37</ele>
        <time>2022-08-07T09:30:25.000Z</time>
      </trkpt>
      <trkpt lat="48.53817" lon="-4.36801">
        <ele>36.799999237061</ele>
        <time>2022-08-07T09:30:26.000Z</time>
      </trkpt>
      <trkpt lat="48.53811" lon="-4.36808">
        <ele>36.599998474121</ele>
        <time>2022-08-07T09:30:27.000Z</time>
      </trkpt>
      <trkpt lat="48.53806" lon="-4.36815">
        <ele>36.400001525879</ele>
        <time>2022-08-07T09:30:28.000Z</time>
      </trkpt>
      <trkpt lat="48.53802" lon="-4.36822">
        <ele>36.400001525879</ele>
        <time>2022-08-07T09:30:29.000Z</time>
      </trkpt>
      <trkpt lat="48.53798" lon="-4.36828">
        <ele>36.400001525879</ele>
        <time>2022-08-07T09:30:30.000Z</time>
      </trkpt>
      <trkpt lat="48.53794" lon="-4.36833">
        <ele>36.400001525879</ele>
        <time>2022-08-07T09:30:31.000Z</time>
      </trkpt>
      <trkpt lat="48.53791" lon="-4.36837">
        <ele>36.400001525879</ele>
        <time>2022-08-07T09:30:32.000Z</time>
      </trkpt>
      <trkpt lat="48.53788" lon="-4.3684">
        <ele>36.400001525879</ele>
        <time>2022-08-07T09:30:33.000Z</time>
      </trkpt>
      <trkpt lat="48.53783" lon="-4.3684">
        <ele>36.599998474121</ele>
        <time>2022-08-07T09:30:35.000Z</time>
      </trkpt>
      <trkpt lat="48.53781" lon="-4.36837">
        <ele>36.799999237061</ele>
        <time>2022-08-07T09:30:36.000Z</time>
      </trkpt>
      <trkpt lat="48.53779" lon="-4.36834">
        <ele>37</ele>
        <time>2022-08-07T09:30:37.000Z</time>
      </trkpt>
      <trkpt lat="48.53775" lon="-4.36826">
        <ele>37.200000762939</ele>
        <time>2022-08-07T09:30:39.000Z</time>
      </trkpt>
      <trkpt lat="48.53772" lon="-4.36822">
        <ele>37.200000762939</ele>
        <time>2022-08-07T09:30:40.000Z</time>
      </trkpt>
      <trkpt lat="48.53769" lon="-4.36818">
        <ele>37.200000762939</ele>
        <time>2022-08-07T09:30:41.000Z</time>
      </trkpt>
      <trkpt lat="48.53767" lon="-4.36814">
        <ele>37.400001525879</ele>
        <time>2022-08-07T09:30:42.000Z</time>
      </trkpt>
      <trkpt lat="48.53763" lon="-4.36809">
        <ele>37.400001525879</ele>
        <time>2022-08-07T09:30:43.000Z</time>
      </trkpt>
      <trkpt lat="48.53759" lon="-4.36804">
        <ele>37.400001525879</ele>
        <time>2022-08-07T09:30:44.000Z</time>
      </trkpt>
      <trkpt lat="48.53754" lon="-4.36797">
        <ele>37.400001525879</ele>
        <time>2022-08-07T09:30:45.000Z</time>
      </trkpt>
      <trkpt lat="48.5375" lon="-4.36792">
        <ele>37.400001525879</ele>
        <time>2022-08-07T09:30:46.000Z</time>
      </trkpt>
      <trkpt lat="48.53741" lon="-4.3678">
        <ele>37.200000762939</ele>
        <time>2022-08-07T09:30:48.000Z</time>
      </trkpt>
      <trkpt lat="48.53735" lon="-4.36774">
        <ele>37.200000762939</ele>
        <time>2022-08-07T09:30:49.000Z</time>
      </trkpt>
      <trkpt lat="48.5373" lon="-4.36771">
        <ele>37.200000762939</ele>
        <time>2022-08-07T09:30:50.000Z</time>
      </trkpt>
      <trkpt lat="48.53724" lon="-4.36769">
        <ele>37.200000762939</ele>
        <time>2022-08-07T09:30:51.000Z</time>
      </trkpt>
      <trkpt lat="48.53718" lon="-4.36765">
        <ele>37</ele>
        <time>2022-08-07T09:30:52.000Z</time>
      </trkpt>
      <trkpt lat="48.53713" lon="-4.36762">
        <ele>36.799999237061</ele>
        <time>2022-08-07T09:30:53.000Z</time>
      </trkpt>
      <trkpt lat="48.53708" lon="-4.36759">
        <ele>36.599998474121</ele>
        <time>2022-08-07T09:30:54.000Z</time>
      </trkpt>
      <trkpt lat="48.53702" lon="-4.36756">
        <ele>36.599998474121</ele>
        <time>2022-08-07T09:30:55.000Z</time>
      </trkpt>
      <trkpt lat="48.53697" lon="-4.36754">
        <ele>36.599998474121</ele>
        <time>2022-08-07T09:30:56.000Z</time>
      </trkpt>
      <trkpt lat="48.53691" lon="-4.36753">
        <ele>36.599998474121</ele>
        <time>2022-08-07T09:30:57.000Z</time>
      </trkpt>
      <trkpt lat="48.53686" lon="-4.36751">
        <ele>36.599998474121</ele>
        <time>2022-08-07T09:30:58.000Z</time>
      </trkpt>
      <trkpt lat="48.53681" lon="-4.36749">
        <ele>36.599998474121</ele>
        <time>2022-08-07T09:30:59.000Z</time>
      </trkpt>
      <trkpt lat="48.53676" lon="-4.36746">
        <ele>36.599998474121</ele>
        <time>2022-08-07T09:31:00.000Z</time>
      </trkpt>
      <trkpt lat="48.5367" lon="-4.36742">
        <ele>36.799999237061</ele>
        <time>2022-08-07T09:31:01.000Z</time>
      </trkpt>
      <trkpt lat="48.53665" lon="-4.36739">
        <ele>36.799999237061</ele>
        <time>2022-08-07T09:31:02.000Z</time>
      </trkpt>
      <trkpt lat="48.5366" lon="-4.36735">
        <ele>37</ele>
        <time>2022-08-07T09:31:03.000Z</time>
      </trkpt>
      <trkpt lat="48.53655" lon="-4.36729">
        <ele>37.200000762939</ele>
        <time>2022-08-07T09:31:04.000Z</time>
      </trkpt>
      <trkpt lat="48.53651" lon="-4.36724">
        <ele>37.200000762939</ele>
        <time>2022-08-07T09:31:05.000Z</time>
      </trkpt>
      <trkpt lat="48.53645" lon="-4.36717">
        <ele>37.400001525879</ele>
        <time>2022-08-07T09:31:06.000Z</time>
      </trkpt>
      <trkpt lat="48.5364" lon="-4.36711">
        <ele>37.400001525879</ele>
        <time>2022-08-07T09:31:07.000Z</time>
      </trkpt>
      <trkpt lat="48.53633" lon="-4.36703">
        <ele>37.400001525879</ele>
        <time>2022-08-07T09:31:08.000Z</time>
      </trkpt>
      <trkpt lat="48.53629" lon="-4.36694">
        <ele>37.400001525879</ele>
        <time>2022-08-07T09:31:09.000Z</time>
      </trkpt>
      <trkpt lat="48.53623" lon="-4.36687">
        <ele>37</ele>
        <time>2022-08-07T09:31:10.000Z</time>
      </trkpt>
      <trkpt lat="48.53619" lon="-4.3668">
        <ele>37</ele>
        <time>2022-08-07T09:31:11.000Z</time>
      </trkpt>
      <trkpt lat="48.53615" lon="-4.36674">
        <ele>36.599998474121</ele>
        <time>2022-08-07T09:31:12.000Z</time>
      </trkpt>
      <trkpt lat="48.5361" lon="-4.36668">
        <ele>36.599998474121</ele>
        <time>2022-08-07T09:31:13.000Z</time>
      </trkpt>
      <trkpt lat="48.53605" lon="-4.36664">
        <ele>36.400001525879</ele>
        <time>2022-08-07T09:31:14.000Z</time>
      </trkpt>
      <trkpt lat="48.536" lon="-4.36658">
        <ele>36.400001525879</ele>
        <time>2022-08-07T09:31:15.000Z</time>
      </trkpt>
      <trkpt lat="48.53593" lon="-4.36648">
        <ele>36.400001525879</ele>
        <time>2022-08-07T09:31:17.000Z</time>
      </trkpt>
      <trkpt lat="48.53587" lon="-4.36642">
        <ele>36.200000762939</ele>
        <time>2022-08-07T09:31:18.000Z</time>
      </trkpt>
      <trkpt lat="48.53582" lon="-4.36636">
        <ele>36.200000762939</ele>
        <time>2022-08-07T09:31:19.000Z</time>
      </trkpt>
      <trkpt lat="48.53578" lon="-4.36631">
        <ele>36.200000762939</ele>
        <time>2022-08-07T09:31:20.000Z</time>
      </trkpt>
      <trkpt lat="48.53572" lon="-4.36625">
        <ele>36.200000762939</ele>
        <time>2022-08-07T09:31:22.000Z</time>
      </trkpt>
      <trkpt lat="48.53569" lon="-4.36623">
        <ele>36.400001525879</ele>
        <time>2022-08-07T09:31:23.000Z</time>
      </trkpt>
      <trkpt lat="48.53567" lon="-4.36621">
        <ele>36.599998474121</ele>
        <time>2022-08-07T09:31:24.000Z</time>
      </trkpt>
      <trkpt lat="48.53562" lon="-4.36619">
        <ele>36.400001525879</ele>
        <time>2022-08-07T09:31:25.000Z</time>
      </trkpt>
      <trkpt lat="48.53555" lon="-4.36616">
        <ele>37.599998474121</ele>
        <time>2022-08-07T09:31:27.000Z</time>
      </trkpt>
      <trkpt lat="48.53551" lon="-4.36616">
        <ele>38</ele>
        <time>2022-08-07T09:31:28.000Z</time>
      </trkpt>
      <trkpt lat="48.53549" lon="-4.36616">
        <ele>38</ele>
        <time>2022-08-07T09:31:29.000Z</time>
      </trkpt>
      <trkpt lat="48.53547" lon="-4.36617">
        <ele>38.599998474121</ele>
        <time>2022-08-07T09:31:30.000Z</time>
      </trkpt>
      <trkpt lat="48.53545" lon="-4.36619">
        <ele>39</ele>
        <time>2022-08-07T09:31:31.000Z</time>
      </trkpt>
      <trkpt lat="48.53542" lon="-4.36621">
        <ele>39.400001525879</ele>
        <time>2022-08-07T09:31:32.000Z</time>
      </trkpt>
      <trkpt lat="48.5354" lon="-4.36622">
        <ele>39.599998474121</ele>
        <time>2022-08-07T09:31:33.000Z</time>
      </trkpt>
      <trkpt lat="48.53539" lon="-4.36624">
        <ele>40</ele>
        <time>2022-08-07T09:31:34.000Z</time>
      </trkpt>
      <trkpt lat="48.53536" lon="-4.36626">
        <ele>40.799999237061</ele>
        <time>2022-08-07T09:31:36.000Z</time>
      </trkpt>
      <trkpt lat="48.53535" lon="-4.36628">
        <ele>41.200000762939</ele>
        <time>2022-08-07T09:31:37.000Z</time>
      </trkpt>
      <trkpt lat="48.53534" lon="-4.3663">
        <ele>41.599998474121</ele>
        <time>2022-08-07T09:31:38.000Z</time>
      </trkpt>
      <trkpt lat="48.53532" lon="-4.36633">
        <ele>42</ele>
        <time>2022-08-07T09:31:39.000Z</time>
      </trkpt>
      <trkpt lat="48.53531" lon="-4.36634">
        <ele>42.200000762939</ele>
        <time>2022-08-07T09:31:40.000Z</time>
      </trkpt>
      <trkpt lat="48.53528" lon="-4.36635">
        <ele>42.599998474121</ele>
        <time>2022-08-07T09:31:41.000Z</time>
      </trkpt>
      <trkpt lat="48.53526" lon="-4.36637">
        <ele>43</ele>
        <time>2022-08-07T09:31:42.000Z</time>
      </trkpt>
      <trkpt lat="48.53524" lon="-4.36639">
        <ele>43.599998474121</ele>
        <time>2022-08-07T09:31:43.000Z</time>
      </trkpt>
      <trkpt lat="48.5352" lon="-4.36643">
        <ele>44</ele>
        <time>2022-08-07T09:31:44.000Z</time>
      </trkpt>
      <trkpt lat="48.53519" lon="-4.36644">
        <ele>44.599998474121</ele>
        <time>2022-08-07T09:31:45.000Z</time>
      </trkpt>
      <trkpt lat="48.53517" lon="-4.36647">
        <ele>45</ele>
        <time>2022-08-07T09:31:46.000Z</time>
      </trkpt>
      <trkpt lat="48.53514" lon="-4.36651">
        <ele>45.200000762939</ele>
        <time>2022-08-07T09:31:47.000Z</time>
      </trkpt>
      <trkpt lat="48.53512" lon="-4.36653">
        <ele>45.799999237061</ele>
        <time>2022-08-07T09:31:48.000Z</time>
      </trkpt>
      <trkpt lat="48.5351" lon="-4.36655">
        <ele>46.200000762939</ele>
        <time>2022-08-07T09:31:49.000Z</time>
      </trkpt>
      <trkpt lat="48.53508" lon="-4.36657">
        <ele>46.599998474121</ele>
        <time>2022-08-07T09:31:50.000Z</time>
      </trkpt>
      <trkpt lat="48.53506" lon="-4.3666">
        <ele>47</ele>
        <time>2022-08-07T09:31:51.000Z</time>
      </trkpt>
      <trkpt lat="48.53501" lon="-4.36666">
        <ele>48</ele>
        <time>2022-08-07T09:31:53.000Z</time>
      </trkpt>
      <trkpt lat="48.53499" lon="-4.3667">
        <ele>48.599998474121</ele>
        <time>2022-08-07T09:31:54.000Z</time>
      </trkpt>
      <trkpt lat="48.53498" lon="-4.36674">
        <ele>49</ele>
        <time>2022-08-07T09:31:55.000Z</time>
      </trkpt>
      <trkpt lat="48.53498" lon="-4.36678">
        <ele>49.200000762939</ele>
        <time>2022-08-07T09:31:56.000Z</time>
      </trkpt>
      <trkpt lat="48.53497" lon="-4.36685">
        <ele>50</ele>
        <time>2022-08-07T09:31:58.000Z</time>
      </trkpt>
      <trkpt lat="48.53495" lon="-4.36687">
        <ele>50.799999237061</ele>
        <time>2022-08-07T09:31:59.000Z</time>
      </trkpt>
      <trkpt lat="48.53491" lon="-4.3669">
        <ele>51</ele>
        <time>2022-08-07T09:32:00.000Z</time>
      </trkpt>
      <trkpt lat="48.5349" lon="-4.36692">
        <ele>51.200000762939</ele>
        <time>2022-08-07T09:32:01.000Z</time>
      </trkpt>
      <trkpt lat="48.53487" lon="-4.36692">
        <ele>51.400001525879</ele>
        <time>2022-08-07T09:32:02.000Z</time>
      </trkpt>
      <trkpt lat="48.53484" lon="-4.3669">
        <ele>51.599998474121</ele>
        <time>2022-08-07T09:32:03.000Z</time>
      </trkpt>
      <trkpt lat="48.53481" lon="-4.36688">
        <ele>52</ele>
        <time>2022-08-07T09:32:04.000Z</time>
      </trkpt>
      <trkpt lat="48.53478" lon="-4.36686">
        <ele>52.200000762939</ele>
        <time>2022-08-07T09:32:05.000Z</time>
      </trkpt>
      <trkpt lat="48.53476" lon="-4.36683">
        <ele>52.599998474121</ele>
        <time>2022-08-07T09:32:06.000Z</time>
      </trkpt>
      <trkpt lat="48.53473" lon="-4.36679">
        <ele>52.799999237061</ele>
        <time>2022-08-07T09:32:07.000Z</time>
      </trkpt>
      <trkpt lat="48.5347" lon="-4.36676">
        <ele>53</ele>
        <time>2022-08-07T09:32:08.000Z</time>
      </trkpt>
      <trkpt lat="48.53468" lon="-4.36673">
        <ele>53</ele>
        <time>2022-08-07T09:32:09.000Z</time>
      </trkpt>
      <trkpt lat="48.53464" lon="-4.36671">
        <ele>53.200000762939</ele>
        <time>2022-08-07T09:32:10.000Z</time>
      </trkpt>
      <trkpt lat="48.53461" lon="-4.36669">
        <ele>53.200000762939</ele>
        <time>2022-08-07T09:32:11.000Z</time>
      </trkpt>
      <trkpt lat="48.53459" lon="-4.36668">
        <ele>53.400001525879</ele>
        <time>2022-08-07T09:32:12.000Z</time>
      </trkpt>
      <trkpt lat="48.53451" lon="-4.36664">
        <ele>53.400001525879</ele>
        <time>2022-08-07T09:32:14.000Z</time>
      </trkpt>
      <trkpt lat="48.53447" lon="-4.36663">
        <ele>53.400001525879</ele>
        <time>2022-08-07T09:32:15.000Z</time>
      </trkpt>
      <trkpt lat="48.53444" lon="-4.36661">
        <ele>53.400001525879</ele>
        <time>2022-08-07T09:32:16.000Z</time>
      </trkpt>
      <trkpt lat="48.53441" lon="-4.3666">
        <ele>53.400001525879</ele>
        <time>2022-08-07T09:32:17.000Z</time>
      </trkpt>
      <trkpt lat="48.53438" lon="-4.36658">
        <ele>53.400001525879</ele>
        <time>2022-08-07T09:32:18.000Z</time>
      </trkpt>
      <trkpt lat="48.53434" lon="-4.36657">
        <ele>53.400001525879</ele>
        <time>2022-08-07T09:32:19.000Z</time>
      </trkpt>
      <trkpt lat="48.5343" lon="-4.36655">
        <ele>53.400001525879</ele>
        <time>2022-08-07T09:32:20.000Z</time>
      </trkpt>
      <trkpt lat="48.53426" lon="-4.36654">
        <ele>53.200000762939</ele>
        <time>2022-08-07T09:32:21.000Z</time>
      </trkpt>
      <trkpt lat="48.53423" lon="-4.36653">
        <ele>53.200000762939</ele>
        <time>2022-08-07T09:32:22.000Z</time>
      </trkpt>
      <trkpt lat="48.53419" lon="-4.36653">
        <ele>53.200000762939</ele>
        <time>2022-08-07T09:32:23.000Z</time>
      </trkpt>
      <trkpt lat="48.53409" lon="-4.36656">
        <ele>53</ele>
        <time>2022-08-07T09:32:25.000Z</time>
      </trkpt>
      <trkpt lat="48.53404" lon="-4.36659">
        <ele>52.799999237061</ele>
        <time>2022-08-07T09:32:26.000Z</time>
      </trkpt>
      <trkpt lat="48.534" lon="-4.36663">
        <ele>52.799999237061</ele>
        <time>2022-08-07T09:32:27.000Z</time>
      </trkpt>
      <trkpt lat="48.53395" lon="-4.36668">
        <ele>52.400001525879</ele>
        <time>2022-08-07T09:32:28.000Z</time>
      </trkpt>
      <trkpt lat="48.5339" lon="-4.36672">
        <ele>52.200000762939</ele>
        <time>2022-08-07T09:32:29.000Z</time>
      </trkpt>
      <trkpt lat="48.53385" lon="-4.36676">
        <ele>52</ele>
        <time>2022-08-07T09:32:30.000Z</time>
      </trkpt>
      <trkpt lat="48.53374" lon="-4.36683">
        <ele>51.599998474121</ele>
        <time>2022-08-07T09:32:32.000Z</time>
      </trkpt>
      <trkpt lat="48.5337" lon="-4.36685">
        <ele>51.200000762939</ele>
        <time>2022-08-07T09:32:34.000Z</time>
      </trkpt>
      <trkpt lat="48.53358" lon="-4.36688">
        <ele>51</ele>
        <time>2022-08-07T09:32:35.000Z</time>
      </trkpt>
      <trkpt lat="48.53353" lon="-4.36687">
        <ele>51</ele>
        <time>2022-08-07T09:32:36.000Z</time>
      </trkpt>
      <trkpt lat="48.53349" lon="-4.36686">
        <ele>51</ele>
        <time>2022-08-07T09:32:37.000Z</time>
      </trkpt>
      <trkpt lat="48.53344" lon="-4.36685">
        <ele>51</ele>
        <time>2022-08-07T09:32:38.000Z</time>
      </trkpt>
      <trkpt lat="48.53339" lon="-4.36684">
        <ele>51</ele>
        <time>2022-08-07T09:32:39.000Z</time>
      </trkpt>
      <trkpt lat="48.53333" lon="-4.36683">
        <ele>51</ele>
        <time>2022-08-07T09:32:40.000Z</time>
      </trkpt>
      <trkpt lat="48.53329" lon="-4.36682">
        <ele>51.200000762939</ele>
        <time>2022-08-07T09:32:41.000Z</time>
      </trkpt>
      <trkpt lat="48.53324" lon="-4.36679">
        <ele>51.200000762939</ele>
        <time>2022-08-07T09:32:42.000Z</time>
      </trkpt>
      <trkpt lat="48.53321" lon="-4.36677">
        <ele>51.400001525879</ele>
        <time>2022-08-07T09:32:43.000Z</time>
      </trkpt>
      <trkpt lat="48.53316" lon="-4.36673">
        <ele>51.599998474121</ele>
        <time>2022-08-07T09:32:44.000Z</time>
      </trkpt>
      <trkpt lat="48.53312" lon="-4.3667">
        <ele>51.799999237061</ele>
        <time>2022-08-07T09:32:45.000Z</time>
      </trkpt>
      <trkpt lat="48.53304" lon="-4.36664">
        <ele>52.200000762939</ele>
        <time>2022-08-07T09:32:47.000Z</time>
      </trkpt>
      <trkpt lat="48.533" lon="-4.36661">
        <ele>52.400001525879</ele>
        <time>2022-08-07T09:32:48.000Z</time>
      </trkpt>
      <trkpt lat="48.53297" lon="-4.36658">
        <ele>52.599998474121</ele>
        <time>2022-08-07T09:32:49.000Z</time>
      </trkpt>
      <trkpt lat="48.53292" lon="-4.36656">
        <ele>52.599998474121</ele>
        <time>2022-08-07T09:32:50.000Z</time>
      </trkpt>
      <trkpt lat="48.53288" lon="-4.36655">
        <ele>52.799999237061</ele>
        <time>2022-08-07T09:32:51.000Z</time>
      </trkpt>
      <trkpt lat="48.53284" lon="-4.36654">
        <ele>53</ele>
        <time>2022-08-07T09:32:52.000Z</time>
      </trkpt>
      <trkpt lat="48.53281" lon="-4.36652">
        <ele>53.200000762939</ele>
        <time>2022-08-07T09:32:53.000Z</time>
      </trkpt>
      <trkpt lat="48.53277" lon="-4.3665">
        <ele>53.200000762939</ele>
        <time>2022-08-07T09:32:54.000Z</time>
      </trkpt>
      <trkpt lat="48.53273" lon="-4.36648">
        <ele>53.200000762939</ele>
        <time>2022-08-07T09:32:55.000Z</time>
      </trkpt>
      <trkpt lat="48.53269" lon="-4.36647">
        <ele>53.200000762939</ele>
        <time>2022-08-07T09:32:56.000Z</time>
      </trkpt>
      <trkpt lat="48.53266" lon="-4.36644">
        <ele>53.200000762939</ele>
        <time>2022-08-07T09:32:57.000Z</time>
      </trkpt>
      <trkpt lat="48.53265" lon="-4.3664">
        <ele>53.200000762939</ele>
        <time>2022-08-07T09:32:58.000Z</time>
      </trkpt>
      <trkpt lat="48.53266" lon="-4.36636">
        <ele>53.200000762939</ele>
        <time>2022-08-07T09:32:59.000Z</time>
      </trkpt>
      <trkpt lat="48.53268" lon="-4.36626">
        <ele>53.200000762939</ele>
        <time>2022-08-07T09:33:01.000Z</time>
      </trkpt>
      <trkpt lat="48.53269" lon="-4.36621">
        <ele>53</ele>
        <time>2022-08-07T09:33:02.000Z</time>
      </trkpt>
      <trkpt lat="48.5327" lon="-4.36617">
        <ele>53</ele>
        <time>2022-08-07T09:33:03.000Z</time>
      </trkpt>
      <trkpt lat="48.5327" lon="-4.36611">
        <ele>52.799999237061</ele>
        <time>2022-08-07T09:33:04.000Z</time>
      </trkpt>
      <trkpt lat="48.5327" lon="-4.36608">
        <ele>52.599998474121</ele>
        <time>2022-08-07T09:33:05.000Z</time>
      </trkpt>
      <trkpt lat="48.5327" lon="-4.36605">
        <ele>52.400001525879</ele>
        <time>2022-08-07T09:33:06.000Z</time>
      </trkpt>
      <trkpt lat="48.53269" lon="-4.36602">
        <ele>52.200000762939</ele>
        <time>2022-08-07T09:33:07.000Z</time>
      </trkpt>
      <trkpt lat="48.5327" lon="-4.36602">
        <ele>51.599998474121</ele>
        <time>2022-08-07T09:33:10.000Z</time>
      </trkpt>
    </trkseg>
  </trk>
</gpx>